<?xml version="1.0" encoding="UTF-8" standalone="no" ?>
<gpx xmlns="http://www.topografix.com/GPX/1/1" xmlns:xsi="http://www.w3.org/2001/XMLSchema-instance" xsi:schemaLocation="http://www.topografix.com/GPX/1/1 http://www.topografix.com/GPX/1/1/gpx.xsd" version="1.1" creator="VisuGPX - https://www.visugpx.com">
  <metadata>
    <name>séjour en étoile au val stura 8-13 mai 2018 CAF SLV</name>
    <desc><![CDATA[Depuis le refuge du Dahu à San  Bernolfo 

trace 1 : [b]col de la Gercha[/b] (2458m) mercredi 9 mai 2018
trace 2 :[b] cime de Colle Longue[/b] ( 2760m) jeudi 10 mai 2018
trace3 : [b]autour des lacs du Lausfer[/b]  ( ~2800 m)vendredi 11 mai 2018
trace4 : [b]pas de Colle Longue et cime ouest de la tête de l'Autaret [/b](2754m) samedi 12 mai 2018
]]></desc>
  </metadata>
  <trk>
    <name><![CDATA[20180514195401-MUPu9]]></name>
    <trkseg>
      <trkpt lat="44.26051" lon="7.04382">
        <ele>1687.5999755859</ele>
        <time>2018-05-09T06:02:25.000Z</time>
      </trkpt>
      <trkpt lat="44.2605" lon="7.04401">
        <ele>1687.5999755859</ele>
        <time>2018-05-09T06:02:26.000Z</time>
      </trkpt>
      <trkpt lat="44.26018" lon="7.04374">
        <ele>1686.5999755859</ele>
        <time>2018-05-09T06:02:56.000Z</time>
      </trkpt>
      <trkpt lat="44.26013" lon="7.04368">
        <ele>1686</ele>
        <time>2018-05-09T06:03:01.000Z</time>
      </trkpt>
      <trkpt lat="44.2601" lon="7.04364">
        <ele>1685.5999755859</ele>
        <time>2018-05-09T06:03:04.000Z</time>
      </trkpt>
      <trkpt lat="44.26007" lon="7.0436">
        <ele>1685.4000244141</ele>
        <time>2018-05-09T06:03:09.000Z</time>
      </trkpt>
      <trkpt lat="44.26006" lon="7.04358">
        <ele>1685.4000244141</ele>
        <time>2018-05-09T06:03:10.000Z</time>
      </trkpt>
      <trkpt lat="44.26004" lon="7.04355">
        <ele>1685.4000244141</ele>
        <time>2018-05-09T06:03:13.000Z</time>
      </trkpt>
      <trkpt lat="44.25997" lon="7.04346">
        <ele>1685</ele>
        <time>2018-05-09T06:03:20.000Z</time>
      </trkpt>
      <trkpt lat="44.25994" lon="7.04341">
        <ele>1684.8000488281</ele>
        <time>2018-05-09T06:03:24.000Z</time>
      </trkpt>
      <trkpt lat="44.25988" lon="7.04333">
        <ele>1684.4000244141</ele>
        <time>2018-05-09T06:03:30.000Z</time>
      </trkpt>
      <trkpt lat="44.25986" lon="7.04331">
        <ele>1684.4000244141</ele>
        <time>2018-05-09T06:03:32.000Z</time>
      </trkpt>
      <trkpt lat="44.25985" lon="7.04328">
        <ele>1684.4000244141</ele>
        <time>2018-05-09T06:03:34.000Z</time>
      </trkpt>
      <trkpt lat="44.25983" lon="7.04325">
        <ele>1684.4000244141</ele>
        <time>2018-05-09T06:03:37.000Z</time>
      </trkpt>
      <trkpt lat="44.25977" lon="7.04317">
        <ele>1684.1999511719</ele>
        <time>2018-05-09T06:03:44.000Z</time>
      </trkpt>
      <trkpt lat="44.25972" lon="7.04312">
        <ele>1684</ele>
        <time>2018-05-09T06:03:48.000Z</time>
      </trkpt>
      <trkpt lat="44.25967" lon="7.04307">
        <ele>1683.8000488281</ele>
        <time>2018-05-09T06:03:53.000Z</time>
      </trkpt>
      <trkpt lat="44.25968" lon="7.04307">
        <ele>1684</ele>
        <time>2018-05-09T06:03:58.000Z</time>
      </trkpt>
      <trkpt lat="44.25968" lon="7.04306">
        <ele>1684</ele>
        <time>2018-05-09T06:04:00.000Z</time>
      </trkpt>
      <trkpt lat="44.25967" lon="7.04305">
        <ele>1683.8000488281</ele>
        <time>2018-05-09T06:04:02.000Z</time>
      </trkpt>
      <trkpt lat="44.25964" lon="7.04301">
        <ele>1683.8000488281</ele>
        <time>2018-05-09T06:04:04.000Z</time>
      </trkpt>
      <trkpt lat="44.25963" lon="7.043">
        <ele>1683.8000488281</ele>
        <time>2018-05-09T06:04:05.000Z</time>
      </trkpt>
      <trkpt lat="44.25962" lon="7.04298">
        <ele>1683.5999755859</ele>
        <time>2018-05-09T06:04:06.000Z</time>
      </trkpt>
      <trkpt lat="44.25961" lon="7.04296">
        <ele>1683.5999755859</ele>
        <time>2018-05-09T06:04:07.000Z</time>
      </trkpt>
      <trkpt lat="44.25956" lon="7.04295">
        <ele>1683.4000244141</ele>
        <time>2018-05-09T06:04:12.000Z</time>
      </trkpt>
      <trkpt lat="44.25956" lon="7.04295">
        <ele>1683.4000244141</ele>
        <time>2018-05-09T06:04:13.000Z</time>
      </trkpt>
      <trkpt lat="44.2595" lon="7.04293">
        <ele>1683</ele>
        <time>2018-05-09T06:04:19.000Z</time>
      </trkpt>
      <trkpt lat="44.25943" lon="7.04288">
        <ele>1682.8000488281</ele>
        <time>2018-05-09T06:04:24.000Z</time>
      </trkpt>
      <trkpt lat="44.25938" lon="7.04288">
        <ele>1683</ele>
        <time>2018-05-09T06:04:28.000Z</time>
      </trkpt>
      <trkpt lat="44.25933" lon="7.04288">
        <ele>1683</ele>
        <time>2018-05-09T06:04:30.000Z</time>
      </trkpt>
      <trkpt lat="44.25933" lon="7.04286">
        <ele>1682.8000488281</ele>
        <time>2018-05-09T06:04:31.000Z</time>
      </trkpt>
      <trkpt lat="44.25932" lon="7.04285">
        <ele>1682.8000488281</ele>
        <time>2018-05-09T06:04:32.000Z</time>
      </trkpt>
      <trkpt lat="44.25929" lon="7.04284">
        <ele>1682.8000488281</ele>
        <time>2018-05-09T06:04:34.000Z</time>
      </trkpt>
      <trkpt lat="44.25928" lon="7.04283">
        <ele>1682.8000488281</ele>
        <time>2018-05-09T06:04:36.000Z</time>
      </trkpt>
      <trkpt lat="44.25928" lon="7.04281">
        <ele>1682.8000488281</ele>
        <time>2018-05-09T06:04:38.000Z</time>
      </trkpt>
      <trkpt lat="44.25927" lon="7.0428">
        <ele>1683</ele>
        <time>2018-05-09T06:04:41.000Z</time>
      </trkpt>
      <trkpt lat="44.25926" lon="7.04276">
        <ele>1683</ele>
        <time>2018-05-09T06:04:44.000Z</time>
      </trkpt>
      <trkpt lat="44.25926" lon="7.04274">
        <ele>1682.8000488281</ele>
        <time>2018-05-09T06:04:45.000Z</time>
      </trkpt>
      <trkpt lat="44.25924" lon="7.04273">
        <ele>1682.8000488281</ele>
        <time>2018-05-09T06:04:46.000Z</time>
      </trkpt>
      <trkpt lat="44.25922" lon="7.04271">
        <ele>1682.5999755859</ele>
        <time>2018-05-09T06:04:49.000Z</time>
      </trkpt>
      <trkpt lat="44.25921" lon="7.0427">
        <ele>1682.5999755859</ele>
        <time>2018-05-09T06:04:50.000Z</time>
      </trkpt>
      <trkpt lat="44.25915" lon="7.04261">
        <ele>1682.4000244141</ele>
        <time>2018-05-09T06:04:57.000Z</time>
      </trkpt>
      <trkpt lat="44.25907" lon="7.04257">
        <ele>1682</ele>
        <time>2018-05-09T06:05:03.000Z</time>
      </trkpt>
      <trkpt lat="44.25905" lon="7.04251">
        <ele>1681.4000244141</ele>
        <time>2018-05-09T06:05:09.000Z</time>
      </trkpt>
      <trkpt lat="44.25904" lon="7.0425">
        <ele>1681.4000244141</ele>
        <time>2018-05-09T06:05:10.000Z</time>
      </trkpt>
      <trkpt lat="44.25902" lon="7.04248">
        <ele>1681.1999511719</ele>
        <time>2018-05-09T06:05:12.000Z</time>
      </trkpt>
      <trkpt lat="44.259" lon="7.04245">
        <ele>1681</ele>
        <time>2018-05-09T06:05:14.000Z</time>
      </trkpt>
      <trkpt lat="44.25895" lon="7.04236">
        <ele>1680.5999755859</ele>
        <time>2018-05-09T06:05:20.000Z</time>
      </trkpt>
      <trkpt lat="44.25893" lon="7.04233">
        <ele>1680.4000244141</ele>
        <time>2018-05-09T06:05:22.000Z</time>
      </trkpt>
      <trkpt lat="44.25892" lon="7.04232">
        <ele>1680.1999511719</ele>
        <time>2018-05-09T06:05:23.000Z</time>
      </trkpt>
      <trkpt lat="44.25891" lon="7.04231">
        <ele>1680</ele>
        <time>2018-05-09T06:05:24.000Z</time>
      </trkpt>
      <trkpt lat="44.2589" lon="7.04231">
        <ele>1680</ele>
        <time>2018-05-09T06:05:25.000Z</time>
      </trkpt>
      <trkpt lat="44.25888" lon="7.0423">
        <ele>1679.8000488281</ele>
        <time>2018-05-09T06:05:27.000Z</time>
      </trkpt>
      <trkpt lat="44.25882" lon="7.04231">
        <ele>1679.8000488281</ele>
        <time>2018-05-09T06:05:31.000Z</time>
      </trkpt>
      <trkpt lat="44.25876" lon="7.04231">
        <ele>1680</ele>
        <time>2018-05-09T06:05:36.000Z</time>
      </trkpt>
      <trkpt lat="44.25874" lon="7.04231">
        <ele>1680</ele>
        <time>2018-05-09T06:05:39.000Z</time>
      </trkpt>
      <trkpt lat="44.25869" lon="7.04235">
        <ele>1679.8000488281</ele>
        <time>2018-05-09T06:05:42.000Z</time>
      </trkpt>
      <trkpt lat="44.25867" lon="7.04236">
        <ele>1679.8000488281</ele>
        <time>2018-05-09T06:05:43.000Z</time>
      </trkpt>
      <trkpt lat="44.25865" lon="7.04237">
        <ele>1679.8000488281</ele>
        <time>2018-05-09T06:05:44.000Z</time>
      </trkpt>
      <trkpt lat="44.25854" lon="7.04243">
        <ele>1679.8000488281</ele>
        <time>2018-05-09T06:05:50.000Z</time>
      </trkpt>
      <trkpt lat="44.25851" lon="7.04245">
        <ele>1679.5999755859</ele>
        <time>2018-05-09T06:05:52.000Z</time>
      </trkpt>
      <trkpt lat="44.25849" lon="7.04246">
        <ele>1679.5999755859</ele>
        <time>2018-05-09T06:05:53.000Z</time>
      </trkpt>
      <trkpt lat="44.25839" lon="7.04257">
        <ele>1679.4000244141</ele>
        <time>2018-05-09T06:06:01.000Z</time>
      </trkpt>
      <trkpt lat="44.25838" lon="7.04255">
        <ele>1679.1999511719</ele>
        <time>2018-05-09T06:06:04.000Z</time>
      </trkpt>
      <trkpt lat="44.25837" lon="7.04258">
        <ele>1679</ele>
        <time>2018-05-09T06:06:06.000Z</time>
      </trkpt>
      <trkpt lat="44.25839" lon="7.04258">
        <ele>1678.8000488281</ele>
        <time>2018-05-09T06:06:09.000Z</time>
      </trkpt>
      <trkpt lat="44.25839" lon="7.04257">
        <ele>1678.8000488281</ele>
        <time>2018-05-09T06:06:10.000Z</time>
      </trkpt>
      <trkpt lat="44.2584" lon="7.04255">
        <ele>1679.4000244141</ele>
        <time>2018-05-09T06:06:13.000Z</time>
      </trkpt>
      <trkpt lat="44.25837" lon="7.04258">
        <ele>1679.4000244141</ele>
        <time>2018-05-09T06:06:15.000Z</time>
      </trkpt>
      <trkpt lat="44.25835" lon="7.04259">
        <ele>1678.8000488281</ele>
        <time>2018-05-09T06:06:16.000Z</time>
      </trkpt>
      <trkpt lat="44.25833" lon="7.04261">
        <ele>1679</ele>
        <time>2018-05-09T06:06:18.000Z</time>
      </trkpt>
      <trkpt lat="44.25827" lon="7.04275">
        <ele>1678</ele>
        <time>2018-05-09T06:06:33.000Z</time>
      </trkpt>
      <trkpt lat="44.25828" lon="7.0428">
        <ele>1677.5999755859</ele>
        <time>2018-05-09T06:06:37.000Z</time>
      </trkpt>
      <trkpt lat="44.25828" lon="7.04285">
        <ele>1677.4000244141</ele>
        <time>2018-05-09T06:06:41.000Z</time>
      </trkpt>
      <trkpt lat="44.25827" lon="7.04287">
        <ele>1677.4000244141</ele>
        <time>2018-05-09T06:06:43.000Z</time>
      </trkpt>
      <trkpt lat="44.25828" lon="7.04297">
        <ele>1677.1999511719</ele>
        <time>2018-05-09T06:06:50.000Z</time>
      </trkpt>
      <trkpt lat="44.25827" lon="7.04297">
        <ele>1677.1999511719</ele>
        <time>2018-05-09T06:06:53.000Z</time>
      </trkpt>
      <trkpt lat="44.25827" lon="7.04297">
        <ele>1677.1999511719</ele>
        <time>2018-05-09T06:06:54.000Z</time>
      </trkpt>
      <trkpt lat="44.25826" lon="7.04298">
        <ele>1677</ele>
        <time>2018-05-09T06:06:56.000Z</time>
      </trkpt>
      <trkpt lat="44.25823" lon="7.04301">
        <ele>1676.8000488281</ele>
        <time>2018-05-09T06:07:03.000Z</time>
      </trkpt>
      <trkpt lat="44.25823" lon="7.04299">
        <ele>1676.8000488281</ele>
        <time>2018-05-09T06:07:07.000Z</time>
      </trkpt>
      <trkpt lat="44.25825" lon="7.04296">
        <ele>1677.1999511719</ele>
        <time>2018-05-09T06:07:14.000Z</time>
      </trkpt>
      <trkpt lat="44.25825" lon="7.04296">
        <ele>1677.1999511719</ele>
        <time>2018-05-09T06:07:17.000Z</time>
      </trkpt>
      <trkpt lat="44.25825" lon="7.04297">
        <ele>1677.1999511719</ele>
        <time>2018-05-09T06:07:19.000Z</time>
      </trkpt>
      <trkpt lat="44.2583" lon="7.04295">
        <ele>1677.1999511719</ele>
        <time>2018-05-09T06:07:28.000Z</time>
      </trkpt>
      <trkpt lat="44.2583" lon="7.04293">
        <ele>1677</ele>
        <time>2018-05-09T06:07:30.000Z</time>
      </trkpt>
      <trkpt lat="44.2583" lon="7.04292">
        <ele>1677.1999511719</ele>
        <time>2018-05-09T06:07:32.000Z</time>
      </trkpt>
      <trkpt lat="44.2583" lon="7.04293">
        <ele>1677.1999511719</ele>
        <time>2018-05-09T06:07:34.000Z</time>
      </trkpt>
      <trkpt lat="44.2583" lon="7.04294">
        <ele>1677.1999511719</ele>
        <time>2018-05-09T06:07:36.000Z</time>
      </trkpt>
      <trkpt lat="44.25829" lon="7.04293">
        <ele>1677.1999511719</ele>
        <time>2018-05-09T06:07:42.000Z</time>
      </trkpt>
      <trkpt lat="44.25828" lon="7.04291">
        <ele>1677.5999755859</ele>
        <time>2018-05-09T06:07:54.000Z</time>
      </trkpt>
      <trkpt lat="44.25829" lon="7.04289">
        <ele>1677.5999755859</ele>
        <time>2018-05-09T06:07:57.000Z</time>
      </trkpt>
      <trkpt lat="44.25829" lon="7.04288">
        <ele>1677.5999755859</ele>
        <time>2018-05-09T06:08:01.000Z</time>
      </trkpt>
      <trkpt lat="44.2583" lon="7.04298">
        <ele>1676.5999755859</ele>
        <time>2018-05-09T06:08:15.000Z</time>
      </trkpt>
      <trkpt lat="44.25832" lon="7.04306">
        <ele>1676</ele>
        <time>2018-05-09T06:08:19.000Z</time>
      </trkpt>
      <trkpt lat="44.25834" lon="7.0431">
        <ele>1676</ele>
        <time>2018-05-09T06:08:21.000Z</time>
      </trkpt>
      <trkpt lat="44.25836" lon="7.04318">
        <ele>1675.8000488281</ele>
        <time>2018-05-09T06:08:25.000Z</time>
      </trkpt>
      <trkpt lat="44.25837" lon="7.0432">
        <ele>1675.8000488281</ele>
        <time>2018-05-09T06:08:26.000Z</time>
      </trkpt>
      <trkpt lat="44.25838" lon="7.04325">
        <ele>1675.5999755859</ele>
        <time>2018-05-09T06:08:28.000Z</time>
      </trkpt>
      <trkpt lat="44.25839" lon="7.04332">
        <ele>1675.1999511719</ele>
        <time>2018-05-09T06:08:31.000Z</time>
      </trkpt>
      <trkpt lat="44.25839" lon="7.04334">
        <ele>1675.1999511719</ele>
        <time>2018-05-09T06:08:32.000Z</time>
      </trkpt>
      <trkpt lat="44.2584" lon="7.04341">
        <ele>1674.8000488281</ele>
        <time>2018-05-09T06:08:35.000Z</time>
      </trkpt>
      <trkpt lat="44.25841" lon="7.04346">
        <ele>1674.8000488281</ele>
        <time>2018-05-09T06:08:37.000Z</time>
      </trkpt>
      <trkpt lat="44.25843" lon="7.0435">
        <ele>1674.4000244141</ele>
        <time>2018-05-09T06:08:39.000Z</time>
      </trkpt>
      <trkpt lat="44.25848" lon="7.04358">
        <ele>1673.8000488281</ele>
        <time>2018-05-09T06:08:43.000Z</time>
      </trkpt>
      <trkpt lat="44.25851" lon="7.04362">
        <ele>1673.4000244141</ele>
        <time>2018-05-09T06:08:46.000Z</time>
      </trkpt>
      <trkpt lat="44.25852" lon="7.04363">
        <ele>1673.1999511719</ele>
        <time>2018-05-09T06:08:47.000Z</time>
      </trkpt>
      <trkpt lat="44.25854" lon="7.04367">
        <ele>1672.8000488281</ele>
        <time>2018-05-09T06:08:50.000Z</time>
      </trkpt>
      <trkpt lat="44.25855" lon="7.04372">
        <ele>1672.5999755859</ele>
        <time>2018-05-09T06:08:53.000Z</time>
      </trkpt>
      <trkpt lat="44.25861" lon="7.04395">
        <ele>1671.8000488281</ele>
        <time>2018-05-09T06:09:07.000Z</time>
      </trkpt>
      <trkpt lat="44.25861" lon="7.04397">
        <ele>1671.5999755859</ele>
        <time>2018-05-09T06:09:08.000Z</time>
      </trkpt>
      <trkpt lat="44.25862" lon="7.04409">
        <ele>1670.8000488281</ele>
        <time>2018-05-09T06:09:16.000Z</time>
      </trkpt>
      <trkpt lat="44.25862" lon="7.04415">
        <ele>1670.5999755859</ele>
        <time>2018-05-09T06:09:20.000Z</time>
      </trkpt>
      <trkpt lat="44.25863" lon="7.04429">
        <ele>1669.8000488281</ele>
        <time>2018-05-09T06:09:30.000Z</time>
      </trkpt>
      <trkpt lat="44.25864" lon="7.04431">
        <ele>1669.5999755859</ele>
        <time>2018-05-09T06:09:32.000Z</time>
      </trkpt>
      <trkpt lat="44.25866" lon="7.04436">
        <ele>1669.4000244141</ele>
        <time>2018-05-09T06:09:35.000Z</time>
      </trkpt>
      <trkpt lat="44.25866" lon="7.04442">
        <ele>1669</ele>
        <time>2018-05-09T06:09:39.000Z</time>
      </trkpt>
      <trkpt lat="44.25867" lon="7.04447">
        <ele>1668.8000488281</ele>
        <time>2018-05-09T06:09:42.000Z</time>
      </trkpt>
      <trkpt lat="44.25867" lon="7.04451">
        <ele>1668.5999755859</ele>
        <time>2018-05-09T06:09:44.000Z</time>
      </trkpt>
      <trkpt lat="44.25868" lon="7.04453">
        <ele>1668.5999755859</ele>
        <time>2018-05-09T06:09:45.000Z</time>
      </trkpt>
      <trkpt lat="44.25868" lon="7.04456">
        <ele>1668.5999755859</ele>
        <time>2018-05-09T06:09:46.000Z</time>
      </trkpt>
      <trkpt lat="44.25869" lon="7.04465">
        <ele>1668</ele>
        <time>2018-05-09T06:09:51.000Z</time>
      </trkpt>
      <trkpt lat="44.25869" lon="7.04471">
        <ele>1667.5999755859</ele>
        <time>2018-05-09T06:09:55.000Z</time>
      </trkpt>
      <trkpt lat="44.25868" lon="7.04472">
        <ele>1667.5999755859</ele>
        <time>2018-05-09T06:09:56.000Z</time>
      </trkpt>
      <trkpt lat="44.25868" lon="7.04473">
        <ele>1667.4000244141</ele>
        <time>2018-05-09T06:09:57.000Z</time>
      </trkpt>
      <trkpt lat="44.25868" lon="7.04475">
        <ele>1667.4000244141</ele>
        <time>2018-05-09T06:09:58.000Z</time>
      </trkpt>
      <trkpt lat="44.25868" lon="7.04477">
        <ele>1667.1999511719</ele>
        <time>2018-05-09T06:10:00.000Z</time>
      </trkpt>
      <trkpt lat="44.25868" lon="7.04483">
        <ele>1666.8000488281</ele>
        <time>2018-05-09T06:10:03.000Z</time>
      </trkpt>
      <trkpt lat="44.25867" lon="7.04487">
        <ele>1666.5999755859</ele>
        <time>2018-05-09T06:10:07.000Z</time>
      </trkpt>
      <trkpt lat="44.25867" lon="7.04489">
        <ele>1666.4000244141</ele>
        <time>2018-05-09T06:10:08.000Z</time>
      </trkpt>
      <trkpt lat="44.25864" lon="7.04496">
        <ele>1666</ele>
        <time>2018-05-09T06:10:14.000Z</time>
      </trkpt>
      <trkpt lat="44.25864" lon="7.04499">
        <ele>1666</ele>
        <time>2018-05-09T06:10:16.000Z</time>
      </trkpt>
      <trkpt lat="44.25864" lon="7.04501">
        <ele>1665.8000488281</ele>
        <time>2018-05-09T06:10:18.000Z</time>
      </trkpt>
      <trkpt lat="44.25861" lon="7.04505">
        <ele>1665.4000244141</ele>
        <time>2018-05-09T06:10:21.000Z</time>
      </trkpt>
      <trkpt lat="44.25858" lon="7.04508">
        <ele>1665.4000244141</ele>
        <time>2018-05-09T06:10:26.000Z</time>
      </trkpt>
      <trkpt lat="44.25857" lon="7.04508">
        <ele>1665.4000244141</ele>
        <time>2018-05-09T06:10:29.000Z</time>
      </trkpt>
      <trkpt lat="44.25858" lon="7.04508">
        <ele>1665.4000244141</ele>
        <time>2018-05-09T06:10:30.000Z</time>
      </trkpt>
      <trkpt lat="44.25859" lon="7.04507">
        <ele>1665.4000244141</ele>
        <time>2018-05-09T06:10:33.000Z</time>
      </trkpt>
      <trkpt lat="44.25859" lon="7.04506">
        <ele>1665.4000244141</ele>
        <time>2018-05-09T06:10:40.000Z</time>
      </trkpt>
      <trkpt lat="44.25859" lon="7.04507">
        <ele>1665.4000244141</ele>
        <time>2018-05-09T06:10:42.000Z</time>
      </trkpt>
      <trkpt lat="44.25859" lon="7.04507">
        <ele>1665.4000244141</ele>
        <time>2018-05-09T06:10:46.000Z</time>
      </trkpt>
      <trkpt lat="44.25858" lon="7.04506">
        <ele>1665.1999511719</ele>
        <time>2018-05-09T06:10:53.000Z</time>
      </trkpt>
      <trkpt lat="44.25858" lon="7.04506">
        <ele>1665.1999511719</ele>
        <time>2018-05-09T06:10:54.000Z</time>
      </trkpt>
      <trkpt lat="44.25858" lon="7.04507">
        <ele>1665.1999511719</ele>
        <time>2018-05-09T06:10:55.000Z</time>
      </trkpt>
      <trkpt lat="44.25856" lon="7.0451">
        <ele>1665.1999511719</ele>
        <time>2018-05-09T06:11:02.000Z</time>
      </trkpt>
      <trkpt lat="44.25855" lon="7.04511">
        <ele>1665.1999511719</ele>
        <time>2018-05-09T06:11:05.000Z</time>
      </trkpt>
      <trkpt lat="44.25853" lon="7.04514">
        <ele>1665.4000244141</ele>
        <time>2018-05-09T06:11:09.000Z</time>
      </trkpt>
      <trkpt lat="44.25852" lon="7.04515">
        <ele>1665.5999755859</ele>
        <time>2018-05-09T06:11:11.000Z</time>
      </trkpt>
      <trkpt lat="44.25851" lon="7.04516">
        <ele>1665.8000488281</ele>
        <time>2018-05-09T06:11:12.000Z</time>
      </trkpt>
      <trkpt lat="44.25847" lon="7.0452">
        <ele>1666</ele>
        <time>2018-05-09T06:11:16.000Z</time>
      </trkpt>
      <trkpt lat="44.25845" lon="7.04523">
        <ele>1666.5999755859</ele>
        <time>2018-05-09T06:11:19.000Z</time>
      </trkpt>
      <trkpt lat="44.25844" lon="7.04526">
        <ele>1667.1999511719</ele>
        <time>2018-05-09T06:11:24.000Z</time>
      </trkpt>
      <trkpt lat="44.25843" lon="7.04528">
        <ele>1667.4000244141</ele>
        <time>2018-05-09T06:11:25.000Z</time>
      </trkpt>
      <trkpt lat="44.25843" lon="7.04529">
        <ele>1667.5999755859</ele>
        <time>2018-05-09T06:11:26.000Z</time>
      </trkpt>
      <trkpt lat="44.25843" lon="7.04531">
        <ele>1667.5999755859</ele>
        <time>2018-05-09T06:11:27.000Z</time>
      </trkpt>
      <trkpt lat="44.25841" lon="7.04537">
        <ele>1668.5999755859</ele>
        <time>2018-05-09T06:11:33.000Z</time>
      </trkpt>
      <trkpt lat="44.25838" lon="7.04544">
        <ele>1669.5999755859</ele>
        <time>2018-05-09T06:11:39.000Z</time>
      </trkpt>
      <trkpt lat="44.25836" lon="7.04545">
        <ele>1669.8000488281</ele>
        <time>2018-05-09T06:11:41.000Z</time>
      </trkpt>
      <trkpt lat="44.25835" lon="7.04547">
        <ele>1670</ele>
        <time>2018-05-09T06:11:43.000Z</time>
      </trkpt>
      <trkpt lat="44.25835" lon="7.04552">
        <ele>1670.1999511719</ele>
        <time>2018-05-09T06:11:46.000Z</time>
      </trkpt>
      <trkpt lat="44.25835" lon="7.04553">
        <ele>1670.1999511719</ele>
        <time>2018-05-09T06:11:47.000Z</time>
      </trkpt>
      <trkpt lat="44.25836" lon="7.04556">
        <ele>1670.4000244141</ele>
        <time>2018-05-09T06:11:51.000Z</time>
      </trkpt>
      <trkpt lat="44.25835" lon="7.04555">
        <ele>1670.4000244141</ele>
        <time>2018-05-09T06:11:56.000Z</time>
      </trkpt>
      <trkpt lat="44.25835" lon="7.04554">
        <ele>1670.4000244141</ele>
        <time>2018-05-09T06:11:58.000Z</time>
      </trkpt>
      <trkpt lat="44.25832" lon="7.04558">
        <ele>1670.5999755859</ele>
        <time>2018-05-09T06:12:14.000Z</time>
      </trkpt>
      <trkpt lat="44.25831" lon="7.0456">
        <ele>1671</ele>
        <time>2018-05-09T06:12:15.000Z</time>
      </trkpt>
      <trkpt lat="44.25825" lon="7.04571">
        <ele>1671.4000244141</ele>
        <time>2018-05-09T06:12:21.000Z</time>
      </trkpt>
      <trkpt lat="44.25825" lon="7.04573">
        <ele>1671.5999755859</ele>
        <time>2018-05-09T06:12:22.000Z</time>
      </trkpt>
      <trkpt lat="44.25826" lon="7.04575">
        <ele>1671.5999755859</ele>
        <time>2018-05-09T06:12:23.000Z</time>
      </trkpt>
      <trkpt lat="44.25825" lon="7.04576">
        <ele>1671.8000488281</ele>
        <time>2018-05-09T06:12:24.000Z</time>
      </trkpt>
      <trkpt lat="44.25825" lon="7.04578">
        <ele>1672</ele>
        <time>2018-05-09T06:12:26.000Z</time>
      </trkpt>
      <trkpt lat="44.25828" lon="7.04578">
        <ele>1672.4000244141</ele>
        <time>2018-05-09T06:12:30.000Z</time>
      </trkpt>
      <trkpt lat="44.25826" lon="7.04577">
        <ele>1672.8000488281</ele>
        <time>2018-05-09T06:12:47.000Z</time>
      </trkpt>
      <trkpt lat="44.25824" lon="7.0458">
        <ele>1673</ele>
        <time>2018-05-09T06:12:52.000Z</time>
      </trkpt>
      <trkpt lat="44.25824" lon="7.04582">
        <ele>1673</ele>
        <time>2018-05-09T06:12:53.000Z</time>
      </trkpt>
      <trkpt lat="44.25822" lon="7.04586">
        <ele>1673.5999755859</ele>
        <time>2018-05-09T06:12:56.000Z</time>
      </trkpt>
      <trkpt lat="44.25822" lon="7.04587">
        <ele>1674.1999511719</ele>
        <time>2018-05-09T06:12:58.000Z</time>
      </trkpt>
      <trkpt lat="44.25819" lon="7.0459">
        <ele>1674.5999755859</ele>
        <time>2018-05-09T06:13:02.000Z</time>
      </trkpt>
      <trkpt lat="44.25817" lon="7.0459">
        <ele>1675.1999511719</ele>
        <time>2018-05-09T06:13:06.000Z</time>
      </trkpt>
      <trkpt lat="44.25816" lon="7.04592">
        <ele>1675.5999755859</ele>
        <time>2018-05-09T06:13:16.000Z</time>
      </trkpt>
      <trkpt lat="44.25813" lon="7.04594">
        <ele>1675.8000488281</ele>
        <time>2018-05-09T06:13:20.000Z</time>
      </trkpt>
      <trkpt lat="44.2581" lon="7.04597">
        <ele>1676.1999511719</ele>
        <time>2018-05-09T06:13:23.000Z</time>
      </trkpt>
      <trkpt lat="44.2581" lon="7.04597">
        <ele>1676.4000244141</ele>
        <time>2018-05-09T06:13:24.000Z</time>
      </trkpt>
      <trkpt lat="44.25808" lon="7.04602">
        <ele>1677.1999511719</ele>
        <time>2018-05-09T06:13:30.000Z</time>
      </trkpt>
      <trkpt lat="44.25808" lon="7.04603">
        <ele>1677.4000244141</ele>
        <time>2018-05-09T06:13:31.000Z</time>
      </trkpt>
      <trkpt lat="44.25807" lon="7.04606">
        <ele>1677.8000488281</ele>
        <time>2018-05-09T06:13:33.000Z</time>
      </trkpt>
      <trkpt lat="44.25807" lon="7.04608">
        <ele>1678</ele>
        <time>2018-05-09T06:13:35.000Z</time>
      </trkpt>
      <trkpt lat="44.25809" lon="7.0461">
        <ele>1678.4000244141</ele>
        <time>2018-05-09T06:13:38.000Z</time>
      </trkpt>
      <trkpt lat="44.25808" lon="7.04612">
        <ele>1678.5999755859</ele>
        <time>2018-05-09T06:13:40.000Z</time>
      </trkpt>
      <trkpt lat="44.25804" lon="7.04617">
        <ele>1678.8000488281</ele>
        <time>2018-05-09T06:13:45.000Z</time>
      </trkpt>
      <trkpt lat="44.25802" lon="7.0462">
        <ele>1679</ele>
        <time>2018-05-09T06:13:48.000Z</time>
      </trkpt>
      <trkpt lat="44.25801" lon="7.04622">
        <ele>1679.5999755859</ele>
        <time>2018-05-09T06:13:51.000Z</time>
      </trkpt>
      <trkpt lat="44.25802" lon="7.04622">
        <ele>1679.5999755859</ele>
        <time>2018-05-09T06:13:52.000Z</time>
      </trkpt>
      <trkpt lat="44.258" lon="7.04624">
        <ele>1679.8000488281</ele>
        <time>2018-05-09T06:13:56.000Z</time>
      </trkpt>
      <trkpt lat="44.25799" lon="7.04625">
        <ele>1680.5999755859</ele>
        <time>2018-05-09T06:14:01.000Z</time>
      </trkpt>
      <trkpt lat="44.25799" lon="7.04625">
        <ele>1680.5999755859</ele>
        <time>2018-05-09T06:14:02.000Z</time>
      </trkpt>
      <trkpt lat="44.25798" lon="7.04624">
        <ele>1680.5999755859</ele>
        <time>2018-05-09T06:14:11.000Z</time>
      </trkpt>
      <trkpt lat="44.25796" lon="7.04626">
        <ele>1681.1999511719</ele>
        <time>2018-05-09T06:14:17.000Z</time>
      </trkpt>
      <trkpt lat="44.25795" lon="7.04628">
        <ele>1681.1999511719</ele>
        <time>2018-05-09T06:14:18.000Z</time>
      </trkpt>
      <trkpt lat="44.25793" lon="7.04631">
        <ele>1681.5999755859</ele>
        <time>2018-05-09T06:14:20.000Z</time>
      </trkpt>
      <trkpt lat="44.2579" lon="7.04635">
        <ele>1682.5999755859</ele>
        <time>2018-05-09T06:14:26.000Z</time>
      </trkpt>
      <trkpt lat="44.2579" lon="7.04636">
        <ele>1682.5999755859</ele>
        <time>2018-05-09T06:14:27.000Z</time>
      </trkpt>
      <trkpt lat="44.25789" lon="7.04637">
        <ele>1682.8000488281</ele>
        <time>2018-05-09T06:14:28.000Z</time>
      </trkpt>
      <trkpt lat="44.25788" lon="7.04639">
        <ele>1683.4000244141</ele>
        <time>2018-05-09T06:14:31.000Z</time>
      </trkpt>
      <trkpt lat="44.25787" lon="7.0464">
        <ele>1683.8000488281</ele>
        <time>2018-05-09T06:14:33.000Z</time>
      </trkpt>
      <trkpt lat="44.25786" lon="7.04642">
        <ele>1684.1999511719</ele>
        <time>2018-05-09T06:14:36.000Z</time>
      </trkpt>
      <trkpt lat="44.25786" lon="7.04645">
        <ele>1684.8000488281</ele>
        <time>2018-05-09T06:14:41.000Z</time>
      </trkpt>
      <trkpt lat="44.25787" lon="7.04659">
        <ele>1686</ele>
        <time>2018-05-09T06:14:51.000Z</time>
      </trkpt>
      <trkpt lat="44.25788" lon="7.04662">
        <ele>1686.5999755859</ele>
        <time>2018-05-09T06:14:57.000Z</time>
      </trkpt>
      <trkpt lat="44.25786" lon="7.0466">
        <ele>1686.5999755859</ele>
        <time>2018-05-09T06:15:17.000Z</time>
      </trkpt>
      <trkpt lat="44.25788" lon="7.04657">
        <ele>1686.5999755859</ele>
        <time>2018-05-09T06:15:23.000Z</time>
      </trkpt>
      <trkpt lat="44.25787" lon="7.04656">
        <ele>1686.5999755859</ele>
        <time>2018-05-09T06:15:25.000Z</time>
      </trkpt>
      <trkpt lat="44.25787" lon="7.04655">
        <ele>1686.5999755859</ele>
        <time>2018-05-09T06:15:26.000Z</time>
      </trkpt>
      <trkpt lat="44.25786" lon="7.04655">
        <ele>1686.5999755859</ele>
        <time>2018-05-09T06:15:27.000Z</time>
      </trkpt>
      <trkpt lat="44.25786" lon="7.04655">
        <ele>1686.5999755859</ele>
        <time>2018-05-09T06:15:29.000Z</time>
      </trkpt>
      <trkpt lat="44.25783" lon="7.04649">
        <ele>1685.4000244141</ele>
        <time>2018-05-09T06:15:34.000Z</time>
      </trkpt>
      <trkpt lat="44.25784" lon="7.04649">
        <ele>1685.4000244141</ele>
        <time>2018-05-09T06:15:36.000Z</time>
      </trkpt>
      <trkpt lat="44.25786" lon="7.04649">
        <ele>1685.4000244141</ele>
        <time>2018-05-09T06:15:37.000Z</time>
      </trkpt>
      <trkpt lat="44.25784" lon="7.0465">
        <ele>1685.4000244141</ele>
        <time>2018-05-09T06:15:40.000Z</time>
      </trkpt>
      <trkpt lat="44.25784" lon="7.0465">
        <ele>1685.4000244141</ele>
        <time>2018-05-09T06:15:41.000Z</time>
      </trkpt>
      <trkpt lat="44.25783" lon="7.04648">
        <ele>1685.4000244141</ele>
        <time>2018-05-09T06:15:46.000Z</time>
      </trkpt>
      <trkpt lat="44.25783" lon="7.04647">
        <ele>1685.4000244141</ele>
        <time>2018-05-09T06:15:47.000Z</time>
      </trkpt>
      <trkpt lat="44.25783" lon="7.04646">
        <ele>1685.4000244141</ele>
        <time>2018-05-09T06:15:48.000Z</time>
      </trkpt>
      <trkpt lat="44.25781" lon="7.04656">
        <ele>1685.1999511719</ele>
        <time>2018-05-09T06:16:00.000Z</time>
      </trkpt>
      <trkpt lat="44.25779" lon="7.04658">
        <ele>1685.1999511719</ele>
        <time>2018-05-09T06:16:01.000Z</time>
      </trkpt>
      <trkpt lat="44.25781" lon="7.04664">
        <ele>1685.4000244141</ele>
        <time>2018-05-09T06:16:05.000Z</time>
      </trkpt>
      <trkpt lat="44.25781" lon="7.0467">
        <ele>1685.8000488281</ele>
        <time>2018-05-09T06:16:08.000Z</time>
      </trkpt>
      <trkpt lat="44.25783" lon="7.04674">
        <ele>1685.8000488281</ele>
        <time>2018-05-09T06:16:10.000Z</time>
      </trkpt>
      <trkpt lat="44.25782" lon="7.04674">
        <ele>1685.8000488281</ele>
        <time>2018-05-09T06:16:11.000Z</time>
      </trkpt>
      <trkpt lat="44.25782" lon="7.04677">
        <ele>1686</ele>
        <time>2018-05-09T06:16:13.000Z</time>
      </trkpt>
      <trkpt lat="44.25783" lon="7.04678">
        <ele>1686</ele>
        <time>2018-05-09T06:16:14.000Z</time>
      </trkpt>
      <trkpt lat="44.25785" lon="7.0468">
        <ele>1686.1999511719</ele>
        <time>2018-05-09T06:16:18.000Z</time>
      </trkpt>
      <trkpt lat="44.25785" lon="7.04681">
        <ele>1686.1999511719</ele>
        <time>2018-05-09T06:16:19.000Z</time>
      </trkpt>
      <trkpt lat="44.25783" lon="7.04684">
        <ele>1686.1999511719</ele>
        <time>2018-05-09T06:16:21.000Z</time>
      </trkpt>
      <trkpt lat="44.25782" lon="7.04686">
        <ele>1686.5999755859</ele>
        <time>2018-05-09T06:16:23.000Z</time>
      </trkpt>
      <trkpt lat="44.25781" lon="7.04689">
        <ele>1687.1999511719</ele>
        <time>2018-05-09T06:16:26.000Z</time>
      </trkpt>
      <trkpt lat="44.25779" lon="7.04692">
        <ele>1687.5999755859</ele>
        <time>2018-05-09T06:16:28.000Z</time>
      </trkpt>
      <trkpt lat="44.25776" lon="7.04696">
        <ele>1688.1999511719</ele>
        <time>2018-05-09T06:16:32.000Z</time>
      </trkpt>
      <trkpt lat="44.25771" lon="7.04699">
        <ele>1688.5999755859</ele>
        <time>2018-05-09T06:16:36.000Z</time>
      </trkpt>
      <trkpt lat="44.25768" lon="7.04705">
        <ele>1689.1999511719</ele>
        <time>2018-05-09T06:16:42.000Z</time>
      </trkpt>
      <trkpt lat="44.25769" lon="7.04707">
        <ele>1689.1999511719</ele>
        <time>2018-05-09T06:16:43.000Z</time>
      </trkpt>
      <trkpt lat="44.25768" lon="7.04708">
        <ele>1689.4000244141</ele>
        <time>2018-05-09T06:16:44.000Z</time>
      </trkpt>
      <trkpt lat="44.25768" lon="7.0471">
        <ele>1689.5999755859</ele>
        <time>2018-05-09T06:16:46.000Z</time>
      </trkpt>
      <trkpt lat="44.25767" lon="7.04713">
        <ele>1690.4000244141</ele>
        <time>2018-05-09T06:16:50.000Z</time>
      </trkpt>
      <trkpt lat="44.25769" lon="7.04722">
        <ele>1690.8000488281</ele>
        <time>2018-05-09T06:16:55.000Z</time>
      </trkpt>
      <trkpt lat="44.25769" lon="7.04724">
        <ele>1691</ele>
        <time>2018-05-09T06:16:57.000Z</time>
      </trkpt>
      <trkpt lat="44.2577" lon="7.04727">
        <ele>1691.4000244141</ele>
        <time>2018-05-09T06:17:00.000Z</time>
      </trkpt>
      <trkpt lat="44.25769" lon="7.04729">
        <ele>1691.8000488281</ele>
        <time>2018-05-09T06:17:02.000Z</time>
      </trkpt>
      <trkpt lat="44.2577" lon="7.04731">
        <ele>1692</ele>
        <time>2018-05-09T06:17:04.000Z</time>
      </trkpt>
      <trkpt lat="44.25771" lon="7.04733">
        <ele>1692.1999511719</ele>
        <time>2018-05-09T06:17:06.000Z</time>
      </trkpt>
      <trkpt lat="44.25769" lon="7.04734">
        <ele>1692.4000244141</ele>
        <time>2018-05-09T06:17:08.000Z</time>
      </trkpt>
      <trkpt lat="44.25766" lon="7.04741">
        <ele>1693</ele>
        <time>2018-05-09T06:17:15.000Z</time>
      </trkpt>
      <trkpt lat="44.25765" lon="7.04741">
        <ele>1693</ele>
        <time>2018-05-09T06:17:16.000Z</time>
      </trkpt>
      <trkpt lat="44.25763" lon="7.04743">
        <ele>1693.4000244141</ele>
        <time>2018-05-09T06:17:20.000Z</time>
      </trkpt>
      <trkpt lat="44.25762" lon="7.04743">
        <ele>1693.4000244141</ele>
        <time>2018-05-09T06:17:21.000Z</time>
      </trkpt>
      <trkpt lat="44.2576" lon="7.04744">
        <ele>1693.8000488281</ele>
        <time>2018-05-09T06:17:25.000Z</time>
      </trkpt>
      <trkpt lat="44.25758" lon="7.04745">
        <ele>1694.1999511719</ele>
        <time>2018-05-09T06:17:28.000Z</time>
      </trkpt>
      <trkpt lat="44.25755" lon="7.04747">
        <ele>1694.5999755859</ele>
        <time>2018-05-09T06:17:32.000Z</time>
      </trkpt>
      <trkpt lat="44.25754" lon="7.04748">
        <ele>1694.8000488281</ele>
        <time>2018-05-09T06:17:33.000Z</time>
      </trkpt>
      <trkpt lat="44.25753" lon="7.04748">
        <ele>1694.8000488281</ele>
        <time>2018-05-09T06:17:34.000Z</time>
      </trkpt>
      <trkpt lat="44.25752" lon="7.04748">
        <ele>1694.8000488281</ele>
        <time>2018-05-09T06:17:35.000Z</time>
      </trkpt>
      <trkpt lat="44.2575" lon="7.04752">
        <ele>1695.1999511719</ele>
        <time>2018-05-09T06:17:41.000Z</time>
      </trkpt>
      <trkpt lat="44.25748" lon="7.04754">
        <ele>1695.5999755859</ele>
        <time>2018-05-09T06:17:43.000Z</time>
      </trkpt>
      <trkpt lat="44.25747" lon="7.04761">
        <ele>1696.4000244141</ele>
        <time>2018-05-09T06:17:51.000Z</time>
      </trkpt>
      <trkpt lat="44.25744" lon="7.04763">
        <ele>1696.8000488281</ele>
        <time>2018-05-09T06:17:54.000Z</time>
      </trkpt>
      <trkpt lat="44.25743" lon="7.04766">
        <ele>1697</ele>
        <time>2018-05-09T06:17:56.000Z</time>
      </trkpt>
      <trkpt lat="44.25742" lon="7.04769">
        <ele>1697.1999511719</ele>
        <time>2018-05-09T06:17:59.000Z</time>
      </trkpt>
      <trkpt lat="44.25742" lon="7.04774">
        <ele>1697.8000488281</ele>
        <time>2018-05-09T06:18:03.000Z</time>
      </trkpt>
      <trkpt lat="44.25738" lon="7.04782">
        <ele>1698.8000488281</ele>
        <time>2018-05-09T06:18:12.000Z</time>
      </trkpt>
      <trkpt lat="44.25737" lon="7.04783">
        <ele>1699</ele>
        <time>2018-05-09T06:18:13.000Z</time>
      </trkpt>
      <trkpt lat="44.25731" lon="7.04791">
        <ele>1700</ele>
        <time>2018-05-09T06:18:20.000Z</time>
      </trkpt>
      <trkpt lat="44.2573" lon="7.04792">
        <ele>1700.1999511719</ele>
        <time>2018-05-09T06:18:23.000Z</time>
      </trkpt>
      <trkpt lat="44.25722" lon="7.04793">
        <ele>1701</ele>
        <time>2018-05-09T06:18:30.000Z</time>
      </trkpt>
      <trkpt lat="44.25717" lon="7.04798">
        <ele>1701.8000488281</ele>
        <time>2018-05-09T06:18:38.000Z</time>
      </trkpt>
      <trkpt lat="44.25716" lon="7.048">
        <ele>1702</ele>
        <time>2018-05-09T06:18:40.000Z</time>
      </trkpt>
      <trkpt lat="44.25715" lon="7.04801">
        <ele>1702</ele>
        <time>2018-05-09T06:18:41.000Z</time>
      </trkpt>
      <trkpt lat="44.25715" lon="7.04801">
        <ele>1702.8000488281</ele>
        <time>2018-05-09T06:18:47.000Z</time>
      </trkpt>
      <trkpt lat="44.25713" lon="7.04802">
        <ele>1703</ele>
        <time>2018-05-09T06:18:49.000Z</time>
      </trkpt>
      <trkpt lat="44.25713" lon="7.04803">
        <ele>1703.1999511719</ele>
        <time>2018-05-09T06:18:51.000Z</time>
      </trkpt>
      <trkpt lat="44.25709" lon="7.04808">
        <ele>1704</ele>
        <time>2018-05-09T06:18:58.000Z</time>
      </trkpt>
      <trkpt lat="44.25703" lon="7.04811">
        <ele>1704.5999755859</ele>
        <time>2018-05-09T06:19:04.000Z</time>
      </trkpt>
      <trkpt lat="44.25702" lon="7.04812">
        <ele>1705.1999511719</ele>
        <time>2018-05-09T06:19:07.000Z</time>
      </trkpt>
      <trkpt lat="44.25691" lon="7.04812">
        <ele>1706.1999511719</ele>
        <time>2018-05-09T06:19:16.000Z</time>
      </trkpt>
      <trkpt lat="44.25687" lon="7.04808">
        <ele>1706.8000488281</ele>
        <time>2018-05-09T06:19:22.000Z</time>
      </trkpt>
      <trkpt lat="44.25684" lon="7.04809">
        <ele>1707.1999511719</ele>
        <time>2018-05-09T06:19:26.000Z</time>
      </trkpt>
      <trkpt lat="44.2568" lon="7.0481">
        <ele>1707.5999755859</ele>
        <time>2018-05-09T06:19:31.000Z</time>
      </trkpt>
      <trkpt lat="44.25679" lon="7.04811">
        <ele>1707.5999755859</ele>
        <time>2018-05-09T06:19:32.000Z</time>
      </trkpt>
      <trkpt lat="44.25678" lon="7.04812">
        <ele>1707.8000488281</ele>
        <time>2018-05-09T06:19:33.000Z</time>
      </trkpt>
      <trkpt lat="44.25678" lon="7.04814">
        <ele>1708</ele>
        <time>2018-05-09T06:19:35.000Z</time>
      </trkpt>
      <trkpt lat="44.25677" lon="7.04815">
        <ele>1708.1999511719</ele>
        <time>2018-05-09T06:19:36.000Z</time>
      </trkpt>
      <trkpt lat="44.25677" lon="7.04815">
        <ele>1708.1999511719</ele>
        <time>2018-05-09T06:19:37.000Z</time>
      </trkpt>
      <trkpt lat="44.25673" lon="7.04817">
        <ele>1709.4000244141</ele>
        <time>2018-05-09T06:19:45.000Z</time>
      </trkpt>
      <trkpt lat="44.25671" lon="7.04819">
        <ele>1709.5999755859</ele>
        <time>2018-05-09T06:19:47.000Z</time>
      </trkpt>
      <trkpt lat="44.2567" lon="7.04819">
        <ele>1709.8000488281</ele>
        <time>2018-05-09T06:19:48.000Z</time>
      </trkpt>
      <trkpt lat="44.25668" lon="7.04822">
        <ele>1710.4000244141</ele>
        <time>2018-05-09T06:19:53.000Z</time>
      </trkpt>
      <trkpt lat="44.25665" lon="7.04824">
        <ele>1710.8000488281</ele>
        <time>2018-05-09T06:19:56.000Z</time>
      </trkpt>
      <trkpt lat="44.25664" lon="7.04826">
        <ele>1711</ele>
        <time>2018-05-09T06:19:58.000Z</time>
      </trkpt>
      <trkpt lat="44.25662" lon="7.04828">
        <ele>1711.4000244141</ele>
        <time>2018-05-09T06:20:03.000Z</time>
      </trkpt>
      <trkpt lat="44.25661" lon="7.04829">
        <ele>1711.5999755859</ele>
        <time>2018-05-09T06:20:04.000Z</time>
      </trkpt>
      <trkpt lat="44.25661" lon="7.04835">
        <ele>1711.8000488281</ele>
        <time>2018-05-09T06:20:09.000Z</time>
      </trkpt>
      <trkpt lat="44.2566" lon="7.04832">
        <ele>1712.5999755859</ele>
        <time>2018-05-09T06:20:20.000Z</time>
      </trkpt>
      <trkpt lat="44.25656" lon="7.04833">
        <ele>1713.1999511719</ele>
        <time>2018-05-09T06:20:26.000Z</time>
      </trkpt>
      <trkpt lat="44.25655" lon="7.04834">
        <ele>1713.1999511719</ele>
        <time>2018-05-09T06:20:27.000Z</time>
      </trkpt>
      <trkpt lat="44.25654" lon="7.04834">
        <ele>1713.5999755859</ele>
        <time>2018-05-09T06:20:29.000Z</time>
      </trkpt>
      <trkpt lat="44.25654" lon="7.04837">
        <ele>1713.8000488281</ele>
        <time>2018-05-09T06:20:32.000Z</time>
      </trkpt>
      <trkpt lat="44.2565" lon="7.04843">
        <ele>1714.5999755859</ele>
        <time>2018-05-09T06:20:41.000Z</time>
      </trkpt>
      <trkpt lat="44.25649" lon="7.04847">
        <ele>1715</ele>
        <time>2018-05-09T06:20:46.000Z</time>
      </trkpt>
      <trkpt lat="44.25648" lon="7.04848">
        <ele>1715.1999511719</ele>
        <time>2018-05-09T06:20:48.000Z</time>
      </trkpt>
      <trkpt lat="44.25646" lon="7.04853">
        <ele>1715.5999755859</ele>
        <time>2018-05-09T06:20:53.000Z</time>
      </trkpt>
      <trkpt lat="44.25644" lon="7.04856">
        <ele>1715.8000488281</ele>
        <time>2018-05-09T06:20:56.000Z</time>
      </trkpt>
      <trkpt lat="44.25644" lon="7.04856">
        <ele>1716</ele>
        <time>2018-05-09T06:20:57.000Z</time>
      </trkpt>
      <trkpt lat="44.25642" lon="7.04857">
        <ele>1716.1999511719</ele>
        <time>2018-05-09T06:20:59.000Z</time>
      </trkpt>
      <trkpt lat="44.25642" lon="7.04857">
        <ele>1716.4000244141</ele>
        <time>2018-05-09T06:21:00.000Z</time>
      </trkpt>
      <trkpt lat="44.25641" lon="7.04858">
        <ele>1716.5999755859</ele>
        <time>2018-05-09T06:21:02.000Z</time>
      </trkpt>
      <trkpt lat="44.25641" lon="7.04858">
        <ele>1716.5999755859</ele>
        <time>2018-05-09T06:21:03.000Z</time>
      </trkpt>
      <trkpt lat="44.2564" lon="7.04859">
        <ele>1716.5999755859</ele>
        <time>2018-05-09T06:21:04.000Z</time>
      </trkpt>
      <trkpt lat="44.25637" lon="7.04864">
        <ele>1717.4000244141</ele>
        <time>2018-05-09T06:21:11.000Z</time>
      </trkpt>
      <trkpt lat="44.25637" lon="7.04864">
        <ele>1717.5999755859</ele>
        <time>2018-05-09T06:21:13.000Z</time>
      </trkpt>
      <trkpt lat="44.25635" lon="7.04863">
        <ele>1717.5999755859</ele>
        <time>2018-05-09T06:21:15.000Z</time>
      </trkpt>
      <trkpt lat="44.2563" lon="7.04867">
        <ele>1718.8000488281</ele>
        <time>2018-05-09T06:21:23.000Z</time>
      </trkpt>
      <trkpt lat="44.25626" lon="7.04868">
        <ele>1719</ele>
        <time>2018-05-09T06:21:27.000Z</time>
      </trkpt>
      <trkpt lat="44.25621" lon="7.04869">
        <ele>1719.4000244141</ele>
        <time>2018-05-09T06:21:33.000Z</time>
      </trkpt>
      <trkpt lat="44.25621" lon="7.0487">
        <ele>1719.8000488281</ele>
        <time>2018-05-09T06:21:35.000Z</time>
      </trkpt>
      <trkpt lat="44.25621" lon="7.0487">
        <ele>1720</ele>
        <time>2018-05-09T06:21:36.000Z</time>
      </trkpt>
      <trkpt lat="44.25616" lon="7.04876">
        <ele>1720.8000488281</ele>
        <time>2018-05-09T06:21:42.000Z</time>
      </trkpt>
      <trkpt lat="44.25614" lon="7.04879">
        <ele>1721</ele>
        <time>2018-05-09T06:21:44.000Z</time>
      </trkpt>
      <trkpt lat="44.25611" lon="7.04881">
        <ele>1721.4000244141</ele>
        <time>2018-05-09T06:21:47.000Z</time>
      </trkpt>
      <trkpt lat="44.2561" lon="7.04882">
        <ele>1721.5999755859</ele>
        <time>2018-05-09T06:21:49.000Z</time>
      </trkpt>
      <trkpt lat="44.2561" lon="7.04883">
        <ele>1721.8000488281</ele>
        <time>2018-05-09T06:21:51.000Z</time>
      </trkpt>
      <trkpt lat="44.25609" lon="7.04884">
        <ele>1721.8000488281</ele>
        <time>2018-05-09T06:21:52.000Z</time>
      </trkpt>
      <trkpt lat="44.25609" lon="7.04883">
        <ele>1722</ele>
        <time>2018-05-09T06:21:54.000Z</time>
      </trkpt>
      <trkpt lat="44.25606" lon="7.04885">
        <ele>1722.5999755859</ele>
        <time>2018-05-09T06:21:59.000Z</time>
      </trkpt>
      <trkpt lat="44.25605" lon="7.04884">
        <ele>1722.5999755859</ele>
        <time>2018-05-09T06:22:00.000Z</time>
      </trkpt>
      <trkpt lat="44.256" lon="7.04884">
        <ele>1723</ele>
        <time>2018-05-09T06:22:05.000Z</time>
      </trkpt>
      <trkpt lat="44.25603" lon="7.04898">
        <ele>1723.5999755859</ele>
        <time>2018-05-09T06:22:13.000Z</time>
      </trkpt>
      <trkpt lat="44.25602" lon="7.04897">
        <ele>1723.8000488281</ele>
        <time>2018-05-09T06:22:15.000Z</time>
      </trkpt>
      <trkpt lat="44.256" lon="7.04898">
        <ele>1724.1999511719</ele>
        <time>2018-05-09T06:22:18.000Z</time>
      </trkpt>
      <trkpt lat="44.25595" lon="7.04899">
        <ele>1725.1999511719</ele>
        <time>2018-05-09T06:22:29.000Z</time>
      </trkpt>
      <trkpt lat="44.25595" lon="7.04902">
        <ele>1726.1999511719</ele>
        <time>2018-05-09T06:22:37.000Z</time>
      </trkpt>
      <trkpt lat="44.25597" lon="7.04903">
        <ele>1726.1999511719</ele>
        <time>2018-05-09T06:22:38.000Z</time>
      </trkpt>
      <trkpt lat="44.25599" lon="7.04907">
        <ele>1727.1999511719</ele>
        <time>2018-05-09T06:22:49.000Z</time>
      </trkpt>
      <trkpt lat="44.25599" lon="7.04907">
        <ele>1727.4000244141</ele>
        <time>2018-05-09T06:22:50.000Z</time>
      </trkpt>
      <trkpt lat="44.256" lon="7.0491">
        <ele>1727.4000244141</ele>
        <time>2018-05-09T06:22:52.000Z</time>
      </trkpt>
      <trkpt lat="44.25597" lon="7.04913">
        <ele>1727.5999755859</ele>
        <time>2018-05-09T06:22:56.000Z</time>
      </trkpt>
      <trkpt lat="44.2559" lon="7.04917">
        <ele>1728.4000244141</ele>
        <time>2018-05-09T06:23:02.000Z</time>
      </trkpt>
      <trkpt lat="44.25589" lon="7.04919">
        <ele>1728.5999755859</ele>
        <time>2018-05-09T06:23:03.000Z</time>
      </trkpt>
      <trkpt lat="44.25588" lon="7.04922">
        <ele>1728.5999755859</ele>
        <time>2018-05-09T06:23:05.000Z</time>
      </trkpt>
      <trkpt lat="44.25586" lon="7.04925">
        <ele>1729</ele>
        <time>2018-05-09T06:23:07.000Z</time>
      </trkpt>
      <trkpt lat="44.25586" lon="7.04926">
        <ele>1729.1999511719</ele>
        <time>2018-05-09T06:23:10.000Z</time>
      </trkpt>
      <trkpt lat="44.25586" lon="7.04927">
        <ele>1729.4000244141</ele>
        <time>2018-05-09T06:23:11.000Z</time>
      </trkpt>
      <trkpt lat="44.25585" lon="7.04928">
        <ele>1729.5999755859</ele>
        <time>2018-05-09T06:23:14.000Z</time>
      </trkpt>
      <trkpt lat="44.25581" lon="7.04932">
        <ele>1730.5999755859</ele>
        <time>2018-05-09T06:23:21.000Z</time>
      </trkpt>
      <trkpt lat="44.25578" lon="7.04936">
        <ele>1730.8000488281</ele>
        <time>2018-05-09T06:23:24.000Z</time>
      </trkpt>
      <trkpt lat="44.25578" lon="7.04937">
        <ele>1731.4000244141</ele>
        <time>2018-05-09T06:23:31.000Z</time>
      </trkpt>
      <trkpt lat="44.25579" lon="7.04939">
        <ele>1731.5999755859</ele>
        <time>2018-05-09T06:23:33.000Z</time>
      </trkpt>
      <trkpt lat="44.25578" lon="7.04941">
        <ele>1731.8000488281</ele>
        <time>2018-05-09T06:23:35.000Z</time>
      </trkpt>
      <trkpt lat="44.25578" lon="7.04942">
        <ele>1731.8000488281</ele>
        <time>2018-05-09T06:23:36.000Z</time>
      </trkpt>
      <trkpt lat="44.25571" lon="7.04951">
        <ele>1732.4000244141</ele>
        <time>2018-05-09T06:23:43.000Z</time>
      </trkpt>
      <trkpt lat="44.2557" lon="7.04953">
        <ele>1732.5999755859</ele>
        <time>2018-05-09T06:23:45.000Z</time>
      </trkpt>
      <trkpt lat="44.25568" lon="7.04953">
        <ele>1732.8000488281</ele>
        <time>2018-05-09T06:23:48.000Z</time>
      </trkpt>
      <trkpt lat="44.25563" lon="7.0496">
        <ele>1733.5999755859</ele>
        <time>2018-05-09T06:23:56.000Z</time>
      </trkpt>
      <trkpt lat="44.25562" lon="7.04962">
        <ele>1733.5999755859</ele>
        <time>2018-05-09T06:23:57.000Z</time>
      </trkpt>
      <trkpt lat="44.25562" lon="7.04964">
        <ele>1734.4000244141</ele>
        <time>2018-05-09T06:24:02.000Z</time>
      </trkpt>
      <trkpt lat="44.25561" lon="7.04965">
        <ele>1734.8000488281</ele>
        <time>2018-05-09T06:24:04.000Z</time>
      </trkpt>
      <trkpt lat="44.25561" lon="7.04966">
        <ele>1735</ele>
        <time>2018-05-09T06:24:06.000Z</time>
      </trkpt>
      <trkpt lat="44.25557" lon="7.0496">
        <ele>1735.4000244141</ele>
        <time>2018-05-09T06:24:21.000Z</time>
      </trkpt>
      <trkpt lat="44.25555" lon="7.04959">
        <ele>1735.1999511719</ele>
        <time>2018-05-09T06:24:29.000Z</time>
      </trkpt>
      <trkpt lat="44.25555" lon="7.04959">
        <ele>1735.1999511719</ele>
        <time>2018-05-09T06:24:30.000Z</time>
      </trkpt>
      <trkpt lat="44.25556" lon="7.04959">
        <ele>1735.4000244141</ele>
        <time>2018-05-09T06:24:31.000Z</time>
      </trkpt>
      <trkpt lat="44.25556" lon="7.04959">
        <ele>1735.4000244141</ele>
        <time>2018-05-09T06:24:32.000Z</time>
      </trkpt>
      <trkpt lat="44.2556" lon="7.04962">
        <ele>1735.5999755859</ele>
        <time>2018-05-09T06:24:45.000Z</time>
      </trkpt>
      <trkpt lat="44.2556" lon="7.04963">
        <ele>1735.4000244141</ele>
        <time>2018-05-09T06:24:47.000Z</time>
      </trkpt>
      <trkpt lat="44.25559" lon="7.04966">
        <ele>1735.5999755859</ele>
        <time>2018-05-09T06:24:54.000Z</time>
      </trkpt>
      <trkpt lat="44.25558" lon="7.04966">
        <ele>1735.4000244141</ele>
        <time>2018-05-09T06:24:56.000Z</time>
      </trkpt>
      <trkpt lat="44.25556" lon="7.04956">
        <ele>1735.1999511719</ele>
        <time>2018-05-09T06:25:06.000Z</time>
      </trkpt>
      <trkpt lat="44.25552" lon="7.04961">
        <ele>1735.4000244141</ele>
        <time>2018-05-09T06:25:17.000Z</time>
      </trkpt>
      <trkpt lat="44.25558" lon="7.04956">
        <ele>1735.1999511719</ele>
        <time>2018-05-09T06:25:25.000Z</time>
      </trkpt>
      <trkpt lat="44.2557" lon="7.04962">
        <ele>1735.1999511719</ele>
        <time>2018-05-09T06:25:32.000Z</time>
      </trkpt>
      <trkpt lat="44.2557" lon="7.04962">
        <ele>1735.4000244141</ele>
        <time>2018-05-09T06:25:33.000Z</time>
      </trkpt>
      <trkpt lat="44.2557" lon="7.04963">
        <ele>1735.5999755859</ele>
        <time>2018-05-09T06:25:35.000Z</time>
      </trkpt>
      <trkpt lat="44.2557" lon="7.04964">
        <ele>1735.5999755859</ele>
        <time>2018-05-09T06:25:37.000Z</time>
      </trkpt>
      <trkpt lat="44.25564" lon="7.04967">
        <ele>1735.4000244141</ele>
        <time>2018-05-09T06:25:45.000Z</time>
      </trkpt>
      <trkpt lat="44.25562" lon="7.04968">
        <ele>1735.5999755859</ele>
        <time>2018-05-09T06:25:48.000Z</time>
      </trkpt>
      <trkpt lat="44.25561" lon="7.04968">
        <ele>1735.5999755859</ele>
        <time>2018-05-09T06:25:49.000Z</time>
      </trkpt>
      <trkpt lat="44.2556" lon="7.04968">
        <ele>1735.5999755859</ele>
        <time>2018-05-09T06:25:50.000Z</time>
      </trkpt>
      <trkpt lat="44.25558" lon="7.04966">
        <ele>1735.8000488281</ele>
        <time>2018-05-09T06:25:52.000Z</time>
      </trkpt>
      <trkpt lat="44.25558" lon="7.04965">
        <ele>1735.8000488281</ele>
        <time>2018-05-09T06:25:53.000Z</time>
      </trkpt>
      <trkpt lat="44.25552" lon="7.04958">
        <ele>1735.8000488281</ele>
        <time>2018-05-09T06:25:59.000Z</time>
      </trkpt>
      <trkpt lat="44.25557" lon="7.0494">
        <ele>1736</ele>
        <time>2018-05-09T06:26:11.000Z</time>
      </trkpt>
      <trkpt lat="44.25557" lon="7.04936">
        <ele>1736.4000244141</ele>
        <time>2018-05-09T06:26:14.000Z</time>
      </trkpt>
      <trkpt lat="44.25557" lon="7.04933">
        <ele>1737</ele>
        <time>2018-05-09T06:26:16.000Z</time>
      </trkpt>
      <trkpt lat="44.25557" lon="7.04931">
        <ele>1737.1999511719</ele>
        <time>2018-05-09T06:26:17.000Z</time>
      </trkpt>
      <trkpt lat="44.25556" lon="7.04929">
        <ele>1737.5999755859</ele>
        <time>2018-05-09T06:26:19.000Z</time>
      </trkpt>
      <trkpt lat="44.25556" lon="7.04924">
        <ele>1737.8000488281</ele>
        <time>2018-05-09T06:26:23.000Z</time>
      </trkpt>
      <trkpt lat="44.25559" lon="7.0492">
        <ele>1737.8000488281</ele>
        <time>2018-05-09T06:26:26.000Z</time>
      </trkpt>
      <trkpt lat="44.2556" lon="7.04917">
        <ele>1737.8000488281</ele>
        <time>2018-05-09T06:26:28.000Z</time>
      </trkpt>
      <trkpt lat="44.25559" lon="7.04913">
        <ele>1737.8000488281</ele>
        <time>2018-05-09T06:26:30.000Z</time>
      </trkpt>
      <trkpt lat="44.25559" lon="7.04911">
        <ele>1738</ele>
        <time>2018-05-09T06:26:31.000Z</time>
      </trkpt>
      <trkpt lat="44.25562" lon="7.04904">
        <ele>1739</ele>
        <time>2018-05-09T06:26:36.000Z</time>
      </trkpt>
      <trkpt lat="44.25562" lon="7.04903">
        <ele>1739.5999755859</ele>
        <time>2018-05-09T06:26:38.000Z</time>
      </trkpt>
      <trkpt lat="44.25563" lon="7.04901">
        <ele>1740</ele>
        <time>2018-05-09T06:26:41.000Z</time>
      </trkpt>
      <trkpt lat="44.25563" lon="7.049">
        <ele>1740</ele>
        <time>2018-05-09T06:26:42.000Z</time>
      </trkpt>
      <trkpt lat="44.25563" lon="7.04898">
        <ele>1740</ele>
        <time>2018-05-09T06:26:44.000Z</time>
      </trkpt>
      <trkpt lat="44.25563" lon="7.04897">
        <ele>1740.1999511719</ele>
        <time>2018-05-09T06:26:45.000Z</time>
      </trkpt>
      <trkpt lat="44.25561" lon="7.04887">
        <ele>1741.1999511719</ele>
        <time>2018-05-09T06:27:07.000Z</time>
      </trkpt>
      <trkpt lat="44.25561" lon="7.04887">
        <ele>1741.1999511719</ele>
        <time>2018-05-09T06:27:08.000Z</time>
      </trkpt>
      <trkpt lat="44.25562" lon="7.04883">
        <ele>1742.4000244141</ele>
        <time>2018-05-09T06:27:16.000Z</time>
      </trkpt>
      <trkpt lat="44.25562" lon="7.04877">
        <ele>1742.8000488281</ele>
        <time>2018-05-09T06:27:24.000Z</time>
      </trkpt>
      <trkpt lat="44.25564" lon="7.04875">
        <ele>1743.4000244141</ele>
        <time>2018-05-09T06:27:28.000Z</time>
      </trkpt>
      <trkpt lat="44.25564" lon="7.04874">
        <ele>1743.4000244141</ele>
        <time>2018-05-09T06:27:29.000Z</time>
      </trkpt>
      <trkpt lat="44.25564" lon="7.04872">
        <ele>1743.8000488281</ele>
        <time>2018-05-09T06:27:32.000Z</time>
      </trkpt>
      <trkpt lat="44.25564" lon="7.04867">
        <ele>1744.4000244141</ele>
        <time>2018-05-09T06:27:35.000Z</time>
      </trkpt>
      <trkpt lat="44.25565" lon="7.04863">
        <ele>1744.5999755859</ele>
        <time>2018-05-09T06:27:37.000Z</time>
      </trkpt>
      <trkpt lat="44.25567" lon="7.04859">
        <ele>1744.8000488281</ele>
        <time>2018-05-09T06:27:40.000Z</time>
      </trkpt>
      <trkpt lat="44.25567" lon="7.04856">
        <ele>1745</ele>
        <time>2018-05-09T06:27:42.000Z</time>
      </trkpt>
      <trkpt lat="44.25567" lon="7.0485">
        <ele>1745.4000244141</ele>
        <time>2018-05-09T06:27:46.000Z</time>
      </trkpt>
      <trkpt lat="44.25567" lon="7.04849">
        <ele>1745.4000244141</ele>
        <time>2018-05-09T06:27:47.000Z</time>
      </trkpt>
      <trkpt lat="44.25567" lon="7.04847">
        <ele>1745.4000244141</ele>
        <time>2018-05-09T06:27:48.000Z</time>
      </trkpt>
      <trkpt lat="44.25568" lon="7.04846">
        <ele>1745.5999755859</ele>
        <time>2018-05-09T06:27:49.000Z</time>
      </trkpt>
      <trkpt lat="44.25569" lon="7.04843">
        <ele>1746.4000244141</ele>
        <time>2018-05-09T06:27:53.000Z</time>
      </trkpt>
      <trkpt lat="44.2557" lon="7.04842">
        <ele>1746.5999755859</ele>
        <time>2018-05-09T06:27:55.000Z</time>
      </trkpt>
      <trkpt lat="44.25571" lon="7.04836">
        <ele>1747.1999511719</ele>
        <time>2018-05-09T06:27:59.000Z</time>
      </trkpt>
      <trkpt lat="44.25571" lon="7.04834">
        <ele>1747.4000244141</ele>
        <time>2018-05-09T06:28:00.000Z</time>
      </trkpt>
      <trkpt lat="44.25572" lon="7.04831">
        <ele>1747.5999755859</ele>
        <time>2018-05-09T06:28:02.000Z</time>
      </trkpt>
      <trkpt lat="44.25573" lon="7.04829">
        <ele>1747.8000488281</ele>
        <time>2018-05-09T06:28:03.000Z</time>
      </trkpt>
      <trkpt lat="44.25576" lon="7.04826">
        <ele>1748.1999511719</ele>
        <time>2018-05-09T06:28:07.000Z</time>
      </trkpt>
      <trkpt lat="44.25577" lon="7.04822">
        <ele>1748.5999755859</ele>
        <time>2018-05-09T06:28:11.000Z</time>
      </trkpt>
      <trkpt lat="44.25578" lon="7.04822">
        <ele>1748.8000488281</ele>
        <time>2018-05-09T06:28:13.000Z</time>
      </trkpt>
      <trkpt lat="44.2558" lon="7.04822">
        <ele>1748.8000488281</ele>
        <time>2018-05-09T06:28:14.000Z</time>
      </trkpt>
      <trkpt lat="44.25581" lon="7.0482">
        <ele>1749</ele>
        <time>2018-05-09T06:28:16.000Z</time>
      </trkpt>
      <trkpt lat="44.25582" lon="7.0482">
        <ele>1749.1999511719</ele>
        <time>2018-05-09T06:28:17.000Z</time>
      </trkpt>
      <trkpt lat="44.25585" lon="7.04814">
        <ele>1749.8000488281</ele>
        <time>2018-05-09T06:28:21.000Z</time>
      </trkpt>
      <trkpt lat="44.25586" lon="7.04813">
        <ele>1749.8000488281</ele>
        <time>2018-05-09T06:28:22.000Z</time>
      </trkpt>
      <trkpt lat="44.25586" lon="7.04812">
        <ele>1750</ele>
        <time>2018-05-09T06:28:23.000Z</time>
      </trkpt>
      <trkpt lat="44.25588" lon="7.04806">
        <ele>1750.4000244141</ele>
        <time>2018-05-09T06:28:27.000Z</time>
      </trkpt>
      <trkpt lat="44.25589" lon="7.04804">
        <ele>1750.8000488281</ele>
        <time>2018-05-09T06:28:29.000Z</time>
      </trkpt>
      <trkpt lat="44.2559" lon="7.04804">
        <ele>1750.8000488281</ele>
        <time>2018-05-09T06:28:30.000Z</time>
      </trkpt>
      <trkpt lat="44.25591" lon="7.04803">
        <ele>1751</ele>
        <time>2018-05-09T06:28:32.000Z</time>
      </trkpt>
      <trkpt lat="44.25593" lon="7.04801">
        <ele>1751.4000244141</ele>
        <time>2018-05-09T06:28:37.000Z</time>
      </trkpt>
      <trkpt lat="44.25594" lon="7.048">
        <ele>1751.5999755859</ele>
        <time>2018-05-09T06:28:38.000Z</time>
      </trkpt>
      <trkpt lat="44.25594" lon="7.04799">
        <ele>1752</ele>
        <time>2018-05-09T06:28:41.000Z</time>
      </trkpt>
      <trkpt lat="44.25594" lon="7.04796">
        <ele>1753</ele>
        <time>2018-05-09T06:28:45.000Z</time>
      </trkpt>
      <trkpt lat="44.25596" lon="7.04794">
        <ele>1753.4000244141</ele>
        <time>2018-05-09T06:28:49.000Z</time>
      </trkpt>
      <trkpt lat="44.25601" lon="7.04791">
        <ele>1754</ele>
        <time>2018-05-09T06:28:54.000Z</time>
      </trkpt>
      <trkpt lat="44.25603" lon="7.04785">
        <ele>1755</ele>
        <time>2018-05-09T06:29:01.000Z</time>
      </trkpt>
      <trkpt lat="44.25601" lon="7.04786">
        <ele>1756.1999511719</ele>
        <time>2018-05-09T06:29:11.000Z</time>
      </trkpt>
      <trkpt lat="44.25594" lon="7.04798">
        <ele>1757.1999511719</ele>
        <time>2018-05-09T06:29:20.000Z</time>
      </trkpt>
      <trkpt lat="44.25589" lon="7.04805">
        <ele>1757.5999755859</ele>
        <time>2018-05-09T06:29:30.000Z</time>
      </trkpt>
      <trkpt lat="44.25581" lon="7.04809">
        <ele>1758.1999511719</ele>
        <time>2018-05-09T06:29:41.000Z</time>
      </trkpt>
      <trkpt lat="44.25575" lon="7.04809">
        <ele>1759.1999511719</ele>
        <time>2018-05-09T06:29:50.000Z</time>
      </trkpt>
      <trkpt lat="44.25574" lon="7.04815">
        <ele>1759.4000244141</ele>
        <time>2018-05-09T06:29:54.000Z</time>
      </trkpt>
      <trkpt lat="44.2557" lon="7.04816">
        <ele>1759.8000488281</ele>
        <time>2018-05-09T06:29:58.000Z</time>
      </trkpt>
      <trkpt lat="44.25566" lon="7.04818">
        <ele>1760.4000244141</ele>
        <time>2018-05-09T06:30:02.000Z</time>
      </trkpt>
      <trkpt lat="44.25563" lon="7.04818">
        <ele>1760.8000488281</ele>
        <time>2018-05-09T06:30:05.000Z</time>
      </trkpt>
      <trkpt lat="44.2556" lon="7.04818">
        <ele>1761.1999511719</ele>
        <time>2018-05-09T06:30:10.000Z</time>
      </trkpt>
      <trkpt lat="44.25558" lon="7.04819">
        <ele>1761.4000244141</ele>
        <time>2018-05-09T06:30:13.000Z</time>
      </trkpt>
      <trkpt lat="44.25558" lon="7.04818">
        <ele>1761.5999755859</ele>
        <time>2018-05-09T06:30:14.000Z</time>
      </trkpt>
      <trkpt lat="44.25551" lon="7.04825">
        <ele>1762.4000244141</ele>
        <time>2018-05-09T06:30:23.000Z</time>
      </trkpt>
      <trkpt lat="44.25548" lon="7.04829">
        <ele>1762.8000488281</ele>
        <time>2018-05-09T06:30:27.000Z</time>
      </trkpt>
      <trkpt lat="44.25548" lon="7.04834">
        <ele>1763</ele>
        <time>2018-05-09T06:30:31.000Z</time>
      </trkpt>
      <trkpt lat="44.25547" lon="7.04836">
        <ele>1763.4000244141</ele>
        <time>2018-05-09T06:30:34.000Z</time>
      </trkpt>
      <trkpt lat="44.25549" lon="7.04838">
        <ele>1763.8000488281</ele>
        <time>2018-05-09T06:30:53.000Z</time>
      </trkpt>
      <trkpt lat="44.2555" lon="7.04838">
        <ele>1763.8000488281</ele>
        <time>2018-05-09T06:30:54.000Z</time>
      </trkpt>
      <trkpt lat="44.2555" lon="7.04838">
        <ele>1763.8000488281</ele>
        <time>2018-05-09T06:30:55.000Z</time>
      </trkpt>
      <trkpt lat="44.2555" lon="7.04838">
        <ele>1763.8000488281</ele>
        <time>2018-05-09T06:30:56.000Z</time>
      </trkpt>
      <trkpt lat="44.25549" lon="7.04838">
        <ele>1763.8000488281</ele>
        <time>2018-05-09T06:31:01.000Z</time>
      </trkpt>
      <trkpt lat="44.25547" lon="7.04838">
        <ele>1764</ele>
        <time>2018-05-09T06:31:06.000Z</time>
      </trkpt>
      <trkpt lat="44.25551" lon="7.04838">
        <ele>1763.5999755859</ele>
        <time>2018-05-09T06:31:13.000Z</time>
      </trkpt>
      <trkpt lat="44.25552" lon="7.04838">
        <ele>1763.5999755859</ele>
        <time>2018-05-09T06:31:14.000Z</time>
      </trkpt>
      <trkpt lat="44.25553" lon="7.04838">
        <ele>1763.5999755859</ele>
        <time>2018-05-09T06:31:15.000Z</time>
      </trkpt>
      <trkpt lat="44.25554" lon="7.04837">
        <ele>1763.5999755859</ele>
        <time>2018-05-09T06:31:16.000Z</time>
      </trkpt>
      <trkpt lat="44.25554" lon="7.04837">
        <ele>1763.8000488281</ele>
        <time>2018-05-09T06:31:17.000Z</time>
      </trkpt>
      <trkpt lat="44.25553" lon="7.04834">
        <ele>1763.8000488281</ele>
        <time>2018-05-09T06:31:19.000Z</time>
      </trkpt>
      <trkpt lat="44.25553" lon="7.04834">
        <ele>1763.8000488281</ele>
        <time>2018-05-09T06:31:20.000Z</time>
      </trkpt>
      <trkpt lat="44.25553" lon="7.04832">
        <ele>1763.8000488281</ele>
        <time>2018-05-09T06:31:22.000Z</time>
      </trkpt>
      <trkpt lat="44.2555" lon="7.04835">
        <ele>1763.8000488281</ele>
        <time>2018-05-09T06:31:30.000Z</time>
      </trkpt>
      <trkpt lat="44.25549" lon="7.04836">
        <ele>1763.8000488281</ele>
        <time>2018-05-09T06:31:31.000Z</time>
      </trkpt>
      <trkpt lat="44.25549" lon="7.04837">
        <ele>1763.8000488281</ele>
        <time>2018-05-09T06:31:32.000Z</time>
      </trkpt>
      <trkpt lat="44.25552" lon="7.0484">
        <ele>1764</ele>
        <time>2018-05-09T06:31:35.000Z</time>
      </trkpt>
      <trkpt lat="44.25554" lon="7.04841">
        <ele>1764</ele>
        <time>2018-05-09T06:31:36.000Z</time>
      </trkpt>
      <trkpt lat="44.25556" lon="7.04842">
        <ele>1764</ele>
        <time>2018-05-09T06:31:39.000Z</time>
      </trkpt>
      <trkpt lat="44.25557" lon="7.04843">
        <ele>1764.1999511719</ele>
        <time>2018-05-09T06:31:40.000Z</time>
      </trkpt>
      <trkpt lat="44.25555" lon="7.04845">
        <ele>1764.1999511719</ele>
        <time>2018-05-09T06:31:41.000Z</time>
      </trkpt>
      <trkpt lat="44.25553" lon="7.04846">
        <ele>1764.4000244141</ele>
        <time>2018-05-09T06:31:43.000Z</time>
      </trkpt>
      <trkpt lat="44.25553" lon="7.04847">
        <ele>1764.5999755859</ele>
        <time>2018-05-09T06:31:44.000Z</time>
      </trkpt>
      <trkpt lat="44.25552" lon="7.04849">
        <ele>1764.5999755859</ele>
        <time>2018-05-09T06:31:45.000Z</time>
      </trkpt>
      <trkpt lat="44.2555" lon="7.04851">
        <ele>1764.8000488281</ele>
        <time>2018-05-09T06:31:47.000Z</time>
      </trkpt>
      <trkpt lat="44.25547" lon="7.04854">
        <ele>1765</ele>
        <time>2018-05-09T06:31:50.000Z</time>
      </trkpt>
      <trkpt lat="44.25546" lon="7.04855">
        <ele>1765.1999511719</ele>
        <time>2018-05-09T06:31:51.000Z</time>
      </trkpt>
      <trkpt lat="44.25545" lon="7.04857">
        <ele>1765.4000244141</ele>
        <time>2018-05-09T06:31:55.000Z</time>
      </trkpt>
      <trkpt lat="44.25544" lon="7.04857">
        <ele>1765.5999755859</ele>
        <time>2018-05-09T06:32:04.000Z</time>
      </trkpt>
      <trkpt lat="44.25543" lon="7.04857">
        <ele>1765.5999755859</ele>
        <time>2018-05-09T06:32:08.000Z</time>
      </trkpt>
      <trkpt lat="44.25541" lon="7.04858">
        <ele>1765.5999755859</ele>
        <time>2018-05-09T06:32:10.000Z</time>
      </trkpt>
      <trkpt lat="44.2554" lon="7.04859">
        <ele>1765.5999755859</ele>
        <time>2018-05-09T06:32:11.000Z</time>
      </trkpt>
      <trkpt lat="44.25533" lon="7.04861">
        <ele>1766.4000244141</ele>
        <time>2018-05-09T06:32:15.000Z</time>
      </trkpt>
      <trkpt lat="44.25532" lon="7.04862">
        <ele>1766.5999755859</ele>
        <time>2018-05-09T06:32:16.000Z</time>
      </trkpt>
      <trkpt lat="44.2553" lon="7.04861">
        <ele>1767.1999511719</ele>
        <time>2018-05-09T06:32:20.000Z</time>
      </trkpt>
      <trkpt lat="44.25527" lon="7.04861">
        <ele>1767.1999511719</ele>
        <time>2018-05-09T06:32:22.000Z</time>
      </trkpt>
      <trkpt lat="44.25524" lon="7.04862">
        <ele>1767.8000488281</ele>
        <time>2018-05-09T06:32:26.000Z</time>
      </trkpt>
      <trkpt lat="44.25522" lon="7.04862">
        <ele>1768</ele>
        <time>2018-05-09T06:32:28.000Z</time>
      </trkpt>
      <trkpt lat="44.25519" lon="7.04864">
        <ele>1768.8000488281</ele>
        <time>2018-05-09T06:32:32.000Z</time>
      </trkpt>
      <trkpt lat="44.25517" lon="7.04864">
        <ele>1769.1999511719</ele>
        <time>2018-05-09T06:32:35.000Z</time>
      </trkpt>
      <trkpt lat="44.25514" lon="7.04865">
        <ele>1769.5999755859</ele>
        <time>2018-05-09T06:32:37.000Z</time>
      </trkpt>
      <trkpt lat="44.25513" lon="7.04865">
        <ele>1769.8000488281</ele>
        <time>2018-05-09T06:32:38.000Z</time>
      </trkpt>
      <trkpt lat="44.2551" lon="7.04866">
        <ele>1770</ele>
        <time>2018-05-09T06:32:41.000Z</time>
      </trkpt>
      <trkpt lat="44.25506" lon="7.04867">
        <ele>1770.8000488281</ele>
        <time>2018-05-09T06:32:46.000Z</time>
      </trkpt>
      <trkpt lat="44.25504" lon="7.04871">
        <ele>1771.4000244141</ele>
        <time>2018-05-09T06:32:51.000Z</time>
      </trkpt>
      <trkpt lat="44.25504" lon="7.04873">
        <ele>1771.8000488281</ele>
        <time>2018-05-09T06:32:53.000Z</time>
      </trkpt>
      <trkpt lat="44.25504" lon="7.04875">
        <ele>1772</ele>
        <time>2018-05-09T06:32:54.000Z</time>
      </trkpt>
      <trkpt lat="44.25503" lon="7.04876">
        <ele>1772.1999511719</ele>
        <time>2018-05-09T06:32:55.000Z</time>
      </trkpt>
      <trkpt lat="44.25503" lon="7.04876">
        <ele>1772.4000244141</ele>
        <time>2018-05-09T06:32:56.000Z</time>
      </trkpt>
      <trkpt lat="44.25502" lon="7.04876">
        <ele>1772.5999755859</ele>
        <time>2018-05-09T06:32:57.000Z</time>
      </trkpt>
      <trkpt lat="44.255" lon="7.04875">
        <ele>1772.8000488281</ele>
        <time>2018-05-09T06:33:00.000Z</time>
      </trkpt>
      <trkpt lat="44.25498" lon="7.04871">
        <ele>1772.8000488281</ele>
        <time>2018-05-09T06:33:04.000Z</time>
      </trkpt>
      <trkpt lat="44.25497" lon="7.04868">
        <ele>1773</ele>
        <time>2018-05-09T06:33:07.000Z</time>
      </trkpt>
      <trkpt lat="44.25497" lon="7.04867">
        <ele>1773</ele>
        <time>2018-05-09T06:33:08.000Z</time>
      </trkpt>
      <trkpt lat="44.25493" lon="7.04861">
        <ele>1774.1999511719</ele>
        <time>2018-05-09T06:33:14.000Z</time>
      </trkpt>
      <trkpt lat="44.25493" lon="7.04859">
        <ele>1774.5999755859</ele>
        <time>2018-05-09T06:33:16.000Z</time>
      </trkpt>
      <trkpt lat="44.25492" lon="7.04859">
        <ele>1775.4000244141</ele>
        <time>2018-05-09T06:33:20.000Z</time>
      </trkpt>
      <trkpt lat="44.2549" lon="7.04862">
        <ele>1775.8000488281</ele>
        <time>2018-05-09T06:33:23.000Z</time>
      </trkpt>
      <trkpt lat="44.25487" lon="7.04866">
        <ele>1776.4000244141</ele>
        <time>2018-05-09T06:33:26.000Z</time>
      </trkpt>
      <trkpt lat="44.25485" lon="7.0487">
        <ele>1777</ele>
        <time>2018-05-09T06:33:29.000Z</time>
      </trkpt>
      <trkpt lat="44.25486" lon="7.04873">
        <ele>1777.1999511719</ele>
        <time>2018-05-09T06:33:32.000Z</time>
      </trkpt>
      <trkpt lat="44.25488" lon="7.04874">
        <ele>1777.5999755859</ele>
        <time>2018-05-09T06:33:34.000Z</time>
      </trkpt>
      <trkpt lat="44.25487" lon="7.04877">
        <ele>1778.8000488281</ele>
        <time>2018-05-09T06:33:41.000Z</time>
      </trkpt>
      <trkpt lat="44.25486" lon="7.04875">
        <ele>1779.8000488281</ele>
        <time>2018-05-09T06:33:46.000Z</time>
      </trkpt>
      <trkpt lat="44.25485" lon="7.04871">
        <ele>1780.4000244141</ele>
        <time>2018-05-09T06:33:50.000Z</time>
      </trkpt>
      <trkpt lat="44.25483" lon="7.04869">
        <ele>1780.8000488281</ele>
        <time>2018-05-09T06:33:52.000Z</time>
      </trkpt>
      <trkpt lat="44.25481" lon="7.04867">
        <ele>1781.5999755859</ele>
        <time>2018-05-09T06:33:56.000Z</time>
      </trkpt>
      <trkpt lat="44.25479" lon="7.04865">
        <ele>1782</ele>
        <time>2018-05-09T06:33:58.000Z</time>
      </trkpt>
      <trkpt lat="44.25477" lon="7.04862">
        <ele>1783.1999511719</ele>
        <time>2018-05-09T06:34:04.000Z</time>
      </trkpt>
      <trkpt lat="44.25474" lon="7.0485">
        <ele>1784.1999511719</ele>
        <time>2018-05-09T06:34:14.000Z</time>
      </trkpt>
      <trkpt lat="44.25473" lon="7.04845">
        <ele>1785.4000244141</ele>
        <time>2018-05-09T06:34:19.000Z</time>
      </trkpt>
      <trkpt lat="44.25474" lon="7.04838">
        <ele>1785.8000488281</ele>
        <time>2018-05-09T06:34:29.000Z</time>
      </trkpt>
      <trkpt lat="44.25475" lon="7.04837">
        <ele>1785.8000488281</ele>
        <time>2018-05-09T06:34:31.000Z</time>
      </trkpt>
      <trkpt lat="44.25474" lon="7.04835">
        <ele>1786.1999511719</ele>
        <time>2018-05-09T06:34:33.000Z</time>
      </trkpt>
      <trkpt lat="44.25474" lon="7.04836">
        <ele>1786.4000244141</ele>
        <time>2018-05-09T06:34:34.000Z</time>
      </trkpt>
      <trkpt lat="44.25474" lon="7.04836">
        <ele>1786.5999755859</ele>
        <time>2018-05-09T06:34:35.000Z</time>
      </trkpt>
      <trkpt lat="44.25475" lon="7.04832">
        <ele>1787</ele>
        <time>2018-05-09T06:34:41.000Z</time>
      </trkpt>
      <trkpt lat="44.25475" lon="7.04831">
        <ele>1787.1999511719</ele>
        <time>2018-05-09T06:34:42.000Z</time>
      </trkpt>
      <trkpt lat="44.25476" lon="7.0483">
        <ele>1787.4000244141</ele>
        <time>2018-05-09T06:34:43.000Z</time>
      </trkpt>
      <trkpt lat="44.25476" lon="7.0483">
        <ele>1787.4000244141</ele>
        <time>2018-05-09T06:34:44.000Z</time>
      </trkpt>
      <trkpt lat="44.25476" lon="7.04828">
        <ele>1787.5999755859</ele>
        <time>2018-05-09T06:34:45.000Z</time>
      </trkpt>
      <trkpt lat="44.25475" lon="7.04826">
        <ele>1788.4000244141</ele>
        <time>2018-05-09T06:34:52.000Z</time>
      </trkpt>
      <trkpt lat="44.25476" lon="7.04828">
        <ele>1789.5999755859</ele>
        <time>2018-05-09T06:35:07.000Z</time>
      </trkpt>
      <trkpt lat="44.25474" lon="7.04833">
        <ele>1789.4000244141</ele>
        <time>2018-05-09T06:35:14.000Z</time>
      </trkpt>
      <trkpt lat="44.25473" lon="7.04832">
        <ele>1789.8000488281</ele>
        <time>2018-05-09T06:35:17.000Z</time>
      </trkpt>
      <trkpt lat="44.25465" lon="7.04842">
        <ele>1790.5999755859</ele>
        <time>2018-05-09T06:35:23.000Z</time>
      </trkpt>
      <trkpt lat="44.25464" lon="7.04844">
        <ele>1790.8000488281</ele>
        <time>2018-05-09T06:35:25.000Z</time>
      </trkpt>
      <trkpt lat="44.25463" lon="7.04847">
        <ele>1791.5999755859</ele>
        <time>2018-05-09T06:35:28.000Z</time>
      </trkpt>
      <trkpt lat="44.25461" lon="7.04846">
        <ele>1792.8000488281</ele>
        <time>2018-05-09T06:35:37.000Z</time>
      </trkpt>
      <trkpt lat="44.2546" lon="7.0485">
        <ele>1793.5999755859</ele>
        <time>2018-05-09T06:35:46.000Z</time>
      </trkpt>
      <trkpt lat="44.2546" lon="7.0485">
        <ele>1793.8000488281</ele>
        <time>2018-05-09T06:35:47.000Z</time>
      </trkpt>
      <trkpt lat="44.2546" lon="7.0485">
        <ele>1793.8000488281</ele>
        <time>2018-05-09T06:35:48.000Z</time>
      </trkpt>
      <trkpt lat="44.25458" lon="7.0485">
        <ele>1794.8000488281</ele>
        <time>2018-05-09T06:35:54.000Z</time>
      </trkpt>
      <trkpt lat="44.25457" lon="7.0485">
        <ele>1795</ele>
        <time>2018-05-09T06:35:55.000Z</time>
      </trkpt>
      <trkpt lat="44.25456" lon="7.04854">
        <ele>1796</ele>
        <time>2018-05-09T06:36:02.000Z</time>
      </trkpt>
      <trkpt lat="44.25452" lon="7.04851">
        <ele>1797.1999511719</ele>
        <time>2018-05-09T06:36:08.000Z</time>
      </trkpt>
      <trkpt lat="44.25446" lon="7.0485">
        <ele>1798.4000244141</ele>
        <time>2018-05-09T06:36:14.000Z</time>
      </trkpt>
      <trkpt lat="44.25443" lon="7.04848">
        <ele>1799.4000244141</ele>
        <time>2018-05-09T06:36:18.000Z</time>
      </trkpt>
      <trkpt lat="44.2544" lon="7.04845">
        <ele>1800.4000244141</ele>
        <time>2018-05-09T06:36:24.000Z</time>
      </trkpt>
      <trkpt lat="44.25435" lon="7.04842">
        <ele>1801.5999755859</ele>
        <time>2018-05-09T06:36:31.000Z</time>
      </trkpt>
      <trkpt lat="44.25432" lon="7.0484">
        <ele>1802.5999755859</ele>
        <time>2018-05-09T06:36:36.000Z</time>
      </trkpt>
      <trkpt lat="44.25431" lon="7.0484">
        <ele>1802.8000488281</ele>
        <time>2018-05-09T06:36:37.000Z</time>
      </trkpt>
      <trkpt lat="44.25429" lon="7.04839">
        <ele>1804</ele>
        <time>2018-05-09T06:36:41.000Z</time>
      </trkpt>
      <trkpt lat="44.25428" lon="7.04838">
        <ele>1804.1999511719</ele>
        <time>2018-05-09T06:36:42.000Z</time>
      </trkpt>
      <trkpt lat="44.25427" lon="7.04838">
        <ele>1804.5999755859</ele>
        <time>2018-05-09T06:36:44.000Z</time>
      </trkpt>
      <trkpt lat="44.25424" lon="7.0484">
        <ele>1805</ele>
        <time>2018-05-09T06:36:47.000Z</time>
      </trkpt>
      <trkpt lat="44.25421" lon="7.04842">
        <ele>1805.4000244141</ele>
        <time>2018-05-09T06:36:49.000Z</time>
      </trkpt>
      <trkpt lat="44.25416" lon="7.04841">
        <ele>1806.1999511719</ele>
        <time>2018-05-09T06:36:55.000Z</time>
      </trkpt>
      <trkpt lat="44.25414" lon="7.0484">
        <ele>1806.5999755859</ele>
        <time>2018-05-09T06:36:59.000Z</time>
      </trkpt>
      <trkpt lat="44.25411" lon="7.04841">
        <ele>1807.1999511719</ele>
        <time>2018-05-09T06:37:04.000Z</time>
      </trkpt>
      <trkpt lat="44.2541" lon="7.04841">
        <ele>1808</ele>
        <time>2018-05-09T06:37:17.000Z</time>
      </trkpt>
      <trkpt lat="44.25405" lon="7.04844">
        <ele>1808.4000244141</ele>
        <time>2018-05-09T06:37:23.000Z</time>
      </trkpt>
      <trkpt lat="44.25403" lon="7.04828">
        <ele>1809.1999511719</ele>
        <time>2018-05-09T06:37:39.000Z</time>
      </trkpt>
      <trkpt lat="44.254" lon="7.04823">
        <ele>1808.8000488281</ele>
        <time>2018-05-09T06:37:43.000Z</time>
      </trkpt>
      <trkpt lat="44.25395" lon="7.04821">
        <ele>1808.5999755859</ele>
        <time>2018-05-09T06:37:48.000Z</time>
      </trkpt>
      <trkpt lat="44.25395" lon="7.04822">
        <ele>1808.8000488281</ele>
        <time>2018-05-09T06:37:49.000Z</time>
      </trkpt>
      <trkpt lat="44.25391" lon="7.04827">
        <ele>1809.4000244141</ele>
        <time>2018-05-09T06:37:52.000Z</time>
      </trkpt>
      <trkpt lat="44.25387" lon="7.0483">
        <ele>1809.5999755859</ele>
        <time>2018-05-09T06:37:55.000Z</time>
      </trkpt>
      <trkpt lat="44.25383" lon="7.04836">
        <ele>1810.1999511719</ele>
        <time>2018-05-09T06:38:00.000Z</time>
      </trkpt>
      <trkpt lat="44.25382" lon="7.04836">
        <ele>1810.5999755859</ele>
        <time>2018-05-09T06:38:02.000Z</time>
      </trkpt>
      <trkpt lat="44.2538" lon="7.04841">
        <ele>1811</ele>
        <time>2018-05-09T06:38:05.000Z</time>
      </trkpt>
      <trkpt lat="44.25379" lon="7.04836">
        <ele>1811.5999755859</ele>
        <time>2018-05-09T06:38:14.000Z</time>
      </trkpt>
      <trkpt lat="44.25382" lon="7.04826">
        <ele>1812.1999511719</ele>
        <time>2018-05-09T06:38:19.000Z</time>
      </trkpt>
      <trkpt lat="44.25383" lon="7.04816">
        <ele>1812.8000488281</ele>
        <time>2018-05-09T06:38:25.000Z</time>
      </trkpt>
      <trkpt lat="44.25383" lon="7.04807">
        <ele>1813.4000244141</ele>
        <time>2018-05-09T06:38:31.000Z</time>
      </trkpt>
      <trkpt lat="44.25383" lon="7.04806">
        <ele>1813.4000244141</ele>
        <time>2018-05-09T06:38:33.000Z</time>
      </trkpt>
      <trkpt lat="44.25381" lon="7.0481">
        <ele>1813.8000488281</ele>
        <time>2018-05-09T06:38:39.000Z</time>
      </trkpt>
      <trkpt lat="44.25379" lon="7.04812">
        <ele>1814.1999511719</ele>
        <time>2018-05-09T06:38:42.000Z</time>
      </trkpt>
      <trkpt lat="44.25376" lon="7.04817">
        <ele>1814.8000488281</ele>
        <time>2018-05-09T06:38:46.000Z</time>
      </trkpt>
      <trkpt lat="44.25376" lon="7.04818">
        <ele>1815</ele>
        <time>2018-05-09T06:38:47.000Z</time>
      </trkpt>
      <trkpt lat="44.25375" lon="7.04819">
        <ele>1815.1999511719</ele>
        <time>2018-05-09T06:38:49.000Z</time>
      </trkpt>
      <trkpt lat="44.25367" lon="7.04825">
        <ele>1815.8000488281</ele>
        <time>2018-05-09T06:38:56.000Z</time>
      </trkpt>
      <trkpt lat="44.25368" lon="7.04826">
        <ele>1816</ele>
        <time>2018-05-09T06:38:57.000Z</time>
      </trkpt>
      <trkpt lat="44.25367" lon="7.04828">
        <ele>1816.1999511719</ele>
        <time>2018-05-09T06:39:01.000Z</time>
      </trkpt>
      <trkpt lat="44.25366" lon="7.04831">
        <ele>1816.1999511719</ele>
        <time>2018-05-09T06:39:05.000Z</time>
      </trkpt>
      <trkpt lat="44.25364" lon="7.04835">
        <ele>1816.1999511719</ele>
        <time>2018-05-09T06:39:12.000Z</time>
      </trkpt>
      <trkpt lat="44.25363" lon="7.04836">
        <ele>1816.1999511719</ele>
        <time>2018-05-09T06:39:15.000Z</time>
      </trkpt>
      <trkpt lat="44.25364" lon="7.04842">
        <ele>1816.1999511719</ele>
        <time>2018-05-09T06:39:21.000Z</time>
      </trkpt>
      <trkpt lat="44.25363" lon="7.04844">
        <ele>1816.1999511719</ele>
        <time>2018-05-09T06:39:23.000Z</time>
      </trkpt>
      <trkpt lat="44.25364" lon="7.04844">
        <ele>1816.1999511719</ele>
        <time>2018-05-09T06:39:24.000Z</time>
      </trkpt>
      <trkpt lat="44.25365" lon="7.04844">
        <ele>1816.1999511719</ele>
        <time>2018-05-09T06:39:25.000Z</time>
      </trkpt>
      <trkpt lat="44.25366" lon="7.04843">
        <ele>1816.1999511719</ele>
        <time>2018-05-09T06:39:26.000Z</time>
      </trkpt>
      <trkpt lat="44.25366" lon="7.04843">
        <ele>1816.1999511719</ele>
        <time>2018-05-09T06:39:27.000Z</time>
      </trkpt>
      <trkpt lat="44.25368" lon="7.04843">
        <ele>1816.1999511719</ele>
        <time>2018-05-09T06:39:28.000Z</time>
      </trkpt>
      <trkpt lat="44.25368" lon="7.04843">
        <ele>1816.1999511719</ele>
        <time>2018-05-09T06:39:29.000Z</time>
      </trkpt>
      <trkpt lat="44.25371" lon="7.04842">
        <ele>1816.4000244141</ele>
        <time>2018-05-09T06:39:33.000Z</time>
      </trkpt>
      <trkpt lat="44.25372" lon="7.04842">
        <ele>1816.4000244141</ele>
        <time>2018-05-09T06:39:34.000Z</time>
      </trkpt>
      <trkpt lat="44.25374" lon="7.04843">
        <ele>1816.4000244141</ele>
        <time>2018-05-09T06:39:38.000Z</time>
      </trkpt>
      <trkpt lat="44.25374" lon="7.04838">
        <ele>1816.5999755859</ele>
        <time>2018-05-09T06:39:47.000Z</time>
      </trkpt>
      <trkpt lat="44.25374" lon="7.04838">
        <ele>1816.8000488281</ele>
        <time>2018-05-09T06:39:49.000Z</time>
      </trkpt>
      <trkpt lat="44.25375" lon="7.04836">
        <ele>1816.1999511719</ele>
        <time>2018-05-09T06:39:54.000Z</time>
      </trkpt>
      <trkpt lat="44.25375" lon="7.04835">
        <ele>1816.1999511719</ele>
        <time>2018-05-09T06:39:56.000Z</time>
      </trkpt>
      <trkpt lat="44.25375" lon="7.04835">
        <ele>1816</ele>
        <time>2018-05-09T06:39:57.000Z</time>
      </trkpt>
      <trkpt lat="44.25374" lon="7.04835">
        <ele>1816</ele>
        <time>2018-05-09T06:40:00.000Z</time>
      </trkpt>
      <trkpt lat="44.25373" lon="7.04835">
        <ele>1816</ele>
        <time>2018-05-09T06:40:02.000Z</time>
      </trkpt>
      <trkpt lat="44.25372" lon="7.04835">
        <ele>1816.1999511719</ele>
        <time>2018-05-09T06:40:05.000Z</time>
      </trkpt>
      <trkpt lat="44.25372" lon="7.04835">
        <ele>1816.1999511719</ele>
        <time>2018-05-09T06:40:08.000Z</time>
      </trkpt>
      <trkpt lat="44.25371" lon="7.04835">
        <ele>1816.1999511719</ele>
        <time>2018-05-09T06:40:10.000Z</time>
      </trkpt>
      <trkpt lat="44.2537" lon="7.04833">
        <ele>1816.1999511719</ele>
        <time>2018-05-09T06:40:17.000Z</time>
      </trkpt>
      <trkpt lat="44.25369" lon="7.04831">
        <ele>1816</ele>
        <time>2018-05-09T06:40:19.000Z</time>
      </trkpt>
      <trkpt lat="44.25369" lon="7.04831">
        <ele>1816</ele>
        <time>2018-05-09T06:40:20.000Z</time>
      </trkpt>
      <trkpt lat="44.25369" lon="7.04831">
        <ele>1816</ele>
        <time>2018-05-09T06:40:21.000Z</time>
      </trkpt>
      <trkpt lat="44.25369" lon="7.04831">
        <ele>1816</ele>
        <time>2018-05-09T06:40:31.000Z</time>
      </trkpt>
      <trkpt lat="44.25369" lon="7.04832">
        <ele>1816</ele>
        <time>2018-05-09T06:40:33.000Z</time>
      </trkpt>
      <trkpt lat="44.2537" lon="7.04833">
        <ele>1816</ele>
        <time>2018-05-09T06:40:39.000Z</time>
      </trkpt>
      <trkpt lat="44.25373" lon="7.0483">
        <ele>1816</ele>
        <time>2018-05-09T06:40:45.000Z</time>
      </trkpt>
      <trkpt lat="44.25376" lon="7.04829">
        <ele>1816.1999511719</ele>
        <time>2018-05-09T06:40:54.000Z</time>
      </trkpt>
      <trkpt lat="44.25373" lon="7.0483">
        <ele>1816</ele>
        <time>2018-05-09T06:41:01.000Z</time>
      </trkpt>
      <trkpt lat="44.25368" lon="7.04836">
        <ele>1816.1999511719</ele>
        <time>2018-05-09T06:41:09.000Z</time>
      </trkpt>
      <trkpt lat="44.2537" lon="7.04833">
        <ele>1816.1999511719</ele>
        <time>2018-05-09T06:41:13.000Z</time>
      </trkpt>
      <trkpt lat="44.25372" lon="7.04834">
        <ele>1816.1999511719</ele>
        <time>2018-05-09T06:41:17.000Z</time>
      </trkpt>
      <trkpt lat="44.25372" lon="7.04835">
        <ele>1816.1999511719</ele>
        <time>2018-05-09T06:41:18.000Z</time>
      </trkpt>
      <trkpt lat="44.25372" lon="7.04835">
        <ele>1816.1999511719</ele>
        <time>2018-05-09T06:41:19.000Z</time>
      </trkpt>
      <trkpt lat="44.25372" lon="7.04835">
        <ele>1816</ele>
        <time>2018-05-09T06:41:21.000Z</time>
      </trkpt>
      <trkpt lat="44.25372" lon="7.04836">
        <ele>1816</ele>
        <time>2018-05-09T06:41:23.000Z</time>
      </trkpt>
      <trkpt lat="44.25372" lon="7.04837">
        <ele>1816</ele>
        <time>2018-05-09T06:41:25.000Z</time>
      </trkpt>
      <trkpt lat="44.25373" lon="7.04834">
        <ele>1816</ele>
        <time>2018-05-09T06:41:32.000Z</time>
      </trkpt>
      <trkpt lat="44.25372" lon="7.04834">
        <ele>1816</ele>
        <time>2018-05-09T06:41:36.000Z</time>
      </trkpt>
      <trkpt lat="44.2537" lon="7.04834">
        <ele>1816</ele>
        <time>2018-05-09T06:41:41.000Z</time>
      </trkpt>
      <trkpt lat="44.2537" lon="7.04834">
        <ele>1816</ele>
        <time>2018-05-09T06:41:44.000Z</time>
      </trkpt>
      <trkpt lat="44.25369" lon="7.04834">
        <ele>1816</ele>
        <time>2018-05-09T06:41:47.000Z</time>
      </trkpt>
      <trkpt lat="44.25368" lon="7.04834">
        <ele>1816</ele>
        <time>2018-05-09T06:41:48.000Z</time>
      </trkpt>
      <trkpt lat="44.25369" lon="7.04834">
        <ele>1816</ele>
        <time>2018-05-09T06:41:50.000Z</time>
      </trkpt>
      <trkpt lat="44.25371" lon="7.04833">
        <ele>1816</ele>
        <time>2018-05-09T06:41:52.000Z</time>
      </trkpt>
      <trkpt lat="44.25372" lon="7.0483">
        <ele>1816</ele>
        <time>2018-05-09T06:41:53.000Z</time>
      </trkpt>
      <trkpt lat="44.25376" lon="7.04831">
        <ele>1816</ele>
        <time>2018-05-09T06:41:56.000Z</time>
      </trkpt>
      <trkpt lat="44.25377" lon="7.04831">
        <ele>1816</ele>
        <time>2018-05-09T06:41:58.000Z</time>
      </trkpt>
      <trkpt lat="44.2538" lon="7.04831">
        <ele>1816</ele>
        <time>2018-05-09T06:42:01.000Z</time>
      </trkpt>
      <trkpt lat="44.2538" lon="7.04832">
        <ele>1816</ele>
        <time>2018-05-09T06:42:04.000Z</time>
      </trkpt>
      <trkpt lat="44.25379" lon="7.04833">
        <ele>1816</ele>
        <time>2018-05-09T06:42:07.000Z</time>
      </trkpt>
      <trkpt lat="44.25378" lon="7.04834">
        <ele>1816</ele>
        <time>2018-05-09T06:42:08.000Z</time>
      </trkpt>
      <trkpt lat="44.25384" lon="7.04835">
        <ele>1816</ele>
        <time>2018-05-09T06:42:11.000Z</time>
      </trkpt>
      <trkpt lat="44.25389" lon="7.04836">
        <ele>1816</ele>
        <time>2018-05-09T06:42:12.000Z</time>
      </trkpt>
      <trkpt lat="44.2539" lon="7.04837">
        <ele>1816</ele>
        <time>2018-05-09T06:42:15.000Z</time>
      </trkpt>
      <trkpt lat="44.25388" lon="7.04838">
        <ele>1816</ele>
        <time>2018-05-09T06:42:19.000Z</time>
      </trkpt>
      <trkpt lat="44.25387" lon="7.04838">
        <ele>1816</ele>
        <time>2018-05-09T06:42:20.000Z</time>
      </trkpt>
      <trkpt lat="44.25387" lon="7.04835">
        <ele>1816</ele>
        <time>2018-05-09T06:42:26.000Z</time>
      </trkpt>
      <trkpt lat="44.25381" lon="7.04834">
        <ele>1816.1999511719</ele>
        <time>2018-05-09T06:42:31.000Z</time>
      </trkpt>
      <trkpt lat="44.25376" lon="7.04833">
        <ele>1816.1999511719</ele>
        <time>2018-05-09T06:42:38.000Z</time>
      </trkpt>
      <trkpt lat="44.25374" lon="7.04833">
        <ele>1816.1999511719</ele>
        <time>2018-05-09T06:42:39.000Z</time>
      </trkpt>
      <trkpt lat="44.25371" lon="7.04834">
        <ele>1816.1999511719</ele>
        <time>2018-05-09T06:42:42.000Z</time>
      </trkpt>
      <trkpt lat="44.25368" lon="7.04836">
        <ele>1816.1999511719</ele>
        <time>2018-05-09T06:42:47.000Z</time>
      </trkpt>
      <trkpt lat="44.25368" lon="7.04836">
        <ele>1816.1999511719</ele>
        <time>2018-05-09T06:42:48.000Z</time>
      </trkpt>
      <trkpt lat="44.25368" lon="7.04836">
        <ele>1816.1999511719</ele>
        <time>2018-05-09T06:42:49.000Z</time>
      </trkpt>
      <trkpt lat="44.25367" lon="7.04836">
        <ele>1816.1999511719</ele>
        <time>2018-05-09T06:42:50.000Z</time>
      </trkpt>
      <trkpt lat="44.25367" lon="7.04836">
        <ele>1816.1999511719</ele>
        <time>2018-05-09T06:42:51.000Z</time>
      </trkpt>
      <trkpt lat="44.25367" lon="7.04836">
        <ele>1816.1999511719</ele>
        <time>2018-05-09T06:42:52.000Z</time>
      </trkpt>
      <trkpt lat="44.25367" lon="7.04836">
        <ele>1816.1999511719</ele>
        <time>2018-05-09T06:42:53.000Z</time>
      </trkpt>
      <trkpt lat="44.25368" lon="7.04834">
        <ele>1816.1999511719</ele>
        <time>2018-05-09T06:42:59.000Z</time>
      </trkpt>
      <trkpt lat="44.25368" lon="7.04834">
        <ele>1816.1999511719</ele>
        <time>2018-05-09T06:43:00.000Z</time>
      </trkpt>
      <trkpt lat="44.25367" lon="7.04834">
        <ele>1816.1999511719</ele>
        <time>2018-05-09T06:43:03.000Z</time>
      </trkpt>
      <trkpt lat="44.25366" lon="7.04833">
        <ele>1816.1999511719</ele>
        <time>2018-05-09T06:43:06.000Z</time>
      </trkpt>
      <trkpt lat="44.25366" lon="7.04833">
        <ele>1816.1999511719</ele>
        <time>2018-05-09T06:43:07.000Z</time>
      </trkpt>
      <trkpt lat="44.25365" lon="7.04833">
        <ele>1816.1999511719</ele>
        <time>2018-05-09T06:43:12.000Z</time>
      </trkpt>
      <trkpt lat="44.25365" lon="7.04832">
        <ele>1816.1999511719</ele>
        <time>2018-05-09T06:43:15.000Z</time>
      </trkpt>
      <trkpt lat="44.25365" lon="7.04831">
        <ele>1816.1999511719</ele>
        <time>2018-05-09T06:43:17.000Z</time>
      </trkpt>
      <trkpt lat="44.25367" lon="7.04831">
        <ele>1816.1999511719</ele>
        <time>2018-05-09T06:43:21.000Z</time>
      </trkpt>
      <trkpt lat="44.25367" lon="7.04829">
        <ele>1816.1999511719</ele>
        <time>2018-05-09T06:43:24.000Z</time>
      </trkpt>
      <trkpt lat="44.25366" lon="7.04828">
        <ele>1816.1999511719</ele>
        <time>2018-05-09T06:43:26.000Z</time>
      </trkpt>
      <trkpt lat="44.25367" lon="7.04827">
        <ele>1816.1999511719</ele>
        <time>2018-05-09T06:43:29.000Z</time>
      </trkpt>
      <trkpt lat="44.25368" lon="7.04828">
        <ele>1816.1999511719</ele>
        <time>2018-05-09T06:43:33.000Z</time>
      </trkpt>
      <trkpt lat="44.25368" lon="7.04827">
        <ele>1816.1999511719</ele>
        <time>2018-05-09T06:43:34.000Z</time>
      </trkpt>
      <trkpt lat="44.25368" lon="7.04829">
        <ele>1816.1999511719</ele>
        <time>2018-05-09T06:43:36.000Z</time>
      </trkpt>
      <trkpt lat="44.25366" lon="7.04833">
        <ele>1816.1999511719</ele>
        <time>2018-05-09T06:43:38.000Z</time>
      </trkpt>
      <trkpt lat="44.25364" lon="7.04836">
        <ele>1816.1999511719</ele>
        <time>2018-05-09T06:43:41.000Z</time>
      </trkpt>
      <trkpt lat="44.25363" lon="7.04838">
        <ele>1816.1999511719</ele>
        <time>2018-05-09T06:43:42.000Z</time>
      </trkpt>
      <trkpt lat="44.25362" lon="7.04839">
        <ele>1816.1999511719</ele>
        <time>2018-05-09T06:43:43.000Z</time>
      </trkpt>
      <trkpt lat="44.25361" lon="7.0484">
        <ele>1816.1999511719</ele>
        <time>2018-05-09T06:43:44.000Z</time>
      </trkpt>
      <trkpt lat="44.2536" lon="7.04841">
        <ele>1816.1999511719</ele>
        <time>2018-05-09T06:43:46.000Z</time>
      </trkpt>
      <trkpt lat="44.25359" lon="7.04841">
        <ele>1816.1999511719</ele>
        <time>2018-05-09T06:43:48.000Z</time>
      </trkpt>
      <trkpt lat="44.2536" lon="7.04841">
        <ele>1816.1999511719</ele>
        <time>2018-05-09T06:43:51.000Z</time>
      </trkpt>
      <trkpt lat="44.2536" lon="7.04842">
        <ele>1816.1999511719</ele>
        <time>2018-05-09T06:44:05.000Z</time>
      </trkpt>
      <trkpt lat="44.25361" lon="7.04841">
        <ele>1816.1999511719</ele>
        <time>2018-05-09T06:44:08.000Z</time>
      </trkpt>
      <trkpt lat="44.25363" lon="7.04838">
        <ele>1816.1999511719</ele>
        <time>2018-05-09T06:44:12.000Z</time>
      </trkpt>
      <trkpt lat="44.25364" lon="7.04837">
        <ele>1816.1999511719</ele>
        <time>2018-05-09T06:44:15.000Z</time>
      </trkpt>
      <trkpt lat="44.25365" lon="7.04836">
        <ele>1816.1999511719</ele>
        <time>2018-05-09T06:44:17.000Z</time>
      </trkpt>
      <trkpt lat="44.25365" lon="7.04838">
        <ele>1816.1999511719</ele>
        <time>2018-05-09T06:44:22.000Z</time>
      </trkpt>
      <trkpt lat="44.25366" lon="7.04837">
        <ele>1816.1999511719</ele>
        <time>2018-05-09T06:44:24.000Z</time>
      </trkpt>
      <trkpt lat="44.25367" lon="7.04836">
        <ele>1816.1999511719</ele>
        <time>2018-05-09T06:44:26.000Z</time>
      </trkpt>
      <trkpt lat="44.25379" lon="7.04837">
        <ele>1816.1999511719</ele>
        <time>2018-05-09T06:44:30.000Z</time>
      </trkpt>
      <trkpt lat="44.2538" lon="7.04837">
        <ele>1816.1999511719</ele>
        <time>2018-05-09T06:44:32.000Z</time>
      </trkpt>
      <trkpt lat="44.25379" lon="7.04839">
        <ele>1816.4000244141</ele>
        <time>2018-05-09T06:44:35.000Z</time>
      </trkpt>
      <trkpt lat="44.25379" lon="7.04839">
        <ele>1816.4000244141</ele>
        <time>2018-05-09T06:44:36.000Z</time>
      </trkpt>
      <trkpt lat="44.25378" lon="7.0484">
        <ele>1816.5999755859</ele>
        <time>2018-05-09T06:44:37.000Z</time>
      </trkpt>
      <trkpt lat="44.25377" lon="7.0484">
        <ele>1816.5999755859</ele>
        <time>2018-05-09T06:44:38.000Z</time>
      </trkpt>
      <trkpt lat="44.25377" lon="7.04841">
        <ele>1816.5999755859</ele>
        <time>2018-05-09T06:44:39.000Z</time>
      </trkpt>
      <trkpt lat="44.25374" lon="7.04841">
        <ele>1816.5999755859</ele>
        <time>2018-05-09T06:44:44.000Z</time>
      </trkpt>
      <trkpt lat="44.25364" lon="7.0484">
        <ele>1816.5999755859</ele>
        <time>2018-05-09T06:44:57.000Z</time>
      </trkpt>
      <trkpt lat="44.25364" lon="7.04841">
        <ele>1816.4000244141</ele>
        <time>2018-05-09T06:45:00.000Z</time>
      </trkpt>
      <trkpt lat="44.25365" lon="7.04841">
        <ele>1816.4000244141</ele>
        <time>2018-05-09T06:45:02.000Z</time>
      </trkpt>
      <trkpt lat="44.25366" lon="7.0484">
        <ele>1816.4000244141</ele>
        <time>2018-05-09T06:45:03.000Z</time>
      </trkpt>
      <trkpt lat="44.25369" lon="7.04836">
        <ele>1816.5999755859</ele>
        <time>2018-05-09T06:45:05.000Z</time>
      </trkpt>
      <trkpt lat="44.25371" lon="7.04834">
        <ele>1816.5999755859</ele>
        <time>2018-05-09T06:45:07.000Z</time>
      </trkpt>
      <trkpt lat="44.25373" lon="7.04834">
        <ele>1816.5999755859</ele>
        <time>2018-05-09T06:45:10.000Z</time>
      </trkpt>
      <trkpt lat="44.25373" lon="7.04834">
        <ele>1816.5999755859</ele>
        <time>2018-05-09T06:45:12.000Z</time>
      </trkpt>
      <trkpt lat="44.25373" lon="7.04834">
        <ele>1816.5999755859</ele>
        <time>2018-05-09T06:45:13.000Z</time>
      </trkpt>
      <trkpt lat="44.25373" lon="7.04834">
        <ele>1816.5999755859</ele>
        <time>2018-05-09T06:45:14.000Z</time>
      </trkpt>
      <trkpt lat="44.25373" lon="7.04834">
        <ele>1816.5999755859</ele>
        <time>2018-05-09T06:45:15.000Z</time>
      </trkpt>
      <trkpt lat="44.25374" lon="7.04834">
        <ele>1816.4000244141</ele>
        <time>2018-05-09T06:45:21.000Z</time>
      </trkpt>
      <trkpt lat="44.25367" lon="7.04843">
        <ele>1816.8000488281</ele>
        <time>2018-05-09T06:45:33.000Z</time>
      </trkpt>
      <trkpt lat="44.25365" lon="7.04843">
        <ele>1816.8000488281</ele>
        <time>2018-05-09T06:45:35.000Z</time>
      </trkpt>
      <trkpt lat="44.25363" lon="7.04842">
        <ele>1817</ele>
        <time>2018-05-09T06:45:41.000Z</time>
      </trkpt>
      <trkpt lat="44.25363" lon="7.04842">
        <ele>1817</ele>
        <time>2018-05-09T06:45:42.000Z</time>
      </trkpt>
      <trkpt lat="44.25363" lon="7.04841">
        <ele>1817</ele>
        <time>2018-05-09T06:45:43.000Z</time>
      </trkpt>
      <trkpt lat="44.25363" lon="7.04841">
        <ele>1817</ele>
        <time>2018-05-09T06:45:44.000Z</time>
      </trkpt>
      <trkpt lat="44.25363" lon="7.04841">
        <ele>1817</ele>
        <time>2018-05-09T06:45:45.000Z</time>
      </trkpt>
      <trkpt lat="44.25362" lon="7.0484">
        <ele>1817</ele>
        <time>2018-05-09T06:45:46.000Z</time>
      </trkpt>
      <trkpt lat="44.25362" lon="7.0484">
        <ele>1817</ele>
        <time>2018-05-09T06:45:47.000Z</time>
      </trkpt>
      <trkpt lat="44.25361" lon="7.04839">
        <ele>1817</ele>
        <time>2018-05-09T06:45:48.000Z</time>
      </trkpt>
      <trkpt lat="44.2536" lon="7.04839">
        <ele>1817</ele>
        <time>2018-05-09T06:45:50.000Z</time>
      </trkpt>
      <trkpt lat="44.2536" lon="7.04839">
        <ele>1817</ele>
        <time>2018-05-09T06:45:51.000Z</time>
      </trkpt>
      <trkpt lat="44.25361" lon="7.04839">
        <ele>1817</ele>
        <time>2018-05-09T06:45:55.000Z</time>
      </trkpt>
      <trkpt lat="44.2536" lon="7.04836">
        <ele>1817</ele>
        <time>2018-05-09T06:46:02.000Z</time>
      </trkpt>
      <trkpt lat="44.25361" lon="7.04838">
        <ele>1817</ele>
        <time>2018-05-09T06:46:08.000Z</time>
      </trkpt>
      <trkpt lat="44.25361" lon="7.04838">
        <ele>1817</ele>
        <time>2018-05-09T06:46:11.000Z</time>
      </trkpt>
      <trkpt lat="44.25362" lon="7.04837">
        <ele>1817</ele>
        <time>2018-05-09T06:46:12.000Z</time>
      </trkpt>
      <trkpt lat="44.25363" lon="7.04836">
        <ele>1817</ele>
        <time>2018-05-09T06:46:14.000Z</time>
      </trkpt>
      <trkpt lat="44.25365" lon="7.04833">
        <ele>1817</ele>
        <time>2018-05-09T06:46:17.000Z</time>
      </trkpt>
      <trkpt lat="44.25365" lon="7.04833">
        <ele>1817</ele>
        <time>2018-05-09T06:46:19.000Z</time>
      </trkpt>
      <trkpt lat="44.25365" lon="7.04834">
        <ele>1817</ele>
        <time>2018-05-09T06:46:26.000Z</time>
      </trkpt>
      <trkpt lat="44.25365" lon="7.04833">
        <ele>1817</ele>
        <time>2018-05-09T06:46:27.000Z</time>
      </trkpt>
      <trkpt lat="44.25366" lon="7.04833">
        <ele>1817</ele>
        <time>2018-05-09T06:46:28.000Z</time>
      </trkpt>
      <trkpt lat="44.25366" lon="7.04834">
        <ele>1817</ele>
        <time>2018-05-09T06:46:32.000Z</time>
      </trkpt>
      <trkpt lat="44.25365" lon="7.04836">
        <ele>1816.8000488281</ele>
        <time>2018-05-09T06:46:34.000Z</time>
      </trkpt>
      <trkpt lat="44.25367" lon="7.04841">
        <ele>1817.4000244141</ele>
        <time>2018-05-09T06:46:42.000Z</time>
      </trkpt>
      <trkpt lat="44.25366" lon="7.04842">
        <ele>1817.4000244141</ele>
        <time>2018-05-09T06:46:44.000Z</time>
      </trkpt>
      <trkpt lat="44.25366" lon="7.04843">
        <ele>1816.8000488281</ele>
        <time>2018-05-09T06:46:47.000Z</time>
      </trkpt>
      <trkpt lat="44.25365" lon="7.04843">
        <ele>1817.4000244141</ele>
        <time>2018-05-09T06:46:50.000Z</time>
      </trkpt>
      <trkpt lat="44.25365" lon="7.04843">
        <ele>1817.1999511719</ele>
        <time>2018-05-09T06:46:52.000Z</time>
      </trkpt>
      <trkpt lat="44.25358" lon="7.04845">
        <ele>1817.4000244141</ele>
        <time>2018-05-09T06:46:59.000Z</time>
      </trkpt>
      <trkpt lat="44.25352" lon="7.04838">
        <ele>1817.4000244141</ele>
        <time>2018-05-09T06:47:12.000Z</time>
      </trkpt>
      <trkpt lat="44.25349" lon="7.04838">
        <ele>1818.1999511719</ele>
        <time>2018-05-09T06:47:19.000Z</time>
      </trkpt>
      <trkpt lat="44.25347" lon="7.04839">
        <ele>1818.5999755859</ele>
        <time>2018-05-09T06:47:21.000Z</time>
      </trkpt>
      <trkpt lat="44.25344" lon="7.0484">
        <ele>1818.8000488281</ele>
        <time>2018-05-09T06:47:23.000Z</time>
      </trkpt>
      <trkpt lat="44.25342" lon="7.0484">
        <ele>1818.8000488281</ele>
        <time>2018-05-09T06:47:24.000Z</time>
      </trkpt>
      <trkpt lat="44.25339" lon="7.0484">
        <ele>1819.1999511719</ele>
        <time>2018-05-09T06:47:27.000Z</time>
      </trkpt>
      <trkpt lat="44.25334" lon="7.04844">
        <ele>1819.8000488281</ele>
        <time>2018-05-09T06:47:30.000Z</time>
      </trkpt>
      <trkpt lat="44.25329" lon="7.04847">
        <ele>1820.1999511719</ele>
        <time>2018-05-09T06:47:34.000Z</time>
      </trkpt>
      <trkpt lat="44.25327" lon="7.04847">
        <ele>1820.4000244141</ele>
        <time>2018-05-09T06:47:36.000Z</time>
      </trkpt>
      <trkpt lat="44.25323" lon="7.04842">
        <ele>1821.4000244141</ele>
        <time>2018-05-09T06:47:42.000Z</time>
      </trkpt>
      <trkpt lat="44.2532" lon="7.04839">
        <ele>1821.8000488281</ele>
        <time>2018-05-09T06:47:47.000Z</time>
      </trkpt>
      <trkpt lat="44.25318" lon="7.04836">
        <ele>1822.4000244141</ele>
        <time>2018-05-09T06:47:51.000Z</time>
      </trkpt>
      <trkpt lat="44.25317" lon="7.04835">
        <ele>1822.5999755859</ele>
        <time>2018-05-09T06:47:52.000Z</time>
      </trkpt>
      <trkpt lat="44.25314" lon="7.04834">
        <ele>1823.5999755859</ele>
        <time>2018-05-09T06:47:58.000Z</time>
      </trkpt>
      <trkpt lat="44.25312" lon="7.04833">
        <ele>1823.8000488281</ele>
        <time>2018-05-09T06:48:01.000Z</time>
      </trkpt>
      <trkpt lat="44.25311" lon="7.04833">
        <ele>1824</ele>
        <time>2018-05-09T06:48:03.000Z</time>
      </trkpt>
      <trkpt lat="44.2531" lon="7.04833">
        <ele>1824.5999755859</ele>
        <time>2018-05-09T06:48:10.000Z</time>
      </trkpt>
      <trkpt lat="44.25309" lon="7.04841">
        <ele>1824.5999755859</ele>
        <time>2018-05-09T06:48:24.000Z</time>
      </trkpt>
      <trkpt lat="44.25308" lon="7.04838">
        <ele>1824.8000488281</ele>
        <time>2018-05-09T06:48:26.000Z</time>
      </trkpt>
      <trkpt lat="44.25307" lon="7.04837">
        <ele>1825</ele>
        <time>2018-05-09T06:48:27.000Z</time>
      </trkpt>
      <trkpt lat="44.25304" lon="7.04835">
        <ele>1825.8000488281</ele>
        <time>2018-05-09T06:48:30.000Z</time>
      </trkpt>
      <trkpt lat="44.25303" lon="7.04827">
        <ele>1826.8000488281</ele>
        <time>2018-05-09T06:48:37.000Z</time>
      </trkpt>
      <trkpt lat="44.25305" lon="7.04818">
        <ele>1828</ele>
        <time>2018-05-09T06:48:43.000Z</time>
      </trkpt>
      <trkpt lat="44.25305" lon="7.04815">
        <ele>1828.1999511719</ele>
        <time>2018-05-09T06:48:45.000Z</time>
      </trkpt>
      <trkpt lat="44.25303" lon="7.04814">
        <ele>1828.8000488281</ele>
        <time>2018-05-09T06:48:48.000Z</time>
      </trkpt>
      <trkpt lat="44.25302" lon="7.04813">
        <ele>1829</ele>
        <time>2018-05-09T06:48:49.000Z</time>
      </trkpt>
      <trkpt lat="44.25302" lon="7.04809">
        <ele>1829.8000488281</ele>
        <time>2018-05-09T06:48:53.000Z</time>
      </trkpt>
      <trkpt lat="44.253" lon="7.04807">
        <ele>1830.1999511719</ele>
        <time>2018-05-09T06:48:56.000Z</time>
      </trkpt>
      <trkpt lat="44.25299" lon="7.04808">
        <ele>1830.8000488281</ele>
        <time>2018-05-09T06:49:00.000Z</time>
      </trkpt>
      <trkpt lat="44.25297" lon="7.04808">
        <ele>1831.1999511719</ele>
        <time>2018-05-09T06:49:02.000Z</time>
      </trkpt>
      <trkpt lat="44.25297" lon="7.04809">
        <ele>1831.4000244141</ele>
        <time>2018-05-09T06:49:03.000Z</time>
      </trkpt>
      <trkpt lat="44.25295" lon="7.04812">
        <ele>1832.1999511719</ele>
        <time>2018-05-09T06:49:09.000Z</time>
      </trkpt>
      <trkpt lat="44.25292" lon="7.04816">
        <ele>1832.5999755859</ele>
        <time>2018-05-09T06:49:13.000Z</time>
      </trkpt>
      <trkpt lat="44.2529" lon="7.04818">
        <ele>1833.4000244141</ele>
        <time>2018-05-09T06:49:17.000Z</time>
      </trkpt>
      <trkpt lat="44.25285" lon="7.04827">
        <ele>1834</ele>
        <time>2018-05-09T06:49:26.000Z</time>
      </trkpt>
      <trkpt lat="44.25282" lon="7.04828">
        <ele>1834.1999511719</ele>
        <time>2018-05-09T06:49:35.000Z</time>
      </trkpt>
      <trkpt lat="44.25278" lon="7.04827">
        <ele>1834.4000244141</ele>
        <time>2018-05-09T06:49:39.000Z</time>
      </trkpt>
      <trkpt lat="44.25276" lon="7.04824">
        <ele>1835.4000244141</ele>
        <time>2018-05-09T06:49:43.000Z</time>
      </trkpt>
      <trkpt lat="44.25276" lon="7.04824">
        <ele>1835.5999755859</ele>
        <time>2018-05-09T06:49:44.000Z</time>
      </trkpt>
      <trkpt lat="44.25281" lon="7.04821">
        <ele>1836.1999511719</ele>
        <time>2018-05-09T06:49:51.000Z</time>
      </trkpt>
      <trkpt lat="44.25281" lon="7.04816">
        <ele>1836</ele>
        <time>2018-05-09T06:50:00.000Z</time>
      </trkpt>
      <trkpt lat="44.25282" lon="7.04811">
        <ele>1836.8000488281</ele>
        <time>2018-05-09T06:50:04.000Z</time>
      </trkpt>
      <trkpt lat="44.25281" lon="7.04811">
        <ele>1837</ele>
        <time>2018-05-09T06:50:05.000Z</time>
      </trkpt>
      <trkpt lat="44.25281" lon="7.0481">
        <ele>1837.1999511719</ele>
        <time>2018-05-09T06:50:06.000Z</time>
      </trkpt>
      <trkpt lat="44.25281" lon="7.04808">
        <ele>1837.5999755859</ele>
        <time>2018-05-09T06:50:08.000Z</time>
      </trkpt>
      <trkpt lat="44.2528" lon="7.04808">
        <ele>1838</ele>
        <time>2018-05-09T06:50:09.000Z</time>
      </trkpt>
      <trkpt lat="44.25279" lon="7.04808">
        <ele>1838.1999511719</ele>
        <time>2018-05-09T06:50:10.000Z</time>
      </trkpt>
      <trkpt lat="44.25278" lon="7.04807">
        <ele>1838.8000488281</ele>
        <time>2018-05-09T06:50:12.000Z</time>
      </trkpt>
      <trkpt lat="44.25278" lon="7.04807">
        <ele>1839</ele>
        <time>2018-05-09T06:50:13.000Z</time>
      </trkpt>
      <trkpt lat="44.25277" lon="7.04805">
        <ele>1840.1999511719</ele>
        <time>2018-05-09T06:50:18.000Z</time>
      </trkpt>
      <trkpt lat="44.25273" lon="7.04802">
        <ele>1840.5999755859</ele>
        <time>2018-05-09T06:50:22.000Z</time>
      </trkpt>
      <trkpt lat="44.25273" lon="7.04799">
        <ele>1840.8000488281</ele>
        <time>2018-05-09T06:50:24.000Z</time>
      </trkpt>
      <trkpt lat="44.25275" lon="7.04789">
        <ele>1841.1999511719</ele>
        <time>2018-05-09T06:50:30.000Z</time>
      </trkpt>
      <trkpt lat="44.25276" lon="7.04788">
        <ele>1841.4000244141</ele>
        <time>2018-05-09T06:50:31.000Z</time>
      </trkpt>
      <trkpt lat="44.25278" lon="7.04784">
        <ele>1842.4000244141</ele>
        <time>2018-05-09T06:50:35.000Z</time>
      </trkpt>
      <trkpt lat="44.25277" lon="7.04783">
        <ele>1842.5999755859</ele>
        <time>2018-05-09T06:50:36.000Z</time>
      </trkpt>
      <trkpt lat="44.25277" lon="7.04782">
        <ele>1842.5999755859</ele>
        <time>2018-05-09T06:50:37.000Z</time>
      </trkpt>
      <trkpt lat="44.25274" lon="7.04779">
        <ele>1843.1999511719</ele>
        <time>2018-05-09T06:50:41.000Z</time>
      </trkpt>
      <trkpt lat="44.25272" lon="7.0478">
        <ele>1843.4000244141</ele>
        <time>2018-05-09T06:50:42.000Z</time>
      </trkpt>
      <trkpt lat="44.2527" lon="7.04781">
        <ele>1844</ele>
        <time>2018-05-09T06:50:46.000Z</time>
      </trkpt>
      <trkpt lat="44.25268" lon="7.04783">
        <ele>1844.1999511719</ele>
        <time>2018-05-09T06:50:47.000Z</time>
      </trkpt>
      <trkpt lat="44.25267" lon="7.04784">
        <ele>1844.5999755859</ele>
        <time>2018-05-09T06:50:48.000Z</time>
      </trkpt>
      <trkpt lat="44.25265" lon="7.04785">
        <ele>1845.4000244141</ele>
        <time>2018-05-09T06:50:51.000Z</time>
      </trkpt>
      <trkpt lat="44.25264" lon="7.04786">
        <ele>1845.5999755859</ele>
        <time>2018-05-09T06:50:53.000Z</time>
      </trkpt>
      <trkpt lat="44.25264" lon="7.04787">
        <ele>1846</ele>
        <time>2018-05-09T06:50:56.000Z</time>
      </trkpt>
      <trkpt lat="44.25262" lon="7.0479">
        <ele>1846.1999511719</ele>
        <time>2018-05-09T06:50:59.000Z</time>
      </trkpt>
      <trkpt lat="44.2526" lon="7.04791">
        <ele>1846.8000488281</ele>
        <time>2018-05-09T06:51:04.000Z</time>
      </trkpt>
      <trkpt lat="44.25257" lon="7.04793">
        <ele>1847.8000488281</ele>
        <time>2018-05-09T06:51:10.000Z</time>
      </trkpt>
      <trkpt lat="44.25256" lon="7.04793">
        <ele>1847.8000488281</ele>
        <time>2018-05-09T06:51:11.000Z</time>
      </trkpt>
      <trkpt lat="44.25251" lon="7.04796">
        <ele>1848.8000488281</ele>
        <time>2018-05-09T06:51:17.000Z</time>
      </trkpt>
      <trkpt lat="44.25249" lon="7.04795">
        <ele>1849.4000244141</ele>
        <time>2018-05-09T06:51:20.000Z</time>
      </trkpt>
      <trkpt lat="44.25249" lon="7.0479">
        <ele>1850</ele>
        <time>2018-05-09T06:51:24.000Z</time>
      </trkpt>
      <trkpt lat="44.2525" lon="7.04784">
        <ele>1850.4000244141</ele>
        <time>2018-05-09T06:51:28.000Z</time>
      </trkpt>
      <trkpt lat="44.2525" lon="7.04777">
        <ele>1851</ele>
        <time>2018-05-09T06:51:33.000Z</time>
      </trkpt>
      <trkpt lat="44.2525" lon="7.04772">
        <ele>1851.8000488281</ele>
        <time>2018-05-09T06:51:38.000Z</time>
      </trkpt>
      <trkpt lat="44.25249" lon="7.04768">
        <ele>1852</ele>
        <time>2018-05-09T06:51:41.000Z</time>
      </trkpt>
      <trkpt lat="44.25248" lon="7.04761">
        <ele>1852</ele>
        <time>2018-05-09T06:51:51.000Z</time>
      </trkpt>
      <trkpt lat="44.25248" lon="7.0476">
        <ele>1852</ele>
        <time>2018-05-09T06:51:53.000Z</time>
      </trkpt>
      <trkpt lat="44.25247" lon="7.0476">
        <ele>1852</ele>
        <time>2018-05-09T06:51:55.000Z</time>
      </trkpt>
      <trkpt lat="44.25247" lon="7.04759">
        <ele>1852</ele>
        <time>2018-05-09T06:51:57.000Z</time>
      </trkpt>
      <trkpt lat="44.25248" lon="7.04758">
        <ele>1852</ele>
        <time>2018-05-09T06:52:00.000Z</time>
      </trkpt>
      <trkpt lat="44.25247" lon="7.04761">
        <ele>1852.8000488281</ele>
        <time>2018-05-09T06:52:05.000Z</time>
      </trkpt>
      <trkpt lat="44.25247" lon="7.04762">
        <ele>1853.1999511719</ele>
        <time>2018-05-09T06:52:06.000Z</time>
      </trkpt>
      <trkpt lat="44.25244" lon="7.04767">
        <ele>1853.5999755859</ele>
        <time>2018-05-09T06:52:10.000Z</time>
      </trkpt>
      <trkpt lat="44.25243" lon="7.04768">
        <ele>1854.1999511719</ele>
        <time>2018-05-09T06:52:12.000Z</time>
      </trkpt>
      <trkpt lat="44.25239" lon="7.04769">
        <ele>1855.4000244141</ele>
        <time>2018-05-09T06:52:17.000Z</time>
      </trkpt>
      <trkpt lat="44.25238" lon="7.04768">
        <ele>1855.5999755859</ele>
        <time>2018-05-09T06:52:18.000Z</time>
      </trkpt>
      <trkpt lat="44.25237" lon="7.04767">
        <ele>1855.8000488281</ele>
        <time>2018-05-09T06:52:20.000Z</time>
      </trkpt>
      <trkpt lat="44.25237" lon="7.04763">
        <ele>1856.4000244141</ele>
        <time>2018-05-09T06:52:23.000Z</time>
      </trkpt>
      <trkpt lat="44.25237" lon="7.04762">
        <ele>1856.5999755859</ele>
        <time>2018-05-09T06:52:24.000Z</time>
      </trkpt>
      <trkpt lat="44.25239" lon="7.0476">
        <ele>1857</ele>
        <time>2018-05-09T06:52:26.000Z</time>
      </trkpt>
      <trkpt lat="44.25241" lon="7.04756">
        <ele>1857.4000244141</ele>
        <time>2018-05-09T06:52:30.000Z</time>
      </trkpt>
      <trkpt lat="44.25242" lon="7.04754">
        <ele>1857.4000244141</ele>
        <time>2018-05-09T06:52:31.000Z</time>
      </trkpt>
      <trkpt lat="44.25242" lon="7.04752">
        <ele>1857.4000244141</ele>
        <time>2018-05-09T06:52:32.000Z</time>
      </trkpt>
      <trkpt lat="44.25242" lon="7.0475">
        <ele>1858</ele>
        <time>2018-05-09T06:52:34.000Z</time>
      </trkpt>
      <trkpt lat="44.25243" lon="7.04746">
        <ele>1858.4000244141</ele>
        <time>2018-05-09T06:52:37.000Z</time>
      </trkpt>
      <trkpt lat="44.25244" lon="7.04744">
        <ele>1858.5999755859</ele>
        <time>2018-05-09T06:52:39.000Z</time>
      </trkpt>
      <trkpt lat="44.25244" lon="7.04742">
        <ele>1859.4000244141</ele>
        <time>2018-05-09T06:52:42.000Z</time>
      </trkpt>
      <trkpt lat="44.25243" lon="7.04743">
        <ele>1859.8000488281</ele>
        <time>2018-05-09T06:52:44.000Z</time>
      </trkpt>
      <trkpt lat="44.25239" lon="7.04743">
        <ele>1860.8000488281</ele>
        <time>2018-05-09T06:52:50.000Z</time>
      </trkpt>
      <trkpt lat="44.25232" lon="7.04752">
        <ele>1861.1999511719</ele>
        <time>2018-05-09T06:52:57.000Z</time>
      </trkpt>
      <trkpt lat="44.25231" lon="7.04753">
        <ele>1861.4000244141</ele>
        <time>2018-05-09T06:52:59.000Z</time>
      </trkpt>
      <trkpt lat="44.25228" lon="7.04756">
        <ele>1861.8000488281</ele>
        <time>2018-05-09T06:53:01.000Z</time>
      </trkpt>
      <trkpt lat="44.25226" lon="7.04758">
        <ele>1862.5999755859</ele>
        <time>2018-05-09T06:53:05.000Z</time>
      </trkpt>
      <trkpt lat="44.25224" lon="7.04757">
        <ele>1863</ele>
        <time>2018-05-09T06:53:07.000Z</time>
      </trkpt>
      <trkpt lat="44.25224" lon="7.04756">
        <ele>1863.4000244141</ele>
        <time>2018-05-09T06:53:09.000Z</time>
      </trkpt>
      <trkpt lat="44.25223" lon="7.04755">
        <ele>1863.5999755859</ele>
        <time>2018-05-09T06:53:10.000Z</time>
      </trkpt>
      <trkpt lat="44.25223" lon="7.04755">
        <ele>1863.8000488281</ele>
        <time>2018-05-09T06:53:11.000Z</time>
      </trkpt>
      <trkpt lat="44.25222" lon="7.04756">
        <ele>1864</ele>
        <time>2018-05-09T06:53:12.000Z</time>
      </trkpt>
      <trkpt lat="44.25221" lon="7.04756">
        <ele>1864.1999511719</ele>
        <time>2018-05-09T06:53:13.000Z</time>
      </trkpt>
      <trkpt lat="44.25219" lon="7.04758">
        <ele>1864.5999755859</ele>
        <time>2018-05-09T06:53:15.000Z</time>
      </trkpt>
      <trkpt lat="44.25217" lon="7.04759">
        <ele>1865.1999511719</ele>
        <time>2018-05-09T06:53:17.000Z</time>
      </trkpt>
      <trkpt lat="44.25216" lon="7.04759">
        <ele>1865.1999511719</ele>
        <time>2018-05-09T06:53:18.000Z</time>
      </trkpt>
      <trkpt lat="44.25219" lon="7.04751">
        <ele>1865.5999755859</ele>
        <time>2018-05-09T06:53:29.000Z</time>
      </trkpt>
      <trkpt lat="44.2522" lon="7.04746">
        <ele>1866.1999511719</ele>
        <time>2018-05-09T06:53:36.000Z</time>
      </trkpt>
      <trkpt lat="44.25221" lon="7.04744">
        <ele>1866.4000244141</ele>
        <time>2018-05-09T06:53:38.000Z</time>
      </trkpt>
      <trkpt lat="44.25222" lon="7.0474">
        <ele>1866.5999755859</ele>
        <time>2018-05-09T06:53:41.000Z</time>
      </trkpt>
      <trkpt lat="44.25223" lon="7.04738">
        <ele>1866.8000488281</ele>
        <time>2018-05-09T06:53:43.000Z</time>
      </trkpt>
      <trkpt lat="44.25223" lon="7.04737">
        <ele>1867.1999511719</ele>
        <time>2018-05-09T06:53:46.000Z</time>
      </trkpt>
      <trkpt lat="44.25219" lon="7.04737">
        <ele>1868.4000244141</ele>
        <time>2018-05-09T06:53:52.000Z</time>
      </trkpt>
      <trkpt lat="44.25215" lon="7.0474">
        <ele>1869.1999511719</ele>
        <time>2018-05-09T06:53:56.000Z</time>
      </trkpt>
      <trkpt lat="44.25214" lon="7.0474">
        <ele>1869.5999755859</ele>
        <time>2018-05-09T06:53:57.000Z</time>
      </trkpt>
      <trkpt lat="44.25213" lon="7.04738">
        <ele>1870</ele>
        <time>2018-05-09T06:54:00.000Z</time>
      </trkpt>
      <trkpt lat="44.25212" lon="7.04735">
        <ele>1870.5999755859</ele>
        <time>2018-05-09T06:54:03.000Z</time>
      </trkpt>
      <trkpt lat="44.25212" lon="7.04733">
        <ele>1870.8000488281</ele>
        <time>2018-05-09T06:54:04.000Z</time>
      </trkpt>
      <trkpt lat="44.25213" lon="7.04732">
        <ele>1871</ele>
        <time>2018-05-09T06:54:05.000Z</time>
      </trkpt>
      <trkpt lat="44.25216" lon="7.04727">
        <ele>1871.5999755859</ele>
        <time>2018-05-09T06:54:09.000Z</time>
      </trkpt>
      <trkpt lat="44.25216" lon="7.04726">
        <ele>1871.8000488281</ele>
        <time>2018-05-09T06:54:10.000Z</time>
      </trkpt>
      <trkpt lat="44.25217" lon="7.04721">
        <ele>1872.1999511719</ele>
        <time>2018-05-09T06:54:13.000Z</time>
      </trkpt>
      <trkpt lat="44.25218" lon="7.04717">
        <ele>1872.8000488281</ele>
        <time>2018-05-09T06:54:17.000Z</time>
      </trkpt>
      <trkpt lat="44.25218" lon="7.04715">
        <ele>1873</ele>
        <time>2018-05-09T06:54:19.000Z</time>
      </trkpt>
      <trkpt lat="44.25218" lon="7.04714">
        <ele>1873.1999511719</ele>
        <time>2018-05-09T06:54:22.000Z</time>
      </trkpt>
      <trkpt lat="44.25218" lon="7.04708">
        <ele>1873.8000488281</ele>
        <time>2018-05-09T06:54:29.000Z</time>
      </trkpt>
      <trkpt lat="44.25218" lon="7.04704">
        <ele>1874.8000488281</ele>
        <time>2018-05-09T06:54:35.000Z</time>
      </trkpt>
      <trkpt lat="44.25218" lon="7.04704">
        <ele>1875</ele>
        <time>2018-05-09T06:54:36.000Z</time>
      </trkpt>
      <trkpt lat="44.25219" lon="7.04699">
        <ele>1875.8000488281</ele>
        <time>2018-05-09T06:54:43.000Z</time>
      </trkpt>
      <trkpt lat="44.25218" lon="7.04691">
        <ele>1877</ele>
        <time>2018-05-09T06:54:52.000Z</time>
      </trkpt>
      <trkpt lat="44.25216" lon="7.04689">
        <ele>1878</ele>
        <time>2018-05-09T06:54:57.000Z</time>
      </trkpt>
      <trkpt lat="44.25213" lon="7.04696">
        <ele>1879</ele>
        <time>2018-05-09T06:55:02.000Z</time>
      </trkpt>
      <trkpt lat="44.25208" lon="7.04702">
        <ele>1880</ele>
        <time>2018-05-09T06:55:08.000Z</time>
      </trkpt>
      <trkpt lat="44.25208" lon="7.04702">
        <ele>1880</ele>
        <time>2018-05-09T06:55:09.000Z</time>
      </trkpt>
      <trkpt lat="44.25207" lon="7.04703">
        <ele>1880.1999511719</ele>
        <time>2018-05-09T06:55:10.000Z</time>
      </trkpt>
      <trkpt lat="44.25206" lon="7.04703">
        <ele>1880.4000244141</ele>
        <time>2018-05-09T06:55:12.000Z</time>
      </trkpt>
      <trkpt lat="44.25195" lon="7.04713">
        <ele>1880.1999511719</ele>
        <time>2018-05-09T06:55:28.000Z</time>
      </trkpt>
      <trkpt lat="44.25194" lon="7.04713">
        <ele>1880.4000244141</ele>
        <time>2018-05-09T06:55:35.000Z</time>
      </trkpt>
      <trkpt lat="44.25193" lon="7.04714">
        <ele>1880.4000244141</ele>
        <time>2018-05-09T06:55:37.000Z</time>
      </trkpt>
      <trkpt lat="44.25189" lon="7.04725">
        <ele>1880.4000244141</ele>
        <time>2018-05-09T06:55:42.000Z</time>
      </trkpt>
      <trkpt lat="44.25189" lon="7.04726">
        <ele>1880.4000244141</ele>
        <time>2018-05-09T06:55:43.000Z</time>
      </trkpt>
      <trkpt lat="44.25188" lon="7.04726">
        <ele>1880.4000244141</ele>
        <time>2018-05-09T06:55:44.000Z</time>
      </trkpt>
      <trkpt lat="44.25186" lon="7.04722">
        <ele>1881.1999511719</ele>
        <time>2018-05-09T06:55:50.000Z</time>
      </trkpt>
      <trkpt lat="44.25187" lon="7.04719">
        <ele>1882</ele>
        <time>2018-05-09T06:55:52.000Z</time>
      </trkpt>
      <trkpt lat="44.25192" lon="7.0471">
        <ele>1882.4000244141</ele>
        <time>2018-05-09T06:55:53.000Z</time>
      </trkpt>
      <trkpt lat="44.25197" lon="7.04699">
        <ele>1882.8000488281</ele>
        <time>2018-05-09T06:55:56.000Z</time>
      </trkpt>
      <trkpt lat="44.25199" lon="7.04693">
        <ele>1883</ele>
        <time>2018-05-09T06:55:58.000Z</time>
      </trkpt>
      <trkpt lat="44.252" lon="7.04691">
        <ele>1883.4000244141</ele>
        <time>2018-05-09T06:56:00.000Z</time>
      </trkpt>
      <trkpt lat="44.252" lon="7.0469">
        <ele>1883.5999755859</ele>
        <time>2018-05-09T06:56:01.000Z</time>
      </trkpt>
      <trkpt lat="44.25201" lon="7.04684">
        <ele>1883.8000488281</ele>
        <time>2018-05-09T06:56:05.000Z</time>
      </trkpt>
      <trkpt lat="44.25201" lon="7.04682">
        <ele>1884</ele>
        <time>2018-05-09T06:56:06.000Z</time>
      </trkpt>
      <trkpt lat="44.25201" lon="7.04681">
        <ele>1884</ele>
        <time>2018-05-09T06:56:07.000Z</time>
      </trkpt>
      <trkpt lat="44.25201" lon="7.0468">
        <ele>1884.1999511719</ele>
        <time>2018-05-09T06:56:08.000Z</time>
      </trkpt>
      <trkpt lat="44.252" lon="7.04679">
        <ele>1884.4000244141</ele>
        <time>2018-05-09T06:56:10.000Z</time>
      </trkpt>
      <trkpt lat="44.25199" lon="7.04677">
        <ele>1885</ele>
        <time>2018-05-09T06:56:14.000Z</time>
      </trkpt>
      <trkpt lat="44.25199" lon="7.04676">
        <ele>1885.1999511719</ele>
        <time>2018-05-09T06:56:15.000Z</time>
      </trkpt>
      <trkpt lat="44.25198" lon="7.04677">
        <ele>1885.4000244141</ele>
        <time>2018-05-09T06:56:16.000Z</time>
      </trkpt>
      <trkpt lat="44.25196" lon="7.04678">
        <ele>1885.5999755859</ele>
        <time>2018-05-09T06:56:18.000Z</time>
      </trkpt>
      <trkpt lat="44.25196" lon="7.04678">
        <ele>1885.5999755859</ele>
        <time>2018-05-09T06:56:19.000Z</time>
      </trkpt>
      <trkpt lat="44.25193" lon="7.0468">
        <ele>1885.8000488281</ele>
        <time>2018-05-09T06:56:20.000Z</time>
      </trkpt>
      <trkpt lat="44.25193" lon="7.0468">
        <ele>1886</ele>
        <time>2018-05-09T06:56:21.000Z</time>
      </trkpt>
      <trkpt lat="44.25192" lon="7.04679">
        <ele>1886.5999755859</ele>
        <time>2018-05-09T06:56:24.000Z</time>
      </trkpt>
      <trkpt lat="44.25193" lon="7.04678">
        <ele>1886.8000488281</ele>
        <time>2018-05-09T06:56:25.000Z</time>
      </trkpt>
      <trkpt lat="44.25193" lon="7.04676">
        <ele>1887</ele>
        <time>2018-05-09T06:56:26.000Z</time>
      </trkpt>
      <trkpt lat="44.25194" lon="7.04675">
        <ele>1887.1999511719</ele>
        <time>2018-05-09T06:56:27.000Z</time>
      </trkpt>
      <trkpt lat="44.25194" lon="7.04673">
        <ele>1887.4000244141</ele>
        <time>2018-05-09T06:56:28.000Z</time>
      </trkpt>
      <trkpt lat="44.25195" lon="7.04667">
        <ele>1887.8000488281</ele>
        <time>2018-05-09T06:56:32.000Z</time>
      </trkpt>
      <trkpt lat="44.25195" lon="7.04666">
        <ele>1888</ele>
        <time>2018-05-09T06:56:33.000Z</time>
      </trkpt>
      <trkpt lat="44.25195" lon="7.04663">
        <ele>1888.1999511719</ele>
        <time>2018-05-09T06:56:35.000Z</time>
      </trkpt>
      <trkpt lat="44.25192" lon="7.04662">
        <ele>1888.5999755859</ele>
        <time>2018-05-09T06:56:41.000Z</time>
      </trkpt>
      <trkpt lat="44.25194" lon="7.04665">
        <ele>1888.5999755859</ele>
        <time>2018-05-09T06:56:49.000Z</time>
      </trkpt>
      <trkpt lat="44.25194" lon="7.04663">
        <ele>1888.5999755859</ele>
        <time>2018-05-09T06:56:54.000Z</time>
      </trkpt>
      <trkpt lat="44.25193" lon="7.04662">
        <ele>1888.5999755859</ele>
        <time>2018-05-09T06:56:55.000Z</time>
      </trkpt>
      <trkpt lat="44.25192" lon="7.04659">
        <ele>1888.8000488281</ele>
        <time>2018-05-09T06:56:57.000Z</time>
      </trkpt>
      <trkpt lat="44.25192" lon="7.04659">
        <ele>1889</ele>
        <time>2018-05-09T06:56:58.000Z</time>
      </trkpt>
      <trkpt lat="44.25191" lon="7.04659">
        <ele>1889.1999511719</ele>
        <time>2018-05-09T06:56:59.000Z</time>
      </trkpt>
      <trkpt lat="44.25188" lon="7.04658">
        <ele>1889.5999755859</ele>
        <time>2018-05-09T06:57:03.000Z</time>
      </trkpt>
      <trkpt lat="44.25187" lon="7.04658">
        <ele>1890</ele>
        <time>2018-05-09T06:57:05.000Z</time>
      </trkpt>
      <trkpt lat="44.25184" lon="7.04657">
        <ele>1890.5999755859</ele>
        <time>2018-05-09T06:57:09.000Z</time>
      </trkpt>
      <trkpt lat="44.25183" lon="7.04656">
        <ele>1890.8000488281</ele>
        <time>2018-05-09T06:57:11.000Z</time>
      </trkpt>
      <trkpt lat="44.25183" lon="7.04655">
        <ele>1891</ele>
        <time>2018-05-09T06:57:12.000Z</time>
      </trkpt>
      <trkpt lat="44.25178" lon="7.04652">
        <ele>1892.1999511719</ele>
        <time>2018-05-09T06:57:20.000Z</time>
      </trkpt>
      <trkpt lat="44.25177" lon="7.0465">
        <ele>1892.4000244141</ele>
        <time>2018-05-09T06:57:22.000Z</time>
      </trkpt>
      <trkpt lat="44.25175" lon="7.04646">
        <ele>1893.4000244141</ele>
        <time>2018-05-09T06:57:26.000Z</time>
      </trkpt>
      <trkpt lat="44.25173" lon="7.0464">
        <ele>1894.1999511719</ele>
        <time>2018-05-09T06:57:32.000Z</time>
      </trkpt>
      <trkpt lat="44.25172" lon="7.04639">
        <ele>1894.5999755859</ele>
        <time>2018-05-09T06:57:34.000Z</time>
      </trkpt>
      <trkpt lat="44.25171" lon="7.04638">
        <ele>1894.5999755859</ele>
        <time>2018-05-09T06:57:35.000Z</time>
      </trkpt>
      <trkpt lat="44.25171" lon="7.04637">
        <ele>1895</ele>
        <time>2018-05-09T06:57:36.000Z</time>
      </trkpt>
      <trkpt lat="44.2517" lon="7.04635">
        <ele>1895.5999755859</ele>
        <time>2018-05-09T06:57:38.000Z</time>
      </trkpt>
      <trkpt lat="44.25165" lon="7.04633">
        <ele>1896.8000488281</ele>
        <time>2018-05-09T06:57:46.000Z</time>
      </trkpt>
      <trkpt lat="44.25165" lon="7.04633">
        <ele>1897.1999511719</ele>
        <time>2018-05-09T06:57:47.000Z</time>
      </trkpt>
      <trkpt lat="44.25163" lon="7.0463">
        <ele>1898</ele>
        <time>2018-05-09T06:57:52.000Z</time>
      </trkpt>
      <trkpt lat="44.25162" lon="7.0463">
        <ele>1898.4000244141</ele>
        <time>2018-05-09T06:57:56.000Z</time>
      </trkpt>
      <trkpt lat="44.25149" lon="7.04648">
        <ele>1898.4000244141</ele>
        <time>2018-05-09T06:58:13.000Z</time>
      </trkpt>
      <trkpt lat="44.25147" lon="7.04652">
        <ele>1898.4000244141</ele>
        <time>2018-05-09T06:58:15.000Z</time>
      </trkpt>
      <trkpt lat="44.25146" lon="7.04654">
        <ele>1898.4000244141</ele>
        <time>2018-05-09T06:58:16.000Z</time>
      </trkpt>
      <trkpt lat="44.25158" lon="7.04634">
        <ele>1898.4000244141</ele>
        <time>2018-05-09T06:58:23.000Z</time>
      </trkpt>
      <trkpt lat="44.25161" lon="7.04629">
        <ele>1898.4000244141</ele>
        <time>2018-05-09T06:58:25.000Z</time>
      </trkpt>
      <trkpt lat="44.25161" lon="7.0463">
        <ele>1898.4000244141</ele>
        <time>2018-05-09T06:58:26.000Z</time>
      </trkpt>
      <trkpt lat="44.25162" lon="7.04626">
        <ele>1898.4000244141</ele>
        <time>2018-05-09T06:58:28.000Z</time>
      </trkpt>
      <trkpt lat="44.2516" lon="7.0462">
        <ele>1898.4000244141</ele>
        <time>2018-05-09T06:58:30.000Z</time>
      </trkpt>
      <trkpt lat="44.2516" lon="7.04619">
        <ele>1898.4000244141</ele>
        <time>2018-05-09T06:58:31.000Z</time>
      </trkpt>
      <trkpt lat="44.25164" lon="7.04624">
        <ele>1898.4000244141</ele>
        <time>2018-05-09T06:58:37.000Z</time>
      </trkpt>
      <trkpt lat="44.25164" lon="7.04625">
        <ele>1898.4000244141</ele>
        <time>2018-05-09T06:58:38.000Z</time>
      </trkpt>
      <trkpt lat="44.25165" lon="7.04628">
        <ele>1898.1999511719</ele>
        <time>2018-05-09T06:58:41.000Z</time>
      </trkpt>
      <trkpt lat="44.25167" lon="7.04623">
        <ele>1898.1999511719</ele>
        <time>2018-05-09T06:58:43.000Z</time>
      </trkpt>
      <trkpt lat="44.25166" lon="7.04623">
        <ele>1898.4000244141</ele>
        <time>2018-05-09T06:58:46.000Z</time>
      </trkpt>
      <trkpt lat="44.25161" lon="7.0462">
        <ele>1899.1999511719</ele>
        <time>2018-05-09T06:58:52.000Z</time>
      </trkpt>
      <trkpt lat="44.2516" lon="7.04619">
        <ele>1899.5999755859</ele>
        <time>2018-05-09T06:58:53.000Z</time>
      </trkpt>
      <trkpt lat="44.2516" lon="7.04617">
        <ele>1900</ele>
        <time>2018-05-09T06:58:55.000Z</time>
      </trkpt>
      <trkpt lat="44.25159" lon="7.04616">
        <ele>1900.4000244141</ele>
        <time>2018-05-09T06:58:57.000Z</time>
      </trkpt>
      <trkpt lat="44.25158" lon="7.04615">
        <ele>1900.5999755859</ele>
        <time>2018-05-09T06:58:58.000Z</time>
      </trkpt>
      <trkpt lat="44.25154" lon="7.04613">
        <ele>1901.1999511719</ele>
        <time>2018-05-09T06:59:01.000Z</time>
      </trkpt>
      <trkpt lat="44.25152" lon="7.04612">
        <ele>1901.4000244141</ele>
        <time>2018-05-09T06:59:04.000Z</time>
      </trkpt>
      <trkpt lat="44.25151" lon="7.04611">
        <ele>1901.5999755859</ele>
        <time>2018-05-09T06:59:05.000Z</time>
      </trkpt>
      <trkpt lat="44.25149" lon="7.04609">
        <ele>1902</ele>
        <time>2018-05-09T06:59:07.000Z</time>
      </trkpt>
      <trkpt lat="44.25146" lon="7.04607">
        <ele>1902.5999755859</ele>
        <time>2018-05-09T06:59:10.000Z</time>
      </trkpt>
      <trkpt lat="44.25144" lon="7.04606">
        <ele>1902.8000488281</ele>
        <time>2018-05-09T06:59:13.000Z</time>
      </trkpt>
      <trkpt lat="44.25144" lon="7.04606">
        <ele>1903</ele>
        <time>2018-05-09T06:59:14.000Z</time>
      </trkpt>
      <trkpt lat="44.25142" lon="7.04605">
        <ele>1903.4000244141</ele>
        <time>2018-05-09T06:59:16.000Z</time>
      </trkpt>
      <trkpt lat="44.25142" lon="7.04604">
        <ele>1903.5999755859</ele>
        <time>2018-05-09T06:59:17.000Z</time>
      </trkpt>
      <trkpt lat="44.25141" lon="7.04604">
        <ele>1903.8000488281</ele>
        <time>2018-05-09T06:59:18.000Z</time>
      </trkpt>
      <trkpt lat="44.2514" lon="7.04604">
        <ele>1904.1999511719</ele>
        <time>2018-05-09T06:59:20.000Z</time>
      </trkpt>
      <trkpt lat="44.25137" lon="7.04603">
        <ele>1904.8000488281</ele>
        <time>2018-05-09T06:59:23.000Z</time>
      </trkpt>
      <trkpt lat="44.25136" lon="7.04604">
        <ele>1905</ele>
        <time>2018-05-09T06:59:24.000Z</time>
      </trkpt>
      <trkpt lat="44.25133" lon="7.04603">
        <ele>1905.8000488281</ele>
        <time>2018-05-09T06:59:28.000Z</time>
      </trkpt>
      <trkpt lat="44.25128" lon="7.04603">
        <ele>1906.5999755859</ele>
        <time>2018-05-09T06:59:34.000Z</time>
      </trkpt>
      <trkpt lat="44.25127" lon="7.04603">
        <ele>1906.8000488281</ele>
        <time>2018-05-09T06:59:36.000Z</time>
      </trkpt>
      <trkpt lat="44.25124" lon="7.04604">
        <ele>1907.8000488281</ele>
        <time>2018-05-09T06:59:40.000Z</time>
      </trkpt>
      <trkpt lat="44.25124" lon="7.04604">
        <ele>1908</ele>
        <time>2018-05-09T06:59:41.000Z</time>
      </trkpt>
      <trkpt lat="44.2512" lon="7.04606">
        <ele>1909</ele>
        <time>2018-05-09T06:59:45.000Z</time>
      </trkpt>
      <trkpt lat="44.25119" lon="7.04606">
        <ele>1909.1999511719</ele>
        <time>2018-05-09T06:59:46.000Z</time>
      </trkpt>
      <trkpt lat="44.25117" lon="7.04606">
        <ele>1910</ele>
        <time>2018-05-09T06:59:49.000Z</time>
      </trkpt>
      <trkpt lat="44.25116" lon="7.04606">
        <ele>1910.1999511719</ele>
        <time>2018-05-09T06:59:51.000Z</time>
      </trkpt>
      <trkpt lat="44.25115" lon="7.04606">
        <ele>1910.4000244141</ele>
        <time>2018-05-09T06:59:52.000Z</time>
      </trkpt>
      <trkpt lat="44.2511" lon="7.04607">
        <ele>1911.4000244141</ele>
        <time>2018-05-09T07:00:00.000Z</time>
      </trkpt>
      <trkpt lat="44.25107" lon="7.04608">
        <ele>1912.1999511719</ele>
        <time>2018-05-09T07:00:05.000Z</time>
      </trkpt>
      <trkpt lat="44.25105" lon="7.0461">
        <ele>1912.5999755859</ele>
        <time>2018-05-09T07:00:08.000Z</time>
      </trkpt>
      <trkpt lat="44.25105" lon="7.04619">
        <ele>1913.5999755859</ele>
        <time>2018-05-09T07:00:19.000Z</time>
      </trkpt>
      <trkpt lat="44.25103" lon="7.04625">
        <ele>1914.4000244141</ele>
        <time>2018-05-09T07:00:23.000Z</time>
      </trkpt>
      <trkpt lat="44.25104" lon="7.04629">
        <ele>1914.5999755859</ele>
        <time>2018-05-09T07:00:26.000Z</time>
      </trkpt>
      <trkpt lat="44.25106" lon="7.04634">
        <ele>1915.8000488281</ele>
        <time>2018-05-09T07:00:34.000Z</time>
      </trkpt>
      <trkpt lat="44.25105" lon="7.04636">
        <ele>1916.1999511719</ele>
        <time>2018-05-09T07:00:37.000Z</time>
      </trkpt>
      <trkpt lat="44.25102" lon="7.04643">
        <ele>1916.4000244141</ele>
        <time>2018-05-09T07:00:43.000Z</time>
      </trkpt>
      <trkpt lat="44.25101" lon="7.04637">
        <ele>1916.5999755859</ele>
        <time>2018-05-09T07:00:50.000Z</time>
      </trkpt>
      <trkpt lat="44.25101" lon="7.0464">
        <ele>1916.8000488281</ele>
        <time>2018-05-09T07:00:54.000Z</time>
      </trkpt>
      <trkpt lat="44.25101" lon="7.0464">
        <ele>1917.1999511719</ele>
        <time>2018-05-09T07:00:56.000Z</time>
      </trkpt>
      <trkpt lat="44.251" lon="7.04643">
        <ele>1917.4000244141</ele>
        <time>2018-05-09T07:00:59.000Z</time>
      </trkpt>
      <trkpt lat="44.25097" lon="7.04646">
        <ele>1917.5999755859</ele>
        <time>2018-05-09T07:01:02.000Z</time>
      </trkpt>
      <trkpt lat="44.25094" lon="7.0465">
        <ele>1918</ele>
        <time>2018-05-09T07:01:05.000Z</time>
      </trkpt>
      <trkpt lat="44.25096" lon="7.0465">
        <ele>1918.5999755859</ele>
        <time>2018-05-09T07:01:13.000Z</time>
      </trkpt>
      <trkpt lat="44.25095" lon="7.04651">
        <ele>1918.5999755859</ele>
        <time>2018-05-09T07:01:21.000Z</time>
      </trkpt>
      <trkpt lat="44.25097" lon="7.04647">
        <ele>1918.5999755859</ele>
        <time>2018-05-09T07:01:23.000Z</time>
      </trkpt>
      <trkpt lat="44.25097" lon="7.04646">
        <ele>1918.4000244141</ele>
        <time>2018-05-09T07:01:24.000Z</time>
      </trkpt>
      <trkpt lat="44.25097" lon="7.04645">
        <ele>1918.4000244141</ele>
        <time>2018-05-09T07:01:25.000Z</time>
      </trkpt>
      <trkpt lat="44.25096" lon="7.04645">
        <ele>1918.4000244141</ele>
        <time>2018-05-09T07:01:26.000Z</time>
      </trkpt>
      <trkpt lat="44.25093" lon="7.04647">
        <ele>1918.4000244141</ele>
        <time>2018-05-09T07:01:29.000Z</time>
      </trkpt>
      <trkpt lat="44.25086" lon="7.04656">
        <ele>1919</ele>
        <time>2018-05-09T07:01:35.000Z</time>
      </trkpt>
      <trkpt lat="44.25083" lon="7.0466">
        <ele>1919</ele>
        <time>2018-05-09T07:01:37.000Z</time>
      </trkpt>
      <trkpt lat="44.25078" lon="7.04662">
        <ele>1919.4000244141</ele>
        <time>2018-05-09T07:01:41.000Z</time>
      </trkpt>
      <trkpt lat="44.25077" lon="7.04658">
        <ele>1919.8000488281</ele>
        <time>2018-05-09T07:01:44.000Z</time>
      </trkpt>
      <trkpt lat="44.25076" lon="7.04658">
        <ele>1919.8000488281</ele>
        <time>2018-05-09T07:01:45.000Z</time>
      </trkpt>
      <trkpt lat="44.25076" lon="7.04657">
        <ele>1920</ele>
        <time>2018-05-09T07:01:47.000Z</time>
      </trkpt>
      <trkpt lat="44.25074" lon="7.0466">
        <ele>1920.4000244141</ele>
        <time>2018-05-09T07:01:50.000Z</time>
      </trkpt>
      <trkpt lat="44.25073" lon="7.04662">
        <ele>1920.5999755859</ele>
        <time>2018-05-09T07:01:51.000Z</time>
      </trkpt>
      <trkpt lat="44.25072" lon="7.04665">
        <ele>1920.8000488281</ele>
        <time>2018-05-09T07:01:54.000Z</time>
      </trkpt>
      <trkpt lat="44.25069" lon="7.04668">
        <ele>1920.8000488281</ele>
        <time>2018-05-09T07:01:58.000Z</time>
      </trkpt>
      <trkpt lat="44.25067" lon="7.0467">
        <ele>1920.8000488281</ele>
        <time>2018-05-09T07:02:07.000Z</time>
      </trkpt>
      <trkpt lat="44.25064" lon="7.04677">
        <ele>1920.5999755859</ele>
        <time>2018-05-09T07:02:13.000Z</time>
      </trkpt>
      <trkpt lat="44.25067" lon="7.04673">
        <ele>1920.5999755859</ele>
        <time>2018-05-09T07:02:14.000Z</time>
      </trkpt>
      <trkpt lat="44.25067" lon="7.04672">
        <ele>1920.4000244141</ele>
        <time>2018-05-09T07:02:15.000Z</time>
      </trkpt>
      <trkpt lat="44.2507" lon="7.04665">
        <ele>1920.4000244141</ele>
        <time>2018-05-09T07:02:21.000Z</time>
      </trkpt>
      <trkpt lat="44.25069" lon="7.04665">
        <ele>1920.4000244141</ele>
        <time>2018-05-09T07:02:22.000Z</time>
      </trkpt>
      <trkpt lat="44.25069" lon="7.04665">
        <ele>1920.4000244141</ele>
        <time>2018-05-09T07:02:23.000Z</time>
      </trkpt>
      <trkpt lat="44.25067" lon="7.04666">
        <ele>1920.5999755859</ele>
        <time>2018-05-09T07:02:24.000Z</time>
      </trkpt>
      <trkpt lat="44.25066" lon="7.04666">
        <ele>1920.8000488281</ele>
        <time>2018-05-09T07:02:25.000Z</time>
      </trkpt>
      <trkpt lat="44.25065" lon="7.04667">
        <ele>1921.1999511719</ele>
        <time>2018-05-09T07:02:26.000Z</time>
      </trkpt>
      <trkpt lat="44.25064" lon="7.04667">
        <ele>1921.1999511719</ele>
        <time>2018-05-09T07:02:27.000Z</time>
      </trkpt>
      <trkpt lat="44.25063" lon="7.04667">
        <ele>1921.4000244141</ele>
        <time>2018-05-09T07:02:28.000Z</time>
      </trkpt>
      <trkpt lat="44.25061" lon="7.04668">
        <ele>1921.8000488281</ele>
        <time>2018-05-09T07:02:29.000Z</time>
      </trkpt>
      <trkpt lat="44.25061" lon="7.04668">
        <ele>1922</ele>
        <time>2018-05-09T07:02:30.000Z</time>
      </trkpt>
      <trkpt lat="44.25061" lon="7.04667">
        <ele>1922.1999511719</ele>
        <time>2018-05-09T07:02:31.000Z</time>
      </trkpt>
      <trkpt lat="44.25062" lon="7.04666">
        <ele>1922.1999511719</ele>
        <time>2018-05-09T07:02:32.000Z</time>
      </trkpt>
      <trkpt lat="44.25063" lon="7.04663">
        <ele>1922.4000244141</ele>
        <time>2018-05-09T07:02:34.000Z</time>
      </trkpt>
      <trkpt lat="44.25063" lon="7.04661">
        <ele>1922.4000244141</ele>
        <time>2018-05-09T07:02:36.000Z</time>
      </trkpt>
      <trkpt lat="44.25066" lon="7.04652">
        <ele>1922.4000244141</ele>
        <time>2018-05-09T07:02:45.000Z</time>
      </trkpt>
      <trkpt lat="44.25066" lon="7.04651">
        <ele>1922</ele>
        <time>2018-05-09T07:02:52.000Z</time>
      </trkpt>
      <trkpt lat="44.25066" lon="7.04651">
        <ele>1922</ele>
        <time>2018-05-09T07:02:53.000Z</time>
      </trkpt>
      <trkpt lat="44.25066" lon="7.0465">
        <ele>1922</ele>
        <time>2018-05-09T07:02:54.000Z</time>
      </trkpt>
      <trkpt lat="44.25064" lon="7.04653">
        <ele>1922</ele>
        <time>2018-05-09T07:02:58.000Z</time>
      </trkpt>
      <trkpt lat="44.25063" lon="7.04654">
        <ele>1922</ele>
        <time>2018-05-09T07:02:59.000Z</time>
      </trkpt>
      <trkpt lat="44.25059" lon="7.04661">
        <ele>1922</ele>
        <time>2018-05-09T07:03:03.000Z</time>
      </trkpt>
      <trkpt lat="44.25059" lon="7.04662">
        <ele>1922</ele>
        <time>2018-05-09T07:03:04.000Z</time>
      </trkpt>
      <trkpt lat="44.25058" lon="7.04663">
        <ele>1922</ele>
        <time>2018-05-09T07:03:05.000Z</time>
      </trkpt>
      <trkpt lat="44.2506" lon="7.04657">
        <ele>1922.1999511719</ele>
        <time>2018-05-09T07:03:11.000Z</time>
      </trkpt>
      <trkpt lat="44.2506" lon="7.04658">
        <ele>1922.1999511719</ele>
        <time>2018-05-09T07:03:13.000Z</time>
      </trkpt>
      <trkpt lat="44.25059" lon="7.04658">
        <ele>1922.1999511719</ele>
        <time>2018-05-09T07:03:14.000Z</time>
      </trkpt>
      <trkpt lat="44.25056" lon="7.04662">
        <ele>1923.1999511719</ele>
        <time>2018-05-09T07:03:19.000Z</time>
      </trkpt>
      <trkpt lat="44.25056" lon="7.04661">
        <ele>1923.4000244141</ele>
        <time>2018-05-09T07:03:21.000Z</time>
      </trkpt>
      <trkpt lat="44.2506" lon="7.04656">
        <ele>1923.4000244141</ele>
        <time>2018-05-09T07:03:34.000Z</time>
      </trkpt>
      <trkpt lat="44.2506" lon="7.04656">
        <ele>1923.4000244141</ele>
        <time>2018-05-09T07:03:36.000Z</time>
      </trkpt>
      <trkpt lat="44.25059" lon="7.04656">
        <ele>1923.4000244141</ele>
        <time>2018-05-09T07:03:38.000Z</time>
      </trkpt>
      <trkpt lat="44.25059" lon="7.04656">
        <ele>1923.4000244141</ele>
        <time>2018-05-09T07:03:39.000Z</time>
      </trkpt>
      <trkpt lat="44.25059" lon="7.04656">
        <ele>1923.1999511719</ele>
        <time>2018-05-09T07:03:42.000Z</time>
      </trkpt>
      <trkpt lat="44.25057" lon="7.04661">
        <ele>1923.4000244141</ele>
        <time>2018-05-09T07:03:51.000Z</time>
      </trkpt>
      <trkpt lat="44.25055" lon="7.04664">
        <ele>1923.4000244141</ele>
        <time>2018-05-09T07:03:54.000Z</time>
      </trkpt>
      <trkpt lat="44.25052" lon="7.04668">
        <ele>1924</ele>
        <time>2018-05-09T07:03:57.000Z</time>
      </trkpt>
      <trkpt lat="44.25049" lon="7.0467">
        <ele>1924.4000244141</ele>
        <time>2018-05-09T07:04:00.000Z</time>
      </trkpt>
      <trkpt lat="44.25049" lon="7.04671">
        <ele>1924.5999755859</ele>
        <time>2018-05-09T07:04:01.000Z</time>
      </trkpt>
      <trkpt lat="44.25048" lon="7.04671">
        <ele>1924.8000488281</ele>
        <time>2018-05-09T07:04:02.000Z</time>
      </trkpt>
      <trkpt lat="44.25049" lon="7.04676">
        <ele>1925.5999755859</ele>
        <time>2018-05-09T07:04:07.000Z</time>
      </trkpt>
      <trkpt lat="44.25045" lon="7.0468">
        <ele>1926.4000244141</ele>
        <time>2018-05-09T07:04:13.000Z</time>
      </trkpt>
      <trkpt lat="44.25045" lon="7.0468">
        <ele>1926.8000488281</ele>
        <time>2018-05-09T07:04:14.000Z</time>
      </trkpt>
      <trkpt lat="44.25046" lon="7.04679">
        <ele>1927.4000244141</ele>
        <time>2018-05-09T07:04:17.000Z</time>
      </trkpt>
      <trkpt lat="44.25048" lon="7.0468">
        <ele>1927.8000488281</ele>
        <time>2018-05-09T07:04:21.000Z</time>
      </trkpt>
      <trkpt lat="44.25046" lon="7.04684">
        <ele>1928.8000488281</ele>
        <time>2018-05-09T07:04:27.000Z</time>
      </trkpt>
      <trkpt lat="44.25046" lon="7.04685">
        <ele>1928.8000488281</ele>
        <time>2018-05-09T07:04:28.000Z</time>
      </trkpt>
      <trkpt lat="44.25044" lon="7.0469">
        <ele>1929.8000488281</ele>
        <time>2018-05-09T07:04:34.000Z</time>
      </trkpt>
      <trkpt lat="44.25046" lon="7.0469">
        <ele>1930</ele>
        <time>2018-05-09T07:04:36.000Z</time>
      </trkpt>
      <trkpt lat="44.25046" lon="7.04692">
        <ele>1930.4000244141</ele>
        <time>2018-05-09T07:04:39.000Z</time>
      </trkpt>
      <trkpt lat="44.25044" lon="7.04695">
        <ele>1930.4000244141</ele>
        <time>2018-05-09T07:04:41.000Z</time>
      </trkpt>
      <trkpt lat="44.25042" lon="7.04698">
        <ele>1930.8000488281</ele>
        <time>2018-05-09T07:04:47.000Z</time>
      </trkpt>
      <trkpt lat="44.25042" lon="7.04698">
        <ele>1930.8000488281</ele>
        <time>2018-05-09T07:04:48.000Z</time>
      </trkpt>
      <trkpt lat="44.25019" lon="7.04699">
        <ele>1931.5999755859</ele>
        <time>2018-05-09T07:04:53.000Z</time>
      </trkpt>
      <trkpt lat="44.25" lon="7.04697">
        <ele>1932</ele>
        <time>2018-05-09T07:04:56.000Z</time>
      </trkpt>
      <trkpt lat="44.25001" lon="7.04698">
        <ele>1933.1999511719</ele>
        <time>2018-05-09T07:05:04.000Z</time>
      </trkpt>
      <trkpt lat="44.25" lon="7.04702">
        <ele>1934.1999511719</ele>
        <time>2018-05-09T07:05:11.000Z</time>
      </trkpt>
      <trkpt lat="44.24996" lon="7.04704">
        <ele>1935.1999511719</ele>
        <time>2018-05-09T07:05:19.000Z</time>
      </trkpt>
      <trkpt lat="44.24991" lon="7.0471">
        <ele>1936.1999511719</ele>
        <time>2018-05-09T07:05:25.000Z</time>
      </trkpt>
      <trkpt lat="44.24988" lon="7.04713">
        <ele>1937.1999511719</ele>
        <time>2018-05-09T07:05:30.000Z</time>
      </trkpt>
      <trkpt lat="44.24988" lon="7.04713">
        <ele>1937.4000244141</ele>
        <time>2018-05-09T07:05:32.000Z</time>
      </trkpt>
      <trkpt lat="44.24984" lon="7.04713">
        <ele>1938.5999755859</ele>
        <time>2018-05-09T07:05:38.000Z</time>
      </trkpt>
      <trkpt lat="44.24979" lon="7.04716">
        <ele>1939.4000244141</ele>
        <time>2018-05-09T07:05:42.000Z</time>
      </trkpt>
      <trkpt lat="44.24977" lon="7.04716">
        <ele>1939.8000488281</ele>
        <time>2018-05-09T07:05:44.000Z</time>
      </trkpt>
      <trkpt lat="44.24971" lon="7.04717">
        <ele>1940.5999755859</ele>
        <time>2018-05-09T07:05:49.000Z</time>
      </trkpt>
      <trkpt lat="44.24969" lon="7.04718">
        <ele>1941</ele>
        <time>2018-05-09T07:05:51.000Z</time>
      </trkpt>
      <trkpt lat="44.24966" lon="7.04715">
        <ele>1942</ele>
        <time>2018-05-09T07:05:55.000Z</time>
      </trkpt>
      <trkpt lat="44.24958" lon="7.04718">
        <ele>1943.1999511719</ele>
        <time>2018-05-09T07:06:01.000Z</time>
      </trkpt>
      <trkpt lat="44.24953" lon="7.0472">
        <ele>1943.8000488281</ele>
        <time>2018-05-09T07:06:06.000Z</time>
      </trkpt>
      <trkpt lat="44.24951" lon="7.04719">
        <ele>1944</ele>
        <time>2018-05-09T07:06:08.000Z</time>
      </trkpt>
      <trkpt lat="44.2495" lon="7.04718">
        <ele>1944.1999511719</ele>
        <time>2018-05-09T07:06:09.000Z</time>
      </trkpt>
      <trkpt lat="44.24949" lon="7.04718">
        <ele>1944.5999755859</ele>
        <time>2018-05-09T07:06:11.000Z</time>
      </trkpt>
      <trkpt lat="44.24947" lon="7.04719">
        <ele>1945.1999511719</ele>
        <time>2018-05-09T07:06:15.000Z</time>
      </trkpt>
      <trkpt lat="44.24946" lon="7.04718">
        <ele>1945.5999755859</ele>
        <time>2018-05-09T07:06:16.000Z</time>
      </trkpt>
      <trkpt lat="44.24944" lon="7.04717">
        <ele>1945.8000488281</ele>
        <time>2018-05-09T07:06:18.000Z</time>
      </trkpt>
      <trkpt lat="44.24944" lon="7.04717">
        <ele>1946.4000244141</ele>
        <time>2018-05-09T07:06:34.000Z</time>
      </trkpt>
      <trkpt lat="44.24942" lon="7.04716">
        <ele>1946.4000244141</ele>
        <time>2018-05-09T07:06:40.000Z</time>
      </trkpt>
      <trkpt lat="44.2494" lon="7.0471">
        <ele>1946.4000244141</ele>
        <time>2018-05-09T07:06:43.000Z</time>
      </trkpt>
      <trkpt lat="44.2494" lon="7.04708">
        <ele>1946.4000244141</ele>
        <time>2018-05-09T07:06:44.000Z</time>
      </trkpt>
      <trkpt lat="44.24937" lon="7.04711">
        <ele>1946.4000244141</ele>
        <time>2018-05-09T07:06:46.000Z</time>
      </trkpt>
      <trkpt lat="44.24936" lon="7.04711">
        <ele>1946.4000244141</ele>
        <time>2018-05-09T07:06:47.000Z</time>
      </trkpt>
      <trkpt lat="44.24939" lon="7.04719">
        <ele>1946.4000244141</ele>
        <time>2018-05-09T07:06:52.000Z</time>
      </trkpt>
      <trkpt lat="44.24938" lon="7.04718">
        <ele>1946.4000244141</ele>
        <time>2018-05-09T07:06:53.000Z</time>
      </trkpt>
      <trkpt lat="44.24936" lon="7.04718">
        <ele>1946.5999755859</ele>
        <time>2018-05-09T07:06:55.000Z</time>
      </trkpt>
      <trkpt lat="44.24934" lon="7.04718">
        <ele>1947</ele>
        <time>2018-05-09T07:06:57.000Z</time>
      </trkpt>
      <trkpt lat="44.24932" lon="7.04718">
        <ele>1947.1999511719</ele>
        <time>2018-05-09T07:06:59.000Z</time>
      </trkpt>
      <trkpt lat="44.24926" lon="7.04718">
        <ele>1947.5999755859</ele>
        <time>2018-05-09T07:07:03.000Z</time>
      </trkpt>
      <trkpt lat="44.24925" lon="7.04719">
        <ele>1947.5999755859</ele>
        <time>2018-05-09T07:07:04.000Z</time>
      </trkpt>
      <trkpt lat="44.24923" lon="7.04719">
        <ele>1948</ele>
        <time>2018-05-09T07:07:06.000Z</time>
      </trkpt>
      <trkpt lat="44.24919" lon="7.04721">
        <ele>1949.1999511719</ele>
        <time>2018-05-09T07:07:09.000Z</time>
      </trkpt>
      <trkpt lat="44.24916" lon="7.04723">
        <ele>1949.1999511719</ele>
        <time>2018-05-09T07:07:11.000Z</time>
      </trkpt>
      <trkpt lat="44.24912" lon="7.04727">
        <ele>1949.4000244141</ele>
        <time>2018-05-09T07:07:13.000Z</time>
      </trkpt>
      <trkpt lat="44.24898" lon="7.04734">
        <ele>1948.8000488281</ele>
        <time>2018-05-09T07:07:25.000Z</time>
      </trkpt>
      <trkpt lat="44.24897" lon="7.04734">
        <ele>1948.8000488281</ele>
        <time>2018-05-09T07:07:28.000Z</time>
      </trkpt>
      <trkpt lat="44.24897" lon="7.04734">
        <ele>1948.8000488281</ele>
        <time>2018-05-09T07:07:29.000Z</time>
      </trkpt>
      <trkpt lat="44.24898" lon="7.04734">
        <ele>1948.8000488281</ele>
        <time>2018-05-09T07:07:31.000Z</time>
      </trkpt>
      <trkpt lat="44.24903" lon="7.04731">
        <ele>1948.8000488281</ele>
        <time>2018-05-09T07:07:37.000Z</time>
      </trkpt>
      <trkpt lat="44.249" lon="7.04734">
        <ele>1948.8000488281</ele>
        <time>2018-05-09T07:07:48.000Z</time>
      </trkpt>
      <trkpt lat="44.24899" lon="7.04735">
        <ele>1948.5999755859</ele>
        <time>2018-05-09T07:07:53.000Z</time>
      </trkpt>
      <trkpt lat="44.24898" lon="7.04737">
        <ele>1948.5999755859</ele>
        <time>2018-05-09T07:07:55.000Z</time>
      </trkpt>
      <trkpt lat="44.24894" lon="7.04738">
        <ele>1948.5999755859</ele>
        <time>2018-05-09T07:07:59.000Z</time>
      </trkpt>
      <trkpt lat="44.24888" lon="7.0474">
        <ele>1949.1999511719</ele>
        <time>2018-05-09T07:08:04.000Z</time>
      </trkpt>
      <trkpt lat="44.24886" lon="7.04741">
        <ele>1949.1999511719</ele>
        <time>2018-05-09T07:08:06.000Z</time>
      </trkpt>
      <trkpt lat="44.24873" lon="7.04744">
        <ele>1949.5999755859</ele>
        <time>2018-05-09T07:08:16.000Z</time>
      </trkpt>
      <trkpt lat="44.24867" lon="7.04744">
        <ele>1949.5999755859</ele>
        <time>2018-05-09T07:08:20.000Z</time>
      </trkpt>
      <trkpt lat="44.24859" lon="7.04746">
        <ele>1950</ele>
        <time>2018-05-09T07:08:28.000Z</time>
      </trkpt>
      <trkpt lat="44.24858" lon="7.04746">
        <ele>1950</ele>
        <time>2018-05-09T07:08:30.000Z</time>
      </trkpt>
      <trkpt lat="44.24858" lon="7.04745">
        <ele>1949.8000488281</ele>
        <time>2018-05-09T07:08:34.000Z</time>
      </trkpt>
      <trkpt lat="44.24857" lon="7.04745">
        <ele>1949.8000488281</ele>
        <time>2018-05-09T07:08:36.000Z</time>
      </trkpt>
      <trkpt lat="44.24855" lon="7.04745">
        <ele>1949.8000488281</ele>
        <time>2018-05-09T07:08:39.000Z</time>
      </trkpt>
      <trkpt lat="44.24849" lon="7.04741">
        <ele>1949.8000488281</ele>
        <time>2018-05-09T07:08:44.000Z</time>
      </trkpt>
      <trkpt lat="44.24849" lon="7.0474">
        <ele>1949.5999755859</ele>
        <time>2018-05-09T07:08:46.000Z</time>
      </trkpt>
      <trkpt lat="44.2485" lon="7.04739">
        <ele>1949.5999755859</ele>
        <time>2018-05-09T07:08:49.000Z</time>
      </trkpt>
      <trkpt lat="44.24852" lon="7.04737">
        <ele>1949.5999755859</ele>
        <time>2018-05-09T07:08:53.000Z</time>
      </trkpt>
      <trkpt lat="44.24852" lon="7.04739">
        <ele>1949.4000244141</ele>
        <time>2018-05-09T07:08:57.000Z</time>
      </trkpt>
      <trkpt lat="44.24829" lon="7.04728">
        <ele>1949.4000244141</ele>
        <time>2018-05-09T07:09:02.000Z</time>
      </trkpt>
      <trkpt lat="44.24832" lon="7.04733">
        <ele>1949.4000244141</ele>
        <time>2018-05-09T07:09:04.000Z</time>
      </trkpt>
      <trkpt lat="44.24837" lon="7.04737">
        <ele>1949.4000244141</ele>
        <time>2018-05-09T07:09:05.000Z</time>
      </trkpt>
      <trkpt lat="44.24843" lon="7.04739">
        <ele>1949.4000244141</ele>
        <time>2018-05-09T07:09:08.000Z</time>
      </trkpt>
      <trkpt lat="44.24845" lon="7.04739">
        <ele>1949.4000244141</ele>
        <time>2018-05-09T07:09:10.000Z</time>
      </trkpt>
      <trkpt lat="44.24847" lon="7.04742">
        <ele>1949.4000244141</ele>
        <time>2018-05-09T07:09:16.000Z</time>
      </trkpt>
      <trkpt lat="44.24846" lon="7.04744">
        <ele>1949.1999511719</ele>
        <time>2018-05-09T07:09:18.000Z</time>
      </trkpt>
      <trkpt lat="44.24846" lon="7.04745">
        <ele>1949.1999511719</ele>
        <time>2018-05-09T07:09:19.000Z</time>
      </trkpt>
      <trkpt lat="44.24845" lon="7.04745">
        <ele>1949.1999511719</ele>
        <time>2018-05-09T07:09:20.000Z</time>
      </trkpt>
      <trkpt lat="44.24844" lon="7.04746">
        <ele>1949.1999511719</ele>
        <time>2018-05-09T07:09:21.000Z</time>
      </trkpt>
      <trkpt lat="44.24843" lon="7.04746">
        <ele>1949.4000244141</ele>
        <time>2018-05-09T07:09:24.000Z</time>
      </trkpt>
      <trkpt lat="44.24843" lon="7.04746">
        <ele>1949.4000244141</ele>
        <time>2018-05-09T07:09:25.000Z</time>
      </trkpt>
      <trkpt lat="44.24843" lon="7.04745">
        <ele>1949.4000244141</ele>
        <time>2018-05-09T07:09:26.000Z</time>
      </trkpt>
      <trkpt lat="44.24844" lon="7.04745">
        <ele>1949.4000244141</ele>
        <time>2018-05-09T07:09:27.000Z</time>
      </trkpt>
      <trkpt lat="44.24844" lon="7.04744">
        <ele>1949.4000244141</ele>
        <time>2018-05-09T07:09:28.000Z</time>
      </trkpt>
      <trkpt lat="44.24846" lon="7.04741">
        <ele>1949.4000244141</ele>
        <time>2018-05-09T07:09:29.000Z</time>
      </trkpt>
      <trkpt lat="44.24847" lon="7.04735">
        <ele>1949.5999755859</ele>
        <time>2018-05-09T07:09:34.000Z</time>
      </trkpt>
      <trkpt lat="44.24849" lon="7.04731">
        <ele>1949.5999755859</ele>
        <time>2018-05-09T07:09:36.000Z</time>
      </trkpt>
      <trkpt lat="44.24852" lon="7.04725">
        <ele>1949.5999755859</ele>
        <time>2018-05-09T07:09:38.000Z</time>
      </trkpt>
      <trkpt lat="44.24853" lon="7.04726">
        <ele>1949.4000244141</ele>
        <time>2018-05-09T07:09:41.000Z</time>
      </trkpt>
      <trkpt lat="44.24858" lon="7.0472">
        <ele>1949.4000244141</ele>
        <time>2018-05-09T07:09:46.000Z</time>
      </trkpt>
      <trkpt lat="44.24861" lon="7.04726">
        <ele>1949.5999755859</ele>
        <time>2018-05-09T07:09:49.000Z</time>
      </trkpt>
      <trkpt lat="44.24858" lon="7.04733">
        <ele>1949.4000244141</ele>
        <time>2018-05-09T07:09:51.000Z</time>
      </trkpt>
      <trkpt lat="44.24857" lon="7.04735">
        <ele>1949.4000244141</ele>
        <time>2018-05-09T07:09:52.000Z</time>
      </trkpt>
      <trkpt lat="44.24856" lon="7.04737">
        <ele>1949.4000244141</ele>
        <time>2018-05-09T07:09:54.000Z</time>
      </trkpt>
      <trkpt lat="44.24855" lon="7.04738">
        <ele>1949.1999511719</ele>
        <time>2018-05-09T07:09:57.000Z</time>
      </trkpt>
      <trkpt lat="44.24853" lon="7.04738">
        <ele>1949.4000244141</ele>
        <time>2018-05-09T07:09:59.000Z</time>
      </trkpt>
      <trkpt lat="44.24853" lon="7.04738">
        <ele>1949.4000244141</ele>
        <time>2018-05-09T07:10:00.000Z</time>
      </trkpt>
      <trkpt lat="44.24853" lon="7.04738">
        <ele>1949.4000244141</ele>
        <time>2018-05-09T07:10:01.000Z</time>
      </trkpt>
      <trkpt lat="44.24852" lon="7.04739">
        <ele>1949.4000244141</ele>
        <time>2018-05-09T07:10:02.000Z</time>
      </trkpt>
      <trkpt lat="44.2485" lon="7.04741">
        <ele>1949.1999511719</ele>
        <time>2018-05-09T07:10:05.000Z</time>
      </trkpt>
      <trkpt lat="44.2485" lon="7.04741">
        <ele>1949.1999511719</ele>
        <time>2018-05-09T07:10:06.000Z</time>
      </trkpt>
      <trkpt lat="44.2485" lon="7.0474">
        <ele>1949.1999511719</ele>
        <time>2018-05-09T07:10:09.000Z</time>
      </trkpt>
      <trkpt lat="44.24851" lon="7.04738">
        <ele>1949</ele>
        <time>2018-05-09T07:10:14.000Z</time>
      </trkpt>
      <trkpt lat="44.24852" lon="7.04738">
        <ele>1949</ele>
        <time>2018-05-09T07:10:16.000Z</time>
      </trkpt>
      <trkpt lat="44.24852" lon="7.04738">
        <ele>1949</ele>
        <time>2018-05-09T07:10:17.000Z</time>
      </trkpt>
      <trkpt lat="44.24855" lon="7.04736">
        <ele>1949</ele>
        <time>2018-05-09T07:10:21.000Z</time>
      </trkpt>
      <trkpt lat="44.24855" lon="7.04736">
        <ele>1949</ele>
        <time>2018-05-09T07:10:22.000Z</time>
      </trkpt>
      <trkpt lat="44.24856" lon="7.04736">
        <ele>1949</ele>
        <time>2018-05-09T07:10:23.000Z</time>
      </trkpt>
      <trkpt lat="44.24856" lon="7.04735">
        <ele>1949</ele>
        <time>2018-05-09T07:10:24.000Z</time>
      </trkpt>
      <trkpt lat="44.24856" lon="7.04736">
        <ele>1948.8000488281</ele>
        <time>2018-05-09T07:10:25.000Z</time>
      </trkpt>
      <trkpt lat="44.24857" lon="7.04736">
        <ele>1948.8000488281</ele>
        <time>2018-05-09T07:10:27.000Z</time>
      </trkpt>
      <trkpt lat="44.24857" lon="7.04736">
        <ele>1948.8000488281</ele>
        <time>2018-05-09T07:10:29.000Z</time>
      </trkpt>
      <trkpt lat="44.2486" lon="7.04735">
        <ele>1948.8000488281</ele>
        <time>2018-05-09T07:10:31.000Z</time>
      </trkpt>
      <trkpt lat="44.2486" lon="7.04734">
        <ele>1948.8000488281</ele>
        <time>2018-05-09T07:10:33.000Z</time>
      </trkpt>
      <trkpt lat="44.24856" lon="7.04736">
        <ele>1948.8000488281</ele>
        <time>2018-05-09T07:10:34.000Z</time>
      </trkpt>
      <trkpt lat="44.24852" lon="7.04738">
        <ele>1948.5999755859</ele>
        <time>2018-05-09T07:10:36.000Z</time>
      </trkpt>
      <trkpt lat="44.24852" lon="7.04739">
        <ele>1948.5999755859</ele>
        <time>2018-05-09T07:10:37.000Z</time>
      </trkpt>
      <trkpt lat="44.24853" lon="7.0474">
        <ele>1948.5999755859</ele>
        <time>2018-05-09T07:10:40.000Z</time>
      </trkpt>
      <trkpt lat="44.24853" lon="7.04741">
        <ele>1948.5999755859</ele>
        <time>2018-05-09T07:10:42.000Z</time>
      </trkpt>
      <trkpt lat="44.24853" lon="7.04741">
        <ele>1948.5999755859</ele>
        <time>2018-05-09T07:10:43.000Z</time>
      </trkpt>
      <trkpt lat="44.2485" lon="7.04743">
        <ele>1948.8000488281</ele>
        <time>2018-05-09T07:10:45.000Z</time>
      </trkpt>
      <trkpt lat="44.24845" lon="7.04746">
        <ele>1949</ele>
        <time>2018-05-09T07:10:54.000Z</time>
      </trkpt>
      <trkpt lat="44.24845" lon="7.04745">
        <ele>1949</ele>
        <time>2018-05-09T07:10:56.000Z</time>
      </trkpt>
      <trkpt lat="44.24846" lon="7.04745">
        <ele>1949</ele>
        <time>2018-05-09T07:10:57.000Z</time>
      </trkpt>
      <trkpt lat="44.24847" lon="7.04743">
        <ele>1949</ele>
        <time>2018-05-09T07:11:01.000Z</time>
      </trkpt>
      <trkpt lat="44.24847" lon="7.04742">
        <ele>1949</ele>
        <time>2018-05-09T07:11:02.000Z</time>
      </trkpt>
      <trkpt lat="44.24847" lon="7.04742">
        <ele>1949</ele>
        <time>2018-05-09T07:11:03.000Z</time>
      </trkpt>
      <trkpt lat="44.24848" lon="7.04742">
        <ele>1949</ele>
        <time>2018-05-09T07:11:04.000Z</time>
      </trkpt>
      <trkpt lat="44.24846" lon="7.04746">
        <ele>1948.5999755859</ele>
        <time>2018-05-09T07:11:13.000Z</time>
      </trkpt>
      <trkpt lat="44.24847" lon="7.04742">
        <ele>1949</ele>
        <time>2018-05-09T07:11:19.000Z</time>
      </trkpt>
      <trkpt lat="44.24849" lon="7.04739">
        <ele>1948.8000488281</ele>
        <time>2018-05-09T07:11:25.000Z</time>
      </trkpt>
      <trkpt lat="44.24847" lon="7.04738">
        <ele>1948.5999755859</ele>
        <time>2018-05-09T07:11:30.000Z</time>
      </trkpt>
      <trkpt lat="44.24848" lon="7.04738">
        <ele>1948.5999755859</ele>
        <time>2018-05-09T07:11:31.000Z</time>
      </trkpt>
      <trkpt lat="44.24849" lon="7.04739">
        <ele>1948.8000488281</ele>
        <time>2018-05-09T07:11:35.000Z</time>
      </trkpt>
      <trkpt lat="44.24849" lon="7.04739">
        <ele>1948.8000488281</ele>
        <time>2018-05-09T07:11:37.000Z</time>
      </trkpt>
      <trkpt lat="44.24849" lon="7.04739">
        <ele>1948.8000488281</ele>
        <time>2018-05-09T07:11:43.000Z</time>
      </trkpt>
      <trkpt lat="44.24851" lon="7.0474">
        <ele>1948.5999755859</ele>
        <time>2018-05-09T07:11:47.000Z</time>
      </trkpt>
      <trkpt lat="44.24852" lon="7.04739">
        <ele>1948.4000244141</ele>
        <time>2018-05-09T07:11:51.000Z</time>
      </trkpt>
      <trkpt lat="44.24853" lon="7.04739">
        <ele>1948.4000244141</ele>
        <time>2018-05-09T07:11:52.000Z</time>
      </trkpt>
      <trkpt lat="44.24853" lon="7.04739">
        <ele>1948.4000244141</ele>
        <time>2018-05-09T07:11:53.000Z</time>
      </trkpt>
      <trkpt lat="44.24854" lon="7.04737">
        <ele>1948.4000244141</ele>
        <time>2018-05-09T07:11:55.000Z</time>
      </trkpt>
      <trkpt lat="44.24855" lon="7.04737">
        <ele>1948.4000244141</ele>
        <time>2018-05-09T07:11:56.000Z</time>
      </trkpt>
      <trkpt lat="44.24855" lon="7.04737">
        <ele>1948.4000244141</ele>
        <time>2018-05-09T07:11:57.000Z</time>
      </trkpt>
      <trkpt lat="44.24855" lon="7.04737">
        <ele>1948.4000244141</ele>
        <time>2018-05-09T07:11:58.000Z</time>
      </trkpt>
      <trkpt lat="44.24855" lon="7.04737">
        <ele>1948.4000244141</ele>
        <time>2018-05-09T07:11:59.000Z</time>
      </trkpt>
      <trkpt lat="44.24855" lon="7.04737">
        <ele>1948.4000244141</ele>
        <time>2018-05-09T07:12:00.000Z</time>
      </trkpt>
      <trkpt lat="44.24845" lon="7.04745">
        <ele>1948.4000244141</ele>
        <time>2018-05-09T07:12:17.000Z</time>
      </trkpt>
      <trkpt lat="44.24844" lon="7.04746">
        <ele>1948.4000244141</ele>
        <time>2018-05-09T07:12:19.000Z</time>
      </trkpt>
      <trkpt lat="44.24844" lon="7.04747">
        <ele>1948.4000244141</ele>
        <time>2018-05-09T07:12:20.000Z</time>
      </trkpt>
      <trkpt lat="44.24843" lon="7.04748">
        <ele>1948.4000244141</ele>
        <time>2018-05-09T07:12:21.000Z</time>
      </trkpt>
      <trkpt lat="44.24843" lon="7.04748">
        <ele>1948.4000244141</ele>
        <time>2018-05-09T07:12:22.000Z</time>
      </trkpt>
      <trkpt lat="44.24841" lon="7.04748">
        <ele>1948.1999511719</ele>
        <time>2018-05-09T07:12:23.000Z</time>
      </trkpt>
      <trkpt lat="44.24841" lon="7.04747">
        <ele>1948.4000244141</ele>
        <time>2018-05-09T07:12:24.000Z</time>
      </trkpt>
      <trkpt lat="44.24839" lon="7.04746">
        <ele>1948.4000244141</ele>
        <time>2018-05-09T07:12:28.000Z</time>
      </trkpt>
      <trkpt lat="44.24849" lon="7.04736">
        <ele>1948.4000244141</ele>
        <time>2018-05-09T07:12:32.000Z</time>
      </trkpt>
      <trkpt lat="44.24849" lon="7.04736">
        <ele>1948.1999511719</ele>
        <time>2018-05-09T07:12:33.000Z</time>
      </trkpt>
      <trkpt lat="44.24851" lon="7.04736">
        <ele>1948.1999511719</ele>
        <time>2018-05-09T07:12:39.000Z</time>
      </trkpt>
      <trkpt lat="44.24852" lon="7.04737">
        <ele>1948.4000244141</ele>
        <time>2018-05-09T07:12:41.000Z</time>
      </trkpt>
      <trkpt lat="44.24851" lon="7.04738">
        <ele>1948.4000244141</ele>
        <time>2018-05-09T07:12:44.000Z</time>
      </trkpt>
      <trkpt lat="44.24851" lon="7.04739">
        <ele>1948.4000244141</ele>
        <time>2018-05-09T07:12:45.000Z</time>
      </trkpt>
      <trkpt lat="44.24852" lon="7.04742">
        <ele>1948.1999511719</ele>
        <time>2018-05-09T07:12:51.000Z</time>
      </trkpt>
      <trkpt lat="44.24851" lon="7.04743">
        <ele>1948.1999511719</ele>
        <time>2018-05-09T07:12:54.000Z</time>
      </trkpt>
      <trkpt lat="44.24851" lon="7.04744">
        <ele>1948.1999511719</ele>
        <time>2018-05-09T07:12:56.000Z</time>
      </trkpt>
      <trkpt lat="44.24851" lon="7.04744">
        <ele>1948.1999511719</ele>
        <time>2018-05-09T07:12:57.000Z</time>
      </trkpt>
      <trkpt lat="44.24851" lon="7.04744">
        <ele>1948</ele>
        <time>2018-05-09T07:12:59.000Z</time>
      </trkpt>
      <trkpt lat="44.24851" lon="7.04744">
        <ele>1948</ele>
        <time>2018-05-09T07:13:00.000Z</time>
      </trkpt>
      <trkpt lat="44.24851" lon="7.04744">
        <ele>1948</ele>
        <time>2018-05-09T07:13:03.000Z</time>
      </trkpt>
      <trkpt lat="44.24852" lon="7.04741">
        <ele>1948.1999511719</ele>
        <time>2018-05-09T07:13:15.000Z</time>
      </trkpt>
      <trkpt lat="44.24851" lon="7.04741">
        <ele>1948.1999511719</ele>
        <time>2018-05-09T07:13:18.000Z</time>
      </trkpt>
      <trkpt lat="44.2485" lon="7.04741">
        <ele>1948.1999511719</ele>
        <time>2018-05-09T07:13:20.000Z</time>
      </trkpt>
      <trkpt lat="44.2485" lon="7.0474">
        <ele>1948.1999511719</ele>
        <time>2018-05-09T07:13:22.000Z</time>
      </trkpt>
      <trkpt lat="44.2485" lon="7.0474">
        <ele>1948.1999511719</ele>
        <time>2018-05-09T07:13:24.000Z</time>
      </trkpt>
      <trkpt lat="44.2485" lon="7.0474">
        <ele>1948.1999511719</ele>
        <time>2018-05-09T07:13:25.000Z</time>
      </trkpt>
      <trkpt lat="44.2485" lon="7.04739">
        <ele>1948.1999511719</ele>
        <time>2018-05-09T07:13:26.000Z</time>
      </trkpt>
      <trkpt lat="44.2485" lon="7.04739">
        <ele>1948.1999511719</ele>
        <time>2018-05-09T07:13:28.000Z</time>
      </trkpt>
      <trkpt lat="44.2485" lon="7.04739">
        <ele>1948.1999511719</ele>
        <time>2018-05-09T07:13:29.000Z</time>
      </trkpt>
      <trkpt lat="44.2485" lon="7.04739">
        <ele>1948.1999511719</ele>
        <time>2018-05-09T07:13:30.000Z</time>
      </trkpt>
      <trkpt lat="44.24849" lon="7.04739">
        <ele>1948.1999511719</ele>
        <time>2018-05-09T07:13:31.000Z</time>
      </trkpt>
      <trkpt lat="44.24849" lon="7.04739">
        <ele>1948.1999511719</ele>
        <time>2018-05-09T07:13:32.000Z</time>
      </trkpt>
      <trkpt lat="44.24847" lon="7.04742">
        <ele>1948</ele>
        <time>2018-05-09T07:13:36.000Z</time>
      </trkpt>
      <trkpt lat="44.24847" lon="7.04742">
        <ele>1948</ele>
        <time>2018-05-09T07:13:37.000Z</time>
      </trkpt>
      <trkpt lat="44.24847" lon="7.04742">
        <ele>1948</ele>
        <time>2018-05-09T07:13:38.000Z</time>
      </trkpt>
      <trkpt lat="44.24848" lon="7.04742">
        <ele>1948</ele>
        <time>2018-05-09T07:13:39.000Z</time>
      </trkpt>
      <trkpt lat="44.24848" lon="7.04741">
        <ele>1948</ele>
        <time>2018-05-09T07:13:41.000Z</time>
      </trkpt>
      <trkpt lat="44.24847" lon="7.04745">
        <ele>1948</ele>
        <time>2018-05-09T07:13:46.000Z</time>
      </trkpt>
      <trkpt lat="44.24847" lon="7.04744">
        <ele>1948</ele>
        <time>2018-05-09T07:13:49.000Z</time>
      </trkpt>
      <trkpt lat="44.24847" lon="7.04744">
        <ele>1948</ele>
        <time>2018-05-09T07:13:52.000Z</time>
      </trkpt>
      <trkpt lat="44.24847" lon="7.04745">
        <ele>1948.1999511719</ele>
        <time>2018-05-09T07:13:54.000Z</time>
      </trkpt>
      <trkpt lat="44.24847" lon="7.04744">
        <ele>1948.1999511719</ele>
        <time>2018-05-09T07:13:55.000Z</time>
      </trkpt>
      <trkpt lat="44.24847" lon="7.04744">
        <ele>1948.1999511719</ele>
        <time>2018-05-09T07:13:57.000Z</time>
      </trkpt>
      <trkpt lat="44.24847" lon="7.04744">
        <ele>1948.1999511719</ele>
        <time>2018-05-09T07:13:58.000Z</time>
      </trkpt>
      <trkpt lat="44.24847" lon="7.04744">
        <ele>1948</ele>
        <time>2018-05-09T07:13:59.000Z</time>
      </trkpt>
      <trkpt lat="44.24847" lon="7.04743">
        <ele>1948</ele>
        <time>2018-05-09T07:14:02.000Z</time>
      </trkpt>
      <trkpt lat="44.24848" lon="7.04743">
        <ele>1948</ele>
        <time>2018-05-09T07:14:06.000Z</time>
      </trkpt>
      <trkpt lat="44.24848" lon="7.04743">
        <ele>1948</ele>
        <time>2018-05-09T07:14:07.000Z</time>
      </trkpt>
      <trkpt lat="44.24847" lon="7.04742">
        <ele>1948</ele>
        <time>2018-05-09T07:14:09.000Z</time>
      </trkpt>
      <trkpt lat="44.24847" lon="7.04743">
        <ele>1948</ele>
        <time>2018-05-09T07:14:12.000Z</time>
      </trkpt>
      <trkpt lat="44.24847" lon="7.04743">
        <ele>1948</ele>
        <time>2018-05-09T07:14:13.000Z</time>
      </trkpt>
      <trkpt lat="44.24847" lon="7.04743">
        <ele>1948</ele>
        <time>2018-05-09T07:14:14.000Z</time>
      </trkpt>
      <trkpt lat="44.24847" lon="7.04744">
        <ele>1948</ele>
        <time>2018-05-09T07:14:16.000Z</time>
      </trkpt>
      <trkpt lat="44.24846" lon="7.04744">
        <ele>1948</ele>
        <time>2018-05-09T07:14:31.000Z</time>
      </trkpt>
      <trkpt lat="44.24849" lon="7.04741">
        <ele>1948</ele>
        <time>2018-05-09T07:14:35.000Z</time>
      </trkpt>
      <trkpt lat="44.24849" lon="7.04741">
        <ele>1948</ele>
        <time>2018-05-09T07:14:36.000Z</time>
      </trkpt>
      <trkpt lat="44.2485" lon="7.04742">
        <ele>1948</ele>
        <time>2018-05-09T07:14:38.000Z</time>
      </trkpt>
      <trkpt lat="44.24849" lon="7.04743">
        <ele>1948</ele>
        <time>2018-05-09T07:14:42.000Z</time>
      </trkpt>
      <trkpt lat="44.2485" lon="7.04741">
        <ele>1948.1999511719</ele>
        <time>2018-05-09T07:14:51.000Z</time>
      </trkpt>
      <trkpt lat="44.2485" lon="7.04741">
        <ele>1948.1999511719</ele>
        <time>2018-05-09T07:14:52.000Z</time>
      </trkpt>
      <trkpt lat="44.2485" lon="7.0474">
        <ele>1948.1999511719</ele>
        <time>2018-05-09T07:14:54.000Z</time>
      </trkpt>
      <trkpt lat="44.24849" lon="7.04739">
        <ele>1948.4000244141</ele>
        <time>2018-05-09T07:15:00.000Z</time>
      </trkpt>
      <trkpt lat="44.24845" lon="7.04737">
        <ele>1948.4000244141</ele>
        <time>2018-05-09T07:15:04.000Z</time>
      </trkpt>
      <trkpt lat="44.24844" lon="7.04737">
        <ele>1948.4000244141</ele>
        <time>2018-05-09T07:15:05.000Z</time>
      </trkpt>
      <trkpt lat="44.24844" lon="7.04736">
        <ele>1948.4000244141</ele>
        <time>2018-05-09T07:15:06.000Z</time>
      </trkpt>
      <trkpt lat="44.24844" lon="7.04736">
        <ele>1948.4000244141</ele>
        <time>2018-05-09T07:15:08.000Z</time>
      </trkpt>
      <trkpt lat="44.24846" lon="7.04737">
        <ele>1948.1999511719</ele>
        <time>2018-05-09T07:15:17.000Z</time>
      </trkpt>
      <trkpt lat="44.24846" lon="7.04737">
        <ele>1948.1999511719</ele>
        <time>2018-05-09T07:15:18.000Z</time>
      </trkpt>
      <trkpt lat="44.24846" lon="7.04737">
        <ele>1948.1999511719</ele>
        <time>2018-05-09T07:15:25.000Z</time>
      </trkpt>
      <trkpt lat="44.24846" lon="7.04737">
        <ele>1948.1999511719</ele>
        <time>2018-05-09T07:15:29.000Z</time>
      </trkpt>
      <trkpt lat="44.24847" lon="7.04737">
        <ele>1948</ele>
        <time>2018-05-09T07:15:30.000Z</time>
      </trkpt>
      <trkpt lat="44.24848" lon="7.04737">
        <ele>1948</ele>
        <time>2018-05-09T07:15:31.000Z</time>
      </trkpt>
      <trkpt lat="44.24848" lon="7.04737">
        <ele>1948</ele>
        <time>2018-05-09T07:15:32.000Z</time>
      </trkpt>
      <trkpt lat="44.24848" lon="7.04737">
        <ele>1948</ele>
        <time>2018-05-09T07:15:33.000Z</time>
      </trkpt>
      <trkpt lat="44.24848" lon="7.04738">
        <ele>1948</ele>
        <time>2018-05-09T07:15:34.000Z</time>
      </trkpt>
      <trkpt lat="44.24849" lon="7.04738">
        <ele>1948</ele>
        <time>2018-05-09T07:15:36.000Z</time>
      </trkpt>
      <trkpt lat="44.24849" lon="7.04739">
        <ele>1948.1999511719</ele>
        <time>2018-05-09T07:15:39.000Z</time>
      </trkpt>
      <trkpt lat="44.24847" lon="7.04739">
        <ele>1948.1999511719</ele>
        <time>2018-05-09T07:15:46.000Z</time>
      </trkpt>
      <trkpt lat="44.24846" lon="7.04741">
        <ele>1948.1999511719</ele>
        <time>2018-05-09T07:15:51.000Z</time>
      </trkpt>
      <trkpt lat="44.24848" lon="7.0474">
        <ele>1948.1999511719</ele>
        <time>2018-05-09T07:15:53.000Z</time>
      </trkpt>
      <trkpt lat="44.2485" lon="7.0474">
        <ele>1948.1999511719</ele>
        <time>2018-05-09T07:15:57.000Z</time>
      </trkpt>
      <trkpt lat="44.2485" lon="7.04739">
        <ele>1948.1999511719</ele>
        <time>2018-05-09T07:15:58.000Z</time>
      </trkpt>
      <trkpt lat="44.2485" lon="7.04738">
        <ele>1948.1999511719</ele>
        <time>2018-05-09T07:15:59.000Z</time>
      </trkpt>
      <trkpt lat="44.24851" lon="7.04738">
        <ele>1948.1999511719</ele>
        <time>2018-05-09T07:16:04.000Z</time>
      </trkpt>
      <trkpt lat="44.2485" lon="7.04738">
        <ele>1948.1999511719</ele>
        <time>2018-05-09T07:16:05.000Z</time>
      </trkpt>
      <trkpt lat="44.2485" lon="7.04738">
        <ele>1948.1999511719</ele>
        <time>2018-05-09T07:16:06.000Z</time>
      </trkpt>
      <trkpt lat="44.2485" lon="7.04738">
        <ele>1948.1999511719</ele>
        <time>2018-05-09T07:16:07.000Z</time>
      </trkpt>
      <trkpt lat="44.24849" lon="7.04738">
        <ele>1948.1999511719</ele>
        <time>2018-05-09T07:16:08.000Z</time>
      </trkpt>
      <trkpt lat="44.24849" lon="7.04738">
        <ele>1948.1999511719</ele>
        <time>2018-05-09T07:16:10.000Z</time>
      </trkpt>
      <trkpt lat="44.24849" lon="7.04738">
        <ele>1948.1999511719</ele>
        <time>2018-05-09T07:16:11.000Z</time>
      </trkpt>
      <trkpt lat="44.24851" lon="7.04738">
        <ele>1948.1999511719</ele>
        <time>2018-05-09T07:16:18.000Z</time>
      </trkpt>
      <trkpt lat="44.24851" lon="7.04736">
        <ele>1948.1999511719</ele>
        <time>2018-05-09T07:16:23.000Z</time>
      </trkpt>
      <trkpt lat="44.24851" lon="7.04737">
        <ele>1948.1999511719</ele>
        <time>2018-05-09T07:16:25.000Z</time>
      </trkpt>
      <trkpt lat="44.2485" lon="7.04737">
        <ele>1948.1999511719</ele>
        <time>2018-05-09T07:16:26.000Z</time>
      </trkpt>
      <trkpt lat="44.2485" lon="7.04738">
        <ele>1948.1999511719</ele>
        <time>2018-05-09T07:16:27.000Z</time>
      </trkpt>
      <trkpt lat="44.24845" lon="7.04746">
        <ele>1948.1999511719</ele>
        <time>2018-05-09T07:16:32.000Z</time>
      </trkpt>
      <trkpt lat="44.24845" lon="7.04747">
        <ele>1948.1999511719</ele>
        <time>2018-05-09T07:16:33.000Z</time>
      </trkpt>
      <trkpt lat="44.24845" lon="7.04748">
        <ele>1948.1999511719</ele>
        <time>2018-05-09T07:16:35.000Z</time>
      </trkpt>
      <trkpt lat="44.24845" lon="7.04748">
        <ele>1948.1999511719</ele>
        <time>2018-05-09T07:16:36.000Z</time>
      </trkpt>
      <trkpt lat="44.24845" lon="7.04748">
        <ele>1948.1999511719</ele>
        <time>2018-05-09T07:16:37.000Z</time>
      </trkpt>
      <trkpt lat="44.24846" lon="7.04747">
        <ele>1948.1999511719</ele>
        <time>2018-05-09T07:16:38.000Z</time>
      </trkpt>
      <trkpt lat="44.24846" lon="7.04746">
        <ele>1948.1999511719</ele>
        <time>2018-05-09T07:16:42.000Z</time>
      </trkpt>
      <trkpt lat="44.24847" lon="7.04744">
        <ele>1948.1999511719</ele>
        <time>2018-05-09T07:16:44.000Z</time>
      </trkpt>
      <trkpt lat="44.24848" lon="7.04744">
        <ele>1948.1999511719</ele>
        <time>2018-05-09T07:16:45.000Z</time>
      </trkpt>
      <trkpt lat="44.24848" lon="7.04744">
        <ele>1948.1999511719</ele>
        <time>2018-05-09T07:16:47.000Z</time>
      </trkpt>
      <trkpt lat="44.2485" lon="7.04744">
        <ele>1948.1999511719</ele>
        <time>2018-05-09T07:16:51.000Z</time>
      </trkpt>
      <trkpt lat="44.2485" lon="7.04744">
        <ele>1948.1999511719</ele>
        <time>2018-05-09T07:16:52.000Z</time>
      </trkpt>
      <trkpt lat="44.2485" lon="7.04744">
        <ele>1948.1999511719</ele>
        <time>2018-05-09T07:16:53.000Z</time>
      </trkpt>
      <trkpt lat="44.24853" lon="7.04741">
        <ele>1948.1999511719</ele>
        <time>2018-05-09T07:17:08.000Z</time>
      </trkpt>
      <trkpt lat="44.24856" lon="7.04735">
        <ele>1948.1999511719</ele>
        <time>2018-05-09T07:17:16.000Z</time>
      </trkpt>
      <trkpt lat="44.24854" lon="7.04734">
        <ele>1948.1999511719</ele>
        <time>2018-05-09T07:17:25.000Z</time>
      </trkpt>
      <trkpt lat="44.24852" lon="7.04737">
        <ele>1948.1999511719</ele>
        <time>2018-05-09T07:17:29.000Z</time>
      </trkpt>
      <trkpt lat="44.24851" lon="7.04739">
        <ele>1948.1999511719</ele>
        <time>2018-05-09T07:17:30.000Z</time>
      </trkpt>
      <trkpt lat="44.2485" lon="7.0474">
        <ele>1948.1999511719</ele>
        <time>2018-05-09T07:17:31.000Z</time>
      </trkpt>
      <trkpt lat="44.24849" lon="7.0474">
        <ele>1948.1999511719</ele>
        <time>2018-05-09T07:17:32.000Z</time>
      </trkpt>
      <trkpt lat="44.24848" lon="7.0474">
        <ele>1948.1999511719</ele>
        <time>2018-05-09T07:17:35.000Z</time>
      </trkpt>
      <trkpt lat="44.24845" lon="7.04745">
        <ele>1948.1999511719</ele>
        <time>2018-05-09T07:17:47.000Z</time>
      </trkpt>
      <trkpt lat="44.24846" lon="7.04744">
        <ele>1948.1999511719</ele>
        <time>2018-05-09T07:17:52.000Z</time>
      </trkpt>
      <trkpt lat="44.24846" lon="7.04743">
        <ele>1948.1999511719</ele>
        <time>2018-05-09T07:17:56.000Z</time>
      </trkpt>
      <trkpt lat="44.24845" lon="7.04745">
        <ele>1948.1999511719</ele>
        <time>2018-05-09T07:18:02.000Z</time>
      </trkpt>
      <trkpt lat="44.24844" lon="7.04745">
        <ele>1948.1999511719</ele>
        <time>2018-05-09T07:18:05.000Z</time>
      </trkpt>
      <trkpt lat="44.24845" lon="7.04744">
        <ele>1948.1999511719</ele>
        <time>2018-05-09T07:18:06.000Z</time>
      </trkpt>
      <trkpt lat="44.24845" lon="7.04744">
        <ele>1948.1999511719</ele>
        <time>2018-05-09T07:18:08.000Z</time>
      </trkpt>
      <trkpt lat="44.24847" lon="7.04743">
        <ele>1948.1999511719</ele>
        <time>2018-05-09T07:18:11.000Z</time>
      </trkpt>
      <trkpt lat="44.24848" lon="7.04744">
        <ele>1948.1999511719</ele>
        <time>2018-05-09T07:18:15.000Z</time>
      </trkpt>
      <trkpt lat="44.24847" lon="7.04744">
        <ele>1948.1999511719</ele>
        <time>2018-05-09T07:18:19.000Z</time>
      </trkpt>
      <trkpt lat="44.24847" lon="7.04743">
        <ele>1948.1999511719</ele>
        <time>2018-05-09T07:18:23.000Z</time>
      </trkpt>
      <trkpt lat="44.24846" lon="7.04742">
        <ele>1948.1999511719</ele>
        <time>2018-05-09T07:18:26.000Z</time>
      </trkpt>
      <trkpt lat="44.24847" lon="7.04741">
        <ele>1948.1999511719</ele>
        <time>2018-05-09T07:18:28.000Z</time>
      </trkpt>
      <trkpt lat="44.24848" lon="7.0474">
        <ele>1948.1999511719</ele>
        <time>2018-05-09T07:18:30.000Z</time>
      </trkpt>
      <trkpt lat="44.24849" lon="7.0474">
        <ele>1948.1999511719</ele>
        <time>2018-05-09T07:18:31.000Z</time>
      </trkpt>
      <trkpt lat="44.24849" lon="7.0474">
        <ele>1948.1999511719</ele>
        <time>2018-05-09T07:18:32.000Z</time>
      </trkpt>
      <trkpt lat="44.2485" lon="7.04737">
        <ele>1948.1999511719</ele>
        <time>2018-05-09T07:18:35.000Z</time>
      </trkpt>
      <trkpt lat="44.2485" lon="7.04735">
        <ele>1948.1999511719</ele>
        <time>2018-05-09T07:18:37.000Z</time>
      </trkpt>
      <trkpt lat="44.2485" lon="7.04737">
        <ele>1948.1999511719</ele>
        <time>2018-05-09T07:18:39.000Z</time>
      </trkpt>
      <trkpt lat="44.24851" lon="7.04737">
        <ele>1948.1999511719</ele>
        <time>2018-05-09T07:18:40.000Z</time>
      </trkpt>
      <trkpt lat="44.24852" lon="7.04736">
        <ele>1948.1999511719</ele>
        <time>2018-05-09T07:18:42.000Z</time>
      </trkpt>
      <trkpt lat="44.24852" lon="7.04735">
        <ele>1948.1999511719</ele>
        <time>2018-05-09T07:18:44.000Z</time>
      </trkpt>
      <trkpt lat="44.24851" lon="7.04737">
        <ele>1948.1999511719</ele>
        <time>2018-05-09T07:18:46.000Z</time>
      </trkpt>
      <trkpt lat="44.24851" lon="7.04738">
        <ele>1948.1999511719</ele>
        <time>2018-05-09T07:18:49.000Z</time>
      </trkpt>
      <trkpt lat="44.2485" lon="7.04738">
        <ele>1948.1999511719</ele>
        <time>2018-05-09T07:18:52.000Z</time>
      </trkpt>
      <trkpt lat="44.24849" lon="7.04739">
        <ele>1948.1999511719</ele>
        <time>2018-05-09T07:18:55.000Z</time>
      </trkpt>
      <trkpt lat="44.24849" lon="7.04739">
        <ele>1948.1999511719</ele>
        <time>2018-05-09T07:18:58.000Z</time>
      </trkpt>
      <trkpt lat="44.2485" lon="7.04739">
        <ele>1948.1999511719</ele>
        <time>2018-05-09T07:18:59.000Z</time>
      </trkpt>
      <trkpt lat="44.24851" lon="7.04738">
        <ele>1948.1999511719</ele>
        <time>2018-05-09T07:19:06.000Z</time>
      </trkpt>
      <trkpt lat="44.2485" lon="7.04738">
        <ele>1948.1999511719</ele>
        <time>2018-05-09T07:19:08.000Z</time>
      </trkpt>
      <trkpt lat="44.2485" lon="7.04738">
        <ele>1948.1999511719</ele>
        <time>2018-05-09T07:19:11.000Z</time>
      </trkpt>
      <trkpt lat="44.2485" lon="7.04737">
        <ele>1948.1999511719</ele>
        <time>2018-05-09T07:19:13.000Z</time>
      </trkpt>
      <trkpt lat="44.2485" lon="7.04737">
        <ele>1948.1999511719</ele>
        <time>2018-05-09T07:19:15.000Z</time>
      </trkpt>
      <trkpt lat="44.2485" lon="7.04736">
        <ele>1948.1999511719</ele>
        <time>2018-05-09T07:19:18.000Z</time>
      </trkpt>
      <trkpt lat="44.24851" lon="7.04738">
        <ele>1948.1999511719</ele>
        <time>2018-05-09T07:19:26.000Z</time>
      </trkpt>
      <trkpt lat="44.24852" lon="7.04738">
        <ele>1948.1999511719</ele>
        <time>2018-05-09T07:19:28.000Z</time>
      </trkpt>
      <trkpt lat="44.24852" lon="7.04738">
        <ele>1948.1999511719</ele>
        <time>2018-05-09T07:19:29.000Z</time>
      </trkpt>
      <trkpt lat="44.24851" lon="7.04738">
        <ele>1948.1999511719</ele>
        <time>2018-05-09T07:19:32.000Z</time>
      </trkpt>
      <trkpt lat="44.2485" lon="7.04741">
        <ele>1948.1999511719</ele>
        <time>2018-05-09T07:19:43.000Z</time>
      </trkpt>
      <trkpt lat="44.24849" lon="7.04741">
        <ele>1948.1999511719</ele>
        <time>2018-05-09T07:19:44.000Z</time>
      </trkpt>
      <trkpt lat="44.24849" lon="7.04741">
        <ele>1948.1999511719</ele>
        <time>2018-05-09T07:19:45.000Z</time>
      </trkpt>
      <trkpt lat="44.24849" lon="7.04742">
        <ele>1948.1999511719</ele>
        <time>2018-05-09T07:19:49.000Z</time>
      </trkpt>
      <trkpt lat="44.24851" lon="7.04742">
        <ele>1948.1999511719</ele>
        <time>2018-05-09T07:19:52.000Z</time>
      </trkpt>
      <trkpt lat="44.24852" lon="7.04741">
        <ele>1948.1999511719</ele>
        <time>2018-05-09T07:19:58.000Z</time>
      </trkpt>
      <trkpt lat="44.24851" lon="7.04738">
        <ele>1948.1999511719</ele>
        <time>2018-05-09T07:20:06.000Z</time>
      </trkpt>
      <trkpt lat="44.2485" lon="7.04738">
        <ele>1948.1999511719</ele>
        <time>2018-05-09T07:20:07.000Z</time>
      </trkpt>
      <trkpt lat="44.2485" lon="7.04739">
        <ele>1948.1999511719</ele>
        <time>2018-05-09T07:20:09.000Z</time>
      </trkpt>
      <trkpt lat="44.2485" lon="7.04742">
        <ele>1948.1999511719</ele>
        <time>2018-05-09T07:20:12.000Z</time>
      </trkpt>
      <trkpt lat="44.2485" lon="7.04742">
        <ele>1948.1999511719</ele>
        <time>2018-05-09T07:20:14.000Z</time>
      </trkpt>
      <trkpt lat="44.24851" lon="7.0474">
        <ele>1948.1999511719</ele>
        <time>2018-05-09T07:20:23.000Z</time>
      </trkpt>
      <trkpt lat="44.2485" lon="7.04739">
        <ele>1948.1999511719</ele>
        <time>2018-05-09T07:20:32.000Z</time>
      </trkpt>
      <trkpt lat="44.2485" lon="7.04739">
        <ele>1948.1999511719</ele>
        <time>2018-05-09T07:20:34.000Z</time>
      </trkpt>
      <trkpt lat="44.24849" lon="7.04739">
        <ele>1948.1999511719</ele>
        <time>2018-05-09T07:20:37.000Z</time>
      </trkpt>
      <trkpt lat="44.24849" lon="7.04739">
        <ele>1948.1999511719</ele>
        <time>2018-05-09T07:20:42.000Z</time>
      </trkpt>
      <trkpt lat="44.24849" lon="7.04739">
        <ele>1948.1999511719</ele>
        <time>2018-05-09T07:20:50.000Z</time>
      </trkpt>
      <trkpt lat="44.2485" lon="7.04739">
        <ele>1948.1999511719</ele>
        <time>2018-05-09T07:20:52.000Z</time>
      </trkpt>
      <trkpt lat="44.24853" lon="7.04738">
        <ele>1948.1999511719</ele>
        <time>2018-05-09T07:20:56.000Z</time>
      </trkpt>
      <trkpt lat="44.24854" lon="7.04737">
        <ele>1948.1999511719</ele>
        <time>2018-05-09T07:20:58.000Z</time>
      </trkpt>
      <trkpt lat="44.24854" lon="7.0474">
        <ele>1948.1999511719</ele>
        <time>2018-05-09T07:21:04.000Z</time>
      </trkpt>
      <trkpt lat="44.24855" lon="7.0474">
        <ele>1948.1999511719</ele>
        <time>2018-05-09T07:21:10.000Z</time>
      </trkpt>
      <trkpt lat="44.24854" lon="7.0474">
        <ele>1948.1999511719</ele>
        <time>2018-05-09T07:21:13.000Z</time>
      </trkpt>
      <trkpt lat="44.24854" lon="7.0474">
        <ele>1948.1999511719</ele>
        <time>2018-05-09T07:21:15.000Z</time>
      </trkpt>
      <trkpt lat="44.24854" lon="7.0474">
        <ele>1948.1999511719</ele>
        <time>2018-05-09T07:21:16.000Z</time>
      </trkpt>
      <trkpt lat="44.24854" lon="7.0474">
        <ele>1948.1999511719</ele>
        <time>2018-05-09T07:21:17.000Z</time>
      </trkpt>
      <trkpt lat="44.24853" lon="7.0474">
        <ele>1948.1999511719</ele>
        <time>2018-05-09T07:21:19.000Z</time>
      </trkpt>
      <trkpt lat="44.24853" lon="7.04739">
        <ele>1948.1999511719</ele>
        <time>2018-05-09T07:21:25.000Z</time>
      </trkpt>
      <trkpt lat="44.24852" lon="7.04739">
        <ele>1948.1999511719</ele>
        <time>2018-05-09T07:21:26.000Z</time>
      </trkpt>
      <trkpt lat="44.24852" lon="7.04739">
        <ele>1948.1999511719</ele>
        <time>2018-05-09T07:21:27.000Z</time>
      </trkpt>
      <trkpt lat="44.24852" lon="7.04739">
        <ele>1948.1999511719</ele>
        <time>2018-05-09T07:21:28.000Z</time>
      </trkpt>
      <trkpt lat="44.24851" lon="7.04739">
        <ele>1948.1999511719</ele>
        <time>2018-05-09T07:21:29.000Z</time>
      </trkpt>
      <trkpt lat="44.24851" lon="7.04739">
        <ele>1948.1999511719</ele>
        <time>2018-05-09T07:21:31.000Z</time>
      </trkpt>
      <trkpt lat="44.2485" lon="7.04739">
        <ele>1948.1999511719</ele>
        <time>2018-05-09T07:21:32.000Z</time>
      </trkpt>
      <trkpt lat="44.2485" lon="7.04739">
        <ele>1948.1999511719</ele>
        <time>2018-05-09T07:21:34.000Z</time>
      </trkpt>
      <trkpt lat="44.24849" lon="7.0474">
        <ele>1948.1999511719</ele>
        <time>2018-05-09T07:21:36.000Z</time>
      </trkpt>
      <trkpt lat="44.2485" lon="7.0474">
        <ele>1948.1999511719</ele>
        <time>2018-05-09T07:21:37.000Z</time>
      </trkpt>
      <trkpt lat="44.2485" lon="7.0474">
        <ele>1948.1999511719</ele>
        <time>2018-05-09T07:21:39.000Z</time>
      </trkpt>
      <trkpt lat="44.2485" lon="7.0474">
        <ele>1948.1999511719</ele>
        <time>2018-05-09T07:21:42.000Z</time>
      </trkpt>
      <trkpt lat="44.24848" lon="7.0474">
        <ele>1948.1999511719</ele>
        <time>2018-05-09T07:21:46.000Z</time>
      </trkpt>
      <trkpt lat="44.24848" lon="7.04742">
        <ele>1948.1999511719</ele>
        <time>2018-05-09T07:21:50.000Z</time>
      </trkpt>
      <trkpt lat="44.24848" lon="7.04743">
        <ele>1948.1999511719</ele>
        <time>2018-05-09T07:21:51.000Z</time>
      </trkpt>
      <trkpt lat="44.24848" lon="7.04743">
        <ele>1948.1999511719</ele>
        <time>2018-05-09T07:21:52.000Z</time>
      </trkpt>
      <trkpt lat="44.24849" lon="7.04742">
        <ele>1948.1999511719</ele>
        <time>2018-05-09T07:21:55.000Z</time>
      </trkpt>
      <trkpt lat="44.24849" lon="7.04743">
        <ele>1948.1999511719</ele>
        <time>2018-05-09T07:22:02.000Z</time>
      </trkpt>
      <trkpt lat="44.24849" lon="7.04743">
        <ele>1948.1999511719</ele>
        <time>2018-05-09T07:22:03.000Z</time>
      </trkpt>
      <trkpt lat="44.24847" lon="7.04745">
        <ele>1948.1999511719</ele>
        <time>2018-05-09T07:22:12.000Z</time>
      </trkpt>
      <trkpt lat="44.24847" lon="7.04744">
        <ele>1948.1999511719</ele>
        <time>2018-05-09T07:22:13.000Z</time>
      </trkpt>
      <trkpt lat="44.24847" lon="7.04744">
        <ele>1948.1999511719</ele>
        <time>2018-05-09T07:22:15.000Z</time>
      </trkpt>
      <trkpt lat="44.24847" lon="7.04743">
        <ele>1948.1999511719</ele>
        <time>2018-05-09T07:22:16.000Z</time>
      </trkpt>
      <trkpt lat="44.24848" lon="7.04743">
        <ele>1948.1999511719</ele>
        <time>2018-05-09T07:22:17.000Z</time>
      </trkpt>
      <trkpt lat="44.24849" lon="7.04742">
        <ele>1948.1999511719</ele>
        <time>2018-05-09T07:22:29.000Z</time>
      </trkpt>
      <trkpt lat="44.2485" lon="7.04741">
        <ele>1948.1999511719</ele>
        <time>2018-05-09T07:22:31.000Z</time>
      </trkpt>
      <trkpt lat="44.24851" lon="7.0474">
        <ele>1948.1999511719</ele>
        <time>2018-05-09T07:22:32.000Z</time>
      </trkpt>
      <trkpt lat="44.24855" lon="7.04738">
        <ele>1948.1999511719</ele>
        <time>2018-05-09T07:22:36.000Z</time>
      </trkpt>
      <trkpt lat="44.24852" lon="7.04738">
        <ele>1948.1999511719</ele>
        <time>2018-05-09T07:22:46.000Z</time>
      </trkpt>
      <trkpt lat="44.24852" lon="7.0474">
        <ele>1948.1999511719</ele>
        <time>2018-05-09T07:22:56.000Z</time>
      </trkpt>
      <trkpt lat="44.24852" lon="7.0474">
        <ele>1948.1999511719</ele>
        <time>2018-05-09T07:22:57.000Z</time>
      </trkpt>
      <trkpt lat="44.24852" lon="7.0474">
        <ele>1948.1999511719</ele>
        <time>2018-05-09T07:22:59.000Z</time>
      </trkpt>
      <trkpt lat="44.2485" lon="7.04741">
        <ele>1948.1999511719</ele>
        <time>2018-05-09T07:23:02.000Z</time>
      </trkpt>
      <trkpt lat="44.24849" lon="7.04741">
        <ele>1948.1999511719</ele>
        <time>2018-05-09T07:23:05.000Z</time>
      </trkpt>
      <trkpt lat="44.24847" lon="7.04744">
        <ele>1948.1999511719</ele>
        <time>2018-05-09T07:23:11.000Z</time>
      </trkpt>
      <trkpt lat="44.24847" lon="7.04747">
        <ele>1948.1999511719</ele>
        <time>2018-05-09T07:23:13.000Z</time>
      </trkpt>
      <trkpt lat="44.24846" lon="7.04752">
        <ele>1947.4000244141</ele>
        <time>2018-05-09T07:23:16.000Z</time>
      </trkpt>
      <trkpt lat="44.24845" lon="7.04754">
        <ele>1946.8000488281</ele>
        <time>2018-05-09T07:23:17.000Z</time>
      </trkpt>
      <trkpt lat="44.24844" lon="7.0476">
        <ele>1945.5999755859</ele>
        <time>2018-05-09T07:23:20.000Z</time>
      </trkpt>
      <trkpt lat="44.24843" lon="7.04771">
        <ele>1944.8000488281</ele>
        <time>2018-05-09T07:23:26.000Z</time>
      </trkpt>
      <trkpt lat="44.24842" lon="7.04772">
        <ele>1944.5999755859</ele>
        <time>2018-05-09T07:23:27.000Z</time>
      </trkpt>
      <trkpt lat="44.24842" lon="7.04773">
        <ele>1944</ele>
        <time>2018-05-09T07:23:30.000Z</time>
      </trkpt>
      <trkpt lat="44.24841" lon="7.04773">
        <ele>1944</ele>
        <time>2018-05-09T07:23:32.000Z</time>
      </trkpt>
      <trkpt lat="44.24837" lon="7.04771">
        <ele>1943.8000488281</ele>
        <time>2018-05-09T07:23:35.000Z</time>
      </trkpt>
      <trkpt lat="44.24837" lon="7.0477">
        <ele>1943.5999755859</ele>
        <time>2018-05-09T07:23:36.000Z</time>
      </trkpt>
      <trkpt lat="44.24836" lon="7.04769">
        <ele>1943.4000244141</ele>
        <time>2018-05-09T07:23:37.000Z</time>
      </trkpt>
      <trkpt lat="44.24834" lon="7.04765">
        <ele>1942.1999511719</ele>
        <time>2018-05-09T07:23:40.000Z</time>
      </trkpt>
      <trkpt lat="44.24831" lon="7.0476">
        <ele>1941.1999511719</ele>
        <time>2018-05-09T07:23:43.000Z</time>
      </trkpt>
      <trkpt lat="44.24828" lon="7.04756">
        <ele>1940.1999511719</ele>
        <time>2018-05-09T07:23:46.000Z</time>
      </trkpt>
      <trkpt lat="44.24817" lon="7.04747">
        <ele>1938.8000488281</ele>
        <time>2018-05-09T07:23:50.000Z</time>
      </trkpt>
      <trkpt lat="44.24813" lon="7.04744">
        <ele>1937.5999755859</ele>
        <time>2018-05-09T07:23:52.000Z</time>
      </trkpt>
      <trkpt lat="44.24809" lon="7.04741">
        <ele>1936</ele>
        <time>2018-05-09T07:23:54.000Z</time>
      </trkpt>
      <trkpt lat="44.24805" lon="7.0474">
        <ele>1934.8000488281</ele>
        <time>2018-05-09T07:23:56.000Z</time>
      </trkpt>
      <trkpt lat="44.24803" lon="7.04739">
        <ele>1934.4000244141</ele>
        <time>2018-05-09T07:23:57.000Z</time>
      </trkpt>
      <trkpt lat="44.24801" lon="7.0474">
        <ele>1933.8000488281</ele>
        <time>2018-05-09T07:23:59.000Z</time>
      </trkpt>
      <trkpt lat="44.24795" lon="7.0474">
        <ele>1932.8000488281</ele>
        <time>2018-05-09T07:24:03.000Z</time>
      </trkpt>
      <trkpt lat="44.24789" lon="7.0474">
        <ele>1932.1999511719</ele>
        <time>2018-05-09T07:24:06.000Z</time>
      </trkpt>
      <trkpt lat="44.24786" lon="7.04738">
        <ele>1932.1999511719</ele>
        <time>2018-05-09T07:24:09.000Z</time>
      </trkpt>
      <trkpt lat="44.24784" lon="7.04737">
        <ele>1932</ele>
        <time>2018-05-09T07:24:11.000Z</time>
      </trkpt>
      <trkpt lat="44.24781" lon="7.0474">
        <ele>1931.8000488281</ele>
        <time>2018-05-09T07:24:16.000Z</time>
      </trkpt>
      <trkpt lat="44.24781" lon="7.04739">
        <ele>1931.8000488281</ele>
        <time>2018-05-09T07:24:17.000Z</time>
      </trkpt>
      <trkpt lat="44.24782" lon="7.04741">
        <ele>1931.4000244141</ele>
        <time>2018-05-09T07:24:38.000Z</time>
      </trkpt>
      <trkpt lat="44.24783" lon="7.0474">
        <ele>1931.4000244141</ele>
        <time>2018-05-09T07:24:41.000Z</time>
      </trkpt>
      <trkpt lat="44.2478" lon="7.04739">
        <ele>1931.1999511719</ele>
        <time>2018-05-09T07:24:50.000Z</time>
      </trkpt>
      <trkpt lat="44.24776" lon="7.04741">
        <ele>1931.1999511719</ele>
        <time>2018-05-09T07:24:52.000Z</time>
      </trkpt>
      <trkpt lat="44.24768" lon="7.04746">
        <ele>1931.1999511719</ele>
        <time>2018-05-09T07:24:59.000Z</time>
      </trkpt>
      <trkpt lat="44.24762" lon="7.04811">
        <ele>1931.1999511719</ele>
        <time>2018-05-09T07:25:02.000Z</time>
      </trkpt>
      <trkpt lat="44.2476" lon="7.04807">
        <ele>1931.1999511719</ele>
        <time>2018-05-09T07:25:05.000Z</time>
      </trkpt>
      <trkpt lat="44.24767" lon="7.04792">
        <ele>1931.1999511719</ele>
        <time>2018-05-09T07:25:11.000Z</time>
      </trkpt>
      <trkpt lat="44.2477" lon="7.04766">
        <ele>1931.1999511719</ele>
        <time>2018-05-09T07:25:15.000Z</time>
      </trkpt>
      <trkpt lat="44.24774" lon="7.04764">
        <ele>1931.1999511719</ele>
        <time>2018-05-09T07:25:17.000Z</time>
      </trkpt>
      <trkpt lat="44.24783" lon="7.04761">
        <ele>1931.1999511719</ele>
        <time>2018-05-09T07:25:20.000Z</time>
      </trkpt>
      <trkpt lat="44.24784" lon="7.04759">
        <ele>1931.1999511719</ele>
        <time>2018-05-09T07:25:21.000Z</time>
      </trkpt>
      <trkpt lat="44.24783" lon="7.04747">
        <ele>1931.1999511719</ele>
        <time>2018-05-09T07:25:32.000Z</time>
      </trkpt>
      <trkpt lat="44.24783" lon="7.04749">
        <ele>1931.1999511719</ele>
        <time>2018-05-09T07:25:34.000Z</time>
      </trkpt>
      <trkpt lat="44.24785" lon="7.04748">
        <ele>1931.1999511719</ele>
        <time>2018-05-09T07:25:45.000Z</time>
      </trkpt>
      <trkpt lat="44.24782" lon="7.04743">
        <ele>1931.1999511719</ele>
        <time>2018-05-09T07:25:47.000Z</time>
      </trkpt>
      <trkpt lat="44.24783" lon="7.04742">
        <ele>1931.1999511719</ele>
        <time>2018-05-09T07:25:48.000Z</time>
      </trkpt>
      <trkpt lat="44.24782" lon="7.04742">
        <ele>1931.1999511719</ele>
        <time>2018-05-09T07:25:49.000Z</time>
      </trkpt>
      <trkpt lat="44.24782" lon="7.04743">
        <ele>1931.4000244141</ele>
        <time>2018-05-09T07:25:50.000Z</time>
      </trkpt>
      <trkpt lat="44.24781" lon="7.04743">
        <ele>1931.4000244141</ele>
        <time>2018-05-09T07:25:51.000Z</time>
      </trkpt>
      <trkpt lat="44.2478" lon="7.04743">
        <ele>1931.5999755859</ele>
        <time>2018-05-09T07:25:52.000Z</time>
      </trkpt>
      <trkpt lat="44.24778" lon="7.04744">
        <ele>1931.5999755859</ele>
        <time>2018-05-09T07:25:53.000Z</time>
      </trkpt>
      <trkpt lat="44.24769" lon="7.0475">
        <ele>1931.5999755859</ele>
        <time>2018-05-09T07:25:57.000Z</time>
      </trkpt>
      <trkpt lat="44.24764" lon="7.04754">
        <ele>1931.4000244141</ele>
        <time>2018-05-09T07:26:00.000Z</time>
      </trkpt>
      <trkpt lat="44.24757" lon="7.04757">
        <ele>1931.4000244141</ele>
        <time>2018-05-09T07:26:05.000Z</time>
      </trkpt>
      <trkpt lat="44.24756" lon="7.04757">
        <ele>1931.1999511719</ele>
        <time>2018-05-09T07:26:06.000Z</time>
      </trkpt>
      <trkpt lat="44.24752" lon="7.04757">
        <ele>1931.1999511719</ele>
        <time>2018-05-09T07:26:10.000Z</time>
      </trkpt>
      <trkpt lat="44.24747" lon="7.0476">
        <ele>1931</ele>
        <time>2018-05-09T07:26:14.000Z</time>
      </trkpt>
      <trkpt lat="44.24745" lon="7.04763">
        <ele>1931</ele>
        <time>2018-05-09T07:26:15.000Z</time>
      </trkpt>
      <trkpt lat="44.24739" lon="7.04768">
        <ele>1931</ele>
        <time>2018-05-09T07:26:18.000Z</time>
      </trkpt>
      <trkpt lat="44.24736" lon="7.04771">
        <ele>1930.8000488281</ele>
        <time>2018-05-09T07:26:21.000Z</time>
      </trkpt>
      <trkpt lat="44.24735" lon="7.04772">
        <ele>1930.8000488281</ele>
        <time>2018-05-09T07:26:22.000Z</time>
      </trkpt>
      <trkpt lat="44.24732" lon="7.04776">
        <ele>1930.8000488281</ele>
        <time>2018-05-09T07:26:25.000Z</time>
      </trkpt>
      <trkpt lat="44.24727" lon="7.0478">
        <ele>1930.8000488281</ele>
        <time>2018-05-09T07:26:27.000Z</time>
      </trkpt>
      <trkpt lat="44.24718" lon="7.04792">
        <ele>1930.5999755859</ele>
        <time>2018-05-09T07:26:35.000Z</time>
      </trkpt>
      <trkpt lat="44.24717" lon="7.04794">
        <ele>1930.5999755859</ele>
        <time>2018-05-09T07:26:36.000Z</time>
      </trkpt>
      <trkpt lat="44.24718" lon="7.04801">
        <ele>1930.4000244141</ele>
        <time>2018-05-09T07:26:38.000Z</time>
      </trkpt>
      <trkpt lat="44.24711" lon="7.04804">
        <ele>1930.4000244141</ele>
        <time>2018-05-09T07:26:41.000Z</time>
      </trkpt>
      <trkpt lat="44.24697" lon="7.04805">
        <ele>1930.4000244141</ele>
        <time>2018-05-09T07:26:50.000Z</time>
      </trkpt>
      <trkpt lat="44.24696" lon="7.04804">
        <ele>1930.5999755859</ele>
        <time>2018-05-09T07:26:52.000Z</time>
      </trkpt>
      <trkpt lat="44.24696" lon="7.04804">
        <ele>1930.8000488281</ele>
        <time>2018-05-09T07:26:54.000Z</time>
      </trkpt>
      <trkpt lat="44.24693" lon="7.04807">
        <ele>1930.8000488281</ele>
        <time>2018-05-09T07:26:58.000Z</time>
      </trkpt>
      <trkpt lat="44.24693" lon="7.04808">
        <ele>1931</ele>
        <time>2018-05-09T07:27:01.000Z</time>
      </trkpt>
      <trkpt lat="44.24691" lon="7.0481">
        <ele>1931</ele>
        <time>2018-05-09T07:27:02.000Z</time>
      </trkpt>
      <trkpt lat="44.24692" lon="7.04815">
        <ele>1931.1999511719</ele>
        <time>2018-05-09T07:27:05.000Z</time>
      </trkpt>
      <trkpt lat="44.24693" lon="7.04817">
        <ele>1931</ele>
        <time>2018-05-09T07:27:07.000Z</time>
      </trkpt>
      <trkpt lat="44.24694" lon="7.04821">
        <ele>1930.8000488281</ele>
        <time>2018-05-09T07:27:13.000Z</time>
      </trkpt>
      <trkpt lat="44.24693" lon="7.04821">
        <ele>1930.8000488281</ele>
        <time>2018-05-09T07:27:15.000Z</time>
      </trkpt>
      <trkpt lat="44.24692" lon="7.04821">
        <ele>1930.8000488281</ele>
        <time>2018-05-09T07:27:16.000Z</time>
      </trkpt>
      <trkpt lat="44.24687" lon="7.04822">
        <ele>1930.8000488281</ele>
        <time>2018-05-09T07:27:17.000Z</time>
      </trkpt>
      <trkpt lat="44.24685" lon="7.04821">
        <ele>1931</ele>
        <time>2018-05-09T07:27:18.000Z</time>
      </trkpt>
      <trkpt lat="44.24681" lon="7.04822">
        <ele>1931</ele>
        <time>2018-05-09T07:27:20.000Z</time>
      </trkpt>
      <trkpt lat="44.24678" lon="7.04822">
        <ele>1931.1999511719</ele>
        <time>2018-05-09T07:27:22.000Z</time>
      </trkpt>
      <trkpt lat="44.24674" lon="7.04823">
        <ele>1931.4000244141</ele>
        <time>2018-05-09T07:27:26.000Z</time>
      </trkpt>
      <trkpt lat="44.2467" lon="7.04825">
        <ele>1931.8000488281</ele>
        <time>2018-05-09T07:27:29.000Z</time>
      </trkpt>
      <trkpt lat="44.24668" lon="7.04826">
        <ele>1931.8000488281</ele>
        <time>2018-05-09T07:27:30.000Z</time>
      </trkpt>
      <trkpt lat="44.24667" lon="7.04826">
        <ele>1931.8000488281</ele>
        <time>2018-05-09T07:27:31.000Z</time>
      </trkpt>
      <trkpt lat="44.24666" lon="7.04826">
        <ele>1931.8000488281</ele>
        <time>2018-05-09T07:27:33.000Z</time>
      </trkpt>
      <trkpt lat="44.24652" lon="7.04828">
        <ele>1932.4000244141</ele>
        <time>2018-05-09T07:27:41.000Z</time>
      </trkpt>
      <trkpt lat="44.24648" lon="7.04829">
        <ele>1932.8000488281</ele>
        <time>2018-05-09T07:27:48.000Z</time>
      </trkpt>
      <trkpt lat="44.24648" lon="7.04828">
        <ele>1933.4000244141</ele>
        <time>2018-05-09T07:27:51.000Z</time>
      </trkpt>
      <trkpt lat="44.24645" lon="7.04829">
        <ele>1934</ele>
        <time>2018-05-09T07:27:57.000Z</time>
      </trkpt>
      <trkpt lat="44.24637" lon="7.04836">
        <ele>1935</ele>
        <time>2018-05-09T07:28:06.000Z</time>
      </trkpt>
      <trkpt lat="44.24636" lon="7.04838">
        <ele>1935.5999755859</ele>
        <time>2018-05-09T07:28:11.000Z</time>
      </trkpt>
      <trkpt lat="44.24638" lon="7.04838">
        <ele>1936</ele>
        <time>2018-05-09T07:28:13.000Z</time>
      </trkpt>
      <trkpt lat="44.24644" lon="7.04828">
        <ele>1936.4000244141</ele>
        <time>2018-05-09T07:28:17.000Z</time>
      </trkpt>
      <trkpt lat="44.24637" lon="7.0483">
        <ele>1937.1999511719</ele>
        <time>2018-05-09T07:28:24.000Z</time>
      </trkpt>
      <trkpt lat="44.24637" lon="7.04829">
        <ele>1937.4000244141</ele>
        <time>2018-05-09T07:28:27.000Z</time>
      </trkpt>
      <trkpt lat="44.2463" lon="7.04831">
        <ele>1938.1999511719</ele>
        <time>2018-05-09T07:28:32.000Z</time>
      </trkpt>
      <trkpt lat="44.24628" lon="7.04831">
        <ele>1938.1999511719</ele>
        <time>2018-05-09T07:28:33.000Z</time>
      </trkpt>
      <trkpt lat="44.24624" lon="7.04831">
        <ele>1938.5999755859</ele>
        <time>2018-05-09T07:28:36.000Z</time>
      </trkpt>
      <trkpt lat="44.24617" lon="7.04833">
        <ele>1939.1999511719</ele>
        <time>2018-05-09T07:28:41.000Z</time>
      </trkpt>
      <trkpt lat="44.24617" lon="7.04833">
        <ele>1939.4000244141</ele>
        <time>2018-05-09T07:28:42.000Z</time>
      </trkpt>
      <trkpt lat="44.24613" lon="7.04833">
        <ele>1940.1999511719</ele>
        <time>2018-05-09T07:28:46.000Z</time>
      </trkpt>
      <trkpt lat="44.24614" lon="7.04832">
        <ele>1940.4000244141</ele>
        <time>2018-05-09T07:28:48.000Z</time>
      </trkpt>
      <trkpt lat="44.24616" lon="7.04831">
        <ele>1940.5999755859</ele>
        <time>2018-05-09T07:28:50.000Z</time>
      </trkpt>
      <trkpt lat="44.24615" lon="7.04832">
        <ele>1940.5999755859</ele>
        <time>2018-05-09T07:28:51.000Z</time>
      </trkpt>
      <trkpt lat="44.24612" lon="7.04835">
        <ele>1940.8000488281</ele>
        <time>2018-05-09T07:28:54.000Z</time>
      </trkpt>
      <trkpt lat="44.24609" lon="7.04832">
        <ele>1941.4000244141</ele>
        <time>2018-05-09T07:28:59.000Z</time>
      </trkpt>
      <trkpt lat="44.24612" lon="7.04827">
        <ele>1942.5999755859</ele>
        <time>2018-05-09T07:29:06.000Z</time>
      </trkpt>
      <trkpt lat="44.24613" lon="7.04826">
        <ele>1943</ele>
        <time>2018-05-09T07:29:08.000Z</time>
      </trkpt>
      <trkpt lat="44.24612" lon="7.04827">
        <ele>1943.5999755859</ele>
        <time>2018-05-09T07:29:14.000Z</time>
      </trkpt>
      <trkpt lat="44.24598" lon="7.04831">
        <ele>1944.8000488281</ele>
        <time>2018-05-09T07:29:22.000Z</time>
      </trkpt>
      <trkpt lat="44.24588" lon="7.0483">
        <ele>1945.1999511719</ele>
        <time>2018-05-09T07:29:29.000Z</time>
      </trkpt>
      <trkpt lat="44.24588" lon="7.04832">
        <ele>1945.8000488281</ele>
        <time>2018-05-09T07:29:33.000Z</time>
      </trkpt>
      <trkpt lat="44.24585" lon="7.04837">
        <ele>1946</ele>
        <time>2018-05-09T07:29:37.000Z</time>
      </trkpt>
      <trkpt lat="44.24538" lon="7.0485">
        <ele>1946.5999755859</ele>
        <time>2018-05-09T07:29:43.000Z</time>
      </trkpt>
      <trkpt lat="44.24534" lon="7.0485">
        <ele>1947</ele>
        <time>2018-05-09T07:29:44.000Z</time>
      </trkpt>
      <trkpt lat="44.24531" lon="7.04849">
        <ele>1947.8000488281</ele>
        <time>2018-05-09T07:29:48.000Z</time>
      </trkpt>
      <trkpt lat="44.24533" lon="7.04846">
        <ele>1948</ele>
        <time>2018-05-09T07:29:50.000Z</time>
      </trkpt>
      <trkpt lat="44.24585" lon="7.0482">
        <ele>1948.5999755859</ele>
        <time>2018-05-09T07:29:53.000Z</time>
      </trkpt>
      <trkpt lat="44.24579" lon="7.04824">
        <ele>1949</ele>
        <time>2018-05-09T07:29:56.000Z</time>
      </trkpt>
      <trkpt lat="44.24579" lon="7.04826">
        <ele>1949.4000244141</ele>
        <time>2018-05-09T07:29:59.000Z</time>
      </trkpt>
      <trkpt lat="44.24576" lon="7.04827">
        <ele>1950.1999511719</ele>
        <time>2018-05-09T07:30:04.000Z</time>
      </trkpt>
      <trkpt lat="44.24564" lon="7.0483">
        <ele>1951</ele>
        <time>2018-05-09T07:30:12.000Z</time>
      </trkpt>
      <trkpt lat="44.24562" lon="7.04831">
        <ele>1951.1999511719</ele>
        <time>2018-05-09T07:30:13.000Z</time>
      </trkpt>
      <trkpt lat="44.24561" lon="7.0483">
        <ele>1951.5999755859</ele>
        <time>2018-05-09T07:30:15.000Z</time>
      </trkpt>
      <trkpt lat="44.24558" lon="7.04831">
        <ele>1952</ele>
        <time>2018-05-09T07:30:18.000Z</time>
      </trkpt>
      <trkpt lat="44.24557" lon="7.04831">
        <ele>1952.1999511719</ele>
        <time>2018-05-09T07:30:19.000Z</time>
      </trkpt>
      <trkpt lat="44.24544" lon="7.04836">
        <ele>1953.1999511719</ele>
        <time>2018-05-09T07:30:37.000Z</time>
      </trkpt>
      <trkpt lat="44.24547" lon="7.04835">
        <ele>1953</ele>
        <time>2018-05-09T07:30:42.000Z</time>
      </trkpt>
      <trkpt lat="44.24549" lon="7.04835">
        <ele>1953.1999511719</ele>
        <time>2018-05-09T07:30:45.000Z</time>
      </trkpt>
      <trkpt lat="44.24533" lon="7.04843">
        <ele>1953.1999511719</ele>
        <time>2018-05-09T07:30:49.000Z</time>
      </trkpt>
      <trkpt lat="44.2453" lon="7.04843">
        <ele>1953.1999511719</ele>
        <time>2018-05-09T07:30:51.000Z</time>
      </trkpt>
      <trkpt lat="44.24532" lon="7.04843">
        <ele>1953.1999511719</ele>
        <time>2018-05-09T07:30:53.000Z</time>
      </trkpt>
      <trkpt lat="44.24531" lon="7.04837">
        <ele>1953.1999511719</ele>
        <time>2018-05-09T07:30:56.000Z</time>
      </trkpt>
      <trkpt lat="44.24543" lon="7.04834">
        <ele>1953.1999511719</ele>
        <time>2018-05-09T07:30:59.000Z</time>
      </trkpt>
      <trkpt lat="44.24545" lon="7.04834">
        <ele>1953.1999511719</ele>
        <time>2018-05-09T07:31:04.000Z</time>
      </trkpt>
      <trkpt lat="44.24546" lon="7.04833">
        <ele>1953.4000244141</ele>
        <time>2018-05-09T07:31:05.000Z</time>
      </trkpt>
      <trkpt lat="44.24559" lon="7.0483">
        <ele>1953.4000244141</ele>
        <time>2018-05-09T07:31:09.000Z</time>
      </trkpt>
      <trkpt lat="44.24561" lon="7.0483">
        <ele>1953.5999755859</ele>
        <time>2018-05-09T07:31:11.000Z</time>
      </trkpt>
      <trkpt lat="44.24558" lon="7.04829">
        <ele>1953.5999755859</ele>
        <time>2018-05-09T07:31:14.000Z</time>
      </trkpt>
      <trkpt lat="44.24556" lon="7.04828">
        <ele>1953.5999755859</ele>
        <time>2018-05-09T07:31:15.000Z</time>
      </trkpt>
      <trkpt lat="44.24565" lon="7.04828">
        <ele>1953.5999755859</ele>
        <time>2018-05-09T07:31:20.000Z</time>
      </trkpt>
      <trkpt lat="44.24572" lon="7.04829">
        <ele>1953.5999755859</ele>
        <time>2018-05-09T07:31:25.000Z</time>
      </trkpt>
      <trkpt lat="44.24582" lon="7.04827">
        <ele>1953.8000488281</ele>
        <time>2018-05-09T07:31:32.000Z</time>
      </trkpt>
      <trkpt lat="44.24582" lon="7.04829">
        <ele>1954</ele>
        <time>2018-05-09T07:31:35.000Z</time>
      </trkpt>
      <trkpt lat="44.24582" lon="7.0483">
        <ele>1954</ele>
        <time>2018-05-09T07:31:38.000Z</time>
      </trkpt>
      <trkpt lat="44.2458" lon="7.04831">
        <ele>1954</ele>
        <time>2018-05-09T07:31:39.000Z</time>
      </trkpt>
      <trkpt lat="44.2458" lon="7.04831">
        <ele>1954</ele>
        <time>2018-05-09T07:31:40.000Z</time>
      </trkpt>
      <trkpt lat="44.2457" lon="7.04834">
        <ele>1954.1999511719</ele>
        <time>2018-05-09T07:31:45.000Z</time>
      </trkpt>
      <trkpt lat="44.24565" lon="7.04836">
        <ele>1954.4000244141</ele>
        <time>2018-05-09T07:31:46.000Z</time>
      </trkpt>
      <trkpt lat="44.24564" lon="7.04836">
        <ele>1954.4000244141</ele>
        <time>2018-05-09T07:31:47.000Z</time>
      </trkpt>
      <trkpt lat="44.24561" lon="7.04837">
        <ele>1954.5999755859</ele>
        <time>2018-05-09T07:31:48.000Z</time>
      </trkpt>
      <trkpt lat="44.2455" lon="7.04835">
        <ele>1955.1999511719</ele>
        <time>2018-05-09T07:31:52.000Z</time>
      </trkpt>
      <trkpt lat="44.24542" lon="7.04835">
        <ele>1955.5999755859</ele>
        <time>2018-05-09T07:31:55.000Z</time>
      </trkpt>
      <trkpt lat="44.2454" lon="7.04835">
        <ele>1955.8000488281</ele>
        <time>2018-05-09T07:31:56.000Z</time>
      </trkpt>
      <trkpt lat="44.24536" lon="7.04836">
        <ele>1955.8000488281</ele>
        <time>2018-05-09T07:31:57.000Z</time>
      </trkpt>
      <trkpt lat="44.24533" lon="7.04836">
        <ele>1956</ele>
        <time>2018-05-09T07:31:58.000Z</time>
      </trkpt>
      <trkpt lat="44.24526" lon="7.04837">
        <ele>1956.4000244141</ele>
        <time>2018-05-09T07:32:01.000Z</time>
      </trkpt>
      <trkpt lat="44.24513" lon="7.04843">
        <ele>1957.4000244141</ele>
        <time>2018-05-09T07:32:07.000Z</time>
      </trkpt>
      <trkpt lat="44.24511" lon="7.04844">
        <ele>1957.5999755859</ele>
        <time>2018-05-09T07:32:08.000Z</time>
      </trkpt>
      <trkpt lat="44.24505" lon="7.04844">
        <ele>1958.1999511719</ele>
        <time>2018-05-09T07:32:11.000Z</time>
      </trkpt>
      <trkpt lat="44.24508" lon="7.04842">
        <ele>1958.5999755859</ele>
        <time>2018-05-09T07:32:13.000Z</time>
      </trkpt>
      <trkpt lat="44.24508" lon="7.04841">
        <ele>1959</ele>
        <time>2018-05-09T07:32:14.000Z</time>
      </trkpt>
      <trkpt lat="44.24506" lon="7.04838">
        <ele>1959.5999755859</ele>
        <time>2018-05-09T07:32:18.000Z</time>
      </trkpt>
      <trkpt lat="44.24504" lon="7.04838">
        <ele>1959.5999755859</ele>
        <time>2018-05-09T07:32:19.000Z</time>
      </trkpt>
      <trkpt lat="44.24497" lon="7.04841">
        <ele>1960.8000488281</ele>
        <time>2018-05-09T07:32:24.000Z</time>
      </trkpt>
      <trkpt lat="44.24498" lon="7.04844">
        <ele>1960.8000488281</ele>
        <time>2018-05-09T07:32:25.000Z</time>
      </trkpt>
      <trkpt lat="44.24496" lon="7.04844">
        <ele>1960.8000488281</ele>
        <time>2018-05-09T07:32:26.000Z</time>
      </trkpt>
      <trkpt lat="44.24475" lon="7.04842">
        <ele>1961</ele>
        <time>2018-05-09T07:32:30.000Z</time>
      </trkpt>
      <trkpt lat="44.2447" lon="7.04844">
        <ele>1961.1999511719</ele>
        <time>2018-05-09T07:32:37.000Z</time>
      </trkpt>
      <trkpt lat="44.24481" lon="7.04845">
        <ele>1961</ele>
        <time>2018-05-09T07:32:45.000Z</time>
      </trkpt>
      <trkpt lat="44.24486" lon="7.04845">
        <ele>1961.1999511719</ele>
        <time>2018-05-09T07:32:51.000Z</time>
      </trkpt>
      <trkpt lat="44.24486" lon="7.04846">
        <ele>1961.1999511719</ele>
        <time>2018-05-09T07:32:54.000Z</time>
      </trkpt>
      <trkpt lat="44.24486" lon="7.04847">
        <ele>1961.1999511719</ele>
        <time>2018-05-09T07:32:55.000Z</time>
      </trkpt>
      <trkpt lat="44.24485" lon="7.04847">
        <ele>1961.4000244141</ele>
        <time>2018-05-09T07:32:56.000Z</time>
      </trkpt>
      <trkpt lat="44.24486" lon="7.04847">
        <ele>1961.4000244141</ele>
        <time>2018-05-09T07:32:57.000Z</time>
      </trkpt>
      <trkpt lat="44.24488" lon="7.04846">
        <ele>1961.5999755859</ele>
        <time>2018-05-09T07:32:59.000Z</time>
      </trkpt>
      <trkpt lat="44.24486" lon="7.04851">
        <ele>1961.5999755859</ele>
        <time>2018-05-09T07:33:03.000Z</time>
      </trkpt>
      <trkpt lat="44.24486" lon="7.04851">
        <ele>1961.4000244141</ele>
        <time>2018-05-09T07:33:04.000Z</time>
      </trkpt>
      <trkpt lat="44.24493" lon="7.04848">
        <ele>1961.1999511719</ele>
        <time>2018-05-09T07:33:06.000Z</time>
      </trkpt>
      <trkpt lat="44.24494" lon="7.04848">
        <ele>1961.1999511719</ele>
        <time>2018-05-09T07:33:09.000Z</time>
      </trkpt>
      <trkpt lat="44.24499" lon="7.04846">
        <ele>1961.5999755859</ele>
        <time>2018-05-09T07:33:12.000Z</time>
      </trkpt>
      <trkpt lat="44.24503" lon="7.04844">
        <ele>1961.8000488281</ele>
        <time>2018-05-09T07:33:14.000Z</time>
      </trkpt>
      <trkpt lat="44.24508" lon="7.04843">
        <ele>1962</ele>
        <time>2018-05-09T07:33:18.000Z</time>
      </trkpt>
      <trkpt lat="44.24508" lon="7.04844">
        <ele>1962</ele>
        <time>2018-05-09T07:33:20.000Z</time>
      </trkpt>
      <trkpt lat="44.24522" lon="7.04836">
        <ele>1962</ele>
        <time>2018-05-09T07:33:21.000Z</time>
      </trkpt>
      <trkpt lat="44.24523" lon="7.04836">
        <ele>1962</ele>
        <time>2018-05-09T07:33:22.000Z</time>
      </trkpt>
      <trkpt lat="44.24532" lon="7.04832">
        <ele>1961.5999755859</ele>
        <time>2018-05-09T07:33:27.000Z</time>
      </trkpt>
      <trkpt lat="44.24532" lon="7.04835">
        <ele>1961.5999755859</ele>
        <time>2018-05-09T07:33:31.000Z</time>
      </trkpt>
      <trkpt lat="44.24534" lon="7.04836">
        <ele>1961.4000244141</ele>
        <time>2018-05-09T07:33:32.000Z</time>
      </trkpt>
      <trkpt lat="44.24531" lon="7.04836">
        <ele>1961.5999755859</ele>
        <time>2018-05-09T07:33:40.000Z</time>
      </trkpt>
      <trkpt lat="44.24529" lon="7.04836">
        <ele>1961.8000488281</ele>
        <time>2018-05-09T07:33:43.000Z</time>
      </trkpt>
      <trkpt lat="44.24529" lon="7.04838">
        <ele>1961.5999755859</ele>
        <time>2018-05-09T07:33:47.000Z</time>
      </trkpt>
      <trkpt lat="44.2453" lon="7.04838">
        <ele>1961.5999755859</ele>
        <time>2018-05-09T07:33:48.000Z</time>
      </trkpt>
      <trkpt lat="44.24531" lon="7.04838">
        <ele>1961.4000244141</ele>
        <time>2018-05-09T07:33:49.000Z</time>
      </trkpt>
      <trkpt lat="44.24536" lon="7.04837">
        <ele>1961.1999511719</ele>
        <time>2018-05-09T07:33:53.000Z</time>
      </trkpt>
      <trkpt lat="44.24535" lon="7.0484">
        <ele>1961.1999511719</ele>
        <time>2018-05-09T07:33:56.000Z</time>
      </trkpt>
      <trkpt lat="44.24531" lon="7.0484">
        <ele>1961.8000488281</ele>
        <time>2018-05-09T07:34:01.000Z</time>
      </trkpt>
      <trkpt lat="44.2453" lon="7.0484">
        <ele>1961.8000488281</ele>
        <time>2018-05-09T07:34:02.000Z</time>
      </trkpt>
      <trkpt lat="44.24529" lon="7.04841">
        <ele>1961.8000488281</ele>
        <time>2018-05-09T07:34:03.000Z</time>
      </trkpt>
      <trkpt lat="44.24528" lon="7.04842">
        <ele>1961.5999755859</ele>
        <time>2018-05-09T07:34:04.000Z</time>
      </trkpt>
      <trkpt lat="44.24525" lon="7.04842">
        <ele>1961.5999755859</ele>
        <time>2018-05-09T07:34:07.000Z</time>
      </trkpt>
      <trkpt lat="44.24511" lon="7.04851">
        <ele>1961.4000244141</ele>
        <time>2018-05-09T07:34:09.000Z</time>
      </trkpt>
      <trkpt lat="44.24501" lon="7.04853">
        <ele>1961.4000244141</ele>
        <time>2018-05-09T07:34:12.000Z</time>
      </trkpt>
      <trkpt lat="44.24488" lon="7.04853">
        <ele>1961.1999511719</ele>
        <time>2018-05-09T07:34:14.000Z</time>
      </trkpt>
      <trkpt lat="44.24488" lon="7.04851">
        <ele>1961</ele>
        <time>2018-05-09T07:34:15.000Z</time>
      </trkpt>
      <trkpt lat="44.24505" lon="7.04844">
        <ele>1960.8000488281</ele>
        <time>2018-05-09T07:34:20.000Z</time>
      </trkpt>
      <trkpt lat="44.24507" lon="7.04842">
        <ele>1960.8000488281</ele>
        <time>2018-05-09T07:34:22.000Z</time>
      </trkpt>
      <trkpt lat="44.24506" lon="7.04843">
        <ele>1961</ele>
        <time>2018-05-09T07:34:24.000Z</time>
      </trkpt>
      <trkpt lat="44.24504" lon="7.04843">
        <ele>1961.4000244141</ele>
        <time>2018-05-09T07:34:27.000Z</time>
      </trkpt>
      <trkpt lat="44.24503" lon="7.04843">
        <ele>1961.8000488281</ele>
        <time>2018-05-09T07:34:28.000Z</time>
      </trkpt>
      <trkpt lat="44.24502" lon="7.04843">
        <ele>1962</ele>
        <time>2018-05-09T07:34:29.000Z</time>
      </trkpt>
      <trkpt lat="44.245" lon="7.04844">
        <ele>1962.5999755859</ele>
        <time>2018-05-09T07:34:32.000Z</time>
      </trkpt>
      <trkpt lat="44.24496" lon="7.04846">
        <ele>1962.8000488281</ele>
        <time>2018-05-09T07:34:35.000Z</time>
      </trkpt>
      <trkpt lat="44.24495" lon="7.04847">
        <ele>1963</ele>
        <time>2018-05-09T07:34:36.000Z</time>
      </trkpt>
      <trkpt lat="44.24491" lon="7.04847">
        <ele>1964</ele>
        <time>2018-05-09T07:34:39.000Z</time>
      </trkpt>
      <trkpt lat="44.24486" lon="7.04849">
        <ele>1964.5999755859</ele>
        <time>2018-05-09T07:34:42.000Z</time>
      </trkpt>
      <trkpt lat="44.24484" lon="7.04849">
        <ele>1965</ele>
        <time>2018-05-09T07:34:44.000Z</time>
      </trkpt>
      <trkpt lat="44.24484" lon="7.04849">
        <ele>1965.4000244141</ele>
        <time>2018-05-09T07:34:45.000Z</time>
      </trkpt>
      <trkpt lat="44.24484" lon="7.04849">
        <ele>1965.8000488281</ele>
        <time>2018-05-09T07:34:47.000Z</time>
      </trkpt>
      <trkpt lat="44.24484" lon="7.04848">
        <ele>1966.1999511719</ele>
        <time>2018-05-09T07:34:49.000Z</time>
      </trkpt>
      <trkpt lat="44.24483" lon="7.04849">
        <ele>1966.1999511719</ele>
        <time>2018-05-09T07:34:51.000Z</time>
      </trkpt>
      <trkpt lat="44.24483" lon="7.04848">
        <ele>1966.5999755859</ele>
        <time>2018-05-09T07:34:54.000Z</time>
      </trkpt>
      <trkpt lat="44.24484" lon="7.04848">
        <ele>1967.1999511719</ele>
        <time>2018-05-09T07:34:57.000Z</time>
      </trkpt>
      <trkpt lat="44.24484" lon="7.04848">
        <ele>1967.4000244141</ele>
        <time>2018-05-09T07:34:58.000Z</time>
      </trkpt>
      <trkpt lat="44.24485" lon="7.04847">
        <ele>1968</ele>
        <time>2018-05-09T07:35:00.000Z</time>
      </trkpt>
      <trkpt lat="44.24485" lon="7.04846">
        <ele>1968.4000244141</ele>
        <time>2018-05-09T07:35:01.000Z</time>
      </trkpt>
      <trkpt lat="44.24478" lon="7.04847">
        <ele>1969.1999511719</ele>
        <time>2018-05-09T07:35:06.000Z</time>
      </trkpt>
      <trkpt lat="44.24476" lon="7.04847">
        <ele>1969.4000244141</ele>
        <time>2018-05-09T07:35:07.000Z</time>
      </trkpt>
      <trkpt lat="44.24477" lon="7.04848">
        <ele>1969.5999755859</ele>
        <time>2018-05-09T07:35:09.000Z</time>
      </trkpt>
      <trkpt lat="44.24479" lon="7.0485">
        <ele>1969.8000488281</ele>
        <time>2018-05-09T07:35:10.000Z</time>
      </trkpt>
      <trkpt lat="44.24481" lon="7.04853">
        <ele>1970.1999511719</ele>
        <time>2018-05-09T07:35:12.000Z</time>
      </trkpt>
      <trkpt lat="44.24483" lon="7.04853">
        <ele>1970.5999755859</ele>
        <time>2018-05-09T07:35:13.000Z</time>
      </trkpt>
      <trkpt lat="44.24486" lon="7.04854">
        <ele>1971.1999511719</ele>
        <time>2018-05-09T07:35:15.000Z</time>
      </trkpt>
      <trkpt lat="44.2449" lon="7.04857">
        <ele>1971.5999755859</ele>
        <time>2018-05-09T07:35:18.000Z</time>
      </trkpt>
      <trkpt lat="44.24492" lon="7.04862">
        <ele>1972.5999755859</ele>
        <time>2018-05-09T07:35:23.000Z</time>
      </trkpt>
      <trkpt lat="44.24493" lon="7.04863">
        <ele>1972.8000488281</ele>
        <time>2018-05-09T07:35:24.000Z</time>
      </trkpt>
      <trkpt lat="44.24494" lon="7.04863">
        <ele>1973</ele>
        <time>2018-05-09T07:35:25.000Z</time>
      </trkpt>
      <trkpt lat="44.24496" lon="7.04865">
        <ele>1973.4000244141</ele>
        <time>2018-05-09T07:35:27.000Z</time>
      </trkpt>
      <trkpt lat="44.24498" lon="7.04869">
        <ele>1974</ele>
        <time>2018-05-09T07:35:30.000Z</time>
      </trkpt>
      <trkpt lat="44.24497" lon="7.04872">
        <ele>1974.1999511719</ele>
        <time>2018-05-09T07:35:32.000Z</time>
      </trkpt>
      <trkpt lat="44.24496" lon="7.04877">
        <ele>1975.1999511719</ele>
        <time>2018-05-09T07:35:37.000Z</time>
      </trkpt>
      <trkpt lat="44.24495" lon="7.04878">
        <ele>1975.4000244141</ele>
        <time>2018-05-09T07:35:39.000Z</time>
      </trkpt>
      <trkpt lat="44.24495" lon="7.04881">
        <ele>1976</ele>
        <time>2018-05-09T07:35:42.000Z</time>
      </trkpt>
      <trkpt lat="44.24491" lon="7.04882">
        <ele>1976.1999511719</ele>
        <time>2018-05-09T07:35:43.000Z</time>
      </trkpt>
      <trkpt lat="44.24491" lon="7.04884">
        <ele>1976.4000244141</ele>
        <time>2018-05-09T07:35:45.000Z</time>
      </trkpt>
      <trkpt lat="44.24493" lon="7.04887">
        <ele>1977.1999511719</ele>
        <time>2018-05-09T07:35:51.000Z</time>
      </trkpt>
      <trkpt lat="44.24492" lon="7.04887">
        <ele>1977.4000244141</ele>
        <time>2018-05-09T07:35:52.000Z</time>
      </trkpt>
      <trkpt lat="44.24492" lon="7.04888">
        <ele>1977.8000488281</ele>
        <time>2018-05-09T07:35:55.000Z</time>
      </trkpt>
      <trkpt lat="44.24493" lon="7.04888">
        <ele>1978</ele>
        <time>2018-05-09T07:35:57.000Z</time>
      </trkpt>
      <trkpt lat="44.24487" lon="7.04883">
        <ele>1978.1999511719</ele>
        <time>2018-05-09T07:36:10.000Z</time>
      </trkpt>
      <trkpt lat="44.24484" lon="7.04883">
        <ele>1978.5999755859</ele>
        <time>2018-05-09T07:36:12.000Z</time>
      </trkpt>
      <trkpt lat="44.24482" lon="7.04883">
        <ele>1979.1999511719</ele>
        <time>2018-05-09T07:36:15.000Z</time>
      </trkpt>
      <trkpt lat="44.2448" lon="7.04883">
        <ele>1979.5999755859</ele>
        <time>2018-05-09T07:36:17.000Z</time>
      </trkpt>
      <trkpt lat="44.24476" lon="7.04885">
        <ele>1979.8000488281</ele>
        <time>2018-05-09T07:36:18.000Z</time>
      </trkpt>
      <trkpt lat="44.24471" lon="7.04884">
        <ele>1980.8000488281</ele>
        <time>2018-05-09T07:36:24.000Z</time>
      </trkpt>
      <trkpt lat="44.24468" lon="7.0488">
        <ele>1982</ele>
        <time>2018-05-09T07:36:32.000Z</time>
      </trkpt>
      <trkpt lat="44.24469" lon="7.0488">
        <ele>1982.1999511719</ele>
        <time>2018-05-09T07:36:33.000Z</time>
      </trkpt>
      <trkpt lat="44.24468" lon="7.0488">
        <ele>1982.8000488281</ele>
        <time>2018-05-09T07:36:37.000Z</time>
      </trkpt>
      <trkpt lat="44.24467" lon="7.0488">
        <ele>1983</ele>
        <time>2018-05-09T07:36:38.000Z</time>
      </trkpt>
      <trkpt lat="44.24464" lon="7.04881">
        <ele>1984.1999511719</ele>
        <time>2018-05-09T07:36:44.000Z</time>
      </trkpt>
      <trkpt lat="44.24461" lon="7.04883">
        <ele>1985.1999511719</ele>
        <time>2018-05-09T07:36:50.000Z</time>
      </trkpt>
      <trkpt lat="44.24458" lon="7.04886">
        <ele>1986.1999511719</ele>
        <time>2018-05-09T07:36:56.000Z</time>
      </trkpt>
      <trkpt lat="44.24453" lon="7.04886">
        <ele>1987.1999511719</ele>
        <time>2018-05-09T07:37:05.000Z</time>
      </trkpt>
      <trkpt lat="44.24445" lon="7.04883">
        <ele>1988.5999755859</ele>
        <time>2018-05-09T07:37:12.000Z</time>
      </trkpt>
      <trkpt lat="44.24445" lon="7.04877">
        <ele>1989.5999755859</ele>
        <time>2018-05-09T07:37:18.000Z</time>
      </trkpt>
      <trkpt lat="44.24445" lon="7.04874">
        <ele>1990.1999511719</ele>
        <time>2018-05-09T07:37:21.000Z</time>
      </trkpt>
      <trkpt lat="44.24444" lon="7.04871">
        <ele>1990.4000244141</ele>
        <time>2018-05-09T07:37:24.000Z</time>
      </trkpt>
      <trkpt lat="44.24442" lon="7.04869">
        <ele>1990.8000488281</ele>
        <time>2018-05-09T07:37:26.000Z</time>
      </trkpt>
      <trkpt lat="44.2444" lon="7.04867">
        <ele>1991.1999511719</ele>
        <time>2018-05-09T07:37:28.000Z</time>
      </trkpt>
      <trkpt lat="44.24441" lon="7.04865">
        <ele>1991.5999755859</ele>
        <time>2018-05-09T07:37:30.000Z</time>
      </trkpt>
      <trkpt lat="44.24441" lon="7.04865">
        <ele>1991.8000488281</ele>
        <time>2018-05-09T07:37:31.000Z</time>
      </trkpt>
      <trkpt lat="44.24438" lon="7.04861">
        <ele>1993</ele>
        <time>2018-05-09T07:37:36.000Z</time>
      </trkpt>
      <trkpt lat="44.24437" lon="7.0486">
        <ele>1994</ele>
        <time>2018-05-09T07:37:41.000Z</time>
      </trkpt>
      <trkpt lat="44.24439" lon="7.04865">
        <ele>1995</ele>
        <time>2018-05-09T07:38:00.000Z</time>
      </trkpt>
      <trkpt lat="44.24433" lon="7.0487">
        <ele>1995.8000488281</ele>
        <time>2018-05-09T07:38:05.000Z</time>
      </trkpt>
      <trkpt lat="44.24431" lon="7.04872">
        <ele>1996</ele>
        <time>2018-05-09T07:38:07.000Z</time>
      </trkpt>
      <trkpt lat="44.24431" lon="7.04873">
        <ele>1996.1999511719</ele>
        <time>2018-05-09T07:38:08.000Z</time>
      </trkpt>
      <trkpt lat="44.2442" lon="7.04886">
        <ele>1997.1999511719</ele>
        <time>2018-05-09T07:38:20.000Z</time>
      </trkpt>
      <trkpt lat="44.24414" lon="7.04891">
        <ele>1998.4000244141</ele>
        <time>2018-05-09T07:38:25.000Z</time>
      </trkpt>
      <trkpt lat="44.24411" lon="7.04895">
        <ele>1999.4000244141</ele>
        <time>2018-05-09T07:38:31.000Z</time>
      </trkpt>
      <trkpt lat="44.24414" lon="7.04899">
        <ele>2000.5999755859</ele>
        <time>2018-05-09T07:38:39.000Z</time>
      </trkpt>
      <trkpt lat="44.244" lon="7.04903">
        <ele>2001.1999511719</ele>
        <time>2018-05-09T07:38:45.000Z</time>
      </trkpt>
      <trkpt lat="44.24403" lon="7.04907">
        <ele>2001.4000244141</ele>
        <time>2018-05-09T07:38:50.000Z</time>
      </trkpt>
      <trkpt lat="44.24404" lon="7.04908">
        <ele>2001.5999755859</ele>
        <time>2018-05-09T07:38:51.000Z</time>
      </trkpt>
      <trkpt lat="44.24407" lon="7.04907">
        <ele>2002.4000244141</ele>
        <time>2018-05-09T07:38:56.000Z</time>
      </trkpt>
      <trkpt lat="44.24408" lon="7.04907">
        <ele>2002.5999755859</ele>
        <time>2018-05-09T07:38:58.000Z</time>
      </trkpt>
      <trkpt lat="44.24398" lon="7.04908">
        <ele>2003.4000244141</ele>
        <time>2018-05-09T07:39:04.000Z</time>
      </trkpt>
      <trkpt lat="44.24398" lon="7.04909">
        <ele>2003.8000488281</ele>
        <time>2018-05-09T07:39:05.000Z</time>
      </trkpt>
      <trkpt lat="44.24398" lon="7.04908">
        <ele>2004.1999511719</ele>
        <time>2018-05-09T07:39:06.000Z</time>
      </trkpt>
      <trkpt lat="44.24398" lon="7.04906">
        <ele>2004.8000488281</ele>
        <time>2018-05-09T07:39:10.000Z</time>
      </trkpt>
      <trkpt lat="44.24397" lon="7.04905">
        <ele>2004.8000488281</ele>
        <time>2018-05-09T07:39:11.000Z</time>
      </trkpt>
      <trkpt lat="44.24398" lon="7.04901">
        <ele>2006</ele>
        <time>2018-05-09T07:39:17.000Z</time>
      </trkpt>
      <trkpt lat="44.24399" lon="7.04899">
        <ele>2007</ele>
        <time>2018-05-09T07:39:24.000Z</time>
      </trkpt>
      <trkpt lat="44.24417" lon="7.04891">
        <ele>2007.1999511719</ele>
        <time>2018-05-09T07:39:34.000Z</time>
      </trkpt>
      <trkpt lat="44.24426" lon="7.04892">
        <ele>2007.1999511719</ele>
        <time>2018-05-09T07:39:38.000Z</time>
      </trkpt>
      <trkpt lat="44.24423" lon="7.04891">
        <ele>2007.1999511719</ele>
        <time>2018-05-09T07:39:40.000Z</time>
      </trkpt>
      <trkpt lat="44.24419" lon="7.04895">
        <ele>2007.1999511719</ele>
        <time>2018-05-09T07:39:43.000Z</time>
      </trkpt>
      <trkpt lat="44.24418" lon="7.04899">
        <ele>2007.1999511719</ele>
        <time>2018-05-09T07:39:46.000Z</time>
      </trkpt>
      <trkpt lat="44.24409" lon="7.04898">
        <ele>2007.1999511719</ele>
        <time>2018-05-09T07:39:52.000Z</time>
      </trkpt>
      <trkpt lat="44.24409" lon="7.04896">
        <ele>2007</ele>
        <time>2018-05-09T07:39:54.000Z</time>
      </trkpt>
      <trkpt lat="44.24409" lon="7.04896">
        <ele>2007</ele>
        <time>2018-05-09T07:39:55.000Z</time>
      </trkpt>
      <trkpt lat="44.24408" lon="7.04895">
        <ele>2007.1999511719</ele>
        <time>2018-05-09T07:39:56.000Z</time>
      </trkpt>
      <trkpt lat="44.24407" lon="7.04893">
        <ele>2007.5999755859</ele>
        <time>2018-05-09T07:39:58.000Z</time>
      </trkpt>
      <trkpt lat="44.24404" lon="7.0489">
        <ele>2008.1999511719</ele>
        <time>2018-05-09T07:40:01.000Z</time>
      </trkpt>
      <trkpt lat="44.244" lon="7.04885">
        <ele>2009.1999511719</ele>
        <time>2018-05-09T07:40:05.000Z</time>
      </trkpt>
      <trkpt lat="44.244" lon="7.04884">
        <ele>2009.5999755859</ele>
        <time>2018-05-09T07:40:07.000Z</time>
      </trkpt>
      <trkpt lat="44.24398" lon="7.0488">
        <ele>2010.1999511719</ele>
        <time>2018-05-09T07:40:12.000Z</time>
      </trkpt>
      <trkpt lat="44.24399" lon="7.0488">
        <ele>2010.4000244141</ele>
        <time>2018-05-09T07:40:13.000Z</time>
      </trkpt>
      <trkpt lat="44.24398" lon="7.04879">
        <ele>2011</ele>
        <time>2018-05-09T07:40:15.000Z</time>
      </trkpt>
      <trkpt lat="44.24397" lon="7.04879">
        <ele>2011.4000244141</ele>
        <time>2018-05-09T07:40:17.000Z</time>
      </trkpt>
      <trkpt lat="44.24396" lon="7.04879">
        <ele>2011.5999755859</ele>
        <time>2018-05-09T07:40:18.000Z</time>
      </trkpt>
      <trkpt lat="44.24406" lon="7.04875">
        <ele>2012.1999511719</ele>
        <time>2018-05-09T07:40:22.000Z</time>
      </trkpt>
      <trkpt lat="44.24405" lon="7.04884">
        <ele>2012.8000488281</ele>
        <time>2018-05-09T07:40:25.000Z</time>
      </trkpt>
      <trkpt lat="44.24404" lon="7.04886">
        <ele>2012.8000488281</ele>
        <time>2018-05-09T07:40:26.000Z</time>
      </trkpt>
      <trkpt lat="44.24404" lon="7.04888">
        <ele>2013</ele>
        <time>2018-05-09T07:40:27.000Z</time>
      </trkpt>
      <trkpt lat="44.24404" lon="7.0489">
        <ele>2013.4000244141</ele>
        <time>2018-05-09T07:40:29.000Z</time>
      </trkpt>
      <trkpt lat="44.24408" lon="7.04892">
        <ele>2013.8000488281</ele>
        <time>2018-05-09T07:40:31.000Z</time>
      </trkpt>
      <trkpt lat="44.24402" lon="7.04903">
        <ele>2014.1999511719</ele>
        <time>2018-05-09T07:40:40.000Z</time>
      </trkpt>
      <trkpt lat="44.24402" lon="7.04904">
        <ele>2014.4000244141</ele>
        <time>2018-05-09T07:40:41.000Z</time>
      </trkpt>
      <trkpt lat="44.24403" lon="7.04904">
        <ele>2014.8000488281</ele>
        <time>2018-05-09T07:40:43.000Z</time>
      </trkpt>
      <trkpt lat="44.24403" lon="7.04903">
        <ele>2015.1999511719</ele>
        <time>2018-05-09T07:40:44.000Z</time>
      </trkpt>
      <trkpt lat="44.24401" lon="7.04903">
        <ele>2015.8000488281</ele>
        <time>2018-05-09T07:40:48.000Z</time>
      </trkpt>
      <trkpt lat="44.24397" lon="7.04902">
        <ele>2016.4000244141</ele>
        <time>2018-05-09T07:40:54.000Z</time>
      </trkpt>
      <trkpt lat="44.24395" lon="7.04905">
        <ele>2017</ele>
        <time>2018-05-09T07:40:58.000Z</time>
      </trkpt>
      <trkpt lat="44.24392" lon="7.04907">
        <ele>2017.8000488281</ele>
        <time>2018-05-09T07:41:01.000Z</time>
      </trkpt>
      <trkpt lat="44.24391" lon="7.04909">
        <ele>2018.1999511719</ele>
        <time>2018-05-09T07:41:03.000Z</time>
      </trkpt>
      <trkpt lat="44.24397" lon="7.04911">
        <ele>2019.1999511719</ele>
        <time>2018-05-09T07:41:10.000Z</time>
      </trkpt>
      <trkpt lat="44.24395" lon="7.04914">
        <ele>2019.5999755859</ele>
        <time>2018-05-09T07:41:13.000Z</time>
      </trkpt>
      <trkpt lat="44.24394" lon="7.04918">
        <ele>2020.4000244141</ele>
        <time>2018-05-09T07:41:17.000Z</time>
      </trkpt>
      <trkpt lat="44.24383" lon="7.04916">
        <ele>2021.4000244141</ele>
        <time>2018-05-09T07:41:37.000Z</time>
      </trkpt>
      <trkpt lat="44.24377" lon="7.04913">
        <ele>2022.5999755859</ele>
        <time>2018-05-09T07:41:44.000Z</time>
      </trkpt>
      <trkpt lat="44.24374" lon="7.04911">
        <ele>2023.5999755859</ele>
        <time>2018-05-09T07:41:49.000Z</time>
      </trkpt>
      <trkpt lat="44.24372" lon="7.04908">
        <ele>2024.8000488281</ele>
        <time>2018-05-09T07:41:55.000Z</time>
      </trkpt>
      <trkpt lat="44.24367" lon="7.04905">
        <ele>2025.8000488281</ele>
        <time>2018-05-09T07:42:02.000Z</time>
      </trkpt>
      <trkpt lat="44.24364" lon="7.04903">
        <ele>2026.8000488281</ele>
        <time>2018-05-09T07:42:07.000Z</time>
      </trkpt>
      <trkpt lat="44.24365" lon="7.04906">
        <ele>2028</ele>
        <time>2018-05-09T07:42:14.000Z</time>
      </trkpt>
      <trkpt lat="44.24364" lon="7.04914">
        <ele>2029</ele>
        <time>2018-05-09T07:42:21.000Z</time>
      </trkpt>
      <trkpt lat="44.24367" lon="7.04918">
        <ele>2030.1999511719</ele>
        <time>2018-05-09T07:42:27.000Z</time>
      </trkpt>
      <trkpt lat="44.24365" lon="7.04923">
        <ele>2030.5999755859</ele>
        <time>2018-05-09T07:42:44.000Z</time>
      </trkpt>
      <trkpt lat="44.24364" lon="7.04928">
        <ele>2030.8000488281</ele>
        <time>2018-05-09T07:42:48.000Z</time>
      </trkpt>
      <trkpt lat="44.24364" lon="7.04929">
        <ele>2031.1999511719</ele>
        <time>2018-05-09T07:42:50.000Z</time>
      </trkpt>
      <trkpt lat="44.24364" lon="7.0493">
        <ele>2031.4000244141</ele>
        <time>2018-05-09T07:42:51.000Z</time>
      </trkpt>
      <trkpt lat="44.24365" lon="7.04931">
        <ele>2031.5999755859</ele>
        <time>2018-05-09T07:42:52.000Z</time>
      </trkpt>
      <trkpt lat="44.24365" lon="7.04932">
        <ele>2031.8000488281</ele>
        <time>2018-05-09T07:42:53.000Z</time>
      </trkpt>
      <trkpt lat="44.24365" lon="7.04937">
        <ele>2032.4000244141</ele>
        <time>2018-05-09T07:42:58.000Z</time>
      </trkpt>
      <trkpt lat="44.24368" lon="7.04938">
        <ele>2032.8000488281</ele>
        <time>2018-05-09T07:43:00.000Z</time>
      </trkpt>
      <trkpt lat="44.2437" lon="7.04938">
        <ele>2033.1999511719</ele>
        <time>2018-05-09T07:43:02.000Z</time>
      </trkpt>
      <trkpt lat="44.24372" lon="7.0494">
        <ele>2033.5999755859</ele>
        <time>2018-05-09T07:43:05.000Z</time>
      </trkpt>
      <trkpt lat="44.24373" lon="7.0494">
        <ele>2033.8000488281</ele>
        <time>2018-05-09T07:43:06.000Z</time>
      </trkpt>
      <trkpt lat="44.24371" lon="7.04943">
        <ele>2034.5999755859</ele>
        <time>2018-05-09T07:43:11.000Z</time>
      </trkpt>
      <trkpt lat="44.24366" lon="7.04944">
        <ele>2034.8000488281</ele>
        <time>2018-05-09T07:43:16.000Z</time>
      </trkpt>
      <trkpt lat="44.24367" lon="7.04944">
        <ele>2034.8000488281</ele>
        <time>2018-05-09T07:43:21.000Z</time>
      </trkpt>
      <trkpt lat="44.24362" lon="7.04939">
        <ele>2035.5999755859</ele>
        <time>2018-05-09T07:43:32.000Z</time>
      </trkpt>
      <trkpt lat="44.24361" lon="7.04939">
        <ele>2035.8000488281</ele>
        <time>2018-05-09T07:43:33.000Z</time>
      </trkpt>
      <trkpt lat="44.24356" lon="7.04938">
        <ele>2036.5999755859</ele>
        <time>2018-05-09T07:43:38.000Z</time>
      </trkpt>
      <trkpt lat="44.24355" lon="7.04938">
        <ele>2036.8000488281</ele>
        <time>2018-05-09T07:43:40.000Z</time>
      </trkpt>
      <trkpt lat="44.24352" lon="7.04936">
        <ele>2038</ele>
        <time>2018-05-09T07:43:46.000Z</time>
      </trkpt>
      <trkpt lat="44.24355" lon="7.04934">
        <ele>2038.1999511719</ele>
        <time>2018-05-09T07:43:58.000Z</time>
      </trkpt>
      <trkpt lat="44.24353" lon="7.04933">
        <ele>2038.4000244141</ele>
        <time>2018-05-09T07:44:01.000Z</time>
      </trkpt>
      <trkpt lat="44.24352" lon="7.04932">
        <ele>2038.4000244141</ele>
        <time>2018-05-09T07:44:02.000Z</time>
      </trkpt>
      <trkpt lat="44.24351" lon="7.04932">
        <ele>2038.8000488281</ele>
        <time>2018-05-09T07:44:05.000Z</time>
      </trkpt>
      <trkpt lat="44.24349" lon="7.04931">
        <ele>2039</ele>
        <time>2018-05-09T07:44:07.000Z</time>
      </trkpt>
      <trkpt lat="44.24345" lon="7.04931">
        <ele>2040</ele>
        <time>2018-05-09T07:44:13.000Z</time>
      </trkpt>
      <trkpt lat="44.24344" lon="7.0493">
        <ele>2040.1999511719</ele>
        <time>2018-05-09T07:44:14.000Z</time>
      </trkpt>
      <trkpt lat="44.24338" lon="7.04931">
        <ele>2041.1999511719</ele>
        <time>2018-05-09T07:44:21.000Z</time>
      </trkpt>
      <trkpt lat="44.24337" lon="7.04928">
        <ele>2042</ele>
        <time>2018-05-09T07:44:25.000Z</time>
      </trkpt>
      <trkpt lat="44.24337" lon="7.04929">
        <ele>2042.1999511719</ele>
        <time>2018-05-09T07:44:27.000Z</time>
      </trkpt>
      <trkpt lat="44.24336" lon="7.0493">
        <ele>2043.1999511719</ele>
        <time>2018-05-09T07:44:35.000Z</time>
      </trkpt>
      <trkpt lat="44.24337" lon="7.04938">
        <ele>2043.8000488281</ele>
        <time>2018-05-09T07:44:46.000Z</time>
      </trkpt>
      <trkpt lat="44.24338" lon="7.0494">
        <ele>2044</ele>
        <time>2018-05-09T07:44:48.000Z</time>
      </trkpt>
      <trkpt lat="44.2434" lon="7.04941">
        <ele>2044.4000244141</ele>
        <time>2018-05-09T07:44:50.000Z</time>
      </trkpt>
      <trkpt lat="44.24342" lon="7.04945">
        <ele>2045.4000244141</ele>
        <time>2018-05-09T07:44:57.000Z</time>
      </trkpt>
      <trkpt lat="44.24343" lon="7.04951">
        <ele>2046.4000244141</ele>
        <time>2018-05-09T07:45:06.000Z</time>
      </trkpt>
      <trkpt lat="44.24342" lon="7.04958">
        <ele>2047.4000244141</ele>
        <time>2018-05-09T07:45:12.000Z</time>
      </trkpt>
      <trkpt lat="44.24345" lon="7.04959">
        <ele>2048.6000976562</ele>
        <time>2018-05-09T07:45:20.000Z</time>
      </trkpt>
      <trkpt lat="44.24335" lon="7.04971">
        <ele>2048.6000976562</ele>
        <time>2018-05-09T07:45:33.000Z</time>
      </trkpt>
      <trkpt lat="44.24336" lon="7.04972">
        <ele>2049.1999511719</ele>
        <time>2018-05-09T07:45:36.000Z</time>
      </trkpt>
      <trkpt lat="44.24339" lon="7.04972">
        <ele>2049.6000976562</ele>
        <time>2018-05-09T07:45:38.000Z</time>
      </trkpt>
      <trkpt lat="44.24342" lon="7.04976">
        <ele>2050.8000488281</ele>
        <time>2018-05-09T07:45:48.000Z</time>
      </trkpt>
      <trkpt lat="44.24342" lon="7.04972">
        <ele>2050.8000488281</ele>
        <time>2018-05-09T07:45:54.000Z</time>
      </trkpt>
      <trkpt lat="44.24339" lon="7.04969">
        <ele>2051.6000976562</ele>
        <time>2018-05-09T07:46:04.000Z</time>
      </trkpt>
      <trkpt lat="44.2434" lon="7.04968">
        <ele>2051.8000488281</ele>
        <time>2018-05-09T07:46:05.000Z</time>
      </trkpt>
      <trkpt lat="44.24336" lon="7.04968">
        <ele>2052.3999023438</ele>
        <time>2018-05-09T07:46:13.000Z</time>
      </trkpt>
      <trkpt lat="44.24333" lon="7.04969">
        <ele>2052.8000488281</ele>
        <time>2018-05-09T07:46:17.000Z</time>
      </trkpt>
      <trkpt lat="44.24326" lon="7.04966">
        <ele>2053.8000488281</ele>
        <time>2018-05-09T07:46:32.000Z</time>
      </trkpt>
      <trkpt lat="44.24321" lon="7.04963">
        <ele>2055</ele>
        <time>2018-05-09T07:46:38.000Z</time>
      </trkpt>
      <trkpt lat="44.2432" lon="7.0496">
        <ele>2055.6000976562</ele>
        <time>2018-05-09T07:46:42.000Z</time>
      </trkpt>
      <trkpt lat="44.2432" lon="7.04958">
        <ele>2056</ele>
        <time>2018-05-09T07:46:45.000Z</time>
      </trkpt>
      <trkpt lat="44.24317" lon="7.04956">
        <ele>2056.8000488281</ele>
        <time>2018-05-09T07:46:49.000Z</time>
      </trkpt>
      <trkpt lat="44.24316" lon="7.04956">
        <ele>2057</ele>
        <time>2018-05-09T07:46:50.000Z</time>
      </trkpt>
      <trkpt lat="44.24316" lon="7.04955">
        <ele>2057.3999023438</ele>
        <time>2018-05-09T07:46:53.000Z</time>
      </trkpt>
      <trkpt lat="44.24315" lon="7.04955">
        <ele>2057.6000976562</ele>
        <time>2018-05-09T07:46:54.000Z</time>
      </trkpt>
      <trkpt lat="44.24314" lon="7.04954">
        <ele>2058.1999511719</ele>
        <time>2018-05-09T07:46:59.000Z</time>
      </trkpt>
      <trkpt lat="44.24314" lon="7.04954">
        <ele>2058.6000976562</ele>
        <time>2018-05-09T07:47:02.000Z</time>
      </trkpt>
      <trkpt lat="44.24315" lon="7.04954">
        <ele>2059.1999511719</ele>
        <time>2018-05-09T07:47:09.000Z</time>
      </trkpt>
      <trkpt lat="44.24317" lon="7.04955">
        <ele>2059.8000488281</ele>
        <time>2018-05-09T07:47:16.000Z</time>
      </trkpt>
      <trkpt lat="44.24315" lon="7.0496">
        <ele>2060.3999023438</ele>
        <time>2018-05-09T07:47:21.000Z</time>
      </trkpt>
      <trkpt lat="44.24315" lon="7.04961">
        <ele>2060.3999023438</ele>
        <time>2018-05-09T07:47:23.000Z</time>
      </trkpt>
      <trkpt lat="44.24313" lon="7.04969">
        <ele>2061.3999023438</ele>
        <time>2018-05-09T07:47:31.000Z</time>
      </trkpt>
      <trkpt lat="44.24308" lon="7.04981">
        <ele>2062.3999023438</ele>
        <time>2018-05-09T07:47:39.000Z</time>
      </trkpt>
      <trkpt lat="44.24306" lon="7.04984">
        <ele>2062.6000976562</ele>
        <time>2018-05-09T07:47:41.000Z</time>
      </trkpt>
      <trkpt lat="44.24304" lon="7.04988">
        <ele>2063.1999511719</ele>
        <time>2018-05-09T07:47:46.000Z</time>
      </trkpt>
      <trkpt lat="44.24304" lon="7.0499">
        <ele>2063.6000976562</ele>
        <time>2018-05-09T07:47:49.000Z</time>
      </trkpt>
      <trkpt lat="44.24307" lon="7.0499">
        <ele>2064</ele>
        <time>2018-05-09T07:47:52.000Z</time>
      </trkpt>
      <trkpt lat="44.24309" lon="7.04992">
        <ele>2064.1999511719</ele>
        <time>2018-05-09T07:47:55.000Z</time>
      </trkpt>
      <trkpt lat="44.24312" lon="7.04993">
        <ele>2064.3999023438</ele>
        <time>2018-05-09T07:47:58.000Z</time>
      </trkpt>
      <trkpt lat="44.24314" lon="7.04994">
        <ele>2064.8000488281</ele>
        <time>2018-05-09T07:48:00.000Z</time>
      </trkpt>
      <trkpt lat="44.24316" lon="7.04995">
        <ele>2065.1999511719</ele>
        <time>2018-05-09T07:48:02.000Z</time>
      </trkpt>
      <trkpt lat="44.24317" lon="7.04997">
        <ele>2065.8000488281</ele>
        <time>2018-05-09T07:48:06.000Z</time>
      </trkpt>
      <trkpt lat="44.24315" lon="7.04996">
        <ele>2066.3999023438</ele>
        <time>2018-05-09T07:48:17.000Z</time>
      </trkpt>
      <trkpt lat="44.24312" lon="7.04994">
        <ele>2067</ele>
        <time>2018-05-09T07:48:24.000Z</time>
      </trkpt>
      <trkpt lat="44.24306" lon="7.04989">
        <ele>2067.6000976562</ele>
        <time>2018-05-09T07:48:30.000Z</time>
      </trkpt>
      <trkpt lat="44.24304" lon="7.04987">
        <ele>2068</ele>
        <time>2018-05-09T07:48:34.000Z</time>
      </trkpt>
      <trkpt lat="44.24301" lon="7.04982">
        <ele>2069.1999511719</ele>
        <time>2018-05-09T07:48:41.000Z</time>
      </trkpt>
      <trkpt lat="44.24299" lon="7.04978">
        <ele>2070.1999511719</ele>
        <time>2018-05-09T07:48:49.000Z</time>
      </trkpt>
      <trkpt lat="44.24298" lon="7.04978">
        <ele>2070.1999511719</ele>
        <time>2018-05-09T07:48:50.000Z</time>
      </trkpt>
      <trkpt lat="44.24293" lon="7.04977">
        <ele>2071</ele>
        <time>2018-05-09T07:48:54.000Z</time>
      </trkpt>
      <trkpt lat="44.24291" lon="7.0498">
        <ele>2071.1999511719</ele>
        <time>2018-05-09T07:48:56.000Z</time>
      </trkpt>
      <trkpt lat="44.24287" lon="7.04969">
        <ele>2071.3999023438</ele>
        <time>2018-05-09T07:49:14.000Z</time>
      </trkpt>
      <trkpt lat="44.24287" lon="7.04968">
        <ele>2071.6000976562</ele>
        <time>2018-05-09T07:49:16.000Z</time>
      </trkpt>
      <trkpt lat="44.2429" lon="7.0497">
        <ele>2072.1999511719</ele>
        <time>2018-05-09T07:49:19.000Z</time>
      </trkpt>
      <trkpt lat="44.24291" lon="7.04971">
        <ele>2072.3999023438</ele>
        <time>2018-05-09T07:49:20.000Z</time>
      </trkpt>
      <trkpt lat="44.2429" lon="7.04963">
        <ele>2073.6000976562</ele>
        <time>2018-05-09T07:49:35.000Z</time>
      </trkpt>
      <trkpt lat="44.24291" lon="7.04962">
        <ele>2073.8000488281</ele>
        <time>2018-05-09T07:49:36.000Z</time>
      </trkpt>
      <trkpt lat="44.24292" lon="7.04961">
        <ele>2074.1999511719</ele>
        <time>2018-05-09T07:49:39.000Z</time>
      </trkpt>
      <trkpt lat="44.24291" lon="7.04956">
        <ele>2074.6000976562</ele>
        <time>2018-05-09T07:49:46.000Z</time>
      </trkpt>
      <trkpt lat="44.24289" lon="7.04959">
        <ele>2075.6000976562</ele>
        <time>2018-05-09T07:49:52.000Z</time>
      </trkpt>
      <trkpt lat="44.24277" lon="7.04978">
        <ele>2076.6000976562</ele>
        <time>2018-05-09T07:50:10.000Z</time>
      </trkpt>
      <trkpt lat="44.24277" lon="7.04979">
        <ele>2076.6000976562</ele>
        <time>2018-05-09T07:50:11.000Z</time>
      </trkpt>
      <trkpt lat="44.24277" lon="7.04981">
        <ele>2077</ele>
        <time>2018-05-09T07:50:15.000Z</time>
      </trkpt>
      <trkpt lat="44.24279" lon="7.04984">
        <ele>2077.8000488281</ele>
        <time>2018-05-09T07:50:23.000Z</time>
      </trkpt>
      <trkpt lat="44.24282" lon="7.0499">
        <ele>2078.8000488281</ele>
        <time>2018-05-09T07:50:30.000Z</time>
      </trkpt>
      <trkpt lat="44.24282" lon="7.0499">
        <ele>2078.8000488281</ele>
        <time>2018-05-09T07:50:31.000Z</time>
      </trkpt>
      <trkpt lat="44.24283" lon="7.04993">
        <ele>2079.1999511719</ele>
        <time>2018-05-09T07:50:34.000Z</time>
      </trkpt>
      <trkpt lat="44.24282" lon="7.04995">
        <ele>2079.6000976562</ele>
        <time>2018-05-09T07:50:38.000Z</time>
      </trkpt>
      <trkpt lat="44.24281" lon="7.04997">
        <ele>2080</ele>
        <time>2018-05-09T07:50:43.000Z</time>
      </trkpt>
      <trkpt lat="44.24271" lon="7.05007">
        <ele>2081</ele>
        <time>2018-05-09T07:50:50.000Z</time>
      </trkpt>
      <trkpt lat="44.24271" lon="7.05009">
        <ele>2081</ele>
        <time>2018-05-09T07:50:51.000Z</time>
      </trkpt>
      <trkpt lat="44.24269" lon="7.0501">
        <ele>2081.3999023438</ele>
        <time>2018-05-09T07:50:54.000Z</time>
      </trkpt>
      <trkpt lat="44.24268" lon="7.05007">
        <ele>2082</ele>
        <time>2018-05-09T07:51:02.000Z</time>
      </trkpt>
      <trkpt lat="44.24279" lon="7.05001">
        <ele>2081.8000488281</ele>
        <time>2018-05-09T07:51:08.000Z</time>
      </trkpt>
      <trkpt lat="44.2427" lon="7.05001">
        <ele>2081.8000488281</ele>
        <time>2018-05-09T07:51:12.000Z</time>
      </trkpt>
      <trkpt lat="44.24265" lon="7.04996">
        <ele>2082.6000976562</ele>
        <time>2018-05-09T07:51:19.000Z</time>
      </trkpt>
      <trkpt lat="44.24262" lon="7.04994">
        <ele>2083</ele>
        <time>2018-05-09T07:51:21.000Z</time>
      </trkpt>
      <trkpt lat="44.24257" lon="7.0499">
        <ele>2083.6000976562</ele>
        <time>2018-05-09T07:51:24.000Z</time>
      </trkpt>
      <trkpt lat="44.24257" lon="7.04987">
        <ele>2084.1999511719</ele>
        <time>2018-05-09T07:51:27.000Z</time>
      </trkpt>
      <trkpt lat="44.24266" lon="7.04985">
        <ele>2085.1999511719</ele>
        <time>2018-05-09T07:51:34.000Z</time>
      </trkpt>
      <trkpt lat="44.2427" lon="7.04981">
        <ele>2086.1999511719</ele>
        <time>2018-05-09T07:51:41.000Z</time>
      </trkpt>
      <trkpt lat="44.24264" lon="7.04971">
        <ele>2087.1999511719</ele>
        <time>2018-05-09T07:51:49.000Z</time>
      </trkpt>
      <trkpt lat="44.2426" lon="7.04966">
        <ele>2087.8000488281</ele>
        <time>2018-05-09T07:51:59.000Z</time>
      </trkpt>
      <trkpt lat="44.2426" lon="7.04964">
        <ele>2088.3999023438</ele>
        <time>2018-05-09T07:52:03.000Z</time>
      </trkpt>
      <trkpt lat="44.2426" lon="7.04963">
        <ele>2088.3999023438</ele>
        <time>2018-05-09T07:52:04.000Z</time>
      </trkpt>
      <trkpt lat="44.24263" lon="7.04967">
        <ele>2089.3999023438</ele>
        <time>2018-05-09T07:52:14.000Z</time>
      </trkpt>
      <trkpt lat="44.24259" lon="7.04981">
        <ele>2089.8000488281</ele>
        <time>2018-05-09T07:52:22.000Z</time>
      </trkpt>
      <trkpt lat="44.24258" lon="7.04982">
        <ele>2089.8000488281</ele>
        <time>2018-05-09T07:52:23.000Z</time>
      </trkpt>
      <trkpt lat="44.24255" lon="7.04988">
        <ele>2090.1999511719</ele>
        <time>2018-05-09T07:52:27.000Z</time>
      </trkpt>
      <trkpt lat="44.24254" lon="7.04989">
        <ele>2090.3999023438</ele>
        <time>2018-05-09T07:52:29.000Z</time>
      </trkpt>
      <trkpt lat="44.24255" lon="7.0499">
        <ele>2090.6000976562</ele>
        <time>2018-05-09T07:52:30.000Z</time>
      </trkpt>
      <trkpt lat="44.24255" lon="7.04995">
        <ele>2091.3999023438</ele>
        <time>2018-05-09T07:52:37.000Z</time>
      </trkpt>
      <trkpt lat="44.24264" lon="7.04988">
        <ele>2092.3999023438</ele>
        <time>2018-05-09T07:52:48.000Z</time>
      </trkpt>
      <trkpt lat="44.24264" lon="7.04989">
        <ele>2092.6000976562</ele>
        <time>2018-05-09T07:52:50.000Z</time>
      </trkpt>
      <trkpt lat="44.24264" lon="7.04994">
        <ele>2093.1999511719</ele>
        <time>2018-05-09T07:52:56.000Z</time>
      </trkpt>
      <trkpt lat="44.24262" lon="7.04996">
        <ele>2093.6000976562</ele>
        <time>2018-05-09T07:52:58.000Z</time>
      </trkpt>
      <trkpt lat="44.24254" lon="7.04998">
        <ele>2094.8000488281</ele>
        <time>2018-05-09T07:53:05.000Z</time>
      </trkpt>
      <trkpt lat="44.24256" lon="7.05006">
        <ele>2095.8000488281</ele>
        <time>2018-05-09T07:53:13.000Z</time>
      </trkpt>
      <trkpt lat="44.2426" lon="7.05015">
        <ele>2096.8000488281</ele>
        <time>2018-05-09T07:53:22.000Z</time>
      </trkpt>
      <trkpt lat="44.24255" lon="7.05014">
        <ele>2097.8000488281</ele>
        <time>2018-05-09T07:53:36.000Z</time>
      </trkpt>
      <trkpt lat="44.24254" lon="7.05013">
        <ele>2098</ele>
        <time>2018-05-09T07:53:39.000Z</time>
      </trkpt>
      <trkpt lat="44.24241" lon="7.05015">
        <ele>2098.8000488281</ele>
        <time>2018-05-09T07:53:54.000Z</time>
      </trkpt>
      <trkpt lat="44.24241" lon="7.05005">
        <ele>2098.6000976562</ele>
        <time>2018-05-09T07:54:01.000Z</time>
      </trkpt>
      <trkpt lat="44.24243" lon="7.05005">
        <ele>2098.6000976562</ele>
        <time>2018-05-09T07:54:03.000Z</time>
      </trkpt>
      <trkpt lat="44.24243" lon="7.05004">
        <ele>2098.6000976562</ele>
        <time>2018-05-09T07:54:05.000Z</time>
      </trkpt>
      <trkpt lat="44.24246" lon="7.05007">
        <ele>2098.6000976562</ele>
        <time>2018-05-09T07:54:09.000Z</time>
      </trkpt>
      <trkpt lat="44.24248" lon="7.05006">
        <ele>2098.8000488281</ele>
        <time>2018-05-09T07:54:16.000Z</time>
      </trkpt>
      <trkpt lat="44.24247" lon="7.05004">
        <ele>2099</ele>
        <time>2018-05-09T07:54:27.000Z</time>
      </trkpt>
      <trkpt lat="44.24249" lon="7.05006">
        <ele>2100.1999511719</ele>
        <time>2018-05-09T07:54:36.000Z</time>
      </trkpt>
      <trkpt lat="44.24248" lon="7.05005">
        <ele>2101.1999511719</ele>
        <time>2018-05-09T07:54:44.000Z</time>
      </trkpt>
      <trkpt lat="44.24248" lon="7.05004">
        <ele>2101.3999023438</ele>
        <time>2018-05-09T07:54:46.000Z</time>
      </trkpt>
      <trkpt lat="44.24246" lon="7.04998">
        <ele>2102.1999511719</ele>
        <time>2018-05-09T07:54:58.000Z</time>
      </trkpt>
      <trkpt lat="44.24254" lon="7.05001">
        <ele>2102.8000488281</ele>
        <time>2018-05-09T07:55:01.000Z</time>
      </trkpt>
      <trkpt lat="44.24268" lon="7.0501">
        <ele>2103.1999511719</ele>
        <time>2018-05-09T07:55:05.000Z</time>
      </trkpt>
      <trkpt lat="44.24261" lon="7.05006">
        <ele>2104.1999511719</ele>
        <time>2018-05-09T07:55:11.000Z</time>
      </trkpt>
      <trkpt lat="44.2426" lon="7.05005">
        <ele>2104.3999023438</ele>
        <time>2018-05-09T07:55:12.000Z</time>
      </trkpt>
      <trkpt lat="44.24266" lon="7.05005">
        <ele>2105.6000976562</ele>
        <time>2018-05-09T07:55:21.000Z</time>
      </trkpt>
      <trkpt lat="44.24238" lon="7.04985">
        <ele>2106.6000976562</ele>
        <time>2018-05-09T07:55:27.000Z</time>
      </trkpt>
      <trkpt lat="44.24231" lon="7.04977">
        <ele>2107.1999511719</ele>
        <time>2018-05-09T07:55:33.000Z</time>
      </trkpt>
      <trkpt lat="44.24229" lon="7.04975">
        <ele>2108</ele>
        <time>2018-05-09T07:55:37.000Z</time>
      </trkpt>
      <trkpt lat="44.24228" lon="7.04978">
        <ele>2109</ele>
        <time>2018-05-09T07:55:44.000Z</time>
      </trkpt>
      <trkpt lat="44.2421" lon="7.04999">
        <ele>2110.1999511719</ele>
        <time>2018-05-09T07:55:59.000Z</time>
      </trkpt>
      <trkpt lat="44.24211" lon="7.05004">
        <ele>2111.1999511719</ele>
        <time>2018-05-09T07:56:06.000Z</time>
      </trkpt>
      <trkpt lat="44.24212" lon="7.05006">
        <ele>2112.3999023438</ele>
        <time>2018-05-09T07:56:14.000Z</time>
      </trkpt>
      <trkpt lat="44.24214" lon="7.05011">
        <ele>2113.3999023438</ele>
        <time>2018-05-09T07:56:20.000Z</time>
      </trkpt>
      <trkpt lat="44.24216" lon="7.05018">
        <ele>2114.3999023438</ele>
        <time>2018-05-09T07:56:26.000Z</time>
      </trkpt>
      <trkpt lat="44.24212" lon="7.05028">
        <ele>2115.6000976562</ele>
        <time>2018-05-09T07:56:33.000Z</time>
      </trkpt>
      <trkpt lat="44.24213" lon="7.05027">
        <ele>2116</ele>
        <time>2018-05-09T07:56:36.000Z</time>
      </trkpt>
      <trkpt lat="44.24211" lon="7.05019">
        <ele>2116</ele>
        <time>2018-05-09T07:56:41.000Z</time>
      </trkpt>
      <trkpt lat="44.24217" lon="7.05009">
        <ele>2116.1999511719</ele>
        <time>2018-05-09T07:56:55.000Z</time>
      </trkpt>
      <trkpt lat="44.24215" lon="7.05007">
        <ele>2116.8000488281</ele>
        <time>2018-05-09T07:56:58.000Z</time>
      </trkpt>
      <trkpt lat="44.24214" lon="7.05006">
        <ele>2117.1999511719</ele>
        <time>2018-05-09T07:57:00.000Z</time>
      </trkpt>
      <trkpt lat="44.24213" lon="7.05005">
        <ele>2117.3999023438</ele>
        <time>2018-05-09T07:57:03.000Z</time>
      </trkpt>
      <trkpt lat="44.24213" lon="7.05004">
        <ele>2118</ele>
        <time>2018-05-09T07:57:06.000Z</time>
      </trkpt>
      <trkpt lat="44.24212" lon="7.04999">
        <ele>2119</ele>
        <time>2018-05-09T07:57:12.000Z</time>
      </trkpt>
      <trkpt lat="44.24212" lon="7.04996">
        <ele>2120.1999511719</ele>
        <time>2018-05-09T07:57:19.000Z</time>
      </trkpt>
      <trkpt lat="44.24206" lon="7.0499">
        <ele>2121.3999023438</ele>
        <time>2018-05-09T07:57:28.000Z</time>
      </trkpt>
      <trkpt lat="44.24199" lon="7.04983">
        <ele>2122.3999023438</ele>
        <time>2018-05-09T07:57:35.000Z</time>
      </trkpt>
      <trkpt lat="44.24196" lon="7.04979">
        <ele>2123</ele>
        <time>2018-05-09T07:57:39.000Z</time>
      </trkpt>
      <trkpt lat="44.24194" lon="7.04977">
        <ele>2123.3999023438</ele>
        <time>2018-05-09T07:57:41.000Z</time>
      </trkpt>
      <trkpt lat="44.24196" lon="7.04975">
        <ele>2124.6000976562</ele>
        <time>2018-05-09T07:57:46.000Z</time>
      </trkpt>
      <trkpt lat="44.24192" lon="7.04972">
        <ele>2125.1999511719</ele>
        <time>2018-05-09T07:57:49.000Z</time>
      </trkpt>
      <trkpt lat="44.24191" lon="7.04972">
        <ele>2125.3999023438</ele>
        <time>2018-05-09T07:57:53.000Z</time>
      </trkpt>
      <trkpt lat="44.24187" lon="7.04971">
        <ele>2125.3999023438</ele>
        <time>2018-05-09T07:57:57.000Z</time>
      </trkpt>
      <trkpt lat="44.24189" lon="7.0497">
        <ele>2125.6000976562</ele>
        <time>2018-05-09T07:58:02.000Z</time>
      </trkpt>
      <trkpt lat="44.24188" lon="7.04968">
        <ele>2126</ele>
        <time>2018-05-09T07:58:04.000Z</time>
      </trkpt>
      <trkpt lat="44.24187" lon="7.04964">
        <ele>2126.6000976562</ele>
        <time>2018-05-09T07:58:09.000Z</time>
      </trkpt>
      <trkpt lat="44.24186" lon="7.04964">
        <ele>2126.8000488281</ele>
        <time>2018-05-09T07:58:10.000Z</time>
      </trkpt>
      <trkpt lat="44.24184" lon="7.04961">
        <ele>2127.1999511719</ele>
        <time>2018-05-09T07:58:13.000Z</time>
      </trkpt>
      <trkpt lat="44.24182" lon="7.04959">
        <ele>2127.8000488281</ele>
        <time>2018-05-09T07:58:17.000Z</time>
      </trkpt>
      <trkpt lat="44.24182" lon="7.04959">
        <ele>2128.1999511719</ele>
        <time>2018-05-09T07:58:19.000Z</time>
      </trkpt>
      <trkpt lat="44.24179" lon="7.04957">
        <ele>2128.8000488281</ele>
        <time>2018-05-09T07:58:23.000Z</time>
      </trkpt>
      <trkpt lat="44.24179" lon="7.04957">
        <ele>2129</ele>
        <time>2018-05-09T07:58:24.000Z</time>
      </trkpt>
      <trkpt lat="44.24176" lon="7.04954">
        <ele>2130</ele>
        <time>2018-05-09T07:58:33.000Z</time>
      </trkpt>
      <trkpt lat="44.24175" lon="7.04952">
        <ele>2130.6000976562</ele>
        <time>2018-05-09T07:58:39.000Z</time>
      </trkpt>
      <trkpt lat="44.24169" lon="7.04947">
        <ele>2130.8000488281</ele>
        <time>2018-05-09T07:58:50.000Z</time>
      </trkpt>
      <trkpt lat="44.24168" lon="7.04946">
        <ele>2131</ele>
        <time>2018-05-09T07:58:51.000Z</time>
      </trkpt>
      <trkpt lat="44.24168" lon="7.04945">
        <ele>2131</ele>
        <time>2018-05-09T07:58:52.000Z</time>
      </trkpt>
      <trkpt lat="44.24167" lon="7.04943">
        <ele>2131.3999023438</ele>
        <time>2018-05-09T07:58:55.000Z</time>
      </trkpt>
      <trkpt lat="44.24166" lon="7.04941">
        <ele>2132</ele>
        <time>2018-05-09T07:58:58.000Z</time>
      </trkpt>
      <trkpt lat="44.24165" lon="7.04941">
        <ele>2132.1999511719</ele>
        <time>2018-05-09T07:58:59.000Z</time>
      </trkpt>
      <trkpt lat="44.24162" lon="7.04937">
        <ele>2133.1999511719</ele>
        <time>2018-05-09T07:59:07.000Z</time>
      </trkpt>
      <trkpt lat="44.24162" lon="7.04935">
        <ele>2134.1999511719</ele>
        <time>2018-05-09T07:59:12.000Z</time>
      </trkpt>
      <trkpt lat="44.24164" lon="7.04934">
        <ele>2134.8000488281</ele>
        <time>2018-05-09T07:59:29.000Z</time>
      </trkpt>
      <trkpt lat="44.24164" lon="7.04933">
        <ele>2134.8000488281</ele>
        <time>2018-05-09T07:59:32.000Z</time>
      </trkpt>
      <trkpt lat="44.24164" lon="7.04932">
        <ele>2134.8000488281</ele>
        <time>2018-05-09T07:59:34.000Z</time>
      </trkpt>
      <trkpt lat="44.24163" lon="7.04929">
        <ele>2135</ele>
        <time>2018-05-09T07:59:39.000Z</time>
      </trkpt>
      <trkpt lat="44.24162" lon="7.04926">
        <ele>2135.1999511719</ele>
        <time>2018-05-09T07:59:42.000Z</time>
      </trkpt>
      <trkpt lat="44.24161" lon="7.04924">
        <ele>2135.8000488281</ele>
        <time>2018-05-09T07:59:45.000Z</time>
      </trkpt>
      <trkpt lat="44.24161" lon="7.04923">
        <ele>2136.3999023438</ele>
        <time>2018-05-09T07:59:49.000Z</time>
      </trkpt>
      <trkpt lat="44.24164" lon="7.04924">
        <ele>2137.3999023438</ele>
        <time>2018-05-09T07:59:57.000Z</time>
      </trkpt>
      <trkpt lat="44.24165" lon="7.04925">
        <ele>2137.3999023438</ele>
        <time>2018-05-09T07:59:59.000Z</time>
      </trkpt>
      <trkpt lat="44.24163" lon="7.04931">
        <ele>2138.6000976562</ele>
        <time>2018-05-09T08:00:11.000Z</time>
      </trkpt>
      <trkpt lat="44.24159" lon="7.04935">
        <ele>2139.1999511719</ele>
        <time>2018-05-09T08:00:15.000Z</time>
      </trkpt>
      <trkpt lat="44.24158" lon="7.04937">
        <ele>2139.6000976562</ele>
        <time>2018-05-09T08:00:17.000Z</time>
      </trkpt>
      <trkpt lat="44.24155" lon="7.04945">
        <ele>2140.8000488281</ele>
        <time>2018-05-09T08:00:26.000Z</time>
      </trkpt>
      <trkpt lat="44.24146" lon="7.04951">
        <ele>2141.8000488281</ele>
        <time>2018-05-09T08:00:33.000Z</time>
      </trkpt>
      <trkpt lat="44.24143" lon="7.04956">
        <ele>2142.8000488281</ele>
        <time>2018-05-09T08:00:38.000Z</time>
      </trkpt>
      <trkpt lat="44.24142" lon="7.04957">
        <ele>2143</ele>
        <time>2018-05-09T08:00:40.000Z</time>
      </trkpt>
      <trkpt lat="44.24139" lon="7.0496">
        <ele>2144</ele>
        <time>2018-05-09T08:00:45.000Z</time>
      </trkpt>
      <trkpt lat="44.24141" lon="7.04961">
        <ele>2144.1999511719</ele>
        <time>2018-05-09T08:00:49.000Z</time>
      </trkpt>
      <trkpt lat="44.2414" lon="7.04962">
        <ele>2144.6000976562</ele>
        <time>2018-05-09T08:00:51.000Z</time>
      </trkpt>
      <trkpt lat="44.24139" lon="7.04965">
        <ele>2145</ele>
        <time>2018-05-09T08:00:54.000Z</time>
      </trkpt>
      <trkpt lat="44.24139" lon="7.04969">
        <ele>2146</ele>
        <time>2018-05-09T08:01:00.000Z</time>
      </trkpt>
      <trkpt lat="44.24139" lon="7.04969">
        <ele>2146</ele>
        <time>2018-05-09T08:01:01.000Z</time>
      </trkpt>
      <trkpt lat="44.24141" lon="7.04972">
        <ele>2146.6000976562</ele>
        <time>2018-05-09T08:01:04.000Z</time>
      </trkpt>
      <trkpt lat="44.24142" lon="7.04974">
        <ele>2147.1999511719</ele>
        <time>2018-05-09T08:01:07.000Z</time>
      </trkpt>
      <trkpt lat="44.24141" lon="7.04977">
        <ele>2147.8000488281</ele>
        <time>2018-05-09T08:01:10.000Z</time>
      </trkpt>
      <trkpt lat="44.24136" lon="7.04982">
        <ele>2148.3999023438</ele>
        <time>2018-05-09T08:01:14.000Z</time>
      </trkpt>
      <trkpt lat="44.24135" lon="7.04984">
        <ele>2148.3999023438</ele>
        <time>2018-05-09T08:01:15.000Z</time>
      </trkpt>
      <trkpt lat="44.2413" lon="7.04983">
        <ele>2149.3999023438</ele>
        <time>2018-05-09T08:01:23.000Z</time>
      </trkpt>
      <trkpt lat="44.24129" lon="7.04983">
        <ele>2149.3999023438</ele>
        <time>2018-05-09T08:01:24.000Z</time>
      </trkpt>
      <trkpt lat="44.24128" lon="7.04994">
        <ele>2149.6000976562</ele>
        <time>2018-05-09T08:01:33.000Z</time>
      </trkpt>
      <trkpt lat="44.24146" lon="7.05">
        <ele>2149.6000976562</ele>
        <time>2018-05-09T08:01:37.000Z</time>
      </trkpt>
      <trkpt lat="44.24141" lon="7.04995">
        <ele>2149.8000488281</ele>
        <time>2018-05-09T08:01:40.000Z</time>
      </trkpt>
      <trkpt lat="44.24133" lon="7.0499">
        <ele>2150.3999023438</ele>
        <time>2018-05-09T08:01:44.000Z</time>
      </trkpt>
      <trkpt lat="44.24133" lon="7.0499">
        <ele>2150.6000976562</ele>
        <time>2018-05-09T08:01:45.000Z</time>
      </trkpt>
      <trkpt lat="44.24132" lon="7.04991">
        <ele>2151</ele>
        <time>2018-05-09T08:01:47.000Z</time>
      </trkpt>
      <trkpt lat="44.24131" lon="7.0499">
        <ele>2151.6000976562</ele>
        <time>2018-05-09T08:01:50.000Z</time>
      </trkpt>
      <trkpt lat="44.2413" lon="7.04996">
        <ele>2152.6000976562</ele>
        <time>2018-05-09T08:02:09.000Z</time>
      </trkpt>
      <trkpt lat="44.24132" lon="7.04993">
        <ele>2153.6000976562</ele>
        <time>2018-05-09T08:02:13.000Z</time>
      </trkpt>
      <trkpt lat="44.24131" lon="7.04992">
        <ele>2153.6000976562</ele>
        <time>2018-05-09T08:02:14.000Z</time>
      </trkpt>
      <trkpt lat="44.2412" lon="7.04988">
        <ele>2154.8000488281</ele>
        <time>2018-05-09T08:02:23.000Z</time>
      </trkpt>
      <trkpt lat="44.24116" lon="7.04985">
        <ele>2156</ele>
        <time>2018-05-09T08:02:29.000Z</time>
      </trkpt>
      <trkpt lat="44.2411" lon="7.0498">
        <ele>2157</ele>
        <time>2018-05-09T08:02:36.000Z</time>
      </trkpt>
      <trkpt lat="44.24109" lon="7.04978">
        <ele>2158</ele>
        <time>2018-05-09T08:02:42.000Z</time>
      </trkpt>
      <trkpt lat="44.24106" lon="7.04975">
        <ele>2159</ele>
        <time>2018-05-09T08:02:49.000Z</time>
      </trkpt>
      <trkpt lat="44.24105" lon="7.04975">
        <ele>2159.1999511719</ele>
        <time>2018-05-09T08:02:50.000Z</time>
      </trkpt>
      <trkpt lat="44.24103" lon="7.04974">
        <ele>2159.6000976562</ele>
        <time>2018-05-09T08:02:52.000Z</time>
      </trkpt>
      <trkpt lat="44.24102" lon="7.04973">
        <ele>2159.8000488281</ele>
        <time>2018-05-09T08:02:53.000Z</time>
      </trkpt>
      <trkpt lat="44.24099" lon="7.04971">
        <ele>2160.1999511719</ele>
        <time>2018-05-09T08:02:55.000Z</time>
      </trkpt>
      <trkpt lat="44.24097" lon="7.0497">
        <ele>2160.3999023438</ele>
        <time>2018-05-09T08:02:56.000Z</time>
      </trkpt>
      <trkpt lat="44.24098" lon="7.04971">
        <ele>2160.3999023438</ele>
        <time>2018-05-09T08:02:57.000Z</time>
      </trkpt>
      <trkpt lat="44.24098" lon="7.04972">
        <ele>2160.6000976562</ele>
        <time>2018-05-09T08:02:58.000Z</time>
      </trkpt>
      <trkpt lat="44.24097" lon="7.04972">
        <ele>2161.1999511719</ele>
        <time>2018-05-09T08:03:04.000Z</time>
      </trkpt>
      <trkpt lat="44.24094" lon="7.04973">
        <ele>2162.3999023438</ele>
        <time>2018-05-09T08:03:10.000Z</time>
      </trkpt>
      <trkpt lat="44.24093" lon="7.04976">
        <ele>2163.3999023438</ele>
        <time>2018-05-09T08:03:15.000Z</time>
      </trkpt>
      <trkpt lat="44.24093" lon="7.04973">
        <ele>2164.3999023438</ele>
        <time>2018-05-09T08:03:22.000Z</time>
      </trkpt>
      <trkpt lat="44.24091" lon="7.04977">
        <ele>2165.3999023438</ele>
        <time>2018-05-09T08:03:32.000Z</time>
      </trkpt>
      <trkpt lat="44.2409" lon="7.04977">
        <ele>2165.3999023438</ele>
        <time>2018-05-09T08:03:33.000Z</time>
      </trkpt>
      <trkpt lat="44.24085" lon="7.04981">
        <ele>2166.6000976562</ele>
        <time>2018-05-09T08:03:41.000Z</time>
      </trkpt>
      <trkpt lat="44.24081" lon="7.04978">
        <ele>2167</ele>
        <time>2018-05-09T08:03:46.000Z</time>
      </trkpt>
      <trkpt lat="44.24077" lon="7.04978">
        <ele>2167.6000976562</ele>
        <time>2018-05-09T08:03:49.000Z</time>
      </trkpt>
      <trkpt lat="44.24075" lon="7.0498">
        <ele>2168.1999511719</ele>
        <time>2018-05-09T08:03:56.000Z</time>
      </trkpt>
      <trkpt lat="44.24075" lon="7.0498">
        <ele>2168.6000976562</ele>
        <time>2018-05-09T08:03:59.000Z</time>
      </trkpt>
      <trkpt lat="44.24068" lon="7.04978">
        <ele>2169.6000976562</ele>
        <time>2018-05-09T08:04:06.000Z</time>
      </trkpt>
      <trkpt lat="44.24064" lon="7.04978">
        <ele>2170.8000488281</ele>
        <time>2018-05-09T08:04:11.000Z</time>
      </trkpt>
      <trkpt lat="44.24064" lon="7.04979">
        <ele>2171</ele>
        <time>2018-05-09T08:04:12.000Z</time>
      </trkpt>
      <trkpt lat="44.24059" lon="7.0498">
        <ele>2171.6000976562</ele>
        <time>2018-05-09T08:04:17.000Z</time>
      </trkpt>
      <trkpt lat="44.24058" lon="7.04979">
        <ele>2171.8000488281</ele>
        <time>2018-05-09T08:04:18.000Z</time>
      </trkpt>
      <trkpt lat="44.24049" lon="7.04991">
        <ele>2172</ele>
        <time>2018-05-09T08:04:38.000Z</time>
      </trkpt>
      <trkpt lat="44.24054" lon="7.04993">
        <ele>2172</ele>
        <time>2018-05-09T08:04:40.000Z</time>
      </trkpt>
      <trkpt lat="44.24049" lon="7.04986">
        <ele>2171.8000488281</ele>
        <time>2018-05-09T08:04:43.000Z</time>
      </trkpt>
      <trkpt lat="44.24045" lon="7.04982">
        <ele>2171.8000488281</ele>
        <time>2018-05-09T08:04:44.000Z</time>
      </trkpt>
      <trkpt lat="44.24041" lon="7.04979">
        <ele>2171.8000488281</ele>
        <time>2018-05-09T08:04:47.000Z</time>
      </trkpt>
      <trkpt lat="44.24042" lon="7.04974">
        <ele>2172.3999023438</ele>
        <time>2018-05-09T08:04:56.000Z</time>
      </trkpt>
      <trkpt lat="44.24043" lon="7.04974">
        <ele>2172.3999023438</ele>
        <time>2018-05-09T08:04:58.000Z</time>
      </trkpt>
      <trkpt lat="44.24046" lon="7.04975">
        <ele>2172.6000976562</ele>
        <time>2018-05-09T08:05:01.000Z</time>
      </trkpt>
      <trkpt lat="44.24047" lon="7.04975">
        <ele>2172.6000976562</ele>
        <time>2018-05-09T08:05:04.000Z</time>
      </trkpt>
      <trkpt lat="44.24048" lon="7.04975">
        <ele>2172.3999023438</ele>
        <time>2018-05-09T08:05:06.000Z</time>
      </trkpt>
      <trkpt lat="44.24058" lon="7.04984">
        <ele>2172.3999023438</ele>
        <time>2018-05-09T08:05:16.000Z</time>
      </trkpt>
      <trkpt lat="44.24058" lon="7.04987">
        <ele>2172.8000488281</ele>
        <time>2018-05-09T08:05:19.000Z</time>
      </trkpt>
      <trkpt lat="44.24057" lon="7.04988">
        <ele>2172.8000488281</ele>
        <time>2018-05-09T08:05:20.000Z</time>
      </trkpt>
      <trkpt lat="44.24051" lon="7.04987">
        <ele>2173.8000488281</ele>
        <time>2018-05-09T08:05:25.000Z</time>
      </trkpt>
      <trkpt lat="44.2405" lon="7.04987">
        <ele>2174</ele>
        <time>2018-05-09T08:05:26.000Z</time>
      </trkpt>
      <trkpt lat="44.24047" lon="7.04985">
        <ele>2174.1999511719</ele>
        <time>2018-05-09T08:05:29.000Z</time>
      </trkpt>
      <trkpt lat="44.24043" lon="7.04986">
        <ele>2175</ele>
        <time>2018-05-09T08:05:33.000Z</time>
      </trkpt>
      <trkpt lat="44.24041" lon="7.04985">
        <ele>2175.3999023438</ele>
        <time>2018-05-09T08:05:35.000Z</time>
      </trkpt>
      <trkpt lat="44.24038" lon="7.04984">
        <ele>2175.8000488281</ele>
        <time>2018-05-09T08:05:38.000Z</time>
      </trkpt>
      <trkpt lat="44.24034" lon="7.04983">
        <ele>2176</ele>
        <time>2018-05-09T08:05:41.000Z</time>
      </trkpt>
      <trkpt lat="44.24029" lon="7.04982">
        <ele>2176.6000976562</ele>
        <time>2018-05-09T08:05:44.000Z</time>
      </trkpt>
      <trkpt lat="44.24026" lon="7.04983">
        <ele>2177</ele>
        <time>2018-05-09T08:05:47.000Z</time>
      </trkpt>
      <trkpt lat="44.24023" lon="7.04984">
        <ele>2177.1999511719</ele>
        <time>2018-05-09T08:05:49.000Z</time>
      </trkpt>
      <trkpt lat="44.24019" lon="7.04984">
        <ele>2177.6000976562</ele>
        <time>2018-05-09T08:05:52.000Z</time>
      </trkpt>
      <trkpt lat="44.24025" lon="7.0499">
        <ele>2178</ele>
        <time>2018-05-09T08:06:09.000Z</time>
      </trkpt>
      <trkpt lat="44.24026" lon="7.04988">
        <ele>2177.8000488281</ele>
        <time>2018-05-09T08:06:15.000Z</time>
      </trkpt>
      <trkpt lat="44.24015" lon="7.04988">
        <ele>2177.8000488281</ele>
        <time>2018-05-09T08:06:24.000Z</time>
      </trkpt>
      <trkpt lat="44.24013" lon="7.04985">
        <ele>2178</ele>
        <time>2018-05-09T08:06:27.000Z</time>
      </trkpt>
      <trkpt lat="44.24013" lon="7.04985">
        <ele>2177.8000488281</ele>
        <time>2018-05-09T08:06:29.000Z</time>
      </trkpt>
      <trkpt lat="44.24015" lon="7.04986">
        <ele>2178</ele>
        <time>2018-05-09T08:06:32.000Z</time>
      </trkpt>
      <trkpt lat="44.24017" lon="7.04987">
        <ele>2177.8000488281</ele>
        <time>2018-05-09T08:06:34.000Z</time>
      </trkpt>
      <trkpt lat="44.24017" lon="7.04987">
        <ele>2177.8000488281</ele>
        <time>2018-05-09T08:06:35.000Z</time>
      </trkpt>
      <trkpt lat="44.24023" lon="7.04989">
        <ele>2177.8000488281</ele>
        <time>2018-05-09T08:06:39.000Z</time>
      </trkpt>
      <trkpt lat="44.24023" lon="7.04987">
        <ele>2177.8000488281</ele>
        <time>2018-05-09T08:06:43.000Z</time>
      </trkpt>
      <trkpt lat="44.24023" lon="7.04986">
        <ele>2177.8000488281</ele>
        <time>2018-05-09T08:06:44.000Z</time>
      </trkpt>
      <trkpt lat="44.24023" lon="7.04987">
        <ele>2177.8000488281</ele>
        <time>2018-05-09T08:06:47.000Z</time>
      </trkpt>
      <trkpt lat="44.24024" lon="7.04987">
        <ele>2177.8000488281</ele>
        <time>2018-05-09T08:06:48.000Z</time>
      </trkpt>
      <trkpt lat="44.24024" lon="7.04988">
        <ele>2177.8000488281</ele>
        <time>2018-05-09T08:06:49.000Z</time>
      </trkpt>
      <trkpt lat="44.24027" lon="7.04989">
        <ele>2177.8000488281</ele>
        <time>2018-05-09T08:06:53.000Z</time>
      </trkpt>
      <trkpt lat="44.24027" lon="7.0499">
        <ele>2178</ele>
        <time>2018-05-09T08:06:54.000Z</time>
      </trkpt>
      <trkpt lat="44.24028" lon="7.04991">
        <ele>2178</ele>
        <time>2018-05-09T08:06:55.000Z</time>
      </trkpt>
      <trkpt lat="44.24029" lon="7.04992">
        <ele>2178</ele>
        <time>2018-05-09T08:06:56.000Z</time>
      </trkpt>
      <trkpt lat="44.24025" lon="7.0498">
        <ele>2178</ele>
        <time>2018-05-09T08:07:14.000Z</time>
      </trkpt>
      <trkpt lat="44.24033" lon="7.04986">
        <ele>2178</ele>
        <time>2018-05-09T08:07:25.000Z</time>
      </trkpt>
      <trkpt lat="44.24031" lon="7.04985">
        <ele>2178</ele>
        <time>2018-05-09T08:07:27.000Z</time>
      </trkpt>
      <trkpt lat="44.24028" lon="7.04985">
        <ele>2178</ele>
        <time>2018-05-09T08:07:30.000Z</time>
      </trkpt>
      <trkpt lat="44.24028" lon="7.04985">
        <ele>2178</ele>
        <time>2018-05-09T08:07:32.000Z</time>
      </trkpt>
      <trkpt lat="44.24028" lon="7.04985">
        <ele>2178</ele>
        <time>2018-05-09T08:07:33.000Z</time>
      </trkpt>
      <trkpt lat="44.24026" lon="7.04988">
        <ele>2178</ele>
        <time>2018-05-09T08:07:34.000Z</time>
      </trkpt>
      <trkpt lat="44.24021" lon="7.04993">
        <ele>2178</ele>
        <time>2018-05-09T08:07:37.000Z</time>
      </trkpt>
      <trkpt lat="44.2402" lon="7.04994">
        <ele>2178</ele>
        <time>2018-05-09T08:07:38.000Z</time>
      </trkpt>
      <trkpt lat="44.24016" lon="7.04994">
        <ele>2178</ele>
        <time>2018-05-09T08:07:40.000Z</time>
      </trkpt>
      <trkpt lat="44.24014" lon="7.04995">
        <ele>2178</ele>
        <time>2018-05-09T08:07:46.000Z</time>
      </trkpt>
      <trkpt lat="44.24016" lon="7.04995">
        <ele>2178</ele>
        <time>2018-05-09T08:07:48.000Z</time>
      </trkpt>
      <trkpt lat="44.24018" lon="7.04996">
        <ele>2178</ele>
        <time>2018-05-09T08:07:50.000Z</time>
      </trkpt>
      <trkpt lat="44.24019" lon="7.04997">
        <ele>2178</ele>
        <time>2018-05-09T08:07:55.000Z</time>
      </trkpt>
      <trkpt lat="44.24019" lon="7.04995">
        <ele>2178</ele>
        <time>2018-05-09T08:07:58.000Z</time>
      </trkpt>
      <trkpt lat="44.24021" lon="7.04996">
        <ele>2178</ele>
        <time>2018-05-09T08:07:59.000Z</time>
      </trkpt>
      <trkpt lat="44.24022" lon="7.04994">
        <ele>2178</ele>
        <time>2018-05-09T08:08:02.000Z</time>
      </trkpt>
      <trkpt lat="44.24021" lon="7.04994">
        <ele>2178</ele>
        <time>2018-05-09T08:08:04.000Z</time>
      </trkpt>
      <trkpt lat="44.2402" lon="7.04994">
        <ele>2178</ele>
        <time>2018-05-09T08:08:06.000Z</time>
      </trkpt>
      <trkpt lat="44.24021" lon="7.04995">
        <ele>2178</ele>
        <time>2018-05-09T08:08:09.000Z</time>
      </trkpt>
      <trkpt lat="44.24022" lon="7.04991">
        <ele>2178</ele>
        <time>2018-05-09T08:08:12.000Z</time>
      </trkpt>
      <trkpt lat="44.24023" lon="7.0499">
        <ele>2178</ele>
        <time>2018-05-09T08:08:13.000Z</time>
      </trkpt>
      <trkpt lat="44.24017" lon="7.04996">
        <ele>2178</ele>
        <time>2018-05-09T08:08:19.000Z</time>
      </trkpt>
      <trkpt lat="44.24016" lon="7.04994">
        <ele>2178</ele>
        <time>2018-05-09T08:08:21.000Z</time>
      </trkpt>
      <trkpt lat="44.24016" lon="7.04994">
        <ele>2178</ele>
        <time>2018-05-09T08:08:22.000Z</time>
      </trkpt>
      <trkpt lat="44.24011" lon="7.04998">
        <ele>2178</ele>
        <time>2018-05-09T08:08:28.000Z</time>
      </trkpt>
      <trkpt lat="44.24015" lon="7.04992">
        <ele>2178</ele>
        <time>2018-05-09T08:08:34.000Z</time>
      </trkpt>
      <trkpt lat="44.24013" lon="7.04988">
        <ele>2178</ele>
        <time>2018-05-09T08:08:37.000Z</time>
      </trkpt>
      <trkpt lat="44.24016" lon="7.04987">
        <ele>2178</ele>
        <time>2018-05-09T08:08:42.000Z</time>
      </trkpt>
      <trkpt lat="44.24016" lon="7.04986">
        <ele>2178</ele>
        <time>2018-05-09T08:08:49.000Z</time>
      </trkpt>
      <trkpt lat="44.24017" lon="7.04986">
        <ele>2178</ele>
        <time>2018-05-09T08:08:51.000Z</time>
      </trkpt>
      <trkpt lat="44.2402" lon="7.04987">
        <ele>2178</ele>
        <time>2018-05-09T08:08:59.000Z</time>
      </trkpt>
      <trkpt lat="44.24022" lon="7.04988">
        <ele>2178</ele>
        <time>2018-05-09T08:09:02.000Z</time>
      </trkpt>
      <trkpt lat="44.24024" lon="7.04988">
        <ele>2178</ele>
        <time>2018-05-09T08:09:04.000Z</time>
      </trkpt>
      <trkpt lat="44.24026" lon="7.04989">
        <ele>2178</ele>
        <time>2018-05-09T08:09:06.000Z</time>
      </trkpt>
      <trkpt lat="44.2403" lon="7.04992">
        <ele>2178</ele>
        <time>2018-05-09T08:09:09.000Z</time>
      </trkpt>
      <trkpt lat="44.24027" lon="7.04989">
        <ele>2178</ele>
        <time>2018-05-09T08:09:44.000Z</time>
      </trkpt>
      <trkpt lat="44.24027" lon="7.0499">
        <ele>2178</ele>
        <time>2018-05-09T08:09:46.000Z</time>
      </trkpt>
      <trkpt lat="44.24027" lon="7.0499">
        <ele>2178</ele>
        <time>2018-05-09T08:09:50.000Z</time>
      </trkpt>
      <trkpt lat="44.24027" lon="7.04991">
        <ele>2178</ele>
        <time>2018-05-09T08:10:00.000Z</time>
      </trkpt>
      <trkpt lat="44.24027" lon="7.04991">
        <ele>2178</ele>
        <time>2018-05-09T08:10:02.000Z</time>
      </trkpt>
      <trkpt lat="44.24027" lon="7.04991">
        <ele>2178</ele>
        <time>2018-05-09T08:10:08.000Z</time>
      </trkpt>
      <trkpt lat="44.2402" lon="7.04984">
        <ele>2178</ele>
        <time>2018-05-09T08:10:33.000Z</time>
      </trkpt>
      <trkpt lat="44.24025" lon="7.04987">
        <ele>2178</ele>
        <time>2018-05-09T08:10:41.000Z</time>
      </trkpt>
      <trkpt lat="44.24022" lon="7.04988">
        <ele>2178</ele>
        <time>2018-05-09T08:10:47.000Z</time>
      </trkpt>
      <trkpt lat="44.24022" lon="7.04986">
        <ele>2178</ele>
        <time>2018-05-09T08:10:51.000Z</time>
      </trkpt>
      <trkpt lat="44.24022" lon="7.04984">
        <ele>2178</ele>
        <time>2018-05-09T08:10:55.000Z</time>
      </trkpt>
      <trkpt lat="44.24021" lon="7.04984">
        <ele>2178</ele>
        <time>2018-05-09T08:10:58.000Z</time>
      </trkpt>
      <trkpt lat="44.24021" lon="7.04989">
        <ele>2178</ele>
        <time>2018-05-09T08:11:04.000Z</time>
      </trkpt>
      <trkpt lat="44.24022" lon="7.0499">
        <ele>2178</ele>
        <time>2018-05-09T08:11:05.000Z</time>
      </trkpt>
      <trkpt lat="44.24022" lon="7.04992">
        <ele>2178</ele>
        <time>2018-05-09T08:11:08.000Z</time>
      </trkpt>
      <trkpt lat="44.24027" lon="7.04989">
        <ele>2178</ele>
        <time>2018-05-09T08:11:42.000Z</time>
      </trkpt>
      <trkpt lat="44.24027" lon="7.04992">
        <ele>2178</ele>
        <time>2018-05-09T08:11:46.000Z</time>
      </trkpt>
      <trkpt lat="44.24026" lon="7.04993">
        <ele>2178</ele>
        <time>2018-05-09T08:11:49.000Z</time>
      </trkpt>
      <trkpt lat="44.24026" lon="7.04994">
        <ele>2178</ele>
        <time>2018-05-09T08:11:56.000Z</time>
      </trkpt>
      <trkpt lat="44.24026" lon="7.04994">
        <ele>2178</ele>
        <time>2018-05-09T08:12:06.000Z</time>
      </trkpt>
      <trkpt lat="44.24024" lon="7.04992">
        <ele>2178</ele>
        <time>2018-05-09T08:12:10.000Z</time>
      </trkpt>
      <trkpt lat="44.24033" lon="7.04989">
        <ele>2178</ele>
        <time>2018-05-09T08:12:27.000Z</time>
      </trkpt>
      <trkpt lat="44.24029" lon="7.04989">
        <ele>2178</ele>
        <time>2018-05-09T08:12:30.000Z</time>
      </trkpt>
      <trkpt lat="44.24028" lon="7.04989">
        <ele>2178</ele>
        <time>2018-05-09T08:12:31.000Z</time>
      </trkpt>
      <trkpt lat="44.24021" lon="7.0499">
        <ele>2178</ele>
        <time>2018-05-09T08:12:33.000Z</time>
      </trkpt>
      <trkpt lat="44.24016" lon="7.0499">
        <ele>2178</ele>
        <time>2018-05-09T08:12:36.000Z</time>
      </trkpt>
      <trkpt lat="44.24014" lon="7.04993">
        <ele>2178</ele>
        <time>2018-05-09T08:12:42.000Z</time>
      </trkpt>
      <trkpt lat="44.24014" lon="7.04996">
        <ele>2178</ele>
        <time>2018-05-09T08:12:47.000Z</time>
      </trkpt>
      <trkpt lat="44.24004" lon="7.04994">
        <ele>2178</ele>
        <time>2018-05-09T08:12:55.000Z</time>
      </trkpt>
      <trkpt lat="44.24002" lon="7.04994">
        <ele>2178</ele>
        <time>2018-05-09T08:12:58.000Z</time>
      </trkpt>
      <trkpt lat="44.24001" lon="7.04995">
        <ele>2180</ele>
        <time>2018-05-09T08:13:00.000Z</time>
      </trkpt>
      <trkpt lat="44.24" lon="7.04996">
        <ele>2180</ele>
        <time>2018-05-09T08:13:02.000Z</time>
      </trkpt>
      <trkpt lat="44.23999" lon="7.04995">
        <ele>2180.1999511719</ele>
        <time>2018-05-09T08:13:04.000Z</time>
      </trkpt>
      <trkpt lat="44.23999" lon="7.04995">
        <ele>2180.6000976562</ele>
        <time>2018-05-09T08:13:05.000Z</time>
      </trkpt>
      <trkpt lat="44.23992" lon="7.05005">
        <ele>2181.1999511719</ele>
        <time>2018-05-09T08:13:14.000Z</time>
      </trkpt>
      <trkpt lat="44.23987" lon="7.05007">
        <ele>2181.6000976562</ele>
        <time>2018-05-09T08:13:18.000Z</time>
      </trkpt>
      <trkpt lat="44.23979" lon="7.05006">
        <ele>2181.8000488281</ele>
        <time>2018-05-09T08:13:21.000Z</time>
      </trkpt>
      <trkpt lat="44.23973" lon="7.05004">
        <ele>2182.1999511719</ele>
        <time>2018-05-09T08:13:24.000Z</time>
      </trkpt>
      <trkpt lat="44.23978" lon="7.05009">
        <ele>2182.3999023438</ele>
        <time>2018-05-09T08:13:26.000Z</time>
      </trkpt>
      <trkpt lat="44.23975" lon="7.05008">
        <ele>2182.8000488281</ele>
        <time>2018-05-09T08:13:29.000Z</time>
      </trkpt>
      <trkpt lat="44.23972" lon="7.05007">
        <ele>2183.1999511719</ele>
        <time>2018-05-09T08:13:31.000Z</time>
      </trkpt>
      <trkpt lat="44.2397" lon="7.05006">
        <ele>2183.3999023438</ele>
        <time>2018-05-09T08:13:32.000Z</time>
      </trkpt>
      <trkpt lat="44.23959" lon="7.05">
        <ele>2183.8000488281</ele>
        <time>2018-05-09T08:13:35.000Z</time>
      </trkpt>
      <trkpt lat="44.23957" lon="7.05">
        <ele>2184.3999023438</ele>
        <time>2018-05-09T08:13:39.000Z</time>
      </trkpt>
      <trkpt lat="44.23952" lon="7.05003">
        <ele>2185.6000976562</ele>
        <time>2018-05-09T08:13:48.000Z</time>
      </trkpt>
      <trkpt lat="44.23947" lon="7.05005">
        <ele>2186.6000976562</ele>
        <time>2018-05-09T08:13:53.000Z</time>
      </trkpt>
      <trkpt lat="44.2394" lon="7.05009">
        <ele>2187.1999511719</ele>
        <time>2018-05-09T08:13:59.000Z</time>
      </trkpt>
      <trkpt lat="44.23938" lon="7.05012">
        <ele>2187.1999511719</ele>
        <time>2018-05-09T08:14:03.000Z</time>
      </trkpt>
      <trkpt lat="44.23938" lon="7.05012">
        <ele>2187.3999023438</ele>
        <time>2018-05-09T08:14:04.000Z</time>
      </trkpt>
      <trkpt lat="44.23935" lon="7.05011">
        <ele>2187.3999023438</ele>
        <time>2018-05-09T08:14:08.000Z</time>
      </trkpt>
      <trkpt lat="44.23935" lon="7.05013">
        <ele>2187.3999023438</ele>
        <time>2018-05-09T08:14:10.000Z</time>
      </trkpt>
      <trkpt lat="44.23934" lon="7.05018">
        <ele>2187.6000976562</ele>
        <time>2018-05-09T08:14:13.000Z</time>
      </trkpt>
      <trkpt lat="44.23933" lon="7.0502">
        <ele>2187.6000976562</ele>
        <time>2018-05-09T08:14:15.000Z</time>
      </trkpt>
      <trkpt lat="44.23933" lon="7.05021">
        <ele>2187.8000488281</ele>
        <time>2018-05-09T08:14:16.000Z</time>
      </trkpt>
      <trkpt lat="44.23929" lon="7.05023">
        <ele>2188</ele>
        <time>2018-05-09T08:14:19.000Z</time>
      </trkpt>
      <trkpt lat="44.23926" lon="7.05026">
        <ele>2188.6000976562</ele>
        <time>2018-05-09T08:14:23.000Z</time>
      </trkpt>
      <trkpt lat="44.23926" lon="7.05026">
        <ele>2188.6000976562</ele>
        <time>2018-05-09T08:14:24.000Z</time>
      </trkpt>
      <trkpt lat="44.23925" lon="7.05026">
        <ele>2188.8000488281</ele>
        <time>2018-05-09T08:14:25.000Z</time>
      </trkpt>
      <trkpt lat="44.23919" lon="7.05026">
        <ele>2189</ele>
        <time>2018-05-09T08:14:29.000Z</time>
      </trkpt>
      <trkpt lat="44.23909" lon="7.05023">
        <ele>2189.6000976562</ele>
        <time>2018-05-09T08:14:35.000Z</time>
      </trkpt>
      <trkpt lat="44.23907" lon="7.05023">
        <ele>2189.8000488281</ele>
        <time>2018-05-09T08:14:36.000Z</time>
      </trkpt>
      <trkpt lat="44.23901" lon="7.05022">
        <ele>2190.8000488281</ele>
        <time>2018-05-09T08:14:42.000Z</time>
      </trkpt>
      <trkpt lat="44.239" lon="7.05022">
        <ele>2191</ele>
        <time>2018-05-09T08:14:43.000Z</time>
      </trkpt>
      <trkpt lat="44.23898" lon="7.05021">
        <ele>2191</ele>
        <time>2018-05-09T08:14:45.000Z</time>
      </trkpt>
      <trkpt lat="44.23898" lon="7.05023">
        <ele>2191.3999023438</ele>
        <time>2018-05-09T08:14:48.000Z</time>
      </trkpt>
      <trkpt lat="44.23891" lon="7.05023">
        <ele>2192</ele>
        <time>2018-05-09T08:14:54.000Z</time>
      </trkpt>
      <trkpt lat="44.23891" lon="7.05027">
        <ele>2192.3999023438</ele>
        <time>2018-05-09T08:14:57.000Z</time>
      </trkpt>
      <trkpt lat="44.23891" lon="7.05031">
        <ele>2193</ele>
        <time>2018-05-09T08:15:04.000Z</time>
      </trkpt>
      <trkpt lat="44.23891" lon="7.05032">
        <ele>2193.1999511719</ele>
        <time>2018-05-09T08:15:05.000Z</time>
      </trkpt>
      <trkpt lat="44.23889" lon="7.05031">
        <ele>2193.6000976562</ele>
        <time>2018-05-09T08:15:08.000Z</time>
      </trkpt>
      <trkpt lat="44.23885" lon="7.05033">
        <ele>2194.1999511719</ele>
        <time>2018-05-09T08:15:12.000Z</time>
      </trkpt>
      <trkpt lat="44.23886" lon="7.05037">
        <ele>2194.8000488281</ele>
        <time>2018-05-09T08:15:16.000Z</time>
      </trkpt>
      <trkpt lat="44.2388" lon="7.05036">
        <ele>2195.3999023438</ele>
        <time>2018-05-09T08:15:20.000Z</time>
      </trkpt>
      <trkpt lat="44.23877" lon="7.05035">
        <ele>2196</ele>
        <time>2018-05-09T08:15:24.000Z</time>
      </trkpt>
      <trkpt lat="44.23876" lon="7.05036">
        <ele>2196.3999023438</ele>
        <time>2018-05-09T08:15:26.000Z</time>
      </trkpt>
      <trkpt lat="44.23869" lon="7.05031">
        <ele>2196.6000976562</ele>
        <time>2018-05-09T08:15:29.000Z</time>
      </trkpt>
      <trkpt lat="44.23868" lon="7.05031">
        <ele>2196.3999023438</ele>
        <time>2018-05-09T08:15:33.000Z</time>
      </trkpt>
      <trkpt lat="44.23866" lon="7.0503">
        <ele>2196.3999023438</ele>
        <time>2018-05-09T08:15:34.000Z</time>
      </trkpt>
      <trkpt lat="44.23865" lon="7.0503">
        <ele>2196.6000976562</ele>
        <time>2018-05-09T08:15:35.000Z</time>
      </trkpt>
      <trkpt lat="44.23864" lon="7.05029">
        <ele>2196.6000976562</ele>
        <time>2018-05-09T08:15:36.000Z</time>
      </trkpt>
      <trkpt lat="44.23862" lon="7.05029">
        <ele>2196.8000488281</ele>
        <time>2018-05-09T08:15:37.000Z</time>
      </trkpt>
      <trkpt lat="44.23859" lon="7.0503">
        <ele>2197.3999023438</ele>
        <time>2018-05-09T08:15:42.000Z</time>
      </trkpt>
      <trkpt lat="44.2385" lon="7.0503">
        <ele>2198.3999023438</ele>
        <time>2018-05-09T08:15:48.000Z</time>
      </trkpt>
      <trkpt lat="44.2385" lon="7.0503">
        <ele>2198.3999023438</ele>
        <time>2018-05-09T08:15:49.000Z</time>
      </trkpt>
      <trkpt lat="44.23845" lon="7.05034">
        <ele>2199.3999023438</ele>
        <time>2018-05-09T08:15:57.000Z</time>
      </trkpt>
      <trkpt lat="44.23843" lon="7.05038">
        <ele>2200.6000976562</ele>
        <time>2018-05-09T08:16:06.000Z</time>
      </trkpt>
      <trkpt lat="44.2384" lon="7.05041">
        <ele>2201.6000976562</ele>
        <time>2018-05-09T08:16:13.000Z</time>
      </trkpt>
      <trkpt lat="44.23839" lon="7.05042">
        <ele>2201.8000488281</ele>
        <time>2018-05-09T08:16:15.000Z</time>
      </trkpt>
      <trkpt lat="44.23837" lon="7.05043">
        <ele>2202</ele>
        <time>2018-05-09T08:16:17.000Z</time>
      </trkpt>
      <trkpt lat="44.23836" lon="7.05044">
        <ele>2202.6000976562</ele>
        <time>2018-05-09T08:16:20.000Z</time>
      </trkpt>
      <trkpt lat="44.23834" lon="7.05043">
        <ele>2202.8000488281</ele>
        <time>2018-05-09T08:16:22.000Z</time>
      </trkpt>
      <trkpt lat="44.23833" lon="7.05042">
        <ele>2202.8000488281</ele>
        <time>2018-05-09T08:16:26.000Z</time>
      </trkpt>
      <trkpt lat="44.23825" lon="7.0504">
        <ele>2202.6000976562</ele>
        <time>2018-05-09T08:16:30.000Z</time>
      </trkpt>
      <trkpt lat="44.23822" lon="7.05039">
        <ele>2202.8000488281</ele>
        <time>2018-05-09T08:16:32.000Z</time>
      </trkpt>
      <trkpt lat="44.23822" lon="7.05044">
        <ele>2203</ele>
        <time>2018-05-09T08:16:45.000Z</time>
      </trkpt>
      <trkpt lat="44.2382" lon="7.05044">
        <ele>2203.1999511719</ele>
        <time>2018-05-09T08:16:51.000Z</time>
      </trkpt>
      <trkpt lat="44.2382" lon="7.05043">
        <ele>2203.1999511719</ele>
        <time>2018-05-09T08:16:53.000Z</time>
      </trkpt>
      <trkpt lat="44.23819" lon="7.05042">
        <ele>2203.1999511719</ele>
        <time>2018-05-09T08:16:55.000Z</time>
      </trkpt>
      <trkpt lat="44.23816" lon="7.05042">
        <ele>2203.3999023438</ele>
        <time>2018-05-09T08:17:00.000Z</time>
      </trkpt>
      <trkpt lat="44.23815" lon="7.05042">
        <ele>2203.3999023438</ele>
        <time>2018-05-09T08:17:01.000Z</time>
      </trkpt>
      <trkpt lat="44.23814" lon="7.05042">
        <ele>2203.6000976562</ele>
        <time>2018-05-09T08:17:02.000Z</time>
      </trkpt>
      <trkpt lat="44.23812" lon="7.05042">
        <ele>2204</ele>
        <time>2018-05-09T08:17:04.000Z</time>
      </trkpt>
      <trkpt lat="44.23812" lon="7.05044">
        <ele>2204.3999023438</ele>
        <time>2018-05-09T08:17:06.000Z</time>
      </trkpt>
      <trkpt lat="44.23812" lon="7.05046">
        <ele>2204.6000976562</ele>
        <time>2018-05-09T08:17:07.000Z</time>
      </trkpt>
      <trkpt lat="44.23811" lon="7.05046">
        <ele>2204.6000976562</ele>
        <time>2018-05-09T08:17:08.000Z</time>
      </trkpt>
      <trkpt lat="44.23812" lon="7.05048">
        <ele>2204.8000488281</ele>
        <time>2018-05-09T08:17:11.000Z</time>
      </trkpt>
      <trkpt lat="44.23814" lon="7.0505">
        <ele>2205</ele>
        <time>2018-05-09T08:17:12.000Z</time>
      </trkpt>
      <trkpt lat="44.23812" lon="7.05049">
        <ele>2205.8000488281</ele>
        <time>2018-05-09T08:17:17.000Z</time>
      </trkpt>
      <trkpt lat="44.2381" lon="7.05048">
        <ele>2206.1999511719</ele>
        <time>2018-05-09T08:17:19.000Z</time>
      </trkpt>
      <trkpt lat="44.23806" lon="7.05049">
        <ele>2207.1999511719</ele>
        <time>2018-05-09T08:17:26.000Z</time>
      </trkpt>
      <trkpt lat="44.23799" lon="7.05049">
        <ele>2208</ele>
        <time>2018-05-09T08:17:32.000Z</time>
      </trkpt>
      <trkpt lat="44.23798" lon="7.05048">
        <ele>2208.1999511719</ele>
        <time>2018-05-09T08:17:33.000Z</time>
      </trkpt>
      <trkpt lat="44.23795" lon="7.05048">
        <ele>2208.8000488281</ele>
        <time>2018-05-09T08:17:37.000Z</time>
      </trkpt>
      <trkpt lat="44.23793" lon="7.05048">
        <ele>2209.3999023438</ele>
        <time>2018-05-09T08:17:40.000Z</time>
      </trkpt>
      <trkpt lat="44.23791" lon="7.0505">
        <ele>2210</ele>
        <time>2018-05-09T08:17:44.000Z</time>
      </trkpt>
      <trkpt lat="44.23793" lon="7.05054">
        <ele>2210.6000976562</ele>
        <time>2018-05-09T08:17:49.000Z</time>
      </trkpt>
      <trkpt lat="44.23789" lon="7.05057">
        <ele>2211.6000976562</ele>
        <time>2018-05-09T08:17:55.000Z</time>
      </trkpt>
      <trkpt lat="44.23781" lon="7.05057">
        <ele>2212.6000976562</ele>
        <time>2018-05-09T08:18:04.000Z</time>
      </trkpt>
      <trkpt lat="44.2378" lon="7.05058">
        <ele>2213</ele>
        <time>2018-05-09T08:18:06.000Z</time>
      </trkpt>
      <trkpt lat="44.23779" lon="7.05058">
        <ele>2213.1999511719</ele>
        <time>2018-05-09T08:18:09.000Z</time>
      </trkpt>
      <trkpt lat="44.23777" lon="7.05056">
        <ele>2213.8000488281</ele>
        <time>2018-05-09T08:18:12.000Z</time>
      </trkpt>
      <trkpt lat="44.23792" lon="7.0508">
        <ele>2214</ele>
        <time>2018-05-09T08:18:30.000Z</time>
      </trkpt>
      <trkpt lat="44.23788" lon="7.05079">
        <ele>2214</ele>
        <time>2018-05-09T08:18:33.000Z</time>
      </trkpt>
      <trkpt lat="44.23786" lon="7.05077">
        <ele>2214</ele>
        <time>2018-05-09T08:18:35.000Z</time>
      </trkpt>
      <trkpt lat="44.23787" lon="7.05071">
        <ele>2214</ele>
        <time>2018-05-09T08:18:37.000Z</time>
      </trkpt>
      <trkpt lat="44.23785" lon="7.05063">
        <ele>2213.8000488281</ele>
        <time>2018-05-09T08:18:41.000Z</time>
      </trkpt>
      <trkpt lat="44.23783" lon="7.05062">
        <ele>2213.8000488281</ele>
        <time>2018-05-09T08:18:42.000Z</time>
      </trkpt>
      <trkpt lat="44.23782" lon="7.05058">
        <ele>2213.8000488281</ele>
        <time>2018-05-09T08:18:44.000Z</time>
      </trkpt>
      <trkpt lat="44.23791" lon="7.05067">
        <ele>2214</ele>
        <time>2018-05-09T08:18:50.000Z</time>
      </trkpt>
      <trkpt lat="44.2379" lon="7.05066">
        <ele>2214.1999511719</ele>
        <time>2018-05-09T08:18:51.000Z</time>
      </trkpt>
      <trkpt lat="44.23788" lon="7.05066">
        <ele>2214.1999511719</ele>
        <time>2018-05-09T08:18:52.000Z</time>
      </trkpt>
      <trkpt lat="44.23781" lon="7.05061">
        <ele>2214.1999511719</ele>
        <time>2018-05-09T08:18:57.000Z</time>
      </trkpt>
      <trkpt lat="44.23781" lon="7.05064">
        <ele>2214</ele>
        <time>2018-05-09T08:19:09.000Z</time>
      </trkpt>
      <trkpt lat="44.2378" lon="7.05063">
        <ele>2214.1999511719</ele>
        <time>2018-05-09T08:19:13.000Z</time>
      </trkpt>
      <trkpt lat="44.23776" lon="7.05065">
        <ele>2214.8000488281</ele>
        <time>2018-05-09T08:19:17.000Z</time>
      </trkpt>
      <trkpt lat="44.23775" lon="7.05066">
        <ele>2215</ele>
        <time>2018-05-09T08:19:18.000Z</time>
      </trkpt>
      <trkpt lat="44.23774" lon="7.05068">
        <ele>2215.3999023438</ele>
        <time>2018-05-09T08:19:21.000Z</time>
      </trkpt>
      <trkpt lat="44.23773" lon="7.05069">
        <ele>2215.8000488281</ele>
        <time>2018-05-09T08:19:24.000Z</time>
      </trkpt>
      <trkpt lat="44.23773" lon="7.0507">
        <ele>2216</ele>
        <time>2018-05-09T08:19:25.000Z</time>
      </trkpt>
      <trkpt lat="44.23773" lon="7.05071">
        <ele>2216.3999023438</ele>
        <time>2018-05-09T08:19:26.000Z</time>
      </trkpt>
      <trkpt lat="44.23771" lon="7.05073">
        <ele>2216.8000488281</ele>
        <time>2018-05-09T08:19:29.000Z</time>
      </trkpt>
      <trkpt lat="44.2377" lon="7.05075">
        <ele>2217.1999511719</ele>
        <time>2018-05-09T08:19:32.000Z</time>
      </trkpt>
      <trkpt lat="44.2377" lon="7.05079">
        <ele>2217.8000488281</ele>
        <time>2018-05-09T08:19:36.000Z</time>
      </trkpt>
      <trkpt lat="44.23766" lon="7.05079">
        <ele>2218</ele>
        <time>2018-05-09T08:19:40.000Z</time>
      </trkpt>
      <trkpt lat="44.23765" lon="7.05079">
        <ele>2218.1999511719</ele>
        <time>2018-05-09T08:19:41.000Z</time>
      </trkpt>
      <trkpt lat="44.23762" lon="7.05078">
        <ele>2218.8000488281</ele>
        <time>2018-05-09T08:19:43.000Z</time>
      </trkpt>
      <trkpt lat="44.23761" lon="7.05078">
        <ele>2218.8000488281</ele>
        <time>2018-05-09T08:19:44.000Z</time>
      </trkpt>
      <trkpt lat="44.23757" lon="7.05079">
        <ele>2219.1999511719</ele>
        <time>2018-05-09T08:19:48.000Z</time>
      </trkpt>
      <trkpt lat="44.23743" lon="7.0508">
        <ele>2220.3999023438</ele>
        <time>2018-05-09T08:19:56.000Z</time>
      </trkpt>
      <trkpt lat="44.2374" lon="7.0508">
        <ele>2220.6000976562</ele>
        <time>2018-05-09T08:19:58.000Z</time>
      </trkpt>
      <trkpt lat="44.2374" lon="7.05085">
        <ele>2221</ele>
        <time>2018-05-09T08:20:02.000Z</time>
      </trkpt>
      <trkpt lat="44.23736" lon="7.05086">
        <ele>2221.6000976562</ele>
        <time>2018-05-09T08:20:05.000Z</time>
      </trkpt>
      <trkpt lat="44.23735" lon="7.05085">
        <ele>2221.8000488281</ele>
        <time>2018-05-09T08:20:06.000Z</time>
      </trkpt>
      <trkpt lat="44.23726" lon="7.05089">
        <ele>2222.6000976562</ele>
        <time>2018-05-09T08:20:14.000Z</time>
      </trkpt>
      <trkpt lat="44.23726" lon="7.0509">
        <ele>2222.8000488281</ele>
        <time>2018-05-09T08:20:15.000Z</time>
      </trkpt>
      <trkpt lat="44.23726" lon="7.05092">
        <ele>2223</ele>
        <time>2018-05-09T08:20:16.000Z</time>
      </trkpt>
      <trkpt lat="44.23732" lon="7.05102">
        <ele>2223.6000976562</ele>
        <time>2018-05-09T08:20:21.000Z</time>
      </trkpt>
      <trkpt lat="44.23733" lon="7.05103">
        <ele>2223.8000488281</ele>
        <time>2018-05-09T08:20:22.000Z</time>
      </trkpt>
      <trkpt lat="44.23731" lon="7.05105">
        <ele>2224.1999511719</ele>
        <time>2018-05-09T08:20:26.000Z</time>
      </trkpt>
      <trkpt lat="44.2373" lon="7.05108">
        <ele>2224.6000976562</ele>
        <time>2018-05-09T08:20:29.000Z</time>
      </trkpt>
      <trkpt lat="44.23724" lon="7.05106">
        <ele>2224.8000488281</ele>
        <time>2018-05-09T08:20:33.000Z</time>
      </trkpt>
      <trkpt lat="44.2372" lon="7.05104">
        <ele>2225</ele>
        <time>2018-05-09T08:20:36.000Z</time>
      </trkpt>
      <trkpt lat="44.23719" lon="7.05105">
        <ele>2225.6000976562</ele>
        <time>2018-05-09T08:20:40.000Z</time>
      </trkpt>
      <trkpt lat="44.23719" lon="7.05107">
        <ele>2225.6000976562</ele>
        <time>2018-05-09T08:20:41.000Z</time>
      </trkpt>
      <trkpt lat="44.23719" lon="7.05107">
        <ele>2225.8000488281</ele>
        <time>2018-05-09T08:20:42.000Z</time>
      </trkpt>
      <trkpt lat="44.23717" lon="7.05109">
        <ele>2226</ele>
        <time>2018-05-09T08:20:45.000Z</time>
      </trkpt>
      <trkpt lat="44.23714" lon="7.05111">
        <ele>2226.3999023438</ele>
        <time>2018-05-09T08:20:49.000Z</time>
      </trkpt>
      <trkpt lat="44.23708" lon="7.0511">
        <ele>2226.8000488281</ele>
        <time>2018-05-09T08:20:53.000Z</time>
      </trkpt>
      <trkpt lat="44.23702" lon="7.05113">
        <ele>2227.6000976562</ele>
        <time>2018-05-09T08:20:59.000Z</time>
      </trkpt>
      <trkpt lat="44.23703" lon="7.05115">
        <ele>2227.8000488281</ele>
        <time>2018-05-09T08:21:01.000Z</time>
      </trkpt>
      <trkpt lat="44.23701" lon="7.05114">
        <ele>2227.8000488281</ele>
        <time>2018-05-09T08:21:03.000Z</time>
      </trkpt>
      <trkpt lat="44.237" lon="7.05114">
        <ele>2228</ele>
        <time>2018-05-09T08:21:04.000Z</time>
      </trkpt>
      <trkpt lat="44.23698" lon="7.05115">
        <ele>2228.1999511719</ele>
        <time>2018-05-09T08:21:06.000Z</time>
      </trkpt>
      <trkpt lat="44.23698" lon="7.05121">
        <ele>2228.6000976562</ele>
        <time>2018-05-09T08:21:10.000Z</time>
      </trkpt>
      <trkpt lat="44.23701" lon="7.05126">
        <ele>2229</ele>
        <time>2018-05-09T08:21:13.000Z</time>
      </trkpt>
      <trkpt lat="44.23699" lon="7.05127">
        <ele>2229.3999023438</ele>
        <time>2018-05-09T08:21:16.000Z</time>
      </trkpt>
      <trkpt lat="44.23698" lon="7.05127">
        <ele>2229.6000976562</ele>
        <time>2018-05-09T08:21:17.000Z</time>
      </trkpt>
      <trkpt lat="44.23695" lon="7.05128">
        <ele>2230.1999511719</ele>
        <time>2018-05-09T08:21:21.000Z</time>
      </trkpt>
      <trkpt lat="44.23693" lon="7.05129">
        <ele>2230.3999023438</ele>
        <time>2018-05-09T08:21:24.000Z</time>
      </trkpt>
      <trkpt lat="44.23692" lon="7.0513">
        <ele>2230.6000976562</ele>
        <time>2018-05-09T08:21:26.000Z</time>
      </trkpt>
      <trkpt lat="44.2369" lon="7.0513">
        <ele>2230.8000488281</ele>
        <time>2018-05-09T08:21:27.000Z</time>
      </trkpt>
      <trkpt lat="44.23682" lon="7.05123">
        <ele>2231</ele>
        <time>2018-05-09T08:21:29.000Z</time>
      </trkpt>
      <trkpt lat="44.23682" lon="7.05122">
        <ele>2231.1999511719</ele>
        <time>2018-05-09T08:21:30.000Z</time>
      </trkpt>
      <trkpt lat="44.23676" lon="7.05125">
        <ele>2231.8000488281</ele>
        <time>2018-05-09T08:21:42.000Z</time>
      </trkpt>
      <trkpt lat="44.23671" lon="7.05123">
        <ele>2232.1999511719</ele>
        <time>2018-05-09T08:21:45.000Z</time>
      </trkpt>
      <trkpt lat="44.2367" lon="7.05123">
        <ele>2232.6000976562</ele>
        <time>2018-05-09T08:21:47.000Z</time>
      </trkpt>
      <trkpt lat="44.23666" lon="7.05124">
        <ele>2233</ele>
        <time>2018-05-09T08:21:53.000Z</time>
      </trkpt>
      <trkpt lat="44.23666" lon="7.05124">
        <ele>2233</ele>
        <time>2018-05-09T08:21:54.000Z</time>
      </trkpt>
      <trkpt lat="44.23666" lon="7.05126">
        <ele>2233.3999023438</ele>
        <time>2018-05-09T08:21:57.000Z</time>
      </trkpt>
      <trkpt lat="44.23662" lon="7.05127">
        <ele>2234</ele>
        <time>2018-05-09T08:22:02.000Z</time>
      </trkpt>
      <trkpt lat="44.23661" lon="7.05128">
        <ele>2234.1999511719</ele>
        <time>2018-05-09T08:22:05.000Z</time>
      </trkpt>
      <trkpt lat="44.2366" lon="7.05129">
        <ele>2234.3999023438</ele>
        <time>2018-05-09T08:22:07.000Z</time>
      </trkpt>
      <trkpt lat="44.23657" lon="7.05128">
        <ele>2234.8000488281</ele>
        <time>2018-05-09T08:22:11.000Z</time>
      </trkpt>
      <trkpt lat="44.23657" lon="7.05127">
        <ele>2235</ele>
        <time>2018-05-09T08:22:12.000Z</time>
      </trkpt>
      <trkpt lat="44.23656" lon="7.05128">
        <ele>2235.3999023438</ele>
        <time>2018-05-09T08:22:20.000Z</time>
      </trkpt>
      <trkpt lat="44.23652" lon="7.05128">
        <ele>2235.6000976562</ele>
        <time>2018-05-09T08:22:24.000Z</time>
      </trkpt>
      <trkpt lat="44.23649" lon="7.05128">
        <ele>2235.8000488281</ele>
        <time>2018-05-09T08:22:26.000Z</time>
      </trkpt>
      <trkpt lat="44.23648" lon="7.05128">
        <ele>2236</ele>
        <time>2018-05-09T08:22:27.000Z</time>
      </trkpt>
      <trkpt lat="44.23644" lon="7.05124">
        <ele>2236.6000976562</ele>
        <time>2018-05-09T08:22:33.000Z</time>
      </trkpt>
      <trkpt lat="44.23642" lon="7.05124">
        <ele>2236.8000488281</ele>
        <time>2018-05-09T08:22:34.000Z</time>
      </trkpt>
      <trkpt lat="44.2364" lon="7.05125">
        <ele>2237</ele>
        <time>2018-05-09T08:22:37.000Z</time>
      </trkpt>
      <trkpt lat="44.23639" lon="7.05125">
        <ele>2237.1999511719</ele>
        <time>2018-05-09T08:22:38.000Z</time>
      </trkpt>
      <trkpt lat="44.23637" lon="7.05129">
        <ele>2237.6000976562</ele>
        <time>2018-05-09T08:22:42.000Z</time>
      </trkpt>
      <trkpt lat="44.23631" lon="7.05134">
        <ele>2238.3999023438</ele>
        <time>2018-05-09T08:22:49.000Z</time>
      </trkpt>
      <trkpt lat="44.2363" lon="7.05135">
        <ele>2238.3999023438</ele>
        <time>2018-05-09T08:22:51.000Z</time>
      </trkpt>
      <trkpt lat="44.23626" lon="7.05134">
        <ele>2238.6000976562</ele>
        <time>2018-05-09T08:22:54.000Z</time>
      </trkpt>
      <trkpt lat="44.23625" lon="7.05134">
        <ele>2238.8000488281</ele>
        <time>2018-05-09T08:22:55.000Z</time>
      </trkpt>
      <trkpt lat="44.23624" lon="7.05135">
        <ele>2239</ele>
        <time>2018-05-09T08:22:57.000Z</time>
      </trkpt>
      <trkpt lat="44.23618" lon="7.05131">
        <ele>2239.6000976562</ele>
        <time>2018-05-09T08:23:03.000Z</time>
      </trkpt>
      <trkpt lat="44.23619" lon="7.05134">
        <ele>2239.6000976562</ele>
        <time>2018-05-09T08:23:06.000Z</time>
      </trkpt>
      <trkpt lat="44.23614" lon="7.05134">
        <ele>2239.8000488281</ele>
        <time>2018-05-09T08:23:10.000Z</time>
      </trkpt>
      <trkpt lat="44.23612" lon="7.05134">
        <ele>2240</ele>
        <time>2018-05-09T08:23:12.000Z</time>
      </trkpt>
      <trkpt lat="44.2361" lon="7.05134">
        <ele>2240.1999511719</ele>
        <time>2018-05-09T08:23:14.000Z</time>
      </trkpt>
      <trkpt lat="44.2361" lon="7.05135">
        <ele>2240.3999023438</ele>
        <time>2018-05-09T08:23:15.000Z</time>
      </trkpt>
      <trkpt lat="44.23607" lon="7.05137">
        <ele>2240.6000976562</ele>
        <time>2018-05-09T08:23:18.000Z</time>
      </trkpt>
      <trkpt lat="44.23606" lon="7.05138">
        <ele>2240.8000488281</ele>
        <time>2018-05-09T08:23:19.000Z</time>
      </trkpt>
      <trkpt lat="44.23603" lon="7.05138">
        <ele>2241</ele>
        <time>2018-05-09T08:23:20.000Z</time>
      </trkpt>
      <trkpt lat="44.23598" lon="7.0514">
        <ele>2241.8000488281</ele>
        <time>2018-05-09T08:23:25.000Z</time>
      </trkpt>
      <trkpt lat="44.23596" lon="7.05141">
        <ele>2242</ele>
        <time>2018-05-09T08:23:27.000Z</time>
      </trkpt>
      <trkpt lat="44.23592" lon="7.05144">
        <ele>2243</ele>
        <time>2018-05-09T08:23:38.000Z</time>
      </trkpt>
      <trkpt lat="44.23593" lon="7.05145">
        <ele>2243.3999023438</ele>
        <time>2018-05-09T08:23:40.000Z</time>
      </trkpt>
      <trkpt lat="44.23592" lon="7.05146">
        <ele>2243.6000976562</ele>
        <time>2018-05-09T08:23:41.000Z</time>
      </trkpt>
      <trkpt lat="44.23592" lon="7.05147">
        <ele>2243.8000488281</ele>
        <time>2018-05-09T08:23:43.000Z</time>
      </trkpt>
      <trkpt lat="44.2359" lon="7.05148">
        <ele>2244.1999511719</ele>
        <time>2018-05-09T08:23:46.000Z</time>
      </trkpt>
      <trkpt lat="44.23583" lon="7.05149">
        <ele>2244.3999023438</ele>
        <time>2018-05-09T08:23:52.000Z</time>
      </trkpt>
      <trkpt lat="44.23574" lon="7.05146">
        <ele>2245.3999023438</ele>
        <time>2018-05-09T08:23:58.000Z</time>
      </trkpt>
      <trkpt lat="44.23567" lon="7.05137">
        <ele>2246</ele>
        <time>2018-05-09T08:24:04.000Z</time>
      </trkpt>
      <trkpt lat="44.23568" lon="7.05138">
        <ele>2246.1999511719</ele>
        <time>2018-05-09T08:24:05.000Z</time>
      </trkpt>
      <trkpt lat="44.23568" lon="7.05139">
        <ele>2246.1999511719</ele>
        <time>2018-05-09T08:24:06.000Z</time>
      </trkpt>
      <trkpt lat="44.23568" lon="7.0514">
        <ele>2246.3999023438</ele>
        <time>2018-05-09T08:24:07.000Z</time>
      </trkpt>
      <trkpt lat="44.23568" lon="7.0514">
        <ele>2246.3999023438</ele>
        <time>2018-05-09T08:24:08.000Z</time>
      </trkpt>
      <trkpt lat="44.23568" lon="7.05141">
        <ele>2246.6000976562</ele>
        <time>2018-05-09T08:24:10.000Z</time>
      </trkpt>
      <trkpt lat="44.23564" lon="7.05142">
        <ele>2247.3999023438</ele>
        <time>2018-05-09T08:24:18.000Z</time>
      </trkpt>
      <trkpt lat="44.23559" lon="7.05147">
        <ele>2248.1999511719</ele>
        <time>2018-05-09T08:24:29.000Z</time>
      </trkpt>
      <trkpt lat="44.23559" lon="7.05148">
        <ele>2248.6000976562</ele>
        <time>2018-05-09T08:24:31.000Z</time>
      </trkpt>
      <trkpt lat="44.23559" lon="7.05154">
        <ele>2249.1999511719</ele>
        <time>2018-05-09T08:24:37.000Z</time>
      </trkpt>
      <trkpt lat="44.23555" lon="7.05153">
        <ele>2249.6000976562</ele>
        <time>2018-05-09T08:24:42.000Z</time>
      </trkpt>
      <trkpt lat="44.23551" lon="7.0515">
        <ele>2250</ele>
        <time>2018-05-09T08:24:46.000Z</time>
      </trkpt>
      <trkpt lat="44.2355" lon="7.0515">
        <ele>2250</ele>
        <time>2018-05-09T08:24:47.000Z</time>
      </trkpt>
      <trkpt lat="44.23545" lon="7.05149">
        <ele>2250.6000976562</ele>
        <time>2018-05-09T08:24:51.000Z</time>
      </trkpt>
      <trkpt lat="44.23544" lon="7.05149">
        <ele>2250.6000976562</ele>
        <time>2018-05-09T08:24:52.000Z</time>
      </trkpt>
      <trkpt lat="44.23538" lon="7.05151">
        <ele>2251.8000488281</ele>
        <time>2018-05-09T08:25:03.000Z</time>
      </trkpt>
      <trkpt lat="44.23536" lon="7.05153">
        <ele>2252.1999511719</ele>
        <time>2018-05-09T08:25:06.000Z</time>
      </trkpt>
      <trkpt lat="44.23534" lon="7.05154">
        <ele>2252.3999023438</ele>
        <time>2018-05-09T08:25:10.000Z</time>
      </trkpt>
      <trkpt lat="44.23532" lon="7.05154">
        <ele>2252.8000488281</ele>
        <time>2018-05-09T08:25:15.000Z</time>
      </trkpt>
      <trkpt lat="44.23531" lon="7.05154">
        <ele>2253</ele>
        <time>2018-05-09T08:25:17.000Z</time>
      </trkpt>
      <trkpt lat="44.23526" lon="7.05153">
        <ele>2253.6000976562</ele>
        <time>2018-05-09T08:25:24.000Z</time>
      </trkpt>
      <trkpt lat="44.23523" lon="7.05153">
        <ele>2253.8000488281</ele>
        <time>2018-05-09T08:25:27.000Z</time>
      </trkpt>
      <trkpt lat="44.23518" lon="7.05152">
        <ele>2254.3999023438</ele>
        <time>2018-05-09T08:25:31.000Z</time>
      </trkpt>
      <trkpt lat="44.23516" lon="7.05151">
        <ele>2254.6000976562</ele>
        <time>2018-05-09T08:25:33.000Z</time>
      </trkpt>
      <trkpt lat="44.23515" lon="7.05148">
        <ele>2254.8000488281</ele>
        <time>2018-05-09T08:25:36.000Z</time>
      </trkpt>
      <trkpt lat="44.2351" lon="7.05148">
        <ele>2255.3999023438</ele>
        <time>2018-05-09T08:25:42.000Z</time>
      </trkpt>
      <trkpt lat="44.23507" lon="7.05148">
        <ele>2255.6000976562</ele>
        <time>2018-05-09T08:25:45.000Z</time>
      </trkpt>
      <trkpt lat="44.23507" lon="7.05148">
        <ele>2255.6000976562</ele>
        <time>2018-05-09T08:25:46.000Z</time>
      </trkpt>
      <trkpt lat="44.23507" lon="7.05149">
        <ele>2255.8000488281</ele>
        <time>2018-05-09T08:25:47.000Z</time>
      </trkpt>
      <trkpt lat="44.23506" lon="7.0515">
        <ele>2256</ele>
        <time>2018-05-09T08:25:49.000Z</time>
      </trkpt>
      <trkpt lat="44.23506" lon="7.0515">
        <ele>2256.1999511719</ele>
        <time>2018-05-09T08:25:50.000Z</time>
      </trkpt>
      <trkpt lat="44.23507" lon="7.05151">
        <ele>2256.3999023438</ele>
        <time>2018-05-09T08:25:51.000Z</time>
      </trkpt>
      <trkpt lat="44.23506" lon="7.05152">
        <ele>2256.6000976562</ele>
        <time>2018-05-09T08:25:52.000Z</time>
      </trkpt>
      <trkpt lat="44.23506" lon="7.05153">
        <ele>2256.8000488281</ele>
        <time>2018-05-09T08:25:54.000Z</time>
      </trkpt>
      <trkpt lat="44.23506" lon="7.05154">
        <ele>2257</ele>
        <time>2018-05-09T08:25:55.000Z</time>
      </trkpt>
      <trkpt lat="44.23496" lon="7.05164">
        <ele>2258</ele>
        <time>2018-05-09T08:26:06.000Z</time>
      </trkpt>
      <trkpt lat="44.23495" lon="7.05164">
        <ele>2258</ele>
        <time>2018-05-09T08:26:07.000Z</time>
      </trkpt>
      <trkpt lat="44.23495" lon="7.05164">
        <ele>2258.1999511719</ele>
        <time>2018-05-09T08:26:08.000Z</time>
      </trkpt>
      <trkpt lat="44.2349" lon="7.05164">
        <ele>2259</ele>
        <time>2018-05-09T08:26:18.000Z</time>
      </trkpt>
      <trkpt lat="44.23487" lon="7.05163">
        <ele>2260.1999511719</ele>
        <time>2018-05-09T08:26:26.000Z</time>
      </trkpt>
      <trkpt lat="44.2348" lon="7.05162">
        <ele>2260.8000488281</ele>
        <time>2018-05-09T08:26:34.000Z</time>
      </trkpt>
      <trkpt lat="44.23477" lon="7.0516">
        <ele>2261.3999023438</ele>
        <time>2018-05-09T08:26:36.000Z</time>
      </trkpt>
      <trkpt lat="44.23476" lon="7.0516">
        <ele>2261.3999023438</ele>
        <time>2018-05-09T08:26:37.000Z</time>
      </trkpt>
      <trkpt lat="44.23475" lon="7.0516">
        <ele>2261.6000976562</ele>
        <time>2018-05-09T08:26:39.000Z</time>
      </trkpt>
      <trkpt lat="44.2347" lon="7.05161">
        <ele>2262.3999023438</ele>
        <time>2018-05-09T08:26:45.000Z</time>
      </trkpt>
      <trkpt lat="44.2347" lon="7.05161">
        <ele>2262.6000976562</ele>
        <time>2018-05-09T08:26:46.000Z</time>
      </trkpt>
      <trkpt lat="44.23468" lon="7.05161">
        <ele>2262.8000488281</ele>
        <time>2018-05-09T08:26:49.000Z</time>
      </trkpt>
      <trkpt lat="44.23467" lon="7.05166">
        <ele>2263.6000976562</ele>
        <time>2018-05-09T08:26:56.000Z</time>
      </trkpt>
      <trkpt lat="44.23465" lon="7.05168">
        <ele>2264.6000976562</ele>
        <time>2018-05-09T08:27:03.000Z</time>
      </trkpt>
      <trkpt lat="44.23464" lon="7.05168">
        <ele>2264.8000488281</ele>
        <time>2018-05-09T08:27:05.000Z</time>
      </trkpt>
      <trkpt lat="44.23456" lon="7.05163">
        <ele>2265.6000976562</ele>
        <time>2018-05-09T08:27:14.000Z</time>
      </trkpt>
      <trkpt lat="44.23451" lon="7.0516">
        <ele>2266.8000488281</ele>
        <time>2018-05-09T08:27:24.000Z</time>
      </trkpt>
      <trkpt lat="44.2345" lon="7.0516">
        <ele>2267</ele>
        <time>2018-05-09T08:27:26.000Z</time>
      </trkpt>
      <trkpt lat="44.23449" lon="7.0516">
        <ele>2267.1999511719</ele>
        <time>2018-05-09T08:27:27.000Z</time>
      </trkpt>
      <trkpt lat="44.23449" lon="7.0516">
        <ele>2267.1999511719</ele>
        <time>2018-05-09T08:27:28.000Z</time>
      </trkpt>
      <trkpt lat="44.23444" lon="7.05159">
        <ele>2267.8000488281</ele>
        <time>2018-05-09T08:27:33.000Z</time>
      </trkpt>
      <trkpt lat="44.23444" lon="7.05158">
        <ele>2268</ele>
        <time>2018-05-09T08:27:34.000Z</time>
      </trkpt>
      <trkpt lat="44.23438" lon="7.05154">
        <ele>2269</ele>
        <time>2018-05-09T08:27:42.000Z</time>
      </trkpt>
      <trkpt lat="44.23436" lon="7.05152">
        <ele>2269.3999023438</ele>
        <time>2018-05-09T08:27:47.000Z</time>
      </trkpt>
      <trkpt lat="44.23435" lon="7.05152">
        <ele>2269.6000976562</ele>
        <time>2018-05-09T08:27:48.000Z</time>
      </trkpt>
      <trkpt lat="44.23435" lon="7.05152">
        <ele>2269.6000976562</ele>
        <time>2018-05-09T08:27:49.000Z</time>
      </trkpt>
      <trkpt lat="44.23437" lon="7.05155">
        <ele>2270</ele>
        <time>2018-05-09T08:27:51.000Z</time>
      </trkpt>
      <trkpt lat="44.23436" lon="7.05157">
        <ele>2270.3999023438</ele>
        <time>2018-05-09T08:27:54.000Z</time>
      </trkpt>
      <trkpt lat="44.23433" lon="7.05157">
        <ele>2271</ele>
        <time>2018-05-09T08:28:00.000Z</time>
      </trkpt>
      <trkpt lat="44.23426" lon="7.05156">
        <ele>2272.1999511719</ele>
        <time>2018-05-09T08:28:08.000Z</time>
      </trkpt>
      <trkpt lat="44.23422" lon="7.05155">
        <ele>2273.1999511719</ele>
        <time>2018-05-09T08:28:18.000Z</time>
      </trkpt>
      <trkpt lat="44.23416" lon="7.05153">
        <ele>2274.1999511719</ele>
        <time>2018-05-09T08:28:29.000Z</time>
      </trkpt>
      <trkpt lat="44.2341" lon="7.05151">
        <ele>2275.3999023438</ele>
        <time>2018-05-09T08:28:40.000Z</time>
      </trkpt>
      <trkpt lat="44.23406" lon="7.0515">
        <ele>2276.3999023438</ele>
        <time>2018-05-09T08:28:49.000Z</time>
      </trkpt>
      <trkpt lat="44.234" lon="7.0515">
        <ele>2277.3999023438</ele>
        <time>2018-05-09T08:28:58.000Z</time>
      </trkpt>
      <trkpt lat="44.23397" lon="7.05151">
        <ele>2277.6000976562</ele>
        <time>2018-05-09T08:29:02.000Z</time>
      </trkpt>
      <trkpt lat="44.23395" lon="7.05151">
        <ele>2278.3999023438</ele>
        <time>2018-05-09T08:29:08.000Z</time>
      </trkpt>
      <trkpt lat="44.2339" lon="7.05151">
        <ele>2279.6000976562</ele>
        <time>2018-05-09T08:29:17.000Z</time>
      </trkpt>
      <trkpt lat="44.23384" lon="7.0515">
        <ele>2280.6000976562</ele>
        <time>2018-05-09T08:29:27.000Z</time>
      </trkpt>
      <trkpt lat="44.23382" lon="7.0515">
        <ele>2281</ele>
        <time>2018-05-09T08:29:32.000Z</time>
      </trkpt>
      <trkpt lat="44.23381" lon="7.0515">
        <ele>2281</ele>
        <time>2018-05-09T08:29:33.000Z</time>
      </trkpt>
      <trkpt lat="44.23379" lon="7.05149">
        <ele>2281.3999023438</ele>
        <time>2018-05-09T08:29:38.000Z</time>
      </trkpt>
      <trkpt lat="44.23378" lon="7.05149">
        <ele>2281.6000976562</ele>
        <time>2018-05-09T08:29:39.000Z</time>
      </trkpt>
      <trkpt lat="44.23378" lon="7.05149">
        <ele>2281.6000976562</ele>
        <time>2018-05-09T08:29:40.000Z</time>
      </trkpt>
      <trkpt lat="44.23375" lon="7.05149">
        <ele>2282.1999511719</ele>
        <time>2018-05-09T08:29:45.000Z</time>
      </trkpt>
      <trkpt lat="44.23374" lon="7.0515">
        <ele>2282.3999023438</ele>
        <time>2018-05-09T08:29:47.000Z</time>
      </trkpt>
      <trkpt lat="44.23371" lon="7.0515">
        <ele>2282.8000488281</ele>
        <time>2018-05-09T08:29:51.000Z</time>
      </trkpt>
      <trkpt lat="44.2337" lon="7.0515">
        <ele>2282.8000488281</ele>
        <time>2018-05-09T08:29:52.000Z</time>
      </trkpt>
      <trkpt lat="44.23367" lon="7.0515">
        <ele>2283.1999511719</ele>
        <time>2018-05-09T08:29:55.000Z</time>
      </trkpt>
      <trkpt lat="44.23363" lon="7.0515">
        <ele>2283.8000488281</ele>
        <time>2018-05-09T08:30:01.000Z</time>
      </trkpt>
      <trkpt lat="44.2336" lon="7.0515">
        <ele>2284.6000976562</ele>
        <time>2018-05-09T08:30:07.000Z</time>
      </trkpt>
      <trkpt lat="44.2336" lon="7.0515">
        <ele>2284.6000976562</ele>
        <time>2018-05-09T08:30:08.000Z</time>
      </trkpt>
      <trkpt lat="44.23358" lon="7.0515">
        <ele>2285</ele>
        <time>2018-05-09T08:30:11.000Z</time>
      </trkpt>
      <trkpt lat="44.23352" lon="7.05148">
        <ele>2285.8000488281</ele>
        <time>2018-05-09T08:30:19.000Z</time>
      </trkpt>
      <trkpt lat="44.23352" lon="7.05148">
        <ele>2285.8000488281</ele>
        <time>2018-05-09T08:30:20.000Z</time>
      </trkpt>
      <trkpt lat="44.23351" lon="7.05148">
        <ele>2286</ele>
        <time>2018-05-09T08:30:21.000Z</time>
      </trkpt>
      <trkpt lat="44.23347" lon="7.05146">
        <ele>2287.1999511719</ele>
        <time>2018-05-09T08:30:30.000Z</time>
      </trkpt>
      <trkpt lat="44.23342" lon="7.05146">
        <ele>2288.1999511719</ele>
        <time>2018-05-09T08:30:38.000Z</time>
      </trkpt>
      <trkpt lat="44.23336" lon="7.05147">
        <ele>2289.3999023438</ele>
        <time>2018-05-09T08:30:48.000Z</time>
      </trkpt>
      <trkpt lat="44.23334" lon="7.05148">
        <ele>2289.6000976562</ele>
        <time>2018-05-09T08:30:51.000Z</time>
      </trkpt>
      <trkpt lat="44.2333" lon="7.05147">
        <ele>2290.3999023438</ele>
        <time>2018-05-09T08:30:55.000Z</time>
      </trkpt>
      <trkpt lat="44.23328" lon="7.05145">
        <ele>2290.8000488281</ele>
        <time>2018-05-09T08:30:58.000Z</time>
      </trkpt>
      <trkpt lat="44.23326" lon="7.05144">
        <ele>2291.6000976562</ele>
        <time>2018-05-09T08:31:02.000Z</time>
      </trkpt>
      <trkpt lat="44.2332" lon="7.05145">
        <ele>2292.6000976562</ele>
        <time>2018-05-09T08:31:10.000Z</time>
      </trkpt>
      <trkpt lat="44.23315" lon="7.05146">
        <ele>2293.8000488281</ele>
        <time>2018-05-09T08:31:16.000Z</time>
      </trkpt>
      <trkpt lat="44.23313" lon="7.05147">
        <ele>2294.6000976562</ele>
        <time>2018-05-09T08:31:21.000Z</time>
      </trkpt>
      <trkpt lat="44.23313" lon="7.05148">
        <ele>2294.8000488281</ele>
        <time>2018-05-09T08:31:22.000Z</time>
      </trkpt>
      <trkpt lat="44.23311" lon="7.05152">
        <ele>2296</ele>
        <time>2018-05-09T08:31:27.000Z</time>
      </trkpt>
      <trkpt lat="44.23308" lon="7.05157">
        <ele>2297</ele>
        <time>2018-05-09T08:31:33.000Z</time>
      </trkpt>
      <trkpt lat="44.23306" lon="7.05158">
        <ele>2298</ele>
        <time>2018-05-09T08:31:40.000Z</time>
      </trkpt>
      <trkpt lat="44.23303" lon="7.05155">
        <ele>2298.8000488281</ele>
        <time>2018-05-09T08:31:44.000Z</time>
      </trkpt>
      <trkpt lat="44.23303" lon="7.05153">
        <ele>2299.1999511719</ele>
        <time>2018-05-09T08:31:46.000Z</time>
      </trkpt>
      <trkpt lat="44.23297" lon="7.05148">
        <ele>2300.1999511719</ele>
        <time>2018-05-09T08:31:55.000Z</time>
      </trkpt>
      <trkpt lat="44.23293" lon="7.05146">
        <ele>2301.3999023438</ele>
        <time>2018-05-09T08:32:01.000Z</time>
      </trkpt>
      <trkpt lat="44.23285" lon="7.05147">
        <ele>2302.3999023438</ele>
        <time>2018-05-09T08:32:08.000Z</time>
      </trkpt>
      <trkpt lat="44.23282" lon="7.05147">
        <ele>2303.6000976562</ele>
        <time>2018-05-09T08:32:13.000Z</time>
      </trkpt>
      <trkpt lat="44.23277" lon="7.05144">
        <ele>2304.6000976562</ele>
        <time>2018-05-09T08:32:21.000Z</time>
      </trkpt>
      <trkpt lat="44.23274" lon="7.05144">
        <ele>2305.6000976562</ele>
        <time>2018-05-09T08:32:27.000Z</time>
      </trkpt>
      <trkpt lat="44.23268" lon="7.05143">
        <ele>2306.6000976562</ele>
        <time>2018-05-09T08:32:35.000Z</time>
      </trkpt>
      <trkpt lat="44.23264" lon="7.05144">
        <ele>2307.8000488281</ele>
        <time>2018-05-09T08:32:41.000Z</time>
      </trkpt>
      <trkpt lat="44.2326" lon="7.05145">
        <ele>2308.8000488281</ele>
        <time>2018-05-09T08:32:47.000Z</time>
      </trkpt>
      <trkpt lat="44.23259" lon="7.05145">
        <ele>2310</ele>
        <time>2018-05-09T08:32:55.000Z</time>
      </trkpt>
      <trkpt lat="44.23261" lon="7.05142">
        <ele>2310</ele>
        <time>2018-05-09T08:33:02.000Z</time>
      </trkpt>
      <trkpt lat="44.2326" lon="7.05144">
        <ele>2310.1999511719</ele>
        <time>2018-05-09T08:33:12.000Z</time>
      </trkpt>
      <trkpt lat="44.2326" lon="7.05144">
        <ele>2310.3999023438</ele>
        <time>2018-05-09T08:33:17.000Z</time>
      </trkpt>
      <trkpt lat="44.2326" lon="7.05144">
        <ele>2310.3999023438</ele>
        <time>2018-05-09T08:33:19.000Z</time>
      </trkpt>
      <trkpt lat="44.2326" lon="7.05145">
        <ele>2310.3999023438</ele>
        <time>2018-05-09T08:33:21.000Z</time>
      </trkpt>
      <trkpt lat="44.23259" lon="7.05145">
        <ele>2310.6000976562</ele>
        <time>2018-05-09T08:33:26.000Z</time>
      </trkpt>
      <trkpt lat="44.23259" lon="7.05145">
        <ele>2310.6000976562</ele>
        <time>2018-05-09T08:33:29.000Z</time>
      </trkpt>
      <trkpt lat="44.23259" lon="7.05144">
        <ele>2310.6000976562</ele>
        <time>2018-05-09T08:33:31.000Z</time>
      </trkpt>
      <trkpt lat="44.23259" lon="7.05144">
        <ele>2310.6000976562</ele>
        <time>2018-05-09T08:33:38.000Z</time>
      </trkpt>
      <trkpt lat="44.23259" lon="7.05144">
        <ele>2310.6000976562</ele>
        <time>2018-05-09T08:33:39.000Z</time>
      </trkpt>
      <trkpt lat="44.2326" lon="7.05144">
        <ele>2310.6000976562</ele>
        <time>2018-05-09T08:33:43.000Z</time>
      </trkpt>
      <trkpt lat="44.2326" lon="7.05144">
        <ele>2310.6000976562</ele>
        <time>2018-05-09T08:33:45.000Z</time>
      </trkpt>
      <trkpt lat="44.23261" lon="7.05144">
        <ele>2310.6000976562</ele>
        <time>2018-05-09T08:33:48.000Z</time>
      </trkpt>
      <trkpt lat="44.23261" lon="7.05143">
        <ele>2310.6000976562</ele>
        <time>2018-05-09T08:33:52.000Z</time>
      </trkpt>
      <trkpt lat="44.2326" lon="7.05143">
        <ele>2310.6000976562</ele>
        <time>2018-05-09T08:33:59.000Z</time>
      </trkpt>
      <trkpt lat="44.2326" lon="7.05142">
        <ele>2310.3999023438</ele>
        <time>2018-05-09T08:34:03.000Z</time>
      </trkpt>
      <trkpt lat="44.2326" lon="7.05142">
        <ele>2310.3999023438</ele>
        <time>2018-05-09T08:34:04.000Z</time>
      </trkpt>
      <trkpt lat="44.23259" lon="7.05142">
        <ele>2310.3999023438</ele>
        <time>2018-05-09T08:34:05.000Z</time>
      </trkpt>
      <trkpt lat="44.23258" lon="7.05143">
        <ele>2310.3999023438</ele>
        <time>2018-05-09T08:34:06.000Z</time>
      </trkpt>
      <trkpt lat="44.23257" lon="7.05144">
        <ele>2310.3999023438</ele>
        <time>2018-05-09T08:34:07.000Z</time>
      </trkpt>
      <trkpt lat="44.23256" lon="7.05144">
        <ele>2310.1999511719</ele>
        <time>2018-05-09T08:34:09.000Z</time>
      </trkpt>
      <trkpt lat="44.23256" lon="7.05144">
        <ele>2310.1999511719</ele>
        <time>2018-05-09T08:34:11.000Z</time>
      </trkpt>
      <trkpt lat="44.23256" lon="7.05145">
        <ele>2310.1999511719</ele>
        <time>2018-05-09T08:34:16.000Z</time>
      </trkpt>
      <trkpt lat="44.23256" lon="7.05145">
        <ele>2310.1999511719</ele>
        <time>2018-05-09T08:34:19.000Z</time>
      </trkpt>
      <trkpt lat="44.23257" lon="7.05144">
        <ele>2310.1999511719</ele>
        <time>2018-05-09T08:34:23.000Z</time>
      </trkpt>
      <trkpt lat="44.23257" lon="7.05144">
        <ele>2310.1999511719</ele>
        <time>2018-05-09T08:34:24.000Z</time>
      </trkpt>
      <trkpt lat="44.23257" lon="7.05144">
        <ele>2310.1999511719</ele>
        <time>2018-05-09T08:34:25.000Z</time>
      </trkpt>
      <trkpt lat="44.23258" lon="7.05144">
        <ele>2310.1999511719</ele>
        <time>2018-05-09T08:34:27.000Z</time>
      </trkpt>
      <trkpt lat="44.23258" lon="7.05144">
        <ele>2310.1999511719</ele>
        <time>2018-05-09T08:34:28.000Z</time>
      </trkpt>
      <trkpt lat="44.23258" lon="7.05144">
        <ele>2310.1999511719</ele>
        <time>2018-05-09T08:34:29.000Z</time>
      </trkpt>
      <trkpt lat="44.23258" lon="7.05144">
        <ele>2310.1999511719</ele>
        <time>2018-05-09T08:34:30.000Z</time>
      </trkpt>
      <trkpt lat="44.23258" lon="7.05144">
        <ele>2310.1999511719</ele>
        <time>2018-05-09T08:34:32.000Z</time>
      </trkpt>
      <trkpt lat="44.23258" lon="7.05144">
        <ele>2310.1999511719</ele>
        <time>2018-05-09T08:34:35.000Z</time>
      </trkpt>
      <trkpt lat="44.23262" lon="7.05143">
        <ele>2310.1999511719</ele>
        <time>2018-05-09T08:34:49.000Z</time>
      </trkpt>
      <trkpt lat="44.23262" lon="7.05143">
        <ele>2310.1999511719</ele>
        <time>2018-05-09T08:34:50.000Z</time>
      </trkpt>
      <trkpt lat="44.23262" lon="7.05143">
        <ele>2310.1999511719</ele>
        <time>2018-05-09T08:34:51.000Z</time>
      </trkpt>
      <trkpt lat="44.23261" lon="7.05144">
        <ele>2310.1999511719</ele>
        <time>2018-05-09T08:34:54.000Z</time>
      </trkpt>
      <trkpt lat="44.23261" lon="7.05144">
        <ele>2310.1999511719</ele>
        <time>2018-05-09T08:34:55.000Z</time>
      </trkpt>
      <trkpt lat="44.2326" lon="7.05144">
        <ele>2310.1999511719</ele>
        <time>2018-05-09T08:35:03.000Z</time>
      </trkpt>
      <trkpt lat="44.23259" lon="7.05143">
        <ele>2310.1999511719</ele>
        <time>2018-05-09T08:35:09.000Z</time>
      </trkpt>
      <trkpt lat="44.23259" lon="7.05142">
        <ele>2310.1999511719</ele>
        <time>2018-05-09T08:35:10.000Z</time>
      </trkpt>
      <trkpt lat="44.23259" lon="7.05142">
        <ele>2310.1999511719</ele>
        <time>2018-05-09T08:35:11.000Z</time>
      </trkpt>
      <trkpt lat="44.23256" lon="7.0515">
        <ele>2310.1999511719</ele>
        <time>2018-05-09T08:35:19.000Z</time>
      </trkpt>
      <trkpt lat="44.23258" lon="7.05147">
        <ele>2310.1999511719</ele>
        <time>2018-05-09T08:35:21.000Z</time>
      </trkpt>
      <trkpt lat="44.23258" lon="7.05145">
        <ele>2310.1999511719</ele>
        <time>2018-05-09T08:35:24.000Z</time>
      </trkpt>
      <trkpt lat="44.23258" lon="7.05145">
        <ele>2310.1999511719</ele>
        <time>2018-05-09T08:35:27.000Z</time>
      </trkpt>
      <trkpt lat="44.23258" lon="7.05144">
        <ele>2310</ele>
        <time>2018-05-09T08:35:36.000Z</time>
      </trkpt>
      <trkpt lat="44.23258" lon="7.05144">
        <ele>2310</ele>
        <time>2018-05-09T08:35:38.000Z</time>
      </trkpt>
      <trkpt lat="44.23257" lon="7.05145">
        <ele>2310.1999511719</ele>
        <time>2018-05-09T08:35:42.000Z</time>
      </trkpt>
      <trkpt lat="44.23257" lon="7.05145">
        <ele>2310.1999511719</ele>
        <time>2018-05-09T08:35:46.000Z</time>
      </trkpt>
      <trkpt lat="44.23258" lon="7.05144">
        <ele>2310.3999023438</ele>
        <time>2018-05-09T08:35:50.000Z</time>
      </trkpt>
      <trkpt lat="44.23258" lon="7.05144">
        <ele>2310.3999023438</ele>
        <time>2018-05-09T08:35:53.000Z</time>
      </trkpt>
      <trkpt lat="44.23259" lon="7.05144">
        <ele>2310.3999023438</ele>
        <time>2018-05-09T08:35:56.000Z</time>
      </trkpt>
      <trkpt lat="44.23258" lon="7.05145">
        <ele>2310.3999023438</ele>
        <time>2018-05-09T08:36:03.000Z</time>
      </trkpt>
      <trkpt lat="44.23258" lon="7.05145">
        <ele>2310.3999023438</ele>
        <time>2018-05-09T08:36:07.000Z</time>
      </trkpt>
      <trkpt lat="44.23259" lon="7.05141">
        <ele>2310.3999023438</ele>
        <time>2018-05-09T08:36:15.000Z</time>
      </trkpt>
      <trkpt lat="44.23259" lon="7.05142">
        <ele>2310.3999023438</ele>
        <time>2018-05-09T08:36:18.000Z</time>
      </trkpt>
      <trkpt lat="44.23257" lon="7.05143">
        <ele>2310</ele>
        <time>2018-05-09T08:36:36.000Z</time>
      </trkpt>
      <trkpt lat="44.23257" lon="7.05142">
        <ele>2310</ele>
        <time>2018-05-09T08:36:40.000Z</time>
      </trkpt>
      <trkpt lat="44.23257" lon="7.05143">
        <ele>2310</ele>
        <time>2018-05-09T08:36:44.000Z</time>
      </trkpt>
      <trkpt lat="44.23257" lon="7.05143">
        <ele>2310</ele>
        <time>2018-05-09T08:36:46.000Z</time>
      </trkpt>
      <trkpt lat="44.23257" lon="7.05143">
        <ele>2310</ele>
        <time>2018-05-09T08:36:56.000Z</time>
      </trkpt>
      <trkpt lat="44.23256" lon="7.05144">
        <ele>2310</ele>
        <time>2018-05-09T08:36:58.000Z</time>
      </trkpt>
      <trkpt lat="44.23256" lon="7.05144">
        <ele>2310</ele>
        <time>2018-05-09T08:37:00.000Z</time>
      </trkpt>
      <trkpt lat="44.23257" lon="7.05144">
        <ele>2310</ele>
        <time>2018-05-09T08:37:02.000Z</time>
      </trkpt>
      <trkpt lat="44.23257" lon="7.05144">
        <ele>2310</ele>
        <time>2018-05-09T08:37:03.000Z</time>
      </trkpt>
      <trkpt lat="44.23257" lon="7.05144">
        <ele>2310</ele>
        <time>2018-05-09T08:37:04.000Z</time>
      </trkpt>
      <trkpt lat="44.23258" lon="7.05144">
        <ele>2310</ele>
        <time>2018-05-09T08:37:05.000Z</time>
      </trkpt>
      <trkpt lat="44.23258" lon="7.05143">
        <ele>2310</ele>
        <time>2018-05-09T08:37:06.000Z</time>
      </trkpt>
      <trkpt lat="44.23258" lon="7.05144">
        <ele>2310</ele>
        <time>2018-05-09T08:37:08.000Z</time>
      </trkpt>
      <trkpt lat="44.23258" lon="7.05144">
        <ele>2310</ele>
        <time>2018-05-09T08:37:13.000Z</time>
      </trkpt>
      <trkpt lat="44.23259" lon="7.05144">
        <ele>2310</ele>
        <time>2018-05-09T08:37:14.000Z</time>
      </trkpt>
      <trkpt lat="44.23259" lon="7.05144">
        <ele>2310</ele>
        <time>2018-05-09T08:37:19.000Z</time>
      </trkpt>
      <trkpt lat="44.23258" lon="7.05145">
        <ele>2310</ele>
        <time>2018-05-09T08:37:23.000Z</time>
      </trkpt>
      <trkpt lat="44.23258" lon="7.05145">
        <ele>2310</ele>
        <time>2018-05-09T08:37:24.000Z</time>
      </trkpt>
      <trkpt lat="44.23258" lon="7.05145">
        <ele>2310</ele>
        <time>2018-05-09T08:37:26.000Z</time>
      </trkpt>
      <trkpt lat="44.23258" lon="7.05145">
        <ele>2310</ele>
        <time>2018-05-09T08:37:29.000Z</time>
      </trkpt>
      <trkpt lat="44.23258" lon="7.05144">
        <ele>2310</ele>
        <time>2018-05-09T08:37:32.000Z</time>
      </trkpt>
      <trkpt lat="44.23258" lon="7.05144">
        <ele>2310</ele>
        <time>2018-05-09T08:37:34.000Z</time>
      </trkpt>
      <trkpt lat="44.23259" lon="7.05144">
        <ele>2310</ele>
        <time>2018-05-09T08:37:39.000Z</time>
      </trkpt>
      <trkpt lat="44.23259" lon="7.05144">
        <ele>2310</ele>
        <time>2018-05-09T08:37:42.000Z</time>
      </trkpt>
      <trkpt lat="44.23259" lon="7.05144">
        <ele>2310</ele>
        <time>2018-05-09T08:37:44.000Z</time>
      </trkpt>
      <trkpt lat="44.23258" lon="7.05144">
        <ele>2310</ele>
        <time>2018-05-09T08:37:53.000Z</time>
      </trkpt>
      <trkpt lat="44.23259" lon="7.05144">
        <ele>2310</ele>
        <time>2018-05-09T08:37:58.000Z</time>
      </trkpt>
      <trkpt lat="44.23259" lon="7.05144">
        <ele>2310</ele>
        <time>2018-05-09T08:38:08.000Z</time>
      </trkpt>
      <trkpt lat="44.2326" lon="7.05143">
        <ele>2310</ele>
        <time>2018-05-09T08:38:17.000Z</time>
      </trkpt>
      <trkpt lat="44.23263" lon="7.05138">
        <ele>2310</ele>
        <time>2018-05-09T08:38:26.000Z</time>
      </trkpt>
      <trkpt lat="44.23261" lon="7.0514">
        <ele>2310</ele>
        <time>2018-05-09T08:38:32.000Z</time>
      </trkpt>
      <trkpt lat="44.23259" lon="7.05141">
        <ele>2310</ele>
        <time>2018-05-09T08:38:38.000Z</time>
      </trkpt>
      <trkpt lat="44.23259" lon="7.05141">
        <ele>2310</ele>
        <time>2018-05-09T08:38:41.000Z</time>
      </trkpt>
      <trkpt lat="44.23259" lon="7.05141">
        <ele>2310</ele>
        <time>2018-05-09T08:38:42.000Z</time>
      </trkpt>
      <trkpt lat="44.23258" lon="7.05142">
        <ele>2310</ele>
        <time>2018-05-09T08:38:48.000Z</time>
      </trkpt>
      <trkpt lat="44.23258" lon="7.05142">
        <ele>2310</ele>
        <time>2018-05-09T08:38:52.000Z</time>
      </trkpt>
      <trkpt lat="44.23258" lon="7.05142">
        <ele>2310</ele>
        <time>2018-05-09T08:38:55.000Z</time>
      </trkpt>
      <trkpt lat="44.23258" lon="7.05142">
        <ele>2310</ele>
        <time>2018-05-09T08:39:03.000Z</time>
      </trkpt>
      <trkpt lat="44.23257" lon="7.05142">
        <ele>2310</ele>
        <time>2018-05-09T08:39:09.000Z</time>
      </trkpt>
      <trkpt lat="44.23257" lon="7.05142">
        <ele>2310</ele>
        <time>2018-05-09T08:39:10.000Z</time>
      </trkpt>
      <trkpt lat="44.23256" lon="7.05143">
        <ele>2310</ele>
        <time>2018-05-09T08:39:11.000Z</time>
      </trkpt>
      <trkpt lat="44.23254" lon="7.05144">
        <ele>2310</ele>
        <time>2018-05-09T08:39:14.000Z</time>
      </trkpt>
      <trkpt lat="44.23254" lon="7.05144">
        <ele>2310</ele>
        <time>2018-05-09T08:39:15.000Z</time>
      </trkpt>
      <trkpt lat="44.23254" lon="7.05144">
        <ele>2310</ele>
        <time>2018-05-09T08:39:16.000Z</time>
      </trkpt>
      <trkpt lat="44.23255" lon="7.05144">
        <ele>2310</ele>
        <time>2018-05-09T08:39:19.000Z</time>
      </trkpt>
      <trkpt lat="44.23255" lon="7.05144">
        <ele>2310</ele>
        <time>2018-05-09T08:39:20.000Z</time>
      </trkpt>
      <trkpt lat="44.23256" lon="7.05144">
        <ele>2310</ele>
        <time>2018-05-09T08:39:22.000Z</time>
      </trkpt>
      <trkpt lat="44.23256" lon="7.05144">
        <ele>2310</ele>
        <time>2018-05-09T08:39:23.000Z</time>
      </trkpt>
      <trkpt lat="44.23256" lon="7.05144">
        <ele>2310</ele>
        <time>2018-05-09T08:39:27.000Z</time>
      </trkpt>
      <trkpt lat="44.23256" lon="7.05144">
        <ele>2310</ele>
        <time>2018-05-09T08:39:32.000Z</time>
      </trkpt>
      <trkpt lat="44.23256" lon="7.05144">
        <ele>2310</ele>
        <time>2018-05-09T08:39:34.000Z</time>
      </trkpt>
      <trkpt lat="44.23256" lon="7.05144">
        <ele>2310</ele>
        <time>2018-05-09T08:39:35.000Z</time>
      </trkpt>
      <trkpt lat="44.23256" lon="7.05144">
        <ele>2310</ele>
        <time>2018-05-09T08:39:37.000Z</time>
      </trkpt>
      <trkpt lat="44.23257" lon="7.05144">
        <ele>2310</ele>
        <time>2018-05-09T08:39:40.000Z</time>
      </trkpt>
      <trkpt lat="44.23257" lon="7.05144">
        <ele>2310</ele>
        <time>2018-05-09T08:39:44.000Z</time>
      </trkpt>
      <trkpt lat="44.23257" lon="7.05144">
        <ele>2310</ele>
        <time>2018-05-09T08:39:46.000Z</time>
      </trkpt>
      <trkpt lat="44.23256" lon="7.05144">
        <ele>2310</ele>
        <time>2018-05-09T08:39:50.000Z</time>
      </trkpt>
      <trkpt lat="44.23256" lon="7.05143">
        <ele>2310</ele>
        <time>2018-05-09T08:39:52.000Z</time>
      </trkpt>
      <trkpt lat="44.23256" lon="7.05143">
        <ele>2310</ele>
        <time>2018-05-09T08:39:54.000Z</time>
      </trkpt>
      <trkpt lat="44.23257" lon="7.05142">
        <ele>2310</ele>
        <time>2018-05-09T08:39:56.000Z</time>
      </trkpt>
      <trkpt lat="44.23257" lon="7.05142">
        <ele>2310</ele>
        <time>2018-05-09T08:39:58.000Z</time>
      </trkpt>
      <trkpt lat="44.23257" lon="7.05142">
        <ele>2310</ele>
        <time>2018-05-09T08:39:59.000Z</time>
      </trkpt>
      <trkpt lat="44.23257" lon="7.05142">
        <ele>2310</ele>
        <time>2018-05-09T08:40:01.000Z</time>
      </trkpt>
      <trkpt lat="44.23257" lon="7.05142">
        <ele>2310</ele>
        <time>2018-05-09T08:40:05.000Z</time>
      </trkpt>
      <trkpt lat="44.23258" lon="7.05142">
        <ele>2310</ele>
        <time>2018-05-09T08:40:07.000Z</time>
      </trkpt>
      <trkpt lat="44.23259" lon="7.05143">
        <ele>2310</ele>
        <time>2018-05-09T08:40:10.000Z</time>
      </trkpt>
      <trkpt lat="44.2326" lon="7.05139">
        <ele>2310</ele>
        <time>2018-05-09T08:40:16.000Z</time>
      </trkpt>
      <trkpt lat="44.23262" lon="7.05138">
        <ele>2310</ele>
        <time>2018-05-09T08:40:19.000Z</time>
      </trkpt>
      <trkpt lat="44.23262" lon="7.05139">
        <ele>2310</ele>
        <time>2018-05-09T08:40:25.000Z</time>
      </trkpt>
      <trkpt lat="44.23263" lon="7.05142">
        <ele>2310</ele>
        <time>2018-05-09T08:40:30.000Z</time>
      </trkpt>
      <trkpt lat="44.23263" lon="7.05143">
        <ele>2310</ele>
        <time>2018-05-09T08:40:33.000Z</time>
      </trkpt>
      <trkpt lat="44.23262" lon="7.05144">
        <ele>2310</ele>
        <time>2018-05-09T08:40:37.000Z</time>
      </trkpt>
      <trkpt lat="44.23262" lon="7.05144">
        <ele>2310</ele>
        <time>2018-05-09T08:40:38.000Z</time>
      </trkpt>
      <trkpt lat="44.23262" lon="7.05144">
        <ele>2310</ele>
        <time>2018-05-09T08:40:41.000Z</time>
      </trkpt>
      <trkpt lat="44.23262" lon="7.05144">
        <ele>2310</ele>
        <time>2018-05-09T08:40:42.000Z</time>
      </trkpt>
      <trkpt lat="44.23261" lon="7.05144">
        <ele>2310</ele>
        <time>2018-05-09T08:40:44.000Z</time>
      </trkpt>
      <trkpt lat="44.2326" lon="7.05144">
        <ele>2310</ele>
        <time>2018-05-09T08:40:46.000Z</time>
      </trkpt>
      <trkpt lat="44.23259" lon="7.05144">
        <ele>2310</ele>
        <time>2018-05-09T08:40:52.000Z</time>
      </trkpt>
      <trkpt lat="44.23259" lon="7.05144">
        <ele>2310</ele>
        <time>2018-05-09T08:40:56.000Z</time>
      </trkpt>
      <trkpt lat="44.23258" lon="7.05143">
        <ele>2310</ele>
        <time>2018-05-09T08:41:00.000Z</time>
      </trkpt>
      <trkpt lat="44.23258" lon="7.05143">
        <ele>2310</ele>
        <time>2018-05-09T08:41:05.000Z</time>
      </trkpt>
      <trkpt lat="44.23258" lon="7.05144">
        <ele>2310</ele>
        <time>2018-05-09T08:41:09.000Z</time>
      </trkpt>
      <trkpt lat="44.23258" lon="7.05144">
        <ele>2310</ele>
        <time>2018-05-09T08:41:14.000Z</time>
      </trkpt>
      <trkpt lat="44.23261" lon="7.0514">
        <ele>2310</ele>
        <time>2018-05-09T08:41:26.000Z</time>
      </trkpt>
      <trkpt lat="44.2326" lon="7.05142">
        <ele>2310</ele>
        <time>2018-05-09T08:41:30.000Z</time>
      </trkpt>
      <trkpt lat="44.23258" lon="7.05144">
        <ele>2310</ele>
        <time>2018-05-09T08:41:32.000Z</time>
      </trkpt>
      <trkpt lat="44.23252" lon="7.0515">
        <ele>2310</ele>
        <time>2018-05-09T08:41:35.000Z</time>
      </trkpt>
      <trkpt lat="44.23254" lon="7.05149">
        <ele>2310</ele>
        <time>2018-05-09T08:41:41.000Z</time>
      </trkpt>
      <trkpt lat="44.23256" lon="7.05147">
        <ele>2310</ele>
        <time>2018-05-09T08:41:43.000Z</time>
      </trkpt>
      <trkpt lat="44.23258" lon="7.05148">
        <ele>2310</ele>
        <time>2018-05-09T08:41:54.000Z</time>
      </trkpt>
      <trkpt lat="44.23257" lon="7.05148">
        <ele>2310</ele>
        <time>2018-05-09T08:41:57.000Z</time>
      </trkpt>
      <trkpt lat="44.23257" lon="7.0515">
        <ele>2310</ele>
        <time>2018-05-09T08:42:00.000Z</time>
      </trkpt>
      <trkpt lat="44.23257" lon="7.05148">
        <ele>2310</ele>
        <time>2018-05-09T08:42:08.000Z</time>
      </trkpt>
      <trkpt lat="44.23259" lon="7.05146">
        <ele>2310</ele>
        <time>2018-05-09T08:42:16.000Z</time>
      </trkpt>
      <trkpt lat="44.23258" lon="7.05146">
        <ele>2310</ele>
        <time>2018-05-09T08:42:19.000Z</time>
      </trkpt>
      <trkpt lat="44.23258" lon="7.05146">
        <ele>2310</ele>
        <time>2018-05-09T08:42:20.000Z</time>
      </trkpt>
      <trkpt lat="44.23258" lon="7.05147">
        <ele>2310</ele>
        <time>2018-05-09T08:42:21.000Z</time>
      </trkpt>
      <trkpt lat="44.23256" lon="7.05146">
        <ele>2310</ele>
        <time>2018-05-09T08:42:25.000Z</time>
      </trkpt>
      <trkpt lat="44.23254" lon="7.05144">
        <ele>2310</ele>
        <time>2018-05-09T08:42:37.000Z</time>
      </trkpt>
      <trkpt lat="44.23249" lon="7.05142">
        <ele>2310</ele>
        <time>2018-05-09T08:42:48.000Z</time>
      </trkpt>
      <trkpt lat="44.23247" lon="7.05141">
        <ele>2311.1999511719</ele>
        <time>2018-05-09T08:42:53.000Z</time>
      </trkpt>
      <trkpt lat="44.23246" lon="7.0514">
        <ele>2311.8000488281</ele>
        <time>2018-05-09T08:42:56.000Z</time>
      </trkpt>
      <trkpt lat="44.23245" lon="7.05139">
        <ele>2312.1999511719</ele>
        <time>2018-05-09T08:43:01.000Z</time>
      </trkpt>
      <trkpt lat="44.23244" lon="7.05139">
        <ele>2312.3999023438</ele>
        <time>2018-05-09T08:43:03.000Z</time>
      </trkpt>
      <trkpt lat="44.23241" lon="7.05141">
        <ele>2313.1999511719</ele>
        <time>2018-05-09T08:43:09.000Z</time>
      </trkpt>
      <trkpt lat="44.23238" lon="7.0514">
        <ele>2313.3999023438</ele>
        <time>2018-05-09T08:43:20.000Z</time>
      </trkpt>
      <trkpt lat="44.23233" lon="7.05137">
        <ele>2314.3999023438</ele>
        <time>2018-05-09T08:43:31.000Z</time>
      </trkpt>
      <trkpt lat="44.23232" lon="7.05134">
        <ele>2315.6000976562</ele>
        <time>2018-05-09T08:43:40.000Z</time>
      </trkpt>
      <trkpt lat="44.23229" lon="7.05132">
        <ele>2316.6000976562</ele>
        <time>2018-05-09T08:43:52.000Z</time>
      </trkpt>
      <trkpt lat="44.23224" lon="7.05131">
        <ele>2317.8000488281</ele>
        <time>2018-05-09T08:43:58.000Z</time>
      </trkpt>
      <trkpt lat="44.23221" lon="7.05131">
        <ele>2318.3999023438</ele>
        <time>2018-05-09T08:44:02.000Z</time>
      </trkpt>
      <trkpt lat="44.2322" lon="7.05133">
        <ele>2318.6000976562</ele>
        <time>2018-05-09T08:44:04.000Z</time>
      </trkpt>
      <trkpt lat="44.2322" lon="7.05133">
        <ele>2318.8000488281</ele>
        <time>2018-05-09T08:44:05.000Z</time>
      </trkpt>
      <trkpt lat="44.2322" lon="7.05135">
        <ele>2319.3999023438</ele>
        <time>2018-05-09T08:44:08.000Z</time>
      </trkpt>
      <trkpt lat="44.23218" lon="7.05139">
        <ele>2320</ele>
        <time>2018-05-09T08:44:12.000Z</time>
      </trkpt>
      <trkpt lat="44.23217" lon="7.0514">
        <ele>2320.1999511719</ele>
        <time>2018-05-09T08:44:14.000Z</time>
      </trkpt>
      <trkpt lat="44.23217" lon="7.05144">
        <ele>2320.8000488281</ele>
        <time>2018-05-09T08:44:19.000Z</time>
      </trkpt>
      <trkpt lat="44.23217" lon="7.05145">
        <ele>2321</ele>
        <time>2018-05-09T08:44:20.000Z</time>
      </trkpt>
      <trkpt lat="44.23218" lon="7.05146">
        <ele>2321.3999023438</ele>
        <time>2018-05-09T08:44:24.000Z</time>
      </trkpt>
      <trkpt lat="44.23216" lon="7.05149">
        <ele>2322</ele>
        <time>2018-05-09T08:44:31.000Z</time>
      </trkpt>
      <trkpt lat="44.23215" lon="7.05153">
        <ele>2323</ele>
        <time>2018-05-09T08:44:38.000Z</time>
      </trkpt>
      <trkpt lat="44.23215" lon="7.05153">
        <ele>2323.1999511719</ele>
        <time>2018-05-09T08:44:39.000Z</time>
      </trkpt>
      <trkpt lat="44.2321" lon="7.05153">
        <ele>2323.8000488281</ele>
        <time>2018-05-09T08:44:45.000Z</time>
      </trkpt>
      <trkpt lat="44.23206" lon="7.0515">
        <ele>2324.1999511719</ele>
        <time>2018-05-09T08:44:51.000Z</time>
      </trkpt>
      <trkpt lat="44.23203" lon="7.05149">
        <ele>2325.3999023438</ele>
        <time>2018-05-09T08:44:58.000Z</time>
      </trkpt>
      <trkpt lat="44.232" lon="7.05144">
        <ele>2326.6000976562</ele>
        <time>2018-05-09T08:45:07.000Z</time>
      </trkpt>
      <trkpt lat="44.23195" lon="7.05142">
        <ele>2327.6000976562</ele>
        <time>2018-05-09T08:45:18.000Z</time>
      </trkpt>
      <trkpt lat="44.23197" lon="7.05143">
        <ele>2328.8000488281</ele>
        <time>2018-05-09T08:45:25.000Z</time>
      </trkpt>
      <trkpt lat="44.23198" lon="7.05147">
        <ele>2329.1999511719</ele>
        <time>2018-05-09T08:45:29.000Z</time>
      </trkpt>
      <trkpt lat="44.23198" lon="7.05149">
        <ele>2329.3999023438</ele>
        <time>2018-05-09T08:45:30.000Z</time>
      </trkpt>
      <trkpt lat="44.23197" lon="7.05152">
        <ele>2329.8000488281</ele>
        <time>2018-05-09T08:45:33.000Z</time>
      </trkpt>
      <trkpt lat="44.23195" lon="7.0516">
        <ele>2330.8000488281</ele>
        <time>2018-05-09T08:45:41.000Z</time>
      </trkpt>
      <trkpt lat="44.23196" lon="7.05165">
        <ele>2332</ele>
        <time>2018-05-09T08:45:50.000Z</time>
      </trkpt>
      <trkpt lat="44.23191" lon="7.0516">
        <ele>2333</ele>
        <time>2018-05-09T08:46:00.000Z</time>
      </trkpt>
      <trkpt lat="44.23183" lon="7.05155">
        <ele>2334</ele>
        <time>2018-05-09T08:46:11.000Z</time>
      </trkpt>
      <trkpt lat="44.2318" lon="7.05151">
        <ele>2335</ele>
        <time>2018-05-09T08:46:20.000Z</time>
      </trkpt>
      <trkpt lat="44.23177" lon="7.05148">
        <ele>2336.1999511719</ele>
        <time>2018-05-09T08:46:28.000Z</time>
      </trkpt>
      <trkpt lat="44.23175" lon="7.05145">
        <ele>2337</ele>
        <time>2018-05-09T08:46:36.000Z</time>
      </trkpt>
      <trkpt lat="44.23174" lon="7.05145">
        <ele>2337.1999511719</ele>
        <time>2018-05-09T08:46:37.000Z</time>
      </trkpt>
      <trkpt lat="44.2317" lon="7.05142">
        <ele>2338.1999511719</ele>
        <time>2018-05-09T08:46:47.000Z</time>
      </trkpt>
      <trkpt lat="44.23167" lon="7.0514">
        <ele>2339.1999511719</ele>
        <time>2018-05-09T08:46:54.000Z</time>
      </trkpt>
      <trkpt lat="44.23164" lon="7.05138">
        <ele>2340.3999023438</ele>
        <time>2018-05-09T08:47:03.000Z</time>
      </trkpt>
      <trkpt lat="44.23159" lon="7.05135">
        <ele>2341.3999023438</ele>
        <time>2018-05-09T08:47:13.000Z</time>
      </trkpt>
      <trkpt lat="44.23157" lon="7.05134">
        <ele>2342.1999511719</ele>
        <time>2018-05-09T08:47:18.000Z</time>
      </trkpt>
      <trkpt lat="44.23156" lon="7.05134">
        <ele>2342.6000976562</ele>
        <time>2018-05-09T08:47:20.000Z</time>
      </trkpt>
      <trkpt lat="44.23153" lon="7.05132">
        <ele>2343.1999511719</ele>
        <time>2018-05-09T08:47:26.000Z</time>
      </trkpt>
      <trkpt lat="44.23151" lon="7.05132">
        <ele>2343.6000976562</ele>
        <time>2018-05-09T08:47:29.000Z</time>
      </trkpt>
      <trkpt lat="44.23147" lon="7.05129">
        <ele>2344.6000976562</ele>
        <time>2018-05-09T08:47:37.000Z</time>
      </trkpt>
      <trkpt lat="44.23142" lon="7.05127">
        <ele>2345.6000976562</ele>
        <time>2018-05-09T08:47:46.000Z</time>
      </trkpt>
      <trkpt lat="44.23139" lon="7.05124">
        <ele>2346.8000488281</ele>
        <time>2018-05-09T08:47:53.000Z</time>
      </trkpt>
      <trkpt lat="44.23136" lon="7.05122">
        <ele>2347.8000488281</ele>
        <time>2018-05-09T08:48:01.000Z</time>
      </trkpt>
      <trkpt lat="44.23131" lon="7.05119">
        <ele>2348.8000488281</ele>
        <time>2018-05-09T08:48:10.000Z</time>
      </trkpt>
      <trkpt lat="44.23128" lon="7.05119">
        <ele>2350</ele>
        <time>2018-05-09T08:48:19.000Z</time>
      </trkpt>
      <trkpt lat="44.23126" lon="7.05124">
        <ele>2351</ele>
        <time>2018-05-09T08:48:28.000Z</time>
      </trkpt>
      <trkpt lat="44.23124" lon="7.05129">
        <ele>2352</ele>
        <time>2018-05-09T08:48:35.000Z</time>
      </trkpt>
      <trkpt lat="44.23123" lon="7.05132">
        <ele>2352.3999023438</ele>
        <time>2018-05-09T08:48:39.000Z</time>
      </trkpt>
      <trkpt lat="44.23122" lon="7.05133">
        <ele>2352.6000976562</ele>
        <time>2018-05-09T08:48:40.000Z</time>
      </trkpt>
      <trkpt lat="44.23122" lon="7.05135">
        <ele>2353.1999511719</ele>
        <time>2018-05-09T08:48:44.000Z</time>
      </trkpt>
      <trkpt lat="44.23121" lon="7.0514">
        <ele>2354.1999511719</ele>
        <time>2018-05-09T08:48:53.000Z</time>
      </trkpt>
      <trkpt lat="44.23118" lon="7.05146">
        <ele>2355.3999023438</ele>
        <time>2018-05-09T08:49:02.000Z</time>
      </trkpt>
      <trkpt lat="44.23116" lon="7.0515">
        <ele>2356.3999023438</ele>
        <time>2018-05-09T08:49:11.000Z</time>
      </trkpt>
      <trkpt lat="44.23112" lon="7.05151">
        <ele>2357.3999023438</ele>
        <time>2018-05-09T08:49:19.000Z</time>
      </trkpt>
      <trkpt lat="44.23109" lon="7.05148">
        <ele>2358.3999023438</ele>
        <time>2018-05-09T08:49:27.000Z</time>
      </trkpt>
      <trkpt lat="44.23106" lon="7.05146">
        <ele>2359.6000976562</ele>
        <time>2018-05-09T08:49:36.000Z</time>
      </trkpt>
      <trkpt lat="44.23101" lon="7.05144">
        <ele>2360.6000976562</ele>
        <time>2018-05-09T08:49:50.000Z</time>
      </trkpt>
      <trkpt lat="44.23098" lon="7.05142">
        <ele>2361.6000976562</ele>
        <time>2018-05-09T08:49:56.000Z</time>
      </trkpt>
      <trkpt lat="44.23093" lon="7.05141">
        <ele>2362.8000488281</ele>
        <time>2018-05-09T08:50:05.000Z</time>
      </trkpt>
      <trkpt lat="44.23092" lon="7.05142">
        <ele>2363.8000488281</ele>
        <time>2018-05-09T08:50:13.000Z</time>
      </trkpt>
      <trkpt lat="44.23089" lon="7.0515">
        <ele>2365</ele>
        <time>2018-05-09T08:50:24.000Z</time>
      </trkpt>
      <trkpt lat="44.23088" lon="7.05154">
        <ele>2366</ele>
        <time>2018-05-09T08:50:31.000Z</time>
      </trkpt>
      <trkpt lat="44.23086" lon="7.05163">
        <ele>2367.1999511719</ele>
        <time>2018-05-09T08:50:39.000Z</time>
      </trkpt>
      <trkpt lat="44.23083" lon="7.05166">
        <ele>2368</ele>
        <time>2018-05-09T08:50:46.000Z</time>
      </trkpt>
      <trkpt lat="44.23083" lon="7.05167">
        <ele>2368.1999511719</ele>
        <time>2018-05-09T08:50:47.000Z</time>
      </trkpt>
      <trkpt lat="44.23079" lon="7.05167">
        <ele>2369.1999511719</ele>
        <time>2018-05-09T08:50:55.000Z</time>
      </trkpt>
      <trkpt lat="44.23076" lon="7.05164">
        <ele>2370.1999511719</ele>
        <time>2018-05-09T08:51:03.000Z</time>
      </trkpt>
      <trkpt lat="44.23074" lon="7.05163">
        <ele>2371.3999023438</ele>
        <time>2018-05-09T08:51:10.000Z</time>
      </trkpt>
      <trkpt lat="44.23073" lon="7.05162">
        <ele>2371.3999023438</ele>
        <time>2018-05-09T08:51:15.000Z</time>
      </trkpt>
      <trkpt lat="44.23072" lon="7.05161">
        <ele>2371.6000976562</ele>
        <time>2018-05-09T08:51:17.000Z</time>
      </trkpt>
      <trkpt lat="44.23072" lon="7.0516">
        <ele>2371.8000488281</ele>
        <time>2018-05-09T08:51:19.000Z</time>
      </trkpt>
      <trkpt lat="44.23071" lon="7.05159">
        <ele>2372.3999023438</ele>
        <time>2018-05-09T08:51:22.000Z</time>
      </trkpt>
      <trkpt lat="44.23069" lon="7.05156">
        <ele>2373.3999023438</ele>
        <time>2018-05-09T08:51:28.000Z</time>
      </trkpt>
      <trkpt lat="44.23068" lon="7.05155">
        <ele>2373.3999023438</ele>
        <time>2018-05-09T08:51:29.000Z</time>
      </trkpt>
      <trkpt lat="44.23065" lon="7.05153">
        <ele>2374.6000976562</ele>
        <time>2018-05-09T08:51:37.000Z</time>
      </trkpt>
      <trkpt lat="44.23061" lon="7.0515">
        <ele>2375.6000976562</ele>
        <time>2018-05-09T08:51:47.000Z</time>
      </trkpt>
      <trkpt lat="44.23057" lon="7.05147">
        <ele>2376.6000976562</ele>
        <time>2018-05-09T08:51:55.000Z</time>
      </trkpt>
      <trkpt lat="44.23054" lon="7.05144">
        <ele>2377.3999023438</ele>
        <time>2018-05-09T08:52:01.000Z</time>
      </trkpt>
      <trkpt lat="44.23053" lon="7.05143">
        <ele>2377.8000488281</ele>
        <time>2018-05-09T08:52:03.000Z</time>
      </trkpt>
      <trkpt lat="44.23049" lon="7.05137">
        <ele>2378.8000488281</ele>
        <time>2018-05-09T08:52:15.000Z</time>
      </trkpt>
      <trkpt lat="44.23048" lon="7.05132">
        <ele>2379.8000488281</ele>
        <time>2018-05-09T08:52:23.000Z</time>
      </trkpt>
      <trkpt lat="44.23047" lon="7.05127">
        <ele>2380.8000488281</ele>
        <time>2018-05-09T08:52:30.000Z</time>
      </trkpt>
      <trkpt lat="44.23046" lon="7.05124">
        <ele>2381.3999023438</ele>
        <time>2018-05-09T08:52:35.000Z</time>
      </trkpt>
      <trkpt lat="44.23045" lon="7.05122">
        <ele>2382</ele>
        <time>2018-05-09T08:52:39.000Z</time>
      </trkpt>
      <trkpt lat="44.23044" lon="7.05121">
        <ele>2383</ele>
        <time>2018-05-09T08:52:52.000Z</time>
      </trkpt>
      <trkpt lat="44.23044" lon="7.05121">
        <ele>2383</ele>
        <time>2018-05-09T08:52:58.000Z</time>
      </trkpt>
      <trkpt lat="44.23044" lon="7.05121">
        <ele>2383.1999511719</ele>
        <time>2018-05-09T08:53:00.000Z</time>
      </trkpt>
      <trkpt lat="44.23044" lon="7.05121">
        <ele>2383.1999511719</ele>
        <time>2018-05-09T08:53:02.000Z</time>
      </trkpt>
      <trkpt lat="44.23044" lon="7.05121">
        <ele>2383.1999511719</ele>
        <time>2018-05-09T08:53:07.000Z</time>
      </trkpt>
      <trkpt lat="44.23044" lon="7.05121">
        <ele>2383.1999511719</ele>
        <time>2018-05-09T08:53:09.000Z</time>
      </trkpt>
      <trkpt lat="44.23044" lon="7.05121">
        <ele>2383.1999511719</ele>
        <time>2018-05-09T08:53:10.000Z</time>
      </trkpt>
      <trkpt lat="44.23044" lon="7.05121">
        <ele>2383.1999511719</ele>
        <time>2018-05-09T08:53:12.000Z</time>
      </trkpt>
      <trkpt lat="44.23045" lon="7.05121">
        <ele>2383</ele>
        <time>2018-05-09T08:53:17.000Z</time>
      </trkpt>
      <trkpt lat="44.23045" lon="7.05121">
        <ele>2383</ele>
        <time>2018-05-09T08:53:18.000Z</time>
      </trkpt>
      <trkpt lat="44.23045" lon="7.05121">
        <ele>2383.1999511719</ele>
        <time>2018-05-09T08:53:19.000Z</time>
      </trkpt>
      <trkpt lat="44.23043" lon="7.05122">
        <ele>2383</ele>
        <time>2018-05-09T08:53:36.000Z</time>
      </trkpt>
      <trkpt lat="44.23044" lon="7.05122">
        <ele>2383</ele>
        <time>2018-05-09T08:53:38.000Z</time>
      </trkpt>
      <trkpt lat="44.23045" lon="7.05121">
        <ele>2383.1999511719</ele>
        <time>2018-05-09T08:53:41.000Z</time>
      </trkpt>
      <trkpt lat="44.23045" lon="7.05121">
        <ele>2383.1999511719</ele>
        <time>2018-05-09T08:53:42.000Z</time>
      </trkpt>
      <trkpt lat="44.23046" lon="7.05121">
        <ele>2383.1999511719</ele>
        <time>2018-05-09T08:53:43.000Z</time>
      </trkpt>
      <trkpt lat="44.23046" lon="7.05122">
        <ele>2383.1999511719</ele>
        <time>2018-05-09T08:53:44.000Z</time>
      </trkpt>
      <trkpt lat="44.23045" lon="7.05122">
        <ele>2383.1999511719</ele>
        <time>2018-05-09T08:53:45.000Z</time>
      </trkpt>
      <trkpt lat="44.23045" lon="7.05123">
        <ele>2383.1999511719</ele>
        <time>2018-05-09T08:53:46.000Z</time>
      </trkpt>
      <trkpt lat="44.23045" lon="7.05123">
        <ele>2383.1999511719</ele>
        <time>2018-05-09T08:53:47.000Z</time>
      </trkpt>
      <trkpt lat="44.23045" lon="7.05123">
        <ele>2383.3999023438</ele>
        <time>2018-05-09T08:53:48.000Z</time>
      </trkpt>
      <trkpt lat="44.23045" lon="7.05122">
        <ele>2383.3999023438</ele>
        <time>2018-05-09T08:53:52.000Z</time>
      </trkpt>
      <trkpt lat="44.23045" lon="7.05121">
        <ele>2383.3999023438</ele>
        <time>2018-05-09T08:53:54.000Z</time>
      </trkpt>
      <trkpt lat="44.23045" lon="7.0512">
        <ele>2383.1999511719</ele>
        <time>2018-05-09T08:53:56.000Z</time>
      </trkpt>
      <trkpt lat="44.23044" lon="7.05118">
        <ele>2383.3999023438</ele>
        <time>2018-05-09T08:53:59.000Z</time>
      </trkpt>
      <trkpt lat="44.23042" lon="7.05116">
        <ele>2384</ele>
        <time>2018-05-09T08:54:02.000Z</time>
      </trkpt>
      <trkpt lat="44.23039" lon="7.05115">
        <ele>2384.6000976562</ele>
        <time>2018-05-09T08:54:06.000Z</time>
      </trkpt>
      <trkpt lat="44.23038" lon="7.05115">
        <ele>2384.8000488281</ele>
        <time>2018-05-09T08:54:07.000Z</time>
      </trkpt>
      <trkpt lat="44.23037" lon="7.05114">
        <ele>2385.1999511719</ele>
        <time>2018-05-09T08:54:09.000Z</time>
      </trkpt>
      <trkpt lat="44.23036" lon="7.05113">
        <ele>2385.3999023438</ele>
        <time>2018-05-09T08:54:10.000Z</time>
      </trkpt>
      <trkpt lat="44.23034" lon="7.05113">
        <ele>2386.3999023438</ele>
        <time>2018-05-09T08:54:15.000Z</time>
      </trkpt>
      <trkpt lat="44.23034" lon="7.05114">
        <ele>2387</ele>
        <time>2018-05-09T08:54:18.000Z</time>
      </trkpt>
      <trkpt lat="44.23034" lon="7.05114">
        <ele>2387.3999023438</ele>
        <time>2018-05-09T08:54:19.000Z</time>
      </trkpt>
      <trkpt lat="44.23033" lon="7.05117">
        <ele>2388</ele>
        <time>2018-05-09T08:54:22.000Z</time>
      </trkpt>
      <trkpt lat="44.23031" lon="7.05121">
        <ele>2388.3999023438</ele>
        <time>2018-05-09T08:54:25.000Z</time>
      </trkpt>
      <trkpt lat="44.23029" lon="7.05125">
        <ele>2389.3999023438</ele>
        <time>2018-05-09T08:54:32.000Z</time>
      </trkpt>
      <trkpt lat="44.23023" lon="7.05129">
        <ele>2390.3999023438</ele>
        <time>2018-05-09T08:54:37.000Z</time>
      </trkpt>
      <trkpt lat="44.23023" lon="7.05129">
        <ele>2390.6000976562</ele>
        <time>2018-05-09T08:54:38.000Z</time>
      </trkpt>
      <trkpt lat="44.23019" lon="7.05125">
        <ele>2391.8000488281</ele>
        <time>2018-05-09T08:54:44.000Z</time>
      </trkpt>
      <trkpt lat="44.23016" lon="7.0512">
        <ele>2392.8000488281</ele>
        <time>2018-05-09T08:54:51.000Z</time>
      </trkpt>
      <trkpt lat="44.23012" lon="7.05118">
        <ele>2394</ele>
        <time>2018-05-09T08:54:58.000Z</time>
      </trkpt>
      <trkpt lat="44.23011" lon="7.05122">
        <ele>2395</ele>
        <time>2018-05-09T08:55:04.000Z</time>
      </trkpt>
      <trkpt lat="44.23007" lon="7.0513">
        <ele>2396.1999511719</ele>
        <time>2018-05-09T08:55:13.000Z</time>
      </trkpt>
      <trkpt lat="44.23004" lon="7.05133">
        <ele>2397.1999511719</ele>
        <time>2018-05-09T08:55:21.000Z</time>
      </trkpt>
      <trkpt lat="44.23001" lon="7.05137">
        <ele>2398.1999511719</ele>
        <time>2018-05-09T08:55:27.000Z</time>
      </trkpt>
      <trkpt lat="44.22996" lon="7.05143">
        <ele>2399.3999023438</ele>
        <time>2018-05-09T08:55:35.000Z</time>
      </trkpt>
      <trkpt lat="44.22993" lon="7.05145">
        <ele>2400.3999023438</ele>
        <time>2018-05-09T08:55:41.000Z</time>
      </trkpt>
      <trkpt lat="44.22992" lon="7.05147">
        <ele>2401.6000976562</ele>
        <time>2018-05-09T08:55:50.000Z</time>
      </trkpt>
      <trkpt lat="44.2299" lon="7.0515">
        <ele>2402.6000976562</ele>
        <time>2018-05-09T08:55:56.000Z</time>
      </trkpt>
      <trkpt lat="44.22988" lon="7.05151">
        <ele>2403.1999511719</ele>
        <time>2018-05-09T08:55:59.000Z</time>
      </trkpt>
      <trkpt lat="44.22987" lon="7.05152">
        <ele>2403.6000976562</ele>
        <time>2018-05-09T08:56:02.000Z</time>
      </trkpt>
      <trkpt lat="44.22988" lon="7.05153">
        <ele>2404.1999511719</ele>
        <time>2018-05-09T08:56:17.000Z</time>
      </trkpt>
      <trkpt lat="44.22985" lon="7.05156">
        <ele>2404.8000488281</ele>
        <time>2018-05-09T08:56:20.000Z</time>
      </trkpt>
      <trkpt lat="44.22983" lon="7.0516">
        <ele>2405.6000976562</ele>
        <time>2018-05-09T08:56:24.000Z</time>
      </trkpt>
      <trkpt lat="44.22982" lon="7.05161">
        <ele>2405.8000488281</ele>
        <time>2018-05-09T08:56:26.000Z</time>
      </trkpt>
      <trkpt lat="44.22982" lon="7.05162">
        <ele>2406</ele>
        <time>2018-05-09T08:56:27.000Z</time>
      </trkpt>
      <trkpt lat="44.22978" lon="7.05166">
        <ele>2407</ele>
        <time>2018-05-09T08:56:33.000Z</time>
      </trkpt>
      <trkpt lat="44.22974" lon="7.05169">
        <ele>2408.1999511719</ele>
        <time>2018-05-09T08:56:39.000Z</time>
      </trkpt>
      <trkpt lat="44.22971" lon="7.05173">
        <ele>2409.3999023438</ele>
        <time>2018-05-09T08:56:48.000Z</time>
      </trkpt>
      <trkpt lat="44.22969" lon="7.05176">
        <ele>2410.3999023438</ele>
        <time>2018-05-09T08:56:53.000Z</time>
      </trkpt>
      <trkpt lat="44.22964" lon="7.05174">
        <ele>2411.6000976562</ele>
        <time>2018-05-09T08:56:58.000Z</time>
      </trkpt>
      <trkpt lat="44.22963" lon="7.05172">
        <ele>2411.8000488281</ele>
        <time>2018-05-09T08:57:01.000Z</time>
      </trkpt>
      <trkpt lat="44.22967" lon="7.05171">
        <ele>2411.8000488281</ele>
        <time>2018-05-09T08:57:16.000Z</time>
      </trkpt>
      <trkpt lat="44.22967" lon="7.0517">
        <ele>2411.8000488281</ele>
        <time>2018-05-09T08:57:30.000Z</time>
      </trkpt>
      <trkpt lat="44.22966" lon="7.05171">
        <ele>2411.8000488281</ele>
        <time>2018-05-09T08:57:33.000Z</time>
      </trkpt>
      <trkpt lat="44.22966" lon="7.05171">
        <ele>2411.8000488281</ele>
        <time>2018-05-09T08:57:34.000Z</time>
      </trkpt>
      <trkpt lat="44.22966" lon="7.05171">
        <ele>2411.8000488281</ele>
        <time>2018-05-09T08:57:36.000Z</time>
      </trkpt>
      <trkpt lat="44.22967" lon="7.05172">
        <ele>2412</ele>
        <time>2018-05-09T08:57:44.000Z</time>
      </trkpt>
      <trkpt lat="44.22968" lon="7.05172">
        <ele>2412</ele>
        <time>2018-05-09T08:57:45.000Z</time>
      </trkpt>
      <trkpt lat="44.22967" lon="7.0517">
        <ele>2411.8000488281</ele>
        <time>2018-05-09T08:58:00.000Z</time>
      </trkpt>
      <trkpt lat="44.22966" lon="7.0517">
        <ele>2412</ele>
        <time>2018-05-09T08:58:09.000Z</time>
      </trkpt>
      <trkpt lat="44.22967" lon="7.05169">
        <ele>2411.8000488281</ele>
        <time>2018-05-09T08:58:13.000Z</time>
      </trkpt>
      <trkpt lat="44.22967" lon="7.05169">
        <ele>2411.8000488281</ele>
        <time>2018-05-09T08:58:15.000Z</time>
      </trkpt>
      <trkpt lat="44.22966" lon="7.05169">
        <ele>2411.8000488281</ele>
        <time>2018-05-09T08:58:18.000Z</time>
      </trkpt>
      <trkpt lat="44.22965" lon="7.05169">
        <ele>2412</ele>
        <time>2018-05-09T08:58:23.000Z</time>
      </trkpt>
      <trkpt lat="44.22965" lon="7.05169">
        <ele>2412</ele>
        <time>2018-05-09T08:58:24.000Z</time>
      </trkpt>
      <trkpt lat="44.22965" lon="7.05169">
        <ele>2412</ele>
        <time>2018-05-09T08:58:25.000Z</time>
      </trkpt>
      <trkpt lat="44.22966" lon="7.05169">
        <ele>2412</ele>
        <time>2018-05-09T08:58:28.000Z</time>
      </trkpt>
      <trkpt lat="44.22968" lon="7.0517">
        <ele>2412</ele>
        <time>2018-05-09T08:58:34.000Z</time>
      </trkpt>
      <trkpt lat="44.22968" lon="7.05171">
        <ele>2412</ele>
        <time>2018-05-09T08:58:37.000Z</time>
      </trkpt>
      <trkpt lat="44.22968" lon="7.05171">
        <ele>2412</ele>
        <time>2018-05-09T08:58:38.000Z</time>
      </trkpt>
      <trkpt lat="44.22968" lon="7.05171">
        <ele>2412</ele>
        <time>2018-05-09T08:58:39.000Z</time>
      </trkpt>
      <trkpt lat="44.22967" lon="7.05171">
        <ele>2412</ele>
        <time>2018-05-09T08:58:40.000Z</time>
      </trkpt>
      <trkpt lat="44.22967" lon="7.05171">
        <ele>2412</ele>
        <time>2018-05-09T08:58:41.000Z</time>
      </trkpt>
      <trkpt lat="44.22967" lon="7.05171">
        <ele>2412</ele>
        <time>2018-05-09T08:58:42.000Z</time>
      </trkpt>
      <trkpt lat="44.22967" lon="7.0517">
        <ele>2412</ele>
        <time>2018-05-09T08:58:44.000Z</time>
      </trkpt>
      <trkpt lat="44.22966" lon="7.0517">
        <ele>2412</ele>
        <time>2018-05-09T08:58:52.000Z</time>
      </trkpt>
      <trkpt lat="44.22967" lon="7.05169">
        <ele>2412</ele>
        <time>2018-05-09T08:59:01.000Z</time>
      </trkpt>
      <trkpt lat="44.22968" lon="7.05168">
        <ele>2412</ele>
        <time>2018-05-09T08:59:05.000Z</time>
      </trkpt>
      <trkpt lat="44.22968" lon="7.05167">
        <ele>2412</ele>
        <time>2018-05-09T08:59:07.000Z</time>
      </trkpt>
      <trkpt lat="44.22967" lon="7.05166">
        <ele>2412</ele>
        <time>2018-05-09T08:59:09.000Z</time>
      </trkpt>
      <trkpt lat="44.22966" lon="7.05164">
        <ele>2412</ele>
        <time>2018-05-09T08:59:12.000Z</time>
      </trkpt>
      <trkpt lat="44.22964" lon="7.05162">
        <ele>2412</ele>
        <time>2018-05-09T08:59:18.000Z</time>
      </trkpt>
      <trkpt lat="44.22963" lon="7.05161">
        <ele>2412</ele>
        <time>2018-05-09T08:59:22.000Z</time>
      </trkpt>
      <trkpt lat="44.22962" lon="7.05161">
        <ele>2412</ele>
        <time>2018-05-09T08:59:23.000Z</time>
      </trkpt>
      <trkpt lat="44.22959" lon="7.05156">
        <ele>2412</ele>
        <time>2018-05-09T08:59:30.000Z</time>
      </trkpt>
      <trkpt lat="44.22959" lon="7.05155">
        <ele>2413</ele>
        <time>2018-05-09T08:59:32.000Z</time>
      </trkpt>
      <trkpt lat="44.22957" lon="7.05152">
        <ele>2413.8000488281</ele>
        <time>2018-05-09T08:59:37.000Z</time>
      </trkpt>
      <trkpt lat="44.22958" lon="7.0515">
        <ele>2414</ele>
        <time>2018-05-09T08:59:44.000Z</time>
      </trkpt>
      <trkpt lat="44.22958" lon="7.05148">
        <ele>2414</ele>
        <time>2018-05-09T08:59:48.000Z</time>
      </trkpt>
      <trkpt lat="44.22955" lon="7.05145">
        <ele>2415</ele>
        <time>2018-05-09T08:59:57.000Z</time>
      </trkpt>
      <trkpt lat="44.22953" lon="7.05143">
        <ele>2416.1999511719</ele>
        <time>2018-05-09T09:00:04.000Z</time>
      </trkpt>
      <trkpt lat="44.22953" lon="7.05143">
        <ele>2416.6000976562</ele>
        <time>2018-05-09T09:00:11.000Z</time>
      </trkpt>
      <trkpt lat="44.2295" lon="7.05149">
        <ele>2417.1999511719</ele>
        <time>2018-05-09T09:00:19.000Z</time>
      </trkpt>
      <trkpt lat="44.22949" lon="7.05151">
        <ele>2417.6000976562</ele>
        <time>2018-05-09T09:00:22.000Z</time>
      </trkpt>
      <trkpt lat="44.22948" lon="7.05154">
        <ele>2418.3999023438</ele>
        <time>2018-05-09T09:00:26.000Z</time>
      </trkpt>
      <trkpt lat="44.22945" lon="7.0516">
        <ele>2419.3999023438</ele>
        <time>2018-05-09T09:00:33.000Z</time>
      </trkpt>
      <trkpt lat="44.22942" lon="7.05169">
        <ele>2420.6000976562</ele>
        <time>2018-05-09T09:00:39.000Z</time>
      </trkpt>
      <trkpt lat="44.22941" lon="7.05172">
        <ele>2421.1999511719</ele>
        <time>2018-05-09T09:00:43.000Z</time>
      </trkpt>
      <trkpt lat="44.2294" lon="7.05172">
        <ele>2421.6000976562</ele>
        <time>2018-05-09T09:00:45.000Z</time>
      </trkpt>
      <trkpt lat="44.22939" lon="7.05174">
        <ele>2422.8000488281</ele>
        <time>2018-05-09T09:00:51.000Z</time>
      </trkpt>
      <trkpt lat="44.22936" lon="7.05178">
        <ele>2423.8000488281</ele>
        <time>2018-05-09T09:00:57.000Z</time>
      </trkpt>
      <trkpt lat="44.22934" lon="7.0518">
        <ele>2424.8000488281</ele>
        <time>2018-05-09T09:01:03.000Z</time>
      </trkpt>
      <trkpt lat="44.22933" lon="7.05179">
        <ele>2426</ele>
        <time>2018-05-09T09:01:08.000Z</time>
      </trkpt>
      <trkpt lat="44.22931" lon="7.05182">
        <ele>2426.3999023438</ele>
        <time>2018-05-09T09:01:14.000Z</time>
      </trkpt>
      <trkpt lat="44.22929" lon="7.05185">
        <ele>2427</ele>
        <time>2018-05-09T09:01:18.000Z</time>
      </trkpt>
      <trkpt lat="44.22929" lon="7.05186">
        <ele>2427.3999023438</ele>
        <time>2018-05-09T09:01:20.000Z</time>
      </trkpt>
      <trkpt lat="44.22928" lon="7.05188">
        <ele>2427.6000976562</ele>
        <time>2018-05-09T09:01:22.000Z</time>
      </trkpt>
      <trkpt lat="44.22926" lon="7.0519">
        <ele>2428.1999511719</ele>
        <time>2018-05-09T09:01:25.000Z</time>
      </trkpt>
      <trkpt lat="44.22925" lon="7.05192">
        <ele>2428.6000976562</ele>
        <time>2018-05-09T09:01:27.000Z</time>
      </trkpt>
      <trkpt lat="44.22924" lon="7.05194">
        <ele>2429</ele>
        <time>2018-05-09T09:01:29.000Z</time>
      </trkpt>
      <trkpt lat="44.22923" lon="7.05195">
        <ele>2429.1999511719</ele>
        <time>2018-05-09T09:01:31.000Z</time>
      </trkpt>
      <trkpt lat="44.22922" lon="7.05196">
        <ele>2429.3999023438</ele>
        <time>2018-05-09T09:01:32.000Z</time>
      </trkpt>
      <trkpt lat="44.22921" lon="7.05196">
        <ele>2429.6000976562</ele>
        <time>2018-05-09T09:01:34.000Z</time>
      </trkpt>
      <trkpt lat="44.22921" lon="7.05197">
        <ele>2429.8000488281</ele>
        <time>2018-05-09T09:01:35.000Z</time>
      </trkpt>
      <trkpt lat="44.22919" lon="7.05198">
        <ele>2430.1999511719</ele>
        <time>2018-05-09T09:01:38.000Z</time>
      </trkpt>
      <trkpt lat="44.22919" lon="7.05198">
        <ele>2430.6000976562</ele>
        <time>2018-05-09T09:01:41.000Z</time>
      </trkpt>
      <trkpt lat="44.22922" lon="7.05198">
        <ele>2430.8000488281</ele>
        <time>2018-05-09T09:02:00.000Z</time>
      </trkpt>
      <trkpt lat="44.2292" lon="7.052">
        <ele>2430.8000488281</ele>
        <time>2018-05-09T09:02:04.000Z</time>
      </trkpt>
      <trkpt lat="44.2292" lon="7.05199">
        <ele>2430.8000488281</ele>
        <time>2018-05-09T09:02:09.000Z</time>
      </trkpt>
      <trkpt lat="44.2292" lon="7.05199">
        <ele>2430.8000488281</ele>
        <time>2018-05-09T09:02:11.000Z</time>
      </trkpt>
      <trkpt lat="44.22921" lon="7.05199">
        <ele>2430.8000488281</ele>
        <time>2018-05-09T09:02:12.000Z</time>
      </trkpt>
      <trkpt lat="44.22921" lon="7.052">
        <ele>2431</ele>
        <time>2018-05-09T09:02:19.000Z</time>
      </trkpt>
      <trkpt lat="44.22919" lon="7.05201">
        <ele>2431.1999511719</ele>
        <time>2018-05-09T09:02:23.000Z</time>
      </trkpt>
      <trkpt lat="44.22918" lon="7.05202">
        <ele>2432</ele>
        <time>2018-05-09T09:02:26.000Z</time>
      </trkpt>
      <trkpt lat="44.22918" lon="7.05202">
        <ele>2432.1999511719</ele>
        <time>2018-05-09T09:02:28.000Z</time>
      </trkpt>
      <trkpt lat="44.22917" lon="7.05203">
        <ele>2432.3999023438</ele>
        <time>2018-05-09T09:02:30.000Z</time>
      </trkpt>
      <trkpt lat="44.22917" lon="7.05203">
        <ele>2432.3999023438</ele>
        <time>2018-05-09T09:02:31.000Z</time>
      </trkpt>
      <trkpt lat="44.22916" lon="7.05203">
        <ele>2432.3999023438</ele>
        <time>2018-05-09T09:02:32.000Z</time>
      </trkpt>
      <trkpt lat="44.22916" lon="7.05204">
        <ele>2432.3999023438</ele>
        <time>2018-05-09T09:02:33.000Z</time>
      </trkpt>
      <trkpt lat="44.22915" lon="7.05206">
        <ele>2432.3999023438</ele>
        <time>2018-05-09T09:02:36.000Z</time>
      </trkpt>
      <trkpt lat="44.22911" lon="7.0521">
        <ele>2433.6000976562</ele>
        <time>2018-05-09T09:02:43.000Z</time>
      </trkpt>
      <trkpt lat="44.22908" lon="7.05213">
        <ele>2434.8000488281</ele>
        <time>2018-05-09T09:02:49.000Z</time>
      </trkpt>
      <trkpt lat="44.22905" lon="7.05214">
        <ele>2435.3999023438</ele>
        <time>2018-05-09T09:02:53.000Z</time>
      </trkpt>
      <trkpt lat="44.22904" lon="7.05215">
        <ele>2435.6000976562</ele>
        <time>2018-05-09T09:02:56.000Z</time>
      </trkpt>
      <trkpt lat="44.22903" lon="7.05215">
        <ele>2435.8000488281</ele>
        <time>2018-05-09T09:02:57.000Z</time>
      </trkpt>
      <trkpt lat="44.22902" lon="7.05215">
        <ele>2435.8000488281</ele>
        <time>2018-05-09T09:03:01.000Z</time>
      </trkpt>
      <trkpt lat="44.22899" lon="7.05213">
        <ele>2435.8000488281</ele>
        <time>2018-05-09T09:03:07.000Z</time>
      </trkpt>
      <trkpt lat="44.229" lon="7.05211">
        <ele>2436.1999511719</ele>
        <time>2018-05-09T09:03:22.000Z</time>
      </trkpt>
      <trkpt lat="44.22901" lon="7.05207">
        <ele>2436.1999511719</ele>
        <time>2018-05-09T09:03:35.000Z</time>
      </trkpt>
      <trkpt lat="44.229" lon="7.05205">
        <ele>2436.8000488281</ele>
        <time>2018-05-09T09:03:38.000Z</time>
      </trkpt>
      <trkpt lat="44.22899" lon="7.052">
        <ele>2437.6000976562</ele>
        <time>2018-05-09T09:03:44.000Z</time>
      </trkpt>
      <trkpt lat="44.22898" lon="7.05198">
        <ele>2438</ele>
        <time>2018-05-09T09:03:46.000Z</time>
      </trkpt>
      <trkpt lat="44.22898" lon="7.05192">
        <ele>2439.1999511719</ele>
        <time>2018-05-09T09:03:54.000Z</time>
      </trkpt>
      <trkpt lat="44.22897" lon="7.05186">
        <ele>2440.3999023438</ele>
        <time>2018-05-09T09:04:02.000Z</time>
      </trkpt>
      <trkpt lat="44.22897" lon="7.05183">
        <ele>2441.1999511719</ele>
        <time>2018-05-09T09:04:07.000Z</time>
      </trkpt>
      <trkpt lat="44.22896" lon="7.05182">
        <ele>2441.6000976562</ele>
        <time>2018-05-09T09:04:09.000Z</time>
      </trkpt>
      <trkpt lat="44.22896" lon="7.05179">
        <ele>2442.6000976562</ele>
        <time>2018-05-09T09:04:14.000Z</time>
      </trkpt>
      <trkpt lat="44.22895" lon="7.05174">
        <ele>2443</ele>
        <time>2018-05-09T09:04:24.000Z</time>
      </trkpt>
      <trkpt lat="44.22895" lon="7.05175">
        <ele>2443.6000976562</ele>
        <time>2018-05-09T09:04:28.000Z</time>
      </trkpt>
      <trkpt lat="44.22895" lon="7.05175">
        <ele>2443.8000488281</ele>
        <time>2018-05-09T09:04:30.000Z</time>
      </trkpt>
      <trkpt lat="44.22896" lon="7.05175">
        <ele>2443.8000488281</ele>
        <time>2018-05-09T09:04:32.000Z</time>
      </trkpt>
      <trkpt lat="44.22896" lon="7.05175">
        <ele>2443.6000976562</ele>
        <time>2018-05-09T09:04:34.000Z</time>
      </trkpt>
      <trkpt lat="44.22896" lon="7.05175">
        <ele>2443.6000976562</ele>
        <time>2018-05-09T09:04:36.000Z</time>
      </trkpt>
      <trkpt lat="44.22892" lon="7.05185">
        <ele>2444.8000488281</ele>
        <time>2018-05-09T09:04:51.000Z</time>
      </trkpt>
      <trkpt lat="44.22892" lon="7.05186">
        <ele>2444.8000488281</ele>
        <time>2018-05-09T09:04:52.000Z</time>
      </trkpt>
      <trkpt lat="44.22891" lon="7.05186">
        <ele>2445</ele>
        <time>2018-05-09T09:04:53.000Z</time>
      </trkpt>
      <trkpt lat="44.22889" lon="7.0519">
        <ele>2445.6000976562</ele>
        <time>2018-05-09T09:04:57.000Z</time>
      </trkpt>
      <trkpt lat="44.22889" lon="7.05191">
        <ele>2445.8000488281</ele>
        <time>2018-05-09T09:04:58.000Z</time>
      </trkpt>
      <trkpt lat="44.22889" lon="7.05191">
        <ele>2445.8000488281</ele>
        <time>2018-05-09T09:04:59.000Z</time>
      </trkpt>
      <trkpt lat="44.22888" lon="7.05193">
        <ele>2446</ele>
        <time>2018-05-09T09:05:01.000Z</time>
      </trkpt>
      <trkpt lat="44.22886" lon="7.05198">
        <ele>2446.8000488281</ele>
        <time>2018-05-09T09:05:09.000Z</time>
      </trkpt>
      <trkpt lat="44.22885" lon="7.05202">
        <ele>2447.8000488281</ele>
        <time>2018-05-09T09:05:15.000Z</time>
      </trkpt>
      <trkpt lat="44.22881" lon="7.05208">
        <ele>2449</ele>
        <time>2018-05-09T09:05:23.000Z</time>
      </trkpt>
      <trkpt lat="44.22878" lon="7.05212">
        <ele>2450</ele>
        <time>2018-05-09T09:05:30.000Z</time>
      </trkpt>
      <trkpt lat="44.22876" lon="7.05217">
        <ele>2451.1999511719</ele>
        <time>2018-05-09T09:05:37.000Z</time>
      </trkpt>
      <trkpt lat="44.22877" lon="7.05218">
        <ele>2452.1999511719</ele>
        <time>2018-05-09T09:05:46.000Z</time>
      </trkpt>
      <trkpt lat="44.22875" lon="7.05222">
        <ele>2453</ele>
        <time>2018-05-09T09:06:18.000Z</time>
      </trkpt>
      <trkpt lat="44.22875" lon="7.05222">
        <ele>2453</ele>
        <time>2018-05-09T09:06:21.000Z</time>
      </trkpt>
      <trkpt lat="44.22875" lon="7.05224">
        <ele>2453.1999511719</ele>
        <time>2018-05-09T09:06:27.000Z</time>
      </trkpt>
      <trkpt lat="44.22875" lon="7.05223">
        <ele>2453.1999511719</ele>
        <time>2018-05-09T09:06:29.000Z</time>
      </trkpt>
      <trkpt lat="44.22874" lon="7.05223">
        <ele>2453.1999511719</ele>
        <time>2018-05-09T09:06:35.000Z</time>
      </trkpt>
      <trkpt lat="44.22875" lon="7.05223">
        <ele>2452.8000488281</ele>
        <time>2018-05-09T09:06:38.000Z</time>
      </trkpt>
      <trkpt lat="44.22875" lon="7.05222">
        <ele>2452.8000488281</ele>
        <time>2018-05-09T09:06:39.000Z</time>
      </trkpt>
      <trkpt lat="44.22875" lon="7.05222">
        <ele>2452.8000488281</ele>
        <time>2018-05-09T09:06:40.000Z</time>
      </trkpt>
      <trkpt lat="44.22874" lon="7.05218">
        <ele>2453.1999511719</ele>
        <time>2018-05-09T09:07:01.000Z</time>
      </trkpt>
      <trkpt lat="44.22874" lon="7.05218">
        <ele>2453.3999023438</ele>
        <time>2018-05-09T09:07:03.000Z</time>
      </trkpt>
      <trkpt lat="44.22874" lon="7.05218">
        <ele>2453.6000976562</ele>
        <time>2018-05-09T09:07:09.000Z</time>
      </trkpt>
      <trkpt lat="44.22874" lon="7.05218">
        <ele>2453.8000488281</ele>
        <time>2018-05-09T09:07:14.000Z</time>
      </trkpt>
      <trkpt lat="44.22874" lon="7.05218">
        <ele>2453.8000488281</ele>
        <time>2018-05-09T09:07:23.000Z</time>
      </trkpt>
      <trkpt lat="44.22873" lon="7.05218">
        <ele>2453.8000488281</ele>
        <time>2018-05-09T09:07:31.000Z</time>
      </trkpt>
      <trkpt lat="44.22873" lon="7.05219">
        <ele>2454</ele>
        <time>2018-05-09T09:07:44.000Z</time>
      </trkpt>
      <trkpt lat="44.22872" lon="7.05219">
        <ele>2454</ele>
        <time>2018-05-09T09:07:46.000Z</time>
      </trkpt>
      <trkpt lat="44.22872" lon="7.05219">
        <ele>2454</ele>
        <time>2018-05-09T09:07:50.000Z</time>
      </trkpt>
      <trkpt lat="44.22874" lon="7.05218">
        <ele>2453.8000488281</ele>
        <time>2018-05-09T09:08:06.000Z</time>
      </trkpt>
      <trkpt lat="44.22873" lon="7.05218">
        <ele>2453.8000488281</ele>
        <time>2018-05-09T09:08:11.000Z</time>
      </trkpt>
      <trkpt lat="44.22873" lon="7.05219">
        <ele>2453.8000488281</ele>
        <time>2018-05-09T09:08:18.000Z</time>
      </trkpt>
      <trkpt lat="44.22873" lon="7.05219">
        <ele>2453.8000488281</ele>
        <time>2018-05-09T09:08:22.000Z</time>
      </trkpt>
      <trkpt lat="44.22873" lon="7.05219">
        <ele>2453.6000976562</ele>
        <time>2018-05-09T09:08:26.000Z</time>
      </trkpt>
      <trkpt lat="44.22872" lon="7.05215">
        <ele>2454.1999511719</ele>
        <time>2018-05-09T09:08:35.000Z</time>
      </trkpt>
      <trkpt lat="44.22871" lon="7.05214">
        <ele>2454.6000976562</ele>
        <time>2018-05-09T09:08:39.000Z</time>
      </trkpt>
      <trkpt lat="44.2287" lon="7.05211">
        <ele>2455.1999511719</ele>
        <time>2018-05-09T09:08:43.000Z</time>
      </trkpt>
      <trkpt lat="44.22869" lon="7.05209">
        <ele>2455.6000976562</ele>
        <time>2018-05-09T09:08:47.000Z</time>
      </trkpt>
      <trkpt lat="44.22869" lon="7.05208">
        <ele>2456</ele>
        <time>2018-05-09T09:08:51.000Z</time>
      </trkpt>
      <trkpt lat="44.22869" lon="7.05208">
        <ele>2456.1999511719</ele>
        <time>2018-05-09T09:08:52.000Z</time>
      </trkpt>
      <trkpt lat="44.22863" lon="7.05206">
        <ele>2457.3999023438</ele>
        <time>2018-05-09T09:09:16.000Z</time>
      </trkpt>
      <trkpt lat="44.22864" lon="7.05202">
        <ele>2458.3999023438</ele>
        <time>2018-05-09T09:09:33.000Z</time>
      </trkpt>
      <trkpt lat="44.22864" lon="7.05202">
        <ele>2459</ele>
        <time>2018-05-09T09:09:40.000Z</time>
      </trkpt>
      <trkpt lat="44.22864" lon="7.05202">
        <ele>2459.1999511719</ele>
        <time>2018-05-09T09:09:41.000Z</time>
      </trkpt>
      <trkpt lat="44.22866" lon="7.05203">
        <ele>2459.1999511719</ele>
        <time>2018-05-09T09:09:52.000Z</time>
      </trkpt>
      <trkpt lat="44.22867" lon="7.05202">
        <ele>2459</ele>
        <time>2018-05-09T09:09:56.000Z</time>
      </trkpt>
      <trkpt lat="44.22866" lon="7.05202">
        <ele>2459</ele>
        <time>2018-05-09T09:10:04.000Z</time>
      </trkpt>
      <trkpt lat="44.22866" lon="7.05201">
        <ele>2459</ele>
        <time>2018-05-09T09:10:08.000Z</time>
      </trkpt>
      <trkpt lat="44.22866" lon="7.05201">
        <ele>2459.1999511719</ele>
        <time>2018-05-09T09:10:12.000Z</time>
      </trkpt>
      <trkpt lat="44.22866" lon="7.05201">
        <ele>2459.1999511719</ele>
        <time>2018-05-09T09:10:19.000Z</time>
      </trkpt>
      <trkpt lat="44.22866" lon="7.05201">
        <ele>2459.1999511719</ele>
        <time>2018-05-09T09:10:23.000Z</time>
      </trkpt>
      <trkpt lat="44.22866" lon="7.052">
        <ele>2459.1999511719</ele>
        <time>2018-05-09T09:10:27.000Z</time>
      </trkpt>
      <trkpt lat="44.22866" lon="7.052">
        <ele>2459.3999023438</ele>
        <time>2018-05-09T09:10:35.000Z</time>
      </trkpt>
      <trkpt lat="44.22867" lon="7.052">
        <ele>2459.3999023438</ele>
        <time>2018-05-09T09:10:38.000Z</time>
      </trkpt>
      <trkpt lat="44.22867" lon="7.05199">
        <ele>2459.1999511719</ele>
        <time>2018-05-09T09:10:42.000Z</time>
      </trkpt>
      <trkpt lat="44.22868" lon="7.05199">
        <ele>2459.3999023438</ele>
        <time>2018-05-09T09:10:46.000Z</time>
      </trkpt>
      <trkpt lat="44.22867" lon="7.05199">
        <ele>2459.1999511719</ele>
        <time>2018-05-09T09:10:49.000Z</time>
      </trkpt>
      <trkpt lat="44.22867" lon="7.05199">
        <ele>2459</ele>
        <time>2018-05-09T09:10:59.000Z</time>
      </trkpt>
      <trkpt lat="44.22866" lon="7.05201">
        <ele>2459.1999511719</ele>
        <time>2018-05-09T09:11:11.000Z</time>
      </trkpt>
      <trkpt lat="44.22866" lon="7.05201">
        <ele>2458.8000488281</ele>
        <time>2018-05-09T09:11:16.000Z</time>
      </trkpt>
      <trkpt lat="44.22868" lon="7.052">
        <ele>2458.8000488281</ele>
        <time>2018-05-09T09:11:22.000Z</time>
      </trkpt>
      <trkpt lat="44.22868" lon="7.052">
        <ele>2458.8000488281</ele>
        <time>2018-05-09T09:11:23.000Z</time>
      </trkpt>
      <trkpt lat="44.22868" lon="7.052">
        <ele>2458.8000488281</ele>
        <time>2018-05-09T09:11:25.000Z</time>
      </trkpt>
      <trkpt lat="44.22869" lon="7.052">
        <ele>2458.8000488281</ele>
        <time>2018-05-09T09:11:29.000Z</time>
      </trkpt>
      <trkpt lat="44.22868" lon="7.052">
        <ele>2459</ele>
        <time>2018-05-09T09:11:35.000Z</time>
      </trkpt>
      <trkpt lat="44.22868" lon="7.052">
        <ele>2458.8000488281</ele>
        <time>2018-05-09T09:11:38.000Z</time>
      </trkpt>
      <trkpt lat="44.22868" lon="7.052">
        <ele>2458.3999023438</ele>
        <time>2018-05-09T09:11:41.000Z</time>
      </trkpt>
      <trkpt lat="44.22868" lon="7.052">
        <ele>2458.3999023438</ele>
        <time>2018-05-09T09:11:44.000Z</time>
      </trkpt>
      <trkpt lat="44.22868" lon="7.05198">
        <ele>2458.8000488281</ele>
        <time>2018-05-09T09:11:52.000Z</time>
      </trkpt>
      <trkpt lat="44.22867" lon="7.05199">
        <ele>2458.8000488281</ele>
        <time>2018-05-09T09:12:09.000Z</time>
      </trkpt>
      <trkpt lat="44.22867" lon="7.052">
        <ele>2458.6000976562</ele>
        <time>2018-05-09T09:12:16.000Z</time>
      </trkpt>
      <trkpt lat="44.22866" lon="7.052">
        <ele>2458.8000488281</ele>
        <time>2018-05-09T09:12:18.000Z</time>
      </trkpt>
      <trkpt lat="44.22867" lon="7.05199">
        <ele>2459</ele>
        <time>2018-05-09T09:12:27.000Z</time>
      </trkpt>
      <trkpt lat="44.22866" lon="7.052">
        <ele>2458.3999023438</ele>
        <time>2018-05-09T09:12:36.000Z</time>
      </trkpt>
      <trkpt lat="44.22866" lon="7.052">
        <ele>2458.6000976562</ele>
        <time>2018-05-09T09:12:38.000Z</time>
      </trkpt>
      <trkpt lat="44.22866" lon="7.05199">
        <ele>2458.8000488281</ele>
        <time>2018-05-09T09:12:42.000Z</time>
      </trkpt>
      <trkpt lat="44.22866" lon="7.05197">
        <ele>2459</ele>
        <time>2018-05-09T09:12:45.000Z</time>
      </trkpt>
      <trkpt lat="44.22865" lon="7.05195">
        <ele>2459.3999023438</ele>
        <time>2018-05-09T09:12:50.000Z</time>
      </trkpt>
      <trkpt lat="44.22865" lon="7.05195">
        <ele>2459.3999023438</ele>
        <time>2018-05-09T09:12:51.000Z</time>
      </trkpt>
      <trkpt lat="44.22864" lon="7.05195">
        <ele>2460</ele>
        <time>2018-05-09T09:12:55.000Z</time>
      </trkpt>
      <trkpt lat="44.22864" lon="7.05194">
        <ele>2460.6000976562</ele>
        <time>2018-05-09T09:12:58.000Z</time>
      </trkpt>
      <trkpt lat="44.22864" lon="7.05193">
        <ele>2461.1999511719</ele>
        <time>2018-05-09T09:13:00.000Z</time>
      </trkpt>
      <trkpt lat="44.22864" lon="7.05193">
        <ele>2461.8000488281</ele>
        <time>2018-05-09T09:13:03.000Z</time>
      </trkpt>
      <trkpt lat="44.22864" lon="7.05192">
        <ele>2462.1999511719</ele>
        <time>2018-05-09T09:13:06.000Z</time>
      </trkpt>
      <trkpt lat="44.22863" lon="7.05192">
        <ele>2462.6000976562</ele>
        <time>2018-05-09T09:13:10.000Z</time>
      </trkpt>
      <trkpt lat="44.22861" lon="7.05193">
        <ele>2462.8000488281</ele>
        <time>2018-05-09T09:13:17.000Z</time>
      </trkpt>
      <trkpt lat="44.22861" lon="7.05194">
        <ele>2463.8000488281</ele>
        <time>2018-05-09T09:13:23.000Z</time>
      </trkpt>
      <trkpt lat="44.22861" lon="7.05193">
        <ele>2465</ele>
        <time>2018-05-09T09:13:37.000Z</time>
      </trkpt>
      <trkpt lat="44.2286" lon="7.05192">
        <ele>2466.1999511719</ele>
        <time>2018-05-09T09:13:43.000Z</time>
      </trkpt>
      <trkpt lat="44.2286" lon="7.05191">
        <ele>2467.1999511719</ele>
        <time>2018-05-09T09:13:47.000Z</time>
      </trkpt>
      <trkpt lat="44.22859" lon="7.0519">
        <ele>2467.3999023438</ele>
        <time>2018-05-09T09:13:56.000Z</time>
      </trkpt>
      <trkpt lat="44.22859" lon="7.0519">
        <ele>2467.8000488281</ele>
        <time>2018-05-09T09:14:16.000Z</time>
      </trkpt>
      <trkpt lat="44.22859" lon="7.05189">
        <ele>2468.3999023438</ele>
        <time>2018-05-09T09:14:19.000Z</time>
      </trkpt>
      <trkpt lat="44.22861" lon="7.0519">
        <ele>2468</ele>
        <time>2018-05-09T09:14:27.000Z</time>
      </trkpt>
      <trkpt lat="44.22857" lon="7.05195">
        <ele>2467.8000488281</ele>
        <time>2018-05-09T09:14:40.000Z</time>
      </trkpt>
      <trkpt lat="44.22858" lon="7.05194">
        <ele>2467.3999023438</ele>
        <time>2018-05-09T09:14:43.000Z</time>
      </trkpt>
      <trkpt lat="44.22856" lon="7.05192">
        <ele>2467.6000976562</ele>
        <time>2018-05-09T09:14:48.000Z</time>
      </trkpt>
      <trkpt lat="44.22857" lon="7.05192">
        <ele>2467.6000976562</ele>
        <time>2018-05-09T09:14:50.000Z</time>
      </trkpt>
      <trkpt lat="44.22857" lon="7.05191">
        <ele>2467.6000976562</ele>
        <time>2018-05-09T09:14:52.000Z</time>
      </trkpt>
      <trkpt lat="44.22857" lon="7.05191">
        <ele>2467.6000976562</ele>
        <time>2018-05-09T09:14:54.000Z</time>
      </trkpt>
      <trkpt lat="44.22857" lon="7.05191">
        <ele>2467.6000976562</ele>
        <time>2018-05-09T09:14:56.000Z</time>
      </trkpt>
      <trkpt lat="44.22858" lon="7.0519">
        <ele>2467.8000488281</ele>
        <time>2018-05-09T09:15:09.000Z</time>
      </trkpt>
      <trkpt lat="44.22858" lon="7.0519">
        <ele>2467.6000976562</ele>
        <time>2018-05-09T09:15:15.000Z</time>
      </trkpt>
      <trkpt lat="44.22858" lon="7.0519">
        <ele>2467.6000976562</ele>
        <time>2018-05-09T09:15:16.000Z</time>
      </trkpt>
      <trkpt lat="44.22858" lon="7.0519">
        <ele>2467.6000976562</ele>
        <time>2018-05-09T09:15:17.000Z</time>
      </trkpt>
      <trkpt lat="44.22858" lon="7.0519">
        <ele>2467.8000488281</ele>
        <time>2018-05-09T09:15:18.000Z</time>
      </trkpt>
      <trkpt lat="44.22858" lon="7.0519">
        <ele>2468</ele>
        <time>2018-05-09T09:15:21.000Z</time>
      </trkpt>
      <trkpt lat="44.22858" lon="7.0519">
        <ele>2468</ele>
        <time>2018-05-09T09:15:24.000Z</time>
      </trkpt>
      <trkpt lat="44.22858" lon="7.0519">
        <ele>2468.1999511719</ele>
        <time>2018-05-09T09:15:26.000Z</time>
      </trkpt>
      <trkpt lat="44.22858" lon="7.0519">
        <ele>2468.1999511719</ele>
        <time>2018-05-09T09:15:27.000Z</time>
      </trkpt>
      <trkpt lat="44.22858" lon="7.05191">
        <ele>2468.1999511719</ele>
        <time>2018-05-09T09:15:30.000Z</time>
      </trkpt>
      <trkpt lat="44.22858" lon="7.05191">
        <ele>2468.1999511719</ele>
        <time>2018-05-09T09:15:33.000Z</time>
      </trkpt>
      <trkpt lat="44.22858" lon="7.05192">
        <ele>2467.6000976562</ele>
        <time>2018-05-09T09:15:41.000Z</time>
      </trkpt>
      <trkpt lat="44.22858" lon="7.05193">
        <ele>2467.8000488281</ele>
        <time>2018-05-09T09:15:49.000Z</time>
      </trkpt>
      <trkpt lat="44.22858" lon="7.05192">
        <ele>2468</ele>
        <time>2018-05-09T09:15:54.000Z</time>
      </trkpt>
      <trkpt lat="44.22858" lon="7.05192">
        <ele>2468.3999023438</ele>
        <time>2018-05-09T09:15:58.000Z</time>
      </trkpt>
      <trkpt lat="44.22859" lon="7.05192">
        <ele>2468.6000976562</ele>
        <time>2018-05-09T09:15:59.000Z</time>
      </trkpt>
      <trkpt lat="44.22859" lon="7.05192">
        <ele>2468.6000976562</ele>
        <time>2018-05-09T09:16:00.000Z</time>
      </trkpt>
      <trkpt lat="44.22859" lon="7.05191">
        <ele>2468.6000976562</ele>
        <time>2018-05-09T09:16:04.000Z</time>
      </trkpt>
      <trkpt lat="44.22858" lon="7.05192">
        <ele>2468.6000976562</ele>
        <time>2018-05-09T09:16:05.000Z</time>
      </trkpt>
      <trkpt lat="44.22858" lon="7.05192">
        <ele>2468.3999023438</ele>
        <time>2018-05-09T09:16:07.000Z</time>
      </trkpt>
      <trkpt lat="44.22856" lon="7.0519">
        <ele>2467.3999023438</ele>
        <time>2018-05-09T09:16:16.000Z</time>
      </trkpt>
      <trkpt lat="44.22856" lon="7.0519">
        <ele>2467.1999511719</ele>
        <time>2018-05-09T09:16:17.000Z</time>
      </trkpt>
      <trkpt lat="44.22856" lon="7.0519">
        <ele>2467</ele>
        <time>2018-05-09T09:16:18.000Z</time>
      </trkpt>
      <trkpt lat="44.22857" lon="7.05189">
        <ele>2467.3999023438</ele>
        <time>2018-05-09T09:16:21.000Z</time>
      </trkpt>
      <trkpt lat="44.22856" lon="7.05187">
        <ele>2468.1999511719</ele>
        <time>2018-05-09T09:16:24.000Z</time>
      </trkpt>
      <trkpt lat="44.22856" lon="7.05186">
        <ele>2468.3999023438</ele>
        <time>2018-05-09T09:16:25.000Z</time>
      </trkpt>
      <trkpt lat="44.22856" lon="7.05186">
        <ele>2468.3999023438</ele>
        <time>2018-05-09T09:16:26.000Z</time>
      </trkpt>
      <trkpt lat="44.22855" lon="7.05187">
        <ele>2468.3999023438</ele>
        <time>2018-05-09T09:16:28.000Z</time>
      </trkpt>
      <trkpt lat="44.22855" lon="7.05189">
        <ele>2468.1999511719</ele>
        <time>2018-05-09T09:16:30.000Z</time>
      </trkpt>
      <trkpt lat="44.22854" lon="7.05192">
        <ele>2467.6000976562</ele>
        <time>2018-05-09T09:16:32.000Z</time>
      </trkpt>
      <trkpt lat="44.22854" lon="7.05193">
        <ele>2467.1999511719</ele>
        <time>2018-05-09T09:16:33.000Z</time>
      </trkpt>
      <trkpt lat="44.22854" lon="7.05194">
        <ele>2467</ele>
        <time>2018-05-09T09:16:34.000Z</time>
      </trkpt>
      <trkpt lat="44.22853" lon="7.05196">
        <ele>2466.1999511719</ele>
        <time>2018-05-09T09:16:40.000Z</time>
      </trkpt>
      <trkpt lat="44.2285" lon="7.05196">
        <ele>2465.1999511719</ele>
        <time>2018-05-09T09:16:48.000Z</time>
      </trkpt>
      <trkpt lat="44.22852" lon="7.05195">
        <ele>2465.1999511719</ele>
        <time>2018-05-09T09:16:56.000Z</time>
      </trkpt>
      <trkpt lat="44.22853" lon="7.05195">
        <ele>2465.1999511719</ele>
        <time>2018-05-09T09:17:00.000Z</time>
      </trkpt>
      <trkpt lat="44.22854" lon="7.05197">
        <ele>2465.6000976562</ele>
        <time>2018-05-09T09:17:03.000Z</time>
      </trkpt>
      <trkpt lat="44.22855" lon="7.05198">
        <ele>2466.1999511719</ele>
        <time>2018-05-09T09:17:06.000Z</time>
      </trkpt>
      <trkpt lat="44.22855" lon="7.05196">
        <ele>2466.6000976562</ele>
        <time>2018-05-09T09:17:09.000Z</time>
      </trkpt>
      <trkpt lat="44.22856" lon="7.05195">
        <ele>2467</ele>
        <time>2018-05-09T09:17:12.000Z</time>
      </trkpt>
      <trkpt lat="44.22856" lon="7.05194">
        <ele>2467.1999511719</ele>
        <time>2018-05-09T09:17:13.000Z</time>
      </trkpt>
      <trkpt lat="44.22855" lon="7.05189">
        <ele>2467.1999511719</ele>
        <time>2018-05-09T09:17:19.000Z</time>
      </trkpt>
      <trkpt lat="44.22859" lon="7.05184">
        <ele>2466.8000488281</ele>
        <time>2018-05-09T09:17:31.000Z</time>
      </trkpt>
      <trkpt lat="44.22861" lon="7.05184">
        <ele>2467</ele>
        <time>2018-05-09T09:17:36.000Z</time>
      </trkpt>
      <trkpt lat="44.22861" lon="7.05184">
        <ele>2467.1999511719</ele>
        <time>2018-05-09T09:17:37.000Z</time>
      </trkpt>
      <trkpt lat="44.22861" lon="7.05183">
        <ele>2467.1999511719</ele>
        <time>2018-05-09T09:17:38.000Z</time>
      </trkpt>
      <trkpt lat="44.2286" lon="7.05182">
        <ele>2467.3999023438</ele>
        <time>2018-05-09T09:17:42.000Z</time>
      </trkpt>
      <trkpt lat="44.2286" lon="7.05185">
        <ele>2467.3999023438</ele>
        <time>2018-05-09T09:17:45.000Z</time>
      </trkpt>
      <trkpt lat="44.2286" lon="7.05187">
        <ele>2467.8000488281</ele>
        <time>2018-05-09T09:17:50.000Z</time>
      </trkpt>
      <trkpt lat="44.22859" lon="7.05187">
        <ele>2468</ele>
        <time>2018-05-09T09:17:52.000Z</time>
      </trkpt>
      <trkpt lat="44.22861" lon="7.05187">
        <ele>2468</ele>
        <time>2018-05-09T09:18:04.000Z</time>
      </trkpt>
      <trkpt lat="44.2286" lon="7.05186">
        <ele>2467.6000976562</ele>
        <time>2018-05-09T09:18:07.000Z</time>
      </trkpt>
      <trkpt lat="44.22857" lon="7.05189">
        <ele>2467.3999023438</ele>
        <time>2018-05-09T09:18:21.000Z</time>
      </trkpt>
      <trkpt lat="44.22856" lon="7.05189">
        <ele>2467.1999511719</ele>
        <time>2018-05-09T09:18:24.000Z</time>
      </trkpt>
      <trkpt lat="44.22856" lon="7.05189">
        <ele>2467.3999023438</ele>
        <time>2018-05-09T09:18:30.000Z</time>
      </trkpt>
      <trkpt lat="44.22855" lon="7.05188">
        <ele>2467.6000976562</ele>
        <time>2018-05-09T09:18:32.000Z</time>
      </trkpt>
      <trkpt lat="44.22855" lon="7.05187">
        <ele>2467.6000976562</ele>
        <time>2018-05-09T09:18:33.000Z</time>
      </trkpt>
      <trkpt lat="44.22855" lon="7.05187">
        <ele>2467.8000488281</ele>
        <time>2018-05-09T09:18:34.000Z</time>
      </trkpt>
      <trkpt lat="44.22858" lon="7.05189">
        <ele>2468</ele>
        <time>2018-05-09T09:18:50.000Z</time>
      </trkpt>
      <trkpt lat="44.22857" lon="7.0519">
        <ele>2468.1999511719</ele>
        <time>2018-05-09T09:18:52.000Z</time>
      </trkpt>
      <trkpt lat="44.22857" lon="7.05191">
        <ele>2468.1999511719</ele>
        <time>2018-05-09T09:18:54.000Z</time>
      </trkpt>
      <trkpt lat="44.22857" lon="7.05191">
        <ele>2468.3999023438</ele>
        <time>2018-05-09T09:18:57.000Z</time>
      </trkpt>
      <trkpt lat="44.22856" lon="7.05191">
        <ele>2467.8000488281</ele>
        <time>2018-05-09T09:19:04.000Z</time>
      </trkpt>
      <trkpt lat="44.22855" lon="7.05191">
        <ele>2467.8000488281</ele>
        <time>2018-05-09T09:19:06.000Z</time>
      </trkpt>
      <trkpt lat="44.22855" lon="7.05189">
        <ele>2467.8000488281</ele>
        <time>2018-05-09T09:19:12.000Z</time>
      </trkpt>
      <trkpt lat="44.22856" lon="7.05186">
        <ele>2467.6000976562</ele>
        <time>2018-05-09T09:19:31.000Z</time>
      </trkpt>
      <trkpt lat="44.22855" lon="7.05186">
        <ele>2467.8000488281</ele>
        <time>2018-05-09T09:19:39.000Z</time>
      </trkpt>
      <trkpt lat="44.22855" lon="7.05184">
        <ele>2468</ele>
        <time>2018-05-09T09:19:43.000Z</time>
      </trkpt>
      <trkpt lat="44.22859" lon="7.05184">
        <ele>2467.8000488281</ele>
        <time>2018-05-09T09:19:56.000Z</time>
      </trkpt>
      <trkpt lat="44.22859" lon="7.05185">
        <ele>2467.8000488281</ele>
        <time>2018-05-09T09:19:58.000Z</time>
      </trkpt>
      <trkpt lat="44.22862" lon="7.05191">
        <ele>2467.8000488281</ele>
        <time>2018-05-09T09:20:12.000Z</time>
      </trkpt>
      <trkpt lat="44.22856" lon="7.05185">
        <ele>2467.8000488281</ele>
        <time>2018-05-09T09:20:29.000Z</time>
      </trkpt>
      <trkpt lat="44.22855" lon="7.05186">
        <ele>2467.8000488281</ele>
        <time>2018-05-09T09:20:33.000Z</time>
      </trkpt>
      <trkpt lat="44.22855" lon="7.05187">
        <ele>2467.8000488281</ele>
        <time>2018-05-09T09:20:40.000Z</time>
      </trkpt>
      <trkpt lat="44.22853" lon="7.05186">
        <ele>2467.8000488281</ele>
        <time>2018-05-09T09:20:48.000Z</time>
      </trkpt>
      <trkpt lat="44.22854" lon="7.05186">
        <ele>2467.8000488281</ele>
        <time>2018-05-09T09:20:52.000Z</time>
      </trkpt>
      <trkpt lat="44.22854" lon="7.05187">
        <ele>2467.8000488281</ele>
        <time>2018-05-09T09:20:54.000Z</time>
      </trkpt>
      <trkpt lat="44.22855" lon="7.05186">
        <ele>2471.1999511719</ele>
        <time>2018-05-09T09:21:04.000Z</time>
      </trkpt>
      <trkpt lat="44.22855" lon="7.05187">
        <ele>2470.3999023438</ele>
        <time>2018-05-09T09:21:07.000Z</time>
      </trkpt>
      <trkpt lat="44.22854" lon="7.05187">
        <ele>2469.6000976562</ele>
        <time>2018-05-09T09:21:08.000Z</time>
      </trkpt>
      <trkpt lat="44.22854" lon="7.05187">
        <ele>2468.8000488281</ele>
        <time>2018-05-09T09:21:14.000Z</time>
      </trkpt>
      <trkpt lat="44.22854" lon="7.05189">
        <ele>2469</ele>
        <time>2018-05-09T09:21:18.000Z</time>
      </trkpt>
      <trkpt lat="44.22853" lon="7.05183">
        <ele>2469.1999511719</ele>
        <time>2018-05-09T09:21:29.000Z</time>
      </trkpt>
      <trkpt lat="44.22856" lon="7.0519">
        <ele>2469</ele>
        <time>2018-05-09T09:21:35.000Z</time>
      </trkpt>
      <trkpt lat="44.22856" lon="7.0519">
        <ele>2468.6000976562</ele>
        <time>2018-05-09T09:21:38.000Z</time>
      </trkpt>
      <trkpt lat="44.22855" lon="7.05189">
        <ele>2469.3999023438</ele>
        <time>2018-05-09T09:21:44.000Z</time>
      </trkpt>
      <trkpt lat="44.22854" lon="7.05184">
        <ele>2468.8000488281</ele>
        <time>2018-05-09T09:21:50.000Z</time>
      </trkpt>
      <trkpt lat="44.22853" lon="7.05183">
        <ele>2468.6000976562</ele>
        <time>2018-05-09T09:21:53.000Z</time>
      </trkpt>
      <trkpt lat="44.22853" lon="7.05187">
        <ele>2468.3999023438</ele>
        <time>2018-05-09T09:22:03.000Z</time>
      </trkpt>
      <trkpt lat="44.22853" lon="7.05186">
        <ele>2468.1999511719</ele>
        <time>2018-05-09T09:22:06.000Z</time>
      </trkpt>
      <trkpt lat="44.22851" lon="7.05182">
        <ele>2467.6000976562</ele>
        <time>2018-05-09T09:22:13.000Z</time>
      </trkpt>
      <trkpt lat="44.22852" lon="7.05184">
        <ele>2467.6000976562</ele>
        <time>2018-05-09T09:22:18.000Z</time>
      </trkpt>
      <trkpt lat="44.22853" lon="7.05183">
        <ele>2467.6000976562</ele>
        <time>2018-05-09T09:22:23.000Z</time>
      </trkpt>
      <trkpt lat="44.22854" lon="7.05189">
        <ele>2467.8000488281</ele>
        <time>2018-05-09T09:22:32.000Z</time>
      </trkpt>
      <trkpt lat="44.22854" lon="7.0519">
        <ele>2467.8000488281</ele>
        <time>2018-05-09T09:22:39.000Z</time>
      </trkpt>
      <trkpt lat="44.22852" lon="7.05191">
        <ele>2468.3999023438</ele>
        <time>2018-05-09T09:22:47.000Z</time>
      </trkpt>
      <trkpt lat="44.22853" lon="7.05186">
        <ele>2468</ele>
        <time>2018-05-09T09:22:51.000Z</time>
      </trkpt>
      <trkpt lat="44.22853" lon="7.05186">
        <ele>2468</ele>
        <time>2018-05-09T09:22:53.000Z</time>
      </trkpt>
      <trkpt lat="44.22852" lon="7.05183">
        <ele>2467.6000976562</ele>
        <time>2018-05-09T09:23:03.000Z</time>
      </trkpt>
      <trkpt lat="44.22858" lon="7.05189">
        <ele>2467.8000488281</ele>
        <time>2018-05-09T09:23:15.000Z</time>
      </trkpt>
      <trkpt lat="44.22858" lon="7.05188">
        <ele>2467.8000488281</ele>
        <time>2018-05-09T09:23:20.000Z</time>
      </trkpt>
      <trkpt lat="44.22858" lon="7.05188">
        <ele>2467.8000488281</ele>
        <time>2018-05-09T09:23:22.000Z</time>
      </trkpt>
      <trkpt lat="44.22858" lon="7.05188">
        <ele>2467.8000488281</ele>
        <time>2018-05-09T09:23:24.000Z</time>
      </trkpt>
      <trkpt lat="44.22857" lon="7.05187">
        <ele>2467.8000488281</ele>
        <time>2018-05-09T09:23:27.000Z</time>
      </trkpt>
      <trkpt lat="44.22857" lon="7.05186">
        <ele>2467.8000488281</ele>
        <time>2018-05-09T09:23:28.000Z</time>
      </trkpt>
      <trkpt lat="44.22855" lon="7.05186">
        <ele>2467.8000488281</ele>
        <time>2018-05-09T09:23:33.000Z</time>
      </trkpt>
      <trkpt lat="44.22854" lon="7.05186">
        <ele>2467.8000488281</ele>
        <time>2018-05-09T09:23:37.000Z</time>
      </trkpt>
      <trkpt lat="44.22854" lon="7.05186">
        <ele>2467.8000488281</ele>
        <time>2018-05-09T09:23:41.000Z</time>
      </trkpt>
      <trkpt lat="44.22852" lon="7.05185">
        <ele>2467.8000488281</ele>
        <time>2018-05-09T09:23:48.000Z</time>
      </trkpt>
      <trkpt lat="44.22853" lon="7.05185">
        <ele>2467.8000488281</ele>
        <time>2018-05-09T09:24:00.000Z</time>
      </trkpt>
      <trkpt lat="44.22854" lon="7.05187">
        <ele>2467.8000488281</ele>
        <time>2018-05-09T09:24:02.000Z</time>
      </trkpt>
      <trkpt lat="44.22857" lon="7.05192">
        <ele>2468</ele>
        <time>2018-05-09T09:24:08.000Z</time>
      </trkpt>
      <trkpt lat="44.22857" lon="7.05192">
        <ele>2468.1999511719</ele>
        <time>2018-05-09T09:24:12.000Z</time>
      </trkpt>
      <trkpt lat="44.22856" lon="7.05192">
        <ele>2468</ele>
        <time>2018-05-09T09:24:13.000Z</time>
      </trkpt>
      <trkpt lat="44.22856" lon="7.05189">
        <ele>2467.8000488281</ele>
        <time>2018-05-09T09:24:20.000Z</time>
      </trkpt>
      <trkpt lat="44.22858" lon="7.05184">
        <ele>2467.8000488281</ele>
        <time>2018-05-09T09:24:25.000Z</time>
      </trkpt>
      <trkpt lat="44.22857" lon="7.05179">
        <ele>2468.1999511719</ele>
        <time>2018-05-09T09:24:37.000Z</time>
      </trkpt>
      <trkpt lat="44.22855" lon="7.05181">
        <ele>2467.8000488281</ele>
        <time>2018-05-09T09:24:42.000Z</time>
      </trkpt>
      <trkpt lat="44.22855" lon="7.05181">
        <ele>2467.8000488281</ele>
        <time>2018-05-09T09:24:43.000Z</time>
      </trkpt>
      <trkpt lat="44.22855" lon="7.05181">
        <ele>2468</ele>
        <time>2018-05-09T09:24:45.000Z</time>
      </trkpt>
      <trkpt lat="44.22858" lon="7.05184">
        <ele>2467.6000976562</ele>
        <time>2018-05-09T09:24:48.000Z</time>
      </trkpt>
      <trkpt lat="44.22858" lon="7.05186">
        <ele>2467.3999023438</ele>
        <time>2018-05-09T09:24:49.000Z</time>
      </trkpt>
      <trkpt lat="44.22859" lon="7.05187">
        <ele>2467.1999511719</ele>
        <time>2018-05-09T09:24:50.000Z</time>
      </trkpt>
      <trkpt lat="44.2286" lon="7.05193">
        <ele>2466.6000976562</ele>
        <time>2018-05-09T09:24:52.000Z</time>
      </trkpt>
      <trkpt lat="44.22861" lon="7.05197">
        <ele>2466.1999511719</ele>
        <time>2018-05-09T09:24:53.000Z</time>
      </trkpt>
      <trkpt lat="44.22863" lon="7.05202">
        <ele>2464.8000488281</ele>
        <time>2018-05-09T09:24:56.000Z</time>
      </trkpt>
      <trkpt lat="44.22863" lon="7.05204">
        <ele>2463.3999023438</ele>
        <time>2018-05-09T09:24:58.000Z</time>
      </trkpt>
      <trkpt lat="44.22864" lon="7.05205">
        <ele>2463</ele>
        <time>2018-05-09T09:25:03.000Z</time>
      </trkpt>
      <trkpt lat="44.22865" lon="7.05207">
        <ele>2462.3999023438</ele>
        <time>2018-05-09T09:25:09.000Z</time>
      </trkpt>
      <trkpt lat="44.22867" lon="7.05209">
        <ele>2461.1999511719</ele>
        <time>2018-05-09T09:25:14.000Z</time>
      </trkpt>
      <trkpt lat="44.22866" lon="7.05209">
        <ele>2460.1999511719</ele>
        <time>2018-05-09T09:25:17.000Z</time>
      </trkpt>
      <trkpt lat="44.22866" lon="7.05203">
        <ele>2459.1999511719</ele>
        <time>2018-05-09T09:25:30.000Z</time>
      </trkpt>
      <trkpt lat="44.22868" lon="7.052">
        <ele>2458.6000976562</ele>
        <time>2018-05-09T09:25:31.000Z</time>
      </trkpt>
      <trkpt lat="44.22872" lon="7.05199">
        <ele>2457.3999023438</ele>
        <time>2018-05-09T09:25:33.000Z</time>
      </trkpt>
      <trkpt lat="44.22877" lon="7.05207">
        <ele>2455.1999511719</ele>
        <time>2018-05-09T09:25:35.000Z</time>
      </trkpt>
      <trkpt lat="44.22879" lon="7.0521">
        <ele>2453.6000976562</ele>
        <time>2018-05-09T09:25:36.000Z</time>
      </trkpt>
      <trkpt lat="44.22879" lon="7.05212">
        <ele>2451.8000488281</ele>
        <time>2018-05-09T09:25:37.000Z</time>
      </trkpt>
      <trkpt lat="44.2288" lon="7.05212">
        <ele>2450.6000976562</ele>
        <time>2018-05-09T09:25:38.000Z</time>
      </trkpt>
      <trkpt lat="44.22883" lon="7.05212">
        <ele>2449.1999511719</ele>
        <time>2018-05-09T09:25:40.000Z</time>
      </trkpt>
      <trkpt lat="44.22887" lon="7.05205">
        <ele>2448</ele>
        <time>2018-05-09T09:25:42.000Z</time>
      </trkpt>
      <trkpt lat="44.22889" lon="7.05199">
        <ele>2446</ele>
        <time>2018-05-09T09:25:44.000Z</time>
      </trkpt>
      <trkpt lat="44.22889" lon="7.05198">
        <ele>2445.1999511719</ele>
        <time>2018-05-09T09:25:45.000Z</time>
      </trkpt>
      <trkpt lat="44.22889" lon="7.05197">
        <ele>2444.6000976562</ele>
        <time>2018-05-09T09:25:46.000Z</time>
      </trkpt>
      <trkpt lat="44.22892" lon="7.05196">
        <ele>2443.3999023438</ele>
        <time>2018-05-09T09:25:49.000Z</time>
      </trkpt>
      <trkpt lat="44.22895" lon="7.05204">
        <ele>2442.3999023438</ele>
        <time>2018-05-09T09:25:51.000Z</time>
      </trkpt>
      <trkpt lat="44.22896" lon="7.05208">
        <ele>2441.6000976562</ele>
        <time>2018-05-09T09:25:52.000Z</time>
      </trkpt>
      <trkpt lat="44.22898" lon="7.05213">
        <ele>2439.8000488281</ele>
        <time>2018-05-09T09:25:54.000Z</time>
      </trkpt>
      <trkpt lat="44.22903" lon="7.05212">
        <ele>2438.6000976562</ele>
        <time>2018-05-09T09:25:56.000Z</time>
      </trkpt>
      <trkpt lat="44.22905" lon="7.05208">
        <ele>2438</ele>
        <time>2018-05-09T09:25:57.000Z</time>
      </trkpt>
      <trkpt lat="44.22907" lon="7.05205">
        <ele>2437.1999511719</ele>
        <time>2018-05-09T09:25:58.000Z</time>
      </trkpt>
      <trkpt lat="44.2291" lon="7.05199">
        <ele>2435.1999511719</ele>
        <time>2018-05-09T09:26:00.000Z</time>
      </trkpt>
      <trkpt lat="44.22915" lon="7.05197">
        <ele>2433.6000976562</ele>
        <time>2018-05-09T09:26:02.000Z</time>
      </trkpt>
      <trkpt lat="44.22917" lon="7.052">
        <ele>2432.8000488281</ele>
        <time>2018-05-09T09:26:03.000Z</time>
      </trkpt>
      <trkpt lat="44.22917" lon="7.05203">
        <ele>2432.1999511719</ele>
        <time>2018-05-09T09:26:04.000Z</time>
      </trkpt>
      <trkpt lat="44.22917" lon="7.05204">
        <ele>2431.1999511719</ele>
        <time>2018-05-09T09:26:05.000Z</time>
      </trkpt>
      <trkpt lat="44.22917" lon="7.05205">
        <ele>2430.3999023438</ele>
        <time>2018-05-09T09:26:06.000Z</time>
      </trkpt>
      <trkpt lat="44.22917" lon="7.05205">
        <ele>2429.8000488281</ele>
        <time>2018-05-09T09:26:07.000Z</time>
      </trkpt>
      <trkpt lat="44.22918" lon="7.05205">
        <ele>2429.1999511719</ele>
        <time>2018-05-09T09:26:09.000Z</time>
      </trkpt>
      <trkpt lat="44.22918" lon="7.05205">
        <ele>2429</ele>
        <time>2018-05-09T09:26:10.000Z</time>
      </trkpt>
      <trkpt lat="44.22918" lon="7.05205">
        <ele>2428.8000488281</ele>
        <time>2018-05-09T09:26:15.000Z</time>
      </trkpt>
      <trkpt lat="44.22916" lon="7.05207">
        <ele>2428.8000488281</ele>
        <time>2018-05-09T09:26:18.000Z</time>
      </trkpt>
      <trkpt lat="44.22915" lon="7.05208">
        <ele>2428.8000488281</ele>
        <time>2018-05-09T09:26:21.000Z</time>
      </trkpt>
      <trkpt lat="44.22914" lon="7.05207">
        <ele>2428.8000488281</ele>
        <time>2018-05-09T09:26:28.000Z</time>
      </trkpt>
      <trkpt lat="44.22915" lon="7.05205">
        <ele>2428.8000488281</ele>
        <time>2018-05-09T09:26:32.000Z</time>
      </trkpt>
      <trkpt lat="44.22914" lon="7.05205">
        <ele>2429</ele>
        <time>2018-05-09T09:26:41.000Z</time>
      </trkpt>
      <trkpt lat="44.22914" lon="7.05205">
        <ele>2429</ele>
        <time>2018-05-09T09:26:45.000Z</time>
      </trkpt>
      <trkpt lat="44.22914" lon="7.05204">
        <ele>2429</ele>
        <time>2018-05-09T09:26:46.000Z</time>
      </trkpt>
      <trkpt lat="44.22914" lon="7.05205">
        <ele>2429.1999511719</ele>
        <time>2018-05-09T09:26:48.000Z</time>
      </trkpt>
      <trkpt lat="44.22914" lon="7.05205">
        <ele>2429.1999511719</ele>
        <time>2018-05-09T09:26:51.000Z</time>
      </trkpt>
      <trkpt lat="44.22913" lon="7.05206">
        <ele>2428.8000488281</ele>
        <time>2018-05-09T09:27:00.000Z</time>
      </trkpt>
      <trkpt lat="44.22913" lon="7.05206">
        <ele>2428.8000488281</ele>
        <time>2018-05-09T09:27:02.000Z</time>
      </trkpt>
      <trkpt lat="44.22915" lon="7.05206">
        <ele>2429</ele>
        <time>2018-05-09T09:27:07.000Z</time>
      </trkpt>
      <trkpt lat="44.22914" lon="7.05207">
        <ele>2428.8000488281</ele>
        <time>2018-05-09T09:27:13.000Z</time>
      </trkpt>
      <trkpt lat="44.22914" lon="7.05207">
        <ele>2428.6000976562</ele>
        <time>2018-05-09T09:27:15.000Z</time>
      </trkpt>
      <trkpt lat="44.22915" lon="7.05206">
        <ele>2428.8000488281</ele>
        <time>2018-05-09T09:27:17.000Z</time>
      </trkpt>
      <trkpt lat="44.22917" lon="7.05203">
        <ele>2428.8000488281</ele>
        <time>2018-05-09T09:27:20.000Z</time>
      </trkpt>
      <trkpt lat="44.22922" lon="7.052">
        <ele>2428.8000488281</ele>
        <time>2018-05-09T09:27:40.000Z</time>
      </trkpt>
      <trkpt lat="44.22922" lon="7.052">
        <ele>2428.8000488281</ele>
        <time>2018-05-09T09:27:41.000Z</time>
      </trkpt>
      <trkpt lat="44.22922" lon="7.052">
        <ele>2428.8000488281</ele>
        <time>2018-05-09T09:27:42.000Z</time>
      </trkpt>
      <trkpt lat="44.22922" lon="7.05201">
        <ele>2428.8000488281</ele>
        <time>2018-05-09T09:27:43.000Z</time>
      </trkpt>
      <trkpt lat="44.22921" lon="7.05201">
        <ele>2428.8000488281</ele>
        <time>2018-05-09T09:27:45.000Z</time>
      </trkpt>
      <trkpt lat="44.22925" lon="7.05201">
        <ele>2428.8000488281</ele>
        <time>2018-05-09T09:28:01.000Z</time>
      </trkpt>
      <trkpt lat="44.22925" lon="7.052">
        <ele>2428.8000488281</ele>
        <time>2018-05-09T09:28:02.000Z</time>
      </trkpt>
      <trkpt lat="44.22922" lon="7.05203">
        <ele>2428.8000488281</ele>
        <time>2018-05-09T09:28:07.000Z</time>
      </trkpt>
      <trkpt lat="44.22918" lon="7.05204">
        <ele>2428.8000488281</ele>
        <time>2018-05-09T09:28:25.000Z</time>
      </trkpt>
      <trkpt lat="44.22918" lon="7.05205">
        <ele>2428.8000488281</ele>
        <time>2018-05-09T09:28:26.000Z</time>
      </trkpt>
      <trkpt lat="44.22919" lon="7.05205">
        <ele>2428.8000488281</ele>
        <time>2018-05-09T09:28:29.000Z</time>
      </trkpt>
      <trkpt lat="44.22918" lon="7.05205">
        <ele>2428.8000488281</ele>
        <time>2018-05-09T09:28:30.000Z</time>
      </trkpt>
      <trkpt lat="44.22917" lon="7.05204">
        <ele>2428.8000488281</ele>
        <time>2018-05-09T09:28:40.000Z</time>
      </trkpt>
      <trkpt lat="44.22914" lon="7.05206">
        <ele>2428.8000488281</ele>
        <time>2018-05-09T09:28:49.000Z</time>
      </trkpt>
      <trkpt lat="44.22914" lon="7.05206">
        <ele>2428.8000488281</ele>
        <time>2018-05-09T09:28:53.000Z</time>
      </trkpt>
      <trkpt lat="44.22914" lon="7.05206">
        <ele>2428.8000488281</ele>
        <time>2018-05-09T09:28:55.000Z</time>
      </trkpt>
      <trkpt lat="44.22914" lon="7.05206">
        <ele>2428.8000488281</ele>
        <time>2018-05-09T09:28:56.000Z</time>
      </trkpt>
      <trkpt lat="44.22914" lon="7.05206">
        <ele>2428.8000488281</ele>
        <time>2018-05-09T09:28:57.000Z</time>
      </trkpt>
      <trkpt lat="44.22913" lon="7.05207">
        <ele>2428.8000488281</ele>
        <time>2018-05-09T09:29:00.000Z</time>
      </trkpt>
      <trkpt lat="44.22913" lon="7.05207">
        <ele>2428.8000488281</ele>
        <time>2018-05-09T09:29:01.000Z</time>
      </trkpt>
      <trkpt lat="44.22913" lon="7.05207">
        <ele>2428.8000488281</ele>
        <time>2018-05-09T09:29:02.000Z</time>
      </trkpt>
      <trkpt lat="44.22912" lon="7.05207">
        <ele>2428.8000488281</ele>
        <time>2018-05-09T09:29:04.000Z</time>
      </trkpt>
      <trkpt lat="44.22911" lon="7.05207">
        <ele>2428.8000488281</ele>
        <time>2018-05-09T09:29:05.000Z</time>
      </trkpt>
      <trkpt lat="44.2291" lon="7.05207">
        <ele>2428.8000488281</ele>
        <time>2018-05-09T09:29:06.000Z</time>
      </trkpt>
      <trkpt lat="44.2291" lon="7.05207">
        <ele>2428.8000488281</ele>
        <time>2018-05-09T09:29:08.000Z</time>
      </trkpt>
      <trkpt lat="44.22911" lon="7.05208">
        <ele>2428.8000488281</ele>
        <time>2018-05-09T09:29:10.000Z</time>
      </trkpt>
      <trkpt lat="44.22912" lon="7.05208">
        <ele>2428.8000488281</ele>
        <time>2018-05-09T09:29:14.000Z</time>
      </trkpt>
      <trkpt lat="44.22913" lon="7.05208">
        <ele>2428.8000488281</ele>
        <time>2018-05-09T09:29:15.000Z</time>
      </trkpt>
      <trkpt lat="44.22914" lon="7.05208">
        <ele>2428.8000488281</ele>
        <time>2018-05-09T09:29:16.000Z</time>
      </trkpt>
      <trkpt lat="44.22914" lon="7.05208">
        <ele>2428.8000488281</ele>
        <time>2018-05-09T09:29:18.000Z</time>
      </trkpt>
      <trkpt lat="44.22914" lon="7.05209">
        <ele>2428.8000488281</ele>
        <time>2018-05-09T09:29:21.000Z</time>
      </trkpt>
      <trkpt lat="44.22913" lon="7.05209">
        <ele>2428.8000488281</ele>
        <time>2018-05-09T09:29:23.000Z</time>
      </trkpt>
      <trkpt lat="44.22912" lon="7.0521">
        <ele>2428.8000488281</ele>
        <time>2018-05-09T09:29:28.000Z</time>
      </trkpt>
      <trkpt lat="44.22912" lon="7.0521">
        <ele>2428.8000488281</ele>
        <time>2018-05-09T09:29:30.000Z</time>
      </trkpt>
      <trkpt lat="44.22912" lon="7.0521">
        <ele>2428.8000488281</ele>
        <time>2018-05-09T09:29:31.000Z</time>
      </trkpt>
      <trkpt lat="44.22911" lon="7.0521">
        <ele>2428.8000488281</ele>
        <time>2018-05-09T09:29:35.000Z</time>
      </trkpt>
      <trkpt lat="44.2291" lon="7.0521">
        <ele>2428.8000488281</ele>
        <time>2018-05-09T09:29:37.000Z</time>
      </trkpt>
      <trkpt lat="44.2291" lon="7.0521">
        <ele>2428.8000488281</ele>
        <time>2018-05-09T09:29:38.000Z</time>
      </trkpt>
      <trkpt lat="44.2291" lon="7.0521">
        <ele>2428.8000488281</ele>
        <time>2018-05-09T09:29:39.000Z</time>
      </trkpt>
      <trkpt lat="44.22909" lon="7.05211">
        <ele>2428.8000488281</ele>
        <time>2018-05-09T09:29:41.000Z</time>
      </trkpt>
      <trkpt lat="44.22909" lon="7.05211">
        <ele>2428.8000488281</ele>
        <time>2018-05-09T09:29:47.000Z</time>
      </trkpt>
      <trkpt lat="44.22921" lon="7.05206">
        <ele>2428.8000488281</ele>
        <time>2018-05-09T09:29:54.000Z</time>
      </trkpt>
      <trkpt lat="44.22922" lon="7.05208">
        <ele>2428.8000488281</ele>
        <time>2018-05-09T09:29:55.000Z</time>
      </trkpt>
      <trkpt lat="44.22924" lon="7.05211">
        <ele>2428.8000488281</ele>
        <time>2018-05-09T09:29:56.000Z</time>
      </trkpt>
      <trkpt lat="44.22927" lon="7.05215">
        <ele>2427.6000976562</ele>
        <time>2018-05-09T09:29:57.000Z</time>
      </trkpt>
      <trkpt lat="44.22931" lon="7.05219">
        <ele>2425.6000976562</ele>
        <time>2018-05-09T09:29:58.000Z</time>
      </trkpt>
      <trkpt lat="44.22933" lon="7.05221">
        <ele>2423.8000488281</ele>
        <time>2018-05-09T09:29:59.000Z</time>
      </trkpt>
      <trkpt lat="44.22945" lon="7.05203">
        <ele>2423.1999511719</ele>
        <time>2018-05-09T09:30:04.000Z</time>
      </trkpt>
      <trkpt lat="44.22951" lon="7.05202">
        <ele>2422.8000488281</ele>
        <time>2018-05-09T09:30:05.000Z</time>
      </trkpt>
      <trkpt lat="44.22956" lon="7.05205">
        <ele>2422.1999511719</ele>
        <time>2018-05-09T09:30:06.000Z</time>
      </trkpt>
      <trkpt lat="44.2296" lon="7.05211">
        <ele>2421</ele>
        <time>2018-05-09T09:30:07.000Z</time>
      </trkpt>
      <trkpt lat="44.22964" lon="7.05216">
        <ele>2419</ele>
        <time>2018-05-09T09:30:08.000Z</time>
      </trkpt>
      <trkpt lat="44.22967" lon="7.05219">
        <ele>2416.8000488281</ele>
        <time>2018-05-09T09:30:09.000Z</time>
      </trkpt>
      <trkpt lat="44.22969" lon="7.05219">
        <ele>2414.8000488281</ele>
        <time>2018-05-09T09:30:10.000Z</time>
      </trkpt>
      <trkpt lat="44.22972" lon="7.05216">
        <ele>2413.1999511719</ele>
        <time>2018-05-09T09:30:11.000Z</time>
      </trkpt>
      <trkpt lat="44.22976" lon="7.05212">
        <ele>2411.8000488281</ele>
        <time>2018-05-09T09:30:12.000Z</time>
      </trkpt>
      <trkpt lat="44.22981" lon="7.0521">
        <ele>2410.6000976562</ele>
        <time>2018-05-09T09:30:13.000Z</time>
      </trkpt>
      <trkpt lat="44.22988" lon="7.0521">
        <ele>2408.8000488281</ele>
        <time>2018-05-09T09:30:14.000Z</time>
      </trkpt>
      <trkpt lat="44.22994" lon="7.05212">
        <ele>2407</ele>
        <time>2018-05-09T09:30:15.000Z</time>
      </trkpt>
      <trkpt lat="44.22998" lon="7.05217">
        <ele>2404.8000488281</ele>
        <time>2018-05-09T09:30:16.000Z</time>
      </trkpt>
      <trkpt lat="44.23001" lon="7.05222">
        <ele>2403.3999023438</ele>
        <time>2018-05-09T09:30:17.000Z</time>
      </trkpt>
      <trkpt lat="44.23005" lon="7.05224">
        <ele>2402.1999511719</ele>
        <time>2018-05-09T09:30:18.000Z</time>
      </trkpt>
      <trkpt lat="44.23009" lon="7.05219">
        <ele>2400.6000976562</ele>
        <time>2018-05-09T09:30:20.000Z</time>
      </trkpt>
      <trkpt lat="44.23012" lon="7.05212">
        <ele>2399</ele>
        <time>2018-05-09T09:30:22.000Z</time>
      </trkpt>
      <trkpt lat="44.2302" lon="7.05212">
        <ele>2398</ele>
        <time>2018-05-09T09:30:24.000Z</time>
      </trkpt>
      <trkpt lat="44.23025" lon="7.0522">
        <ele>2396</ele>
        <time>2018-05-09T09:30:26.000Z</time>
      </trkpt>
      <trkpt lat="44.23027" lon="7.05225">
        <ele>2394.6000976562</ele>
        <time>2018-05-09T09:30:27.000Z</time>
      </trkpt>
      <trkpt lat="44.23029" lon="7.05228">
        <ele>2393.6000976562</ele>
        <time>2018-05-09T09:30:28.000Z</time>
      </trkpt>
      <trkpt lat="44.23034" lon="7.05225">
        <ele>2392</ele>
        <time>2018-05-09T09:30:30.000Z</time>
      </trkpt>
      <trkpt lat="44.23038" lon="7.05216">
        <ele>2390.1999511719</ele>
        <time>2018-05-09T09:30:32.000Z</time>
      </trkpt>
      <trkpt lat="44.23046" lon="7.05214">
        <ele>2388.3999023438</ele>
        <time>2018-05-09T09:30:34.000Z</time>
      </trkpt>
      <trkpt lat="44.23048" lon="7.05216">
        <ele>2387.1999511719</ele>
        <time>2018-05-09T09:30:35.000Z</time>
      </trkpt>
      <trkpt lat="44.23048" lon="7.05218">
        <ele>2386</ele>
        <time>2018-05-09T09:30:36.000Z</time>
      </trkpt>
      <trkpt lat="44.23046" lon="7.05219">
        <ele>2384.3999023438</ele>
        <time>2018-05-09T09:30:38.000Z</time>
      </trkpt>
      <trkpt lat="44.23047" lon="7.05219">
        <ele>2383.8000488281</ele>
        <time>2018-05-09T09:30:50.000Z</time>
      </trkpt>
      <trkpt lat="44.2305" lon="7.0522">
        <ele>2384</ele>
        <time>2018-05-09T09:31:01.000Z</time>
      </trkpt>
      <trkpt lat="44.2305" lon="7.05219">
        <ele>2383.8000488281</ele>
        <time>2018-05-09T09:31:03.000Z</time>
      </trkpt>
      <trkpt lat="44.2305" lon="7.05218">
        <ele>2383.6000976562</ele>
        <time>2018-05-09T09:31:06.000Z</time>
      </trkpt>
      <trkpt lat="44.23049" lon="7.0522">
        <ele>2383.6000976562</ele>
        <time>2018-05-09T09:31:08.000Z</time>
      </trkpt>
      <trkpt lat="44.23049" lon="7.0522">
        <ele>2383.6000976562</ele>
        <time>2018-05-09T09:31:09.000Z</time>
      </trkpt>
      <trkpt lat="44.23053" lon="7.05223">
        <ele>2383.3999023438</ele>
        <time>2018-05-09T09:31:14.000Z</time>
      </trkpt>
      <trkpt lat="44.23059" lon="7.05219">
        <ele>2383</ele>
        <time>2018-05-09T09:31:16.000Z</time>
      </trkpt>
      <trkpt lat="44.23066" lon="7.0521">
        <ele>2381.3999023438</ele>
        <time>2018-05-09T09:31:18.000Z</time>
      </trkpt>
      <trkpt lat="44.23072" lon="7.05209">
        <ele>2380.6000976562</ele>
        <time>2018-05-09T09:31:19.000Z</time>
      </trkpt>
      <trkpt lat="44.23078" lon="7.0521">
        <ele>2379.6000976562</ele>
        <time>2018-05-09T09:31:20.000Z</time>
      </trkpt>
      <trkpt lat="44.23083" lon="7.05213">
        <ele>2378.6000976562</ele>
        <time>2018-05-09T09:31:21.000Z</time>
      </trkpt>
      <trkpt lat="44.2309" lon="7.05215">
        <ele>2377.1999511719</ele>
        <time>2018-05-09T09:31:22.000Z</time>
      </trkpt>
      <trkpt lat="44.23096" lon="7.05214">
        <ele>2375.3999023438</ele>
        <time>2018-05-09T09:31:23.000Z</time>
      </trkpt>
      <trkpt lat="44.23099" lon="7.05211">
        <ele>2373.8000488281</ele>
        <time>2018-05-09T09:31:24.000Z</time>
      </trkpt>
      <trkpt lat="44.23102" lon="7.05206">
        <ele>2372.3999023438</ele>
        <time>2018-05-09T09:31:25.000Z</time>
      </trkpt>
      <trkpt lat="44.23106" lon="7.052">
        <ele>2371.1999511719</ele>
        <time>2018-05-09T09:31:26.000Z</time>
      </trkpt>
      <trkpt lat="44.2311" lon="7.05198">
        <ele>2370.1999511719</ele>
        <time>2018-05-09T09:31:27.000Z</time>
      </trkpt>
      <trkpt lat="44.23114" lon="7.052">
        <ele>2368.8000488281</ele>
        <time>2018-05-09T09:31:28.000Z</time>
      </trkpt>
      <trkpt lat="44.23118" lon="7.05202">
        <ele>2367.3999023438</ele>
        <time>2018-05-09T09:31:29.000Z</time>
      </trkpt>
      <trkpt lat="44.23124" lon="7.05202">
        <ele>2366</ele>
        <time>2018-05-09T09:31:30.000Z</time>
      </trkpt>
      <trkpt lat="44.23127" lon="7.05201">
        <ele>2364.8000488281</ele>
        <time>2018-05-09T09:31:31.000Z</time>
      </trkpt>
      <trkpt lat="44.23128" lon="7.05196">
        <ele>2364</ele>
        <time>2018-05-09T09:31:32.000Z</time>
      </trkpt>
      <trkpt lat="44.2313" lon="7.05191">
        <ele>2363</ele>
        <time>2018-05-09T09:31:33.000Z</time>
      </trkpt>
      <trkpt lat="44.23133" lon="7.05188">
        <ele>2362</ele>
        <time>2018-05-09T09:31:34.000Z</time>
      </trkpt>
      <trkpt lat="44.23137" lon="7.05186">
        <ele>2360.6000976562</ele>
        <time>2018-05-09T09:31:35.000Z</time>
      </trkpt>
      <trkpt lat="44.23139" lon="7.05183">
        <ele>2359</ele>
        <time>2018-05-09T09:31:36.000Z</time>
      </trkpt>
      <trkpt lat="44.23141" lon="7.05178">
        <ele>2357.8000488281</ele>
        <time>2018-05-09T09:31:37.000Z</time>
      </trkpt>
      <trkpt lat="44.23144" lon="7.05176">
        <ele>2356.3999023438</ele>
        <time>2018-05-09T09:31:38.000Z</time>
      </trkpt>
      <trkpt lat="44.23148" lon="7.05175">
        <ele>2355</ele>
        <time>2018-05-09T09:31:39.000Z</time>
      </trkpt>
      <trkpt lat="44.23152" lon="7.05177">
        <ele>2353</ele>
        <time>2018-05-09T09:31:40.000Z</time>
      </trkpt>
      <trkpt lat="44.23156" lon="7.05179">
        <ele>2351.1999511719</ele>
        <time>2018-05-09T09:31:41.000Z</time>
      </trkpt>
      <trkpt lat="44.23161" lon="7.05178">
        <ele>2349.6000976562</ele>
        <time>2018-05-09T09:31:42.000Z</time>
      </trkpt>
      <trkpt lat="44.23164" lon="7.05174">
        <ele>2348.6000976562</ele>
        <time>2018-05-09T09:31:43.000Z</time>
      </trkpt>
      <trkpt lat="44.23165" lon="7.05167">
        <ele>2347.3999023438</ele>
        <time>2018-05-09T09:31:44.000Z</time>
      </trkpt>
      <trkpt lat="44.23167" lon="7.05161">
        <ele>2346</ele>
        <time>2018-05-09T09:31:45.000Z</time>
      </trkpt>
      <trkpt lat="44.2317" lon="7.05156">
        <ele>2344.6000976562</ele>
        <time>2018-05-09T09:31:46.000Z</time>
      </trkpt>
      <trkpt lat="44.23174" lon="7.05155">
        <ele>2343</ele>
        <time>2018-05-09T09:31:47.000Z</time>
      </trkpt>
      <trkpt lat="44.2318" lon="7.05159">
        <ele>2341</ele>
        <time>2018-05-09T09:31:48.000Z</time>
      </trkpt>
      <trkpt lat="44.23186" lon="7.05162">
        <ele>2339</ele>
        <time>2018-05-09T09:31:49.000Z</time>
      </trkpt>
      <trkpt lat="44.23191" lon="7.05163">
        <ele>2337</ele>
        <time>2018-05-09T09:31:50.000Z</time>
      </trkpt>
      <trkpt lat="44.23194" lon="7.05158">
        <ele>2335.3999023438</ele>
        <time>2018-05-09T09:31:51.000Z</time>
      </trkpt>
      <trkpt lat="44.23196" lon="7.05151">
        <ele>2334</ele>
        <time>2018-05-09T09:31:52.000Z</time>
      </trkpt>
      <trkpt lat="44.23199" lon="7.05145">
        <ele>2332.6000976562</ele>
        <time>2018-05-09T09:31:53.000Z</time>
      </trkpt>
      <trkpt lat="44.23203" lon="7.05141">
        <ele>2331.1999511719</ele>
        <time>2018-05-09T09:31:54.000Z</time>
      </trkpt>
      <trkpt lat="44.23209" lon="7.05138">
        <ele>2329.6000976562</ele>
        <time>2018-05-09T09:31:55.000Z</time>
      </trkpt>
      <trkpt lat="44.23217" lon="7.0514">
        <ele>2327.3999023438</ele>
        <time>2018-05-09T09:31:56.000Z</time>
      </trkpt>
      <trkpt lat="44.23225" lon="7.05144">
        <ele>2325.3999023438</ele>
        <time>2018-05-09T09:31:57.000Z</time>
      </trkpt>
      <trkpt lat="44.23233" lon="7.05147">
        <ele>2323</ele>
        <time>2018-05-09T09:31:58.000Z</time>
      </trkpt>
      <trkpt lat="44.23241" lon="7.05153">
        <ele>2320.8000488281</ele>
        <time>2018-05-09T09:31:59.000Z</time>
      </trkpt>
      <trkpt lat="44.23247" lon="7.05157">
        <ele>2318.1999511719</ele>
        <time>2018-05-09T09:32:00.000Z</time>
      </trkpt>
      <trkpt lat="44.23253" lon="7.05159">
        <ele>2315.8000488281</ele>
        <time>2018-05-09T09:32:01.000Z</time>
      </trkpt>
      <trkpt lat="44.23258" lon="7.05156">
        <ele>2313.8000488281</ele>
        <time>2018-05-09T09:32:02.000Z</time>
      </trkpt>
      <trkpt lat="44.23262" lon="7.05149">
        <ele>2312.3999023438</ele>
        <time>2018-05-09T09:32:03.000Z</time>
      </trkpt>
      <trkpt lat="44.23266" lon="7.05142">
        <ele>2311.1999511719</ele>
        <time>2018-05-09T09:32:04.000Z</time>
      </trkpt>
      <trkpt lat="44.23271" lon="7.05135">
        <ele>2309.8000488281</ele>
        <time>2018-05-09T09:32:05.000Z</time>
      </trkpt>
      <trkpt lat="44.23277" lon="7.05132">
        <ele>2308.3999023438</ele>
        <time>2018-05-09T09:32:06.000Z</time>
      </trkpt>
      <trkpt lat="44.23283" lon="7.05134">
        <ele>2307</ele>
        <time>2018-05-09T09:32:07.000Z</time>
      </trkpt>
      <trkpt lat="44.23287" lon="7.05137">
        <ele>2305.8000488281</ele>
        <time>2018-05-09T09:32:08.000Z</time>
      </trkpt>
      <trkpt lat="44.23292" lon="7.05141">
        <ele>2304.3999023438</ele>
        <time>2018-05-09T09:32:09.000Z</time>
      </trkpt>
      <trkpt lat="44.23296" lon="7.05144">
        <ele>2303.1999511719</ele>
        <time>2018-05-09T09:32:10.000Z</time>
      </trkpt>
      <trkpt lat="44.23301" lon="7.05147">
        <ele>2302.1999511719</ele>
        <time>2018-05-09T09:32:11.000Z</time>
      </trkpt>
      <trkpt lat="44.23312" lon="7.05155">
        <ele>2301</ele>
        <time>2018-05-09T09:32:13.000Z</time>
      </trkpt>
      <trkpt lat="44.23319" lon="7.05157">
        <ele>2300.1999511719</ele>
        <time>2018-05-09T09:32:14.000Z</time>
      </trkpt>
      <trkpt lat="44.23326" lon="7.05155">
        <ele>2298.8000488281</ele>
        <time>2018-05-09T09:32:15.000Z</time>
      </trkpt>
      <trkpt lat="44.23332" lon="7.05151">
        <ele>2297.1999511719</ele>
        <time>2018-05-09T09:32:16.000Z</time>
      </trkpt>
      <trkpt lat="44.23338" lon="7.05147">
        <ele>2295.1999511719</ele>
        <time>2018-05-09T09:32:17.000Z</time>
      </trkpt>
      <trkpt lat="44.23344" lon="7.05146">
        <ele>2293.3999023438</ele>
        <time>2018-05-09T09:32:18.000Z</time>
      </trkpt>
      <trkpt lat="44.2335" lon="7.05149">
        <ele>2291.3999023438</ele>
        <time>2018-05-09T09:32:19.000Z</time>
      </trkpt>
      <trkpt lat="44.23354" lon="7.05154">
        <ele>2289.6000976562</ele>
        <time>2018-05-09T09:32:20.000Z</time>
      </trkpt>
      <trkpt lat="44.23356" lon="7.05159">
        <ele>2288.1999511719</ele>
        <time>2018-05-09T09:32:21.000Z</time>
      </trkpt>
      <trkpt lat="44.23356" lon="7.05161">
        <ele>2286.8000488281</ele>
        <time>2018-05-09T09:32:22.000Z</time>
      </trkpt>
      <trkpt lat="44.23356" lon="7.05162">
        <ele>2285.8000488281</ele>
        <time>2018-05-09T09:32:23.000Z</time>
      </trkpt>
      <trkpt lat="44.23355" lon="7.05162">
        <ele>2284.8000488281</ele>
        <time>2018-05-09T09:32:25.000Z</time>
      </trkpt>
      <trkpt lat="44.23354" lon="7.05161">
        <ele>2284.3999023438</ele>
        <time>2018-05-09T09:32:30.000Z</time>
      </trkpt>
      <trkpt lat="44.23349" lon="7.05166">
        <ele>2284.6000976562</ele>
        <time>2018-05-09T09:32:41.000Z</time>
      </trkpt>
      <trkpt lat="44.23351" lon="7.0516">
        <ele>2284.1999511719</ele>
        <time>2018-05-09T09:32:58.000Z</time>
      </trkpt>
      <trkpt lat="44.23352" lon="7.05159">
        <ele>2284.3999023438</ele>
        <time>2018-05-09T09:33:03.000Z</time>
      </trkpt>
      <trkpt lat="44.23358" lon="7.05155">
        <ele>2284.6000976562</ele>
        <time>2018-05-09T09:33:12.000Z</time>
      </trkpt>
      <trkpt lat="44.23362" lon="7.05153">
        <ele>2284.3999023438</ele>
        <time>2018-05-09T09:33:13.000Z</time>
      </trkpt>
      <trkpt lat="44.23379" lon="7.0515">
        <ele>2283.1999511719</ele>
        <time>2018-05-09T09:33:16.000Z</time>
      </trkpt>
      <trkpt lat="44.2339" lon="7.05152">
        <ele>2281.6000976562</ele>
        <time>2018-05-09T09:33:18.000Z</time>
      </trkpt>
      <trkpt lat="44.23395" lon="7.05154">
        <ele>2280.6000976562</ele>
        <time>2018-05-09T09:33:19.000Z</time>
      </trkpt>
      <trkpt lat="44.234" lon="7.05155">
        <ele>2279.6000976562</ele>
        <time>2018-05-09T09:33:20.000Z</time>
      </trkpt>
      <trkpt lat="44.2341" lon="7.05158">
        <ele>2278</ele>
        <time>2018-05-09T09:33:22.000Z</time>
      </trkpt>
      <trkpt lat="44.2342" lon="7.0516">
        <ele>2276.3999023438</ele>
        <time>2018-05-09T09:33:24.000Z</time>
      </trkpt>
      <trkpt lat="44.23431" lon="7.05162">
        <ele>2274.8000488281</ele>
        <time>2018-05-09T09:33:26.000Z</time>
      </trkpt>
      <trkpt lat="44.23441" lon="7.05164">
        <ele>2273.1999511719</ele>
        <time>2018-05-09T09:33:28.000Z</time>
      </trkpt>
      <trkpt lat="44.23446" lon="7.05165">
        <ele>2272.3999023438</ele>
        <time>2018-05-09T09:33:29.000Z</time>
      </trkpt>
      <trkpt lat="44.23453" lon="7.05166">
        <ele>2271.1999511719</ele>
        <time>2018-05-09T09:33:30.000Z</time>
      </trkpt>
      <trkpt lat="44.23459" lon="7.05167">
        <ele>2270.1999511719</ele>
        <time>2018-05-09T09:33:31.000Z</time>
      </trkpt>
      <trkpt lat="44.23465" lon="7.05169">
        <ele>2268.8000488281</ele>
        <time>2018-05-09T09:33:32.000Z</time>
      </trkpt>
      <trkpt lat="44.23471" lon="7.05171">
        <ele>2267.6000976562</ele>
        <time>2018-05-09T09:33:33.000Z</time>
      </trkpt>
      <trkpt lat="44.23477" lon="7.05171">
        <ele>2266.1999511719</ele>
        <time>2018-05-09T09:33:34.000Z</time>
      </trkpt>
      <trkpt lat="44.23483" lon="7.05172">
        <ele>2265</ele>
        <time>2018-05-09T09:33:35.000Z</time>
      </trkpt>
      <trkpt lat="44.23489" lon="7.05172">
        <ele>2263.8000488281</ele>
        <time>2018-05-09T09:33:36.000Z</time>
      </trkpt>
      <trkpt lat="44.23494" lon="7.05173">
        <ele>2262.8000488281</ele>
        <time>2018-05-09T09:33:37.000Z</time>
      </trkpt>
      <trkpt lat="44.235" lon="7.05173">
        <ele>2261.6000976562</ele>
        <time>2018-05-09T09:33:38.000Z</time>
      </trkpt>
      <trkpt lat="44.23507" lon="7.05171">
        <ele>2260.3999023438</ele>
        <time>2018-05-09T09:33:39.000Z</time>
      </trkpt>
      <trkpt lat="44.23514" lon="7.05168">
        <ele>2259.3999023438</ele>
        <time>2018-05-09T09:33:40.000Z</time>
      </trkpt>
      <trkpt lat="44.23521" lon="7.05165">
        <ele>2258.1999511719</ele>
        <time>2018-05-09T09:33:41.000Z</time>
      </trkpt>
      <trkpt lat="44.23529" lon="7.05164">
        <ele>2257</ele>
        <time>2018-05-09T09:33:42.000Z</time>
      </trkpt>
      <trkpt lat="44.23536" lon="7.05163">
        <ele>2256</ele>
        <time>2018-05-09T09:33:43.000Z</time>
      </trkpt>
      <trkpt lat="44.23543" lon="7.05163">
        <ele>2255</ele>
        <time>2018-05-09T09:33:44.000Z</time>
      </trkpt>
      <trkpt lat="44.23551" lon="7.05162">
        <ele>2254</ele>
        <time>2018-05-09T09:33:45.000Z</time>
      </trkpt>
      <trkpt lat="44.23558" lon="7.05162">
        <ele>2252.8000488281</ele>
        <time>2018-05-09T09:33:46.000Z</time>
      </trkpt>
      <trkpt lat="44.23565" lon="7.0516">
        <ele>2251.3999023438</ele>
        <time>2018-05-09T09:33:47.000Z</time>
      </trkpt>
      <trkpt lat="44.23571" lon="7.0516">
        <ele>2250.3999023438</ele>
        <time>2018-05-09T09:33:48.000Z</time>
      </trkpt>
      <trkpt lat="44.23585" lon="7.05158">
        <ele>2248.6000976562</ele>
        <time>2018-05-09T09:33:50.000Z</time>
      </trkpt>
      <trkpt lat="44.23592" lon="7.05155">
        <ele>2247.3999023438</ele>
        <time>2018-05-09T09:33:51.000Z</time>
      </trkpt>
      <trkpt lat="44.23605" lon="7.0515">
        <ele>2245.3999023438</ele>
        <time>2018-05-09T09:33:53.000Z</time>
      </trkpt>
      <trkpt lat="44.23619" lon="7.05147">
        <ele>2243.1999511719</ele>
        <time>2018-05-09T09:33:55.000Z</time>
      </trkpt>
      <trkpt lat="44.23625" lon="7.05146">
        <ele>2242.1999511719</ele>
        <time>2018-05-09T09:33:56.000Z</time>
      </trkpt>
      <trkpt lat="44.2363" lon="7.05145">
        <ele>2241</ele>
        <time>2018-05-09T09:33:57.000Z</time>
      </trkpt>
      <trkpt lat="44.23636" lon="7.05144">
        <ele>2240</ele>
        <time>2018-05-09T09:33:58.000Z</time>
      </trkpt>
      <trkpt lat="44.23646" lon="7.0514">
        <ele>2238.1999511719</ele>
        <time>2018-05-09T09:34:00.000Z</time>
      </trkpt>
      <trkpt lat="44.23655" lon="7.05138">
        <ele>2236.6000976562</ele>
        <time>2018-05-09T09:34:02.000Z</time>
      </trkpt>
      <trkpt lat="44.23664" lon="7.05135">
        <ele>2235.1999511719</ele>
        <time>2018-05-09T09:34:04.000Z</time>
      </trkpt>
      <trkpt lat="44.23674" lon="7.05132">
        <ele>2233.8000488281</ele>
        <time>2018-05-09T09:34:06.000Z</time>
      </trkpt>
      <trkpt lat="44.23684" lon="7.05129">
        <ele>2232.6000976562</ele>
        <time>2018-05-09T09:34:08.000Z</time>
      </trkpt>
      <trkpt lat="44.23689" lon="7.05128">
        <ele>2232.1999511719</ele>
        <time>2018-05-09T09:34:09.000Z</time>
      </trkpt>
      <trkpt lat="44.23695" lon="7.05126">
        <ele>2231.6000976562</ele>
        <time>2018-05-09T09:34:10.000Z</time>
      </trkpt>
      <trkpt lat="44.237" lon="7.05125">
        <ele>2231</ele>
        <time>2018-05-09T09:34:11.000Z</time>
      </trkpt>
      <trkpt lat="44.23711" lon="7.0512">
        <ele>2229.6000976562</ele>
        <time>2018-05-09T09:34:13.000Z</time>
      </trkpt>
      <trkpt lat="44.23722" lon="7.05113">
        <ele>2228.1999511719</ele>
        <time>2018-05-09T09:34:15.000Z</time>
      </trkpt>
      <trkpt lat="44.23732" lon="7.05105">
        <ele>2226.6000976562</ele>
        <time>2018-05-09T09:34:17.000Z</time>
      </trkpt>
      <trkpt lat="44.23742" lon="7.05096">
        <ele>2225</ele>
        <time>2018-05-09T09:34:19.000Z</time>
      </trkpt>
      <trkpt lat="44.2375" lon="7.05088">
        <ele>2223.1999511719</ele>
        <time>2018-05-09T09:34:21.000Z</time>
      </trkpt>
      <trkpt lat="44.23757" lon="7.0508">
        <ele>2221.6000976562</ele>
        <time>2018-05-09T09:34:23.000Z</time>
      </trkpt>
      <trkpt lat="44.23764" lon="7.05073">
        <ele>2220</ele>
        <time>2018-05-09T09:34:25.000Z</time>
      </trkpt>
      <trkpt lat="44.23771" lon="7.05069">
        <ele>2218.3999023438</ele>
        <time>2018-05-09T09:34:27.000Z</time>
      </trkpt>
      <trkpt lat="44.23774" lon="7.05067">
        <ele>2217.6000976562</ele>
        <time>2018-05-09T09:34:28.000Z</time>
      </trkpt>
      <trkpt lat="44.23777" lon="7.05065">
        <ele>2217</ele>
        <time>2018-05-09T09:34:29.000Z</time>
      </trkpt>
      <trkpt lat="44.23784" lon="7.05061">
        <ele>2215.8000488281</ele>
        <time>2018-05-09T09:34:31.000Z</time>
      </trkpt>
      <trkpt lat="44.23792" lon="7.05068">
        <ele>2214.3999023438</ele>
        <time>2018-05-09T09:34:34.000Z</time>
      </trkpt>
      <trkpt lat="44.23793" lon="7.05068">
        <ele>2214</ele>
        <time>2018-05-09T09:34:35.000Z</time>
      </trkpt>
      <trkpt lat="44.23791" lon="7.05068">
        <ele>2213.1999511719</ele>
        <time>2018-05-09T09:34:38.000Z</time>
      </trkpt>
      <trkpt lat="44.2379" lon="7.05068">
        <ele>2213</ele>
        <time>2018-05-09T09:34:40.000Z</time>
      </trkpt>
      <trkpt lat="44.23791" lon="7.05068">
        <ele>2213</ele>
        <time>2018-05-09T09:34:50.000Z</time>
      </trkpt>
      <trkpt lat="44.23792" lon="7.05069">
        <ele>2213</ele>
        <time>2018-05-09T09:34:55.000Z</time>
      </trkpt>
      <trkpt lat="44.23789" lon="7.05068">
        <ele>2212.6000976562</ele>
        <time>2018-05-09T09:35:02.000Z</time>
      </trkpt>
      <trkpt lat="44.23789" lon="7.05069">
        <ele>2212.8000488281</ele>
        <time>2018-05-09T09:35:09.000Z</time>
      </trkpt>
      <trkpt lat="44.23789" lon="7.05069">
        <ele>2212.8000488281</ele>
        <time>2018-05-09T09:35:10.000Z</time>
      </trkpt>
      <trkpt lat="44.23789" lon="7.05069">
        <ele>2212.8000488281</ele>
        <time>2018-05-09T09:35:11.000Z</time>
      </trkpt>
      <trkpt lat="44.23789" lon="7.0507">
        <ele>2213</ele>
        <time>2018-05-09T09:35:18.000Z</time>
      </trkpt>
      <trkpt lat="44.23789" lon="7.05071">
        <ele>2213</ele>
        <time>2018-05-09T09:35:22.000Z</time>
      </trkpt>
      <trkpt lat="44.23791" lon="7.05071">
        <ele>2213</ele>
        <time>2018-05-09T09:35:26.000Z</time>
      </trkpt>
      <trkpt lat="44.23796" lon="7.05062">
        <ele>2213</ele>
        <time>2018-05-09T09:35:40.000Z</time>
      </trkpt>
      <trkpt lat="44.23795" lon="7.05062">
        <ele>2213</ele>
        <time>2018-05-09T09:35:42.000Z</time>
      </trkpt>
      <trkpt lat="44.23793" lon="7.0506">
        <ele>2212.8000488281</ele>
        <time>2018-05-09T09:35:44.000Z</time>
      </trkpt>
      <trkpt lat="44.23797" lon="7.0506">
        <ele>2212.6000976562</ele>
        <time>2018-05-09T09:35:55.000Z</time>
      </trkpt>
      <trkpt lat="44.23798" lon="7.05061">
        <ele>2212</ele>
        <time>2018-05-09T09:36:01.000Z</time>
      </trkpt>
      <trkpt lat="44.238" lon="7.0506">
        <ele>2212.1999511719</ele>
        <time>2018-05-09T09:36:02.000Z</time>
      </trkpt>
      <trkpt lat="44.23802" lon="7.0506">
        <ele>2212.1999511719</ele>
        <time>2018-05-09T09:36:03.000Z</time>
      </trkpt>
      <trkpt lat="44.23805" lon="7.0506">
        <ele>2212</ele>
        <time>2018-05-09T09:36:04.000Z</time>
      </trkpt>
      <trkpt lat="44.23823" lon="7.05057">
        <ele>2210.8000488281</ele>
        <time>2018-05-09T09:36:08.000Z</time>
      </trkpt>
      <trkpt lat="44.23835" lon="7.05055">
        <ele>2209.6000976562</ele>
        <time>2018-05-09T09:36:10.000Z</time>
      </trkpt>
      <trkpt lat="44.23847" lon="7.05053">
        <ele>2208</ele>
        <time>2018-05-09T09:36:12.000Z</time>
      </trkpt>
      <trkpt lat="44.23853" lon="7.05052">
        <ele>2207</ele>
        <time>2018-05-09T09:36:13.000Z</time>
      </trkpt>
      <trkpt lat="44.23859" lon="7.05051">
        <ele>2205.8000488281</ele>
        <time>2018-05-09T09:36:14.000Z</time>
      </trkpt>
      <trkpt lat="44.23864" lon="7.0505">
        <ele>2205</ele>
        <time>2018-05-09T09:36:15.000Z</time>
      </trkpt>
      <trkpt lat="44.23869" lon="7.05049">
        <ele>2204</ele>
        <time>2018-05-09T09:36:16.000Z</time>
      </trkpt>
      <trkpt lat="44.23879" lon="7.05046">
        <ele>2202.1999511719</ele>
        <time>2018-05-09T09:36:18.000Z</time>
      </trkpt>
      <trkpt lat="44.2389" lon="7.05045">
        <ele>2200.3999023438</ele>
        <time>2018-05-09T09:36:20.000Z</time>
      </trkpt>
      <trkpt lat="44.23901" lon="7.05042">
        <ele>2198.6000976562</ele>
        <time>2018-05-09T09:36:22.000Z</time>
      </trkpt>
      <trkpt lat="44.23907" lon="7.0504">
        <ele>2197.6000976562</ele>
        <time>2018-05-09T09:36:23.000Z</time>
      </trkpt>
      <trkpt lat="44.23912" lon="7.05038">
        <ele>2196.6000976562</ele>
        <time>2018-05-09T09:36:24.000Z</time>
      </trkpt>
      <trkpt lat="44.23918" lon="7.05036">
        <ele>2195.3999023438</ele>
        <time>2018-05-09T09:36:25.000Z</time>
      </trkpt>
      <trkpt lat="44.23923" lon="7.05034">
        <ele>2194.1999511719</ele>
        <time>2018-05-09T09:36:26.000Z</time>
      </trkpt>
      <trkpt lat="44.23929" lon="7.05033">
        <ele>2192.8000488281</ele>
        <time>2018-05-09T09:36:27.000Z</time>
      </trkpt>
      <trkpt lat="44.23934" lon="7.05032">
        <ele>2191.8000488281</ele>
        <time>2018-05-09T09:36:28.000Z</time>
      </trkpt>
      <trkpt lat="44.2394" lon="7.0503">
        <ele>2190.8000488281</ele>
        <time>2018-05-09T09:36:29.000Z</time>
      </trkpt>
      <trkpt lat="44.23946" lon="7.05027">
        <ele>2189.8000488281</ele>
        <time>2018-05-09T09:36:30.000Z</time>
      </trkpt>
      <trkpt lat="44.2395" lon="7.05024">
        <ele>2188.6000976562</ele>
        <time>2018-05-09T09:36:31.000Z</time>
      </trkpt>
      <trkpt lat="44.23955" lon="7.05022">
        <ele>2187.6000976562</ele>
        <time>2018-05-09T09:36:32.000Z</time>
      </trkpt>
      <trkpt lat="44.23958" lon="7.05021">
        <ele>2186.3999023438</ele>
        <time>2018-05-09T09:36:33.000Z</time>
      </trkpt>
      <trkpt lat="44.23961" lon="7.05018">
        <ele>2185</ele>
        <time>2018-05-09T09:36:35.000Z</time>
      </trkpt>
      <trkpt lat="44.23962" lon="7.05017">
        <ele>2184.6000976562</ele>
        <time>2018-05-09T09:36:36.000Z</time>
      </trkpt>
      <trkpt lat="44.23965" lon="7.05013">
        <ele>2184.1999511719</ele>
        <time>2018-05-09T09:36:38.000Z</time>
      </trkpt>
      <trkpt lat="44.23967" lon="7.05013">
        <ele>2184.1999511719</ele>
        <time>2018-05-09T09:36:39.000Z</time>
      </trkpt>
      <trkpt lat="44.23977" lon="7.05012">
        <ele>2183.8000488281</ele>
        <time>2018-05-09T09:36:42.000Z</time>
      </trkpt>
      <trkpt lat="44.23988" lon="7.05009">
        <ele>2183.1999511719</ele>
        <time>2018-05-09T09:36:44.000Z</time>
      </trkpt>
      <trkpt lat="44.23993" lon="7.05006">
        <ele>2182.6000976562</ele>
        <time>2018-05-09T09:36:45.000Z</time>
      </trkpt>
      <trkpt lat="44.24004" lon="7.05002">
        <ele>2181</ele>
        <time>2018-05-09T09:36:47.000Z</time>
      </trkpt>
      <trkpt lat="44.24013" lon="7.04997">
        <ele>2179.6000976562</ele>
        <time>2018-05-09T09:36:49.000Z</time>
      </trkpt>
      <trkpt lat="44.24017" lon="7.04996">
        <ele>2179</ele>
        <time>2018-05-09T09:36:50.000Z</time>
      </trkpt>
      <trkpt lat="44.24021" lon="7.04995">
        <ele>2178.1999511719</ele>
        <time>2018-05-09T09:36:51.000Z</time>
      </trkpt>
      <trkpt lat="44.24028" lon="7.04994">
        <ele>2177.1999511719</ele>
        <time>2018-05-09T09:36:53.000Z</time>
      </trkpt>
      <trkpt lat="44.24037" lon="7.04989">
        <ele>2175.8000488281</ele>
        <time>2018-05-09T09:36:56.000Z</time>
      </trkpt>
      <trkpt lat="44.24043" lon="7.04987">
        <ele>2174.8000488281</ele>
        <time>2018-05-09T09:36:58.000Z</time>
      </trkpt>
      <trkpt lat="44.24044" lon="7.04988">
        <ele>2173.8000488281</ele>
        <time>2018-05-09T09:37:01.000Z</time>
      </trkpt>
      <trkpt lat="44.2404" lon="7.04988">
        <ele>2173</ele>
        <time>2018-05-09T09:37:16.000Z</time>
      </trkpt>
      <trkpt lat="44.2404" lon="7.04989">
        <ele>2173.3999023438</ele>
        <time>2018-05-09T09:37:25.000Z</time>
      </trkpt>
      <trkpt lat="44.2404" lon="7.0499">
        <ele>2173.1999511719</ele>
        <time>2018-05-09T09:37:31.000Z</time>
      </trkpt>
      <trkpt lat="44.2404" lon="7.0499">
        <ele>2172.8000488281</ele>
        <time>2018-05-09T09:37:42.000Z</time>
      </trkpt>
      <trkpt lat="44.24039" lon="7.0499">
        <ele>2172.8000488281</ele>
        <time>2018-05-09T09:37:43.000Z</time>
      </trkpt>
      <trkpt lat="44.24039" lon="7.0499">
        <ele>2172.8000488281</ele>
        <time>2018-05-09T09:37:44.000Z</time>
      </trkpt>
      <trkpt lat="44.2404" lon="7.0499">
        <ele>2172.8000488281</ele>
        <time>2018-05-09T09:37:47.000Z</time>
      </trkpt>
      <trkpt lat="44.2405" lon="7.04987">
        <ele>2172.8000488281</ele>
        <time>2018-05-09T09:37:54.000Z</time>
      </trkpt>
      <trkpt lat="44.2406" lon="7.04985">
        <ele>2172.1999511719</ele>
        <time>2018-05-09T09:37:56.000Z</time>
      </trkpt>
      <trkpt lat="44.24065" lon="7.04982">
        <ele>2171.8000488281</ele>
        <time>2018-05-09T09:37:57.000Z</time>
      </trkpt>
      <trkpt lat="44.24069" lon="7.04979">
        <ele>2171</ele>
        <time>2018-05-09T09:37:58.000Z</time>
      </trkpt>
      <trkpt lat="44.24074" lon="7.04978">
        <ele>2170</ele>
        <time>2018-05-09T09:37:59.000Z</time>
      </trkpt>
      <trkpt lat="44.2408" lon="7.04977">
        <ele>2168.8000488281</ele>
        <time>2018-05-09T09:38:00.000Z</time>
      </trkpt>
      <trkpt lat="44.24085" lon="7.04978">
        <ele>2167.3999023438</ele>
        <time>2018-05-09T09:38:01.000Z</time>
      </trkpt>
      <trkpt lat="44.24089" lon="7.04978">
        <ele>2166</ele>
        <time>2018-05-09T09:38:02.000Z</time>
      </trkpt>
      <trkpt lat="44.24093" lon="7.04978">
        <ele>2165.1999511719</ele>
        <time>2018-05-09T09:38:03.000Z</time>
      </trkpt>
      <trkpt lat="44.24097" lon="7.04977">
        <ele>2164.1999511719</ele>
        <time>2018-05-09T09:38:04.000Z</time>
      </trkpt>
      <trkpt lat="44.241" lon="7.04972">
        <ele>2163.3999023438</ele>
        <time>2018-05-09T09:38:05.000Z</time>
      </trkpt>
      <trkpt lat="44.24103" lon="7.04967">
        <ele>2162.3999023438</ele>
        <time>2018-05-09T09:38:06.000Z</time>
      </trkpt>
      <trkpt lat="44.24107" lon="7.04965">
        <ele>2161.6000976562</ele>
        <time>2018-05-09T09:38:07.000Z</time>
      </trkpt>
      <trkpt lat="44.24111" lon="7.04965">
        <ele>2160.3999023438</ele>
        <time>2018-05-09T09:38:08.000Z</time>
      </trkpt>
      <trkpt lat="44.24113" lon="7.04967">
        <ele>2159.1999511719</ele>
        <time>2018-05-09T09:38:09.000Z</time>
      </trkpt>
      <trkpt lat="44.24115" lon="7.04969">
        <ele>2157.8000488281</ele>
        <time>2018-05-09T09:38:10.000Z</time>
      </trkpt>
      <trkpt lat="44.2412" lon="7.04974">
        <ele>2156.1999511719</ele>
        <time>2018-05-09T09:38:12.000Z</time>
      </trkpt>
      <trkpt lat="44.24127" lon="7.04979">
        <ele>2154.8000488281</ele>
        <time>2018-05-09T09:38:14.000Z</time>
      </trkpt>
      <trkpt lat="44.2413" lon="7.04979">
        <ele>2154</ele>
        <time>2018-05-09T09:38:15.000Z</time>
      </trkpt>
      <trkpt lat="44.24132" lon="7.04976">
        <ele>2152.8000488281</ele>
        <time>2018-05-09T09:38:16.000Z</time>
      </trkpt>
      <trkpt lat="44.24134" lon="7.04972">
        <ele>2151.6000976562</ele>
        <time>2018-05-09T09:38:17.000Z</time>
      </trkpt>
      <trkpt lat="44.24137" lon="7.04969">
        <ele>2150.1999511719</ele>
        <time>2018-05-09T09:38:18.000Z</time>
      </trkpt>
      <trkpt lat="44.24142" lon="7.04969">
        <ele>2148.6000976562</ele>
        <time>2018-05-09T09:38:19.000Z</time>
      </trkpt>
      <trkpt lat="44.24146" lon="7.04973">
        <ele>2147</ele>
        <time>2018-05-09T09:38:20.000Z</time>
      </trkpt>
      <trkpt lat="44.24151" lon="7.04976">
        <ele>2145.1999511719</ele>
        <time>2018-05-09T09:38:21.000Z</time>
      </trkpt>
      <trkpt lat="44.24155" lon="7.04978">
        <ele>2143.6000976562</ele>
        <time>2018-05-09T09:38:22.000Z</time>
      </trkpt>
      <trkpt lat="44.24157" lon="7.04979">
        <ele>2142.1999511719</ele>
        <time>2018-05-09T09:38:23.000Z</time>
      </trkpt>
      <trkpt lat="44.2416" lon="7.04977">
        <ele>2140.8000488281</ele>
        <time>2018-05-09T09:38:24.000Z</time>
      </trkpt>
      <trkpt lat="44.24162" lon="7.04972">
        <ele>2139.6000976562</ele>
        <time>2018-05-09T09:38:25.000Z</time>
      </trkpt>
      <trkpt lat="44.24166" lon="7.04969">
        <ele>2138.6000976562</ele>
        <time>2018-05-09T09:38:26.000Z</time>
      </trkpt>
      <trkpt lat="44.24171" lon="7.04969">
        <ele>2137.3999023438</ele>
        <time>2018-05-09T09:38:27.000Z</time>
      </trkpt>
      <trkpt lat="44.24176" lon="7.04971">
        <ele>2135.8000488281</ele>
        <time>2018-05-09T09:38:28.000Z</time>
      </trkpt>
      <trkpt lat="44.24182" lon="7.04974">
        <ele>2134.1999511719</ele>
        <time>2018-05-09T09:38:29.000Z</time>
      </trkpt>
      <trkpt lat="44.24187" lon="7.04978">
        <ele>2133</ele>
        <time>2018-05-09T09:38:30.000Z</time>
      </trkpt>
      <trkpt lat="44.24192" lon="7.04982">
        <ele>2131.6000976562</ele>
        <time>2018-05-09T09:38:31.000Z</time>
      </trkpt>
      <trkpt lat="44.24195" lon="7.04984">
        <ele>2130</ele>
        <time>2018-05-09T09:38:32.000Z</time>
      </trkpt>
      <trkpt lat="44.24195" lon="7.04985">
        <ele>2128.1999511719</ele>
        <time>2018-05-09T09:38:33.000Z</time>
      </trkpt>
      <trkpt lat="44.24194" lon="7.04986">
        <ele>2126.8000488281</ele>
        <time>2018-05-09T09:38:34.000Z</time>
      </trkpt>
      <trkpt lat="44.24194" lon="7.04986">
        <ele>2125.1999511719</ele>
        <time>2018-05-09T09:38:36.000Z</time>
      </trkpt>
      <trkpt lat="44.24198" lon="7.05002">
        <ele>2124.3999023438</ele>
        <time>2018-05-09T09:38:55.000Z</time>
      </trkpt>
      <trkpt lat="44.24195" lon="7.04998">
        <ele>2124.3999023438</ele>
        <time>2018-05-09T09:39:05.000Z</time>
      </trkpt>
      <trkpt lat="44.24193" lon="7.04998">
        <ele>2124.3999023438</ele>
        <time>2018-05-09T09:39:08.000Z</time>
      </trkpt>
      <trkpt lat="44.24193" lon="7.04997">
        <ele>2124.3999023438</ele>
        <time>2018-05-09T09:39:10.000Z</time>
      </trkpt>
      <trkpt lat="44.24195" lon="7.05002">
        <ele>2124.6000976562</ele>
        <time>2018-05-09T09:39:22.000Z</time>
      </trkpt>
      <trkpt lat="44.24196" lon="7.0499">
        <ele>2124</ele>
        <time>2018-05-09T09:39:27.000Z</time>
      </trkpt>
      <trkpt lat="44.24204" lon="7.04987">
        <ele>2122</ele>
        <time>2018-05-09T09:39:29.000Z</time>
      </trkpt>
      <trkpt lat="44.24208" lon="7.04989">
        <ele>2120.3999023438</ele>
        <time>2018-05-09T09:39:30.000Z</time>
      </trkpt>
      <trkpt lat="44.2421" lon="7.04985">
        <ele>2118.3999023438</ele>
        <time>2018-05-09T09:39:31.000Z</time>
      </trkpt>
      <trkpt lat="44.24213" lon="7.04978">
        <ele>2116.3999023438</ele>
        <time>2018-05-09T09:39:32.000Z</time>
      </trkpt>
      <trkpt lat="44.24216" lon="7.04974">
        <ele>2114.3999023438</ele>
        <time>2018-05-09T09:39:33.000Z</time>
      </trkpt>
      <trkpt lat="44.24221" lon="7.04972">
        <ele>2112.3999023438</ele>
        <time>2018-05-09T09:39:34.000Z</time>
      </trkpt>
      <trkpt lat="44.24226" lon="7.04971">
        <ele>2110.3999023438</ele>
        <time>2018-05-09T09:39:35.000Z</time>
      </trkpt>
      <trkpt lat="44.24232" lon="7.04971">
        <ele>2108.1999511719</ele>
        <time>2018-05-09T09:39:36.000Z</time>
      </trkpt>
      <trkpt lat="44.24236" lon="7.0497">
        <ele>2105.8000488281</ele>
        <time>2018-05-09T09:39:37.000Z</time>
      </trkpt>
      <trkpt lat="44.24239" lon="7.04966">
        <ele>2103.3999023438</ele>
        <time>2018-05-09T09:39:38.000Z</time>
      </trkpt>
      <trkpt lat="44.24243" lon="7.04963">
        <ele>2101.3999023438</ele>
        <time>2018-05-09T09:39:39.000Z</time>
      </trkpt>
      <trkpt lat="44.24248" lon="7.0496">
        <ele>2099.3999023438</ele>
        <time>2018-05-09T09:39:40.000Z</time>
      </trkpt>
      <trkpt lat="44.24254" lon="7.04959">
        <ele>2097.1999511719</ele>
        <time>2018-05-09T09:39:41.000Z</time>
      </trkpt>
      <trkpt lat="44.24258" lon="7.04967">
        <ele>2095.1999511719</ele>
        <time>2018-05-09T09:39:42.000Z</time>
      </trkpt>
      <trkpt lat="44.24261" lon="7.04967">
        <ele>2093</ele>
        <time>2018-05-09T09:39:43.000Z</time>
      </trkpt>
      <trkpt lat="44.24263" lon="7.04964">
        <ele>2091</ele>
        <time>2018-05-09T09:39:44.000Z</time>
      </trkpt>
      <trkpt lat="44.24265" lon="7.04959">
        <ele>2089.1999511719</ele>
        <time>2018-05-09T09:39:45.000Z</time>
      </trkpt>
      <trkpt lat="44.24269" lon="7.04956">
        <ele>2087.6000976562</ele>
        <time>2018-05-09T09:39:46.000Z</time>
      </trkpt>
      <trkpt lat="44.24274" lon="7.04955">
        <ele>2086.1999511719</ele>
        <time>2018-05-09T09:39:47.000Z</time>
      </trkpt>
      <trkpt lat="44.24279" lon="7.04954">
        <ele>2084.6000976562</ele>
        <time>2018-05-09T09:39:48.000Z</time>
      </trkpt>
      <trkpt lat="44.24283" lon="7.04959">
        <ele>2082.3999023438</ele>
        <time>2018-05-09T09:39:49.000Z</time>
      </trkpt>
      <trkpt lat="44.24286" lon="7.04959">
        <ele>2080.3999023438</ele>
        <time>2018-05-09T09:39:50.000Z</time>
      </trkpt>
      <trkpt lat="44.24288" lon="7.04957">
        <ele>2078.1999511719</ele>
        <time>2018-05-09T09:39:51.000Z</time>
      </trkpt>
      <trkpt lat="44.24289" lon="7.04952">
        <ele>2076.1999511719</ele>
        <time>2018-05-09T09:39:52.000Z</time>
      </trkpt>
      <trkpt lat="44.24292" lon="7.0495">
        <ele>2074.1999511719</ele>
        <time>2018-05-09T09:39:53.000Z</time>
      </trkpt>
      <trkpt lat="44.24295" lon="7.04946">
        <ele>2072.3999023438</ele>
        <time>2018-05-09T09:39:54.000Z</time>
      </trkpt>
      <trkpt lat="44.24298" lon="7.04944">
        <ele>2070.6000976562</ele>
        <time>2018-05-09T09:39:55.000Z</time>
      </trkpt>
      <trkpt lat="44.24302" lon="7.04943">
        <ele>2069.1999511719</ele>
        <time>2018-05-09T09:39:56.000Z</time>
      </trkpt>
      <trkpt lat="44.24306" lon="7.04943">
        <ele>2067.8000488281</ele>
        <time>2018-05-09T09:39:57.000Z</time>
      </trkpt>
      <trkpt lat="44.24309" lon="7.04945">
        <ele>2066.3999023438</ele>
        <time>2018-05-09T09:39:58.000Z</time>
      </trkpt>
      <trkpt lat="44.24314" lon="7.04948">
        <ele>2064.8000488281</ele>
        <time>2018-05-09T09:39:59.000Z</time>
      </trkpt>
      <trkpt lat="44.24319" lon="7.04952">
        <ele>2063.3999023438</ele>
        <time>2018-05-09T09:40:00.000Z</time>
      </trkpt>
      <trkpt lat="44.24322" lon="7.04954">
        <ele>2061.8000488281</ele>
        <time>2018-05-09T09:40:01.000Z</time>
      </trkpt>
      <trkpt lat="44.24323" lon="7.04951">
        <ele>2060.1999511719</ele>
        <time>2018-05-09T09:40:02.000Z</time>
      </trkpt>
      <trkpt lat="44.24324" lon="7.04946">
        <ele>2058.6000976562</ele>
        <time>2018-05-09T09:40:03.000Z</time>
      </trkpt>
      <trkpt lat="44.24341" lon="7.04939">
        <ele>2052</ele>
        <time>2018-05-09T09:40:07.000Z</time>
      </trkpt>
      <trkpt lat="44.24343" lon="7.04926">
        <ele>2047.1999511719</ele>
        <time>2018-05-09T09:40:09.000Z</time>
      </trkpt>
      <trkpt lat="44.24345" lon="7.04918">
        <ele>2045</ele>
        <time>2018-05-09T09:40:10.000Z</time>
      </trkpt>
      <trkpt lat="44.2435" lon="7.04915">
        <ele>2042.8000488281</ele>
        <time>2018-05-09T09:40:11.000Z</time>
      </trkpt>
      <trkpt lat="44.24358" lon="7.04917">
        <ele>2040.5999755859</ele>
        <time>2018-05-09T09:40:12.000Z</time>
      </trkpt>
      <trkpt lat="44.24364" lon="7.04918">
        <ele>2037.8000488281</ele>
        <time>2018-05-09T09:40:13.000Z</time>
      </trkpt>
      <trkpt lat="44.2437" lon="7.04917">
        <ele>2035.1999511719</ele>
        <time>2018-05-09T09:40:14.000Z</time>
      </trkpt>
      <trkpt lat="44.24373" lon="7.04912">
        <ele>2032.5999755859</ele>
        <time>2018-05-09T09:40:15.000Z</time>
      </trkpt>
      <trkpt lat="44.24376" lon="7.04906">
        <ele>2030.5999755859</ele>
        <time>2018-05-09T09:40:16.000Z</time>
      </trkpt>
      <trkpt lat="44.24382" lon="7.049">
        <ele>2028.5999755859</ele>
        <time>2018-05-09T09:40:17.000Z</time>
      </trkpt>
      <trkpt lat="44.24383" lon="7.04893">
        <ele>2026.5999755859</ele>
        <time>2018-05-09T09:40:18.000Z</time>
      </trkpt>
      <trkpt lat="44.24388" lon="7.04893">
        <ele>2024.4000244141</ele>
        <time>2018-05-09T09:40:19.000Z</time>
      </trkpt>
      <trkpt lat="44.24393" lon="7.04891">
        <ele>2022.4000244141</ele>
        <time>2018-05-09T09:40:20.000Z</time>
      </trkpt>
      <trkpt lat="44.24396" lon="7.04887">
        <ele>2020.1999511719</ele>
        <time>2018-05-09T09:40:21.000Z</time>
      </trkpt>
      <trkpt lat="44.24398" lon="7.04881">
        <ele>2018.1999511719</ele>
        <time>2018-05-09T09:40:22.000Z</time>
      </trkpt>
      <trkpt lat="44.24401" lon="7.04876">
        <ele>2016.1999511719</ele>
        <time>2018-05-09T09:40:23.000Z</time>
      </trkpt>
      <trkpt lat="44.24406" lon="7.04877">
        <ele>2014.4000244141</ele>
        <time>2018-05-09T09:40:24.000Z</time>
      </trkpt>
      <trkpt lat="44.24412" lon="7.0488">
        <ele>2012.4000244141</ele>
        <time>2018-05-09T09:40:25.000Z</time>
      </trkpt>
      <trkpt lat="44.24417" lon="7.04882">
        <ele>2010.1999511719</ele>
        <time>2018-05-09T09:40:26.000Z</time>
      </trkpt>
      <trkpt lat="44.24422" lon="7.04881">
        <ele>2008</ele>
        <time>2018-05-09T09:40:27.000Z</time>
      </trkpt>
      <trkpt lat="44.24426" lon="7.04878">
        <ele>2006</ele>
        <time>2018-05-09T09:40:28.000Z</time>
      </trkpt>
      <trkpt lat="44.24429" lon="7.04873">
        <ele>2004</ele>
        <time>2018-05-09T09:40:29.000Z</time>
      </trkpt>
      <trkpt lat="44.24431" lon="7.04869">
        <ele>2002.1999511719</ele>
        <time>2018-05-09T09:40:30.000Z</time>
      </trkpt>
      <trkpt lat="44.24434" lon="7.04865">
        <ele>2000.8000488281</ele>
        <time>2018-05-09T09:40:31.000Z</time>
      </trkpt>
      <trkpt lat="44.24432" lon="7.04863">
        <ele>1999.5999755859</ele>
        <time>2018-05-09T09:40:32.000Z</time>
      </trkpt>
      <trkpt lat="44.24434" lon="7.04864">
        <ele>1998.5999755859</ele>
        <time>2018-05-09T09:40:33.000Z</time>
      </trkpt>
      <trkpt lat="44.24439" lon="7.04867">
        <ele>1997.5999755859</ele>
        <time>2018-05-09T09:40:34.000Z</time>
      </trkpt>
      <trkpt lat="44.24443" lon="7.04867">
        <ele>1996.1999511719</ele>
        <time>2018-05-09T09:40:35.000Z</time>
      </trkpt>
      <trkpt lat="44.24448" lon="7.04865">
        <ele>1994.1999511719</ele>
        <time>2018-05-09T09:40:36.000Z</time>
      </trkpt>
      <trkpt lat="44.24451" lon="7.04861">
        <ele>1991.5999755859</ele>
        <time>2018-05-09T09:40:37.000Z</time>
      </trkpt>
      <trkpt lat="44.24455" lon="7.04858">
        <ele>1989.1999511719</ele>
        <time>2018-05-09T09:40:38.000Z</time>
      </trkpt>
      <trkpt lat="44.2446" lon="7.04856">
        <ele>1987</ele>
        <time>2018-05-09T09:40:39.000Z</time>
      </trkpt>
      <trkpt lat="44.24466" lon="7.04859">
        <ele>1985.1999511719</ele>
        <time>2018-05-09T09:40:40.000Z</time>
      </trkpt>
      <trkpt lat="44.24473" lon="7.0486">
        <ele>1983.4000244141</ele>
        <time>2018-05-09T09:40:41.000Z</time>
      </trkpt>
      <trkpt lat="44.24479" lon="7.04862">
        <ele>1981</ele>
        <time>2018-05-09T09:40:42.000Z</time>
      </trkpt>
      <trkpt lat="44.24485" lon="7.04863">
        <ele>1978.5999755859</ele>
        <time>2018-05-09T09:40:43.000Z</time>
      </trkpt>
      <trkpt lat="44.24489" lon="7.0486">
        <ele>1976.1999511719</ele>
        <time>2018-05-09T09:40:44.000Z</time>
      </trkpt>
      <trkpt lat="44.24492" lon="7.04857">
        <ele>1974.5999755859</ele>
        <time>2018-05-09T09:40:45.000Z</time>
      </trkpt>
      <trkpt lat="44.24498" lon="7.04849">
        <ele>1973.1999511719</ele>
        <time>2018-05-09T09:40:46.000Z</time>
      </trkpt>
      <trkpt lat="44.245" lon="7.0485">
        <ele>1971.5999755859</ele>
        <time>2018-05-09T09:40:47.000Z</time>
      </trkpt>
      <trkpt lat="44.24501" lon="7.04851">
        <ele>1969.5999755859</ele>
        <time>2018-05-09T09:40:48.000Z</time>
      </trkpt>
      <trkpt lat="44.24501" lon="7.04853">
        <ele>1967.8000488281</ele>
        <time>2018-05-09T09:40:49.000Z</time>
      </trkpt>
      <trkpt lat="44.245" lon="7.04856">
        <ele>1966.1999511719</ele>
        <time>2018-05-09T09:40:50.000Z</time>
      </trkpt>
      <trkpt lat="44.24499" lon="7.04858">
        <ele>1964.5999755859</ele>
        <time>2018-05-09T09:40:52.000Z</time>
      </trkpt>
      <trkpt lat="44.24498" lon="7.04859">
        <ele>1964</ele>
        <time>2018-05-09T09:40:54.000Z</time>
      </trkpt>
      <trkpt lat="44.24497" lon="7.0486">
        <ele>1963.8000488281</ele>
        <time>2018-05-09T09:40:57.000Z</time>
      </trkpt>
      <trkpt lat="44.24497" lon="7.0486">
        <ele>1963.8000488281</ele>
        <time>2018-05-09T09:40:59.000Z</time>
      </trkpt>
      <trkpt lat="44.24496" lon="7.04861">
        <ele>1964</ele>
        <time>2018-05-09T09:41:03.000Z</time>
      </trkpt>
      <trkpt lat="44.24496" lon="7.04858">
        <ele>1964</ele>
        <time>2018-05-09T09:41:07.000Z</time>
      </trkpt>
      <trkpt lat="44.24511" lon="7.04847">
        <ele>1964</ele>
        <time>2018-05-09T09:41:16.000Z</time>
      </trkpt>
      <trkpt lat="44.24493" lon="7.04849">
        <ele>1964</ele>
        <time>2018-05-09T09:41:24.000Z</time>
      </trkpt>
      <trkpt lat="44.24491" lon="7.04867">
        <ele>1964</ele>
        <time>2018-05-09T09:41:30.000Z</time>
      </trkpt>
      <trkpt lat="44.24494" lon="7.04876">
        <ele>1963.5999755859</ele>
        <time>2018-05-09T09:41:32.000Z</time>
      </trkpt>
      <trkpt lat="44.24496" lon="7.04881">
        <ele>1963.4000244141</ele>
        <time>2018-05-09T09:41:33.000Z</time>
      </trkpt>
      <trkpt lat="44.24511" lon="7.04878">
        <ele>1961.8000488281</ele>
        <time>2018-05-09T09:41:36.000Z</time>
      </trkpt>
      <trkpt lat="44.24519" lon="7.04881">
        <ele>1960.8000488281</ele>
        <time>2018-05-09T09:41:38.000Z</time>
      </trkpt>
      <trkpt lat="44.24527" lon="7.04885">
        <ele>1959.4000244141</ele>
        <time>2018-05-09T09:41:40.000Z</time>
      </trkpt>
      <trkpt lat="44.24534" lon="7.04885">
        <ele>1958.4000244141</ele>
        <time>2018-05-09T09:41:42.000Z</time>
      </trkpt>
      <trkpt lat="44.24549" lon="7.04885">
        <ele>1957.1999511719</ele>
        <time>2018-05-09T09:41:45.000Z</time>
      </trkpt>
      <trkpt lat="44.24559" lon="7.0489">
        <ele>1955.8000488281</ele>
        <time>2018-05-09T09:41:48.000Z</time>
      </trkpt>
      <trkpt lat="44.24571" lon="7.0489">
        <ele>1954.5999755859</ele>
        <time>2018-05-09T09:41:51.000Z</time>
      </trkpt>
      <trkpt lat="44.24578" lon="7.04883">
        <ele>1953.1999511719</ele>
        <time>2018-05-09T09:41:53.000Z</time>
      </trkpt>
      <trkpt lat="44.24581" lon="7.04879">
        <ele>1952.1999511719</ele>
        <time>2018-05-09T09:41:54.000Z</time>
      </trkpt>
      <trkpt lat="44.24585" lon="7.04875">
        <ele>1951</ele>
        <time>2018-05-09T09:41:55.000Z</time>
      </trkpt>
      <trkpt lat="44.24591" lon="7.04871">
        <ele>1949.5999755859</ele>
        <time>2018-05-09T09:41:56.000Z</time>
      </trkpt>
      <trkpt lat="44.24597" lon="7.04863">
        <ele>1948.1999511719</ele>
        <time>2018-05-09T09:41:57.000Z</time>
      </trkpt>
      <trkpt lat="44.24603" lon="7.04856">
        <ele>1946.8000488281</ele>
        <time>2018-05-09T09:41:58.000Z</time>
      </trkpt>
      <trkpt lat="44.2461" lon="7.04851">
        <ele>1945.5999755859</ele>
        <time>2018-05-09T09:41:59.000Z</time>
      </trkpt>
      <trkpt lat="44.24618" lon="7.04849">
        <ele>1944</ele>
        <time>2018-05-09T09:42:00.000Z</time>
      </trkpt>
      <trkpt lat="44.24626" lon="7.04845">
        <ele>1941.8000488281</ele>
        <time>2018-05-09T09:42:01.000Z</time>
      </trkpt>
      <trkpt lat="44.24632" lon="7.04841">
        <ele>1939.4000244141</ele>
        <time>2018-05-09T09:42:02.000Z</time>
      </trkpt>
      <trkpt lat="44.24638" lon="7.04835">
        <ele>1937</ele>
        <time>2018-05-09T09:42:03.000Z</time>
      </trkpt>
      <trkpt lat="44.24643" lon="7.04831">
        <ele>1935.4000244141</ele>
        <time>2018-05-09T09:42:04.000Z</time>
      </trkpt>
      <trkpt lat="44.24649" lon="7.04828">
        <ele>1934</ele>
        <time>2018-05-09T09:42:05.000Z</time>
      </trkpt>
      <trkpt lat="44.24655" lon="7.04827">
        <ele>1933</ele>
        <time>2018-05-09T09:42:06.000Z</time>
      </trkpt>
      <trkpt lat="44.2466" lon="7.04827">
        <ele>1931.8000488281</ele>
        <time>2018-05-09T09:42:07.000Z</time>
      </trkpt>
      <trkpt lat="44.24665" lon="7.04827">
        <ele>1931</ele>
        <time>2018-05-09T09:42:08.000Z</time>
      </trkpt>
      <trkpt lat="44.2467" lon="7.04826">
        <ele>1930</ele>
        <time>2018-05-09T09:42:09.000Z</time>
      </trkpt>
      <trkpt lat="44.24674" lon="7.04825">
        <ele>1929.1999511719</ele>
        <time>2018-05-09T09:42:10.000Z</time>
      </trkpt>
      <trkpt lat="44.24677" lon="7.04824">
        <ele>1928.5999755859</ele>
        <time>2018-05-09T09:42:11.000Z</time>
      </trkpt>
      <trkpt lat="44.24683" lon="7.0482">
        <ele>1927.4000244141</ele>
        <time>2018-05-09T09:42:13.000Z</time>
      </trkpt>
      <trkpt lat="44.24691" lon="7.04816">
        <ele>1926.4000244141</ele>
        <time>2018-05-09T09:42:17.000Z</time>
      </trkpt>
      <trkpt lat="44.24693" lon="7.04814">
        <ele>1926.1999511719</ele>
        <time>2018-05-09T09:42:19.000Z</time>
      </trkpt>
      <trkpt lat="44.24696" lon="7.04808">
        <ele>1926.1999511719</ele>
        <time>2018-05-09T09:42:21.000Z</time>
      </trkpt>
      <trkpt lat="44.24697" lon="7.04806">
        <ele>1926.1999511719</ele>
        <time>2018-05-09T09:42:22.000Z</time>
      </trkpt>
      <trkpt lat="44.24699" lon="7.04801">
        <ele>1926.1999511719</ele>
        <time>2018-05-09T09:42:24.000Z</time>
      </trkpt>
      <trkpt lat="44.24699" lon="7.048">
        <ele>1926.1999511719</ele>
        <time>2018-05-09T09:42:26.000Z</time>
      </trkpt>
      <trkpt lat="44.24699" lon="7.04798">
        <ele>1926.1999511719</ele>
        <time>2018-05-09T09:42:28.000Z</time>
      </trkpt>
      <trkpt lat="44.24702" lon="7.04793">
        <ele>1926.1999511719</ele>
        <time>2018-05-09T09:42:31.000Z</time>
      </trkpt>
      <trkpt lat="44.24706" lon="7.04789">
        <ele>1926.1999511719</ele>
        <time>2018-05-09T09:42:34.000Z</time>
      </trkpt>
      <trkpt lat="44.24707" lon="7.04788">
        <ele>1926.1999511719</ele>
        <time>2018-05-09T09:42:35.000Z</time>
      </trkpt>
      <trkpt lat="44.24708" lon="7.04788">
        <ele>1926</ele>
        <time>2018-05-09T09:42:38.000Z</time>
      </trkpt>
      <trkpt lat="44.24708" lon="7.04789">
        <ele>1926</ele>
        <time>2018-05-09T09:42:40.000Z</time>
      </trkpt>
      <trkpt lat="44.24711" lon="7.0479">
        <ele>1926</ele>
        <time>2018-05-09T09:42:42.000Z</time>
      </trkpt>
      <trkpt lat="44.24715" lon="7.0479">
        <ele>1926.1999511719</ele>
        <time>2018-05-09T09:42:44.000Z</time>
      </trkpt>
      <trkpt lat="44.2472" lon="7.04791">
        <ele>1926.1999511719</ele>
        <time>2018-05-09T09:42:47.000Z</time>
      </trkpt>
      <trkpt lat="44.24723" lon="7.04798">
        <ele>1925.5999755859</ele>
        <time>2018-05-09T09:42:52.000Z</time>
      </trkpt>
      <trkpt lat="44.24724" lon="7.048">
        <ele>1925.4000244141</ele>
        <time>2018-05-09T09:42:54.000Z</time>
      </trkpt>
      <trkpt lat="44.24724" lon="7.04801">
        <ele>1925.4000244141</ele>
        <time>2018-05-09T09:42:55.000Z</time>
      </trkpt>
      <trkpt lat="44.24725" lon="7.04789">
        <ele>1925</ele>
        <time>2018-05-09T09:43:12.000Z</time>
      </trkpt>
      <trkpt lat="44.24726" lon="7.0479">
        <ele>1925</ele>
        <time>2018-05-09T09:43:13.000Z</time>
      </trkpt>
      <trkpt lat="44.24722" lon="7.04813">
        <ele>1925.4000244141</ele>
        <time>2018-05-09T09:43:23.000Z</time>
      </trkpt>
      <trkpt lat="44.24718" lon="7.04814">
        <ele>1925.4000244141</ele>
        <time>2018-05-09T09:43:25.000Z</time>
      </trkpt>
      <trkpt lat="44.24721" lon="7.0481">
        <ele>1925.4000244141</ele>
        <time>2018-05-09T09:43:34.000Z</time>
      </trkpt>
      <trkpt lat="44.24721" lon="7.04808">
        <ele>1925.4000244141</ele>
        <time>2018-05-09T09:43:39.000Z</time>
      </trkpt>
      <trkpt lat="44.24719" lon="7.04807">
        <ele>1925.4000244141</ele>
        <time>2018-05-09T09:43:43.000Z</time>
      </trkpt>
      <trkpt lat="44.24718" lon="7.04807">
        <ele>1925.1999511719</ele>
        <time>2018-05-09T09:43:51.000Z</time>
      </trkpt>
      <trkpt lat="44.24718" lon="7.04807">
        <ele>1925.1999511719</ele>
        <time>2018-05-09T09:43:53.000Z</time>
      </trkpt>
      <trkpt lat="44.24719" lon="7.04807">
        <ele>1925.1999511719</ele>
        <time>2018-05-09T09:43:55.000Z</time>
      </trkpt>
      <trkpt lat="44.24717" lon="7.04804">
        <ele>1925.1999511719</ele>
        <time>2018-05-09T09:43:58.000Z</time>
      </trkpt>
      <trkpt lat="44.24717" lon="7.04802">
        <ele>1925.1999511719</ele>
        <time>2018-05-09T09:44:00.000Z</time>
      </trkpt>
      <trkpt lat="44.24715" lon="7.04808">
        <ele>1925.1999511719</ele>
        <time>2018-05-09T09:44:13.000Z</time>
      </trkpt>
      <trkpt lat="44.24722" lon="7.04799">
        <ele>1925.1999511719</ele>
        <time>2018-05-09T09:44:20.000Z</time>
      </trkpt>
      <trkpt lat="44.24724" lon="7.04791">
        <ele>1925</ele>
        <time>2018-05-09T09:44:28.000Z</time>
      </trkpt>
      <trkpt lat="44.24726" lon="7.0479">
        <ele>1925</ele>
        <time>2018-05-09T09:44:30.000Z</time>
      </trkpt>
      <trkpt lat="44.24727" lon="7.0479">
        <ele>1925</ele>
        <time>2018-05-09T09:44:31.000Z</time>
      </trkpt>
      <trkpt lat="44.24728" lon="7.04789">
        <ele>1925</ele>
        <time>2018-05-09T09:44:32.000Z</time>
      </trkpt>
      <trkpt lat="44.24729" lon="7.04787">
        <ele>1925.1999511719</ele>
        <time>2018-05-09T09:44:33.000Z</time>
      </trkpt>
      <trkpt lat="44.24731" lon="7.04785">
        <ele>1925.1999511719</ele>
        <time>2018-05-09T09:44:34.000Z</time>
      </trkpt>
      <trkpt lat="44.24732" lon="7.04782">
        <ele>1925.1999511719</ele>
        <time>2018-05-09T09:44:35.000Z</time>
      </trkpt>
      <trkpt lat="44.24734" lon="7.04781">
        <ele>1925.4000244141</ele>
        <time>2018-05-09T09:44:36.000Z</time>
      </trkpt>
      <trkpt lat="44.24744" lon="7.04771">
        <ele>1925.4000244141</ele>
        <time>2018-05-09T09:44:42.000Z</time>
      </trkpt>
      <trkpt lat="44.24751" lon="7.04763">
        <ele>1925.1999511719</ele>
        <time>2018-05-09T09:44:47.000Z</time>
      </trkpt>
      <trkpt lat="44.24754" lon="7.04762">
        <ele>1925.1999511719</ele>
        <time>2018-05-09T09:44:49.000Z</time>
      </trkpt>
      <trkpt lat="44.24754" lon="7.04761">
        <ele>1925.1999511719</ele>
        <time>2018-05-09T09:44:50.000Z</time>
      </trkpt>
      <trkpt lat="44.24755" lon="7.0476">
        <ele>1925.4000244141</ele>
        <time>2018-05-09T09:44:52.000Z</time>
      </trkpt>
      <trkpt lat="44.24756" lon="7.04758">
        <ele>1925.4000244141</ele>
        <time>2018-05-09T09:44:53.000Z</time>
      </trkpt>
      <trkpt lat="44.24757" lon="7.04755">
        <ele>1925.5999755859</ele>
        <time>2018-05-09T09:44:57.000Z</time>
      </trkpt>
      <trkpt lat="44.24762" lon="7.04751">
        <ele>1925.8000488281</ele>
        <time>2018-05-09T09:45:03.000Z</time>
      </trkpt>
      <trkpt lat="44.24764" lon="7.0475">
        <ele>1925.5999755859</ele>
        <time>2018-05-09T09:45:06.000Z</time>
      </trkpt>
      <trkpt lat="44.24766" lon="7.04749">
        <ele>1925.5999755859</ele>
        <time>2018-05-09T09:45:08.000Z</time>
      </trkpt>
      <trkpt lat="44.24767" lon="7.04747">
        <ele>1925.8000488281</ele>
        <time>2018-05-09T09:45:10.000Z</time>
      </trkpt>
      <trkpt lat="44.24768" lon="7.04746">
        <ele>1925.8000488281</ele>
        <time>2018-05-09T09:45:11.000Z</time>
      </trkpt>
      <trkpt lat="44.24769" lon="7.04738">
        <ele>1926</ele>
        <time>2018-05-09T09:45:24.000Z</time>
      </trkpt>
      <trkpt lat="44.24768" lon="7.04741">
        <ele>1926</ele>
        <time>2018-05-09T09:45:26.000Z</time>
      </trkpt>
      <trkpt lat="44.24767" lon="7.04742">
        <ele>1926</ele>
        <time>2018-05-09T09:45:28.000Z</time>
      </trkpt>
      <trkpt lat="44.24769" lon="7.04739">
        <ele>1926</ele>
        <time>2018-05-09T09:45:33.000Z</time>
      </trkpt>
      <trkpt lat="44.24771" lon="7.04737">
        <ele>1925.8000488281</ele>
        <time>2018-05-09T09:45:35.000Z</time>
      </trkpt>
      <trkpt lat="44.24772" lon="7.04736">
        <ele>1925.8000488281</ele>
        <time>2018-05-09T09:45:36.000Z</time>
      </trkpt>
      <trkpt lat="44.24773" lon="7.04733">
        <ele>1925.8000488281</ele>
        <time>2018-05-09T09:45:39.000Z</time>
      </trkpt>
      <trkpt lat="44.24773" lon="7.04733">
        <ele>1925.8000488281</ele>
        <time>2018-05-09T09:45:42.000Z</time>
      </trkpt>
      <trkpt lat="44.24775" lon="7.04749">
        <ele>1926</ele>
        <time>2018-05-09T09:45:53.000Z</time>
      </trkpt>
      <trkpt lat="44.24776" lon="7.04748">
        <ele>1925.8000488281</ele>
        <time>2018-05-09T09:46:00.000Z</time>
      </trkpt>
      <trkpt lat="44.2478" lon="7.04738">
        <ele>1926</ele>
        <time>2018-05-09T09:46:04.000Z</time>
      </trkpt>
      <trkpt lat="44.24783" lon="7.04735">
        <ele>1926</ele>
        <time>2018-05-09T09:46:06.000Z</time>
      </trkpt>
      <trkpt lat="44.24787" lon="7.04731">
        <ele>1926</ele>
        <time>2018-05-09T09:46:08.000Z</time>
      </trkpt>
      <trkpt lat="44.2479" lon="7.04728">
        <ele>1926.4000244141</ele>
        <time>2018-05-09T09:46:11.000Z</time>
      </trkpt>
      <trkpt lat="44.24791" lon="7.04727">
        <ele>1926.4000244141</ele>
        <time>2018-05-09T09:46:12.000Z</time>
      </trkpt>
      <trkpt lat="44.24791" lon="7.04727">
        <ele>1926.4000244141</ele>
        <time>2018-05-09T09:46:13.000Z</time>
      </trkpt>
      <trkpt lat="44.24792" lon="7.04729">
        <ele>1926.4000244141</ele>
        <time>2018-05-09T09:46:15.000Z</time>
      </trkpt>
      <trkpt lat="44.24794" lon="7.04729">
        <ele>1926.4000244141</ele>
        <time>2018-05-09T09:46:17.000Z</time>
      </trkpt>
      <trkpt lat="44.24798" lon="7.04729">
        <ele>1926.5999755859</ele>
        <time>2018-05-09T09:46:20.000Z</time>
      </trkpt>
      <trkpt lat="44.24796" lon="7.04733">
        <ele>1926.5999755859</ele>
        <time>2018-05-09T09:46:23.000Z</time>
      </trkpt>
      <trkpt lat="44.24797" lon="7.04735">
        <ele>1926.5999755859</ele>
        <time>2018-05-09T09:46:24.000Z</time>
      </trkpt>
      <trkpt lat="44.24798" lon="7.04735">
        <ele>1926.5999755859</ele>
        <time>2018-05-09T09:46:25.000Z</time>
      </trkpt>
      <trkpt lat="44.24799" lon="7.04735">
        <ele>1926.5999755859</ele>
        <time>2018-05-09T09:46:26.000Z</time>
      </trkpt>
      <trkpt lat="44.24801" lon="7.04735">
        <ele>1926.8000488281</ele>
        <time>2018-05-09T09:46:29.000Z</time>
      </trkpt>
      <trkpt lat="44.24802" lon="7.04737">
        <ele>1926.8000488281</ele>
        <time>2018-05-09T09:46:31.000Z</time>
      </trkpt>
      <trkpt lat="44.24805" lon="7.0474">
        <ele>1927.1999511719</ele>
        <time>2018-05-09T09:46:35.000Z</time>
      </trkpt>
      <trkpt lat="44.24806" lon="7.0474">
        <ele>1927.1999511719</ele>
        <time>2018-05-09T09:46:36.000Z</time>
      </trkpt>
      <trkpt lat="44.24809" lon="7.04742">
        <ele>1927.4000244141</ele>
        <time>2018-05-09T09:46:38.000Z</time>
      </trkpt>
      <trkpt lat="44.24811" lon="7.04743">
        <ele>1927.5999755859</ele>
        <time>2018-05-09T09:46:41.000Z</time>
      </trkpt>
      <trkpt lat="44.24812" lon="7.04743">
        <ele>1927.5999755859</ele>
        <time>2018-05-09T09:46:42.000Z</time>
      </trkpt>
      <trkpt lat="44.24812" lon="7.04745">
        <ele>1927.8000488281</ele>
        <time>2018-05-09T09:46:45.000Z</time>
      </trkpt>
      <trkpt lat="44.24816" lon="7.04747">
        <ele>1928.1999511719</ele>
        <time>2018-05-09T09:46:51.000Z</time>
      </trkpt>
      <trkpt lat="44.24817" lon="7.04747">
        <ele>1928.4000244141</ele>
        <time>2018-05-09T09:46:52.000Z</time>
      </trkpt>
      <trkpt lat="44.24818" lon="7.04749">
        <ele>1928.4000244141</ele>
        <time>2018-05-09T09:46:53.000Z</time>
      </trkpt>
      <trkpt lat="44.24821" lon="7.04753">
        <ele>1929</ele>
        <time>2018-05-09T09:46:58.000Z</time>
      </trkpt>
      <trkpt lat="44.24824" lon="7.04757">
        <ele>1929.1999511719</ele>
        <time>2018-05-09T09:47:02.000Z</time>
      </trkpt>
      <trkpt lat="44.24825" lon="7.04762">
        <ele>1929.4000244141</ele>
        <time>2018-05-09T09:47:06.000Z</time>
      </trkpt>
      <trkpt lat="44.24825" lon="7.04764">
        <ele>1929.5999755859</ele>
        <time>2018-05-09T09:47:07.000Z</time>
      </trkpt>
      <trkpt lat="44.24827" lon="7.04774">
        <ele>1930.1999511719</ele>
        <time>2018-05-09T09:47:15.000Z</time>
      </trkpt>
      <trkpt lat="44.24827" lon="7.04776">
        <ele>1930.1999511719</ele>
        <time>2018-05-09T09:47:18.000Z</time>
      </trkpt>
      <trkpt lat="44.24827" lon="7.04778">
        <ele>1930.5999755859</ele>
        <time>2018-05-09T09:47:20.000Z</time>
      </trkpt>
      <trkpt lat="44.24827" lon="7.0478">
        <ele>1930.8000488281</ele>
        <time>2018-05-09T09:47:22.000Z</time>
      </trkpt>
      <trkpt lat="44.24827" lon="7.04783">
        <ele>1931.1999511719</ele>
        <time>2018-05-09T09:47:25.000Z</time>
      </trkpt>
      <trkpt lat="44.24827" lon="7.04787">
        <ele>1931.5999755859</ele>
        <time>2018-05-09T09:47:28.000Z</time>
      </trkpt>
      <trkpt lat="44.2483" lon="7.04791">
        <ele>1931.8000488281</ele>
        <time>2018-05-09T09:47:33.000Z</time>
      </trkpt>
      <trkpt lat="44.24832" lon="7.04795">
        <ele>1932</ele>
        <time>2018-05-09T09:47:37.000Z</time>
      </trkpt>
      <trkpt lat="44.24833" lon="7.04797">
        <ele>1932.1999511719</ele>
        <time>2018-05-09T09:47:40.000Z</time>
      </trkpt>
      <trkpt lat="44.24833" lon="7.04801">
        <ele>1932.5999755859</ele>
        <time>2018-05-09T09:47:44.000Z</time>
      </trkpt>
      <trkpt lat="44.24834" lon="7.04804">
        <ele>1932.8000488281</ele>
        <time>2018-05-09T09:47:46.000Z</time>
      </trkpt>
      <trkpt lat="44.24835" lon="7.04806">
        <ele>1932.8000488281</ele>
        <time>2018-05-09T09:47:48.000Z</time>
      </trkpt>
      <trkpt lat="44.24836" lon="7.04808">
        <ele>1933</ele>
        <time>2018-05-09T09:47:50.000Z</time>
      </trkpt>
      <trkpt lat="44.24841" lon="7.04812">
        <ele>1933.5999755859</ele>
        <time>2018-05-09T09:47:56.000Z</time>
      </trkpt>
      <trkpt lat="44.24842" lon="7.04811">
        <ele>1933.8000488281</ele>
        <time>2018-05-09T09:47:57.000Z</time>
      </trkpt>
      <trkpt lat="44.24842" lon="7.0481">
        <ele>1933.8000488281</ele>
        <time>2018-05-09T09:47:58.000Z</time>
      </trkpt>
      <trkpt lat="44.24842" lon="7.0481">
        <ele>1933.8000488281</ele>
        <time>2018-05-09T09:48:00.000Z</time>
      </trkpt>
      <trkpt lat="44.24842" lon="7.04807">
        <ele>1933.8000488281</ele>
        <time>2018-05-09T09:48:02.000Z</time>
      </trkpt>
      <trkpt lat="44.24842" lon="7.04806">
        <ele>1933.8000488281</ele>
        <time>2018-05-09T09:48:03.000Z</time>
      </trkpt>
      <trkpt lat="44.24842" lon="7.04802">
        <ele>1933.8000488281</ele>
        <time>2018-05-09T09:48:05.000Z</time>
      </trkpt>
      <trkpt lat="44.24843" lon="7.04801">
        <ele>1934.1999511719</ele>
        <time>2018-05-09T09:48:06.000Z</time>
      </trkpt>
      <trkpt lat="44.24844" lon="7.04793">
        <ele>1934.8000488281</ele>
        <time>2018-05-09T09:48:11.000Z</time>
      </trkpt>
      <trkpt lat="44.24843" lon="7.04792">
        <ele>1935</ele>
        <time>2018-05-09T09:48:13.000Z</time>
      </trkpt>
      <trkpt lat="44.24842" lon="7.0479">
        <ele>1935.1999511719</ele>
        <time>2018-05-09T09:48:15.000Z</time>
      </trkpt>
      <trkpt lat="44.2484" lon="7.04784">
        <ele>1935.5999755859</ele>
        <time>2018-05-09T09:48:19.000Z</time>
      </trkpt>
      <trkpt lat="44.24841" lon="7.04782">
        <ele>1936</ele>
        <time>2018-05-09T09:48:21.000Z</time>
      </trkpt>
      <trkpt lat="44.24841" lon="7.04781">
        <ele>1936</ele>
        <time>2018-05-09T09:48:22.000Z</time>
      </trkpt>
      <trkpt lat="44.24841" lon="7.04781">
        <ele>1936.1999511719</ele>
        <time>2018-05-09T09:48:23.000Z</time>
      </trkpt>
      <trkpt lat="44.24839" lon="7.04781">
        <ele>1936.4000244141</ele>
        <time>2018-05-09T09:48:25.000Z</time>
      </trkpt>
      <trkpt lat="44.2484" lon="7.04777">
        <ele>1937</ele>
        <time>2018-05-09T09:48:31.000Z</time>
      </trkpt>
      <trkpt lat="44.2484" lon="7.04776">
        <ele>1937.4000244141</ele>
        <time>2018-05-09T09:48:34.000Z</time>
      </trkpt>
      <trkpt lat="44.2484" lon="7.04776">
        <ele>1937.5999755859</ele>
        <time>2018-05-09T09:48:35.000Z</time>
      </trkpt>
      <trkpt lat="44.24839" lon="7.04773">
        <ele>1938</ele>
        <time>2018-05-09T09:48:38.000Z</time>
      </trkpt>
      <trkpt lat="44.24839" lon="7.0477">
        <ele>1938.1999511719</ele>
        <time>2018-05-09T09:48:41.000Z</time>
      </trkpt>
      <trkpt lat="44.2484" lon="7.04758">
        <ele>1939.1999511719</ele>
        <time>2018-05-09T09:48:50.000Z</time>
      </trkpt>
      <trkpt lat="44.2484" lon="7.04755">
        <ele>1939.5999755859</ele>
        <time>2018-05-09T09:48:53.000Z</time>
      </trkpt>
      <trkpt lat="44.2484" lon="7.0475">
        <ele>1940.1999511719</ele>
        <time>2018-05-09T09:48:57.000Z</time>
      </trkpt>
      <trkpt lat="44.2484" lon="7.04749">
        <ele>1940.4000244141</ele>
        <time>2018-05-09T09:48:58.000Z</time>
      </trkpt>
      <trkpt lat="44.24844" lon="7.04739">
        <ele>1941.4000244141</ele>
        <time>2018-05-09T09:49:11.000Z</time>
      </trkpt>
      <trkpt lat="44.24845" lon="7.04737">
        <ele>1941.8000488281</ele>
        <time>2018-05-09T09:49:13.000Z</time>
      </trkpt>
      <trkpt lat="44.24845" lon="7.04737">
        <ele>1941.8000488281</ele>
        <time>2018-05-09T09:49:14.000Z</time>
      </trkpt>
      <trkpt lat="44.24845" lon="7.04736">
        <ele>1942</ele>
        <time>2018-05-09T09:49:16.000Z</time>
      </trkpt>
      <trkpt lat="44.24849" lon="7.04741">
        <ele>1942.4000244141</ele>
        <time>2018-05-09T09:49:22.000Z</time>
      </trkpt>
      <trkpt lat="44.2486" lon="7.04739">
        <ele>1943.4000244141</ele>
        <time>2018-05-09T09:49:34.000Z</time>
      </trkpt>
      <trkpt lat="44.24861" lon="7.04739">
        <ele>1943.5999755859</ele>
        <time>2018-05-09T09:49:35.000Z</time>
      </trkpt>
      <trkpt lat="44.24863" lon="7.04738">
        <ele>1943.5999755859</ele>
        <time>2018-05-09T09:49:38.000Z</time>
      </trkpt>
      <trkpt lat="44.24865" lon="7.04738">
        <ele>1943.8000488281</ele>
        <time>2018-05-09T09:49:40.000Z</time>
      </trkpt>
      <trkpt lat="44.24866" lon="7.04737">
        <ele>1944</ele>
        <time>2018-05-09T09:49:42.000Z</time>
      </trkpt>
      <trkpt lat="44.24868" lon="7.04734">
        <ele>1944</ele>
        <time>2018-05-09T09:49:46.000Z</time>
      </trkpt>
      <trkpt lat="44.24869" lon="7.04732">
        <ele>1944.1999511719</ele>
        <time>2018-05-09T09:49:48.000Z</time>
      </trkpt>
      <trkpt lat="44.2487" lon="7.0473">
        <ele>1944.5999755859</ele>
        <time>2018-05-09T09:49:51.000Z</time>
      </trkpt>
      <trkpt lat="44.2487" lon="7.0473">
        <ele>1944.5999755859</ele>
        <time>2018-05-09T09:50:00.000Z</time>
      </trkpt>
      <trkpt lat="44.24871" lon="7.0473">
        <ele>1944.5999755859</ele>
        <time>2018-05-09T09:50:07.000Z</time>
      </trkpt>
      <trkpt lat="44.24872" lon="7.04729">
        <ele>1944.5999755859</ele>
        <time>2018-05-09T09:50:11.000Z</time>
      </trkpt>
      <trkpt lat="44.24873" lon="7.04729">
        <ele>1944.4000244141</ele>
        <time>2018-05-09T09:50:12.000Z</time>
      </trkpt>
      <trkpt lat="44.24875" lon="7.04729">
        <ele>1944.4000244141</ele>
        <time>2018-05-09T09:50:13.000Z</time>
      </trkpt>
      <trkpt lat="44.24875" lon="7.0473">
        <ele>1944.4000244141</ele>
        <time>2018-05-09T09:50:14.000Z</time>
      </trkpt>
      <trkpt lat="44.24874" lon="7.0473">
        <ele>1944.4000244141</ele>
        <time>2018-05-09T09:50:15.000Z</time>
      </trkpt>
      <trkpt lat="44.24875" lon="7.0473">
        <ele>1944.5999755859</ele>
        <time>2018-05-09T09:50:17.000Z</time>
      </trkpt>
      <trkpt lat="44.24873" lon="7.0473">
        <ele>1944.8000488281</ele>
        <time>2018-05-09T09:50:18.000Z</time>
      </trkpt>
      <trkpt lat="44.24872" lon="7.04729">
        <ele>1944.8000488281</ele>
        <time>2018-05-09T09:50:20.000Z</time>
      </trkpt>
      <trkpt lat="44.24869" lon="7.04729">
        <ele>1944.4000244141</ele>
        <time>2018-05-09T09:50:25.000Z</time>
      </trkpt>
      <trkpt lat="44.24865" lon="7.04735">
        <ele>1944.4000244141</ele>
        <time>2018-05-09T09:50:38.000Z</time>
      </trkpt>
      <trkpt lat="44.24865" lon="7.04734">
        <ele>1944.4000244141</ele>
        <time>2018-05-09T09:50:39.000Z</time>
      </trkpt>
      <trkpt lat="44.24865" lon="7.04734">
        <ele>1944.4000244141</ele>
        <time>2018-05-09T09:50:40.000Z</time>
      </trkpt>
      <trkpt lat="44.24865" lon="7.04733">
        <ele>1944.1999511719</ele>
        <time>2018-05-09T09:50:41.000Z</time>
      </trkpt>
      <trkpt lat="44.24865" lon="7.04733">
        <ele>1944.1999511719</ele>
        <time>2018-05-09T09:50:43.000Z</time>
      </trkpt>
      <trkpt lat="44.24868" lon="7.04734">
        <ele>1944.8000488281</ele>
        <time>2018-05-09T09:50:57.000Z</time>
      </trkpt>
      <trkpt lat="44.24872" lon="7.04732">
        <ele>1944.8000488281</ele>
        <time>2018-05-09T09:50:59.000Z</time>
      </trkpt>
      <trkpt lat="44.24874" lon="7.04729">
        <ele>1944.8000488281</ele>
        <time>2018-05-09T09:51:05.000Z</time>
      </trkpt>
      <trkpt lat="44.2487" lon="7.04729">
        <ele>1944.8000488281</ele>
        <time>2018-05-09T09:51:12.000Z</time>
      </trkpt>
      <trkpt lat="44.24868" lon="7.04727">
        <ele>1945</ele>
        <time>2018-05-09T09:51:19.000Z</time>
      </trkpt>
      <trkpt lat="44.24864" lon="7.04726">
        <ele>1945</ele>
        <time>2018-05-09T09:51:23.000Z</time>
      </trkpt>
      <trkpt lat="44.24862" lon="7.04726">
        <ele>1945</ele>
        <time>2018-05-09T09:51:25.000Z</time>
      </trkpt>
      <trkpt lat="44.24862" lon="7.04726">
        <ele>1944.8000488281</ele>
        <time>2018-05-09T09:51:27.000Z</time>
      </trkpt>
      <trkpt lat="44.24866" lon="7.04731">
        <ele>1944.8000488281</ele>
        <time>2018-05-09T09:51:34.000Z</time>
      </trkpt>
      <trkpt lat="44.2487" lon="7.04729">
        <ele>1944.8000488281</ele>
        <time>2018-05-09T09:51:39.000Z</time>
      </trkpt>
      <trkpt lat="44.2487" lon="7.04729">
        <ele>1944.8000488281</ele>
        <time>2018-05-09T09:51:40.000Z</time>
      </trkpt>
      <trkpt lat="44.24873" lon="7.04731">
        <ele>1944.8000488281</ele>
        <time>2018-05-09T09:51:44.000Z</time>
      </trkpt>
      <trkpt lat="44.24874" lon="7.04737">
        <ele>1944.8000488281</ele>
        <time>2018-05-09T09:51:49.000Z</time>
      </trkpt>
      <trkpt lat="44.24874" lon="7.04738">
        <ele>1944.8000488281</ele>
        <time>2018-05-09T09:51:51.000Z</time>
      </trkpt>
      <trkpt lat="44.24874" lon="7.04739">
        <ele>1944.4000244141</ele>
        <time>2018-05-09T09:51:56.000Z</time>
      </trkpt>
      <trkpt lat="44.24873" lon="7.0474">
        <ele>1944.1999511719</ele>
        <time>2018-05-09T09:52:00.000Z</time>
      </trkpt>
      <trkpt lat="44.24871" lon="7.0474">
        <ele>1944.1999511719</ele>
        <time>2018-05-09T09:52:04.000Z</time>
      </trkpt>
      <trkpt lat="44.2487" lon="7.0474">
        <ele>1944.1999511719</ele>
        <time>2018-05-09T09:52:06.000Z</time>
      </trkpt>
      <trkpt lat="44.2487" lon="7.04739">
        <ele>1944</ele>
        <time>2018-05-09T09:52:08.000Z</time>
      </trkpt>
      <trkpt lat="44.24872" lon="7.04738">
        <ele>1944</ele>
        <time>2018-05-09T09:52:14.000Z</time>
      </trkpt>
      <trkpt lat="44.24873" lon="7.04738">
        <ele>1944.1999511719</ele>
        <time>2018-05-09T09:52:19.000Z</time>
      </trkpt>
      <trkpt lat="44.24873" lon="7.04738">
        <ele>1944.1999511719</ele>
        <time>2018-05-09T09:52:20.000Z</time>
      </trkpt>
      <trkpt lat="44.24874" lon="7.04738">
        <ele>1944.1999511719</ele>
        <time>2018-05-09T09:52:23.000Z</time>
      </trkpt>
      <trkpt lat="44.24875" lon="7.04738">
        <ele>1944.1999511719</ele>
        <time>2018-05-09T09:52:24.000Z</time>
      </trkpt>
      <trkpt lat="44.24875" lon="7.04738">
        <ele>1944.4000244141</ele>
        <time>2018-05-09T09:52:26.000Z</time>
      </trkpt>
      <trkpt lat="44.24874" lon="7.04736">
        <ele>1944.4000244141</ele>
        <time>2018-05-09T09:52:28.000Z</time>
      </trkpt>
      <trkpt lat="44.24874" lon="7.04736">
        <ele>1944.5999755859</ele>
        <time>2018-05-09T09:52:33.000Z</time>
      </trkpt>
      <trkpt lat="44.24872" lon="7.04736">
        <ele>1944.4000244141</ele>
        <time>2018-05-09T09:52:35.000Z</time>
      </trkpt>
      <trkpt lat="44.24869" lon="7.04737">
        <ele>1944.1999511719</ele>
        <time>2018-05-09T09:52:40.000Z</time>
      </trkpt>
      <trkpt lat="44.24868" lon="7.04737">
        <ele>1944.5999755859</ele>
        <time>2018-05-09T09:52:48.000Z</time>
      </trkpt>
      <trkpt lat="44.24868" lon="7.04737">
        <ele>1944.5999755859</ele>
        <time>2018-05-09T09:52:54.000Z</time>
      </trkpt>
      <trkpt lat="44.24867" lon="7.04738">
        <ele>1944.5999755859</ele>
        <time>2018-05-09T09:52:56.000Z</time>
      </trkpt>
      <trkpt lat="44.24867" lon="7.04738">
        <ele>1944.5999755859</ele>
        <time>2018-05-09T09:52:57.000Z</time>
      </trkpt>
      <trkpt lat="44.24866" lon="7.04739">
        <ele>1944.5999755859</ele>
        <time>2018-05-09T09:52:58.000Z</time>
      </trkpt>
      <trkpt lat="44.24866" lon="7.04739">
        <ele>1944.5999755859</ele>
        <time>2018-05-09T09:53:00.000Z</time>
      </trkpt>
      <trkpt lat="44.24866" lon="7.0474">
        <ele>1944.5999755859</ele>
        <time>2018-05-09T09:53:01.000Z</time>
      </trkpt>
      <trkpt lat="44.24866" lon="7.0474">
        <ele>1944.5999755859</ele>
        <time>2018-05-09T09:53:03.000Z</time>
      </trkpt>
      <trkpt lat="44.24865" lon="7.04739">
        <ele>1944.4000244141</ele>
        <time>2018-05-09T09:53:07.000Z</time>
      </trkpt>
      <trkpt lat="44.24865" lon="7.04739">
        <ele>1944.1999511719</ele>
        <time>2018-05-09T09:53:08.000Z</time>
      </trkpt>
      <trkpt lat="44.24866" lon="7.04738">
        <ele>1944.4000244141</ele>
        <time>2018-05-09T09:53:10.000Z</time>
      </trkpt>
      <trkpt lat="44.24866" lon="7.04738">
        <ele>1944.4000244141</ele>
        <time>2018-05-09T09:53:12.000Z</time>
      </trkpt>
      <trkpt lat="44.24866" lon="7.04738">
        <ele>1944.4000244141</ele>
        <time>2018-05-09T09:53:13.000Z</time>
      </trkpt>
      <trkpt lat="44.24868" lon="7.04738">
        <ele>1944.4000244141</ele>
        <time>2018-05-09T09:53:22.000Z</time>
      </trkpt>
      <trkpt lat="44.24869" lon="7.04739">
        <ele>1944.4000244141</ele>
        <time>2018-05-09T09:53:24.000Z</time>
      </trkpt>
      <trkpt lat="44.2487" lon="7.04739">
        <ele>1944.4000244141</ele>
        <time>2018-05-09T09:53:25.000Z</time>
      </trkpt>
      <trkpt lat="44.24871" lon="7.04739">
        <ele>1944.4000244141</ele>
        <time>2018-05-09T09:53:28.000Z</time>
      </trkpt>
      <trkpt lat="44.24871" lon="7.04739">
        <ele>1944.4000244141</ele>
        <time>2018-05-09T09:53:29.000Z</time>
      </trkpt>
      <trkpt lat="44.24871" lon="7.0474">
        <ele>1944.4000244141</ele>
        <time>2018-05-09T09:53:30.000Z</time>
      </trkpt>
      <trkpt lat="44.24872" lon="7.0474">
        <ele>1944.4000244141</ele>
        <time>2018-05-09T09:53:33.000Z</time>
      </trkpt>
      <trkpt lat="44.24871" lon="7.04742">
        <ele>1944.4000244141</ele>
        <time>2018-05-09T09:53:38.000Z</time>
      </trkpt>
      <trkpt lat="44.24871" lon="7.04739">
        <ele>1944.4000244141</ele>
        <time>2018-05-09T09:53:40.000Z</time>
      </trkpt>
      <trkpt lat="44.24872" lon="7.04738">
        <ele>1944.4000244141</ele>
        <time>2018-05-09T09:53:42.000Z</time>
      </trkpt>
      <trkpt lat="44.24871" lon="7.04738">
        <ele>1944.4000244141</ele>
        <time>2018-05-09T09:53:45.000Z</time>
      </trkpt>
      <trkpt lat="44.24871" lon="7.04738">
        <ele>1944.4000244141</ele>
        <time>2018-05-09T09:53:48.000Z</time>
      </trkpt>
      <trkpt lat="44.24872" lon="7.04738">
        <ele>1944.4000244141</ele>
        <time>2018-05-09T09:53:52.000Z</time>
      </trkpt>
      <trkpt lat="44.24871" lon="7.04737">
        <ele>1944.4000244141</ele>
        <time>2018-05-09T09:54:02.000Z</time>
      </trkpt>
      <trkpt lat="44.24881" lon="7.04736">
        <ele>1944.4000244141</ele>
        <time>2018-05-09T09:54:16.000Z</time>
      </trkpt>
      <trkpt lat="44.24883" lon="7.04737">
        <ele>1944.4000244141</ele>
        <time>2018-05-09T09:54:18.000Z</time>
      </trkpt>
      <trkpt lat="44.24879" lon="7.04738">
        <ele>1944.4000244141</ele>
        <time>2018-05-09T09:54:20.000Z</time>
      </trkpt>
      <trkpt lat="44.24875" lon="7.04738">
        <ele>1944.4000244141</ele>
        <time>2018-05-09T09:54:25.000Z</time>
      </trkpt>
      <trkpt lat="44.24873" lon="7.04737">
        <ele>1944.4000244141</ele>
        <time>2018-05-09T09:54:27.000Z</time>
      </trkpt>
      <trkpt lat="44.24872" lon="7.04737">
        <ele>1944</ele>
        <time>2018-05-09T09:54:29.000Z</time>
      </trkpt>
      <trkpt lat="44.24871" lon="7.04736">
        <ele>1944.1999511719</ele>
        <time>2018-05-09T09:54:30.000Z</time>
      </trkpt>
      <trkpt lat="44.24866" lon="7.0474">
        <ele>1943.8000488281</ele>
        <time>2018-05-09T09:54:59.000Z</time>
      </trkpt>
      <trkpt lat="44.24865" lon="7.0474">
        <ele>1943.5999755859</ele>
        <time>2018-05-09T09:55:07.000Z</time>
      </trkpt>
      <trkpt lat="44.2487" lon="7.04738">
        <ele>1943.8000488281</ele>
        <time>2018-05-09T09:55:16.000Z</time>
      </trkpt>
      <trkpt lat="44.24874" lon="7.04738">
        <ele>1943.8000488281</ele>
        <time>2018-05-09T09:55:18.000Z</time>
      </trkpt>
      <trkpt lat="44.24873" lon="7.04738">
        <ele>1943.8000488281</ele>
        <time>2018-05-09T09:55:20.000Z</time>
      </trkpt>
      <trkpt lat="44.24871" lon="7.04736">
        <ele>1944</ele>
        <time>2018-05-09T09:55:26.000Z</time>
      </trkpt>
      <trkpt lat="44.2487" lon="7.04736">
        <ele>1944</ele>
        <time>2018-05-09T09:55:31.000Z</time>
      </trkpt>
      <trkpt lat="44.24867" lon="7.04737">
        <ele>1944</ele>
        <time>2018-05-09T09:55:33.000Z</time>
      </trkpt>
      <trkpt lat="44.24865" lon="7.04738">
        <ele>1944</ele>
        <time>2018-05-09T09:55:34.000Z</time>
      </trkpt>
      <trkpt lat="44.24864" lon="7.04737">
        <ele>1944</ele>
        <time>2018-05-09T09:55:35.000Z</time>
      </trkpt>
      <trkpt lat="44.24863" lon="7.04739">
        <ele>1944</ele>
        <time>2018-05-09T09:55:36.000Z</time>
      </trkpt>
      <trkpt lat="44.24862" lon="7.04738">
        <ele>1944.1999511719</ele>
        <time>2018-05-09T09:55:38.000Z</time>
      </trkpt>
      <trkpt lat="44.24862" lon="7.04736">
        <ele>1944.1999511719</ele>
        <time>2018-05-09T09:55:39.000Z</time>
      </trkpt>
      <trkpt lat="44.24861" lon="7.04732">
        <ele>1944.4000244141</ele>
        <time>2018-05-09T09:55:43.000Z</time>
      </trkpt>
      <trkpt lat="44.24861" lon="7.04728">
        <ele>1944.4000244141</ele>
        <time>2018-05-09T09:55:47.000Z</time>
      </trkpt>
      <trkpt lat="44.24861" lon="7.04723">
        <ele>1945</ele>
        <time>2018-05-09T09:55:51.000Z</time>
      </trkpt>
      <trkpt lat="44.24862" lon="7.04721">
        <ele>1945.4000244141</ele>
        <time>2018-05-09T09:55:53.000Z</time>
      </trkpt>
      <trkpt lat="44.24862" lon="7.0472">
        <ele>1945.5999755859</ele>
        <time>2018-05-09T09:55:54.000Z</time>
      </trkpt>
      <trkpt lat="44.24862" lon="7.04719">
        <ele>1945.8000488281</ele>
        <time>2018-05-09T09:55:55.000Z</time>
      </trkpt>
      <trkpt lat="44.24863" lon="7.04717">
        <ele>1946</ele>
        <time>2018-05-09T09:55:56.000Z</time>
      </trkpt>
      <trkpt lat="44.24863" lon="7.04716">
        <ele>1946.1999511719</ele>
        <time>2018-05-09T09:55:58.000Z</time>
      </trkpt>
      <trkpt lat="44.24863" lon="7.04714">
        <ele>1946.5999755859</ele>
        <time>2018-05-09T09:56:00.000Z</time>
      </trkpt>
      <trkpt lat="44.24862" lon="7.04713">
        <ele>1946.5999755859</ele>
        <time>2018-05-09T09:56:01.000Z</time>
      </trkpt>
      <trkpt lat="44.24862" lon="7.0471">
        <ele>1947.1999511719</ele>
        <time>2018-05-09T09:56:04.000Z</time>
      </trkpt>
      <trkpt lat="44.24862" lon="7.04708">
        <ele>1947.5999755859</ele>
        <time>2018-05-09T09:56:06.000Z</time>
      </trkpt>
      <trkpt lat="44.24861" lon="7.04704">
        <ele>1948.4000244141</ele>
        <time>2018-05-09T09:56:11.000Z</time>
      </trkpt>
      <trkpt lat="44.2486" lon="7.04703">
        <ele>1948.8000488281</ele>
        <time>2018-05-09T09:56:13.000Z</time>
      </trkpt>
      <trkpt lat="44.24858" lon="7.04702">
        <ele>1949.8000488281</ele>
        <time>2018-05-09T09:56:18.000Z</time>
      </trkpt>
      <trkpt lat="44.24857" lon="7.04699">
        <ele>1950.8000488281</ele>
        <time>2018-05-09T09:56:26.000Z</time>
      </trkpt>
      <trkpt lat="44.24851" lon="7.04712">
        <ele>1951.1999511719</ele>
        <time>2018-05-09T09:57:00.000Z</time>
      </trkpt>
      <trkpt lat="44.2485" lon="7.04715">
        <ele>1951.1999511719</ele>
        <time>2018-05-09T09:57:01.000Z</time>
      </trkpt>
      <trkpt lat="44.24849" lon="7.04716">
        <ele>1951.4000244141</ele>
        <time>2018-05-09T09:57:02.000Z</time>
      </trkpt>
      <trkpt lat="44.24849" lon="7.04715">
        <ele>1951.4000244141</ele>
        <time>2018-05-09T09:57:03.000Z</time>
      </trkpt>
      <trkpt lat="44.24852" lon="7.04704">
        <ele>1952</ele>
        <time>2018-05-09T09:57:13.000Z</time>
      </trkpt>
      <trkpt lat="44.24851" lon="7.04697">
        <ele>1953.1999511719</ele>
        <time>2018-05-09T09:57:23.000Z</time>
      </trkpt>
      <trkpt lat="44.2485" lon="7.04691">
        <ele>1953.8000488281</ele>
        <time>2018-05-09T09:57:39.000Z</time>
      </trkpt>
      <trkpt lat="44.2485" lon="7.0469">
        <ele>1954.1999511719</ele>
        <time>2018-05-09T09:57:40.000Z</time>
      </trkpt>
      <trkpt lat="44.2485" lon="7.04689">
        <ele>1954.5999755859</ele>
        <time>2018-05-09T09:57:42.000Z</time>
      </trkpt>
      <trkpt lat="44.24851" lon="7.04688">
        <ele>1955.1999511719</ele>
        <time>2018-05-09T09:57:45.000Z</time>
      </trkpt>
      <trkpt lat="44.24851" lon="7.04687">
        <ele>1955.5999755859</ele>
        <time>2018-05-09T09:57:47.000Z</time>
      </trkpt>
      <trkpt lat="44.24849" lon="7.04688">
        <ele>1956.1999511719</ele>
        <time>2018-05-09T09:57:50.000Z</time>
      </trkpt>
      <trkpt lat="44.24848" lon="7.04687">
        <ele>1956.4000244141</ele>
        <time>2018-05-09T09:57:51.000Z</time>
      </trkpt>
      <trkpt lat="44.24846" lon="7.04688">
        <ele>1957</ele>
        <time>2018-05-09T09:57:54.000Z</time>
      </trkpt>
      <trkpt lat="44.24846" lon="7.04687">
        <ele>1957.1999511719</ele>
        <time>2018-05-09T09:57:55.000Z</time>
      </trkpt>
      <trkpt lat="44.24845" lon="7.04686">
        <ele>1957.4000244141</ele>
        <time>2018-05-09T09:57:56.000Z</time>
      </trkpt>
      <trkpt lat="44.24847" lon="7.04692">
        <ele>1957.5999755859</ele>
        <time>2018-05-09T09:58:09.000Z</time>
      </trkpt>
      <trkpt lat="44.24846" lon="7.04691">
        <ele>1957.5999755859</ele>
        <time>2018-05-09T09:58:13.000Z</time>
      </trkpt>
      <trkpt lat="44.24843" lon="7.04695">
        <ele>1957.5999755859</ele>
        <time>2018-05-09T09:58:18.000Z</time>
      </trkpt>
      <trkpt lat="44.24842" lon="7.04694">
        <ele>1957.5999755859</ele>
        <time>2018-05-09T09:58:21.000Z</time>
      </trkpt>
      <trkpt lat="44.24843" lon="7.04693">
        <ele>1957.5999755859</ele>
        <time>2018-05-09T09:58:24.000Z</time>
      </trkpt>
      <trkpt lat="44.24841" lon="7.0469">
        <ele>1958</ele>
        <time>2018-05-09T09:58:29.000Z</time>
      </trkpt>
      <trkpt lat="44.24841" lon="7.04689">
        <ele>1958.1999511719</ele>
        <time>2018-05-09T09:58:30.000Z</time>
      </trkpt>
      <trkpt lat="44.2484" lon="7.04686">
        <ele>1958.8000488281</ele>
        <time>2018-05-09T09:58:32.000Z</time>
      </trkpt>
      <trkpt lat="44.24839" lon="7.04686">
        <ele>1959</ele>
        <time>2018-05-09T09:58:33.000Z</time>
      </trkpt>
      <trkpt lat="44.24838" lon="7.04687">
        <ele>1959.1999511719</ele>
        <time>2018-05-09T09:58:34.000Z</time>
      </trkpt>
      <trkpt lat="44.24837" lon="7.04686">
        <ele>1959.4000244141</ele>
        <time>2018-05-09T09:58:35.000Z</time>
      </trkpt>
      <trkpt lat="44.24836" lon="7.04686">
        <ele>1959.5999755859</ele>
        <time>2018-05-09T09:58:36.000Z</time>
      </trkpt>
      <trkpt lat="44.24835" lon="7.04685">
        <ele>1959.5999755859</ele>
        <time>2018-05-09T09:58:37.000Z</time>
      </trkpt>
      <trkpt lat="44.24833" lon="7.04683">
        <ele>1959.8000488281</ele>
        <time>2018-05-09T09:58:39.000Z</time>
      </trkpt>
      <trkpt lat="44.24833" lon="7.04682">
        <ele>1959.8000488281</ele>
        <time>2018-05-09T09:58:40.000Z</time>
      </trkpt>
      <trkpt lat="44.24831" lon="7.04681">
        <ele>1960</ele>
        <time>2018-05-09T09:58:43.000Z</time>
      </trkpt>
      <trkpt lat="44.2483" lon="7.04681">
        <ele>1960</ele>
        <time>2018-05-09T09:58:44.000Z</time>
      </trkpt>
      <trkpt lat="44.2483" lon="7.04677">
        <ele>1960.1999511719</ele>
        <time>2018-05-09T09:58:46.000Z</time>
      </trkpt>
      <trkpt lat="44.24829" lon="7.04675">
        <ele>1960.4000244141</ele>
        <time>2018-05-09T09:58:47.000Z</time>
      </trkpt>
      <trkpt lat="44.24829" lon="7.04675">
        <ele>1960.5999755859</ele>
        <time>2018-05-09T09:58:48.000Z</time>
      </trkpt>
      <trkpt lat="44.24832" lon="7.04666">
        <ele>1961.1999511719</ele>
        <time>2018-05-09T09:58:56.000Z</time>
      </trkpt>
      <trkpt lat="44.24832" lon="7.04668">
        <ele>1961.1999511719</ele>
        <time>2018-05-09T09:58:58.000Z</time>
      </trkpt>
      <trkpt lat="44.24833" lon="7.04668">
        <ele>1961.1999511719</ele>
        <time>2018-05-09T09:58:59.000Z</time>
      </trkpt>
      <trkpt lat="44.24834" lon="7.04671">
        <ele>1961.5999755859</ele>
        <time>2018-05-09T09:59:06.000Z</time>
      </trkpt>
      <trkpt lat="44.24837" lon="7.04671">
        <ele>1962.8000488281</ele>
        <time>2018-05-09T09:59:11.000Z</time>
      </trkpt>
      <trkpt lat="44.24837" lon="7.04674">
        <ele>1963.5999755859</ele>
        <time>2018-05-09T09:59:14.000Z</time>
      </trkpt>
      <trkpt lat="44.24835" lon="7.04676">
        <ele>1964</ele>
        <time>2018-05-09T09:59:17.000Z</time>
      </trkpt>
      <trkpt lat="44.2483" lon="7.0468">
        <ele>1964.5999755859</ele>
        <time>2018-05-09T09:59:21.000Z</time>
      </trkpt>
      <trkpt lat="44.24829" lon="7.04681">
        <ele>1964.5999755859</ele>
        <time>2018-05-09T09:59:23.000Z</time>
      </trkpt>
      <trkpt lat="44.24829" lon="7.04681">
        <ele>1964.8000488281</ele>
        <time>2018-05-09T09:59:26.000Z</time>
      </trkpt>
      <trkpt lat="44.24828" lon="7.0468">
        <ele>1965</ele>
        <time>2018-05-09T09:59:29.000Z</time>
      </trkpt>
      <trkpt lat="44.24827" lon="7.04682">
        <ele>1966</ele>
        <time>2018-05-09T09:59:36.000Z</time>
      </trkpt>
      <trkpt lat="44.24827" lon="7.04682">
        <ele>1966.1999511719</ele>
        <time>2018-05-09T09:59:38.000Z</time>
      </trkpt>
      <trkpt lat="44.2482" lon="7.04694">
        <ele>1967.1999511719</ele>
        <time>2018-05-09T09:59:42.000Z</time>
      </trkpt>
      <trkpt lat="44.24801" lon="7.04746">
        <ele>1968</ele>
        <time>2018-05-09T09:59:53.000Z</time>
      </trkpt>
      <trkpt lat="44.24811" lon="7.04754">
        <ele>1968</ele>
        <time>2018-05-09T09:59:57.000Z</time>
      </trkpt>
      <trkpt lat="44.24816" lon="7.04729">
        <ele>1967.5999755859</ele>
        <time>2018-05-09T10:00:01.000Z</time>
      </trkpt>
      <trkpt lat="44.24821" lon="7.04714">
        <ele>1967.5999755859</ele>
        <time>2018-05-09T10:00:05.000Z</time>
      </trkpt>
      <trkpt lat="44.24823" lon="7.04705">
        <ele>1967.5999755859</ele>
        <time>2018-05-09T10:00:08.000Z</time>
      </trkpt>
      <trkpt lat="44.24828" lon="7.04685">
        <ele>1967.4000244141</ele>
        <time>2018-05-09T10:00:13.000Z</time>
      </trkpt>
      <trkpt lat="44.24827" lon="7.04682">
        <ele>1967.5999755859</ele>
        <time>2018-05-09T10:00:16.000Z</time>
      </trkpt>
      <trkpt lat="44.24826" lon="7.04681">
        <ele>1967.5999755859</ele>
        <time>2018-05-09T10:00:19.000Z</time>
      </trkpt>
      <trkpt lat="44.24826" lon="7.0468">
        <ele>1967.5999755859</ele>
        <time>2018-05-09T10:00:22.000Z</time>
      </trkpt>
      <trkpt lat="44.24826" lon="7.04677">
        <ele>1967.4000244141</ele>
        <time>2018-05-09T10:00:24.000Z</time>
      </trkpt>
      <trkpt lat="44.24826" lon="7.04676">
        <ele>1967.4000244141</ele>
        <time>2018-05-09T10:00:26.000Z</time>
      </trkpt>
      <trkpt lat="44.2482" lon="7.04664">
        <ele>1968</ele>
        <time>2018-05-09T10:04:24.000Z</time>
      </trkpt>
      <trkpt lat="44.24829" lon="7.04677">
        <ele>1967.8000488281</ele>
        <time>2018-05-09T10:04:27.000Z</time>
      </trkpt>
      <trkpt lat="44.2483" lon="7.04674">
        <ele>1967.8000488281</ele>
        <time>2018-05-09T10:04:28.000Z</time>
      </trkpt>
      <trkpt lat="44.24832" lon="7.04673">
        <ele>1967.8000488281</ele>
        <time>2018-05-09T10:04:30.000Z</time>
      </trkpt>
      <trkpt lat="44.24837" lon="7.04667">
        <ele>1968.1999511719</ele>
        <time>2018-05-09T10:04:34.000Z</time>
      </trkpt>
      <trkpt lat="44.24837" lon="7.04669">
        <ele>1968</ele>
        <time>2018-05-09T10:04:36.000Z</time>
      </trkpt>
      <trkpt lat="44.24837" lon="7.04674">
        <ele>1967.8000488281</ele>
        <time>2018-05-09T10:04:39.000Z</time>
      </trkpt>
      <trkpt lat="44.24837" lon="7.04676">
        <ele>1967</ele>
        <time>2018-05-09T10:04:42.000Z</time>
      </trkpt>
      <trkpt lat="44.24836" lon="7.04675">
        <ele>1966.5999755859</ele>
        <time>2018-05-09T10:04:43.000Z</time>
      </trkpt>
      <trkpt lat="44.24837" lon="7.04674">
        <ele>1966</ele>
        <time>2018-05-09T10:04:46.000Z</time>
      </trkpt>
      <trkpt lat="44.24837" lon="7.04672">
        <ele>1965.8000488281</ele>
        <time>2018-05-09T10:04:47.000Z</time>
      </trkpt>
      <trkpt lat="44.24836" lon="7.04674">
        <ele>1965.4000244141</ele>
        <time>2018-05-09T10:04:50.000Z</time>
      </trkpt>
      <trkpt lat="44.24831" lon="7.04684">
        <ele>1964.8000488281</ele>
        <time>2018-05-09T10:04:55.000Z</time>
      </trkpt>
      <trkpt lat="44.24831" lon="7.04684">
        <ele>1964.5999755859</ele>
        <time>2018-05-09T10:04:57.000Z</time>
      </trkpt>
      <trkpt lat="44.24833" lon="7.04682">
        <ele>1964.5999755859</ele>
        <time>2018-05-09T10:05:03.000Z</time>
      </trkpt>
      <trkpt lat="44.24832" lon="7.04682">
        <ele>1964.4000244141</ele>
        <time>2018-05-09T10:05:05.000Z</time>
      </trkpt>
      <trkpt lat="44.24831" lon="7.04681">
        <ele>1964</ele>
        <time>2018-05-09T10:05:07.000Z</time>
      </trkpt>
      <trkpt lat="44.24831" lon="7.04681">
        <ele>1963.5999755859</ele>
        <time>2018-05-09T10:05:08.000Z</time>
      </trkpt>
      <trkpt lat="44.24831" lon="7.0468">
        <ele>1962.8000488281</ele>
        <time>2018-05-09T10:05:11.000Z</time>
      </trkpt>
      <trkpt lat="44.24833" lon="7.0468">
        <ele>1962.4000244141</ele>
        <time>2018-05-09T10:05:12.000Z</time>
      </trkpt>
      <trkpt lat="44.24833" lon="7.0468">
        <ele>1962</ele>
        <time>2018-05-09T10:05:13.000Z</time>
      </trkpt>
      <trkpt lat="44.24835" lon="7.04681">
        <ele>1961.5999755859</ele>
        <time>2018-05-09T10:05:15.000Z</time>
      </trkpt>
      <trkpt lat="44.24836" lon="7.04684">
        <ele>1961</ele>
        <time>2018-05-09T10:05:17.000Z</time>
      </trkpt>
      <trkpt lat="44.24837" lon="7.04685">
        <ele>1960.5999755859</ele>
        <time>2018-05-09T10:05:19.000Z</time>
      </trkpt>
      <trkpt lat="44.24838" lon="7.04689">
        <ele>1959.8000488281</ele>
        <time>2018-05-09T10:05:23.000Z</time>
      </trkpt>
      <trkpt lat="44.24838" lon="7.04692">
        <ele>1959</ele>
        <time>2018-05-09T10:05:25.000Z</time>
      </trkpt>
      <trkpt lat="44.24838" lon="7.04692">
        <ele>1958.8000488281</ele>
        <time>2018-05-09T10:05:26.000Z</time>
      </trkpt>
      <trkpt lat="44.24839" lon="7.04691">
        <ele>1958.4000244141</ele>
        <time>2018-05-09T10:05:28.000Z</time>
      </trkpt>
      <trkpt lat="44.24838" lon="7.04693">
        <ele>1957.5999755859</ele>
        <time>2018-05-09T10:05:32.000Z</time>
      </trkpt>
      <trkpt lat="44.24843" lon="7.04685">
        <ele>1957</ele>
        <time>2018-05-09T10:05:39.000Z</time>
      </trkpt>
      <trkpt lat="44.24843" lon="7.04685">
        <ele>1956.5999755859</ele>
        <time>2018-05-09T10:05:41.000Z</time>
      </trkpt>
      <trkpt lat="44.24843" lon="7.04685">
        <ele>1956.4000244141</ele>
        <time>2018-05-09T10:05:42.000Z</time>
      </trkpt>
      <trkpt lat="44.24843" lon="7.04688">
        <ele>1955.8000488281</ele>
        <time>2018-05-09T10:05:44.000Z</time>
      </trkpt>
      <trkpt lat="44.24843" lon="7.0469">
        <ele>1955.4000244141</ele>
        <time>2018-05-09T10:05:46.000Z</time>
      </trkpt>
      <trkpt lat="44.24844" lon="7.04694">
        <ele>1954.5999755859</ele>
        <time>2018-05-09T10:05:59.000Z</time>
      </trkpt>
      <trkpt lat="44.24845" lon="7.04697">
        <ele>1954.4000244141</ele>
        <time>2018-05-09T10:06:04.000Z</time>
      </trkpt>
      <trkpt lat="44.24847" lon="7.04704">
        <ele>1953</ele>
        <time>2018-05-09T10:06:13.000Z</time>
      </trkpt>
      <trkpt lat="44.24846" lon="7.04704">
        <ele>1952</ele>
        <time>2018-05-09T10:06:20.000Z</time>
      </trkpt>
      <trkpt lat="44.24846" lon="7.04707">
        <ele>1951.4000244141</ele>
        <time>2018-05-09T10:06:24.000Z</time>
      </trkpt>
      <trkpt lat="44.24847" lon="7.04708">
        <ele>1951</ele>
        <time>2018-05-09T10:06:36.000Z</time>
      </trkpt>
      <trkpt lat="44.24848" lon="7.04712">
        <ele>1950.5999755859</ele>
        <time>2018-05-09T10:06:41.000Z</time>
      </trkpt>
      <trkpt lat="44.24848" lon="7.04714">
        <ele>1949.8000488281</ele>
        <time>2018-05-09T10:06:45.000Z</time>
      </trkpt>
      <trkpt lat="44.24851" lon="7.04717">
        <ele>1949.4000244141</ele>
        <time>2018-05-09T10:06:51.000Z</time>
      </trkpt>
      <trkpt lat="44.24853" lon="7.04717">
        <ele>1949</ele>
        <time>2018-05-09T10:06:53.000Z</time>
      </trkpt>
      <trkpt lat="44.24853" lon="7.04719">
        <ele>1948.8000488281</ele>
        <time>2018-05-09T10:06:54.000Z</time>
      </trkpt>
      <trkpt lat="44.24854" lon="7.04722">
        <ele>1948.1999511719</ele>
        <time>2018-05-09T10:06:56.000Z</time>
      </trkpt>
      <trkpt lat="44.24856" lon="7.04724">
        <ele>1947.5999755859</ele>
        <time>2018-05-09T10:06:58.000Z</time>
      </trkpt>
      <trkpt lat="44.24859" lon="7.04729">
        <ele>1946.4000244141</ele>
        <time>2018-05-09T10:07:02.000Z</time>
      </trkpt>
      <trkpt lat="44.24861" lon="7.04732">
        <ele>1945.8000488281</ele>
        <time>2018-05-09T10:07:05.000Z</time>
      </trkpt>
      <trkpt lat="44.24863" lon="7.04735">
        <ele>1945.1999511719</ele>
        <time>2018-05-09T10:07:08.000Z</time>
      </trkpt>
      <trkpt lat="44.24863" lon="7.04736">
        <ele>1944.8000488281</ele>
        <time>2018-05-09T10:07:10.000Z</time>
      </trkpt>
      <trkpt lat="44.24864" lon="7.04737">
        <ele>1944.5999755859</ele>
        <time>2018-05-09T10:07:11.000Z</time>
      </trkpt>
      <trkpt lat="44.24864" lon="7.04738">
        <ele>1944.5999755859</ele>
        <time>2018-05-09T10:07:12.000Z</time>
      </trkpt>
      <trkpt lat="44.24864" lon="7.04738">
        <ele>1944.4000244141</ele>
        <time>2018-05-09T10:07:13.000Z</time>
      </trkpt>
      <trkpt lat="44.24864" lon="7.04738">
        <ele>1944.1999511719</ele>
        <time>2018-05-09T10:07:14.000Z</time>
      </trkpt>
      <trkpt lat="44.24864" lon="7.04739">
        <ele>1944.1999511719</ele>
        <time>2018-05-09T10:07:15.000Z</time>
      </trkpt>
      <trkpt lat="44.24865" lon="7.0474">
        <ele>1944.1999511719</ele>
        <time>2018-05-09T10:07:20.000Z</time>
      </trkpt>
      <trkpt lat="44.24867" lon="7.04739">
        <ele>1944.4000244141</ele>
        <time>2018-05-09T10:07:25.000Z</time>
      </trkpt>
      <trkpt lat="44.24868" lon="7.04741">
        <ele>1944.1999511719</ele>
        <time>2018-05-09T10:07:31.000Z</time>
      </trkpt>
      <trkpt lat="44.24869" lon="7.04742">
        <ele>1944.1999511719</ele>
        <time>2018-05-09T10:07:32.000Z</time>
      </trkpt>
      <trkpt lat="44.24869" lon="7.04742">
        <ele>1944.1999511719</ele>
        <time>2018-05-09T10:07:33.000Z</time>
      </trkpt>
      <trkpt lat="44.24869" lon="7.04742">
        <ele>1944.1999511719</ele>
        <time>2018-05-09T10:07:36.000Z</time>
      </trkpt>
      <trkpt lat="44.24869" lon="7.04742">
        <ele>1944.1999511719</ele>
        <time>2018-05-09T10:07:39.000Z</time>
      </trkpt>
      <trkpt lat="44.24867" lon="7.04737">
        <ele>1944.1999511719</ele>
        <time>2018-05-09T10:07:46.000Z</time>
      </trkpt>
      <trkpt lat="44.24866" lon="7.04737">
        <ele>1944.1999511719</ele>
        <time>2018-05-09T10:07:47.000Z</time>
      </trkpt>
      <trkpt lat="44.24866" lon="7.04737">
        <ele>1944.1999511719</ele>
        <time>2018-05-09T10:07:49.000Z</time>
      </trkpt>
      <trkpt lat="44.24866" lon="7.04737">
        <ele>1944.1999511719</ele>
        <time>2018-05-09T10:07:51.000Z</time>
      </trkpt>
      <trkpt lat="44.2487" lon="7.04741">
        <ele>1944.4000244141</ele>
        <time>2018-05-09T10:07:59.000Z</time>
      </trkpt>
      <trkpt lat="44.24869" lon="7.04741">
        <ele>1944.1999511719</ele>
        <time>2018-05-09T10:08:08.000Z</time>
      </trkpt>
      <trkpt lat="44.24869" lon="7.04741">
        <ele>1944.1999511719</ele>
        <time>2018-05-09T10:08:14.000Z</time>
      </trkpt>
      <trkpt lat="44.24868" lon="7.0474">
        <ele>1944</ele>
        <time>2018-05-09T10:08:19.000Z</time>
      </trkpt>
      <trkpt lat="44.2487" lon="7.0474">
        <ele>1943.8000488281</ele>
        <time>2018-05-09T10:08:31.000Z</time>
      </trkpt>
      <trkpt lat="44.2487" lon="7.0474">
        <ele>1943.8000488281</ele>
        <time>2018-05-09T10:08:32.000Z</time>
      </trkpt>
      <trkpt lat="44.2487" lon="7.0474">
        <ele>1943.8000488281</ele>
        <time>2018-05-09T10:08:33.000Z</time>
      </trkpt>
      <trkpt lat="44.2487" lon="7.04739">
        <ele>1943.5999755859</ele>
        <time>2018-05-09T10:08:39.000Z</time>
      </trkpt>
      <trkpt lat="44.2487" lon="7.04739">
        <ele>1943.5999755859</ele>
        <time>2018-05-09T10:08:41.000Z</time>
      </trkpt>
      <trkpt lat="44.24873" lon="7.04735">
        <ele>1944.1999511719</ele>
        <time>2018-05-09T10:08:51.000Z</time>
      </trkpt>
      <trkpt lat="44.24874" lon="7.04735">
        <ele>1944.1999511719</ele>
        <time>2018-05-09T10:08:53.000Z</time>
      </trkpt>
      <trkpt lat="44.24872" lon="7.04734">
        <ele>1943.8000488281</ele>
        <time>2018-05-09T10:09:00.000Z</time>
      </trkpt>
      <trkpt lat="44.24871" lon="7.04735">
        <ele>1944</ele>
        <time>2018-05-09T10:09:04.000Z</time>
      </trkpt>
      <trkpt lat="44.24869" lon="7.04736">
        <ele>1943.8000488281</ele>
        <time>2018-05-09T10:09:08.000Z</time>
      </trkpt>
      <trkpt lat="44.24868" lon="7.04735">
        <ele>1943.8000488281</ele>
        <time>2018-05-09T10:09:10.000Z</time>
      </trkpt>
      <trkpt lat="44.24868" lon="7.04736">
        <ele>1943.5999755859</ele>
        <time>2018-05-09T10:09:14.000Z</time>
      </trkpt>
      <trkpt lat="44.24869" lon="7.04735">
        <ele>1943.4000244141</ele>
        <time>2018-05-09T10:09:22.000Z</time>
      </trkpt>
      <trkpt lat="44.24869" lon="7.04735">
        <ele>1943.4000244141</ele>
        <time>2018-05-09T10:09:29.000Z</time>
      </trkpt>
      <trkpt lat="44.2487" lon="7.04735">
        <ele>1943.4000244141</ele>
        <time>2018-05-09T10:09:31.000Z</time>
      </trkpt>
      <trkpt lat="44.2487" lon="7.04735">
        <ele>1943.4000244141</ele>
        <time>2018-05-09T10:09:33.000Z</time>
      </trkpt>
      <trkpt lat="44.2487" lon="7.04736">
        <ele>1943.4000244141</ele>
        <time>2018-05-09T10:09:40.000Z</time>
      </trkpt>
      <trkpt lat="44.2487" lon="7.04737">
        <ele>1943.4000244141</ele>
        <time>2018-05-09T10:09:44.000Z</time>
      </trkpt>
      <trkpt lat="44.2487" lon="7.04738">
        <ele>1943.4000244141</ele>
        <time>2018-05-09T10:09:45.000Z</time>
      </trkpt>
      <trkpt lat="44.2487" lon="7.04738">
        <ele>1943.4000244141</ele>
        <time>2018-05-09T10:09:46.000Z</time>
      </trkpt>
      <trkpt lat="44.24868" lon="7.04734">
        <ele>1943.4000244141</ele>
        <time>2018-05-09T10:10:07.000Z</time>
      </trkpt>
      <trkpt lat="44.24869" lon="7.04733">
        <ele>1943.4000244141</ele>
        <time>2018-05-09T10:10:10.000Z</time>
      </trkpt>
      <trkpt lat="44.24872" lon="7.04733">
        <ele>1943.4000244141</ele>
        <time>2018-05-09T10:10:16.000Z</time>
      </trkpt>
      <trkpt lat="44.24872" lon="7.04733">
        <ele>1943.4000244141</ele>
        <time>2018-05-09T10:10:20.000Z</time>
      </trkpt>
      <trkpt lat="44.24872" lon="7.04732">
        <ele>1943.4000244141</ele>
        <time>2018-05-09T10:10:23.000Z</time>
      </trkpt>
      <trkpt lat="44.24872" lon="7.04734">
        <ele>1943.4000244141</ele>
        <time>2018-05-09T10:10:27.000Z</time>
      </trkpt>
      <trkpt lat="44.24871" lon="7.04735">
        <ele>1943.4000244141</ele>
        <time>2018-05-09T10:10:28.000Z</time>
      </trkpt>
      <trkpt lat="44.2487" lon="7.04736">
        <ele>1943.4000244141</ele>
        <time>2018-05-09T10:10:29.000Z</time>
      </trkpt>
      <trkpt lat="44.2487" lon="7.04737">
        <ele>1943.4000244141</ele>
        <time>2018-05-09T10:10:31.000Z</time>
      </trkpt>
      <trkpt lat="44.24871" lon="7.04732">
        <ele>1943.4000244141</ele>
        <time>2018-05-09T10:10:33.000Z</time>
      </trkpt>
      <trkpt lat="44.24872" lon="7.04729">
        <ele>1943.4000244141</ele>
        <time>2018-05-09T10:10:35.000Z</time>
      </trkpt>
      <trkpt lat="44.24874" lon="7.04726">
        <ele>1943.4000244141</ele>
        <time>2018-05-09T10:10:38.000Z</time>
      </trkpt>
      <trkpt lat="44.24874" lon="7.04725">
        <ele>1943.4000244141</ele>
        <time>2018-05-09T10:10:39.000Z</time>
      </trkpt>
      <trkpt lat="44.24873" lon="7.04727">
        <ele>1943.4000244141</ele>
        <time>2018-05-09T10:10:46.000Z</time>
      </trkpt>
      <trkpt lat="44.24873" lon="7.04728">
        <ele>1943.4000244141</ele>
        <time>2018-05-09T10:10:47.000Z</time>
      </trkpt>
      <trkpt lat="44.24873" lon="7.04728">
        <ele>1943.4000244141</ele>
        <time>2018-05-09T10:10:48.000Z</time>
      </trkpt>
      <trkpt lat="44.24873" lon="7.04728">
        <ele>1943.4000244141</ele>
        <time>2018-05-09T10:10:52.000Z</time>
      </trkpt>
      <trkpt lat="44.24872" lon="7.04729">
        <ele>1943.4000244141</ele>
        <time>2018-05-09T10:10:57.000Z</time>
      </trkpt>
      <trkpt lat="44.24872" lon="7.0473">
        <ele>1943.4000244141</ele>
        <time>2018-05-09T10:11:01.000Z</time>
      </trkpt>
      <trkpt lat="44.24872" lon="7.0473">
        <ele>1943.4000244141</ele>
        <time>2018-05-09T10:11:02.000Z</time>
      </trkpt>
      <trkpt lat="44.24872" lon="7.04731">
        <ele>1943.4000244141</ele>
        <time>2018-05-09T10:11:03.000Z</time>
      </trkpt>
      <trkpt lat="44.24871" lon="7.04732">
        <ele>1943.4000244141</ele>
        <time>2018-05-09T10:11:06.000Z</time>
      </trkpt>
      <trkpt lat="44.24869" lon="7.04734">
        <ele>1943.4000244141</ele>
        <time>2018-05-09T10:11:12.000Z</time>
      </trkpt>
      <trkpt lat="44.24869" lon="7.04734">
        <ele>1943.4000244141</ele>
        <time>2018-05-09T10:11:16.000Z</time>
      </trkpt>
      <trkpt lat="44.24869" lon="7.04735">
        <ele>1943.4000244141</ele>
        <time>2018-05-09T10:11:18.000Z</time>
      </trkpt>
      <trkpt lat="44.24872" lon="7.04733">
        <ele>1943.4000244141</ele>
        <time>2018-05-09T10:11:34.000Z</time>
      </trkpt>
      <trkpt lat="44.24872" lon="7.04732">
        <ele>1943.4000244141</ele>
        <time>2018-05-09T10:11:36.000Z</time>
      </trkpt>
      <trkpt lat="44.24869" lon="7.04735">
        <ele>1943.4000244141</ele>
        <time>2018-05-09T10:11:43.000Z</time>
      </trkpt>
      <trkpt lat="44.24869" lon="7.04736">
        <ele>1943.4000244141</ele>
        <time>2018-05-09T10:11:46.000Z</time>
      </trkpt>
      <trkpt lat="44.24869" lon="7.04735">
        <ele>1943.4000244141</ele>
        <time>2018-05-09T10:11:58.000Z</time>
      </trkpt>
      <trkpt lat="44.24869" lon="7.04735">
        <ele>1943.4000244141</ele>
        <time>2018-05-09T10:11:59.000Z</time>
      </trkpt>
      <trkpt lat="44.24869" lon="7.04735">
        <ele>1943.4000244141</ele>
        <time>2018-05-09T10:12:04.000Z</time>
      </trkpt>
      <trkpt lat="44.24869" lon="7.04735">
        <ele>1943.4000244141</ele>
        <time>2018-05-09T10:12:05.000Z</time>
      </trkpt>
      <trkpt lat="44.2487" lon="7.04735">
        <ele>1943.4000244141</ele>
        <time>2018-05-09T10:12:07.000Z</time>
      </trkpt>
      <trkpt lat="44.24871" lon="7.04735">
        <ele>1943.4000244141</ele>
        <time>2018-05-09T10:12:10.000Z</time>
      </trkpt>
      <trkpt lat="44.2487" lon="7.04735">
        <ele>1943.4000244141</ele>
        <time>2018-05-09T10:12:12.000Z</time>
      </trkpt>
      <trkpt lat="44.2487" lon="7.04734">
        <ele>1943.4000244141</ele>
        <time>2018-05-09T10:12:16.000Z</time>
      </trkpt>
      <trkpt lat="44.24871" lon="7.04735">
        <ele>1943.4000244141</ele>
        <time>2018-05-09T10:12:31.000Z</time>
      </trkpt>
      <trkpt lat="44.24872" lon="7.04735">
        <ele>1943.4000244141</ele>
        <time>2018-05-09T10:12:34.000Z</time>
      </trkpt>
      <trkpt lat="44.24872" lon="7.04733">
        <ele>1943.4000244141</ele>
        <time>2018-05-09T10:12:38.000Z</time>
      </trkpt>
      <trkpt lat="44.24872" lon="7.04732">
        <ele>1943.4000244141</ele>
        <time>2018-05-09T10:12:43.000Z</time>
      </trkpt>
      <trkpt lat="44.24872" lon="7.04734">
        <ele>1943.4000244141</ele>
        <time>2018-05-09T10:12:54.000Z</time>
      </trkpt>
      <trkpt lat="44.24872" lon="7.04735">
        <ele>1943.4000244141</ele>
        <time>2018-05-09T10:12:59.000Z</time>
      </trkpt>
      <trkpt lat="44.24872" lon="7.04735">
        <ele>1943.4000244141</ele>
        <time>2018-05-09T10:13:17.000Z</time>
      </trkpt>
      <trkpt lat="44.2487" lon="7.04735">
        <ele>1943.4000244141</ele>
        <time>2018-05-09T10:13:21.000Z</time>
      </trkpt>
      <trkpt lat="44.24871" lon="7.04733">
        <ele>1943.4000244141</ele>
        <time>2018-05-09T10:13:26.000Z</time>
      </trkpt>
      <trkpt lat="44.24871" lon="7.04733">
        <ele>1943.4000244141</ele>
        <time>2018-05-09T10:13:28.000Z</time>
      </trkpt>
      <trkpt lat="44.2487" lon="7.04734">
        <ele>1943.4000244141</ele>
        <time>2018-05-09T10:13:31.000Z</time>
      </trkpt>
      <trkpt lat="44.2487" lon="7.04732">
        <ele>1943.4000244141</ele>
        <time>2018-05-09T10:13:41.000Z</time>
      </trkpt>
      <trkpt lat="44.24872" lon="7.04731">
        <ele>1943.4000244141</ele>
        <time>2018-05-09T10:13:45.000Z</time>
      </trkpt>
      <trkpt lat="44.24871" lon="7.04733">
        <ele>1943.4000244141</ele>
        <time>2018-05-09T10:13:49.000Z</time>
      </trkpt>
      <trkpt lat="44.24871" lon="7.04735">
        <ele>1943.4000244141</ele>
        <time>2018-05-09T10:13:51.000Z</time>
      </trkpt>
      <trkpt lat="44.24871" lon="7.04736">
        <ele>1943.4000244141</ele>
        <time>2018-05-09T10:13:53.000Z</time>
      </trkpt>
      <trkpt lat="44.2487" lon="7.04737">
        <ele>1943.4000244141</ele>
        <time>2018-05-09T10:13:54.000Z</time>
      </trkpt>
      <trkpt lat="44.24869" lon="7.04739">
        <ele>1943.4000244141</ele>
        <time>2018-05-09T10:13:56.000Z</time>
      </trkpt>
      <trkpt lat="44.24868" lon="7.04741">
        <ele>1943.4000244141</ele>
        <time>2018-05-09T10:13:59.000Z</time>
      </trkpt>
      <trkpt lat="44.24869" lon="7.04741">
        <ele>1943.4000244141</ele>
        <time>2018-05-09T10:14:03.000Z</time>
      </trkpt>
      <trkpt lat="44.24868" lon="7.04741">
        <ele>1943.4000244141</ele>
        <time>2018-05-09T10:14:06.000Z</time>
      </trkpt>
      <trkpt lat="44.24869" lon="7.04741">
        <ele>1943.4000244141</ele>
        <time>2018-05-09T10:14:10.000Z</time>
      </trkpt>
      <trkpt lat="44.24868" lon="7.04741">
        <ele>1943.4000244141</ele>
        <time>2018-05-09T10:14:12.000Z</time>
      </trkpt>
      <trkpt lat="44.24869" lon="7.04741">
        <ele>1943.4000244141</ele>
        <time>2018-05-09T10:14:15.000Z</time>
      </trkpt>
      <trkpt lat="44.24869" lon="7.04741">
        <ele>1943.4000244141</ele>
        <time>2018-05-09T10:14:17.000Z</time>
      </trkpt>
      <trkpt lat="44.24863" lon="7.04739">
        <ele>1943.4000244141</ele>
        <time>2018-05-09T10:14:29.000Z</time>
      </trkpt>
      <trkpt lat="44.24865" lon="7.04737">
        <ele>1943.4000244141</ele>
        <time>2018-05-09T10:14:34.000Z</time>
      </trkpt>
      <trkpt lat="44.24868" lon="7.04737">
        <ele>1943.4000244141</ele>
        <time>2018-05-09T10:14:51.000Z</time>
      </trkpt>
      <trkpt lat="44.24869" lon="7.04737">
        <ele>1943.4000244141</ele>
        <time>2018-05-09T10:14:55.000Z</time>
      </trkpt>
      <trkpt lat="44.24869" lon="7.04737">
        <ele>1943.4000244141</ele>
        <time>2018-05-09T10:14:58.000Z</time>
      </trkpt>
      <trkpt lat="44.24869" lon="7.04736">
        <ele>1943.4000244141</ele>
        <time>2018-05-09T10:15:02.000Z</time>
      </trkpt>
      <trkpt lat="44.24869" lon="7.04736">
        <ele>1943.4000244141</ele>
        <time>2018-05-09T10:15:06.000Z</time>
      </trkpt>
      <trkpt lat="44.24869" lon="7.04736">
        <ele>1943.4000244141</ele>
        <time>2018-05-09T10:15:10.000Z</time>
      </trkpt>
      <trkpt lat="44.2487" lon="7.04734">
        <ele>1943.4000244141</ele>
        <time>2018-05-09T10:15:16.000Z</time>
      </trkpt>
      <trkpt lat="44.24871" lon="7.04733">
        <ele>1943.4000244141</ele>
        <time>2018-05-09T10:15:20.000Z</time>
      </trkpt>
      <trkpt lat="44.2487" lon="7.04733">
        <ele>1943.4000244141</ele>
        <time>2018-05-09T10:15:33.000Z</time>
      </trkpt>
      <trkpt lat="44.2487" lon="7.04735">
        <ele>1943.4000244141</ele>
        <time>2018-05-09T10:15:42.000Z</time>
      </trkpt>
      <trkpt lat="44.2487" lon="7.04735">
        <ele>1943.4000244141</ele>
        <time>2018-05-09T10:15:44.000Z</time>
      </trkpt>
      <trkpt lat="44.2487" lon="7.04735">
        <ele>1943.4000244141</ele>
        <time>2018-05-09T10:15:45.000Z</time>
      </trkpt>
      <trkpt lat="44.2487" lon="7.04735">
        <ele>1943.4000244141</ele>
        <time>2018-05-09T10:15:46.000Z</time>
      </trkpt>
      <trkpt lat="44.2487" lon="7.04736">
        <ele>1943.4000244141</ele>
        <time>2018-05-09T10:15:50.000Z</time>
      </trkpt>
      <trkpt lat="44.2487" lon="7.04737">
        <ele>1943.4000244141</ele>
        <time>2018-05-09T10:15:52.000Z</time>
      </trkpt>
      <trkpt lat="44.24869" lon="7.04737">
        <ele>1943.4000244141</ele>
        <time>2018-05-09T10:15:54.000Z</time>
      </trkpt>
      <trkpt lat="44.24869" lon="7.04738">
        <ele>1943.4000244141</ele>
        <time>2018-05-09T10:16:02.000Z</time>
      </trkpt>
      <trkpt lat="44.24869" lon="7.04738">
        <ele>1943.4000244141</ele>
        <time>2018-05-09T10:16:05.000Z</time>
      </trkpt>
      <trkpt lat="44.24869" lon="7.04738">
        <ele>1943.4000244141</ele>
        <time>2018-05-09T10:16:09.000Z</time>
      </trkpt>
      <trkpt lat="44.24869" lon="7.04738">
        <ele>1943.4000244141</ele>
        <time>2018-05-09T10:16:13.000Z</time>
      </trkpt>
      <trkpt lat="44.24868" lon="7.04737">
        <ele>1943.4000244141</ele>
        <time>2018-05-09T10:16:39.000Z</time>
      </trkpt>
      <trkpt lat="44.24869" lon="7.04737">
        <ele>1943.4000244141</ele>
        <time>2018-05-09T10:16:44.000Z</time>
      </trkpt>
      <trkpt lat="44.24872" lon="7.04737">
        <ele>1943.4000244141</ele>
        <time>2018-05-09T10:16:48.000Z</time>
      </trkpt>
      <trkpt lat="44.24873" lon="7.04737">
        <ele>1943.4000244141</ele>
        <time>2018-05-09T10:16:51.000Z</time>
      </trkpt>
      <trkpt lat="44.24872" lon="7.04737">
        <ele>1943.4000244141</ele>
        <time>2018-05-09T10:16:56.000Z</time>
      </trkpt>
      <trkpt lat="44.24872" lon="7.04737">
        <ele>1943.4000244141</ele>
        <time>2018-05-09T10:16:59.000Z</time>
      </trkpt>
      <trkpt lat="44.24871" lon="7.04739">
        <ele>1943.4000244141</ele>
        <time>2018-05-09T10:17:03.000Z</time>
      </trkpt>
      <trkpt lat="44.24871" lon="7.04733">
        <ele>1943.4000244141</ele>
        <time>2018-05-09T10:17:08.000Z</time>
      </trkpt>
      <trkpt lat="44.2487" lon="7.04734">
        <ele>1943.4000244141</ele>
        <time>2018-05-09T10:17:13.000Z</time>
      </trkpt>
      <trkpt lat="44.2487" lon="7.04734">
        <ele>1943.4000244141</ele>
        <time>2018-05-09T10:17:15.000Z</time>
      </trkpt>
      <trkpt lat="44.2487" lon="7.04735">
        <ele>1943.4000244141</ele>
        <time>2018-05-09T10:17:27.000Z</time>
      </trkpt>
      <trkpt lat="44.24871" lon="7.04738">
        <ele>1943.4000244141</ele>
        <time>2018-05-09T10:17:40.000Z</time>
      </trkpt>
      <trkpt lat="44.2487" lon="7.04739">
        <ele>1943.4000244141</ele>
        <time>2018-05-09T10:17:45.000Z</time>
      </trkpt>
      <trkpt lat="44.24869" lon="7.04739">
        <ele>1943.4000244141</ele>
        <time>2018-05-09T10:17:47.000Z</time>
      </trkpt>
      <trkpt lat="44.24869" lon="7.04738">
        <ele>1943.4000244141</ele>
        <time>2018-05-09T10:17:48.000Z</time>
      </trkpt>
      <trkpt lat="44.24869" lon="7.04738">
        <ele>1943.4000244141</ele>
        <time>2018-05-09T10:17:49.000Z</time>
      </trkpt>
      <trkpt lat="44.2487" lon="7.04737">
        <ele>1943.4000244141</ele>
        <time>2018-05-09T10:17:51.000Z</time>
      </trkpt>
      <trkpt lat="44.24872" lon="7.04733">
        <ele>1943.4000244141</ele>
        <time>2018-05-09T10:17:57.000Z</time>
      </trkpt>
      <trkpt lat="44.24872" lon="7.04731">
        <ele>1943.4000244141</ele>
        <time>2018-05-09T10:18:00.000Z</time>
      </trkpt>
      <trkpt lat="44.24873" lon="7.0473">
        <ele>1943.4000244141</ele>
        <time>2018-05-09T10:18:04.000Z</time>
      </trkpt>
      <trkpt lat="44.24873" lon="7.04729">
        <ele>1943.4000244141</ele>
        <time>2018-05-09T10:18:08.000Z</time>
      </trkpt>
      <trkpt lat="44.24873" lon="7.04729">
        <ele>1943.4000244141</ele>
        <time>2018-05-09T10:18:10.000Z</time>
      </trkpt>
      <trkpt lat="44.2487" lon="7.04734">
        <ele>1943.4000244141</ele>
        <time>2018-05-09T10:18:13.000Z</time>
      </trkpt>
      <trkpt lat="44.2487" lon="7.04734">
        <ele>1943.4000244141</ele>
        <time>2018-05-09T10:18:15.000Z</time>
      </trkpt>
      <trkpt lat="44.24869" lon="7.04736">
        <ele>1943.4000244141</ele>
        <time>2018-05-09T10:18:21.000Z</time>
      </trkpt>
      <trkpt lat="44.24869" lon="7.04738">
        <ele>1943.4000244141</ele>
        <time>2018-05-09T10:18:26.000Z</time>
      </trkpt>
      <trkpt lat="44.2487" lon="7.0474">
        <ele>1943.4000244141</ele>
        <time>2018-05-09T10:18:35.000Z</time>
      </trkpt>
      <trkpt lat="44.24871" lon="7.04738">
        <ele>1943.4000244141</ele>
        <time>2018-05-09T10:18:46.000Z</time>
      </trkpt>
      <trkpt lat="44.24871" lon="7.04737">
        <ele>1943.4000244141</ele>
        <time>2018-05-09T10:18:48.000Z</time>
      </trkpt>
      <trkpt lat="44.24872" lon="7.04736">
        <ele>1943.4000244141</ele>
        <time>2018-05-09T10:18:54.000Z</time>
      </trkpt>
      <trkpt lat="44.24871" lon="7.04733">
        <ele>1943.4000244141</ele>
        <time>2018-05-09T10:19:13.000Z</time>
      </trkpt>
      <trkpt lat="44.24868" lon="7.04735">
        <ele>1943.4000244141</ele>
        <time>2018-05-09T10:19:22.000Z</time>
      </trkpt>
      <trkpt lat="44.24868" lon="7.04735">
        <ele>1943.4000244141</ele>
        <time>2018-05-09T10:19:23.000Z</time>
      </trkpt>
      <trkpt lat="44.24868" lon="7.04735">
        <ele>1943.4000244141</ele>
        <time>2018-05-09T10:19:24.000Z</time>
      </trkpt>
      <trkpt lat="44.2487" lon="7.04727">
        <ele>1943.4000244141</ele>
        <time>2018-05-09T10:19:46.000Z</time>
      </trkpt>
      <trkpt lat="44.24871" lon="7.04727">
        <ele>1943.4000244141</ele>
        <time>2018-05-09T10:19:50.000Z</time>
      </trkpt>
      <trkpt lat="44.24871" lon="7.04727">
        <ele>1943.4000244141</ele>
        <time>2018-05-09T10:19:52.000Z</time>
      </trkpt>
      <trkpt lat="44.24871" lon="7.04728">
        <ele>1943.4000244141</ele>
        <time>2018-05-09T10:19:54.000Z</time>
      </trkpt>
      <trkpt lat="44.2487" lon="7.04728">
        <ele>1943.4000244141</ele>
        <time>2018-05-09T10:20:00.000Z</time>
      </trkpt>
      <trkpt lat="44.2487" lon="7.04729">
        <ele>1943.4000244141</ele>
        <time>2018-05-09T10:20:04.000Z</time>
      </trkpt>
      <trkpt lat="44.2487" lon="7.04729">
        <ele>1943.4000244141</ele>
        <time>2018-05-09T10:20:07.000Z</time>
      </trkpt>
      <trkpt lat="44.2487" lon="7.04729">
        <ele>1943.4000244141</ele>
        <time>2018-05-09T10:20:08.000Z</time>
      </trkpt>
      <trkpt lat="44.2487" lon="7.04729">
        <ele>1943.4000244141</ele>
        <time>2018-05-09T10:20:09.000Z</time>
      </trkpt>
      <trkpt lat="44.2487" lon="7.04729">
        <ele>1943.4000244141</ele>
        <time>2018-05-09T10:20:10.000Z</time>
      </trkpt>
      <trkpt lat="44.2487" lon="7.04729">
        <ele>1943.4000244141</ele>
        <time>2018-05-09T10:20:11.000Z</time>
      </trkpt>
      <trkpt lat="44.2487" lon="7.0473">
        <ele>1943.4000244141</ele>
        <time>2018-05-09T10:20:12.000Z</time>
      </trkpt>
      <trkpt lat="44.2487" lon="7.0473">
        <ele>1943.4000244141</ele>
        <time>2018-05-09T10:20:13.000Z</time>
      </trkpt>
      <trkpt lat="44.2487" lon="7.0473">
        <ele>1943.4000244141</ele>
        <time>2018-05-09T10:20:14.000Z</time>
      </trkpt>
      <trkpt lat="44.24871" lon="7.04729">
        <ele>1943.4000244141</ele>
        <time>2018-05-09T10:20:21.000Z</time>
      </trkpt>
      <trkpt lat="44.24871" lon="7.0473">
        <ele>1943.4000244141</ele>
        <time>2018-05-09T10:20:26.000Z</time>
      </trkpt>
      <trkpt lat="44.2487" lon="7.04731">
        <ele>1943.4000244141</ele>
        <time>2018-05-09T10:20:30.000Z</time>
      </trkpt>
      <trkpt lat="44.2487" lon="7.04731">
        <ele>1943.4000244141</ele>
        <time>2018-05-09T10:20:31.000Z</time>
      </trkpt>
      <trkpt lat="44.2487" lon="7.04731">
        <ele>1943.4000244141</ele>
        <time>2018-05-09T10:20:33.000Z</time>
      </trkpt>
      <trkpt lat="44.24871" lon="7.04731">
        <ele>1943.4000244141</ele>
        <time>2018-05-09T10:20:36.000Z</time>
      </trkpt>
      <trkpt lat="44.24871" lon="7.0473">
        <ele>1943.4000244141</ele>
        <time>2018-05-09T10:20:37.000Z</time>
      </trkpt>
      <trkpt lat="44.24871" lon="7.0473">
        <ele>1943.4000244141</ele>
        <time>2018-05-09T10:20:38.000Z</time>
      </trkpt>
      <trkpt lat="44.24871" lon="7.04732">
        <ele>1943.4000244141</ele>
        <time>2018-05-09T10:20:42.000Z</time>
      </trkpt>
      <trkpt lat="44.24868" lon="7.04735">
        <ele>1943.4000244141</ele>
        <time>2018-05-09T10:20:55.000Z</time>
      </trkpt>
      <trkpt lat="44.24868" lon="7.04736">
        <ele>1943.4000244141</ele>
        <time>2018-05-09T10:21:02.000Z</time>
      </trkpt>
      <trkpt lat="44.24868" lon="7.04737">
        <ele>1943.4000244141</ele>
        <time>2018-05-09T10:21:04.000Z</time>
      </trkpt>
      <trkpt lat="44.24867" lon="7.04738">
        <ele>1943.4000244141</ele>
        <time>2018-05-09T10:21:06.000Z</time>
      </trkpt>
      <trkpt lat="44.24867" lon="7.04738">
        <ele>1943.4000244141</ele>
        <time>2018-05-09T10:21:08.000Z</time>
      </trkpt>
      <trkpt lat="44.24868" lon="7.04738">
        <ele>1943.4000244141</ele>
        <time>2018-05-09T10:21:16.000Z</time>
      </trkpt>
      <trkpt lat="44.24868" lon="7.04736">
        <ele>1943.4000244141</ele>
        <time>2018-05-09T10:21:19.000Z</time>
      </trkpt>
      <trkpt lat="44.24868" lon="7.04736">
        <ele>1943.4000244141</ele>
        <time>2018-05-09T10:21:22.000Z</time>
      </trkpt>
      <trkpt lat="44.24868" lon="7.04737">
        <ele>1943.4000244141</ele>
        <time>2018-05-09T10:21:27.000Z</time>
      </trkpt>
      <trkpt lat="44.2487" lon="7.04734">
        <ele>1943.4000244141</ele>
        <time>2018-05-09T10:21:38.000Z</time>
      </trkpt>
      <trkpt lat="44.2487" lon="7.04738">
        <ele>1943.4000244141</ele>
        <time>2018-05-09T10:21:44.000Z</time>
      </trkpt>
      <trkpt lat="44.2487" lon="7.04739">
        <ele>1943.4000244141</ele>
        <time>2018-05-09T10:21:46.000Z</time>
      </trkpt>
      <trkpt lat="44.24871" lon="7.04738">
        <ele>1943.4000244141</ele>
        <time>2018-05-09T10:21:50.000Z</time>
      </trkpt>
      <trkpt lat="44.24871" lon="7.04738">
        <ele>1943.4000244141</ele>
        <time>2018-05-09T10:21:51.000Z</time>
      </trkpt>
      <trkpt lat="44.24872" lon="7.04736">
        <ele>1943.4000244141</ele>
        <time>2018-05-09T10:21:55.000Z</time>
      </trkpt>
      <trkpt lat="44.24871" lon="7.04734">
        <ele>1943.4000244141</ele>
        <time>2018-05-09T10:21:57.000Z</time>
      </trkpt>
      <trkpt lat="44.2487" lon="7.04733">
        <ele>1943.4000244141</ele>
        <time>2018-05-09T10:21:59.000Z</time>
      </trkpt>
      <trkpt lat="44.2487" lon="7.04733">
        <ele>1943.4000244141</ele>
        <time>2018-05-09T10:22:03.000Z</time>
      </trkpt>
      <trkpt lat="44.24874" lon="7.04736">
        <ele>1943.4000244141</ele>
        <time>2018-05-09T10:22:23.000Z</time>
      </trkpt>
      <trkpt lat="44.24874" lon="7.04736">
        <ele>1943.4000244141</ele>
        <time>2018-05-09T10:22:26.000Z</time>
      </trkpt>
      <trkpt lat="44.24865" lon="7.04734">
        <ele>1943.4000244141</ele>
        <time>2018-05-09T10:22:40.000Z</time>
      </trkpt>
      <trkpt lat="44.24867" lon="7.04735">
        <ele>1943.4000244141</ele>
        <time>2018-05-09T10:22:53.000Z</time>
      </trkpt>
      <trkpt lat="44.24867" lon="7.04735">
        <ele>1943.4000244141</ele>
        <time>2018-05-09T10:22:55.000Z</time>
      </trkpt>
      <trkpt lat="44.24869" lon="7.04735">
        <ele>1943.4000244141</ele>
        <time>2018-05-09T10:23:02.000Z</time>
      </trkpt>
      <trkpt lat="44.24871" lon="7.04735">
        <ele>1943.4000244141</ele>
        <time>2018-05-09T10:23:09.000Z</time>
      </trkpt>
      <trkpt lat="44.24872" lon="7.04736">
        <ele>1943.4000244141</ele>
        <time>2018-05-09T10:23:13.000Z</time>
      </trkpt>
      <trkpt lat="44.24872" lon="7.04738">
        <ele>1943.4000244141</ele>
        <time>2018-05-09T10:23:20.000Z</time>
      </trkpt>
      <trkpt lat="44.24871" lon="7.04736">
        <ele>1943.4000244141</ele>
        <time>2018-05-09T10:23:34.000Z</time>
      </trkpt>
      <trkpt lat="44.24871" lon="7.04736">
        <ele>1943.4000244141</ele>
        <time>2018-05-09T10:23:39.000Z</time>
      </trkpt>
      <trkpt lat="44.24871" lon="7.04736">
        <ele>1943.4000244141</ele>
        <time>2018-05-09T10:23:48.000Z</time>
      </trkpt>
      <trkpt lat="44.2487" lon="7.04736">
        <ele>1943.4000244141</ele>
        <time>2018-05-09T10:23:50.000Z</time>
      </trkpt>
      <trkpt lat="44.24869" lon="7.04736">
        <ele>1943.4000244141</ele>
        <time>2018-05-09T10:23:59.000Z</time>
      </trkpt>
      <trkpt lat="44.24869" lon="7.04736">
        <ele>1943.4000244141</ele>
        <time>2018-05-09T10:24:05.000Z</time>
      </trkpt>
      <trkpt lat="44.24869" lon="7.04735">
        <ele>1943.4000244141</ele>
        <time>2018-05-09T10:24:08.000Z</time>
      </trkpt>
      <trkpt lat="44.24869" lon="7.04735">
        <ele>1943.4000244141</ele>
        <time>2018-05-09T10:24:09.000Z</time>
      </trkpt>
      <trkpt lat="44.24869" lon="7.04735">
        <ele>1943.4000244141</ele>
        <time>2018-05-09T10:24:13.000Z</time>
      </trkpt>
      <trkpt lat="44.2487" lon="7.04735">
        <ele>1943.4000244141</ele>
        <time>2018-05-09T10:24:22.000Z</time>
      </trkpt>
      <trkpt lat="44.2487" lon="7.04735">
        <ele>1943.4000244141</ele>
        <time>2018-05-09T10:24:25.000Z</time>
      </trkpt>
      <trkpt lat="44.2487" lon="7.04736">
        <ele>1943.4000244141</ele>
        <time>2018-05-09T10:24:26.000Z</time>
      </trkpt>
      <trkpt lat="44.24874" lon="7.04736">
        <ele>1943.4000244141</ele>
        <time>2018-05-09T10:24:35.000Z</time>
      </trkpt>
      <trkpt lat="44.24876" lon="7.04735">
        <ele>1943.4000244141</ele>
        <time>2018-05-09T10:24:40.000Z</time>
      </trkpt>
      <trkpt lat="44.24873" lon="7.04735">
        <ele>1943.4000244141</ele>
        <time>2018-05-09T10:24:50.000Z</time>
      </trkpt>
      <trkpt lat="44.24873" lon="7.04734">
        <ele>1943.4000244141</ele>
        <time>2018-05-09T10:24:57.000Z</time>
      </trkpt>
      <trkpt lat="44.24873" lon="7.04734">
        <ele>1943.4000244141</ele>
        <time>2018-05-09T10:24:59.000Z</time>
      </trkpt>
      <trkpt lat="44.24873" lon="7.04733">
        <ele>1943.4000244141</ele>
        <time>2018-05-09T10:25:01.000Z</time>
      </trkpt>
      <trkpt lat="44.24873" lon="7.04734">
        <ele>1943.4000244141</ele>
        <time>2018-05-09T10:25:02.000Z</time>
      </trkpt>
      <trkpt lat="44.24872" lon="7.04735">
        <ele>1943.4000244141</ele>
        <time>2018-05-09T10:25:11.000Z</time>
      </trkpt>
      <trkpt lat="44.24872" lon="7.04736">
        <ele>1943.4000244141</ele>
        <time>2018-05-09T10:25:13.000Z</time>
      </trkpt>
      <trkpt lat="44.24872" lon="7.04736">
        <ele>1943.4000244141</ele>
        <time>2018-05-09T10:25:15.000Z</time>
      </trkpt>
      <trkpt lat="44.24871" lon="7.04735">
        <ele>1943.4000244141</ele>
        <time>2018-05-09T10:25:18.000Z</time>
      </trkpt>
      <trkpt lat="44.24871" lon="7.04735">
        <ele>1943.4000244141</ele>
        <time>2018-05-09T10:25:24.000Z</time>
      </trkpt>
      <trkpt lat="44.2487" lon="7.04734">
        <ele>1943.4000244141</ele>
        <time>2018-05-09T10:25:28.000Z</time>
      </trkpt>
      <trkpt lat="44.2487" lon="7.04735">
        <ele>1943.4000244141</ele>
        <time>2018-05-09T10:25:33.000Z</time>
      </trkpt>
      <trkpt lat="44.24869" lon="7.04736">
        <ele>1943.4000244141</ele>
        <time>2018-05-09T10:25:35.000Z</time>
      </trkpt>
      <trkpt lat="44.24868" lon="7.04736">
        <ele>1943.4000244141</ele>
        <time>2018-05-09T10:25:39.000Z</time>
      </trkpt>
      <trkpt lat="44.24868" lon="7.04736">
        <ele>1943.4000244141</ele>
        <time>2018-05-09T10:25:40.000Z</time>
      </trkpt>
      <trkpt lat="44.2487" lon="7.04738">
        <ele>1943.4000244141</ele>
        <time>2018-05-09T10:25:47.000Z</time>
      </trkpt>
      <trkpt lat="44.24871" lon="7.04739">
        <ele>1943.4000244141</ele>
        <time>2018-05-09T10:25:52.000Z</time>
      </trkpt>
      <trkpt lat="44.24871" lon="7.04739">
        <ele>1943.4000244141</ele>
        <time>2018-05-09T10:25:53.000Z</time>
      </trkpt>
      <trkpt lat="44.24871" lon="7.04739">
        <ele>1943.4000244141</ele>
        <time>2018-05-09T10:25:54.000Z</time>
      </trkpt>
      <trkpt lat="44.24871" lon="7.04739">
        <ele>1943.4000244141</ele>
        <time>2018-05-09T10:25:58.000Z</time>
      </trkpt>
      <trkpt lat="44.24871" lon="7.04739">
        <ele>1943.4000244141</ele>
        <time>2018-05-09T10:26:05.000Z</time>
      </trkpt>
      <trkpt lat="44.2487" lon="7.04739">
        <ele>1943.4000244141</ele>
        <time>2018-05-09T10:26:06.000Z</time>
      </trkpt>
      <trkpt lat="44.2487" lon="7.04739">
        <ele>1943.4000244141</ele>
        <time>2018-05-09T10:26:08.000Z</time>
      </trkpt>
      <trkpt lat="44.2487" lon="7.04738">
        <ele>1943.4000244141</ele>
        <time>2018-05-09T10:26:11.000Z</time>
      </trkpt>
      <trkpt lat="44.2487" lon="7.04737">
        <ele>1943.4000244141</ele>
        <time>2018-05-09T10:26:12.000Z</time>
      </trkpt>
      <trkpt lat="44.24871" lon="7.04737">
        <ele>1943.4000244141</ele>
        <time>2018-05-09T10:26:13.000Z</time>
      </trkpt>
      <trkpt lat="44.24871" lon="7.04735">
        <ele>1943.4000244141</ele>
        <time>2018-05-09T10:26:17.000Z</time>
      </trkpt>
      <trkpt lat="44.24872" lon="7.04732">
        <ele>1943.4000244141</ele>
        <time>2018-05-09T10:26:19.000Z</time>
      </trkpt>
      <trkpt lat="44.24869" lon="7.04735">
        <ele>1943.4000244141</ele>
        <time>2018-05-09T10:26:23.000Z</time>
      </trkpt>
      <trkpt lat="44.24868" lon="7.04736">
        <ele>1943.4000244141</ele>
        <time>2018-05-09T10:26:26.000Z</time>
      </trkpt>
      <trkpt lat="44.24868" lon="7.04738">
        <ele>1943.4000244141</ele>
        <time>2018-05-09T10:26:29.000Z</time>
      </trkpt>
      <trkpt lat="44.24868" lon="7.04739">
        <ele>1943.4000244141</ele>
        <time>2018-05-09T10:26:33.000Z</time>
      </trkpt>
      <trkpt lat="44.24867" lon="7.04738">
        <ele>1943.4000244141</ele>
        <time>2018-05-09T10:26:37.000Z</time>
      </trkpt>
      <trkpt lat="44.24867" lon="7.04738">
        <ele>1943.4000244141</ele>
        <time>2018-05-09T10:26:40.000Z</time>
      </trkpt>
      <trkpt lat="44.24867" lon="7.04738">
        <ele>1943.4000244141</ele>
        <time>2018-05-09T10:26:41.000Z</time>
      </trkpt>
      <trkpt lat="44.24867" lon="7.04738">
        <ele>1943.4000244141</ele>
        <time>2018-05-09T10:26:43.000Z</time>
      </trkpt>
      <trkpt lat="44.24868" lon="7.04739">
        <ele>1943.4000244141</ele>
        <time>2018-05-09T10:26:46.000Z</time>
      </trkpt>
      <trkpt lat="44.24867" lon="7.04739">
        <ele>1943.4000244141</ele>
        <time>2018-05-09T10:26:52.000Z</time>
      </trkpt>
      <trkpt lat="44.24868" lon="7.04739">
        <ele>1943.4000244141</ele>
        <time>2018-05-09T10:26:59.000Z</time>
      </trkpt>
      <trkpt lat="44.24868" lon="7.04737">
        <ele>1943.4000244141</ele>
        <time>2018-05-09T10:27:06.000Z</time>
      </trkpt>
      <trkpt lat="44.24868" lon="7.04737">
        <ele>1943.4000244141</ele>
        <time>2018-05-09T10:27:11.000Z</time>
      </trkpt>
      <trkpt lat="44.24869" lon="7.04733">
        <ele>1943.4000244141</ele>
        <time>2018-05-09T10:27:20.000Z</time>
      </trkpt>
      <trkpt lat="44.24869" lon="7.04733">
        <ele>1943.4000244141</ele>
        <time>2018-05-09T10:27:21.000Z</time>
      </trkpt>
      <trkpt lat="44.24869" lon="7.04735">
        <ele>1943.4000244141</ele>
        <time>2018-05-09T10:27:23.000Z</time>
      </trkpt>
      <trkpt lat="44.2487" lon="7.04736">
        <ele>1943.4000244141</ele>
        <time>2018-05-09T10:27:26.000Z</time>
      </trkpt>
      <trkpt lat="44.24871" lon="7.04742">
        <ele>1943.4000244141</ele>
        <time>2018-05-09T10:27:34.000Z</time>
      </trkpt>
      <trkpt lat="44.24871" lon="7.04733">
        <ele>1943.4000244141</ele>
        <time>2018-05-09T10:27:43.000Z</time>
      </trkpt>
      <trkpt lat="44.24871" lon="7.04732">
        <ele>1943.4000244141</ele>
        <time>2018-05-09T10:27:48.000Z</time>
      </trkpt>
      <trkpt lat="44.24871" lon="7.04735">
        <ele>1943.4000244141</ele>
        <time>2018-05-09T10:27:58.000Z</time>
      </trkpt>
      <trkpt lat="44.24872" lon="7.04736">
        <ele>1943.4000244141</ele>
        <time>2018-05-09T10:27:59.000Z</time>
      </trkpt>
      <trkpt lat="44.24872" lon="7.04736">
        <ele>1943.4000244141</ele>
        <time>2018-05-09T10:28:03.000Z</time>
      </trkpt>
      <trkpt lat="44.24872" lon="7.04735">
        <ele>1943.4000244141</ele>
        <time>2018-05-09T10:28:05.000Z</time>
      </trkpt>
      <trkpt lat="44.24873" lon="7.04732">
        <ele>1943.4000244141</ele>
        <time>2018-05-09T10:28:08.000Z</time>
      </trkpt>
      <trkpt lat="44.24872" lon="7.0473">
        <ele>1943.4000244141</ele>
        <time>2018-05-09T10:28:09.000Z</time>
      </trkpt>
      <trkpt lat="44.24873" lon="7.04729">
        <ele>1943.4000244141</ele>
        <time>2018-05-09T10:28:13.000Z</time>
      </trkpt>
      <trkpt lat="44.24873" lon="7.04729">
        <ele>1943.4000244141</ele>
        <time>2018-05-09T10:28:14.000Z</time>
      </trkpt>
      <trkpt lat="44.24873" lon="7.04729">
        <ele>1943.4000244141</ele>
        <time>2018-05-09T10:28:15.000Z</time>
      </trkpt>
      <trkpt lat="44.24873" lon="7.0473">
        <ele>1943.4000244141</ele>
        <time>2018-05-09T10:28:17.000Z</time>
      </trkpt>
      <trkpt lat="44.24873" lon="7.04727">
        <ele>1943.4000244141</ele>
        <time>2018-05-09T10:28:21.000Z</time>
      </trkpt>
      <trkpt lat="44.24873" lon="7.04728">
        <ele>1943.4000244141</ele>
        <time>2018-05-09T10:28:23.000Z</time>
      </trkpt>
      <trkpt lat="44.24874" lon="7.04728">
        <ele>1943.4000244141</ele>
        <time>2018-05-09T10:28:24.000Z</time>
      </trkpt>
      <trkpt lat="44.24875" lon="7.04728">
        <ele>1943.4000244141</ele>
        <time>2018-05-09T10:28:28.000Z</time>
      </trkpt>
      <trkpt lat="44.24875" lon="7.0473">
        <ele>1943.4000244141</ele>
        <time>2018-05-09T10:28:29.000Z</time>
      </trkpt>
      <trkpt lat="44.24874" lon="7.04732">
        <ele>1943.4000244141</ele>
        <time>2018-05-09T10:28:31.000Z</time>
      </trkpt>
      <trkpt lat="44.24874" lon="7.04731">
        <ele>1943.4000244141</ele>
        <time>2018-05-09T10:28:32.000Z</time>
      </trkpt>
      <trkpt lat="44.24873" lon="7.04731">
        <ele>1943.4000244141</ele>
        <time>2018-05-09T10:28:33.000Z</time>
      </trkpt>
      <trkpt lat="44.24872" lon="7.04728">
        <ele>1943.4000244141</ele>
        <time>2018-05-09T10:28:44.000Z</time>
      </trkpt>
      <trkpt lat="44.24871" lon="7.04735">
        <ele>1943.4000244141</ele>
        <time>2018-05-09T10:28:50.000Z</time>
      </trkpt>
      <trkpt lat="44.24872" lon="7.04736">
        <ele>1943.4000244141</ele>
        <time>2018-05-09T10:28:56.000Z</time>
      </trkpt>
      <trkpt lat="44.24872" lon="7.04736">
        <ele>1943.4000244141</ele>
        <time>2018-05-09T10:28:57.000Z</time>
      </trkpt>
      <trkpt lat="44.24872" lon="7.04736">
        <ele>1943.4000244141</ele>
        <time>2018-05-09T10:28:59.000Z</time>
      </trkpt>
      <trkpt lat="44.24872" lon="7.04737">
        <ele>1943.4000244141</ele>
        <time>2018-05-09T10:29:02.000Z</time>
      </trkpt>
      <trkpt lat="44.24872" lon="7.04737">
        <ele>1943.4000244141</ele>
        <time>2018-05-09T10:29:05.000Z</time>
      </trkpt>
      <trkpt lat="44.24872" lon="7.04736">
        <ele>1943.4000244141</ele>
        <time>2018-05-09T10:29:12.000Z</time>
      </trkpt>
      <trkpt lat="44.24872" lon="7.04736">
        <ele>1943.4000244141</ele>
        <time>2018-05-09T10:29:13.000Z</time>
      </trkpt>
      <trkpt lat="44.24872" lon="7.04735">
        <ele>1943.4000244141</ele>
        <time>2018-05-09T10:29:21.000Z</time>
      </trkpt>
      <trkpt lat="44.24871" lon="7.04735">
        <ele>1943.4000244141</ele>
        <time>2018-05-09T10:29:24.000Z</time>
      </trkpt>
      <trkpt lat="44.24872" lon="7.04736">
        <ele>1943.4000244141</ele>
        <time>2018-05-09T10:29:38.000Z</time>
      </trkpt>
      <trkpt lat="44.24872" lon="7.04736">
        <ele>1943.4000244141</ele>
        <time>2018-05-09T10:29:40.000Z</time>
      </trkpt>
      <trkpt lat="44.24872" lon="7.04736">
        <ele>1943.4000244141</ele>
        <time>2018-05-09T10:29:41.000Z</time>
      </trkpt>
      <trkpt lat="44.24872" lon="7.04736">
        <ele>1943.4000244141</ele>
        <time>2018-05-09T10:29:42.000Z</time>
      </trkpt>
      <trkpt lat="44.24872" lon="7.04736">
        <ele>1943.4000244141</ele>
        <time>2018-05-09T10:29:47.000Z</time>
      </trkpt>
      <trkpt lat="44.24872" lon="7.04736">
        <ele>1943.4000244141</ele>
        <time>2018-05-09T10:29:49.000Z</time>
      </trkpt>
      <trkpt lat="44.24871" lon="7.04736">
        <ele>1943.4000244141</ele>
        <time>2018-05-09T10:29:55.000Z</time>
      </trkpt>
      <trkpt lat="44.24871" lon="7.04736">
        <ele>1943.4000244141</ele>
        <time>2018-05-09T10:29:56.000Z</time>
      </trkpt>
      <trkpt lat="44.2487" lon="7.04736">
        <ele>1943.4000244141</ele>
        <time>2018-05-09T10:29:58.000Z</time>
      </trkpt>
      <trkpt lat="44.2487" lon="7.04736">
        <ele>1943.4000244141</ele>
        <time>2018-05-09T10:30:00.000Z</time>
      </trkpt>
      <trkpt lat="44.2487" lon="7.04737">
        <ele>1943.4000244141</ele>
        <time>2018-05-09T10:30:02.000Z</time>
      </trkpt>
      <trkpt lat="44.24869" lon="7.04737">
        <ele>1943.4000244141</ele>
        <time>2018-05-09T10:30:04.000Z</time>
      </trkpt>
      <trkpt lat="44.24869" lon="7.04737">
        <ele>1943.4000244141</ele>
        <time>2018-05-09T10:30:06.000Z</time>
      </trkpt>
      <trkpt lat="44.24869" lon="7.04737">
        <ele>1943.4000244141</ele>
        <time>2018-05-09T10:30:08.000Z</time>
      </trkpt>
      <trkpt lat="44.24869" lon="7.04738">
        <ele>1943.4000244141</ele>
        <time>2018-05-09T10:30:13.000Z</time>
      </trkpt>
      <trkpt lat="44.24869" lon="7.04737">
        <ele>1943.4000244141</ele>
        <time>2018-05-09T10:30:18.000Z</time>
      </trkpt>
      <trkpt lat="44.24869" lon="7.04737">
        <ele>1943.4000244141</ele>
        <time>2018-05-09T10:30:19.000Z</time>
      </trkpt>
      <trkpt lat="44.2487" lon="7.04737">
        <ele>1943.4000244141</ele>
        <time>2018-05-09T10:30:21.000Z</time>
      </trkpt>
      <trkpt lat="44.24871" lon="7.04736">
        <ele>1943.4000244141</ele>
        <time>2018-05-09T10:30:23.000Z</time>
      </trkpt>
      <trkpt lat="44.24871" lon="7.04736">
        <ele>1943.4000244141</ele>
        <time>2018-05-09T10:30:25.000Z</time>
      </trkpt>
      <trkpt lat="44.24871" lon="7.04736">
        <ele>1943.4000244141</ele>
        <time>2018-05-09T10:30:26.000Z</time>
      </trkpt>
      <trkpt lat="44.2487" lon="7.04736">
        <ele>1943.4000244141</ele>
        <time>2018-05-09T10:30:32.000Z</time>
      </trkpt>
      <trkpt lat="44.2487" lon="7.04736">
        <ele>1943.4000244141</ele>
        <time>2018-05-09T10:30:34.000Z</time>
      </trkpt>
      <trkpt lat="44.24869" lon="7.04738">
        <ele>1943.4000244141</ele>
        <time>2018-05-09T10:30:36.000Z</time>
      </trkpt>
      <trkpt lat="44.24869" lon="7.04738">
        <ele>1943.4000244141</ele>
        <time>2018-05-09T10:30:38.000Z</time>
      </trkpt>
      <trkpt lat="44.24869" lon="7.04738">
        <ele>1943.4000244141</ele>
        <time>2018-05-09T10:30:39.000Z</time>
      </trkpt>
      <trkpt lat="44.24869" lon="7.04738">
        <ele>1943.4000244141</ele>
        <time>2018-05-09T10:30:41.000Z</time>
      </trkpt>
      <trkpt lat="44.24868" lon="7.04739">
        <ele>1943.4000244141</ele>
        <time>2018-05-09T10:30:49.000Z</time>
      </trkpt>
      <trkpt lat="44.24867" lon="7.0474">
        <ele>1943.4000244141</ele>
        <time>2018-05-09T10:30:52.000Z</time>
      </trkpt>
      <trkpt lat="44.24866" lon="7.04741">
        <ele>1943.4000244141</ele>
        <time>2018-05-09T10:30:56.000Z</time>
      </trkpt>
      <trkpt lat="44.24867" lon="7.04741">
        <ele>1943.4000244141</ele>
        <time>2018-05-09T10:30:59.000Z</time>
      </trkpt>
      <trkpt lat="44.24866" lon="7.04741">
        <ele>1943.4000244141</ele>
        <time>2018-05-09T10:31:02.000Z</time>
      </trkpt>
      <trkpt lat="44.24868" lon="7.04738">
        <ele>1943.4000244141</ele>
        <time>2018-05-09T10:31:08.000Z</time>
      </trkpt>
      <trkpt lat="44.24868" lon="7.04736">
        <ele>1943.4000244141</ele>
        <time>2018-05-09T10:31:11.000Z</time>
      </trkpt>
      <trkpt lat="44.24867" lon="7.0473">
        <ele>1943.4000244141</ele>
        <time>2018-05-09T10:31:14.000Z</time>
      </trkpt>
      <trkpt lat="44.2487" lon="7.0473">
        <ele>1944</ele>
        <time>2018-05-09T10:31:30.000Z</time>
      </trkpt>
      <trkpt lat="44.24869" lon="7.04733">
        <ele>1944</ele>
        <time>2018-05-09T10:31:32.000Z</time>
      </trkpt>
      <trkpt lat="44.24869" lon="7.04736">
        <ele>1944</ele>
        <time>2018-05-09T10:31:36.000Z</time>
      </trkpt>
      <trkpt lat="44.24869" lon="7.04734">
        <ele>1944</ele>
        <time>2018-05-09T10:31:43.000Z</time>
      </trkpt>
      <trkpt lat="44.24869" lon="7.04733">
        <ele>1944</ele>
        <time>2018-05-09T10:31:50.000Z</time>
      </trkpt>
      <trkpt lat="44.2487" lon="7.04731">
        <ele>1944</ele>
        <time>2018-05-09T10:31:55.000Z</time>
      </trkpt>
      <trkpt lat="44.2487" lon="7.04731">
        <ele>1944</ele>
        <time>2018-05-09T10:32:00.000Z</time>
      </trkpt>
      <trkpt lat="44.24871" lon="7.0473">
        <ele>1944</ele>
        <time>2018-05-09T10:32:01.000Z</time>
      </trkpt>
      <trkpt lat="44.24872" lon="7.04732">
        <ele>1944</ele>
        <time>2018-05-09T10:32:06.000Z</time>
      </trkpt>
      <trkpt lat="44.2487" lon="7.0473">
        <ele>1943.8000488281</ele>
        <time>2018-05-09T10:32:17.000Z</time>
      </trkpt>
      <trkpt lat="44.24869" lon="7.04731">
        <ele>1944</ele>
        <time>2018-05-09T10:32:21.000Z</time>
      </trkpt>
      <trkpt lat="44.2487" lon="7.04732">
        <ele>1944.1999511719</ele>
        <time>2018-05-09T10:32:24.000Z</time>
      </trkpt>
      <trkpt lat="44.24871" lon="7.04735">
        <ele>1944.1999511719</ele>
        <time>2018-05-09T10:32:29.000Z</time>
      </trkpt>
      <trkpt lat="44.24871" lon="7.04735">
        <ele>1944.1999511719</ele>
        <time>2018-05-09T10:32:33.000Z</time>
      </trkpt>
      <trkpt lat="44.24874" lon="7.04734">
        <ele>1944.1999511719</ele>
        <time>2018-05-09T10:32:37.000Z</time>
      </trkpt>
      <trkpt lat="44.24879" lon="7.04735">
        <ele>1944</ele>
        <time>2018-05-09T10:33:02.000Z</time>
      </trkpt>
      <trkpt lat="44.24877" lon="7.04735">
        <ele>1944.1999511719</ele>
        <time>2018-05-09T10:33:10.000Z</time>
      </trkpt>
      <trkpt lat="44.24876" lon="7.04735">
        <ele>1944.1999511719</ele>
        <time>2018-05-09T10:33:11.000Z</time>
      </trkpt>
      <trkpt lat="44.24876" lon="7.04735">
        <ele>1944.1999511719</ele>
        <time>2018-05-09T10:33:12.000Z</time>
      </trkpt>
      <trkpt lat="44.24875" lon="7.04735">
        <ele>1944.1999511719</ele>
        <time>2018-05-09T10:33:20.000Z</time>
      </trkpt>
      <trkpt lat="44.24875" lon="7.04736">
        <ele>1944.1999511719</ele>
        <time>2018-05-09T10:33:24.000Z</time>
      </trkpt>
      <trkpt lat="44.24876" lon="7.04736">
        <ele>1944.1999511719</ele>
        <time>2018-05-09T10:33:25.000Z</time>
      </trkpt>
      <trkpt lat="44.24876" lon="7.04736">
        <ele>1944.1999511719</ele>
        <time>2018-05-09T10:33:26.000Z</time>
      </trkpt>
      <trkpt lat="44.24878" lon="7.04736">
        <ele>1944</ele>
        <time>2018-05-09T10:33:28.000Z</time>
      </trkpt>
      <trkpt lat="44.24879" lon="7.04736">
        <ele>1944.1999511719</ele>
        <time>2018-05-09T10:33:30.000Z</time>
      </trkpt>
      <trkpt lat="44.24875" lon="7.04737">
        <ele>1944.1999511719</ele>
        <time>2018-05-09T10:33:38.000Z</time>
      </trkpt>
      <trkpt lat="44.24875" lon="7.04736">
        <ele>1944.4000244141</ele>
        <time>2018-05-09T10:33:42.000Z</time>
      </trkpt>
      <trkpt lat="44.24873" lon="7.04736">
        <ele>1944.4000244141</ele>
        <time>2018-05-09T10:33:50.000Z</time>
      </trkpt>
      <trkpt lat="44.24872" lon="7.04736">
        <ele>1944.5999755859</ele>
        <time>2018-05-09T10:34:00.000Z</time>
      </trkpt>
      <trkpt lat="44.24872" lon="7.04736">
        <ele>1944.4000244141</ele>
        <time>2018-05-09T10:34:03.000Z</time>
      </trkpt>
      <trkpt lat="44.24872" lon="7.04735">
        <ele>1944.4000244141</ele>
        <time>2018-05-09T10:34:08.000Z</time>
      </trkpt>
      <trkpt lat="44.24872" lon="7.04735">
        <ele>1944.4000244141</ele>
        <time>2018-05-09T10:34:12.000Z</time>
      </trkpt>
      <trkpt lat="44.2487" lon="7.04736">
        <ele>1944.4000244141</ele>
        <time>2018-05-09T10:34:15.000Z</time>
      </trkpt>
      <trkpt lat="44.2487" lon="7.04736">
        <ele>1944.4000244141</ele>
        <time>2018-05-09T10:34:18.000Z</time>
      </trkpt>
      <trkpt lat="44.24872" lon="7.04737">
        <ele>1944.1999511719</ele>
        <time>2018-05-09T10:34:34.000Z</time>
      </trkpt>
      <trkpt lat="44.24875" lon="7.04736">
        <ele>1944.4000244141</ele>
        <time>2018-05-09T10:34:39.000Z</time>
      </trkpt>
      <trkpt lat="44.24872" lon="7.04739">
        <ele>1944.5999755859</ele>
        <time>2018-05-09T10:34:42.000Z</time>
      </trkpt>
      <trkpt lat="44.24871" lon="7.0474">
        <ele>1944.8000488281</ele>
        <time>2018-05-09T10:34:46.000Z</time>
      </trkpt>
      <trkpt lat="44.24871" lon="7.04739">
        <ele>1944.8000488281</ele>
        <time>2018-05-09T10:34:48.000Z</time>
      </trkpt>
      <trkpt lat="44.24869" lon="7.0474">
        <ele>1944.5999755859</ele>
        <time>2018-05-09T10:34:55.000Z</time>
      </trkpt>
      <trkpt lat="44.24867" lon="7.04742">
        <ele>1944.8000488281</ele>
        <time>2018-05-09T10:35:02.000Z</time>
      </trkpt>
      <trkpt lat="44.2487" lon="7.04742">
        <ele>1944.8000488281</ele>
        <time>2018-05-09T10:35:10.000Z</time>
      </trkpt>
      <trkpt lat="44.24871" lon="7.04741">
        <ele>1944.8000488281</ele>
        <time>2018-05-09T10:35:16.000Z</time>
      </trkpt>
      <trkpt lat="44.2487" lon="7.04741">
        <ele>1944.8000488281</ele>
        <time>2018-05-09T10:35:17.000Z</time>
      </trkpt>
      <trkpt lat="44.24867" lon="7.04738">
        <ele>1944.5999755859</ele>
        <time>2018-05-09T10:35:24.000Z</time>
      </trkpt>
      <trkpt lat="44.24866" lon="7.0474">
        <ele>1944.4000244141</ele>
        <time>2018-05-09T10:35:28.000Z</time>
      </trkpt>
      <trkpt lat="44.24866" lon="7.04741">
        <ele>1944.5999755859</ele>
        <time>2018-05-09T10:35:38.000Z</time>
      </trkpt>
      <trkpt lat="44.24867" lon="7.04741">
        <ele>1944.5999755859</ele>
        <time>2018-05-09T10:35:41.000Z</time>
      </trkpt>
      <trkpt lat="44.24869" lon="7.04739">
        <ele>1944.4000244141</ele>
        <time>2018-05-09T10:35:57.000Z</time>
      </trkpt>
      <trkpt lat="44.24869" lon="7.0474">
        <ele>1944.4000244141</ele>
        <time>2018-05-09T10:36:09.000Z</time>
      </trkpt>
      <trkpt lat="44.24869" lon="7.0474">
        <ele>1944.4000244141</ele>
        <time>2018-05-09T10:36:16.000Z</time>
      </trkpt>
      <trkpt lat="44.24869" lon="7.0474">
        <ele>1944.4000244141</ele>
        <time>2018-05-09T10:36:20.000Z</time>
      </trkpt>
      <trkpt lat="44.24869" lon="7.04739">
        <ele>1944.4000244141</ele>
        <time>2018-05-09T10:36:25.000Z</time>
      </trkpt>
      <trkpt lat="44.2487" lon="7.04739">
        <ele>1944.4000244141</ele>
        <time>2018-05-09T10:36:27.000Z</time>
      </trkpt>
      <trkpt lat="44.24869" lon="7.04739">
        <ele>1944.4000244141</ele>
        <time>2018-05-09T10:36:29.000Z</time>
      </trkpt>
      <trkpt lat="44.24869" lon="7.04739">
        <ele>1944.4000244141</ele>
        <time>2018-05-09T10:36:30.000Z</time>
      </trkpt>
      <trkpt lat="44.24869" lon="7.04738">
        <ele>1944.4000244141</ele>
        <time>2018-05-09T10:36:32.000Z</time>
      </trkpt>
      <trkpt lat="44.24869" lon="7.04738">
        <ele>1944.4000244141</ele>
        <time>2018-05-09T10:36:35.000Z</time>
      </trkpt>
      <trkpt lat="44.24869" lon="7.04738">
        <ele>1944.4000244141</ele>
        <time>2018-05-09T10:36:36.000Z</time>
      </trkpt>
      <trkpt lat="44.24869" lon="7.04738">
        <ele>1944.4000244141</ele>
        <time>2018-05-09T10:36:38.000Z</time>
      </trkpt>
      <trkpt lat="44.2487" lon="7.04738">
        <ele>1944.4000244141</ele>
        <time>2018-05-09T10:36:42.000Z</time>
      </trkpt>
      <trkpt lat="44.24871" lon="7.04736">
        <ele>1944.4000244141</ele>
        <time>2018-05-09T10:36:46.000Z</time>
      </trkpt>
      <trkpt lat="44.24871" lon="7.04736">
        <ele>1944.4000244141</ele>
        <time>2018-05-09T10:36:47.000Z</time>
      </trkpt>
      <trkpt lat="44.24871" lon="7.04737">
        <ele>1944.4000244141</ele>
        <time>2018-05-09T10:36:48.000Z</time>
      </trkpt>
      <trkpt lat="44.24871" lon="7.04737">
        <ele>1944.4000244141</ele>
        <time>2018-05-09T10:36:49.000Z</time>
      </trkpt>
      <trkpt lat="44.24871" lon="7.04737">
        <ele>1944.4000244141</ele>
        <time>2018-05-09T10:36:50.000Z</time>
      </trkpt>
      <trkpt lat="44.24871" lon="7.04737">
        <ele>1944.4000244141</ele>
        <time>2018-05-09T10:36:51.000Z</time>
      </trkpt>
      <trkpt lat="44.24871" lon="7.04737">
        <ele>1944.4000244141</ele>
        <time>2018-05-09T10:36:52.000Z</time>
      </trkpt>
      <trkpt lat="44.24871" lon="7.04737">
        <ele>1944.4000244141</ele>
        <time>2018-05-09T10:36:54.000Z</time>
      </trkpt>
      <trkpt lat="44.2487" lon="7.04739">
        <ele>1944.4000244141</ele>
        <time>2018-05-09T10:36:55.000Z</time>
      </trkpt>
      <trkpt lat="44.2487" lon="7.0474">
        <ele>1944.4000244141</ele>
        <time>2018-05-09T10:36:58.000Z</time>
      </trkpt>
      <trkpt lat="44.24869" lon="7.0474">
        <ele>1944.4000244141</ele>
        <time>2018-05-09T10:36:59.000Z</time>
      </trkpt>
      <trkpt lat="44.24869" lon="7.04741">
        <ele>1944.4000244141</ele>
        <time>2018-05-09T10:37:01.000Z</time>
      </trkpt>
      <trkpt lat="44.24869" lon="7.04741">
        <ele>1944.4000244141</ele>
        <time>2018-05-09T10:37:02.000Z</time>
      </trkpt>
      <trkpt lat="44.24869" lon="7.0474">
        <ele>1944.4000244141</ele>
        <time>2018-05-09T10:37:10.000Z</time>
      </trkpt>
      <trkpt lat="44.2487" lon="7.04739">
        <ele>1944.4000244141</ele>
        <time>2018-05-09T10:37:14.000Z</time>
      </trkpt>
      <trkpt lat="44.24871" lon="7.04736">
        <ele>1944.4000244141</ele>
        <time>2018-05-09T10:37:25.000Z</time>
      </trkpt>
      <trkpt lat="44.2487" lon="7.04737">
        <ele>1944.4000244141</ele>
        <time>2018-05-09T10:37:30.000Z</time>
      </trkpt>
      <trkpt lat="44.2487" lon="7.04736">
        <ele>1944.4000244141</ele>
        <time>2018-05-09T10:37:35.000Z</time>
      </trkpt>
      <trkpt lat="44.24871" lon="7.04736">
        <ele>1944.4000244141</ele>
        <time>2018-05-09T10:37:37.000Z</time>
      </trkpt>
      <trkpt lat="44.24871" lon="7.04737">
        <ele>1944.4000244141</ele>
        <time>2018-05-09T10:37:38.000Z</time>
      </trkpt>
      <trkpt lat="44.24871" lon="7.04736">
        <ele>1944.4000244141</ele>
        <time>2018-05-09T10:37:41.000Z</time>
      </trkpt>
      <trkpt lat="44.24871" lon="7.04735">
        <ele>1944.4000244141</ele>
        <time>2018-05-09T10:37:42.000Z</time>
      </trkpt>
      <trkpt lat="44.2487" lon="7.04734">
        <ele>1944.4000244141</ele>
        <time>2018-05-09T10:37:49.000Z</time>
      </trkpt>
      <trkpt lat="44.2487" lon="7.04734">
        <ele>1944.4000244141</ele>
        <time>2018-05-09T10:37:51.000Z</time>
      </trkpt>
      <trkpt lat="44.2487" lon="7.04734">
        <ele>1944.4000244141</ele>
        <time>2018-05-09T10:37:58.000Z</time>
      </trkpt>
      <trkpt lat="44.2487" lon="7.04735">
        <ele>1944.4000244141</ele>
        <time>2018-05-09T10:38:00.000Z</time>
      </trkpt>
      <trkpt lat="44.24872" lon="7.04736">
        <ele>1944.4000244141</ele>
        <time>2018-05-09T10:38:04.000Z</time>
      </trkpt>
      <trkpt lat="44.24871" lon="7.04736">
        <ele>1944.4000244141</ele>
        <time>2018-05-09T10:38:09.000Z</time>
      </trkpt>
      <trkpt lat="44.24871" lon="7.04736">
        <ele>1944.4000244141</ele>
        <time>2018-05-09T10:38:11.000Z</time>
      </trkpt>
      <trkpt lat="44.24871" lon="7.04736">
        <ele>1944.4000244141</ele>
        <time>2018-05-09T10:38:17.000Z</time>
      </trkpt>
      <trkpt lat="44.24869" lon="7.04736">
        <ele>1944.4000244141</ele>
        <time>2018-05-09T10:38:23.000Z</time>
      </trkpt>
      <trkpt lat="44.24869" lon="7.04737">
        <ele>1944.4000244141</ele>
        <time>2018-05-09T10:38:27.000Z</time>
      </trkpt>
      <trkpt lat="44.24869" lon="7.04737">
        <ele>1944.4000244141</ele>
        <time>2018-05-09T10:38:29.000Z</time>
      </trkpt>
      <trkpt lat="44.24869" lon="7.04736">
        <ele>1944.4000244141</ele>
        <time>2018-05-09T10:38:34.000Z</time>
      </trkpt>
      <trkpt lat="44.2487" lon="7.04731">
        <ele>1944.4000244141</ele>
        <time>2018-05-09T10:38:37.000Z</time>
      </trkpt>
      <trkpt lat="44.24871" lon="7.04731">
        <ele>1944.4000244141</ele>
        <time>2018-05-09T10:38:40.000Z</time>
      </trkpt>
      <trkpt lat="44.24873" lon="7.04732">
        <ele>1944.4000244141</ele>
        <time>2018-05-09T10:38:43.000Z</time>
      </trkpt>
      <trkpt lat="44.24874" lon="7.04732">
        <ele>1944.4000244141</ele>
        <time>2018-05-09T10:38:46.000Z</time>
      </trkpt>
      <trkpt lat="44.24875" lon="7.04731">
        <ele>1944.4000244141</ele>
        <time>2018-05-09T10:38:48.000Z</time>
      </trkpt>
      <trkpt lat="44.24877" lon="7.04731">
        <ele>1944.4000244141</ele>
        <time>2018-05-09T10:38:51.000Z</time>
      </trkpt>
      <trkpt lat="44.24876" lon="7.04729">
        <ele>1944.4000244141</ele>
        <time>2018-05-09T10:38:56.000Z</time>
      </trkpt>
      <trkpt lat="44.24876" lon="7.0473">
        <ele>1944.4000244141</ele>
        <time>2018-05-09T10:38:59.000Z</time>
      </trkpt>
      <trkpt lat="44.24877" lon="7.04732">
        <ele>1944.4000244141</ele>
        <time>2018-05-09T10:39:09.000Z</time>
      </trkpt>
      <trkpt lat="44.24877" lon="7.04732">
        <ele>1944.4000244141</ele>
        <time>2018-05-09T10:39:12.000Z</time>
      </trkpt>
      <trkpt lat="44.24875" lon="7.04733">
        <ele>1944.4000244141</ele>
        <time>2018-05-09T10:39:15.000Z</time>
      </trkpt>
      <trkpt lat="44.24876" lon="7.04733">
        <ele>1944.4000244141</ele>
        <time>2018-05-09T10:39:18.000Z</time>
      </trkpt>
      <trkpt lat="44.24875" lon="7.04733">
        <ele>1944.4000244141</ele>
        <time>2018-05-09T10:39:23.000Z</time>
      </trkpt>
      <trkpt lat="44.24874" lon="7.04733">
        <ele>1944.4000244141</ele>
        <time>2018-05-09T10:39:27.000Z</time>
      </trkpt>
      <trkpt lat="44.24874" lon="7.04733">
        <ele>1944.4000244141</ele>
        <time>2018-05-09T10:39:29.000Z</time>
      </trkpt>
      <trkpt lat="44.24875" lon="7.04732">
        <ele>1944.4000244141</ele>
        <time>2018-05-09T10:40:17.000Z</time>
      </trkpt>
      <trkpt lat="44.24876" lon="7.04729">
        <ele>1944.4000244141</ele>
        <time>2018-05-09T10:40:26.000Z</time>
      </trkpt>
      <trkpt lat="44.24878" lon="7.04728">
        <ele>1944.4000244141</ele>
        <time>2018-05-09T10:40:28.000Z</time>
      </trkpt>
      <trkpt lat="44.24876" lon="7.04729">
        <ele>1944.4000244141</ele>
        <time>2018-05-09T10:40:33.000Z</time>
      </trkpt>
      <trkpt lat="44.24875" lon="7.04729">
        <ele>1944.4000244141</ele>
        <time>2018-05-09T10:40:36.000Z</time>
      </trkpt>
      <trkpt lat="44.24876" lon="7.04731">
        <ele>1944.4000244141</ele>
        <time>2018-05-09T10:40:45.000Z</time>
      </trkpt>
      <trkpt lat="44.24877" lon="7.04729">
        <ele>1944.4000244141</ele>
        <time>2018-05-09T10:40:49.000Z</time>
      </trkpt>
      <trkpt lat="44.24878" lon="7.04726">
        <ele>1944.4000244141</ele>
        <time>2018-05-09T10:40:54.000Z</time>
      </trkpt>
      <trkpt lat="44.24877" lon="7.04728">
        <ele>1944.4000244141</ele>
        <time>2018-05-09T10:41:01.000Z</time>
      </trkpt>
      <trkpt lat="44.24881" lon="7.04727">
        <ele>1944.4000244141</ele>
        <time>2018-05-09T10:41:05.000Z</time>
      </trkpt>
      <trkpt lat="44.24882" lon="7.04726">
        <ele>1944.4000244141</ele>
        <time>2018-05-09T10:41:06.000Z</time>
      </trkpt>
      <trkpt lat="44.24888" lon="7.04728">
        <ele>1944</ele>
        <time>2018-05-09T10:41:10.000Z</time>
      </trkpt>
      <trkpt lat="44.24902" lon="7.04727">
        <ele>1943.4000244141</ele>
        <time>2018-05-09T10:41:18.000Z</time>
      </trkpt>
      <trkpt lat="44.24909" lon="7.04725">
        <ele>1943.1999511719</ele>
        <time>2018-05-09T10:41:22.000Z</time>
      </trkpt>
      <trkpt lat="44.24917" lon="7.04721">
        <ele>1942.8000488281</ele>
        <time>2018-05-09T10:41:26.000Z</time>
      </trkpt>
      <trkpt lat="44.24933" lon="7.04721">
        <ele>1942.1999511719</ele>
        <time>2018-05-09T10:41:42.000Z</time>
      </trkpt>
      <trkpt lat="44.24936" lon="7.04721">
        <ele>1942</ele>
        <time>2018-05-09T10:41:44.000Z</time>
      </trkpt>
      <trkpt lat="44.24942" lon="7.04719">
        <ele>1941.8000488281</ele>
        <time>2018-05-09T10:41:50.000Z</time>
      </trkpt>
      <trkpt lat="44.24942" lon="7.04718">
        <ele>1941.5999755859</ele>
        <time>2018-05-09T10:41:52.000Z</time>
      </trkpt>
      <trkpt lat="44.24943" lon="7.04717">
        <ele>1941.4000244141</ele>
        <time>2018-05-09T10:41:57.000Z</time>
      </trkpt>
      <trkpt lat="44.2495" lon="7.04716">
        <ele>1940.8000488281</ele>
        <time>2018-05-09T10:42:02.000Z</time>
      </trkpt>
      <trkpt lat="44.24953" lon="7.04715">
        <ele>1940.5999755859</ele>
        <time>2018-05-09T10:42:06.000Z</time>
      </trkpt>
      <trkpt lat="44.24953" lon="7.04714">
        <ele>1940.5999755859</ele>
        <time>2018-05-09T10:42:18.000Z</time>
      </trkpt>
      <trkpt lat="44.24954" lon="7.04714">
        <ele>1940.5999755859</ele>
        <time>2018-05-09T10:42:21.000Z</time>
      </trkpt>
      <trkpt lat="44.24955" lon="7.04714">
        <ele>1940.5999755859</ele>
        <time>2018-05-09T10:42:23.000Z</time>
      </trkpt>
      <trkpt lat="44.24954" lon="7.0471">
        <ele>1940.8000488281</ele>
        <time>2018-05-09T10:42:34.000Z</time>
      </trkpt>
      <trkpt lat="44.24953" lon="7.04707">
        <ele>1941</ele>
        <time>2018-05-09T10:42:40.000Z</time>
      </trkpt>
      <trkpt lat="44.24951" lon="7.04707">
        <ele>1941.1999511719</ele>
        <time>2018-05-09T10:42:48.000Z</time>
      </trkpt>
      <trkpt lat="44.24951" lon="7.04708">
        <ele>1941</ele>
        <time>2018-05-09T10:42:51.000Z</time>
      </trkpt>
      <trkpt lat="44.24951" lon="7.04709">
        <ele>1941</ele>
        <time>2018-05-09T10:42:52.000Z</time>
      </trkpt>
      <trkpt lat="44.2495" lon="7.0471">
        <ele>1941</ele>
        <time>2018-05-09T10:42:53.000Z</time>
      </trkpt>
      <trkpt lat="44.2495" lon="7.04712">
        <ele>1941</ele>
        <time>2018-05-09T10:42:54.000Z</time>
      </trkpt>
      <trkpt lat="44.24949" lon="7.04712">
        <ele>1941</ele>
        <time>2018-05-09T10:42:56.000Z</time>
      </trkpt>
      <trkpt lat="44.24949" lon="7.04714">
        <ele>1941</ele>
        <time>2018-05-09T10:42:59.000Z</time>
      </trkpt>
      <trkpt lat="44.2495" lon="7.0472">
        <ele>1941</ele>
        <time>2018-05-09T10:43:05.000Z</time>
      </trkpt>
      <trkpt lat="44.2495" lon="7.0472">
        <ele>1941</ele>
        <time>2018-05-09T10:43:07.000Z</time>
      </trkpt>
      <trkpt lat="44.24949" lon="7.0472">
        <ele>1941</ele>
        <time>2018-05-09T10:43:09.000Z</time>
      </trkpt>
      <trkpt lat="44.24949" lon="7.04721">
        <ele>1941</ele>
        <time>2018-05-09T10:43:10.000Z</time>
      </trkpt>
      <trkpt lat="44.24949" lon="7.04721">
        <ele>1940.8000488281</ele>
        <time>2018-05-09T10:43:12.000Z</time>
      </trkpt>
      <trkpt lat="44.24948" lon="7.04723">
        <ele>1940.8000488281</ele>
        <time>2018-05-09T10:43:15.000Z</time>
      </trkpt>
      <trkpt lat="44.24948" lon="7.04723">
        <ele>1940.8000488281</ele>
        <time>2018-05-09T10:43:16.000Z</time>
      </trkpt>
      <trkpt lat="44.24948" lon="7.04722">
        <ele>1940.8000488281</ele>
        <time>2018-05-09T10:43:19.000Z</time>
      </trkpt>
      <trkpt lat="44.24948" lon="7.04722">
        <ele>1940.8000488281</ele>
        <time>2018-05-09T10:43:20.000Z</time>
      </trkpt>
      <trkpt lat="44.24948" lon="7.0472">
        <ele>1940.8000488281</ele>
        <time>2018-05-09T10:43:23.000Z</time>
      </trkpt>
      <trkpt lat="44.24949" lon="7.04719">
        <ele>1940.8000488281</ele>
        <time>2018-05-09T10:43:25.000Z</time>
      </trkpt>
      <trkpt lat="44.2495" lon="7.04717">
        <ele>1940.8000488281</ele>
        <time>2018-05-09T10:43:27.000Z</time>
      </trkpt>
      <trkpt lat="44.24955" lon="7.04714">
        <ele>1940.8000488281</ele>
        <time>2018-05-09T10:43:32.000Z</time>
      </trkpt>
      <trkpt lat="44.24957" lon="7.04714">
        <ele>1940.8000488281</ele>
        <time>2018-05-09T10:43:33.000Z</time>
      </trkpt>
      <trkpt lat="44.24963" lon="7.04714">
        <ele>1940.8000488281</ele>
        <time>2018-05-09T10:43:35.000Z</time>
      </trkpt>
      <trkpt lat="44.24967" lon="7.04714">
        <ele>1939</ele>
        <time>2018-05-09T10:43:36.000Z</time>
      </trkpt>
      <trkpt lat="44.24971" lon="7.04714">
        <ele>1938.5999755859</ele>
        <time>2018-05-09T10:43:37.000Z</time>
      </trkpt>
      <trkpt lat="44.24975" lon="7.04713">
        <ele>1937</ele>
        <time>2018-05-09T10:43:38.000Z</time>
      </trkpt>
      <trkpt lat="44.24983" lon="7.0471">
        <ele>1936</ele>
        <time>2018-05-09T10:43:40.000Z</time>
      </trkpt>
      <trkpt lat="44.2499" lon="7.04709">
        <ele>1936.1999511719</ele>
        <time>2018-05-09T10:43:42.000Z</time>
      </trkpt>
      <trkpt lat="44.24999" lon="7.04708">
        <ele>1935</ele>
        <time>2018-05-09T10:43:44.000Z</time>
      </trkpt>
      <trkpt lat="44.25007" lon="7.047">
        <ele>1933</ele>
        <time>2018-05-09T10:43:46.000Z</time>
      </trkpt>
      <trkpt lat="44.2501" lon="7.04696">
        <ele>1932</ele>
        <time>2018-05-09T10:43:47.000Z</time>
      </trkpt>
      <trkpt lat="44.25015" lon="7.04691">
        <ele>1930.1999511719</ele>
        <time>2018-05-09T10:43:49.000Z</time>
      </trkpt>
      <trkpt lat="44.25019" lon="7.04688">
        <ele>1929</ele>
        <time>2018-05-09T10:43:51.000Z</time>
      </trkpt>
      <trkpt lat="44.25028" lon="7.04688">
        <ele>1927.8000488281</ele>
        <time>2018-05-09T10:43:54.000Z</time>
      </trkpt>
      <trkpt lat="44.25032" lon="7.04696">
        <ele>1926.1999511719</ele>
        <time>2018-05-09T10:43:56.000Z</time>
      </trkpt>
      <trkpt lat="44.25032" lon="7.04699">
        <ele>1924.8000488281</ele>
        <time>2018-05-09T10:43:57.000Z</time>
      </trkpt>
      <trkpt lat="44.25034" lon="7.047">
        <ele>1923</ele>
        <time>2018-05-09T10:43:58.000Z</time>
      </trkpt>
      <trkpt lat="44.25036" lon="7.04702">
        <ele>1921.5999755859</ele>
        <time>2018-05-09T10:43:59.000Z</time>
      </trkpt>
      <trkpt lat="44.25038" lon="7.04702">
        <ele>1920.5999755859</ele>
        <time>2018-05-09T10:44:01.000Z</time>
      </trkpt>
      <trkpt lat="44.25039" lon="7.04702">
        <ele>1920.4000244141</ele>
        <time>2018-05-09T10:44:02.000Z</time>
      </trkpt>
      <trkpt lat="44.25042" lon="7.047">
        <ele>1920.1999511719</ele>
        <time>2018-05-09T10:44:05.000Z</time>
      </trkpt>
      <trkpt lat="44.25048" lon="7.04694">
        <ele>1920</ele>
        <time>2018-05-09T10:44:07.000Z</time>
      </trkpt>
      <trkpt lat="44.25059" lon="7.04688">
        <ele>1919.1999511719</ele>
        <time>2018-05-09T10:44:09.000Z</time>
      </trkpt>
      <trkpt lat="44.25065" lon="7.04687">
        <ele>1918</ele>
        <time>2018-05-09T10:44:10.000Z</time>
      </trkpt>
      <trkpt lat="44.2507" lon="7.04685">
        <ele>1916.5999755859</ele>
        <time>2018-05-09T10:44:11.000Z</time>
      </trkpt>
      <trkpt lat="44.25074" lon="7.04684">
        <ele>1914.8000488281</ele>
        <time>2018-05-09T10:44:12.000Z</time>
      </trkpt>
      <trkpt lat="44.25077" lon="7.04683">
        <ele>1913.1999511719</ele>
        <time>2018-05-09T10:44:13.000Z</time>
      </trkpt>
      <trkpt lat="44.25081" lon="7.04684">
        <ele>1911.5999755859</ele>
        <time>2018-05-09T10:44:14.000Z</time>
      </trkpt>
      <trkpt lat="44.25084" lon="7.04686">
        <ele>1910</ele>
        <time>2018-05-09T10:44:15.000Z</time>
      </trkpt>
      <trkpt lat="44.25087" lon="7.04687">
        <ele>1908.8000488281</ele>
        <time>2018-05-09T10:44:16.000Z</time>
      </trkpt>
      <trkpt lat="44.25095" lon="7.04689">
        <ele>1906.8000488281</ele>
        <time>2018-05-09T10:44:18.000Z</time>
      </trkpt>
      <trkpt lat="44.25098" lon="7.04691">
        <ele>1905.8000488281</ele>
        <time>2018-05-09T10:44:19.000Z</time>
      </trkpt>
      <trkpt lat="44.25099" lon="7.04696">
        <ele>1904.4000244141</ele>
        <time>2018-05-09T10:44:20.000Z</time>
      </trkpt>
      <trkpt lat="44.25101" lon="7.047">
        <ele>1903</ele>
        <time>2018-05-09T10:44:21.000Z</time>
      </trkpt>
      <trkpt lat="44.25102" lon="7.04704">
        <ele>1901.8000488281</ele>
        <time>2018-05-09T10:44:22.000Z</time>
      </trkpt>
      <trkpt lat="44.25104" lon="7.04709">
        <ele>1900.4000244141</ele>
        <time>2018-05-09T10:44:23.000Z</time>
      </trkpt>
      <trkpt lat="44.25107" lon="7.04712">
        <ele>1899.4000244141</ele>
        <time>2018-05-09T10:44:24.000Z</time>
      </trkpt>
      <trkpt lat="44.25116" lon="7.04711">
        <ele>1897.5999755859</ele>
        <time>2018-05-09T10:44:26.000Z</time>
      </trkpt>
      <trkpt lat="44.25126" lon="7.04705">
        <ele>1895.8000488281</ele>
        <time>2018-05-09T10:44:28.000Z</time>
      </trkpt>
      <trkpt lat="44.25129" lon="7.04703">
        <ele>1894.4000244141</ele>
        <time>2018-05-09T10:44:29.000Z</time>
      </trkpt>
      <trkpt lat="44.25131" lon="7.04702">
        <ele>1893.1999511719</ele>
        <time>2018-05-09T10:44:30.000Z</time>
      </trkpt>
      <trkpt lat="44.25136" lon="7.04702">
        <ele>1891.5999755859</ele>
        <time>2018-05-09T10:44:32.000Z</time>
      </trkpt>
      <trkpt lat="44.25144" lon="7.04704">
        <ele>1890.4000244141</ele>
        <time>2018-05-09T10:44:35.000Z</time>
      </trkpt>
      <trkpt lat="44.25157" lon="7.04705">
        <ele>1888.8000488281</ele>
        <time>2018-05-09T10:44:38.000Z</time>
      </trkpt>
      <trkpt lat="44.25161" lon="7.04703">
        <ele>1887.5999755859</ele>
        <time>2018-05-09T10:44:40.000Z</time>
      </trkpt>
      <trkpt lat="44.25162" lon="7.04703">
        <ele>1886.4000244141</ele>
        <time>2018-05-09T10:44:42.000Z</time>
      </trkpt>
      <trkpt lat="44.25165" lon="7.04703">
        <ele>1885.8000488281</ele>
        <time>2018-05-09T10:44:46.000Z</time>
      </trkpt>
      <trkpt lat="44.25167" lon="7.04703">
        <ele>1885.4000244141</ele>
        <time>2018-05-09T10:44:48.000Z</time>
      </trkpt>
      <trkpt lat="44.25168" lon="7.04702">
        <ele>1885.4000244141</ele>
        <time>2018-05-09T10:44:49.000Z</time>
      </trkpt>
      <trkpt lat="44.25171" lon="7.04701">
        <ele>1885</ele>
        <time>2018-05-09T10:44:51.000Z</time>
      </trkpt>
      <trkpt lat="44.25171" lon="7.047">
        <ele>1884.5999755859</ele>
        <time>2018-05-09T10:44:53.000Z</time>
      </trkpt>
      <trkpt lat="44.25171" lon="7.047">
        <ele>1884.4000244141</ele>
        <time>2018-05-09T10:44:54.000Z</time>
      </trkpt>
      <trkpt lat="44.25184" lon="7.04697">
        <ele>1884.4000244141</ele>
        <time>2018-05-09T10:45:08.000Z</time>
      </trkpt>
      <trkpt lat="44.25176" lon="7.04692">
        <ele>1883.8000488281</ele>
        <time>2018-05-09T10:45:19.000Z</time>
      </trkpt>
      <trkpt lat="44.25176" lon="7.04695">
        <ele>1883.8000488281</ele>
        <time>2018-05-09T10:45:23.000Z</time>
      </trkpt>
      <trkpt lat="44.25177" lon="7.04695">
        <ele>1883.5999755859</ele>
        <time>2018-05-09T10:45:29.000Z</time>
      </trkpt>
      <trkpt lat="44.25177" lon="7.04696">
        <ele>1883.5999755859</ele>
        <time>2018-05-09T10:45:31.000Z</time>
      </trkpt>
      <trkpt lat="44.25177" lon="7.04696">
        <ele>1883.5999755859</ele>
        <time>2018-05-09T10:45:32.000Z</time>
      </trkpt>
      <trkpt lat="44.25175" lon="7.04693">
        <ele>1883.5999755859</ele>
        <time>2018-05-09T10:45:41.000Z</time>
      </trkpt>
      <trkpt lat="44.25173" lon="7.04694">
        <ele>1883.5999755859</ele>
        <time>2018-05-09T10:45:44.000Z</time>
      </trkpt>
      <trkpt lat="44.25173" lon="7.04693">
        <ele>1883.5999755859</ele>
        <time>2018-05-09T10:45:47.000Z</time>
      </trkpt>
      <trkpt lat="44.25187" lon="7.04694">
        <ele>1883.4000244141</ele>
        <time>2018-05-09T10:45:51.000Z</time>
      </trkpt>
      <trkpt lat="44.25192" lon="7.04696">
        <ele>1882.8000488281</ele>
        <time>2018-05-09T10:45:52.000Z</time>
      </trkpt>
      <trkpt lat="44.25201" lon="7.04698">
        <ele>1881</ele>
        <time>2018-05-09T10:45:54.000Z</time>
      </trkpt>
      <trkpt lat="44.2521" lon="7.04699">
        <ele>1879.4000244141</ele>
        <time>2018-05-09T10:45:56.000Z</time>
      </trkpt>
      <trkpt lat="44.25219" lon="7.04699">
        <ele>1878.1999511719</ele>
        <time>2018-05-09T10:45:58.000Z</time>
      </trkpt>
      <trkpt lat="44.25222" lon="7.04698">
        <ele>1877.1999511719</ele>
        <time>2018-05-09T10:45:59.000Z</time>
      </trkpt>
      <trkpt lat="44.25224" lon="7.04697">
        <ele>1876.1999511719</ele>
        <time>2018-05-09T10:46:00.000Z</time>
      </trkpt>
      <trkpt lat="44.25226" lon="7.04696">
        <ele>1875.4000244141</ele>
        <time>2018-05-09T10:46:01.000Z</time>
      </trkpt>
      <trkpt lat="44.25229" lon="7.04696">
        <ele>1874.5999755859</ele>
        <time>2018-05-09T10:46:02.000Z</time>
      </trkpt>
      <trkpt lat="44.25234" lon="7.04695">
        <ele>1873.5999755859</ele>
        <time>2018-05-09T10:46:04.000Z</time>
      </trkpt>
      <trkpt lat="44.25242" lon="7.04701">
        <ele>1872.4000244141</ele>
        <time>2018-05-09T10:46:07.000Z</time>
      </trkpt>
      <trkpt lat="44.25242" lon="7.04707">
        <ele>1870.4000244141</ele>
        <time>2018-05-09T10:46:09.000Z</time>
      </trkpt>
      <trkpt lat="44.25241" lon="7.0471">
        <ele>1869.1999511719</ele>
        <time>2018-05-09T10:46:10.000Z</time>
      </trkpt>
      <trkpt lat="44.25242" lon="7.04713">
        <ele>1868</ele>
        <time>2018-05-09T10:46:11.000Z</time>
      </trkpt>
      <trkpt lat="44.25245" lon="7.04716">
        <ele>1866.8000488281</ele>
        <time>2018-05-09T10:46:12.000Z</time>
      </trkpt>
      <trkpt lat="44.25249" lon="7.04718">
        <ele>1865.8000488281</ele>
        <time>2018-05-09T10:46:13.000Z</time>
      </trkpt>
      <trkpt lat="44.25252" lon="7.04721">
        <ele>1864.8000488281</ele>
        <time>2018-05-09T10:46:14.000Z</time>
      </trkpt>
      <trkpt lat="44.25255" lon="7.04724">
        <ele>1863.5999755859</ele>
        <time>2018-05-09T10:46:15.000Z</time>
      </trkpt>
      <trkpt lat="44.25255" lon="7.04727">
        <ele>1862.4000244141</ele>
        <time>2018-05-09T10:46:16.000Z</time>
      </trkpt>
      <trkpt lat="44.25255" lon="7.04729">
        <ele>1860.8000488281</ele>
        <time>2018-05-09T10:46:17.000Z</time>
      </trkpt>
      <trkpt lat="44.25254" lon="7.04732">
        <ele>1859.1999511719</ele>
        <time>2018-05-09T10:46:18.000Z</time>
      </trkpt>
      <trkpt lat="44.25253" lon="7.04736">
        <ele>1858</ele>
        <time>2018-05-09T10:46:19.000Z</time>
      </trkpt>
      <trkpt lat="44.25252" lon="7.04745">
        <ele>1856.5999755859</ele>
        <time>2018-05-09T10:46:21.000Z</time>
      </trkpt>
      <trkpt lat="44.25251" lon="7.04747">
        <ele>1854.1999511719</ele>
        <time>2018-05-09T10:46:23.000Z</time>
      </trkpt>
      <trkpt lat="44.25251" lon="7.04748">
        <ele>1853</ele>
        <time>2018-05-09T10:46:24.000Z</time>
      </trkpt>
      <trkpt lat="44.25253" lon="7.04755">
        <ele>1851.5999755859</ele>
        <time>2018-05-09T10:46:26.000Z</time>
      </trkpt>
      <trkpt lat="44.25256" lon="7.04758">
        <ele>1850.5999755859</ele>
        <time>2018-05-09T10:46:29.000Z</time>
      </trkpt>
      <trkpt lat="44.25261" lon="7.04759">
        <ele>1850.1999511719</ele>
        <time>2018-05-09T10:46:38.000Z</time>
      </trkpt>
      <trkpt lat="44.25263" lon="7.04759">
        <ele>1850</ele>
        <time>2018-05-09T10:46:56.000Z</time>
      </trkpt>
      <trkpt lat="44.25268" lon="7.04766">
        <ele>1849.5999755859</ele>
        <time>2018-05-09T10:47:03.000Z</time>
      </trkpt>
      <trkpt lat="44.25268" lon="7.04769">
        <ele>1849.1999511719</ele>
        <time>2018-05-09T10:47:04.000Z</time>
      </trkpt>
      <trkpt lat="44.25267" lon="7.04775">
        <ele>1847.4000244141</ele>
        <time>2018-05-09T10:47:06.000Z</time>
      </trkpt>
      <trkpt lat="44.2527" lon="7.04779">
        <ele>1845.8000488281</ele>
        <time>2018-05-09T10:47:08.000Z</time>
      </trkpt>
      <trkpt lat="44.25275" lon="7.04785">
        <ele>1843.5999755859</ele>
        <time>2018-05-09T10:47:10.000Z</time>
      </trkpt>
      <trkpt lat="44.25275" lon="7.04788">
        <ele>1842.4000244141</ele>
        <time>2018-05-09T10:47:11.000Z</time>
      </trkpt>
      <trkpt lat="44.25275" lon="7.0479">
        <ele>1841.1999511719</ele>
        <time>2018-05-09T10:47:12.000Z</time>
      </trkpt>
      <trkpt lat="44.25277" lon="7.0479">
        <ele>1840</ele>
        <time>2018-05-09T10:47:13.000Z</time>
      </trkpt>
      <trkpt lat="44.2528" lon="7.04792">
        <ele>1839</ele>
        <time>2018-05-09T10:47:14.000Z</time>
      </trkpt>
      <trkpt lat="44.2528" lon="7.04795">
        <ele>1838</ele>
        <time>2018-05-09T10:47:15.000Z</time>
      </trkpt>
      <trkpt lat="44.25278" lon="7.04798">
        <ele>1837</ele>
        <time>2018-05-09T10:47:16.000Z</time>
      </trkpt>
      <trkpt lat="44.25277" lon="7.048">
        <ele>1835.8000488281</ele>
        <time>2018-05-09T10:47:17.000Z</time>
      </trkpt>
      <trkpt lat="44.25274" lon="7.04803">
        <ele>1834.4000244141</ele>
        <time>2018-05-09T10:47:19.000Z</time>
      </trkpt>
      <trkpt lat="44.25269" lon="7.0482">
        <ele>1833.1999511719</ele>
        <time>2018-05-09T10:47:24.000Z</time>
      </trkpt>
      <trkpt lat="44.25269" lon="7.04822">
        <ele>1833</ele>
        <time>2018-05-09T10:47:25.000Z</time>
      </trkpt>
      <trkpt lat="44.2527" lon="7.04824">
        <ele>1832.4000244141</ele>
        <time>2018-05-09T10:47:27.000Z</time>
      </trkpt>
      <trkpt lat="44.2527" lon="7.04826">
        <ele>1831.8000488281</ele>
        <time>2018-05-09T10:47:28.000Z</time>
      </trkpt>
      <trkpt lat="44.25274" lon="7.04842">
        <ele>1830.8000488281</ele>
        <time>2018-05-09T10:47:31.000Z</time>
      </trkpt>
      <trkpt lat="44.2528" lon="7.04846">
        <ele>1829.5999755859</ele>
        <time>2018-05-09T10:47:33.000Z</time>
      </trkpt>
      <trkpt lat="44.25283" lon="7.04846">
        <ele>1828.1999511719</ele>
        <time>2018-05-09T10:47:35.000Z</time>
      </trkpt>
      <trkpt lat="44.25284" lon="7.04847">
        <ele>1827.4000244141</ele>
        <time>2018-05-09T10:47:37.000Z</time>
      </trkpt>
      <trkpt lat="44.25287" lon="7.0485">
        <ele>1827.4000244141</ele>
        <time>2018-05-09T10:47:40.000Z</time>
      </trkpt>
      <trkpt lat="44.25291" lon="7.04851">
        <ele>1827.5999755859</ele>
        <time>2018-05-09T10:47:42.000Z</time>
      </trkpt>
      <trkpt lat="44.25303" lon="7.04848">
        <ele>1827.8000488281</ele>
        <time>2018-05-09T10:47:56.000Z</time>
      </trkpt>
      <trkpt lat="44.25302" lon="7.04844">
        <ele>1827.5999755859</ele>
        <time>2018-05-09T10:48:00.000Z</time>
      </trkpt>
      <trkpt lat="44.25297" lon="7.04841">
        <ele>1827.1999511719</ele>
        <time>2018-05-09T10:48:06.000Z</time>
      </trkpt>
      <trkpt lat="44.25296" lon="7.04841">
        <ele>1827.1999511719</ele>
        <time>2018-05-09T10:48:07.000Z</time>
      </trkpt>
      <trkpt lat="44.25294" lon="7.04841">
        <ele>1827</ele>
        <time>2018-05-09T10:48:08.000Z</time>
      </trkpt>
      <trkpt lat="44.25294" lon="7.0484">
        <ele>1827</ele>
        <time>2018-05-09T10:48:09.000Z</time>
      </trkpt>
      <trkpt lat="44.25296" lon="7.04835">
        <ele>1827</ele>
        <time>2018-05-09T10:48:11.000Z</time>
      </trkpt>
      <trkpt lat="44.25298" lon="7.04832">
        <ele>1826.8000488281</ele>
        <time>2018-05-09T10:48:12.000Z</time>
      </trkpt>
      <trkpt lat="44.25303" lon="7.0483">
        <ele>1825.8000488281</ele>
        <time>2018-05-09T10:48:14.000Z</time>
      </trkpt>
      <trkpt lat="44.25307" lon="7.04831">
        <ele>1825</ele>
        <time>2018-05-09T10:48:15.000Z</time>
      </trkpt>
      <trkpt lat="44.25311" lon="7.04832">
        <ele>1824.1999511719</ele>
        <time>2018-05-09T10:48:16.000Z</time>
      </trkpt>
      <trkpt lat="44.2532" lon="7.04832">
        <ele>1823.1999511719</ele>
        <time>2018-05-09T10:48:18.000Z</time>
      </trkpt>
      <trkpt lat="44.25324" lon="7.04831">
        <ele>1822.5999755859</ele>
        <time>2018-05-09T10:48:19.000Z</time>
      </trkpt>
      <trkpt lat="44.25326" lon="7.04829">
        <ele>1821.8000488281</ele>
        <time>2018-05-09T10:48:20.000Z</time>
      </trkpt>
      <trkpt lat="44.25328" lon="7.04826">
        <ele>1820.4000244141</ele>
        <time>2018-05-09T10:48:22.000Z</time>
      </trkpt>
      <trkpt lat="44.2533" lon="7.04825">
        <ele>1820.1999511719</ele>
        <time>2018-05-09T10:48:23.000Z</time>
      </trkpt>
      <trkpt lat="44.25335" lon="7.04827">
        <ele>1819.1999511719</ele>
        <time>2018-05-09T10:48:25.000Z</time>
      </trkpt>
      <trkpt lat="44.25341" lon="7.0483">
        <ele>1818</ele>
        <time>2018-05-09T10:48:27.000Z</time>
      </trkpt>
      <trkpt lat="44.25349" lon="7.04834">
        <ele>1816.5999755859</ele>
        <time>2018-05-09T10:48:29.000Z</time>
      </trkpt>
      <trkpt lat="44.25353" lon="7.0484">
        <ele>1814.8000488281</ele>
        <time>2018-05-09T10:48:31.000Z</time>
      </trkpt>
      <trkpt lat="44.25355" lon="7.04843">
        <ele>1813.8000488281</ele>
        <time>2018-05-09T10:48:32.000Z</time>
      </trkpt>
      <trkpt lat="44.2536" lon="7.04852">
        <ele>1811.5999755859</ele>
        <time>2018-05-09T10:48:34.000Z</time>
      </trkpt>
      <trkpt lat="44.25362" lon="7.04857">
        <ele>1810.4000244141</ele>
        <time>2018-05-09T10:48:35.000Z</time>
      </trkpt>
      <trkpt lat="44.25365" lon="7.0486">
        <ele>1809.1999511719</ele>
        <time>2018-05-09T10:48:36.000Z</time>
      </trkpt>
      <trkpt lat="44.25368" lon="7.04862">
        <ele>1808.1999511719</ele>
        <time>2018-05-09T10:48:37.000Z</time>
      </trkpt>
      <trkpt lat="44.25375" lon="7.04863">
        <ele>1807</ele>
        <time>2018-05-09T10:48:38.000Z</time>
      </trkpt>
      <trkpt lat="44.2538" lon="7.04862">
        <ele>1805.8000488281</ele>
        <time>2018-05-09T10:48:39.000Z</time>
      </trkpt>
      <trkpt lat="44.25382" lon="7.04862">
        <ele>1804.5999755859</ele>
        <time>2018-05-09T10:48:40.000Z</time>
      </trkpt>
      <trkpt lat="44.25387" lon="7.04861">
        <ele>1803</ele>
        <time>2018-05-09T10:48:42.000Z</time>
      </trkpt>
      <trkpt lat="44.25388" lon="7.04861">
        <ele>1802.5999755859</ele>
        <time>2018-05-09T10:48:43.000Z</time>
      </trkpt>
      <trkpt lat="44.25407" lon="7.04864">
        <ele>1801.8000488281</ele>
        <time>2018-05-09T10:48:53.000Z</time>
      </trkpt>
      <trkpt lat="44.2542" lon="7.04864">
        <ele>1800.8000488281</ele>
        <time>2018-05-09T10:48:56.000Z</time>
      </trkpt>
      <trkpt lat="44.25428" lon="7.04865">
        <ele>1799.4000244141</ele>
        <time>2018-05-09T10:48:58.000Z</time>
      </trkpt>
      <trkpt lat="44.25432" lon="7.04867">
        <ele>1798.1999511719</ele>
        <time>2018-05-09T10:49:00.000Z</time>
      </trkpt>
      <trkpt lat="44.25438" lon="7.04867">
        <ele>1797</ele>
        <time>2018-05-09T10:49:02.000Z</time>
      </trkpt>
      <trkpt lat="44.25441" lon="7.04867">
        <ele>1795.4000244141</ele>
        <time>2018-05-09T10:49:04.000Z</time>
      </trkpt>
      <trkpt lat="44.25445" lon="7.04865">
        <ele>1794.1999511719</ele>
        <time>2018-05-09T10:49:07.000Z</time>
      </trkpt>
      <trkpt lat="44.25452" lon="7.04862">
        <ele>1793</ele>
        <time>2018-05-09T10:49:11.000Z</time>
      </trkpt>
      <trkpt lat="44.25458" lon="7.04861">
        <ele>1792</ele>
        <time>2018-05-09T10:49:15.000Z</time>
      </trkpt>
      <trkpt lat="44.25469" lon="7.04846">
        <ele>1791</ele>
        <time>2018-05-09T10:49:37.000Z</time>
      </trkpt>
      <trkpt lat="44.25471" lon="7.04848">
        <ele>1790.8000488281</ele>
        <time>2018-05-09T10:49:38.000Z</time>
      </trkpt>
      <trkpt lat="44.25474" lon="7.04855">
        <ele>1789.5999755859</ele>
        <time>2018-05-09T10:49:40.000Z</time>
      </trkpt>
      <trkpt lat="44.25474" lon="7.04858">
        <ele>1788.5999755859</ele>
        <time>2018-05-09T10:49:41.000Z</time>
      </trkpt>
      <trkpt lat="44.25474" lon="7.04862">
        <ele>1787.8000488281</ele>
        <time>2018-05-09T10:49:42.000Z</time>
      </trkpt>
      <trkpt lat="44.25474" lon="7.04869">
        <ele>1786.5999755859</ele>
        <time>2018-05-09T10:49:45.000Z</time>
      </trkpt>
      <trkpt lat="44.25476" lon="7.04871">
        <ele>1785.8000488281</ele>
        <time>2018-05-09T10:49:48.000Z</time>
      </trkpt>
      <trkpt lat="44.25478" lon="7.04872">
        <ele>1785.5999755859</ele>
        <time>2018-05-09T10:50:01.000Z</time>
      </trkpt>
      <trkpt lat="44.25474" lon="7.04878">
        <ele>1785.4000244141</ele>
        <time>2018-05-09T10:50:06.000Z</time>
      </trkpt>
      <trkpt lat="44.25472" lon="7.04881">
        <ele>1785.4000244141</ele>
        <time>2018-05-09T10:50:07.000Z</time>
      </trkpt>
      <trkpt lat="44.25471" lon="7.04886">
        <ele>1785.1999511719</ele>
        <time>2018-05-09T10:50:10.000Z</time>
      </trkpt>
      <trkpt lat="44.25471" lon="7.04887">
        <ele>1784.8000488281</ele>
        <time>2018-05-09T10:50:12.000Z</time>
      </trkpt>
      <trkpt lat="44.25472" lon="7.04887">
        <ele>1784.8000488281</ele>
        <time>2018-05-09T10:50:13.000Z</time>
      </trkpt>
      <trkpt lat="44.25475" lon="7.04886">
        <ele>1784.5999755859</ele>
        <time>2018-05-09T10:50:16.000Z</time>
      </trkpt>
      <trkpt lat="44.25475" lon="7.04885">
        <ele>1784.5999755859</ele>
        <time>2018-05-09T10:50:17.000Z</time>
      </trkpt>
      <trkpt lat="44.25475" lon="7.04884">
        <ele>1784.4000244141</ele>
        <time>2018-05-09T10:50:18.000Z</time>
      </trkpt>
      <trkpt lat="44.25473" lon="7.04882">
        <ele>1784</ele>
        <time>2018-05-09T10:50:22.000Z</time>
      </trkpt>
      <trkpt lat="44.25478" lon="7.04877">
        <ele>1784</ele>
        <time>2018-05-09T10:50:27.000Z</time>
      </trkpt>
      <trkpt lat="44.2548" lon="7.04873">
        <ele>1784</ele>
        <time>2018-05-09T10:50:29.000Z</time>
      </trkpt>
      <trkpt lat="44.25482" lon="7.04868">
        <ele>1783.1999511719</ele>
        <time>2018-05-09T10:50:31.000Z</time>
      </trkpt>
      <trkpt lat="44.25485" lon="7.04867">
        <ele>1782</ele>
        <time>2018-05-09T10:50:33.000Z</time>
      </trkpt>
      <trkpt lat="44.25486" lon="7.04867">
        <ele>1781</ele>
        <time>2018-05-09T10:50:34.000Z</time>
      </trkpt>
      <trkpt lat="44.25487" lon="7.04866">
        <ele>1780</ele>
        <time>2018-05-09T10:50:35.000Z</time>
      </trkpt>
      <trkpt lat="44.25491" lon="7.04866">
        <ele>1778</ele>
        <time>2018-05-09T10:50:37.000Z</time>
      </trkpt>
      <trkpt lat="44.25493" lon="7.04866">
        <ele>1777</ele>
        <time>2018-05-09T10:50:38.000Z</time>
      </trkpt>
      <trkpt lat="44.25495" lon="7.04865">
        <ele>1775.5999755859</ele>
        <time>2018-05-09T10:50:39.000Z</time>
      </trkpt>
      <trkpt lat="44.25498" lon="7.04864">
        <ele>1774.5999755859</ele>
        <time>2018-05-09T10:50:40.000Z</time>
      </trkpt>
      <trkpt lat="44.25499" lon="7.04863">
        <ele>1773.1999511719</ele>
        <time>2018-05-09T10:50:41.000Z</time>
      </trkpt>
      <trkpt lat="44.255" lon="7.04862">
        <ele>1772</ele>
        <time>2018-05-09T10:50:42.000Z</time>
      </trkpt>
      <trkpt lat="44.25501" lon="7.04862">
        <ele>1770.8000488281</ele>
        <time>2018-05-09T10:50:43.000Z</time>
      </trkpt>
      <trkpt lat="44.25499" lon="7.0486">
        <ele>1769.8000488281</ele>
        <time>2018-05-09T10:50:46.000Z</time>
      </trkpt>
      <trkpt lat="44.25506" lon="7.0486">
        <ele>1769.5999755859</ele>
        <time>2018-05-09T10:51:02.000Z</time>
      </trkpt>
      <trkpt lat="44.25507" lon="7.0486">
        <ele>1769.5999755859</ele>
        <time>2018-05-09T10:51:08.000Z</time>
      </trkpt>
      <trkpt lat="44.25511" lon="7.04858">
        <ele>1769.5999755859</ele>
        <time>2018-05-09T10:51:14.000Z</time>
      </trkpt>
      <trkpt lat="44.25511" lon="7.04857">
        <ele>1769.5999755859</ele>
        <time>2018-05-09T10:51:15.000Z</time>
      </trkpt>
      <trkpt lat="44.25512" lon="7.04855">
        <ele>1769.4000244141</ele>
        <time>2018-05-09T10:51:16.000Z</time>
      </trkpt>
      <trkpt lat="44.25514" lon="7.04855">
        <ele>1769.4000244141</ele>
        <time>2018-05-09T10:51:17.000Z</time>
      </trkpt>
      <trkpt lat="44.25515" lon="7.04854">
        <ele>1769.4000244141</ele>
        <time>2018-05-09T10:51:18.000Z</time>
      </trkpt>
      <trkpt lat="44.25525" lon="7.04854">
        <ele>1768.4000244141</ele>
        <time>2018-05-09T10:51:21.000Z</time>
      </trkpt>
      <trkpt lat="44.25534" lon="7.04852">
        <ele>1767</ele>
        <time>2018-05-09T10:51:23.000Z</time>
      </trkpt>
      <trkpt lat="44.25537" lon="7.04851">
        <ele>1765.8000488281</ele>
        <time>2018-05-09T10:51:24.000Z</time>
      </trkpt>
      <trkpt lat="44.2554" lon="7.04849">
        <ele>1764.5999755859</ele>
        <time>2018-05-09T10:51:25.000Z</time>
      </trkpt>
      <trkpt lat="44.25541" lon="7.04849">
        <ele>1763.5999755859</ele>
        <time>2018-05-09T10:51:26.000Z</time>
      </trkpt>
      <trkpt lat="44.25541" lon="7.04849">
        <ele>1762.8000488281</ele>
        <time>2018-05-09T10:51:27.000Z</time>
      </trkpt>
      <trkpt lat="44.25541" lon="7.04848">
        <ele>1762.1999511719</ele>
        <time>2018-05-09T10:51:28.000Z</time>
      </trkpt>
      <trkpt lat="44.25542" lon="7.04847">
        <ele>1761.4000244141</ele>
        <time>2018-05-09T10:51:38.000Z</time>
      </trkpt>
      <trkpt lat="44.25548" lon="7.04842">
        <ele>1761.4000244141</ele>
        <time>2018-05-09T10:51:44.000Z</time>
      </trkpt>
      <trkpt lat="44.25541" lon="7.04843">
        <ele>1761.4000244141</ele>
        <time>2018-05-09T10:51:49.000Z</time>
      </trkpt>
      <trkpt lat="44.25538" lon="7.04842">
        <ele>1761.4000244141</ele>
        <time>2018-05-09T10:51:51.000Z</time>
      </trkpt>
      <trkpt lat="44.25538" lon="7.04842">
        <ele>1761.1999511719</ele>
        <time>2018-05-09T10:51:54.000Z</time>
      </trkpt>
      <trkpt lat="44.2554" lon="7.04841">
        <ele>1761</ele>
        <time>2018-05-09T10:51:57.000Z</time>
      </trkpt>
      <trkpt lat="44.25541" lon="7.04841">
        <ele>1760.5999755859</ele>
        <time>2018-05-09T10:51:59.000Z</time>
      </trkpt>
      <trkpt lat="44.25545" lon="7.04843">
        <ele>1760.4000244141</ele>
        <time>2018-05-09T10:52:03.000Z</time>
      </trkpt>
      <trkpt lat="44.25546" lon="7.04843">
        <ele>1760.4000244141</ele>
        <time>2018-05-09T10:52:04.000Z</time>
      </trkpt>
      <trkpt lat="44.25547" lon="7.04843">
        <ele>1760.4000244141</ele>
        <time>2018-05-09T10:52:05.000Z</time>
      </trkpt>
      <trkpt lat="44.25552" lon="7.04844">
        <ele>1760.5999755859</ele>
        <time>2018-05-09T10:52:08.000Z</time>
      </trkpt>
      <trkpt lat="44.25553" lon="7.04846">
        <ele>1760.4000244141</ele>
        <time>2018-05-09T10:52:14.000Z</time>
      </trkpt>
      <trkpt lat="44.25552" lon="7.04847">
        <ele>1760.4000244141</ele>
        <time>2018-05-09T10:52:15.000Z</time>
      </trkpt>
      <trkpt lat="44.25551" lon="7.04847">
        <ele>1760.4000244141</ele>
        <time>2018-05-09T10:52:16.000Z</time>
      </trkpt>
      <trkpt lat="44.25549" lon="7.04847">
        <ele>1760.4000244141</ele>
        <time>2018-05-09T10:52:19.000Z</time>
      </trkpt>
      <trkpt lat="44.25549" lon="7.04847">
        <ele>1760.4000244141</ele>
        <time>2018-05-09T10:52:20.000Z</time>
      </trkpt>
      <trkpt lat="44.25549" lon="7.04847">
        <ele>1760.5999755859</ele>
        <time>2018-05-09T10:52:22.000Z</time>
      </trkpt>
      <trkpt lat="44.25549" lon="7.04846">
        <ele>1760.5999755859</ele>
        <time>2018-05-09T10:52:24.000Z</time>
      </trkpt>
      <trkpt lat="44.2555" lon="7.04848">
        <ele>1760.4000244141</ele>
        <time>2018-05-09T10:52:27.000Z</time>
      </trkpt>
      <trkpt lat="44.25553" lon="7.04847">
        <ele>1760.4000244141</ele>
        <time>2018-05-09T10:52:30.000Z</time>
      </trkpt>
      <trkpt lat="44.25553" lon="7.04847">
        <ele>1760.1999511719</ele>
        <time>2018-05-09T10:52:32.000Z</time>
      </trkpt>
      <trkpt lat="44.25556" lon="7.04853">
        <ele>1759.8000488281</ele>
        <time>2018-05-09T10:52:37.000Z</time>
      </trkpt>
      <trkpt lat="44.25553" lon="7.04855">
        <ele>1760</ele>
        <time>2018-05-09T10:52:52.000Z</time>
      </trkpt>
      <trkpt lat="44.25552" lon="7.04855">
        <ele>1760</ele>
        <time>2018-05-09T10:52:57.000Z</time>
      </trkpt>
      <trkpt lat="44.25557" lon="7.04856">
        <ele>1760</ele>
        <time>2018-05-09T10:53:02.000Z</time>
      </trkpt>
      <trkpt lat="44.2556" lon="7.04856">
        <ele>1760</ele>
        <time>2018-05-09T10:53:07.000Z</time>
      </trkpt>
      <trkpt lat="44.25563" lon="7.04856">
        <ele>1760</ele>
        <time>2018-05-09T10:53:09.000Z</time>
      </trkpt>
      <trkpt lat="44.25561" lon="7.04857">
        <ele>1759.8000488281</ele>
        <time>2018-05-09T10:53:10.000Z</time>
      </trkpt>
      <trkpt lat="44.25561" lon="7.04858">
        <ele>1759.8000488281</ele>
        <time>2018-05-09T10:53:11.000Z</time>
      </trkpt>
      <trkpt lat="44.25561" lon="7.04858">
        <ele>1759.8000488281</ele>
        <time>2018-05-09T10:53:13.000Z</time>
      </trkpt>
      <trkpt lat="44.25561" lon="7.04861">
        <ele>1759.8000488281</ele>
        <time>2018-05-09T10:53:29.000Z</time>
      </trkpt>
      <trkpt lat="44.2556" lon="7.04861">
        <ele>1759.8000488281</ele>
        <time>2018-05-09T10:53:35.000Z</time>
      </trkpt>
      <trkpt lat="44.2556" lon="7.04861">
        <ele>1759.8000488281</ele>
        <time>2018-05-09T10:53:38.000Z</time>
      </trkpt>
      <trkpt lat="44.25557" lon="7.04861">
        <ele>1759.8000488281</ele>
        <time>2018-05-09T10:53:43.000Z</time>
      </trkpt>
      <trkpt lat="44.25554" lon="7.04862">
        <ele>1759.8000488281</ele>
        <time>2018-05-09T10:53:49.000Z</time>
      </trkpt>
      <trkpt lat="44.25553" lon="7.04861">
        <ele>1759.8000488281</ele>
        <time>2018-05-09T10:53:58.000Z</time>
      </trkpt>
      <trkpt lat="44.25552" lon="7.04859">
        <ele>1759.8000488281</ele>
        <time>2018-05-09T10:54:00.000Z</time>
      </trkpt>
      <trkpt lat="44.25561" lon="7.04851">
        <ele>1759.8000488281</ele>
        <time>2018-05-09T10:54:06.000Z</time>
      </trkpt>
      <trkpt lat="44.25563" lon="7.04851">
        <ele>1759.8000488281</ele>
        <time>2018-05-09T10:54:08.000Z</time>
      </trkpt>
      <trkpt lat="44.25564" lon="7.04851">
        <ele>1759.5999755859</ele>
        <time>2018-05-09T10:54:14.000Z</time>
      </trkpt>
      <trkpt lat="44.25565" lon="7.04852">
        <ele>1759.5999755859</ele>
        <time>2018-05-09T10:54:16.000Z</time>
      </trkpt>
      <trkpt lat="44.25564" lon="7.04852">
        <ele>1759.5999755859</ele>
        <time>2018-05-09T10:54:21.000Z</time>
      </trkpt>
      <trkpt lat="44.25561" lon="7.04856">
        <ele>1759.8000488281</ele>
        <time>2018-05-09T10:54:30.000Z</time>
      </trkpt>
      <trkpt lat="44.25558" lon="7.04859">
        <ele>1759.5999755859</ele>
        <time>2018-05-09T10:54:37.000Z</time>
      </trkpt>
      <trkpt lat="44.25558" lon="7.04861">
        <ele>1759.8000488281</ele>
        <time>2018-05-09T10:54:40.000Z</time>
      </trkpt>
      <trkpt lat="44.2556" lon="7.04863">
        <ele>1759.8000488281</ele>
        <time>2018-05-09T10:54:44.000Z</time>
      </trkpt>
      <trkpt lat="44.25564" lon="7.04862">
        <ele>1759.8000488281</ele>
        <time>2018-05-09T10:54:51.000Z</time>
      </trkpt>
      <trkpt lat="44.25566" lon="7.04862">
        <ele>1759.8000488281</ele>
        <time>2018-05-09T10:54:57.000Z</time>
      </trkpt>
      <trkpt lat="44.25568" lon="7.04861">
        <ele>1759.8000488281</ele>
        <time>2018-05-09T10:55:00.000Z</time>
      </trkpt>
      <trkpt lat="44.25569" lon="7.04862">
        <ele>1759.8000488281</ele>
        <time>2018-05-09T10:55:04.000Z</time>
      </trkpt>
      <trkpt lat="44.25568" lon="7.04869">
        <ele>1759.8000488281</ele>
        <time>2018-05-09T10:55:08.000Z</time>
      </trkpt>
      <trkpt lat="44.2556" lon="7.04882">
        <ele>1759.8000488281</ele>
        <time>2018-05-09T10:55:18.000Z</time>
      </trkpt>
      <trkpt lat="44.25559" lon="7.04883">
        <ele>1758.5999755859</ele>
        <time>2018-05-09T10:55:19.000Z</time>
      </trkpt>
      <trkpt lat="44.25557" lon="7.04883">
        <ele>1758.1999511719</ele>
        <time>2018-05-09T10:55:20.000Z</time>
      </trkpt>
      <trkpt lat="44.25553" lon="7.04882">
        <ele>1757.5999755859</ele>
        <time>2018-05-09T10:55:22.000Z</time>
      </trkpt>
      <trkpt lat="44.25551" lon="7.04883">
        <ele>1757</ele>
        <time>2018-05-09T10:55:24.000Z</time>
      </trkpt>
      <trkpt lat="44.25543" lon="7.04885">
        <ele>1757.1999511719</ele>
        <time>2018-05-09T10:55:28.000Z</time>
      </trkpt>
      <trkpt lat="44.25539" lon="7.04884">
        <ele>1757</ele>
        <time>2018-05-09T10:55:31.000Z</time>
      </trkpt>
      <trkpt lat="44.25537" lon="7.04885">
        <ele>1757.1999511719</ele>
        <time>2018-05-09T10:55:35.000Z</time>
      </trkpt>
      <trkpt lat="44.25535" lon="7.04885">
        <ele>1757.1999511719</ele>
        <time>2018-05-09T10:55:38.000Z</time>
      </trkpt>
      <trkpt lat="44.25535" lon="7.04885">
        <ele>1757.1999511719</ele>
        <time>2018-05-09T10:55:39.000Z</time>
      </trkpt>
      <trkpt lat="44.25536" lon="7.04887">
        <ele>1757.4000244141</ele>
        <time>2018-05-09T10:55:41.000Z</time>
      </trkpt>
      <trkpt lat="44.2554" lon="7.04893">
        <ele>1757</ele>
        <time>2018-05-09T10:55:50.000Z</time>
      </trkpt>
      <trkpt lat="44.25541" lon="7.04897">
        <ele>1756.8000488281</ele>
        <time>2018-05-09T10:55:54.000Z</time>
      </trkpt>
      <trkpt lat="44.25541" lon="7.04898">
        <ele>1756.8000488281</ele>
        <time>2018-05-09T10:55:57.000Z</time>
      </trkpt>
      <trkpt lat="44.25542" lon="7.049">
        <ele>1756.5999755859</ele>
        <time>2018-05-09T10:55:59.000Z</time>
      </trkpt>
      <trkpt lat="44.25542" lon="7.04902">
        <ele>1756.4000244141</ele>
        <time>2018-05-09T10:56:00.000Z</time>
      </trkpt>
      <trkpt lat="44.25538" lon="7.04906">
        <ele>1755.1999511719</ele>
        <time>2018-05-09T10:56:03.000Z</time>
      </trkpt>
      <trkpt lat="44.25539" lon="7.04908">
        <ele>1755</ele>
        <time>2018-05-09T10:56:05.000Z</time>
      </trkpt>
      <trkpt lat="44.25533" lon="7.04923">
        <ele>1754.4000244141</ele>
        <time>2018-05-09T10:56:11.000Z</time>
      </trkpt>
      <trkpt lat="44.25532" lon="7.04925">
        <ele>1754.1999511719</ele>
        <time>2018-05-09T10:56:13.000Z</time>
      </trkpt>
      <trkpt lat="44.25532" lon="7.04933">
        <ele>1753.4000244141</ele>
        <time>2018-05-09T10:56:18.000Z</time>
      </trkpt>
      <trkpt lat="44.25532" lon="7.04934">
        <ele>1753</ele>
        <time>2018-05-09T10:56:19.000Z</time>
      </trkpt>
      <trkpt lat="44.25533" lon="7.04935">
        <ele>1752.4000244141</ele>
        <time>2018-05-09T10:56:24.000Z</time>
      </trkpt>
      <trkpt lat="44.2553" lon="7.04937">
        <ele>1752.1999511719</ele>
        <time>2018-05-09T10:56:28.000Z</time>
      </trkpt>
      <trkpt lat="44.2553" lon="7.04935">
        <ele>1752.4000244141</ele>
        <time>2018-05-09T10:56:45.000Z</time>
      </trkpt>
      <trkpt lat="44.25535" lon="7.04939">
        <ele>1752</ele>
        <time>2018-05-09T10:56:50.000Z</time>
      </trkpt>
      <trkpt lat="44.25535" lon="7.04939">
        <ele>1751.5999755859</ele>
        <time>2018-05-09T10:56:51.000Z</time>
      </trkpt>
      <trkpt lat="44.2553" lon="7.04943">
        <ele>1751</ele>
        <time>2018-05-09T10:56:57.000Z</time>
      </trkpt>
      <trkpt lat="44.25528" lon="7.04945">
        <ele>1751.1999511719</ele>
        <time>2018-05-09T10:57:00.000Z</time>
      </trkpt>
      <trkpt lat="44.25527" lon="7.04948">
        <ele>1751</ele>
        <time>2018-05-09T10:57:03.000Z</time>
      </trkpt>
      <trkpt lat="44.25527" lon="7.04948">
        <ele>1751</ele>
        <time>2018-05-09T10:57:05.000Z</time>
      </trkpt>
      <trkpt lat="44.25528" lon="7.0495">
        <ele>1750.8000488281</ele>
        <time>2018-05-09T10:57:08.000Z</time>
      </trkpt>
      <trkpt lat="44.25532" lon="7.04953">
        <ele>1749.8000488281</ele>
        <time>2018-05-09T10:57:12.000Z</time>
      </trkpt>
      <trkpt lat="44.25533" lon="7.04956">
        <ele>1748.5999755859</ele>
        <time>2018-05-09T10:57:15.000Z</time>
      </trkpt>
      <trkpt lat="44.25534" lon="7.04957">
        <ele>1748.1999511719</ele>
        <time>2018-05-09T10:57:17.000Z</time>
      </trkpt>
      <trkpt lat="44.25533" lon="7.04958">
        <ele>1747.5999755859</ele>
        <time>2018-05-09T10:57:22.000Z</time>
      </trkpt>
      <trkpt lat="44.25535" lon="7.04958">
        <ele>1747.1999511719</ele>
        <time>2018-05-09T10:57:26.000Z</time>
      </trkpt>
      <trkpt lat="44.25536" lon="7.04959">
        <ele>1747</ele>
        <time>2018-05-09T10:57:27.000Z</time>
      </trkpt>
      <trkpt lat="44.25536" lon="7.04959">
        <ele>1746.4000244141</ele>
        <time>2018-05-09T10:57:29.000Z</time>
      </trkpt>
      <trkpt lat="44.25539" lon="7.04959">
        <ele>1745.8000488281</ele>
        <time>2018-05-09T10:57:32.000Z</time>
      </trkpt>
      <trkpt lat="44.25542" lon="7.04956">
        <ele>1745.5999755859</ele>
        <time>2018-05-09T10:57:34.000Z</time>
      </trkpt>
      <trkpt lat="44.25549" lon="7.04951">
        <ele>1745.5999755859</ele>
        <time>2018-05-09T10:57:37.000Z</time>
      </trkpt>
      <trkpt lat="44.25549" lon="7.0495">
        <ele>1745.5999755859</ele>
        <time>2018-05-09T10:57:38.000Z</time>
      </trkpt>
      <trkpt lat="44.25545" lon="7.04951">
        <ele>1745.4000244141</ele>
        <time>2018-05-09T10:57:40.000Z</time>
      </trkpt>
      <trkpt lat="44.25544" lon="7.04952">
        <ele>1745</ele>
        <time>2018-05-09T10:57:42.000Z</time>
      </trkpt>
      <trkpt lat="44.25544" lon="7.04952">
        <ele>1744.8000488281</ele>
        <time>2018-05-09T10:57:43.000Z</time>
      </trkpt>
      <trkpt lat="44.25544" lon="7.04952">
        <ele>1744.1999511719</ele>
        <time>2018-05-09T10:57:45.000Z</time>
      </trkpt>
      <trkpt lat="44.25542" lon="7.04953">
        <ele>1743.1999511719</ele>
        <time>2018-05-09T10:57:50.000Z</time>
      </trkpt>
      <trkpt lat="44.25541" lon="7.04953">
        <ele>1743</ele>
        <time>2018-05-09T10:57:53.000Z</time>
      </trkpt>
      <trkpt lat="44.25543" lon="7.04955">
        <ele>1742.8000488281</ele>
        <time>2018-05-09T10:57:56.000Z</time>
      </trkpt>
      <trkpt lat="44.25544" lon="7.04955">
        <ele>1742.8000488281</ele>
        <time>2018-05-09T10:57:57.000Z</time>
      </trkpt>
      <trkpt lat="44.25547" lon="7.04954">
        <ele>1742.5999755859</ele>
        <time>2018-05-09T10:57:59.000Z</time>
      </trkpt>
      <trkpt lat="44.25549" lon="7.04952">
        <ele>1742.1999511719</ele>
        <time>2018-05-09T10:58:00.000Z</time>
      </trkpt>
      <trkpt lat="44.25549" lon="7.04949">
        <ele>1741.4000244141</ele>
        <time>2018-05-09T10:58:01.000Z</time>
      </trkpt>
      <trkpt lat="44.2555" lon="7.04947">
        <ele>1740.8000488281</ele>
        <time>2018-05-09T10:58:02.000Z</time>
      </trkpt>
      <trkpt lat="44.2555" lon="7.04946">
        <ele>1740.1999511719</ele>
        <time>2018-05-09T10:58:03.000Z</time>
      </trkpt>
      <trkpt lat="44.2555" lon="7.04946">
        <ele>1739.5999755859</ele>
        <time>2018-05-09T10:58:04.000Z</time>
      </trkpt>
      <trkpt lat="44.25551" lon="7.04944">
        <ele>1739.1999511719</ele>
        <time>2018-05-09T10:58:06.000Z</time>
      </trkpt>
      <trkpt lat="44.25557" lon="7.04938">
        <ele>1739</ele>
        <time>2018-05-09T10:58:17.000Z</time>
      </trkpt>
      <trkpt lat="44.25557" lon="7.04936">
        <ele>1739</ele>
        <time>2018-05-09T10:58:28.000Z</time>
      </trkpt>
      <trkpt lat="44.25557" lon="7.04936">
        <ele>1739</ele>
        <time>2018-05-09T10:58:30.000Z</time>
      </trkpt>
      <trkpt lat="44.25561" lon="7.04937">
        <ele>1738.5999755859</ele>
        <time>2018-05-09T10:58:39.000Z</time>
      </trkpt>
      <trkpt lat="44.2556" lon="7.0494">
        <ele>1737</ele>
        <time>2018-05-09T10:58:42.000Z</time>
      </trkpt>
      <trkpt lat="44.25568" lon="7.04966">
        <ele>1736.4000244141</ele>
        <time>2018-05-09T10:59:00.000Z</time>
      </trkpt>
      <trkpt lat="44.25569" lon="7.0497">
        <ele>1736.1999511719</ele>
        <time>2018-05-09T10:59:04.000Z</time>
      </trkpt>
      <trkpt lat="44.25569" lon="7.04974">
        <ele>1736</ele>
        <time>2018-05-09T10:59:05.000Z</time>
      </trkpt>
      <trkpt lat="44.2557" lon="7.04977">
        <ele>1735</ele>
        <time>2018-05-09T10:59:07.000Z</time>
      </trkpt>
      <trkpt lat="44.2557" lon="7.04975">
        <ele>1734.4000244141</ele>
        <time>2018-05-09T10:59:08.000Z</time>
      </trkpt>
      <trkpt lat="44.25571" lon="7.04974">
        <ele>1733</ele>
        <time>2018-05-09T10:59:10.000Z</time>
      </trkpt>
      <trkpt lat="44.25572" lon="7.04975">
        <ele>1732.1999511719</ele>
        <time>2018-05-09T10:59:11.000Z</time>
      </trkpt>
      <trkpt lat="44.25572" lon="7.04974">
        <ele>1731.5999755859</ele>
        <time>2018-05-09T10:59:12.000Z</time>
      </trkpt>
      <trkpt lat="44.25573" lon="7.0497">
        <ele>1730.4000244141</ele>
        <time>2018-05-09T10:59:14.000Z</time>
      </trkpt>
      <trkpt lat="44.25572" lon="7.04969">
        <ele>1729.1999511719</ele>
        <time>2018-05-09T10:59:17.000Z</time>
      </trkpt>
      <trkpt lat="44.25571" lon="7.04967">
        <ele>1729.1999511719</ele>
        <time>2018-05-09T10:59:18.000Z</time>
      </trkpt>
      <trkpt lat="44.25568" lon="7.04963">
        <ele>1729</ele>
        <time>2018-05-09T10:59:20.000Z</time>
      </trkpt>
      <trkpt lat="44.25567" lon="7.04958">
        <ele>1729</ele>
        <time>2018-05-09T10:59:23.000Z</time>
      </trkpt>
      <trkpt lat="44.25568" lon="7.04956">
        <ele>1729.1999511719</ele>
        <time>2018-05-09T10:59:26.000Z</time>
      </trkpt>
      <trkpt lat="44.25572" lon="7.04953">
        <ele>1729</ele>
        <time>2018-05-09T10:59:30.000Z</time>
      </trkpt>
      <trkpt lat="44.25569" lon="7.04953">
        <ele>1728.5999755859</ele>
        <time>2018-05-09T10:59:33.000Z</time>
      </trkpt>
      <trkpt lat="44.25569" lon="7.04952">
        <ele>1728.1999511719</ele>
        <time>2018-05-09T10:59:35.000Z</time>
      </trkpt>
      <trkpt lat="44.25563" lon="7.04948">
        <ele>1728</ele>
        <time>2018-05-09T10:59:46.000Z</time>
      </trkpt>
      <trkpt lat="44.25562" lon="7.04948">
        <ele>1728.1999511719</ele>
        <time>2018-05-09T10:59:52.000Z</time>
      </trkpt>
      <trkpt lat="44.25559" lon="7.04945">
        <ele>1728.1999511719</ele>
        <time>2018-05-09T10:59:57.000Z</time>
      </trkpt>
      <trkpt lat="44.25556" lon="7.04951">
        <ele>1728.1999511719</ele>
        <time>2018-05-09T11:00:01.000Z</time>
      </trkpt>
      <trkpt lat="44.2556" lon="7.04944">
        <ele>1728</ele>
        <time>2018-05-09T11:00:06.000Z</time>
      </trkpt>
      <trkpt lat="44.25564" lon="7.0494">
        <ele>1727.4000244141</ele>
        <time>2018-05-09T11:00:09.000Z</time>
      </trkpt>
      <trkpt lat="44.25566" lon="7.04939">
        <ele>1727.1999511719</ele>
        <time>2018-05-09T11:00:10.000Z</time>
      </trkpt>
      <trkpt lat="44.25576" lon="7.04932">
        <ele>1726.1999511719</ele>
        <time>2018-05-09T11:00:16.000Z</time>
      </trkpt>
      <trkpt lat="44.2558" lon="7.04928">
        <ele>1725.8000488281</ele>
        <time>2018-05-09T11:00:20.000Z</time>
      </trkpt>
      <trkpt lat="44.25581" lon="7.04925">
        <ele>1725.1999511719</ele>
        <time>2018-05-09T11:00:22.000Z</time>
      </trkpt>
      <trkpt lat="44.25581" lon="7.04923">
        <ele>1725</ele>
        <time>2018-05-09T11:00:23.000Z</time>
      </trkpt>
      <trkpt lat="44.25581" lon="7.04917">
        <ele>1723.8000488281</ele>
        <time>2018-05-09T11:00:27.000Z</time>
      </trkpt>
      <trkpt lat="44.25584" lon="7.04914">
        <ele>1723.1999511719</ele>
        <time>2018-05-09T11:00:30.000Z</time>
      </trkpt>
      <trkpt lat="44.25585" lon="7.04913">
        <ele>1722.8000488281</ele>
        <time>2018-05-09T11:00:31.000Z</time>
      </trkpt>
      <trkpt lat="44.25589" lon="7.04907">
        <ele>1722</ele>
        <time>2018-05-09T11:00:35.000Z</time>
      </trkpt>
      <trkpt lat="44.2559" lon="7.04906">
        <ele>1721.5999755859</ele>
        <time>2018-05-09T11:00:36.000Z</time>
      </trkpt>
      <trkpt lat="44.25592" lon="7.04904">
        <ele>1721</ele>
        <time>2018-05-09T11:00:40.000Z</time>
      </trkpt>
      <trkpt lat="44.25594" lon="7.04898">
        <ele>1720.5999755859</ele>
        <time>2018-05-09T11:00:45.000Z</time>
      </trkpt>
      <trkpt lat="44.25599" lon="7.04889">
        <ele>1719.5999755859</ele>
        <time>2018-05-09T11:00:52.000Z</time>
      </trkpt>
      <trkpt lat="44.25599" lon="7.04888">
        <ele>1719.4000244141</ele>
        <time>2018-05-09T11:00:53.000Z</time>
      </trkpt>
      <trkpt lat="44.25602" lon="7.04884">
        <ele>1718.4000244141</ele>
        <time>2018-05-09T11:00:57.000Z</time>
      </trkpt>
      <trkpt lat="44.25602" lon="7.04882">
        <ele>1718</ele>
        <time>2018-05-09T11:00:59.000Z</time>
      </trkpt>
      <trkpt lat="44.25603" lon="7.04881">
        <ele>1717.4000244141</ele>
        <time>2018-05-09T11:01:03.000Z</time>
      </trkpt>
      <trkpt lat="44.25604" lon="7.04882">
        <ele>1717.4000244141</ele>
        <time>2018-05-09T11:01:04.000Z</time>
      </trkpt>
      <trkpt lat="44.25607" lon="7.04883">
        <ele>1717</ele>
        <time>2018-05-09T11:01:08.000Z</time>
      </trkpt>
      <trkpt lat="44.25608" lon="7.04888">
        <ele>1716.4000244141</ele>
        <time>2018-05-09T11:01:12.000Z</time>
      </trkpt>
      <trkpt lat="44.25611" lon="7.04892">
        <ele>1716.4000244141</ele>
        <time>2018-05-09T11:01:16.000Z</time>
      </trkpt>
      <trkpt lat="44.25612" lon="7.04893">
        <ele>1716.4000244141</ele>
        <time>2018-05-09T11:01:17.000Z</time>
      </trkpt>
      <trkpt lat="44.25613" lon="7.04894">
        <ele>1716.5999755859</ele>
        <time>2018-05-09T11:01:19.000Z</time>
      </trkpt>
      <trkpt lat="44.25615" lon="7.04894">
        <ele>1716.4000244141</ele>
        <time>2018-05-09T11:01:24.000Z</time>
      </trkpt>
      <trkpt lat="44.25617" lon="7.04891">
        <ele>1715.5999755859</ele>
        <time>2018-05-09T11:01:28.000Z</time>
      </trkpt>
      <trkpt lat="44.25618" lon="7.0489">
        <ele>1715.1999511719</ele>
        <time>2018-05-09T11:01:30.000Z</time>
      </trkpt>
      <trkpt lat="44.25619" lon="7.04887">
        <ele>1714.8000488281</ele>
        <time>2018-05-09T11:01:34.000Z</time>
      </trkpt>
      <trkpt lat="44.25621" lon="7.04882">
        <ele>1714.4000244141</ele>
        <time>2018-05-09T11:01:37.000Z</time>
      </trkpt>
      <trkpt lat="44.25624" lon="7.04879">
        <ele>1714.1999511719</ele>
        <time>2018-05-09T11:01:40.000Z</time>
      </trkpt>
      <trkpt lat="44.25623" lon="7.04876">
        <ele>1714</ele>
        <time>2018-05-09T11:01:42.000Z</time>
      </trkpt>
      <trkpt lat="44.25623" lon="7.04871">
        <ele>1713.5999755859</ele>
        <time>2018-05-09T11:01:48.000Z</time>
      </trkpt>
      <trkpt lat="44.25623" lon="7.04868">
        <ele>1713.5999755859</ele>
        <time>2018-05-09T11:01:50.000Z</time>
      </trkpt>
      <trkpt lat="44.25624" lon="7.04867">
        <ele>1713.4000244141</ele>
        <time>2018-05-09T11:01:51.000Z</time>
      </trkpt>
      <trkpt lat="44.25625" lon="7.04864">
        <ele>1713</ele>
        <time>2018-05-09T11:01:54.000Z</time>
      </trkpt>
      <trkpt lat="44.25627" lon="7.04862">
        <ele>1712.8000488281</ele>
        <time>2018-05-09T11:01:56.000Z</time>
      </trkpt>
      <trkpt lat="44.25629" lon="7.0486">
        <ele>1712.4000244141</ele>
        <time>2018-05-09T11:01:58.000Z</time>
      </trkpt>
      <trkpt lat="44.2563" lon="7.0486">
        <ele>1712.1999511719</ele>
        <time>2018-05-09T11:01:59.000Z</time>
      </trkpt>
      <trkpt lat="44.25631" lon="7.04859">
        <ele>1712</ele>
        <time>2018-05-09T11:02:00.000Z</time>
      </trkpt>
      <trkpt lat="44.25634" lon="7.04857">
        <ele>1711.4000244141</ele>
        <time>2018-05-09T11:02:04.000Z</time>
      </trkpt>
      <trkpt lat="44.25637" lon="7.04855">
        <ele>1711</ele>
        <time>2018-05-09T11:02:07.000Z</time>
      </trkpt>
      <trkpt lat="44.25639" lon="7.04854">
        <ele>1710.8000488281</ele>
        <time>2018-05-09T11:02:08.000Z</time>
      </trkpt>
      <trkpt lat="44.25643" lon="7.0485">
        <ele>1710.1999511719</ele>
        <time>2018-05-09T11:02:13.000Z</time>
      </trkpt>
      <trkpt lat="44.25645" lon="7.04849">
        <ele>1709.8000488281</ele>
        <time>2018-05-09T11:02:15.000Z</time>
      </trkpt>
      <trkpt lat="44.25646" lon="7.04849">
        <ele>1709.5999755859</ele>
        <time>2018-05-09T11:02:16.000Z</time>
      </trkpt>
      <trkpt lat="44.25647" lon="7.04848">
        <ele>1709.4000244141</ele>
        <time>2018-05-09T11:02:17.000Z</time>
      </trkpt>
      <trkpt lat="44.2565" lon="7.04846">
        <ele>1709</ele>
        <time>2018-05-09T11:02:20.000Z</time>
      </trkpt>
      <trkpt lat="44.25651" lon="7.04845">
        <ele>1708.8000488281</ele>
        <time>2018-05-09T11:02:21.000Z</time>
      </trkpt>
      <trkpt lat="44.25652" lon="7.04844">
        <ele>1708.5999755859</ele>
        <time>2018-05-09T11:02:22.000Z</time>
      </trkpt>
      <trkpt lat="44.25657" lon="7.04842">
        <ele>1708</ele>
        <time>2018-05-09T11:02:26.000Z</time>
      </trkpt>
      <trkpt lat="44.25659" lon="7.0484">
        <ele>1707.8000488281</ele>
        <time>2018-05-09T11:02:28.000Z</time>
      </trkpt>
      <trkpt lat="44.2566" lon="7.04839">
        <ele>1707.5999755859</ele>
        <time>2018-05-09T11:02:29.000Z</time>
      </trkpt>
      <trkpt lat="44.25661" lon="7.04838">
        <ele>1707.4000244141</ele>
        <time>2018-05-09T11:02:30.000Z</time>
      </trkpt>
      <trkpt lat="44.25661" lon="7.04837">
        <ele>1707.1999511719</ele>
        <time>2018-05-09T11:02:31.000Z</time>
      </trkpt>
      <trkpt lat="44.25664" lon="7.04834">
        <ele>1707</ele>
        <time>2018-05-09T11:02:34.000Z</time>
      </trkpt>
      <trkpt lat="44.25665" lon="7.04833">
        <ele>1706.8000488281</ele>
        <time>2018-05-09T11:02:35.000Z</time>
      </trkpt>
      <trkpt lat="44.25666" lon="7.04832">
        <ele>1706.5999755859</ele>
        <time>2018-05-09T11:02:37.000Z</time>
      </trkpt>
      <trkpt lat="44.25668" lon="7.0483">
        <ele>1706.1999511719</ele>
        <time>2018-05-09T11:02:40.000Z</time>
      </trkpt>
      <trkpt lat="44.25668" lon="7.0483">
        <ele>1706</ele>
        <time>2018-05-09T11:02:41.000Z</time>
      </trkpt>
      <trkpt lat="44.25669" lon="7.04829">
        <ele>1705.8000488281</ele>
        <time>2018-05-09T11:02:42.000Z</time>
      </trkpt>
      <trkpt lat="44.25669" lon="7.04829">
        <ele>1705.5999755859</ele>
        <time>2018-05-09T11:02:43.000Z</time>
      </trkpt>
      <trkpt lat="44.25672" lon="7.04825">
        <ele>1705</ele>
        <time>2018-05-09T11:02:48.000Z</time>
      </trkpt>
      <trkpt lat="44.25674" lon="7.04822">
        <ele>1704.8000488281</ele>
        <time>2018-05-09T11:02:51.000Z</time>
      </trkpt>
      <trkpt lat="44.25674" lon="7.04821">
        <ele>1704.5999755859</ele>
        <time>2018-05-09T11:02:52.000Z</time>
      </trkpt>
      <trkpt lat="44.25678" lon="7.04815">
        <ele>1703.8000488281</ele>
        <time>2018-05-09T11:02:59.000Z</time>
      </trkpt>
      <trkpt lat="44.25679" lon="7.04816">
        <ele>1703.5999755859</ele>
        <time>2018-05-09T11:03:01.000Z</time>
      </trkpt>
      <trkpt lat="44.25681" lon="7.04817">
        <ele>1703.4000244141</ele>
        <time>2018-05-09T11:03:04.000Z</time>
      </trkpt>
      <trkpt lat="44.2568" lon="7.04814">
        <ele>1703</ele>
        <time>2018-05-09T11:03:26.000Z</time>
      </trkpt>
      <trkpt lat="44.25679" lon="7.04817">
        <ele>1703</ele>
        <time>2018-05-09T11:03:29.000Z</time>
      </trkpt>
      <trkpt lat="44.25684" lon="7.04818">
        <ele>1703</ele>
        <time>2018-05-09T11:03:37.000Z</time>
      </trkpt>
      <trkpt lat="44.25686" lon="7.04819">
        <ele>1703</ele>
        <time>2018-05-09T11:03:41.000Z</time>
      </trkpt>
      <trkpt lat="44.25683" lon="7.04816">
        <ele>1703.1999511719</ele>
        <time>2018-05-09T11:04:02.000Z</time>
      </trkpt>
      <trkpt lat="44.25678" lon="7.0482">
        <ele>1703.1999511719</ele>
        <time>2018-05-09T11:04:08.000Z</time>
      </trkpt>
      <trkpt lat="44.25677" lon="7.04819">
        <ele>1703</ele>
        <time>2018-05-09T11:04:22.000Z</time>
      </trkpt>
      <trkpt lat="44.25679" lon="7.04821">
        <ele>1703.1999511719</ele>
        <time>2018-05-09T11:04:25.000Z</time>
      </trkpt>
      <trkpt lat="44.25684" lon="7.04823">
        <ele>1703</ele>
        <time>2018-05-09T11:04:31.000Z</time>
      </trkpt>
      <trkpt lat="44.25683" lon="7.04824">
        <ele>1703</ele>
        <time>2018-05-09T11:04:32.000Z</time>
      </trkpt>
      <trkpt lat="44.25691" lon="7.04827">
        <ele>1703.1999511719</ele>
        <time>2018-05-09T11:04:41.000Z</time>
      </trkpt>
      <trkpt lat="44.25693" lon="7.0483">
        <ele>1703.1999511719</ele>
        <time>2018-05-09T11:04:44.000Z</time>
      </trkpt>
      <trkpt lat="44.25693" lon="7.0483">
        <ele>1703.1999511719</ele>
        <time>2018-05-09T11:04:47.000Z</time>
      </trkpt>
      <trkpt lat="44.25694" lon="7.0483">
        <ele>1703.1999511719</ele>
        <time>2018-05-09T11:04:49.000Z</time>
      </trkpt>
      <trkpt lat="44.25692" lon="7.04829">
        <ele>1703.1999511719</ele>
        <time>2018-05-09T11:04:51.000Z</time>
      </trkpt>
      <trkpt lat="44.25691" lon="7.04816">
        <ele>1702.4000244141</ele>
        <time>2018-05-09T11:04:59.000Z</time>
      </trkpt>
      <trkpt lat="44.25691" lon="7.04815">
        <ele>1702.4000244141</ele>
        <time>2018-05-09T11:05:00.000Z</time>
      </trkpt>
      <trkpt lat="44.25693" lon="7.04813">
        <ele>1701.8000488281</ele>
        <time>2018-05-09T11:05:03.000Z</time>
      </trkpt>
      <trkpt lat="44.25697" lon="7.0481">
        <ele>1701.5999755859</ele>
        <time>2018-05-09T11:05:05.000Z</time>
      </trkpt>
      <trkpt lat="44.25698" lon="7.0481">
        <ele>1701.4000244141</ele>
        <time>2018-05-09T11:05:06.000Z</time>
      </trkpt>
      <trkpt lat="44.25698" lon="7.0481">
        <ele>1701.4000244141</ele>
        <time>2018-05-09T11:05:07.000Z</time>
      </trkpt>
      <trkpt lat="44.25699" lon="7.0481">
        <ele>1701.1999511719</ele>
        <time>2018-05-09T11:05:08.000Z</time>
      </trkpt>
      <trkpt lat="44.25702" lon="7.04808">
        <ele>1700.4000244141</ele>
        <time>2018-05-09T11:05:12.000Z</time>
      </trkpt>
      <trkpt lat="44.25706" lon="7.04807">
        <ele>1699.1999511719</ele>
        <time>2018-05-09T11:05:18.000Z</time>
      </trkpt>
      <trkpt lat="44.25708" lon="7.04806">
        <ele>1699</ele>
        <time>2018-05-09T11:05:20.000Z</time>
      </trkpt>
      <trkpt lat="44.2571" lon="7.04806">
        <ele>1698.8000488281</ele>
        <time>2018-05-09T11:05:21.000Z</time>
      </trkpt>
      <trkpt lat="44.25713" lon="7.04806">
        <ele>1698.4000244141</ele>
        <time>2018-05-09T11:05:24.000Z</time>
      </trkpt>
      <trkpt lat="44.25714" lon="7.04807">
        <ele>1698.1999511719</ele>
        <time>2018-05-09T11:05:25.000Z</time>
      </trkpt>
      <trkpt lat="44.25714" lon="7.04807">
        <ele>1698.1999511719</ele>
        <time>2018-05-09T11:05:26.000Z</time>
      </trkpt>
      <trkpt lat="44.25717" lon="7.04802">
        <ele>1697.1999511719</ele>
        <time>2018-05-09T11:05:32.000Z</time>
      </trkpt>
      <trkpt lat="44.25718" lon="7.04801">
        <ele>1697</ele>
        <time>2018-05-09T11:05:33.000Z</time>
      </trkpt>
      <trkpt lat="44.25719" lon="7.048">
        <ele>1696.8000488281</ele>
        <time>2018-05-09T11:05:34.000Z</time>
      </trkpt>
      <trkpt lat="44.25724" lon="7.04795">
        <ele>1695.8000488281</ele>
        <time>2018-05-09T11:05:39.000Z</time>
      </trkpt>
      <trkpt lat="44.25726" lon="7.0479">
        <ele>1694.8000488281</ele>
        <time>2018-05-09T11:05:44.000Z</time>
      </trkpt>
      <trkpt lat="44.25728" lon="7.04786">
        <ele>1694.1999511719</ele>
        <time>2018-05-09T11:05:49.000Z</time>
      </trkpt>
      <trkpt lat="44.2573" lon="7.04783">
        <ele>1693.8000488281</ele>
        <time>2018-05-09T11:05:52.000Z</time>
      </trkpt>
      <trkpt lat="44.25731" lon="7.04782">
        <ele>1693.5999755859</ele>
        <time>2018-05-09T11:05:53.000Z</time>
      </trkpt>
      <trkpt lat="44.25731" lon="7.0478">
        <ele>1693.4000244141</ele>
        <time>2018-05-09T11:05:54.000Z</time>
      </trkpt>
      <trkpt lat="44.25736" lon="7.04777">
        <ele>1692.8000488281</ele>
        <time>2018-05-09T11:05:57.000Z</time>
      </trkpt>
      <trkpt lat="44.25737" lon="7.04776">
        <ele>1692.5999755859</ele>
        <time>2018-05-09T11:05:58.000Z</time>
      </trkpt>
      <trkpt lat="44.25738" lon="7.04774">
        <ele>1692.5999755859</ele>
        <time>2018-05-09T11:06:00.000Z</time>
      </trkpt>
      <trkpt lat="44.25741" lon="7.04771">
        <ele>1692.1999511719</ele>
        <time>2018-05-09T11:06:03.000Z</time>
      </trkpt>
      <trkpt lat="44.25744" lon="7.04769">
        <ele>1691.5999755859</ele>
        <time>2018-05-09T11:06:06.000Z</time>
      </trkpt>
      <trkpt lat="44.25744" lon="7.04766">
        <ele>1691.4000244141</ele>
        <time>2018-05-09T11:06:08.000Z</time>
      </trkpt>
      <trkpt lat="44.25745" lon="7.04764">
        <ele>1691</ele>
        <time>2018-05-09T11:06:10.000Z</time>
      </trkpt>
      <trkpt lat="44.25746" lon="7.04762">
        <ele>1690.5999755859</ele>
        <time>2018-05-09T11:06:12.000Z</time>
      </trkpt>
      <trkpt lat="44.25748" lon="7.04759">
        <ele>1690</ele>
        <time>2018-05-09T11:06:16.000Z</time>
      </trkpt>
      <trkpt lat="44.25749" lon="7.04757">
        <ele>1689.5999755859</ele>
        <time>2018-05-09T11:06:18.000Z</time>
      </trkpt>
      <trkpt lat="44.25751" lon="7.04751">
        <ele>1688.8000488281</ele>
        <time>2018-05-09T11:06:22.000Z</time>
      </trkpt>
      <trkpt lat="44.25753" lon="7.04748">
        <ele>1688.4000244141</ele>
        <time>2018-05-09T11:06:24.000Z</time>
      </trkpt>
      <trkpt lat="44.25756" lon="7.0474">
        <ele>1687.5999755859</ele>
        <time>2018-05-09T11:06:30.000Z</time>
      </trkpt>
      <trkpt lat="44.25756" lon="7.04739">
        <ele>1687.4000244141</ele>
        <time>2018-05-09T11:06:31.000Z</time>
      </trkpt>
      <trkpt lat="44.25757" lon="7.04736">
        <ele>1687.1999511719</ele>
        <time>2018-05-09T11:06:33.000Z</time>
      </trkpt>
      <trkpt lat="44.25759" lon="7.04734">
        <ele>1686.8000488281</ele>
        <time>2018-05-09T11:06:35.000Z</time>
      </trkpt>
      <trkpt lat="44.2576" lon="7.04729">
        <ele>1686.1999511719</ele>
        <time>2018-05-09T11:06:38.000Z</time>
      </trkpt>
      <trkpt lat="44.25761" lon="7.04728">
        <ele>1686</ele>
        <time>2018-05-09T11:06:39.000Z</time>
      </trkpt>
      <trkpt lat="44.25764" lon="7.04725">
        <ele>1685.5999755859</ele>
        <time>2018-05-09T11:06:41.000Z</time>
      </trkpt>
      <trkpt lat="44.25765" lon="7.04724">
        <ele>1685.5999755859</ele>
        <time>2018-05-09T11:06:42.000Z</time>
      </trkpt>
      <trkpt lat="44.25767" lon="7.04722">
        <ele>1685.1999511719</ele>
        <time>2018-05-09T11:06:44.000Z</time>
      </trkpt>
      <trkpt lat="44.25769" lon="7.04719">
        <ele>1684.8000488281</ele>
        <time>2018-05-09T11:06:46.000Z</time>
      </trkpt>
      <trkpt lat="44.2577" lon="7.04715">
        <ele>1684.1999511719</ele>
        <time>2018-05-09T11:06:50.000Z</time>
      </trkpt>
      <trkpt lat="44.25771" lon="7.04714">
        <ele>1683.8000488281</ele>
        <time>2018-05-09T11:06:52.000Z</time>
      </trkpt>
      <trkpt lat="44.25773" lon="7.04707">
        <ele>1683</ele>
        <time>2018-05-09T11:06:57.000Z</time>
      </trkpt>
      <trkpt lat="44.25775" lon="7.04696">
        <ele>1682</ele>
        <time>2018-05-09T11:07:04.000Z</time>
      </trkpt>
      <trkpt lat="44.25775" lon="7.04695">
        <ele>1682</ele>
        <time>2018-05-09T11:07:05.000Z</time>
      </trkpt>
      <trkpt lat="44.25776" lon="7.04689">
        <ele>1681.1999511719</ele>
        <time>2018-05-09T11:07:09.000Z</time>
      </trkpt>
      <trkpt lat="44.25776" lon="7.04684">
        <ele>1680.8000488281</ele>
        <time>2018-05-09T11:07:12.000Z</time>
      </trkpt>
      <trkpt lat="44.25776" lon="7.04679">
        <ele>1680.1999511719</ele>
        <time>2018-05-09T11:07:16.000Z</time>
      </trkpt>
      <trkpt lat="44.25776" lon="7.04677">
        <ele>1680</ele>
        <time>2018-05-09T11:07:17.000Z</time>
      </trkpt>
      <trkpt lat="44.25777" lon="7.04674">
        <ele>1679.8000488281</ele>
        <time>2018-05-09T11:07:19.000Z</time>
      </trkpt>
      <trkpt lat="44.25776" lon="7.04673">
        <ele>1679.5999755859</ele>
        <time>2018-05-09T11:07:20.000Z</time>
      </trkpt>
      <trkpt lat="44.25775" lon="7.04667">
        <ele>1679.1999511719</ele>
        <time>2018-05-09T11:07:24.000Z</time>
      </trkpt>
      <trkpt lat="44.25774" lon="7.04666">
        <ele>1679</ele>
        <time>2018-05-09T11:07:25.000Z</time>
      </trkpt>
      <trkpt lat="44.25774" lon="7.04663">
        <ele>1678.8000488281</ele>
        <time>2018-05-09T11:07:28.000Z</time>
      </trkpt>
      <trkpt lat="44.25777" lon="7.0466">
        <ele>1678.5999755859</ele>
        <time>2018-05-09T11:07:31.000Z</time>
      </trkpt>
      <trkpt lat="44.25779" lon="7.04657">
        <ele>1678.8000488281</ele>
        <time>2018-05-09T11:07:36.000Z</time>
      </trkpt>
      <trkpt lat="44.25783" lon="7.04654">
        <ele>1679</ele>
        <time>2018-05-09T11:07:41.000Z</time>
      </trkpt>
      <trkpt lat="44.2579" lon="7.04652">
        <ele>1679</ele>
        <time>2018-05-09T11:07:43.000Z</time>
      </trkpt>
      <trkpt lat="44.2579" lon="7.04651">
        <ele>1678.8000488281</ele>
        <time>2018-05-09T11:07:46.000Z</time>
      </trkpt>
      <trkpt lat="44.25794" lon="7.04649">
        <ele>1678.8000488281</ele>
        <time>2018-05-09T11:07:58.000Z</time>
      </trkpt>
      <trkpt lat="44.25801" lon="7.04649">
        <ele>1678.8000488281</ele>
        <time>2018-05-09T11:08:05.000Z</time>
      </trkpt>
      <trkpt lat="44.258" lon="7.04649">
        <ele>1679</ele>
        <time>2018-05-09T11:08:07.000Z</time>
      </trkpt>
      <trkpt lat="44.25788" lon="7.04644">
        <ele>1678.8000488281</ele>
        <time>2018-05-09T11:08:25.000Z</time>
      </trkpt>
      <trkpt lat="44.25785" lon="7.04649">
        <ele>1678.8000488281</ele>
        <time>2018-05-09T11:08:34.000Z</time>
      </trkpt>
      <trkpt lat="44.25786" lon="7.04647">
        <ele>1679</ele>
        <time>2018-05-09T11:08:36.000Z</time>
      </trkpt>
      <trkpt lat="44.25787" lon="7.04643">
        <ele>1679.1999511719</ele>
        <time>2018-05-09T11:08:44.000Z</time>
      </trkpt>
      <trkpt lat="44.25795" lon="7.04636">
        <ele>1678.8000488281</ele>
        <time>2018-05-09T11:08:49.000Z</time>
      </trkpt>
      <trkpt lat="44.25798" lon="7.04629">
        <ele>1677.5999755859</ele>
        <time>2018-05-09T11:08:52.000Z</time>
      </trkpt>
      <trkpt lat="44.25803" lon="7.04621">
        <ele>1676.1999511719</ele>
        <time>2018-05-09T11:08:55.000Z</time>
      </trkpt>
      <trkpt lat="44.2581" lon="7.04609">
        <ele>1674.8000488281</ele>
        <time>2018-05-09T11:08:58.000Z</time>
      </trkpt>
      <trkpt lat="44.25815" lon="7.046">
        <ele>1673.4000244141</ele>
        <time>2018-05-09T11:09:00.000Z</time>
      </trkpt>
      <trkpt lat="44.25817" lon="7.04595">
        <ele>1672.1999511719</ele>
        <time>2018-05-09T11:09:02.000Z</time>
      </trkpt>
      <trkpt lat="44.25819" lon="7.04591">
        <ele>1671.1999511719</ele>
        <time>2018-05-09T11:09:04.000Z</time>
      </trkpt>
      <trkpt lat="44.25825" lon="7.04582">
        <ele>1670</ele>
        <time>2018-05-09T11:09:07.000Z</time>
      </trkpt>
      <trkpt lat="44.25826" lon="7.04579">
        <ele>1669.5999755859</ele>
        <time>2018-05-09T11:09:08.000Z</time>
      </trkpt>
      <trkpt lat="44.25825" lon="7.04577">
        <ele>1669</ele>
        <time>2018-05-09T11:09:09.000Z</time>
      </trkpt>
      <trkpt lat="44.25825" lon="7.04577">
        <ele>1668.4000244141</ele>
        <time>2018-05-09T11:09:10.000Z</time>
      </trkpt>
      <trkpt lat="44.25825" lon="7.04578">
        <ele>1667.5999755859</ele>
        <time>2018-05-09T11:09:12.000Z</time>
      </trkpt>
      <trkpt lat="44.25825" lon="7.04571">
        <ele>1666.5999755859</ele>
        <time>2018-05-09T11:09:19.000Z</time>
      </trkpt>
      <trkpt lat="44.25828" lon="7.04569">
        <ele>1665.8000488281</ele>
        <time>2018-05-09T11:09:23.000Z</time>
      </trkpt>
      <trkpt lat="44.25829" lon="7.04566">
        <ele>1665.5999755859</ele>
        <time>2018-05-09T11:09:26.000Z</time>
      </trkpt>
      <trkpt lat="44.25827" lon="7.04564">
        <ele>1665.5999755859</ele>
        <time>2018-05-09T11:09:27.000Z</time>
      </trkpt>
      <trkpt lat="44.25831" lon="7.04564">
        <ele>1665.1999511719</ele>
        <time>2018-05-09T11:09:45.000Z</time>
      </trkpt>
      <trkpt lat="44.25834" lon="7.04559">
        <ele>1664.4000244141</ele>
        <time>2018-05-09T11:09:55.000Z</time>
      </trkpt>
      <trkpt lat="44.25834" lon="7.0456">
        <ele>1664</ele>
        <time>2018-05-09T11:09:57.000Z</time>
      </trkpt>
      <trkpt lat="44.25837" lon="7.04562">
        <ele>1664.1999511719</ele>
        <time>2018-05-09T11:10:07.000Z</time>
      </trkpt>
      <trkpt lat="44.25837" lon="7.04569">
        <ele>1664</ele>
        <time>2018-05-09T11:10:14.000Z</time>
      </trkpt>
      <trkpt lat="44.25836" lon="7.0457">
        <ele>1664</ele>
        <time>2018-05-09T11:10:21.000Z</time>
      </trkpt>
      <trkpt lat="44.25837" lon="7.0457">
        <ele>1664</ele>
        <time>2018-05-09T11:10:24.000Z</time>
      </trkpt>
      <trkpt lat="44.25838" lon="7.04571">
        <ele>1664</ele>
        <time>2018-05-09T11:10:26.000Z</time>
      </trkpt>
      <trkpt lat="44.25846" lon="7.04573">
        <ele>1664</ele>
        <time>2018-05-09T11:10:44.000Z</time>
      </trkpt>
      <trkpt lat="44.25846" lon="7.04579">
        <ele>1664</ele>
        <time>2018-05-09T11:10:53.000Z</time>
      </trkpt>
      <trkpt lat="44.25848" lon="7.04577">
        <ele>1664</ele>
        <time>2018-05-09T11:10:57.000Z</time>
      </trkpt>
      <trkpt lat="44.25849" lon="7.04569">
        <ele>1664</ele>
        <time>2018-05-09T11:11:01.000Z</time>
      </trkpt>
      <trkpt lat="44.2585" lon="7.04567">
        <ele>1664</ele>
        <time>2018-05-09T11:11:02.000Z</time>
      </trkpt>
      <trkpt lat="44.2585" lon="7.04563">
        <ele>1663.5999755859</ele>
        <time>2018-05-09T11:11:04.000Z</time>
      </trkpt>
      <trkpt lat="44.25849" lon="7.0456">
        <ele>1663.4000244141</ele>
        <time>2018-05-09T11:11:05.000Z</time>
      </trkpt>
      <trkpt lat="44.25847" lon="7.04558">
        <ele>1663.1999511719</ele>
        <time>2018-05-09T11:11:06.000Z</time>
      </trkpt>
      <trkpt lat="44.25847" lon="7.04557">
        <ele>1663.1999511719</ele>
        <time>2018-05-09T11:11:07.000Z</time>
      </trkpt>
      <trkpt lat="44.25845" lon="7.04554">
        <ele>1663</ele>
        <time>2018-05-09T11:11:11.000Z</time>
      </trkpt>
      <trkpt lat="44.25844" lon="7.04552">
        <ele>1663</ele>
        <time>2018-05-09T11:11:13.000Z</time>
      </trkpt>
      <trkpt lat="44.25837" lon="7.04542">
        <ele>1663</ele>
        <time>2018-05-09T11:11:26.000Z</time>
      </trkpt>
      <trkpt lat="44.25833" lon="7.04537">
        <ele>1663.1999511719</ele>
        <time>2018-05-09T11:11:29.000Z</time>
      </trkpt>
      <trkpt lat="44.25841" lon="7.04526">
        <ele>1662.5999755859</ele>
        <time>2018-05-09T11:11:38.000Z</time>
      </trkpt>
      <trkpt lat="44.25843" lon="7.04524">
        <ele>1662.1999511719</ele>
        <time>2018-05-09T11:11:39.000Z</time>
      </trkpt>
      <trkpt lat="44.25855" lon="7.04511">
        <ele>1660.8000488281</ele>
        <time>2018-05-09T11:11:43.000Z</time>
      </trkpt>
      <trkpt lat="44.25864" lon="7.04502">
        <ele>1659.5999755859</ele>
        <time>2018-05-09T11:11:46.000Z</time>
      </trkpt>
      <trkpt lat="44.25865" lon="7.04501">
        <ele>1659.1999511719</ele>
        <time>2018-05-09T11:11:47.000Z</time>
      </trkpt>
      <trkpt lat="44.25866" lon="7.045">
        <ele>1658.8000488281</ele>
        <time>2018-05-09T11:11:49.000Z</time>
      </trkpt>
      <trkpt lat="44.25867" lon="7.04499">
        <ele>1658.5999755859</ele>
        <time>2018-05-09T11:11:51.000Z</time>
      </trkpt>
      <trkpt lat="44.25868" lon="7.04498">
        <ele>1658.5999755859</ele>
        <time>2018-05-09T11:11:52.000Z</time>
      </trkpt>
      <trkpt lat="44.25869" lon="7.04493">
        <ele>1658.8000488281</ele>
        <time>2018-05-09T11:11:56.000Z</time>
      </trkpt>
      <trkpt lat="44.25869" lon="7.04491">
        <ele>1658.8000488281</ele>
        <time>2018-05-09T11:11:58.000Z</time>
      </trkpt>
      <trkpt lat="44.25874" lon="7.04488">
        <ele>1658.8000488281</ele>
        <time>2018-05-09T11:12:13.000Z</time>
      </trkpt>
      <trkpt lat="44.25877" lon="7.0449">
        <ele>1658.8000488281</ele>
        <time>2018-05-09T11:12:19.000Z</time>
      </trkpt>
      <trkpt lat="44.25879" lon="7.0449">
        <ele>1658.5999755859</ele>
        <time>2018-05-09T11:12:26.000Z</time>
      </trkpt>
      <trkpt lat="44.25879" lon="7.0449">
        <ele>1658.5999755859</ele>
        <time>2018-05-09T11:12:33.000Z</time>
      </trkpt>
      <trkpt lat="44.25878" lon="7.04489">
        <ele>1658.5999755859</ele>
        <time>2018-05-09T11:12:35.000Z</time>
      </trkpt>
      <trkpt lat="44.25878" lon="7.0449">
        <ele>1658.8000488281</ele>
        <time>2018-05-09T11:12:39.000Z</time>
      </trkpt>
      <trkpt lat="44.25874" lon="7.04491">
        <ele>1659</ele>
        <time>2018-05-09T11:12:48.000Z</time>
      </trkpt>
      <trkpt lat="44.25873" lon="7.04493">
        <ele>1658.8000488281</ele>
        <time>2018-05-09T11:12:51.000Z</time>
      </trkpt>
      <trkpt lat="44.25873" lon="7.04495">
        <ele>1658.5999755859</ele>
        <time>2018-05-09T11:12:53.000Z</time>
      </trkpt>
      <trkpt lat="44.25873" lon="7.04496">
        <ele>1658.5999755859</ele>
        <time>2018-05-09T11:12:54.000Z</time>
      </trkpt>
      <trkpt lat="44.25872" lon="7.04498">
        <ele>1658.4000244141</ele>
        <time>2018-05-09T11:13:05.000Z</time>
      </trkpt>
      <trkpt lat="44.25872" lon="7.04497">
        <ele>1658.4000244141</ele>
        <time>2018-05-09T11:13:07.000Z</time>
      </trkpt>
      <trkpt lat="44.25874" lon="7.04495">
        <ele>1658.4000244141</ele>
        <time>2018-05-09T11:13:14.000Z</time>
      </trkpt>
      <trkpt lat="44.25875" lon="7.04495">
        <ele>1658.4000244141</ele>
        <time>2018-05-09T11:13:18.000Z</time>
      </trkpt>
      <trkpt lat="44.25875" lon="7.04495">
        <ele>1658.4000244141</ele>
        <time>2018-05-09T11:13:19.000Z</time>
      </trkpt>
      <trkpt lat="44.25875" lon="7.04496">
        <ele>1658.4000244141</ele>
        <time>2018-05-09T11:13:23.000Z</time>
      </trkpt>
      <trkpt lat="44.25874" lon="7.04492">
        <ele>1658.4000244141</ele>
        <time>2018-05-09T11:13:28.000Z</time>
      </trkpt>
      <trkpt lat="44.25874" lon="7.04489">
        <ele>1658.4000244141</ele>
        <time>2018-05-09T11:13:33.000Z</time>
      </trkpt>
      <trkpt lat="44.25873" lon="7.04489">
        <ele>1658.4000244141</ele>
        <time>2018-05-09T11:13:36.000Z</time>
      </trkpt>
      <trkpt lat="44.25874" lon="7.04489">
        <ele>1658.4000244141</ele>
        <time>2018-05-09T11:13:38.000Z</time>
      </trkpt>
      <trkpt lat="44.25871" lon="7.04488">
        <ele>1658.4000244141</ele>
        <time>2018-05-09T11:13:43.000Z</time>
      </trkpt>
      <trkpt lat="44.2587" lon="7.04489">
        <ele>1658.4000244141</ele>
        <time>2018-05-09T11:13:46.000Z</time>
      </trkpt>
      <trkpt lat="44.25868" lon="7.04489">
        <ele>1658.4000244141</ele>
        <time>2018-05-09T11:13:53.000Z</time>
      </trkpt>
      <trkpt lat="44.25863" lon="7.04485">
        <ele>1658.4000244141</ele>
        <time>2018-05-09T11:14:00.000Z</time>
      </trkpt>
      <trkpt lat="44.25863" lon="7.04488">
        <ele>1658.4000244141</ele>
        <time>2018-05-09T11:14:23.000Z</time>
      </trkpt>
      <trkpt lat="44.25863" lon="7.04488">
        <ele>1658.4000244141</ele>
        <time>2018-05-09T11:14:40.000Z</time>
      </trkpt>
      <trkpt lat="44.25862" lon="7.04488">
        <ele>1658.4000244141</ele>
        <time>2018-05-09T11:14:41.000Z</time>
      </trkpt>
      <trkpt lat="44.25861" lon="7.04488">
        <ele>1658.4000244141</ele>
        <time>2018-05-09T11:14:42.000Z</time>
      </trkpt>
      <trkpt lat="44.25859" lon="7.04487">
        <ele>1658.4000244141</ele>
        <time>2018-05-09T11:14:45.000Z</time>
      </trkpt>
      <trkpt lat="44.25861" lon="7.04486">
        <ele>1658.4000244141</ele>
        <time>2018-05-09T11:15:00.000Z</time>
      </trkpt>
      <trkpt lat="44.25861" lon="7.0449">
        <ele>1658.4000244141</ele>
        <time>2018-05-09T11:15:21.000Z</time>
      </trkpt>
      <trkpt lat="44.25859" lon="7.04485">
        <ele>1658.4000244141</ele>
        <time>2018-05-09T11:15:45.000Z</time>
      </trkpt>
      <trkpt lat="44.25858" lon="7.04485">
        <ele>1658.4000244141</ele>
        <time>2018-05-09T11:15:47.000Z</time>
      </trkpt>
      <trkpt lat="44.25862" lon="7.04485">
        <ele>1658.4000244141</ele>
        <time>2018-05-09T11:15:57.000Z</time>
      </trkpt>
      <trkpt lat="44.25866" lon="7.04487">
        <ele>1658.4000244141</ele>
        <time>2018-05-09T11:16:03.000Z</time>
      </trkpt>
      <trkpt lat="44.25866" lon="7.04488">
        <ele>1658.4000244141</ele>
        <time>2018-05-09T11:16:04.000Z</time>
      </trkpt>
      <trkpt lat="44.25868" lon="7.04489">
        <ele>1658.5999755859</ele>
        <time>2018-05-09T11:16:09.000Z</time>
      </trkpt>
      <trkpt lat="44.25869" lon="7.04484">
        <ele>1658.8000488281</ele>
        <time>2018-05-09T11:16:25.000Z</time>
      </trkpt>
      <trkpt lat="44.2587" lon="7.04482">
        <ele>1658.8000488281</ele>
        <time>2018-05-09T11:16:28.000Z</time>
      </trkpt>
      <trkpt lat="44.2587" lon="7.0448">
        <ele>1658.8000488281</ele>
        <time>2018-05-09T11:16:30.000Z</time>
      </trkpt>
      <trkpt lat="44.25869" lon="7.04477">
        <ele>1659</ele>
        <time>2018-05-09T11:16:35.000Z</time>
      </trkpt>
      <trkpt lat="44.25869" lon="7.04475">
        <ele>1659.1999511719</ele>
        <time>2018-05-09T11:16:37.000Z</time>
      </trkpt>
      <trkpt lat="44.25868" lon="7.04474">
        <ele>1659.1999511719</ele>
        <time>2018-05-09T11:16:38.000Z</time>
      </trkpt>
      <trkpt lat="44.25869" lon="7.0447">
        <ele>1659.4000244141</ele>
        <time>2018-05-09T11:16:44.000Z</time>
      </trkpt>
      <trkpt lat="44.25871" lon="7.04467">
        <ele>1659.5999755859</ele>
        <time>2018-05-09T11:16:48.000Z</time>
      </trkpt>
      <trkpt lat="44.2587" lon="7.04466">
        <ele>1659.5999755859</ele>
        <time>2018-05-09T11:16:49.000Z</time>
      </trkpt>
      <trkpt lat="44.25871" lon="7.04465">
        <ele>1659.8000488281</ele>
        <time>2018-05-09T11:16:51.000Z</time>
      </trkpt>
      <trkpt lat="44.25873" lon="7.04463">
        <ele>1660</ele>
        <time>2018-05-09T11:16:54.000Z</time>
      </trkpt>
      <trkpt lat="44.25872" lon="7.04462">
        <ele>1660</ele>
        <time>2018-05-09T11:16:55.000Z</time>
      </trkpt>
      <trkpt lat="44.25871" lon="7.04461">
        <ele>1660.1999511719</ele>
        <time>2018-05-09T11:16:57.000Z</time>
      </trkpt>
      <trkpt lat="44.25872" lon="7.04459">
        <ele>1660.5999755859</ele>
        <time>2018-05-09T11:17:01.000Z</time>
      </trkpt>
      <trkpt lat="44.25872" lon="7.04458">
        <ele>1660.8000488281</ele>
        <time>2018-05-09T11:17:02.000Z</time>
      </trkpt>
      <trkpt lat="44.2587" lon="7.04449">
        <ele>1661.4000244141</ele>
        <time>2018-05-09T11:17:11.000Z</time>
      </trkpt>
      <trkpt lat="44.25869" lon="7.04447">
        <ele>1661.4000244141</ele>
        <time>2018-05-09T11:17:14.000Z</time>
      </trkpt>
      <trkpt lat="44.25868" lon="7.04441">
        <ele>1661.8000488281</ele>
        <time>2018-05-09T11:17:19.000Z</time>
      </trkpt>
      <trkpt lat="44.25868" lon="7.04438">
        <ele>1661.8000488281</ele>
        <time>2018-05-09T11:17:21.000Z</time>
      </trkpt>
      <trkpt lat="44.25868" lon="7.04435">
        <ele>1662</ele>
        <time>2018-05-09T11:17:25.000Z</time>
      </trkpt>
      <trkpt lat="44.25867" lon="7.04432">
        <ele>1662.1999511719</ele>
        <time>2018-05-09T11:17:28.000Z</time>
      </trkpt>
      <trkpt lat="44.25865" lon="7.04424">
        <ele>1662.8000488281</ele>
        <time>2018-05-09T11:17:37.000Z</time>
      </trkpt>
      <trkpt lat="44.25864" lon="7.04423">
        <ele>1662.8000488281</ele>
        <time>2018-05-09T11:17:38.000Z</time>
      </trkpt>
      <trkpt lat="44.25863" lon="7.04422">
        <ele>1662.8000488281</ele>
        <time>2018-05-09T11:17:39.000Z</time>
      </trkpt>
      <trkpt lat="44.25861" lon="7.04417">
        <ele>1663.1999511719</ele>
        <time>2018-05-09T11:17:43.000Z</time>
      </trkpt>
      <trkpt lat="44.25862" lon="7.04416">
        <ele>1663.1999511719</ele>
        <time>2018-05-09T11:17:45.000Z</time>
      </trkpt>
      <trkpt lat="44.25861" lon="7.04413">
        <ele>1663.1999511719</ele>
        <time>2018-05-09T11:17:47.000Z</time>
      </trkpt>
      <trkpt lat="44.2586" lon="7.04412">
        <ele>1663.4000244141</ele>
        <time>2018-05-09T11:17:48.000Z</time>
      </trkpt>
      <trkpt lat="44.2586" lon="7.0441">
        <ele>1663.4000244141</ele>
        <time>2018-05-09T11:17:50.000Z</time>
      </trkpt>
      <trkpt lat="44.2586" lon="7.04404">
        <ele>1663.8000488281</ele>
        <time>2018-05-09T11:17:57.000Z</time>
      </trkpt>
      <trkpt lat="44.2586" lon="7.04402">
        <ele>1663.8000488281</ele>
        <time>2018-05-09T11:17:59.000Z</time>
      </trkpt>
    </trkseg>
  </trk>
  <trk>
    <name><![CDATA[20180514195401-MUPu9]]></name>
    <trkseg>
      <trkpt lat="44.26076" lon="7.04429">
        <ele>1662.57</ele>
        <time>2018-05-10T05:21:12Z</time>
      </trkpt>
      <trkpt lat="44.26076" lon="7.04429">
        <ele>1662.55</ele>
        <time>2018-05-10T05:21:13Z</time>
      </trkpt>
      <trkpt lat="44.26075" lon="7.04425">
        <ele>1663.11</ele>
        <time>2018-05-10T05:21:40Z</time>
      </trkpt>
      <trkpt lat="44.26073" lon="7.04427">
        <ele>1662.76</ele>
        <time>2018-05-10T05:22:02Z</time>
      </trkpt>
      <trkpt lat="44.26072" lon="7.04426">
        <ele>1662.32</ele>
        <time>2018-05-10T05:22:26Z</time>
      </trkpt>
      <trkpt lat="44.26074" lon="7.04422">
        <ele>1662.26</ele>
        <time>2018-05-10T05:22:58Z</time>
      </trkpt>
      <trkpt lat="44.26061" lon="7.04425">
        <ele>1662.24</ele>
        <time>2018-05-10T05:23:28Z</time>
      </trkpt>
      <trkpt lat="44.2606" lon="7.04423">
        <ele>1662.48</ele>
        <time>2018-05-10T05:23:51Z</time>
      </trkpt>
      <trkpt lat="44.26061" lon="7.04399">
        <ele>1662.13</ele>
        <time>2018-05-10T05:24:14Z</time>
      </trkpt>
      <trkpt lat="44.26041" lon="7.04379">
        <ele>1660.56</ele>
        <time>2018-05-10T05:24:40Z</time>
      </trkpt>
      <trkpt lat="44.26022" lon="7.04364">
        <ele>1660.36</ele>
        <time>2018-05-10T05:24:58Z</time>
      </trkpt>
      <trkpt lat="44.26007" lon="7.04351">
        <ele>1659.67</ele>
        <time>2018-05-10T05:25:14Z</time>
      </trkpt>
      <trkpt lat="44.25995" lon="7.04335">
        <ele>1659.32</ele>
        <time>2018-05-10T05:25:28Z</time>
      </trkpt>
      <trkpt lat="44.25984" lon="7.04321">
        <ele>1658.57</ele>
        <time>2018-05-10T05:25:42Z</time>
      </trkpt>
      <trkpt lat="44.25981" lon="7.04316">
        <ele>1658.56</ele>
        <time>2018-05-10T05:25:46Z</time>
      </trkpt>
      <trkpt lat="44.25975" lon="7.04313">
        <ele>1658.44</ele>
        <time>2018-05-10T05:25:51Z</time>
      </trkpt>
      <trkpt lat="44.25962" lon="7.043">
        <ele>1657.91</ele>
        <time>2018-05-10T05:26:05Z</time>
      </trkpt>
      <trkpt lat="44.25946" lon="7.04287">
        <ele>1657.36</ele>
        <time>2018-05-10T05:26:22Z</time>
      </trkpt>
      <trkpt lat="44.25931" lon="7.04273">
        <ele>1656.93</ele>
        <time>2018-05-10T05:26:36Z</time>
      </trkpt>
      <trkpt lat="44.25914" lon="7.04255">
        <ele>1656.42</ele>
        <time>2018-05-10T05:26:53Z</time>
      </trkpt>
      <trkpt lat="44.2591" lon="7.04251">
        <ele>1656.31</ele>
        <time>2018-05-10T05:26:57Z</time>
      </trkpt>
      <trkpt lat="44.25906" lon="7.04246">
        <ele>1656.08</ele>
        <time>2018-05-10T05:27:02Z</time>
      </trkpt>
      <trkpt lat="44.259" lon="7.0424">
        <ele>1655.68</ele>
        <time>2018-05-10T05:27:09Z</time>
      </trkpt>
      <trkpt lat="44.25889" lon="7.04229">
        <ele>1654.73</ele>
        <time>2018-05-10T05:27:22Z</time>
      </trkpt>
      <trkpt lat="44.25882" lon="7.0422">
        <ele>1654.18</ele>
        <time>2018-05-10T05:27:30Z</time>
      </trkpt>
      <trkpt lat="44.25879" lon="7.04217">
        <ele>1654.02</ele>
        <time>2018-05-10T05:27:34Z</time>
      </trkpt>
      <trkpt lat="44.25865" lon="7.0422">
        <ele>1653.89</ele>
        <time>2018-05-10T05:27:48Z</time>
      </trkpt>
      <trkpt lat="44.25852" lon="7.04218">
        <ele>1653.68</ele>
        <time>2018-05-10T05:28:01Z</time>
      </trkpt>
      <trkpt lat="44.25845" lon="7.04209">
        <ele>1655.05</ele>
        <time>2018-05-10T05:28:15Z</time>
      </trkpt>
      <trkpt lat="44.25837" lon="7.04194">
        <ele>1656.44</ele>
        <time>2018-05-10T05:28:29Z</time>
      </trkpt>
      <trkpt lat="44.25835" lon="7.04182">
        <ele>1656.79</ele>
        <time>2018-05-10T05:28:46Z</time>
      </trkpt>
      <trkpt lat="44.25831" lon="7.04171">
        <ele>1657.45</ele>
        <time>2018-05-10T05:29:03Z</time>
      </trkpt>
      <trkpt lat="44.25833" lon="7.0417">
        <ele>1657.43</ele>
        <time>2018-05-10T05:29:23Z</time>
      </trkpt>
      <trkpt lat="44.25833" lon="7.04171">
        <ele>1657.69</ele>
        <time>2018-05-10T05:29:49Z</time>
      </trkpt>
      <trkpt lat="44.25831" lon="7.04173">
        <ele>1657.99</ele>
        <time>2018-05-10T05:30:08Z</time>
      </trkpt>
      <trkpt lat="44.25833" lon="7.04172">
        <ele>1657.71</ele>
        <time>2018-05-10T05:30:36Z</time>
      </trkpt>
      <trkpt lat="44.25834" lon="7.04168">
        <ele>1657.67</ele>
        <time>2018-05-10T05:30:57Z</time>
      </trkpt>
      <trkpt lat="44.25832" lon="7.04162">
        <ele>1657.06</ele>
        <time>2018-05-10T05:31:20Z</time>
      </trkpt>
      <trkpt lat="44.25829" lon="7.04164">
        <ele>1657.59</ele>
        <time>2018-05-10T05:31:45Z</time>
      </trkpt>
      <trkpt lat="44.25835" lon="7.04156">
        <ele>1655.09</ele>
        <time>2018-05-10T05:32:08Z</time>
      </trkpt>
      <trkpt lat="44.25834" lon="7.04147">
        <ele>1655.53</ele>
        <time>2018-05-10T05:32:26Z</time>
      </trkpt>
      <trkpt lat="44.25826" lon="7.0413">
        <ele>1657.77</ele>
        <time>2018-05-10T05:32:47Z</time>
      </trkpt>
      <trkpt lat="44.25819" lon="7.04123">
        <ele>1658.98</ele>
        <time>2018-05-10T05:33:09Z</time>
      </trkpt>
      <trkpt lat="44.25814" lon="7.04104">
        <ele>1660.56</ele>
        <time>2018-05-10T05:33:32Z</time>
      </trkpt>
      <trkpt lat="44.25811" lon="7.0409">
        <ele>1663.07</ele>
        <time>2018-05-10T05:33:52Z</time>
      </trkpt>
      <trkpt lat="44.2581" lon="7.04071">
        <ele>1665.02</ele>
        <time>2018-05-10T05:34:11Z</time>
      </trkpt>
      <trkpt lat="44.25809" lon="7.04053">
        <ele>1667.39</ele>
        <time>2018-05-10T05:34:35Z</time>
      </trkpt>
      <trkpt lat="44.25804" lon="7.0404">
        <ele>1669.4</ele>
        <time>2018-05-10T05:34:56Z</time>
      </trkpt>
      <trkpt lat="44.25798" lon="7.04022">
        <ele>1672.08</ele>
        <time>2018-05-10T05:35:20Z</time>
      </trkpt>
      <trkpt lat="44.25792" lon="7.04002">
        <ele>1674.51</ele>
        <time>2018-05-10T05:35:43Z</time>
      </trkpt>
      <trkpt lat="44.25786" lon="7.03986">
        <ele>1676.45</ele>
        <time>2018-05-10T05:36:02Z</time>
      </trkpt>
      <trkpt lat="44.25784" lon="7.03972">
        <ele>1678.11</ele>
        <time>2018-05-10T05:36:18Z</time>
      </trkpt>
      <trkpt lat="44.2578" lon="7.03956">
        <ele>1680.42</ele>
        <time>2018-05-10T05:36:36Z</time>
      </trkpt>
      <trkpt lat="44.25774" lon="7.03943">
        <ele>1682.2</ele>
        <time>2018-05-10T05:36:51Z</time>
      </trkpt>
      <trkpt lat="44.25768" lon="7.0393">
        <ele>1683.2</ele>
        <time>2018-05-10T05:37:09Z</time>
      </trkpt>
      <trkpt lat="44.25765" lon="7.03916">
        <ele>1686.01</ele>
        <time>2018-05-10T05:37:29Z</time>
      </trkpt>
      <trkpt lat="44.25758" lon="7.03902">
        <ele>1688.48</ele>
        <time>2018-05-10T05:37:50Z</time>
      </trkpt>
      <trkpt lat="44.25751" lon="7.03889">
        <ele>1688.89</ele>
        <time>2018-05-10T05:38:10Z</time>
      </trkpt>
      <trkpt lat="44.25746" lon="7.03873">
        <ele>1690.65</ele>
        <time>2018-05-10T05:38:30Z</time>
      </trkpt>
      <trkpt lat="44.2574" lon="7.0385">
        <ele>1692.58</ele>
        <time>2018-05-10T05:38:57Z</time>
      </trkpt>
      <trkpt lat="44.25734" lon="7.03834">
        <ele>1694.54</ele>
        <time>2018-05-10T05:39:15Z</time>
      </trkpt>
      <trkpt lat="44.25727" lon="7.03819">
        <ele>1697.19</ele>
        <time>2018-05-10T05:39:38Z</time>
      </trkpt>
      <trkpt lat="44.2572" lon="7.03804">
        <ele>1699.42</ele>
        <time>2018-05-10T05:39:59Z</time>
      </trkpt>
      <trkpt lat="44.25715" lon="7.03792">
        <ele>1701.73</ele>
        <time>2018-05-10T05:40:17Z</time>
      </trkpt>
      <trkpt lat="44.25711" lon="7.0378">
        <ele>1703.22</ele>
        <time>2018-05-10T05:40:31Z</time>
      </trkpt>
      <trkpt lat="44.25707" lon="7.03767">
        <ele>1704.79</ele>
        <time>2018-05-10T05:40:47Z</time>
      </trkpt>
      <trkpt lat="44.25703" lon="7.03756">
        <ele>1706.2</ele>
        <time>2018-05-10T05:41:03Z</time>
      </trkpt>
      <trkpt lat="44.25694" lon="7.0375">
        <ele>1709.2</ele>
        <time>2018-05-10T05:41:24Z</time>
      </trkpt>
      <trkpt lat="44.25688" lon="7.03737">
        <ele>1709.49</ele>
        <time>2018-05-10T05:41:48Z</time>
      </trkpt>
      <trkpt lat="44.25686" lon="7.03728">
        <ele>1709.01</ele>
        <time>2018-05-10T05:42:09Z</time>
      </trkpt>
      <trkpt lat="44.25682" lon="7.03722">
        <ele>1709.18</ele>
        <time>2018-05-10T05:42:36Z</time>
      </trkpt>
      <trkpt lat="44.2568" lon="7.03709">
        <ele>1708.89</ele>
        <time>2018-05-10T05:42:58Z</time>
      </trkpt>
      <trkpt lat="44.25676" lon="7.0371">
        <ele>1711.95</ele>
        <time>2018-05-10T05:43:18Z</time>
      </trkpt>
      <trkpt lat="44.25667" lon="7.03692">
        <ele>1712.48</ele>
        <time>2018-05-10T05:43:36Z</time>
      </trkpt>
      <trkpt lat="44.25658" lon="7.03675">
        <ele>1713.55</ele>
        <time>2018-05-10T05:43:57Z</time>
      </trkpt>
      <trkpt lat="44.25656" lon="7.03673">
        <ele>1714.3</ele>
        <time>2018-05-10T05:44:16Z</time>
      </trkpt>
      <trkpt lat="44.25655" lon="7.03662">
        <ele>1714.51</ele>
        <time>2018-05-10T05:44:38Z</time>
      </trkpt>
      <trkpt lat="44.25657" lon="7.03641">
        <ele>1716.97</ele>
        <time>2018-05-10T05:44:59Z</time>
      </trkpt>
      <trkpt lat="44.25658" lon="7.03626">
        <ele>1719.65</ele>
        <time>2018-05-10T05:45:18Z</time>
      </trkpt>
      <trkpt lat="44.25653" lon="7.03617">
        <ele>1721.7</ele>
        <time>2018-05-10T05:45:34Z</time>
      </trkpt>
      <trkpt lat="44.25646" lon="7.03613">
        <ele>1724.65</ele>
        <time>2018-05-10T05:45:52Z</time>
      </trkpt>
      <trkpt lat="44.25638" lon="7.03621">
        <ele>1727.36</ele>
        <time>2018-05-10T05:46:12Z</time>
      </trkpt>
      <trkpt lat="44.25634" lon="7.03616">
        <ele>1729.07</ele>
        <time>2018-05-10T05:46:34Z</time>
      </trkpt>
      <trkpt lat="44.2563" lon="7.036">
        <ele>1731.47</ele>
        <time>2018-05-10T05:46:53Z</time>
      </trkpt>
      <trkpt lat="44.25627" lon="7.0359">
        <ele>1733.92</ele>
        <time>2018-05-10T05:47:11Z</time>
      </trkpt>
      <trkpt lat="44.25624" lon="7.03587">
        <ele>1735.78</ele>
        <time>2018-05-10T05:47:31Z</time>
      </trkpt>
      <trkpt lat="44.25623" lon="7.03574">
        <ele>1737.08</ele>
        <time>2018-05-10T05:47:51Z</time>
      </trkpt>
      <trkpt lat="44.25621" lon="7.03561">
        <ele>1737.89</ele>
        <time>2018-05-10T05:48:10Z</time>
      </trkpt>
      <trkpt lat="44.25617" lon="7.03548">
        <ele>1740.03</ele>
        <time>2018-05-10T05:48:33Z</time>
      </trkpt>
      <trkpt lat="44.25615" lon="7.03555">
        <ele>1741.46</ele>
        <time>2018-05-10T05:48:51Z</time>
      </trkpt>
      <trkpt lat="44.25616" lon="7.0354">
        <ele>1741.69</ele>
        <time>2018-05-10T05:49:08Z</time>
      </trkpt>
      <trkpt lat="44.25614" lon="7.03522">
        <ele>1743.92</ele>
        <time>2018-05-10T05:49:29Z</time>
      </trkpt>
      <trkpt lat="44.25612" lon="7.03506">
        <ele>1745.58</ele>
        <time>2018-05-10T05:49:46Z</time>
      </trkpt>
      <trkpt lat="44.25607" lon="7.03489">
        <ele>1747.1</ele>
        <time>2018-05-10T05:50:07Z</time>
      </trkpt>
      <trkpt lat="44.25605" lon="7.03477">
        <ele>1748.29</ele>
        <time>2018-05-10T05:50:25Z</time>
      </trkpt>
      <trkpt lat="44.25602" lon="7.03467">
        <ele>1749.13</ele>
        <time>2018-05-10T05:50:46Z</time>
      </trkpt>
      <trkpt lat="44.25596" lon="7.0346">
        <ele>1750.91</ele>
        <time>2018-05-10T05:51:06Z</time>
      </trkpt>
      <trkpt lat="44.25595" lon="7.03444">
        <ele>1751.18</ele>
        <time>2018-05-10T05:51:26Z</time>
      </trkpt>
      <trkpt lat="44.25591" lon="7.03422">
        <ele>1752.64</ele>
        <time>2018-05-10T05:51:49Z</time>
      </trkpt>
      <trkpt lat="44.25583" lon="7.03406">
        <ele>1754.07</ele>
        <time>2018-05-10T05:52:10Z</time>
      </trkpt>
      <trkpt lat="44.25579" lon="7.03394">
        <ele>1755.89</ele>
        <time>2018-05-10T05:52:28Z</time>
      </trkpt>
      <trkpt lat="44.25576" lon="7.03386">
        <ele>1756.59</ele>
        <time>2018-05-10T05:52:48Z</time>
      </trkpt>
      <trkpt lat="44.25575" lon="7.03388">
        <ele>1756.43</ele>
        <time>2018-05-10T05:53:11Z</time>
      </trkpt>
      <trkpt lat="44.25574" lon="7.03391">
        <ele>1756.07</ele>
        <time>2018-05-10T05:53:33Z</time>
      </trkpt>
      <trkpt lat="44.25575" lon="7.03387">
        <ele>1755.95</ele>
        <time>2018-05-10T05:53:55Z</time>
      </trkpt>
      <trkpt lat="44.25577" lon="7.03385">
        <ele>1755.66</ele>
        <time>2018-05-10T05:54:21Z</time>
      </trkpt>
      <trkpt lat="44.25578" lon="7.03385">
        <ele>1755.38</ele>
        <time>2018-05-10T05:54:49Z</time>
      </trkpt>
      <trkpt lat="44.25575" lon="7.03394">
        <ele>1755.34</ele>
        <time>2018-05-10T05:55:14Z</time>
      </trkpt>
      <trkpt lat="44.25575" lon="7.03392">
        <ele>1755.12</ele>
        <time>2018-05-10T05:55:39Z</time>
      </trkpt>
      <trkpt lat="44.25579" lon="7.03389">
        <ele>1755.2</ele>
        <time>2018-05-10T05:56:04Z</time>
      </trkpt>
      <trkpt lat="44.25577" lon="7.03387">
        <ele>1754.89</ele>
        <time>2018-05-10T05:56:24Z</time>
      </trkpt>
      <trkpt lat="44.25576" lon="7.0339">
        <ele>1755.08</ele>
        <time>2018-05-10T05:56:42Z</time>
      </trkpt>
      <trkpt lat="44.25575" lon="7.0339">
        <ele>1754.37</ele>
        <time>2018-05-10T05:57:06Z</time>
      </trkpt>
      <trkpt lat="44.25571" lon="7.03377">
        <ele>1755.98</ele>
        <time>2018-05-10T05:57:24Z</time>
      </trkpt>
      <trkpt lat="44.25564" lon="7.03363">
        <ele>1758.07</ele>
        <time>2018-05-10T05:57:43Z</time>
      </trkpt>
      <trkpt lat="44.25557" lon="7.0335">
        <ele>1760.32</ele>
        <time>2018-05-10T05:58:00Z</time>
      </trkpt>
      <trkpt lat="44.2555" lon="7.03342">
        <ele>1761.87</ele>
        <time>2018-05-10T05:58:16Z</time>
      </trkpt>
      <trkpt lat="44.25539" lon="7.03334">
        <ele>1764.77</ele>
        <time>2018-05-10T05:58:37Z</time>
      </trkpt>
      <trkpt lat="44.25532" lon="7.03324">
        <ele>1766.61</ele>
        <time>2018-05-10T05:58:55Z</time>
      </trkpt>
      <trkpt lat="44.25519" lon="7.03315">
        <ele>1768.4</ele>
        <time>2018-05-10T05:59:17Z</time>
      </trkpt>
      <trkpt lat="44.25507" lon="7.03308">
        <ele>1770.5</ele>
        <time>2018-05-10T05:59:36Z</time>
      </trkpt>
      <trkpt lat="44.25499" lon="7.033">
        <ele>1771.87</ele>
        <time>2018-05-10T05:59:52Z</time>
      </trkpt>
      <trkpt lat="44.25493" lon="7.03286">
        <ele>1774.17</ele>
        <time>2018-05-10T06:00:13Z</time>
      </trkpt>
      <trkpt lat="44.25486" lon="7.03272">
        <ele>1776.27</ele>
        <time>2018-05-10T06:00:33Z</time>
      </trkpt>
      <trkpt lat="44.2548" lon="7.03259">
        <ele>1778.22</ele>
        <time>2018-05-10T06:00:51Z</time>
      </trkpt>
      <trkpt lat="44.25475" lon="7.03246">
        <ele>1779.5</ele>
        <time>2018-05-10T06:01:06Z</time>
      </trkpt>
      <trkpt lat="44.2547" lon="7.03235">
        <ele>1780.72</ele>
        <time>2018-05-10T06:01:21Z</time>
      </trkpt>
      <trkpt lat="44.25462" lon="7.03221">
        <ele>1782.55</ele>
        <time>2018-05-10T06:01:42Z</time>
      </trkpt>
      <trkpt lat="44.25458" lon="7.03208">
        <ele>1783.75</ele>
        <time>2018-05-10T06:01:58Z</time>
      </trkpt>
      <trkpt lat="44.25456" lon="7.03192">
        <ele>1785.15</ele>
        <time>2018-05-10T06:02:15Z</time>
      </trkpt>
      <trkpt lat="44.25451" lon="7.03171">
        <ele>1787.25</ele>
        <time>2018-05-10T06:02:39Z</time>
      </trkpt>
      <trkpt lat="44.25446" lon="7.03154">
        <ele>1789.25</ele>
        <time>2018-05-10T06:03:00Z</time>
      </trkpt>
      <trkpt lat="44.25441" lon="7.03143">
        <ele>1790.8</ele>
        <time>2018-05-10T06:03:17Z</time>
      </trkpt>
      <trkpt lat="44.25437" lon="7.0313">
        <ele>1792.55</ele>
        <time>2018-05-10T06:03:35Z</time>
      </trkpt>
      <trkpt lat="44.25432" lon="7.03116">
        <ele>1794.35</ele>
        <time>2018-05-10T06:03:54Z</time>
      </trkpt>
      <trkpt lat="44.25426" lon="7.03107">
        <ele>1795.82</ele>
        <time>2018-05-10T06:04:10Z</time>
      </trkpt>
      <trkpt lat="44.25422" lon="7.03096">
        <ele>1797.03</ele>
        <time>2018-05-10T06:04:25Z</time>
      </trkpt>
      <trkpt lat="44.25416" lon="7.03083">
        <ele>1798.66</ele>
        <time>2018-05-10T06:04:45Z</time>
      </trkpt>
      <trkpt lat="44.25411" lon="7.0307">
        <ele>1800.69</ele>
        <time>2018-05-10T06:05:04Z</time>
      </trkpt>
      <trkpt lat="44.2541" lon="7.03056">
        <ele>1802.76</ele>
        <time>2018-05-10T06:05:21Z</time>
      </trkpt>
      <trkpt lat="44.25407" lon="7.03053">
        <ele>1803.19</ele>
        <time>2018-05-10T06:05:43Z</time>
      </trkpt>
      <trkpt lat="44.25407" lon="7.03054">
        <ele>1803.15</ele>
        <time>2018-05-10T06:05:44Z</time>
      </trkpt>
      <trkpt lat="44.25402" lon="7.03058">
        <ele>1802.71</ele>
        <time>2018-05-10T06:06:15Z</time>
      </trkpt>
      <trkpt lat="44.25403" lon="7.03059">
        <ele>1802.74</ele>
        <time>2018-05-10T06:06:21Z</time>
      </trkpt>
      <trkpt lat="44.25401" lon="7.03048">
        <ele>1803.77</ele>
        <time>2018-05-10T06:06:44Z</time>
      </trkpt>
      <trkpt lat="44.25397" lon="7.03033">
        <ele>1805.81</ele>
        <time>2018-05-10T06:06:59Z</time>
      </trkpt>
      <trkpt lat="44.2539" lon="7.03016">
        <ele>1806.67</ele>
        <time>2018-05-10T06:07:14Z</time>
      </trkpt>
      <trkpt lat="44.25387" lon="7.03006">
        <ele>1808.12</ele>
        <time>2018-05-10T06:07:34Z</time>
      </trkpt>
      <trkpt lat="44.2538" lon="7.02996">
        <ele>1809.43</ele>
        <time>2018-05-10T06:07:54Z</time>
      </trkpt>
      <trkpt lat="44.25373" lon="7.02984">
        <ele>1812.21</ele>
        <time>2018-05-10T06:08:11Z</time>
      </trkpt>
      <trkpt lat="44.25367" lon="7.02971">
        <ele>1813.62</ele>
        <time>2018-05-10T06:08:27Z</time>
      </trkpt>
      <trkpt lat="44.25356" lon="7.02961">
        <ele>1815.38</ele>
        <time>2018-05-10T06:08:45Z</time>
      </trkpt>
      <trkpt lat="44.2535" lon="7.02953">
        <ele>1816.92</ele>
        <time>2018-05-10T06:08:59Z</time>
      </trkpt>
      <trkpt lat="44.25343" lon="7.02941">
        <ele>1819.98</ele>
        <time>2018-05-10T06:09:20Z</time>
      </trkpt>
      <trkpt lat="44.25337" lon="7.02931">
        <ele>1821.91</ele>
        <time>2018-05-10T06:09:36Z</time>
      </trkpt>
      <trkpt lat="44.25334" lon="7.02913">
        <ele>1822.86</ele>
        <time>2018-05-10T06:09:53Z</time>
      </trkpt>
      <trkpt lat="44.25332" lon="7.02903">
        <ele>1825.06</ele>
        <time>2018-05-10T06:10:08Z</time>
      </trkpt>
      <trkpt lat="44.25333" lon="7.02889">
        <ele>1827.55</ele>
        <time>2018-05-10T06:10:26Z</time>
      </trkpt>
      <trkpt lat="44.2533" lon="7.02874">
        <ele>1829.02</ele>
        <time>2018-05-10T06:10:43Z</time>
      </trkpt>
      <trkpt lat="44.2533" lon="7.02856">
        <ele>1831.5</ele>
        <time>2018-05-10T06:11:02Z</time>
      </trkpt>
      <trkpt lat="44.25327" lon="7.02841">
        <ele>1833.4</ele>
        <time>2018-05-10T06:11:18Z</time>
      </trkpt>
      <trkpt lat="44.25327" lon="7.02839">
        <ele>1833.68</ele>
        <time>2018-05-10T06:11:20Z</time>
      </trkpt>
      <trkpt lat="44.25327" lon="7.02825">
        <ele>1835.21</ele>
        <time>2018-05-10T06:11:40Z</time>
      </trkpt>
      <trkpt lat="44.25326" lon="7.02805">
        <ele>1838.09</ele>
        <time>2018-05-10T06:12:01Z</time>
      </trkpt>
      <trkpt lat="44.25322" lon="7.0279">
        <ele>1840.92</ele>
        <time>2018-05-10T06:12:19Z</time>
      </trkpt>
      <trkpt lat="44.25318" lon="7.02782">
        <ele>1843.43</ele>
        <time>2018-05-10T06:12:36Z</time>
      </trkpt>
      <trkpt lat="44.25317" lon="7.02768">
        <ele>1845.83</ele>
        <time>2018-05-10T06:12:51Z</time>
      </trkpt>
      <trkpt lat="44.25315" lon="7.02763">
        <ele>1847.64</ele>
        <time>2018-05-10T06:13:03Z</time>
      </trkpt>
      <trkpt lat="44.25315" lon="7.02766">
        <ele>1848</ele>
        <time>2018-05-10T06:13:27Z</time>
      </trkpt>
      <trkpt lat="44.25316" lon="7.02766">
        <ele>1847.09</ele>
        <time>2018-05-10T06:13:52Z</time>
      </trkpt>
      <trkpt lat="44.25316" lon="7.02765">
        <ele>1846.75</ele>
        <time>2018-05-10T06:13:56Z</time>
      </trkpt>
      <trkpt lat="44.25314" lon="7.02765">
        <ele>1847.66</ele>
        <time>2018-05-10T06:14:23Z</time>
      </trkpt>
      <trkpt lat="44.25314" lon="7.02767">
        <ele>1847.48</ele>
        <time>2018-05-10T06:14:58Z</time>
      </trkpt>
      <trkpt lat="44.25313" lon="7.02763">
        <ele>1847.73</ele>
        <time>2018-05-10T06:15:29Z</time>
      </trkpt>
      <trkpt lat="44.25307" lon="7.02745">
        <ele>1849.55</ele>
        <time>2018-05-10T06:15:48Z</time>
      </trkpt>
      <trkpt lat="44.25305" lon="7.0273">
        <ele>1851.02</ele>
        <time>2018-05-10T06:16:04Z</time>
      </trkpt>
      <trkpt lat="44.25301" lon="7.02717">
        <ele>1853.16</ele>
        <time>2018-05-10T06:16:22Z</time>
      </trkpt>
      <trkpt lat="44.25299" lon="7.02704">
        <ele>1855.05</ele>
        <time>2018-05-10T06:16:37Z</time>
      </trkpt>
      <trkpt lat="44.25294" lon="7.0269">
        <ele>1857.24</ele>
        <time>2018-05-10T06:16:57Z</time>
      </trkpt>
      <trkpt lat="44.2529" lon="7.0268">
        <ele>1859.26</ele>
        <time>2018-05-10T06:17:12Z</time>
      </trkpt>
      <trkpt lat="44.25284" lon="7.02667">
        <ele>1860.76</ele>
        <time>2018-05-10T06:17:29Z</time>
      </trkpt>
      <trkpt lat="44.25283" lon="7.02651">
        <ele>1862.28</ele>
        <time>2018-05-10T06:17:46Z</time>
      </trkpt>
      <trkpt lat="44.25282" lon="7.02637">
        <ele>1863.86</ele>
        <time>2018-05-10T06:18:04Z</time>
      </trkpt>
      <trkpt lat="44.25282" lon="7.02624">
        <ele>1865.48</ele>
        <time>2018-05-10T06:18:19Z</time>
      </trkpt>
      <trkpt lat="44.25278" lon="7.02609">
        <ele>1866.77</ele>
        <time>2018-05-10T06:18:36Z</time>
      </trkpt>
      <trkpt lat="44.25274" lon="7.02597">
        <ele>1868.34</ele>
        <time>2018-05-10T06:18:50Z</time>
      </trkpt>
      <trkpt lat="44.25272" lon="7.02589">
        <ele>1869.11</ele>
        <time>2018-05-10T06:19:05Z</time>
      </trkpt>
      <trkpt lat="44.25267" lon="7.02578">
        <ele>1870.72</ele>
        <time>2018-05-10T06:19:17Z</time>
      </trkpt>
      <trkpt lat="44.25263" lon="7.02569">
        <ele>1871.82</ele>
        <time>2018-05-10T06:19:29Z</time>
      </trkpt>
      <trkpt lat="44.25257" lon="7.02559">
        <ele>1873.38</ele>
        <time>2018-05-10T06:19:45Z</time>
      </trkpt>
      <trkpt lat="44.25249" lon="7.02553">
        <ele>1874.78</ele>
        <time>2018-05-10T06:19:59Z</time>
      </trkpt>
      <trkpt lat="44.25242" lon="7.02542">
        <ele>1876.04</ele>
        <time>2018-05-10T06:20:14Z</time>
      </trkpt>
      <trkpt lat="44.25234" lon="7.0253">
        <ele>1878.15</ele>
        <time>2018-05-10T06:20:32Z</time>
      </trkpt>
      <trkpt lat="44.25229" lon="7.02517">
        <ele>1879.89</ele>
        <time>2018-05-10T06:20:49Z</time>
      </trkpt>
      <trkpt lat="44.25223" lon="7.02508">
        <ele>1881.44</ele>
        <time>2018-05-10T06:21:03Z</time>
      </trkpt>
      <trkpt lat="44.25213" lon="7.02498">
        <ele>1883.81</ele>
        <time>2018-05-10T06:21:23Z</time>
      </trkpt>
      <trkpt lat="44.25201" lon="7.02488">
        <ele>1886.22</ele>
        <time>2018-05-10T06:21:43Z</time>
      </trkpt>
      <trkpt lat="44.25193" lon="7.02482">
        <ele>1887.75</ele>
        <time>2018-05-10T06:21:57Z</time>
      </trkpt>
      <trkpt lat="44.25184" lon="7.02472">
        <ele>1889.19</ele>
        <time>2018-05-10T06:22:14Z</time>
      </trkpt>
      <trkpt lat="44.25174" lon="7.02466">
        <ele>1891.22</ele>
        <time>2018-05-10T06:22:31Z</time>
      </trkpt>
      <trkpt lat="44.25165" lon="7.02457">
        <ele>1893.08</ele>
        <time>2018-05-10T06:22:48Z</time>
      </trkpt>
      <trkpt lat="44.25162" lon="7.02441">
        <ele>1894.82</ele>
        <time>2018-05-10T06:23:06Z</time>
      </trkpt>
      <trkpt lat="44.25155" lon="7.02425">
        <ele>1897.27</ele>
        <time>2018-05-10T06:23:26Z</time>
      </trkpt>
      <trkpt lat="44.25154" lon="7.02421">
        <ele>1898.46</ele>
        <time>2018-05-10T06:23:47Z</time>
      </trkpt>
      <trkpt lat="44.2515" lon="7.02416">
        <ele>1899.55</ele>
        <time>2018-05-10T06:24:09Z</time>
      </trkpt>
      <trkpt lat="44.25144" lon="7.02401">
        <ele>1901.91</ele>
        <time>2018-05-10T06:24:23Z</time>
      </trkpt>
      <trkpt lat="44.25141" lon="7.02392">
        <ele>1903.11</ele>
        <time>2018-05-10T06:24:33Z</time>
      </trkpt>
      <trkpt lat="44.2514" lon="7.0239">
        <ele>1903.5</ele>
        <time>2018-05-10T06:24:35Z</time>
      </trkpt>
      <trkpt lat="44.25137" lon="7.02386">
        <ele>1904.09</ele>
        <time>2018-05-10T06:24:40Z</time>
      </trkpt>
      <trkpt lat="44.25135" lon="7.02384">
        <ele>1904.24</ele>
        <time>2018-05-10T06:24:42Z</time>
      </trkpt>
      <trkpt lat="44.25128" lon="7.02372">
        <ele>1905.78</ele>
        <time>2018-05-10T06:24:55Z</time>
      </trkpt>
      <trkpt lat="44.25124" lon="7.02363">
        <ele>1907.22</ele>
        <time>2018-05-10T06:25:06Z</time>
      </trkpt>
      <trkpt lat="44.2512" lon="7.02353">
        <ele>1908.88</ele>
        <time>2018-05-10T06:25:18Z</time>
      </trkpt>
      <trkpt lat="44.25113" lon="7.02341">
        <ele>1910.65</ele>
        <time>2018-05-10T06:25:33Z</time>
      </trkpt>
      <trkpt lat="44.25106" lon="7.02332">
        <ele>1912.6</ele>
        <time>2018-05-10T06:25:48Z</time>
      </trkpt>
      <trkpt lat="44.25101" lon="7.02323">
        <ele>1913.5</ele>
        <time>2018-05-10T06:26:04Z</time>
      </trkpt>
      <trkpt lat="44.25098" lon="7.02311">
        <ele>1915.22</ele>
        <time>2018-05-10T06:26:19Z</time>
      </trkpt>
      <trkpt lat="44.25096" lon="7.02294">
        <ele>1917.96</ele>
        <time>2018-05-10T06:26:38Z</time>
      </trkpt>
      <trkpt lat="44.25094" lon="7.02285">
        <ele>1920.53</ele>
        <time>2018-05-10T06:26:54Z</time>
      </trkpt>
      <trkpt lat="44.25093" lon="7.02276">
        <ele>1922.5</ele>
        <time>2018-05-10T06:27:07Z</time>
      </trkpt>
      <trkpt lat="44.25089" lon="7.02261">
        <ele>1925.33</ele>
        <time>2018-05-10T06:27:28Z</time>
      </trkpt>
      <trkpt lat="44.25085" lon="7.02248">
        <ele>1928.22</ele>
        <time>2018-05-10T06:27:47Z</time>
      </trkpt>
      <trkpt lat="44.25085" lon="7.02236">
        <ele>1930.18</ele>
        <time>2018-05-10T06:28:03Z</time>
      </trkpt>
      <trkpt lat="44.2508" lon="7.02225">
        <ele>1932.8</ele>
        <time>2018-05-10T06:28:22Z</time>
      </trkpt>
      <trkpt lat="44.25078" lon="7.02217">
        <ele>1934.8</ele>
        <time>2018-05-10T06:28:36Z</time>
      </trkpt>
      <trkpt lat="44.25077" lon="7.02204">
        <ele>1937.71</ele>
        <time>2018-05-10T06:28:54Z</time>
      </trkpt>
      <trkpt lat="44.25073" lon="7.02194">
        <ele>1940.28</ele>
        <time>2018-05-10T06:29:09Z</time>
      </trkpt>
      <trkpt lat="44.25068" lon="7.02181">
        <ele>1943.13</ele>
        <time>2018-05-10T06:29:27Z</time>
      </trkpt>
      <trkpt lat="44.25062" lon="7.02176">
        <ele>1945.51</ele>
        <time>2018-05-10T06:29:41Z</time>
      </trkpt>
      <trkpt lat="44.25056" lon="7.02172">
        <ele>1947.92</ele>
        <time>2018-05-10T06:29:58Z</time>
      </trkpt>
      <trkpt lat="44.25055" lon="7.02163">
        <ele>1949.95</ele>
        <time>2018-05-10T06:30:14Z</time>
      </trkpt>
      <trkpt lat="44.25049" lon="7.02157">
        <ele>1952.49</ele>
        <time>2018-05-10T06:30:30Z</time>
      </trkpt>
      <trkpt lat="44.25039" lon="7.02155">
        <ele>1954.84</ele>
        <time>2018-05-10T06:30:47Z</time>
      </trkpt>
      <trkpt lat="44.2504" lon="7.02145">
        <ele>1956.41</ele>
        <time>2018-05-10T06:31:02Z</time>
      </trkpt>
      <trkpt lat="44.25042" lon="7.02135">
        <ele>1959.47</ele>
        <time>2018-05-10T06:31:20Z</time>
      </trkpt>
      <trkpt lat="44.25034" lon="7.0213">
        <ele>1962.19</ele>
        <time>2018-05-10T06:31:38Z</time>
      </trkpt>
      <trkpt lat="44.25029" lon="7.02126">
        <ele>1964.19</ele>
        <time>2018-05-10T06:31:53Z</time>
      </trkpt>
      <trkpt lat="44.25032" lon="7.02114">
        <ele>1966.47</ele>
        <time>2018-05-10T06:32:11Z</time>
      </trkpt>
      <trkpt lat="44.25027" lon="7.02109">
        <ele>1969.48</ele>
        <time>2018-05-10T06:32:28Z</time>
      </trkpt>
      <trkpt lat="44.2502" lon="7.02105">
        <ele>1971.18</ele>
        <time>2018-05-10T06:32:42Z</time>
      </trkpt>
      <trkpt lat="44.25013" lon="7.02097">
        <ele>1973.49</ele>
        <time>2018-05-10T06:33:00Z</time>
      </trkpt>
      <trkpt lat="44.2501" lon="7.02089">
        <ele>1975.76</ele>
        <time>2018-05-10T06:33:14Z</time>
      </trkpt>
      <trkpt lat="44.25006" lon="7.02079">
        <ele>1978.03</ele>
        <time>2018-05-10T06:33:30Z</time>
      </trkpt>
      <trkpt lat="44.25003" lon="7.02072">
        <ele>1979.99</ele>
        <time>2018-05-10T06:33:43Z</time>
      </trkpt>
      <trkpt lat="44.25004" lon="7.02063">
        <ele>1981.42</ele>
        <time>2018-05-10T06:33:55Z</time>
      </trkpt>
      <trkpt lat="44.24999" lon="7.02056">
        <ele>1984.58</ele>
        <time>2018-05-10T06:34:13Z</time>
      </trkpt>
      <trkpt lat="44.24992" lon="7.02053">
        <ele>1986.08</ele>
        <time>2018-05-10T06:34:27Z</time>
      </trkpt>
      <trkpt lat="44.24988" lon="7.02046">
        <ele>1987.84</ele>
        <time>2018-05-10T06:34:39Z</time>
      </trkpt>
      <trkpt lat="44.24985" lon="7.02038">
        <ele>1989.43</ele>
        <time>2018-05-10T06:34:51Z</time>
      </trkpt>
      <trkpt lat="44.2498" lon="7.02031">
        <ele>1991.95</ele>
        <time>2018-05-10T06:35:07Z</time>
      </trkpt>
      <trkpt lat="44.24972" lon="7.02027">
        <ele>1994.17</ele>
        <time>2018-05-10T06:35:25Z</time>
      </trkpt>
      <trkpt lat="44.24964" lon="7.02019">
        <ele>1997.18</ele>
        <time>2018-05-10T06:35:45Z</time>
      </trkpt>
      <trkpt lat="44.24957" lon="7.02012">
        <ele>2000.15</ele>
        <time>2018-05-10T06:36:07Z</time>
      </trkpt>
      <trkpt lat="44.24951" lon="7.02005">
        <ele>2002.13</ele>
        <time>2018-05-10T06:36:21Z</time>
      </trkpt>
      <trkpt lat="44.24939" lon="7.02001">
        <ele>2004.47</ele>
        <time>2018-05-10T06:36:38Z</time>
      </trkpt>
      <trkpt lat="44.24929" lon="7.01996">
        <ele>2007.36</ele>
        <time>2018-05-10T06:36:56Z</time>
      </trkpt>
      <trkpt lat="44.24923" lon="7.01989">
        <ele>2008.97</ele>
        <time>2018-05-10T06:37:10Z</time>
      </trkpt>
      <trkpt lat="44.24908" lon="7.01981">
        <ele>2011.48</ele>
        <time>2018-05-10T06:37:31Z</time>
      </trkpt>
      <trkpt lat="44.24898" lon="7.01972">
        <ele>2013.47</ele>
        <time>2018-05-10T06:37:50Z</time>
      </trkpt>
      <trkpt lat="44.24891" lon="7.01967">
        <ele>2015.4</ele>
        <time>2018-05-10T06:38:03Z</time>
      </trkpt>
      <trkpt lat="44.24882" lon="7.01964">
        <ele>2017.38</ele>
        <time>2018-05-10T06:38:21Z</time>
      </trkpt>
      <trkpt lat="44.24874" lon="7.0196">
        <ele>2020.33</ele>
        <time>2018-05-10T06:38:39Z</time>
      </trkpt>
      <trkpt lat="44.24866" lon="7.01956">
        <ele>2022.88</ele>
        <time>2018-05-10T06:38:57Z</time>
      </trkpt>
      <trkpt lat="44.24858" lon="7.01954">
        <ele>2025.87</ele>
        <time>2018-05-10T06:39:14Z</time>
      </trkpt>
      <trkpt lat="44.24849" lon="7.01955">
        <ele>2028.97</ele>
        <time>2018-05-10T06:39:34Z</time>
      </trkpt>
      <trkpt lat="44.24848" lon="7.01948">
        <ele>2030.5</ele>
        <time>2018-05-10T06:39:50Z</time>
      </trkpt>
      <trkpt lat="44.24845" lon="7.01939">
        <ele>2033.28</ele>
        <time>2018-05-10T06:40:10Z</time>
      </trkpt>
      <trkpt lat="44.24842" lon="7.01932">
        <ele>2036.09</ele>
        <time>2018-05-10T06:40:30Z</time>
      </trkpt>
      <trkpt lat="44.24841" lon="7.01923">
        <ele>2038.8</ele>
        <time>2018-05-10T06:40:51Z</time>
      </trkpt>
      <trkpt lat="44.24837" lon="7.01924">
        <ele>2040.18</ele>
        <time>2018-05-10T06:41:12Z</time>
      </trkpt>
      <trkpt lat="44.24831" lon="7.01929">
        <ele>2043.29</ele>
        <time>2018-05-10T06:41:32Z</time>
      </trkpt>
      <trkpt lat="44.24825" lon="7.01931">
        <ele>2046.36</ele>
        <time>2018-05-10T06:41:52Z</time>
      </trkpt>
      <trkpt lat="44.2482" lon="7.01934">
        <ele>2048.33</ele>
        <time>2018-05-10T06:42:12Z</time>
      </trkpt>
      <trkpt lat="44.24818" lon="7.01928">
        <ele>2050.2</ele>
        <time>2018-05-10T06:42:29Z</time>
      </trkpt>
      <trkpt lat="44.24816" lon="7.01918">
        <ele>2053.22</ele>
        <time>2018-05-10T06:42:47Z</time>
      </trkpt>
      <trkpt lat="44.24816" lon="7.01903">
        <ele>2056.24</ele>
        <time>2018-05-10T06:43:06Z</time>
      </trkpt>
      <trkpt lat="44.24815" lon="7.019">
        <ele>2058.37</ele>
        <time>2018-05-10T06:43:25Z</time>
      </trkpt>
      <trkpt lat="44.24806" lon="7.01907">
        <ele>2061.52</ele>
        <time>2018-05-10T06:43:45Z</time>
      </trkpt>
      <trkpt lat="44.24798" lon="7.01912">
        <ele>2064.6</ele>
        <time>2018-05-10T06:44:02Z</time>
      </trkpt>
      <trkpt lat="44.24791" lon="7.01918">
        <ele>2067.65</ele>
        <time>2018-05-10T06:44:20Z</time>
      </trkpt>
      <trkpt lat="44.24789" lon="7.01916">
        <ele>2068.33</ele>
        <time>2018-05-10T06:44:40Z</time>
      </trkpt>
      <trkpt lat="44.2479" lon="7.0191">
        <ele>2069.46</ele>
        <time>2018-05-10T06:44:53Z</time>
      </trkpt>
      <trkpt lat="44.24786" lon="7.01918">
        <ele>2069.28</ele>
        <time>2018-05-10T06:45:20Z</time>
      </trkpt>
      <trkpt lat="44.24778" lon="7.01931">
        <ele>2069.31</ele>
        <time>2018-05-10T06:45:47Z</time>
      </trkpt>
      <trkpt lat="44.24785" lon="7.01914">
        <ele>2069.9</ele>
        <time>2018-05-10T06:46:15Z</time>
      </trkpt>
      <trkpt lat="44.24786" lon="7.01898">
        <ele>2073.01</ele>
        <time>2018-05-10T06:46:32Z</time>
      </trkpt>
      <trkpt lat="44.24787" lon="7.01885">
        <ele>2076.03</ele>
        <time>2018-05-10T06:46:47Z</time>
      </trkpt>
      <trkpt lat="44.24785" lon="7.01886">
        <ele>2077.46</ele>
        <time>2018-05-10T06:47:03Z</time>
      </trkpt>
      <trkpt lat="44.24779" lon="7.01888">
        <ele>2080.55</ele>
        <time>2018-05-10T06:47:20Z</time>
      </trkpt>
      <trkpt lat="44.24768" lon="7.01893">
        <ele>2083.73</ele>
        <time>2018-05-10T06:47:41Z</time>
      </trkpt>
      <trkpt lat="44.24759" lon="7.01898">
        <ele>2086.95</ele>
        <time>2018-05-10T06:48:01Z</time>
      </trkpt>
      <trkpt lat="44.24752" lon="7.01903">
        <ele>2089.9</ele>
        <time>2018-05-10T06:48:22Z</time>
      </trkpt>
      <trkpt lat="44.24744" lon="7.0191">
        <ele>2093.02</ele>
        <time>2018-05-10T06:48:44Z</time>
      </trkpt>
      <trkpt lat="44.2474" lon="7.01902">
        <ele>2094.98</ele>
        <time>2018-05-10T06:49:03Z</time>
      </trkpt>
      <trkpt lat="44.24735" lon="7.01892">
        <ele>2098</ele>
        <time>2018-05-10T06:49:25Z</time>
      </trkpt>
      <trkpt lat="44.24732" lon="7.01878">
        <ele>2101.05</ele>
        <time>2018-05-10T06:49:45Z</time>
      </trkpt>
      <trkpt lat="44.24728" lon="7.01868">
        <ele>2103.72</ele>
        <time>2018-05-10T06:50:04Z</time>
      </trkpt>
      <trkpt lat="44.24727" lon="7.01853">
        <ele>2106.64</ele>
        <time>2018-05-10T06:50:25Z</time>
      </trkpt>
      <trkpt lat="44.24727" lon="7.0184">
        <ele>2109.46</ele>
        <time>2018-05-10T06:50:45Z</time>
      </trkpt>
      <trkpt lat="44.24726" lon="7.01829">
        <ele>2112.65</ele>
        <time>2018-05-10T06:51:05Z</time>
      </trkpt>
      <trkpt lat="44.24724" lon="7.01822">
        <ele>2115.71</ele>
        <time>2018-05-10T06:51:24Z</time>
      </trkpt>
      <trkpt lat="44.24715" lon="7.01821">
        <ele>2118.74</ele>
        <time>2018-05-10T06:51:47Z</time>
      </trkpt>
      <trkpt lat="44.24712" lon="7.01819">
        <ele>2119.54</ele>
        <time>2018-05-10T06:52:15Z</time>
      </trkpt>
      <trkpt lat="44.24709" lon="7.01823">
        <ele>2119.06</ele>
        <time>2018-05-10T06:52:35Z</time>
      </trkpt>
      <trkpt lat="44.24712" lon="7.01822">
        <ele>2119.67</ele>
        <time>2018-05-10T06:52:48Z</time>
      </trkpt>
      <trkpt lat="44.24707" lon="7.01827">
        <ele>2118.93</ele>
        <time>2018-05-10T06:53:08Z</time>
      </trkpt>
      <trkpt lat="44.24706" lon="7.01829">
        <ele>2118.41</ele>
        <time>2018-05-10T06:53:34Z</time>
      </trkpt>
      <trkpt lat="44.24707" lon="7.01826">
        <ele>2119.21</ele>
        <time>2018-05-10T06:53:57Z</time>
      </trkpt>
      <trkpt lat="44.24707" lon="7.01825">
        <ele>2118.69</ele>
        <time>2018-05-10T06:54:25Z</time>
      </trkpt>
      <trkpt lat="44.24708" lon="7.01825">
        <ele>2118.29</ele>
        <time>2018-05-10T06:54:50Z</time>
      </trkpt>
      <trkpt lat="44.24706" lon="7.01825">
        <ele>2119.08</ele>
        <time>2018-05-10T06:55:13Z</time>
      </trkpt>
      <trkpt lat="44.24707" lon="7.01826">
        <ele>2118.77</ele>
        <time>2018-05-10T06:55:32Z</time>
      </trkpt>
      <trkpt lat="44.24705" lon="7.01828">
        <ele>2118.58</ele>
        <time>2018-05-10T06:55:46Z</time>
      </trkpt>
      <trkpt lat="44.24705" lon="7.01829">
        <ele>2118.4</ele>
        <time>2018-05-10T06:55:47Z</time>
      </trkpt>
      <trkpt lat="44.24705" lon="7.01829">
        <ele>2118.27</ele>
        <time>2018-05-10T06:56:15Z</time>
      </trkpt>
      <trkpt lat="44.24707" lon="7.01825">
        <ele>2118.38</ele>
        <time>2018-05-10T06:56:40Z</time>
      </trkpt>
      <trkpt lat="44.24708" lon="7.01822">
        <ele>2117.76</ele>
        <time>2018-05-10T06:57:06Z</time>
      </trkpt>
      <trkpt lat="44.24708" lon="7.01822">
        <ele>2117.75</ele>
        <time>2018-05-10T06:57:18Z</time>
      </trkpt>
      <trkpt lat="44.24707" lon="7.01823">
        <ele>2118.04</ele>
        <time>2018-05-10T06:57:49Z</time>
      </trkpt>
      <trkpt lat="44.24708" lon="7.01823">
        <ele>2118.27</ele>
        <time>2018-05-10T06:58:13Z</time>
      </trkpt>
      <trkpt lat="44.24706" lon="7.01825">
        <ele>2117.65</ele>
        <time>2018-05-10T06:58:38Z</time>
      </trkpt>
      <trkpt lat="44.24707" lon="7.01825">
        <ele>2117.72</ele>
        <time>2018-05-10T06:59:08Z</time>
      </trkpt>
      <trkpt lat="44.24706" lon="7.01824">
        <ele>2118.27</ele>
        <time>2018-05-10T06:59:32Z</time>
      </trkpt>
      <trkpt lat="44.24705" lon="7.01824">
        <ele>2118.13</ele>
        <time>2018-05-10T06:59:55Z</time>
      </trkpt>
      <trkpt lat="44.24706" lon="7.01824">
        <ele>2118.05</ele>
        <time>2018-05-10T07:00:23Z</time>
      </trkpt>
      <trkpt lat="44.24705" lon="7.01826">
        <ele>2117.99</ele>
        <time>2018-05-10T07:00:49Z</time>
      </trkpt>
      <trkpt lat="44.24706" lon="7.01827">
        <ele>2117.97</ele>
        <time>2018-05-10T07:01:16Z</time>
      </trkpt>
      <trkpt lat="44.24707" lon="7.01826">
        <ele>2118.09</ele>
        <time>2018-05-10T07:01:48Z</time>
      </trkpt>
      <trkpt lat="44.24708" lon="7.01824">
        <ele>2118.35</ele>
        <time>2018-05-10T07:02:18Z</time>
      </trkpt>
      <trkpt lat="44.24708" lon="7.01825">
        <ele>2118.54</ele>
        <time>2018-05-10T07:02:42Z</time>
      </trkpt>
      <trkpt lat="44.24708" lon="7.01825">
        <ele>2117.99</ele>
        <time>2018-05-10T07:03:06Z</time>
      </trkpt>
      <trkpt lat="44.24707" lon="7.01824">
        <ele>2117.82</ele>
        <time>2018-05-10T07:03:31Z</time>
      </trkpt>
      <trkpt lat="44.24708" lon="7.01822">
        <ele>2118.71</ele>
        <time>2018-05-10T07:03:54Z</time>
      </trkpt>
      <trkpt lat="44.24705" lon="7.01825">
        <ele>2118.86</ele>
        <time>2018-05-10T07:04:22Z</time>
      </trkpt>
      <trkpt lat="44.24697" lon="7.01825">
        <ele>2122.05</ele>
        <time>2018-05-10T07:04:45Z</time>
      </trkpt>
      <trkpt lat="44.24687" lon="7.01823">
        <ele>2124.88</ele>
        <time>2018-05-10T07:05:09Z</time>
      </trkpt>
      <trkpt lat="44.24684" lon="7.0181">
        <ele>2127.55</ele>
        <time>2018-05-10T07:05:31Z</time>
      </trkpt>
      <trkpt lat="44.24681" lon="7.01806">
        <ele>2130.52</ele>
        <time>2018-05-10T07:05:50Z</time>
      </trkpt>
      <trkpt lat="44.24669" lon="7.0181">
        <ele>2133.56</ele>
        <time>2018-05-10T07:06:12Z</time>
      </trkpt>
      <trkpt lat="44.24665" lon="7.01803">
        <ele>2135.72</ele>
        <time>2018-05-10T07:06:32Z</time>
      </trkpt>
      <trkpt lat="44.24667" lon="7.01789">
        <ele>2138.86</ele>
        <time>2018-05-10T07:06:54Z</time>
      </trkpt>
      <trkpt lat="44.24664" lon="7.01784">
        <ele>2141.11</ele>
        <time>2018-05-10T07:07:11Z</time>
      </trkpt>
      <trkpt lat="44.24658" lon="7.01784">
        <ele>2143.94</ele>
        <time>2018-05-10T07:07:28Z</time>
      </trkpt>
      <trkpt lat="44.24652" lon="7.01783">
        <ele>2145.87</ele>
        <time>2018-05-10T07:07:47Z</time>
      </trkpt>
      <trkpt lat="44.24653" lon="7.01775">
        <ele>2147.37</ele>
        <time>2018-05-10T07:08:05Z</time>
      </trkpt>
      <trkpt lat="44.24657" lon="7.01765">
        <ele>2150.39</ele>
        <time>2018-05-10T07:08:26Z</time>
      </trkpt>
      <trkpt lat="44.24659" lon="7.01753">
        <ele>2153.02</ele>
        <time>2018-05-10T07:08:48Z</time>
      </trkpt>
      <trkpt lat="44.24662" lon="7.0174">
        <ele>2155.79</ele>
        <time>2018-05-10T07:09:11Z</time>
      </trkpt>
      <trkpt lat="44.24658" lon="7.0174">
        <ele>2157.86</ele>
        <time>2018-05-10T07:09:29Z</time>
      </trkpt>
      <trkpt lat="44.24647" lon="7.01744">
        <ele>2160.8</ele>
        <time>2018-05-10T07:09:51Z</time>
      </trkpt>
      <trkpt lat="44.24636" lon="7.01744">
        <ele>2163.87</ele>
        <time>2018-05-10T07:10:13Z</time>
      </trkpt>
      <trkpt lat="44.24625" lon="7.01747">
        <ele>2166.5</ele>
        <time>2018-05-10T07:10:35Z</time>
      </trkpt>
      <trkpt lat="44.24617" lon="7.01747">
        <ele>2168.57</ele>
        <time>2018-05-10T07:10:59Z</time>
      </trkpt>
      <trkpt lat="44.24621" lon="7.01736">
        <ele>2171.09</ele>
        <time>2018-05-10T07:11:21Z</time>
      </trkpt>
      <trkpt lat="44.24627" lon="7.01725">
        <ele>2173.75</ele>
        <time>2018-05-10T07:11:43Z</time>
      </trkpt>
      <trkpt lat="44.24629" lon="7.01714">
        <ele>2176.6</ele>
        <time>2018-05-10T07:12:06Z</time>
      </trkpt>
      <trkpt lat="44.2463" lon="7.01699">
        <ele>2179.64</ele>
        <time>2018-05-10T07:12:29Z</time>
      </trkpt>
      <trkpt lat="44.2463" lon="7.01685">
        <ele>2182.45</ele>
        <time>2018-05-10T07:12:51Z</time>
      </trkpt>
      <trkpt lat="44.2463" lon="7.01674">
        <ele>2185.57</ele>
        <time>2018-05-10T07:13:11Z</time>
      </trkpt>
      <trkpt lat="44.2463" lon="7.01667">
        <ele>2187.3</ele>
        <time>2018-05-10T07:13:31Z</time>
      </trkpt>
      <trkpt lat="44.24632" lon="7.01654">
        <ele>2190.32</ele>
        <time>2018-05-10T07:13:54Z</time>
      </trkpt>
      <trkpt lat="44.24631" lon="7.0164">
        <ele>2192.79</ele>
        <time>2018-05-10T07:14:15Z</time>
      </trkpt>
      <trkpt lat="44.24631" lon="7.01628">
        <ele>2195.51</ele>
        <time>2018-05-10T07:14:34Z</time>
      </trkpt>
      <trkpt lat="44.24626" lon="7.01623">
        <ele>2198.03</ele>
        <time>2018-05-10T07:14:51Z</time>
      </trkpt>
      <trkpt lat="44.24617" lon="7.01624">
        <ele>2200.33</ele>
        <time>2018-05-10T07:15:09Z</time>
      </trkpt>
      <trkpt lat="44.24605" lon="7.01622">
        <ele>2202.84</ele>
        <time>2018-05-10T07:15:29Z</time>
      </trkpt>
      <trkpt lat="44.24596" lon="7.0162">
        <ele>2204.93</ele>
        <time>2018-05-10T07:15:49Z</time>
      </trkpt>
      <trkpt lat="44.24587" lon="7.0162">
        <ele>2207.06</ele>
        <time>2018-05-10T07:16:05Z</time>
      </trkpt>
      <trkpt lat="44.24576" lon="7.01619">
        <ele>2208.95</ele>
        <time>2018-05-10T07:16:21Z</time>
      </trkpt>
      <trkpt lat="44.24566" lon="7.01616">
        <ele>2212.08</ele>
        <time>2018-05-10T07:16:40Z</time>
      </trkpt>
      <trkpt lat="44.24558" lon="7.01611">
        <ele>2214.3</ele>
        <time>2018-05-10T07:16:57Z</time>
      </trkpt>
      <trkpt lat="44.24549" lon="7.01606">
        <ele>2216.58</ele>
        <time>2018-05-10T07:17:15Z</time>
      </trkpt>
      <trkpt lat="44.24538" lon="7.01603">
        <ele>2218.1</ele>
        <time>2018-05-10T07:17:32Z</time>
      </trkpt>
      <trkpt lat="44.24523" lon="7.01603">
        <ele>2220.9</ele>
        <time>2018-05-10T07:17:57Z</time>
      </trkpt>
      <trkpt lat="44.24513" lon="7.01607">
        <ele>2223.31</ele>
        <time>2018-05-10T07:18:15Z</time>
      </trkpt>
      <trkpt lat="44.245" lon="7.0161">
        <ele>2225.99</ele>
        <time>2018-05-10T07:18:37Z</time>
      </trkpt>
      <trkpt lat="44.24494" lon="7.01618">
        <ele>2228.13</ele>
        <time>2018-05-10T07:18:54Z</time>
      </trkpt>
      <trkpt lat="44.24487" lon="7.01628">
        <ele>2230.29</ele>
        <time>2018-05-10T07:19:12Z</time>
      </trkpt>
      <trkpt lat="44.24481" lon="7.0164">
        <ele>2232.93</ele>
        <time>2018-05-10T07:19:32Z</time>
      </trkpt>
      <trkpt lat="44.24477" lon="7.01651">
        <ele>2235.11</ele>
        <time>2018-05-10T07:19:49Z</time>
      </trkpt>
      <trkpt lat="44.24468" lon="7.01659">
        <ele>2237.53</ele>
        <time>2018-05-10T07:20:08Z</time>
      </trkpt>
      <trkpt lat="44.24457" lon="7.01665">
        <ele>2240.61</ele>
        <time>2018-05-10T07:20:30Z</time>
      </trkpt>
      <trkpt lat="44.24453" lon="7.01666">
        <ele>2241.89</ele>
        <time>2018-05-10T07:20:55Z</time>
      </trkpt>
      <trkpt lat="44.24449" lon="7.01664">
        <ele>2242.52</ele>
        <time>2018-05-10T07:21:23Z</time>
      </trkpt>
      <trkpt lat="44.24438" lon="7.01664">
        <ele>2245.53</ele>
        <time>2018-05-10T07:21:41Z</time>
      </trkpt>
      <trkpt lat="44.24429" lon="7.01666">
        <ele>2248.55</ele>
        <time>2018-05-10T07:21:58Z</time>
      </trkpt>
      <trkpt lat="44.24416" lon="7.01664">
        <ele>2251.65</ele>
        <time>2018-05-10T07:22:18Z</time>
      </trkpt>
      <trkpt lat="44.24406" lon="7.01663">
        <ele>2254.5</ele>
        <time>2018-05-10T07:22:39Z</time>
      </trkpt>
      <trkpt lat="44.24395" lon="7.01665">
        <ele>2257.56</ele>
        <time>2018-05-10T07:23:00Z</time>
      </trkpt>
      <trkpt lat="44.24384" lon="7.01664">
        <ele>2260.6</ele>
        <time>2018-05-10T07:23:23Z</time>
      </trkpt>
      <trkpt lat="44.24375" lon="7.01665">
        <ele>2262.94</ele>
        <time>2018-05-10T07:23:40Z</time>
      </trkpt>
      <trkpt lat="44.24364" lon="7.01667">
        <ele>2266.04</ele>
        <time>2018-05-10T07:24:04Z</time>
      </trkpt>
      <trkpt lat="44.24352" lon="7.01667">
        <ele>2268.81</ele>
        <time>2018-05-10T07:24:25Z</time>
      </trkpt>
      <trkpt lat="44.24344" lon="7.01664">
        <ele>2270.75</ele>
        <time>2018-05-10T07:24:45Z</time>
      </trkpt>
      <trkpt lat="44.24331" lon="7.01663">
        <ele>2272.23</ele>
        <time>2018-05-10T07:25:02Z</time>
      </trkpt>
      <trkpt lat="44.24315" lon="7.01663">
        <ele>2272.75</ele>
        <time>2018-05-10T07:25:23Z</time>
      </trkpt>
      <trkpt lat="44.24308" lon="7.0166">
        <ele>2273.95</ele>
        <time>2018-05-10T07:25:43Z</time>
      </trkpt>
      <trkpt lat="44.24298" lon="7.01659">
        <ele>2276.66</ele>
        <time>2018-05-10T07:26:02Z</time>
      </trkpt>
      <trkpt lat="44.24287" lon="7.01657">
        <ele>2279.74</ele>
        <time>2018-05-10T07:26:21Z</time>
      </trkpt>
      <trkpt lat="44.24278" lon="7.01658">
        <ele>2282.6</ele>
        <time>2018-05-10T07:26:41Z</time>
      </trkpt>
      <trkpt lat="44.24267" lon="7.01656">
        <ele>2285.41</ele>
        <time>2018-05-10T07:27:01Z</time>
      </trkpt>
      <trkpt lat="44.24256" lon="7.01655">
        <ele>2288.32</ele>
        <time>2018-05-10T07:27:24Z</time>
      </trkpt>
      <trkpt lat="44.24244" lon="7.01655">
        <ele>2291.19</ele>
        <time>2018-05-10T07:27:45Z</time>
      </trkpt>
      <trkpt lat="44.24234" lon="7.01653">
        <ele>2293.97</ele>
        <time>2018-05-10T07:28:09Z</time>
      </trkpt>
      <trkpt lat="44.24219" lon="7.01651">
        <ele>2296.42</ele>
        <time>2018-05-10T07:28:33Z</time>
      </trkpt>
      <trkpt lat="44.24204" lon="7.01652">
        <ele>2299.4</ele>
        <time>2018-05-10T07:28:59Z</time>
      </trkpt>
      <trkpt lat="44.24186" lon="7.01657">
        <ele>2301.65</ele>
        <time>2018-05-10T07:29:24Z</time>
      </trkpt>
      <trkpt lat="44.24177" lon="7.01667">
        <ele>2304.68</ele>
        <time>2018-05-10T07:29:49Z</time>
      </trkpt>
      <trkpt lat="44.24171" lon="7.01681">
        <ele>2306.67</ele>
        <time>2018-05-10T07:30:10Z</time>
      </trkpt>
      <trkpt lat="44.2416" lon="7.01686">
        <ele>2309.33</ele>
        <time>2018-05-10T07:30:34Z</time>
      </trkpt>
      <trkpt lat="44.24148" lon="7.01684">
        <ele>2312.3</ele>
        <time>2018-05-10T07:30:58Z</time>
      </trkpt>
      <trkpt lat="44.24135" lon="7.01684">
        <ele>2315.35</ele>
        <time>2018-05-10T07:31:24Z</time>
      </trkpt>
      <trkpt lat="44.24122" lon="7.01683">
        <ele>2317.99</ele>
        <time>2018-05-10T07:31:45Z</time>
      </trkpt>
      <trkpt lat="44.24111" lon="7.01683">
        <ele>2320.92</ele>
        <time>2018-05-10T07:32:08Z</time>
      </trkpt>
      <trkpt lat="44.24102" lon="7.0168">
        <ele>2323.93</ele>
        <time>2018-05-10T07:32:32Z</time>
      </trkpt>
      <trkpt lat="44.24092" lon="7.01677">
        <ele>2326.75</ele>
        <time>2018-05-10T07:32:55Z</time>
      </trkpt>
      <trkpt lat="44.24082" lon="7.01676">
        <ele>2329.09</ele>
        <time>2018-05-10T07:33:13Z</time>
      </trkpt>
      <trkpt lat="44.2407" lon="7.01672">
        <ele>2331.6</ele>
        <time>2018-05-10T07:33:38Z</time>
      </trkpt>
      <trkpt lat="44.24069" lon="7.01671">
        <ele>2331.43</ele>
        <time>2018-05-10T07:34:00Z</time>
      </trkpt>
      <trkpt lat="44.24069" lon="7.01673">
        <ele>2330.64</ele>
        <time>2018-05-10T07:34:27Z</time>
      </trkpt>
      <trkpt lat="44.24069" lon="7.01672">
        <ele>2330.63</ele>
        <time>2018-05-10T07:35:21Z</time>
      </trkpt>
      <trkpt lat="44.24068" lon="7.01676">
        <ele>2330.02</ele>
        <time>2018-05-10T07:36:40Z</time>
      </trkpt>
      <trkpt lat="44.24069" lon="7.01673">
        <ele>2331.36</ele>
        <time>2018-05-10T07:37:56Z</time>
      </trkpt>
      <trkpt lat="44.2407" lon="7.01675">
        <ele>2331.44</ele>
        <time>2018-05-10T07:39:21Z</time>
      </trkpt>
      <trkpt lat="44.2407" lon="7.01673">
        <ele>2330.71</ele>
        <time>2018-05-10T07:41:22Z</time>
      </trkpt>
      <trkpt lat="44.2407" lon="7.01673">
        <ele>2330.31</ele>
        <time>2018-05-10T07:43:10Z</time>
      </trkpt>
      <trkpt lat="44.24072" lon="7.01675">
        <ele>2330.56</ele>
        <time>2018-05-10T07:44:50Z</time>
      </trkpt>
      <trkpt lat="44.2407" lon="7.01676">
        <ele>2330.74</ele>
        <time>2018-05-10T07:46:32Z</time>
      </trkpt>
      <trkpt lat="44.24066" lon="7.01677">
        <ele>2331.62</ele>
        <time>2018-05-10T07:47:44Z</time>
      </trkpt>
      <trkpt lat="44.24067" lon="7.01679">
        <ele>2331.41</ele>
        <time>2018-05-10T07:48:58Z</time>
      </trkpt>
      <trkpt lat="44.24067" lon="7.0168">
        <ele>2331.38</ele>
        <time>2018-05-10T07:49:13Z</time>
      </trkpt>
      <trkpt lat="44.24065" lon="7.0168">
        <ele>2331</ele>
        <time>2018-05-10T07:49:34Z</time>
      </trkpt>
      <trkpt lat="44.24055" lon="7.01678">
        <ele>2333.23</ele>
        <time>2018-05-10T07:50:02Z</time>
      </trkpt>
      <trkpt lat="44.2404" lon="7.0167">
        <ele>2335.17</ele>
        <time>2018-05-10T07:50:25Z</time>
      </trkpt>
      <trkpt lat="44.24028" lon="7.01658">
        <ele>2337.42</ele>
        <time>2018-05-10T07:50:47Z</time>
      </trkpt>
      <trkpt lat="44.24022" lon="7.01651">
        <ele>2339.9</ele>
        <time>2018-05-10T07:51:05Z</time>
      </trkpt>
      <trkpt lat="44.2401" lon="7.01647">
        <ele>2342.68</ele>
        <time>2018-05-10T07:51:27Z</time>
      </trkpt>
      <trkpt lat="44.23996" lon="7.0164">
        <ele>2345.56</ele>
        <time>2018-05-10T07:51:51Z</time>
      </trkpt>
      <trkpt lat="44.23986" lon="7.01638">
        <ele>2348.36</ele>
        <time>2018-05-10T07:52:15Z</time>
      </trkpt>
      <trkpt lat="44.23976" lon="7.01641">
        <ele>2351.08</ele>
        <time>2018-05-10T07:52:40Z</time>
      </trkpt>
      <trkpt lat="44.23961" lon="7.0164">
        <ele>2353.88</ele>
        <time>2018-05-10T07:53:03Z</time>
      </trkpt>
      <trkpt lat="44.23947" lon="7.0164">
        <ele>2356.44</ele>
        <time>2018-05-10T07:53:27Z</time>
      </trkpt>
      <trkpt lat="44.23936" lon="7.01647">
        <ele>2359.54</ele>
        <time>2018-05-10T07:53:47Z</time>
      </trkpt>
      <trkpt lat="44.23929" lon="7.01654">
        <ele>2362.03</ele>
        <time>2018-05-10T07:54:06Z</time>
      </trkpt>
      <trkpt lat="44.23924" lon="7.01644">
        <ele>2364.51</ele>
        <time>2018-05-10T07:54:25Z</time>
      </trkpt>
      <trkpt lat="44.23915" lon="7.01639">
        <ele>2367.27</ele>
        <time>2018-05-10T07:54:47Z</time>
      </trkpt>
      <trkpt lat="44.23907" lon="7.01641">
        <ele>2370.22</ele>
        <time>2018-05-10T07:55:08Z</time>
      </trkpt>
      <trkpt lat="44.23897" lon="7.01648">
        <ele>2372.81</ele>
        <time>2018-05-10T07:55:31Z</time>
      </trkpt>
      <trkpt lat="44.23888" lon="7.01651">
        <ele>2375.34</ele>
        <time>2018-05-10T07:55:51Z</time>
      </trkpt>
      <trkpt lat="44.2388" lon="7.01658">
        <ele>2378.09</ele>
        <time>2018-05-10T07:56:11Z</time>
      </trkpt>
      <trkpt lat="44.23873" lon="7.01668">
        <ele>2380.16</ele>
        <time>2018-05-10T07:56:28Z</time>
      </trkpt>
      <trkpt lat="44.2387" lon="7.01681">
        <ele>2382.33</ele>
        <time>2018-05-10T07:56:46Z</time>
      </trkpt>
      <trkpt lat="44.23868" lon="7.01689">
        <ele>2384.03</ele>
        <time>2018-05-10T07:57:00Z</time>
      </trkpt>
      <trkpt lat="44.23862" lon="7.01686">
        <ele>2386.02</ele>
        <time>2018-05-10T07:57:18Z</time>
      </trkpt>
      <trkpt lat="44.23857" lon="7.01682">
        <ele>2388.54</ele>
        <time>2018-05-10T07:57:38Z</time>
      </trkpt>
      <trkpt lat="44.23855" lon="7.01693">
        <ele>2390.9</ele>
        <time>2018-05-10T07:57:56Z</time>
      </trkpt>
      <trkpt lat="44.23847" lon="7.01693">
        <ele>2392.59</ele>
        <time>2018-05-10T07:58:12Z</time>
      </trkpt>
      <trkpt lat="44.23842" lon="7.01689">
        <ele>2395.61</ele>
        <time>2018-05-10T07:58:33Z</time>
      </trkpt>
      <trkpt lat="44.2384" lon="7.01698">
        <ele>2397.16</ele>
        <time>2018-05-10T07:58:50Z</time>
      </trkpt>
      <trkpt lat="44.23838" lon="7.01706">
        <ele>2399.35</ele>
        <time>2018-05-10T07:59:06Z</time>
      </trkpt>
      <trkpt lat="44.2383" lon="7.01699">
        <ele>2401.93</ele>
        <time>2018-05-10T07:59:26Z</time>
      </trkpt>
      <trkpt lat="44.2382" lon="7.01696">
        <ele>2404.84</ele>
        <time>2018-05-10T07:59:47Z</time>
      </trkpt>
      <trkpt lat="44.23813" lon="7.01692">
        <ele>2407.44</ele>
        <time>2018-05-10T08:00:06Z</time>
      </trkpt>
      <trkpt lat="44.23808" lon="7.017">
        <ele>2410.5</ele>
        <time>2018-05-10T08:00:27Z</time>
      </trkpt>
      <trkpt lat="44.23803" lon="7.01708">
        <ele>2413.22</ele>
        <time>2018-05-10T08:00:45Z</time>
      </trkpt>
      <trkpt lat="44.23795" lon="7.01706">
        <ele>2415.53</ele>
        <time>2018-05-10T08:01:05Z</time>
      </trkpt>
      <trkpt lat="44.23788" lon="7.017">
        <ele>2418.1</ele>
        <time>2018-05-10T08:01:25Z</time>
      </trkpt>
      <trkpt lat="44.23783" lon="7.01694">
        <ele>2421.02</ele>
        <time>2018-05-10T08:01:44Z</time>
      </trkpt>
      <trkpt lat="44.2378" lon="7.01694">
        <ele>2423.06</ele>
        <time>2018-05-10T08:02:05Z</time>
      </trkpt>
      <trkpt lat="44.23775" lon="7.01698">
        <ele>2424.79</ele>
        <time>2018-05-10T08:02:24Z</time>
      </trkpt>
      <trkpt lat="44.23771" lon="7.01702">
        <ele>2426.47</ele>
        <time>2018-05-10T08:02:46Z</time>
      </trkpt>
      <trkpt lat="44.23764" lon="7.01705">
        <ele>2428.82</ele>
        <time>2018-05-10T08:03:03Z</time>
      </trkpt>
      <trkpt lat="44.23757" lon="7.01701">
        <ele>2431.84</ele>
        <time>2018-05-10T08:03:23Z</time>
      </trkpt>
      <trkpt lat="44.23747" lon="7.01698">
        <ele>2434.91</ele>
        <time>2018-05-10T08:03:44Z</time>
      </trkpt>
      <trkpt lat="44.23742" lon="7.01708">
        <ele>2437.49</ele>
        <time>2018-05-10T08:04:03Z</time>
      </trkpt>
      <trkpt lat="44.23735" lon="7.01718">
        <ele>2440.5</ele>
        <time>2018-05-10T08:04:22Z</time>
      </trkpt>
      <trkpt lat="44.23729" lon="7.01719">
        <ele>2442.71</ele>
        <time>2018-05-10T08:04:42Z</time>
      </trkpt>
      <trkpt lat="44.23728" lon="7.01719">
        <ele>2442.37</ele>
        <time>2018-05-10T08:05:07Z</time>
      </trkpt>
      <trkpt lat="44.2373" lon="7.0172">
        <ele>2442.4</ele>
        <time>2018-05-10T08:05:35Z</time>
      </trkpt>
      <trkpt lat="44.23729" lon="7.01719">
        <ele>2442.22</ele>
        <time>2018-05-10T08:06:02Z</time>
      </trkpt>
      <trkpt lat="44.2373" lon="7.0172">
        <ele>2441.94</ele>
        <time>2018-05-10T08:06:25Z</time>
      </trkpt>
      <trkpt lat="44.2373" lon="7.01721">
        <ele>2442.06</ele>
        <time>2018-05-10T08:06:52Z</time>
      </trkpt>
      <trkpt lat="44.2373" lon="7.01721">
        <ele>2441.96</ele>
        <time>2018-05-10T08:07:19Z</time>
      </trkpt>
      <trkpt lat="44.2373" lon="7.01721">
        <ele>2442.07</ele>
        <time>2018-05-10T08:07:45Z</time>
      </trkpt>
      <trkpt lat="44.23732" lon="7.01721">
        <ele>2442.09</ele>
        <time>2018-05-10T08:07:53Z</time>
      </trkpt>
      <trkpt lat="44.23729" lon="7.01722">
        <ele>2441.8</ele>
        <time>2018-05-10T08:08:17Z</time>
      </trkpt>
      <trkpt lat="44.2372" lon="7.01719">
        <ele>2444.42</ele>
        <time>2018-05-10T08:08:36Z</time>
      </trkpt>
      <trkpt lat="44.2371" lon="7.01706">
        <ele>2447.43</ele>
        <time>2018-05-10T08:08:58Z</time>
      </trkpt>
      <trkpt lat="44.23705" lon="7.01706">
        <ele>2450.58</ele>
        <time>2018-05-10T08:09:16Z</time>
      </trkpt>
      <trkpt lat="44.23695" lon="7.01713">
        <ele>2453.43</ele>
        <time>2018-05-10T08:09:35Z</time>
      </trkpt>
      <trkpt lat="44.23687" lon="7.01722">
        <ele>2456.28</ele>
        <time>2018-05-10T08:09:54Z</time>
      </trkpt>
      <trkpt lat="44.23683" lon="7.01721">
        <ele>2457.85</ele>
        <time>2018-05-10T08:10:11Z</time>
      </trkpt>
      <trkpt lat="44.23682" lon="7.01719">
        <ele>2458.58</ele>
        <time>2018-05-10T08:10:29Z</time>
      </trkpt>
      <trkpt lat="44.23677" lon="7.01715">
        <ele>2460.44</ele>
        <time>2018-05-10T08:10:48Z</time>
      </trkpt>
      <trkpt lat="44.23672" lon="7.01703">
        <ele>2463.19</ele>
        <time>2018-05-10T08:11:09Z</time>
      </trkpt>
      <trkpt lat="44.23672" lon="7.01696">
        <ele>2465.38</ele>
        <time>2018-05-10T08:11:28Z</time>
      </trkpt>
      <trkpt lat="44.23671" lon="7.01692">
        <ele>2466.82</ele>
        <time>2018-05-10T08:11:42Z</time>
      </trkpt>
      <trkpt lat="44.23667" lon="7.017">
        <ele>2468.42</ele>
        <time>2018-05-10T08:12:02Z</time>
      </trkpt>
      <trkpt lat="44.23656" lon="7.01708">
        <ele>2471.11</ele>
        <time>2018-05-10T08:12:23Z</time>
      </trkpt>
      <trkpt lat="44.23649" lon="7.01703">
        <ele>2473.26</ele>
        <time>2018-05-10T08:12:45Z</time>
      </trkpt>
      <trkpt lat="44.23641" lon="7.01699">
        <ele>2474.68</ele>
        <time>2018-05-10T08:13:00Z</time>
      </trkpt>
      <trkpt lat="44.23629" lon="7.01693">
        <ele>2476.22</ele>
        <time>2018-05-10T08:13:18Z</time>
      </trkpt>
      <trkpt lat="44.23625" lon="7.01685">
        <ele>2477.89</ele>
        <time>2018-05-10T08:13:35Z</time>
      </trkpt>
      <trkpt lat="44.23616" lon="7.01678">
        <ele>2480.47</ele>
        <time>2018-05-10T08:13:53Z</time>
      </trkpt>
      <trkpt lat="44.23605" lon="7.01674">
        <ele>2482.4</ele>
        <time>2018-05-10T08:14:11Z</time>
      </trkpt>
      <trkpt lat="44.23596" lon="7.01671">
        <ele>2483.75</ele>
        <time>2018-05-10T08:14:29Z</time>
      </trkpt>
      <trkpt lat="44.23591" lon="7.01663">
        <ele>2484.64</ele>
        <time>2018-05-10T08:14:49Z</time>
      </trkpt>
      <trkpt lat="44.23583" lon="7.01654">
        <ele>2485.82</ele>
        <time>2018-05-10T08:15:11Z</time>
      </trkpt>
      <trkpt lat="44.23579" lon="7.0165">
        <ele>2485.74</ele>
        <time>2018-05-10T08:15:29Z</time>
      </trkpt>
      <trkpt lat="44.23582" lon="7.01652">
        <ele>2485.96</ele>
        <time>2018-05-10T08:15:50Z</time>
      </trkpt>
      <trkpt lat="44.23582" lon="7.01655">
        <ele>2486.2</ele>
        <time>2018-05-10T08:16:17Z</time>
      </trkpt>
      <trkpt lat="44.23582" lon="7.01654">
        <ele>2486.18</ele>
        <time>2018-05-10T08:16:24Z</time>
      </trkpt>
      <trkpt lat="44.23579" lon="7.01654">
        <ele>2485.82</ele>
        <time>2018-05-10T08:16:54Z</time>
      </trkpt>
      <trkpt lat="44.23568" lon="7.01646">
        <ele>2488.25</ele>
        <time>2018-05-10T08:17:12Z</time>
      </trkpt>
      <trkpt lat="44.23556" lon="7.01642">
        <ele>2491.3</ele>
        <time>2018-05-10T08:17:29Z</time>
      </trkpt>
      <trkpt lat="44.23553" lon="7.01641">
        <ele>2491.79</ele>
        <time>2018-05-10T08:17:32Z</time>
      </trkpt>
      <trkpt lat="44.23542" lon="7.01637">
        <ele>2495.17</ele>
        <time>2018-05-10T08:17:51Z</time>
      </trkpt>
      <trkpt lat="44.2353" lon="7.01634">
        <ele>2498.26</ele>
        <time>2018-05-10T08:18:11Z</time>
      </trkpt>
      <trkpt lat="44.2352" lon="7.01628">
        <ele>2499.91</ele>
        <time>2018-05-10T08:18:27Z</time>
      </trkpt>
      <trkpt lat="44.23513" lon="7.01619">
        <ele>2501.6</ele>
        <time>2018-05-10T08:18:44Z</time>
      </trkpt>
      <trkpt lat="44.23505" lon="7.01611">
        <ele>2502.48</ele>
        <time>2018-05-10T08:18:58Z</time>
      </trkpt>
      <trkpt lat="44.23495" lon="7.01605">
        <ele>2504.26</ele>
        <time>2018-05-10T08:19:18Z</time>
      </trkpt>
      <trkpt lat="44.23483" lon="7.01601">
        <ele>2506.33</ele>
        <time>2018-05-10T08:19:38Z</time>
      </trkpt>
      <trkpt lat="44.23474" lon="7.01601">
        <ele>2508.33</ele>
        <time>2018-05-10T08:19:59Z</time>
      </trkpt>
      <trkpt lat="44.23463" lon="7.01599">
        <ele>2510.49</ele>
        <time>2018-05-10T08:20:19Z</time>
      </trkpt>
      <trkpt lat="44.23455" lon="7.01595">
        <ele>2512.54</ele>
        <time>2018-05-10T08:20:39Z</time>
      </trkpt>
      <trkpt lat="44.23447" lon="7.01593">
        <ele>2514.7</ele>
        <time>2018-05-10T08:20:57Z</time>
      </trkpt>
      <trkpt lat="44.23442" lon="7.01589">
        <ele>2516.31</ele>
        <time>2018-05-10T08:21:17Z</time>
      </trkpt>
      <trkpt lat="44.23438" lon="7.01588">
        <ele>2517.26</ele>
        <time>2018-05-10T08:21:33Z</time>
      </trkpt>
      <trkpt lat="44.23439" lon="7.01587">
        <ele>2517.73</ele>
        <time>2018-05-10T08:21:40Z</time>
      </trkpt>
      <trkpt lat="44.23441" lon="7.01591">
        <ele>2517.52</ele>
        <time>2018-05-10T08:22:07Z</time>
      </trkpt>
      <trkpt lat="44.23441" lon="7.01592">
        <ele>2517.13</ele>
        <time>2018-05-10T08:22:36Z</time>
      </trkpt>
      <trkpt lat="44.2344" lon="7.0159">
        <ele>2516.83</ele>
        <time>2018-05-10T08:22:57Z</time>
      </trkpt>
      <trkpt lat="44.23442" lon="7.01586">
        <ele>2516.66</ele>
        <time>2018-05-10T08:23:24Z</time>
      </trkpt>
      <trkpt lat="44.23441" lon="7.01589">
        <ele>2516.55</ele>
        <time>2018-05-10T08:23:52Z</time>
      </trkpt>
      <trkpt lat="44.23439" lon="7.01586">
        <ele>2516.58</ele>
        <time>2018-05-10T08:24:18Z</time>
      </trkpt>
      <trkpt lat="44.23438" lon="7.01589">
        <ele>2516.72</ele>
        <time>2018-05-10T08:24:49Z</time>
      </trkpt>
      <trkpt lat="44.23441" lon="7.0159">
        <ele>2516.63</ele>
        <time>2018-05-10T08:25:10Z</time>
      </trkpt>
      <trkpt lat="44.2344" lon="7.0159">
        <ele>2516.44</ele>
        <time>2018-05-10T08:25:38Z</time>
      </trkpt>
      <trkpt lat="44.2344" lon="7.01591">
        <ele>2516.36</ele>
        <time>2018-05-10T08:26:06Z</time>
      </trkpt>
      <trkpt lat="44.23441" lon="7.01592">
        <ele>2516.28</ele>
        <time>2018-05-10T08:26:35Z</time>
      </trkpt>
      <trkpt lat="44.23441" lon="7.01594">
        <ele>2516.77</ele>
        <time>2018-05-10T08:26:41Z</time>
      </trkpt>
      <trkpt lat="44.2344" lon="7.01595">
        <ele>2517.03</ele>
        <time>2018-05-10T08:26:44Z</time>
      </trkpt>
      <trkpt lat="44.23442" lon="7.01591">
        <ele>2516.1</ele>
        <time>2018-05-10T08:27:04Z</time>
      </trkpt>
      <trkpt lat="44.23443" lon="7.01592">
        <ele>2516.08</ele>
        <time>2018-05-10T08:27:30Z</time>
      </trkpt>
      <trkpt lat="44.23441" lon="7.01591">
        <ele>2515.99</ele>
        <time>2018-05-10T08:28:03Z</time>
      </trkpt>
      <trkpt lat="44.23444" lon="7.0159">
        <ele>2515.9</ele>
        <time>2018-05-10T08:28:15Z</time>
      </trkpt>
      <trkpt lat="44.2344" lon="7.016">
        <ele>2515.97</ele>
        <time>2018-05-10T08:28:18Z</time>
      </trkpt>
      <trkpt lat="44.23442" lon="7.01605">
        <ele>2515.99</ele>
        <time>2018-05-10T08:28:27Z</time>
      </trkpt>
      <trkpt lat="44.23445" lon="7.01589">
        <ele>2515.5</ele>
        <time>2018-05-10T08:28:59Z</time>
      </trkpt>
      <trkpt lat="44.23447" lon="7.01592">
        <ele>2515.68</ele>
        <time>2018-05-10T08:29:29Z</time>
      </trkpt>
      <trkpt lat="44.23444" lon="7.01593">
        <ele>2515.9</ele>
        <time>2018-05-10T08:29:48Z</time>
      </trkpt>
      <trkpt lat="44.23444" lon="7.01595">
        <ele>2515.91</ele>
        <time>2018-05-10T08:30:12Z</time>
      </trkpt>
      <trkpt lat="44.23443" lon="7.01595">
        <ele>2515.12</ele>
        <time>2018-05-10T08:30:30Z</time>
      </trkpt>
      <trkpt lat="44.23443" lon="7.01589">
        <ele>2515.2</ele>
        <time>2018-05-10T08:30:54Z</time>
      </trkpt>
      <trkpt lat="44.2344" lon="7.0159">
        <ele>2515.2</ele>
        <time>2018-05-10T08:31:16Z</time>
      </trkpt>
      <trkpt lat="44.23439" lon="7.01589">
        <ele>2516.36</ele>
        <time>2018-05-10T08:31:33Z</time>
      </trkpt>
      <trkpt lat="44.23438" lon="7.0159">
        <ele>2517.22</ele>
        <time>2018-05-10T08:31:57Z</time>
      </trkpt>
      <trkpt lat="44.23437" lon="7.01591">
        <ele>2516.98</ele>
        <time>2018-05-10T08:32:20Z</time>
      </trkpt>
      <trkpt lat="44.23437" lon="7.01588">
        <ele>2517.44</ele>
        <time>2018-05-10T08:32:42Z</time>
      </trkpt>
      <trkpt lat="44.23434" lon="7.01588">
        <ele>2518.84</ele>
        <time>2018-05-10T08:33:01Z</time>
      </trkpt>
      <trkpt lat="44.23435" lon="7.01587">
        <ele>2518.81</ele>
        <time>2018-05-10T08:33:22Z</time>
      </trkpt>
      <trkpt lat="44.23432" lon="7.01584">
        <ele>2519.4</ele>
        <time>2018-05-10T08:33:47Z</time>
      </trkpt>
      <trkpt lat="44.23428" lon="7.01582">
        <ele>2521.79</ele>
        <time>2018-05-10T08:34:05Z</time>
      </trkpt>
      <trkpt lat="44.23428" lon="7.01587">
        <ele>2522</ele>
        <time>2018-05-10T08:34:30Z</time>
      </trkpt>
      <trkpt lat="44.23423" lon="7.01587">
        <ele>2522.63</ele>
        <time>2018-05-10T08:34:55Z</time>
      </trkpt>
      <trkpt lat="44.23421" lon="7.01588">
        <ele>2523.49</ele>
        <time>2018-05-10T08:35:18Z</time>
      </trkpt>
      <trkpt lat="44.23423" lon="7.01587">
        <ele>2523.08</ele>
        <time>2018-05-10T08:35:37Z</time>
      </trkpt>
      <trkpt lat="44.23422" lon="7.01588">
        <ele>2522.55</ele>
        <time>2018-05-10T08:35:58Z</time>
      </trkpt>
      <trkpt lat="44.23423" lon="7.01585">
        <ele>2522.88</ele>
        <time>2018-05-10T08:36:23Z</time>
      </trkpt>
      <trkpt lat="44.23422" lon="7.01586">
        <ele>2522.82</ele>
        <time>2018-05-10T08:36:46Z</time>
      </trkpt>
      <trkpt lat="44.23419" lon="7.01588">
        <ele>2523.65</ele>
        <time>2018-05-10T08:37:07Z</time>
      </trkpt>
      <trkpt lat="44.23415" lon="7.01589">
        <ele>2526.34</ele>
        <time>2018-05-10T08:37:24Z</time>
      </trkpt>
      <trkpt lat="44.23416" lon="7.01578">
        <ele>2527.95</ele>
        <time>2018-05-10T08:37:42Z</time>
      </trkpt>
      <trkpt lat="44.23417" lon="7.01578">
        <ele>2529.24</ele>
        <time>2018-05-10T08:37:58Z</time>
      </trkpt>
      <trkpt lat="44.23407" lon="7.01582">
        <ele>2531.89</ele>
        <time>2018-05-10T08:38:16Z</time>
      </trkpt>
      <trkpt lat="44.23407" lon="7.01576">
        <ele>2532.86</ele>
        <time>2018-05-10T08:38:33Z</time>
      </trkpt>
      <trkpt lat="44.23408" lon="7.01568">
        <ele>2535.09</ele>
        <time>2018-05-10T08:38:52Z</time>
      </trkpt>
      <trkpt lat="44.23403" lon="7.01571">
        <ele>2536.75</ele>
        <time>2018-05-10T08:39:11Z</time>
      </trkpt>
      <trkpt lat="44.23401" lon="7.01571">
        <ele>2538</ele>
        <time>2018-05-10T08:39:31Z</time>
      </trkpt>
      <trkpt lat="44.23403" lon="7.01566">
        <ele>2538.18</ele>
        <time>2018-05-10T08:39:56Z</time>
      </trkpt>
      <trkpt lat="44.23403" lon="7.01562">
        <ele>2539.54</ele>
        <time>2018-05-10T08:40:21Z</time>
      </trkpt>
      <trkpt lat="44.23403" lon="7.0155">
        <ele>2542.5</ele>
        <time>2018-05-10T08:40:39Z</time>
      </trkpt>
      <trkpt lat="44.23405" lon="7.01544">
        <ele>2544.41</ele>
        <time>2018-05-10T08:40:55Z</time>
      </trkpt>
      <trkpt lat="44.23404" lon="7.01545">
        <ele>2544.34</ele>
        <time>2018-05-10T08:41:23Z</time>
      </trkpt>
      <trkpt lat="44.23404" lon="7.01543">
        <ele>2544.63</ele>
        <time>2018-05-10T08:41:51Z</time>
      </trkpt>
      <trkpt lat="44.23404" lon="7.0154">
        <ele>2544.96</ele>
        <time>2018-05-10T08:42:18Z</time>
      </trkpt>
      <trkpt lat="44.23403" lon="7.01541">
        <ele>2544.96</ele>
        <time>2018-05-10T08:42:44Z</time>
      </trkpt>
      <trkpt lat="44.23406" lon="7.01538">
        <ele>2546.81</ele>
        <time>2018-05-10T08:43:04Z</time>
      </trkpt>
      <trkpt lat="44.23407" lon="7.01541">
        <ele>2547.46</ele>
        <time>2018-05-10T08:43:25Z</time>
      </trkpt>
      <trkpt lat="44.234" lon="7.01544">
        <ele>2548.71</ele>
        <time>2018-05-10T08:43:44Z</time>
      </trkpt>
      <trkpt lat="44.23402" lon="7.01542">
        <ele>2549.19</ele>
        <time>2018-05-10T08:44:04Z</time>
      </trkpt>
      <trkpt lat="44.234" lon="7.0154">
        <ele>2549.24</ele>
        <time>2018-05-10T08:44:33Z</time>
      </trkpt>
      <trkpt lat="44.23401" lon="7.01542">
        <ele>2548.76</ele>
        <time>2018-05-10T08:45:00Z</time>
      </trkpt>
      <trkpt lat="44.23401" lon="7.01534">
        <ele>2550.26</ele>
        <time>2018-05-10T08:45:24Z</time>
      </trkpt>
      <trkpt lat="44.23404" lon="7.0153">
        <ele>2553.08</ele>
        <time>2018-05-10T08:45:43Z</time>
      </trkpt>
      <trkpt lat="44.23402" lon="7.0153">
        <ele>2553.09</ele>
        <time>2018-05-10T08:46:04Z</time>
      </trkpt>
      <trkpt lat="44.23399" lon="7.01531">
        <ele>2552.99</ele>
        <time>2018-05-10T08:46:14Z</time>
      </trkpt>
      <trkpt lat="44.23401" lon="7.01535">
        <ele>2554.01</ele>
        <time>2018-05-10T08:46:40Z</time>
      </trkpt>
      <trkpt lat="44.23403" lon="7.01539">
        <ele>2553.19</ele>
        <time>2018-05-10T08:47:07Z</time>
      </trkpt>
      <trkpt lat="44.23398" lon="7.0154">
        <ele>2554.82</ele>
        <time>2018-05-10T08:47:23Z</time>
      </trkpt>
      <trkpt lat="44.23397" lon="7.01541">
        <ele>2556.4</ele>
        <time>2018-05-10T08:47:40Z</time>
      </trkpt>
      <trkpt lat="44.23397" lon="7.01539">
        <ele>2556.41</ele>
        <time>2018-05-10T08:48:06Z</time>
      </trkpt>
      <trkpt lat="44.23394" lon="7.01543">
        <ele>2556.67</ele>
        <time>2018-05-10T08:48:32Z</time>
      </trkpt>
      <trkpt lat="44.23389" lon="7.01544">
        <ele>2558.36</ele>
        <time>2018-05-10T08:48:54Z</time>
      </trkpt>
      <trkpt lat="44.23385" lon="7.01544">
        <ele>2559.52</ele>
        <time>2018-05-10T08:49:13Z</time>
      </trkpt>
      <trkpt lat="44.23386" lon="7.01531">
        <ele>2561.45</ele>
        <time>2018-05-10T08:49:32Z</time>
      </trkpt>
      <trkpt lat="44.23391" lon="7.01526">
        <ele>2563.54</ele>
        <time>2018-05-10T08:49:51Z</time>
      </trkpt>
      <trkpt lat="44.2339" lon="7.01527">
        <ele>2564.79</ele>
        <time>2018-05-10T08:50:12Z</time>
      </trkpt>
      <trkpt lat="44.23392" lon="7.01529">
        <ele>2563.99</ele>
        <time>2018-05-10T08:50:36Z</time>
      </trkpt>
      <trkpt lat="44.23384" lon="7.01531">
        <ele>2565.31</ele>
        <time>2018-05-10T08:50:56Z</time>
      </trkpt>
      <trkpt lat="44.23375" lon="7.01538">
        <ele>2568.4</ele>
        <time>2018-05-10T08:51:13Z</time>
      </trkpt>
      <trkpt lat="44.23371" lon="7.01542">
        <ele>2570.33</ele>
        <time>2018-05-10T08:51:25Z</time>
      </trkpt>
      <trkpt lat="44.23372" lon="7.01539">
        <ele>2570.33</ele>
        <time>2018-05-10T08:51:43Z</time>
      </trkpt>
      <trkpt lat="44.23372" lon="7.01539">
        <ele>2570.48</ele>
        <time>2018-05-10T08:52:10Z</time>
      </trkpt>
      <trkpt lat="44.23372" lon="7.01537">
        <ele>2570.04</ele>
        <time>2018-05-10T08:52:37Z</time>
      </trkpt>
      <trkpt lat="44.23374" lon="7.01533">
        <ele>2571.59</ele>
        <time>2018-05-10T08:52:55Z</time>
      </trkpt>
      <trkpt lat="44.23376" lon="7.01528">
        <ele>2573</ele>
        <time>2018-05-10T08:53:13Z</time>
      </trkpt>
      <trkpt lat="44.23378" lon="7.01524">
        <ele>2574.02</ele>
        <time>2018-05-10T08:53:34Z</time>
      </trkpt>
      <trkpt lat="44.23378" lon="7.01517">
        <ele>2576.01</ele>
        <time>2018-05-10T08:53:52Z</time>
      </trkpt>
      <trkpt lat="44.23379" lon="7.01516">
        <ele>2576.61</ele>
        <time>2018-05-10T08:54:13Z</time>
      </trkpt>
      <trkpt lat="44.23379" lon="7.01511">
        <ele>2577.6</ele>
        <time>2018-05-10T08:54:35Z</time>
      </trkpt>
      <trkpt lat="44.23381" lon="7.01509">
        <ele>2578.31</ele>
        <time>2018-05-10T08:54:53Z</time>
      </trkpt>
      <trkpt lat="44.23382" lon="7.01508">
        <ele>2578.87</ele>
        <time>2018-05-10T08:55:14Z</time>
      </trkpt>
      <trkpt lat="44.23383" lon="7.01504">
        <ele>2580.04</ele>
        <time>2018-05-10T08:55:31Z</time>
      </trkpt>
      <trkpt lat="44.23384" lon="7.015">
        <ele>2581.33</ele>
        <time>2018-05-10T08:55:48Z</time>
      </trkpt>
      <trkpt lat="44.23385" lon="7.01498">
        <ele>2581.85</ele>
        <time>2018-05-10T08:56:07Z</time>
      </trkpt>
      <trkpt lat="44.23381" lon="7.01498">
        <ele>2581.58</ele>
        <time>2018-05-10T08:56:54Z</time>
      </trkpt>
      <trkpt lat="44.23383" lon="7.015">
        <ele>2581.69</ele>
        <time>2018-05-10T08:58:08Z</time>
      </trkpt>
      <trkpt lat="44.23384" lon="7.01499">
        <ele>2582.82</ele>
        <time>2018-05-10T08:58:32Z</time>
      </trkpt>
      <trkpt lat="44.23383" lon="7.01498">
        <ele>2582.64</ele>
        <time>2018-05-10T08:59:02Z</time>
      </trkpt>
      <trkpt lat="44.23381" lon="7.01498">
        <ele>2583.3</ele>
        <time>2018-05-10T08:59:25Z</time>
      </trkpt>
      <trkpt lat="44.2338" lon="7.015">
        <ele>2584.05</ele>
        <time>2018-05-10T08:59:40Z</time>
      </trkpt>
      <trkpt lat="44.23381" lon="7.015">
        <ele>2585.52</ele>
        <time>2018-05-10T08:59:57Z</time>
      </trkpt>
      <trkpt lat="44.23381" lon="7.01502">
        <ele>2585.53</ele>
        <time>2018-05-10T09:00:29Z</time>
      </trkpt>
      <trkpt lat="44.23381" lon="7.01502">
        <ele>2585.13</ele>
        <time>2018-05-10T09:01:23Z</time>
      </trkpt>
      <trkpt lat="44.23373" lon="7.01503">
        <ele>2587.83</ele>
        <time>2018-05-10T09:02:09Z</time>
      </trkpt>
      <trkpt lat="44.23373" lon="7.01499">
        <ele>2588.86</ele>
        <time>2018-05-10T09:02:47Z</time>
      </trkpt>
      <trkpt lat="44.23371" lon="7.015">
        <ele>2590.47</ele>
        <time>2018-05-10T09:03:04Z</time>
      </trkpt>
      <trkpt lat="44.23369" lon="7.01501">
        <ele>2590.44</ele>
        <time>2018-05-10T09:03:29Z</time>
      </trkpt>
      <trkpt lat="44.23369" lon="7.01495">
        <ele>2591.44</ele>
        <time>2018-05-10T09:03:49Z</time>
      </trkpt>
      <trkpt lat="44.23371" lon="7.01489">
        <ele>2592.92</ele>
        <time>2018-05-10T09:04:06Z</time>
      </trkpt>
      <trkpt lat="44.23373" lon="7.01488">
        <ele>2593.14</ele>
        <time>2018-05-10T09:04:34Z</time>
      </trkpt>
      <trkpt lat="44.23375" lon="7.01482">
        <ele>2594.42</ele>
        <time>2018-05-10T09:04:55Z</time>
      </trkpt>
      <trkpt lat="44.23372" lon="7.01485">
        <ele>2595.88</ele>
        <time>2018-05-10T09:05:14Z</time>
      </trkpt>
      <trkpt lat="44.23365" lon="7.01485">
        <ele>2598.11</ele>
        <time>2018-05-10T09:05:28Z</time>
      </trkpt>
      <trkpt lat="44.23362" lon="7.01487">
        <ele>2599.64</ele>
        <time>2018-05-10T09:05:49Z</time>
      </trkpt>
      <trkpt lat="44.2336" lon="7.01487">
        <ele>2599.96</ele>
        <time>2018-05-10T09:06:17Z</time>
      </trkpt>
      <trkpt lat="44.23361" lon="7.01487">
        <ele>2599.78</ele>
        <time>2018-05-10T09:06:43Z</time>
      </trkpt>
      <trkpt lat="44.2336" lon="7.01488">
        <ele>2600.36</ele>
        <time>2018-05-10T09:07:14Z</time>
      </trkpt>
      <trkpt lat="44.23357" lon="7.01488">
        <ele>2601.09</ele>
        <time>2018-05-10T09:07:41Z</time>
      </trkpt>
      <trkpt lat="44.23352" lon="7.01489">
        <ele>2604.03</ele>
        <time>2018-05-10T09:07:59Z</time>
      </trkpt>
      <trkpt lat="44.23352" lon="7.01487">
        <ele>2603.95</ele>
        <time>2018-05-10T09:08:21Z</time>
      </trkpt>
      <trkpt lat="44.23355" lon="7.01482">
        <ele>2604.98</ele>
        <time>2018-05-10T09:08:41Z</time>
      </trkpt>
      <trkpt lat="44.23353" lon="7.01483">
        <ele>2604.71</ele>
        <time>2018-05-10T09:09:07Z</time>
      </trkpt>
      <trkpt lat="44.23356" lon="7.01474">
        <ele>2605.65</ele>
        <time>2018-05-10T09:09:39Z</time>
      </trkpt>
      <trkpt lat="44.2336" lon="7.01468">
        <ele>2608.38</ele>
        <time>2018-05-10T09:09:56Z</time>
      </trkpt>
      <trkpt lat="44.23356" lon="7.01471">
        <ele>2609.14</ele>
        <time>2018-05-10T09:10:13Z</time>
      </trkpt>
      <trkpt lat="44.23352" lon="7.0147">
        <ele>2611.23</ele>
        <time>2018-05-10T09:10:26Z</time>
      </trkpt>
      <trkpt lat="44.23352" lon="7.01473">
        <ele>2611.29</ele>
        <time>2018-05-10T09:10:57Z</time>
      </trkpt>
      <trkpt lat="44.23349" lon="7.01475">
        <ele>2611.93</ele>
        <time>2018-05-10T09:11:09Z</time>
      </trkpt>
      <trkpt lat="44.23348" lon="7.01472">
        <ele>2612.32</ele>
        <time>2018-05-10T09:11:42Z</time>
      </trkpt>
      <trkpt lat="44.23343" lon="7.01473">
        <ele>2613.39</ele>
        <time>2018-05-10T09:12:04Z</time>
      </trkpt>
      <trkpt lat="44.23336" lon="7.01475">
        <ele>2615.78</ele>
        <time>2018-05-10T09:12:16Z</time>
      </trkpt>
      <trkpt lat="44.2333" lon="7.01478">
        <ele>2617.98</ele>
        <time>2018-05-10T09:12:27Z</time>
      </trkpt>
      <trkpt lat="44.23323" lon="7.01483">
        <ele>2620.78</ele>
        <time>2018-05-10T09:12:44Z</time>
      </trkpt>
      <trkpt lat="44.23323" lon="7.01476">
        <ele>2621.93</ele>
        <time>2018-05-10T09:13:02Z</time>
      </trkpt>
      <trkpt lat="44.23324" lon="7.01467">
        <ele>2624.83</ele>
        <time>2018-05-10T09:13:16Z</time>
      </trkpt>
      <trkpt lat="44.23326" lon="7.01462">
        <ele>2626.45</ele>
        <time>2018-05-10T09:13:35Z</time>
      </trkpt>
      <trkpt lat="44.23326" lon="7.01457">
        <ele>2628.44</ele>
        <time>2018-05-10T09:13:55Z</time>
      </trkpt>
      <trkpt lat="44.23327" lon="7.0145">
        <ele>2630.32</ele>
        <time>2018-05-10T09:14:13Z</time>
      </trkpt>
      <trkpt lat="44.23326" lon="7.0145">
        <ele>2632.5</ele>
        <time>2018-05-10T09:14:31Z</time>
      </trkpt>
      <trkpt lat="44.2332" lon="7.01454">
        <ele>2633.04</ele>
        <time>2018-05-10T09:14:46Z</time>
      </trkpt>
      <trkpt lat="44.23321" lon="7.01453">
        <ele>2632.74</ele>
        <time>2018-05-10T09:15:05Z</time>
      </trkpt>
      <trkpt lat="44.23319" lon="7.01454">
        <ele>2632.17</ele>
        <time>2018-05-10T09:15:29Z</time>
      </trkpt>
      <trkpt lat="44.23316" lon="7.01464">
        <ele>2633.48</ele>
        <time>2018-05-10T09:15:48Z</time>
      </trkpt>
      <trkpt lat="44.23311" lon="7.01469">
        <ele>2633.6</ele>
        <time>2018-05-10T09:16:10Z</time>
      </trkpt>
      <trkpt lat="44.23311" lon="7.01469">
        <ele>2633</ele>
        <time>2018-05-10T09:16:33Z</time>
      </trkpt>
      <trkpt lat="44.23312" lon="7.01468">
        <ele>2634.4</ele>
        <time>2018-05-10T09:16:58Z</time>
      </trkpt>
      <trkpt lat="44.23313" lon="7.01468">
        <ele>2633.4</ele>
        <time>2018-05-10T09:17:29Z</time>
      </trkpt>
      <trkpt lat="44.23312" lon="7.01468">
        <ele>2633.02</ele>
        <time>2018-05-10T09:18:11Z</time>
      </trkpt>
      <trkpt lat="44.23311" lon="7.01469">
        <ele>2632.99</ele>
        <time>2018-05-10T09:19:01Z</time>
      </trkpt>
      <trkpt lat="44.23311" lon="7.01469">
        <ele>2632.43</ele>
        <time>2018-05-10T09:19:57Z</time>
      </trkpt>
      <trkpt lat="44.23311" lon="7.01468">
        <ele>2632.22</ele>
        <time>2018-05-10T09:20:57Z</time>
      </trkpt>
      <trkpt lat="44.23311" lon="7.01468">
        <ele>2632.88</ele>
        <time>2018-05-10T09:21:38Z</time>
      </trkpt>
      <trkpt lat="44.23304" lon="7.0148">
        <ele>2633.84</ele>
        <time>2018-05-10T09:22:26Z</time>
      </trkpt>
      <trkpt lat="44.23295" lon="7.0149">
        <ele>2635.39</ele>
        <time>2018-05-10T09:22:45Z</time>
      </trkpt>
      <trkpt lat="44.23286" lon="7.01499">
        <ele>2637.22</ele>
        <time>2018-05-10T09:23:06Z</time>
      </trkpt>
      <trkpt lat="44.23281" lon="7.01512">
        <ele>2639.37</ele>
        <time>2018-05-10T09:23:26Z</time>
      </trkpt>
      <trkpt lat="44.23276" lon="7.0152">
        <ele>2640.56</ele>
        <time>2018-05-10T09:23:42Z</time>
      </trkpt>
      <trkpt lat="44.23272" lon="7.01526">
        <ele>2641.81</ele>
        <time>2018-05-10T09:23:59Z</time>
      </trkpt>
      <trkpt lat="44.2327" lon="7.01536">
        <ele>2643.34</ele>
        <time>2018-05-10T09:24:18Z</time>
      </trkpt>
      <trkpt lat="44.23271" lon="7.01547">
        <ele>2645.92</ele>
        <time>2018-05-10T09:24:37Z</time>
      </trkpt>
      <trkpt lat="44.23271" lon="7.01555">
        <ele>2647.91</ele>
        <time>2018-05-10T09:24:53Z</time>
      </trkpt>
      <trkpt lat="44.23265" lon="7.01563">
        <ele>2650.02</ele>
        <time>2018-05-10T09:25:11Z</time>
      </trkpt>
      <trkpt lat="44.23259" lon="7.0157">
        <ele>2651.9</ele>
        <time>2018-05-10T09:25:31Z</time>
      </trkpt>
      <trkpt lat="44.23257" lon="7.01572">
        <ele>2652.96</ele>
        <time>2018-05-10T09:25:45Z</time>
      </trkpt>
      <trkpt lat="44.23259" lon="7.01573">
        <ele>2654.45</ele>
        <time>2018-05-10T09:26:02Z</time>
      </trkpt>
      <trkpt lat="44.2326" lon="7.01574">
        <ele>2654.36</ele>
        <time>2018-05-10T09:26:21Z</time>
      </trkpt>
      <trkpt lat="44.23263" lon="7.01582">
        <ele>2656.43</ele>
        <time>2018-05-10T09:26:35Z</time>
      </trkpt>
      <trkpt lat="44.23256" lon="7.01586">
        <ele>2658.94</ele>
        <time>2018-05-10T09:26:51Z</time>
      </trkpt>
      <trkpt lat="44.2325" lon="7.01593">
        <ele>2661.29</ele>
        <time>2018-05-10T09:27:13Z</time>
      </trkpt>
      <trkpt lat="44.23247" lon="7.01597">
        <ele>2662.76</ele>
        <time>2018-05-10T09:27:29Z</time>
      </trkpt>
      <trkpt lat="44.23244" lon="7.01599">
        <ele>2664.06</ele>
        <time>2018-05-10T09:27:43Z</time>
      </trkpt>
      <trkpt lat="44.23244" lon="7.016">
        <ele>2664.39</ele>
        <time>2018-05-10T09:28:05Z</time>
      </trkpt>
      <trkpt lat="44.23247" lon="7.01603">
        <ele>2666.53</ele>
        <time>2018-05-10T09:28:25Z</time>
      </trkpt>
      <trkpt lat="44.23249" lon="7.01605">
        <ele>2667.36</ele>
        <time>2018-05-10T09:28:43Z</time>
      </trkpt>
      <trkpt lat="44.23245" lon="7.0161">
        <ele>2668.87</ele>
        <time>2018-05-10T09:28:59Z</time>
      </trkpt>
      <trkpt lat="44.23243" lon="7.01612">
        <ele>2669.82</ele>
        <time>2018-05-10T09:29:21Z</time>
      </trkpt>
      <trkpt lat="44.23244" lon="7.01613">
        <ele>2670.28</ele>
        <time>2018-05-10T09:29:36Z</time>
      </trkpt>
      <trkpt lat="44.23249" lon="7.01615">
        <ele>2671.69</ele>
        <time>2018-05-10T09:30:03Z</time>
      </trkpt>
      <trkpt lat="44.23248" lon="7.01617">
        <ele>2672.09</ele>
        <time>2018-05-10T09:30:19Z</time>
      </trkpt>
      <trkpt lat="44.23246" lon="7.01616">
        <ele>2672.89</ele>
        <time>2018-05-10T09:30:43Z</time>
      </trkpt>
      <trkpt lat="44.23245" lon="7.0162">
        <ele>2673.77</ele>
        <time>2018-05-10T09:31:07Z</time>
      </trkpt>
      <trkpt lat="44.23242" lon="7.01621">
        <ele>2674.73</ele>
        <time>2018-05-10T09:31:26Z</time>
      </trkpt>
      <trkpt lat="44.23243" lon="7.0162">
        <ele>2675.61</ele>
        <time>2018-05-10T09:31:40Z</time>
      </trkpt>
      <trkpt lat="44.23245" lon="7.01624">
        <ele>2676.15</ele>
        <time>2018-05-10T09:31:51Z</time>
      </trkpt>
      <trkpt lat="44.23243" lon="7.01628">
        <ele>2676.74</ele>
        <time>2018-05-10T09:32:08Z</time>
      </trkpt>
      <trkpt lat="44.23243" lon="7.01627">
        <ele>2676.17</ele>
        <time>2018-05-10T09:32:37Z</time>
      </trkpt>
      <trkpt lat="44.23244" lon="7.01627">
        <ele>2676.92</ele>
        <time>2018-05-10T09:33:08Z</time>
      </trkpt>
      <trkpt lat="44.23242" lon="7.01627">
        <ele>2676.44</ele>
        <time>2018-05-10T09:34:12Z</time>
      </trkpt>
      <trkpt lat="44.23243" lon="7.01629">
        <ele>2676.46</ele>
        <time>2018-05-10T09:34:52Z</time>
      </trkpt>
      <trkpt lat="44.23243" lon="7.0163">
        <ele>2676.82</ele>
        <time>2018-05-10T09:35:17Z</time>
      </trkpt>
      <trkpt lat="44.2324" lon="7.0164">
        <ele>2678.45</ele>
        <time>2018-05-10T09:35:33Z</time>
      </trkpt>
      <trkpt lat="44.23239" lon="7.01649">
        <ele>2680.35</ele>
        <time>2018-05-10T09:35:48Z</time>
      </trkpt>
      <trkpt lat="44.23236" lon="7.01658">
        <ele>2681.45</ele>
        <time>2018-05-10T09:36:02Z</time>
      </trkpt>
      <trkpt lat="44.23232" lon="7.01666">
        <ele>2683.08</ele>
        <time>2018-05-10T09:36:17Z</time>
      </trkpt>
      <trkpt lat="44.23233" lon="7.01668">
        <ele>2683.8</ele>
        <time>2018-05-10T09:36:31Z</time>
      </trkpt>
      <trkpt lat="44.23232" lon="7.01686">
        <ele>2684.12</ele>
        <time>2018-05-10T09:36:51Z</time>
      </trkpt>
      <trkpt lat="44.23231" lon="7.01701">
        <ele>2684.85</ele>
        <time>2018-05-10T09:37:05Z</time>
      </trkpt>
      <trkpt lat="44.23229" lon="7.01715">
        <ele>2684.63</ele>
        <time>2018-05-10T09:37:16Z</time>
      </trkpt>
      <trkpt lat="44.23225" lon="7.01729">
        <ele>2686.25</ele>
        <time>2018-05-10T09:37:34Z</time>
      </trkpt>
      <trkpt lat="44.23222" lon="7.01744">
        <ele>2688.07</ele>
        <time>2018-05-10T09:37:53Z</time>
      </trkpt>
      <trkpt lat="44.23223" lon="7.01759">
        <ele>2689.52</ele>
        <time>2018-05-10T09:38:12Z</time>
      </trkpt>
      <trkpt lat="44.23222" lon="7.01772">
        <ele>2691.9</ele>
        <time>2018-05-10T09:38:30Z</time>
      </trkpt>
      <trkpt lat="44.23219" lon="7.01786">
        <ele>2691.85</ele>
        <time>2018-05-10T09:38:47Z</time>
      </trkpt>
      <trkpt lat="44.23218" lon="7.01795">
        <ele>2692.79</ele>
        <time>2018-05-10T09:39:09Z</time>
      </trkpt>
      <trkpt lat="44.23217" lon="7.01806">
        <ele>2694.83</ele>
        <time>2018-05-10T09:39:30Z</time>
      </trkpt>
      <trkpt lat="44.23221" lon="7.01818">
        <ele>2697.63</ele>
        <time>2018-05-10T09:39:52Z</time>
      </trkpt>
      <trkpt lat="44.23223" lon="7.0183">
        <ele>2699.52</ele>
        <time>2018-05-10T09:40:12Z</time>
      </trkpt>
      <trkpt lat="44.23225" lon="7.01836">
        <ele>2701.32</ele>
        <time>2018-05-10T09:40:26Z</time>
      </trkpt>
      <trkpt lat="44.2323" lon="7.01843">
        <ele>2703.57</ele>
        <time>2018-05-10T09:40:43Z</time>
      </trkpt>
      <trkpt lat="44.23232" lon="7.01848">
        <ele>2705.28</ele>
        <time>2018-05-10T09:41:02Z</time>
      </trkpt>
      <trkpt lat="44.23233" lon="7.01856">
        <ele>2706.53</ele>
        <time>2018-05-10T09:41:24Z</time>
      </trkpt>
      <trkpt lat="44.23235" lon="7.01867">
        <ele>2708.88</ele>
        <time>2018-05-10T09:41:41Z</time>
      </trkpt>
      <trkpt lat="44.23238" lon="7.01873">
        <ele>2710.81</ele>
        <time>2018-05-10T09:41:58Z</time>
      </trkpt>
      <trkpt lat="44.23239" lon="7.01879">
        <ele>2713.24</ele>
        <time>2018-05-10T09:42:14Z</time>
      </trkpt>
      <trkpt lat="44.23242" lon="7.01886">
        <ele>2715.33</ele>
        <time>2018-05-10T09:42:29Z</time>
      </trkpt>
      <trkpt lat="44.23242" lon="7.01893">
        <ele>2717.14</ele>
        <time>2018-05-10T09:42:44Z</time>
      </trkpt>
      <trkpt lat="44.23242" lon="7.01901">
        <ele>2718.62</ele>
        <time>2018-05-10T09:42:59Z</time>
      </trkpt>
      <trkpt lat="44.2324" lon="7.01909">
        <ele>2720.82</ele>
        <time>2018-05-10T09:43:16Z</time>
      </trkpt>
      <trkpt lat="44.23236" lon="7.01914">
        <ele>2722.68</ele>
        <time>2018-05-10T09:43:32Z</time>
      </trkpt>
      <trkpt lat="44.2324" lon="7.01928">
        <ele>2724.72</ele>
        <time>2018-05-10T09:43:49Z</time>
      </trkpt>
      <trkpt lat="44.23238" lon="7.01939">
        <ele>2725.71</ele>
        <time>2018-05-10T09:44:05Z</time>
      </trkpt>
      <trkpt lat="44.2324" lon="7.01938">
        <ele>2725.69</ele>
        <time>2018-05-10T09:44:32Z</time>
      </trkpt>
      <trkpt lat="44.2324" lon="7.01938">
        <ele>2725.32</ele>
        <time>2018-05-10T09:44:53Z</time>
      </trkpt>
      <trkpt lat="44.2324" lon="7.01939">
        <ele>2724.94</ele>
        <time>2018-05-10T09:45:20Z</time>
      </trkpt>
      <trkpt lat="44.2324" lon="7.01938">
        <ele>2725.19</ele>
        <time>2018-05-10T09:45:44Z</time>
      </trkpt>
      <trkpt lat="44.2324" lon="7.01939">
        <ele>2724.66</ele>
        <time>2018-05-10T09:46:11Z</time>
      </trkpt>
      <trkpt lat="44.23241" lon="7.01939">
        <ele>2724.81</ele>
        <time>2018-05-10T09:46:36Z</time>
      </trkpt>
      <trkpt lat="44.2324" lon="7.01936">
        <ele>2724.82</ele>
        <time>2018-05-10T09:46:59Z</time>
      </trkpt>
      <trkpt lat="44.2324" lon="7.01936">
        <ele>2725.38</ele>
        <time>2018-05-10T09:47:24Z</time>
      </trkpt>
      <trkpt lat="44.2324" lon="7.01934">
        <ele>2725.51</ele>
        <time>2018-05-10T09:47:49Z</time>
      </trkpt>
      <trkpt lat="44.23239" lon="7.01934">
        <ele>2725.3</ele>
        <time>2018-05-10T09:48:15Z</time>
      </trkpt>
      <trkpt lat="44.2324" lon="7.01937">
        <ele>2725.03</ele>
        <time>2018-05-10T09:48:39Z</time>
      </trkpt>
      <trkpt lat="44.2324" lon="7.01937">
        <ele>2725.21</ele>
        <time>2018-05-10T09:49:01Z</time>
      </trkpt>
      <trkpt lat="44.23241" lon="7.01936">
        <ele>2725.51</ele>
        <time>2018-05-10T09:49:24Z</time>
      </trkpt>
      <trkpt lat="44.2324" lon="7.01936">
        <ele>2724.58</ele>
        <time>2018-05-10T09:49:46Z</time>
      </trkpt>
      <trkpt lat="44.2324" lon="7.01934">
        <ele>2725.36</ele>
        <time>2018-05-10T09:50:02Z</time>
      </trkpt>
      <trkpt lat="44.23239" lon="7.01935">
        <ele>2724.47</ele>
        <time>2018-05-10T09:50:26Z</time>
      </trkpt>
      <trkpt lat="44.23239" lon="7.01936">
        <ele>2725.28</ele>
        <time>2018-05-10T09:50:56Z</time>
      </trkpt>
      <trkpt lat="44.2324" lon="7.01936">
        <ele>2725.29</ele>
        <time>2018-05-10T09:51:26Z</time>
      </trkpt>
      <trkpt lat="44.23241" lon="7.01936">
        <ele>2724.24</ele>
        <time>2018-05-10T09:52:08Z</time>
      </trkpt>
      <trkpt lat="44.23239" lon="7.01935">
        <ele>2724.29</ele>
        <time>2018-05-10T09:53:21Z</time>
      </trkpt>
      <trkpt lat="44.2324" lon="7.01935">
        <ele>2724.72</ele>
        <time>2018-05-10T09:54:19Z</time>
      </trkpt>
      <trkpt lat="44.2324" lon="7.01935">
        <ele>2724.21</ele>
        <time>2018-05-10T09:54:56Z</time>
      </trkpt>
      <trkpt lat="44.23239" lon="7.01935">
        <ele>2724.15</ele>
        <time>2018-05-10T09:55:21Z</time>
      </trkpt>
      <trkpt lat="44.23241" lon="7.01935">
        <ele>2724.02</ele>
        <time>2018-05-10T09:56:19Z</time>
      </trkpt>
      <trkpt lat="44.2324" lon="7.01936">
        <ele>2723.56</ele>
        <time>2018-05-10T09:56:54Z</time>
      </trkpt>
      <trkpt lat="44.2324" lon="7.01935">
        <ele>2724.15</ele>
        <time>2018-05-10T09:57:20Z</time>
      </trkpt>
      <trkpt lat="44.2324" lon="7.01935">
        <ele>2724.06</ele>
        <time>2018-05-10T09:57:52Z</time>
      </trkpt>
      <trkpt lat="44.2324" lon="7.01935">
        <ele>2724.02</ele>
        <time>2018-05-10T09:58:28Z</time>
      </trkpt>
      <trkpt lat="44.2324" lon="7.01934">
        <ele>2723.7</ele>
        <time>2018-05-10T09:59:20Z</time>
      </trkpt>
      <trkpt lat="44.2324" lon="7.01935">
        <ele>2724.1</ele>
        <time>2018-05-10T10:00:28Z</time>
      </trkpt>
      <trkpt lat="44.23239" lon="7.01936">
        <ele>2724.04</ele>
        <time>2018-05-10T10:01:39Z</time>
      </trkpt>
      <trkpt lat="44.23242" lon="7.01935">
        <ele>2724.01</ele>
        <time>2018-05-10T10:02:58Z</time>
      </trkpt>
      <trkpt lat="44.2324" lon="7.01937">
        <ele>2723.96</ele>
        <time>2018-05-10T10:03:26Z</time>
      </trkpt>
      <trkpt lat="44.23241" lon="7.01937">
        <ele>2723.55</ele>
        <time>2018-05-10T10:03:51Z</time>
      </trkpt>
      <trkpt lat="44.23239" lon="7.01935">
        <ele>2724.08</ele>
        <time>2018-05-10T10:04:19Z</time>
      </trkpt>
      <trkpt lat="44.23239" lon="7.01935">
        <ele>2723.64</ele>
        <time>2018-05-10T10:04:36Z</time>
      </trkpt>
      <trkpt lat="44.2324" lon="7.01935">
        <ele>2722.95</ele>
        <time>2018-05-10T10:04:57Z</time>
      </trkpt>
      <trkpt lat="44.2324" lon="7.01936">
        <ele>2723.01</ele>
        <time>2018-05-10T10:05:22Z</time>
      </trkpt>
      <trkpt lat="44.2324" lon="7.01936">
        <ele>2722.64</ele>
        <time>2018-05-10T10:05:50Z</time>
      </trkpt>
      <trkpt lat="44.23239" lon="7.01936">
        <ele>2723.34</ele>
        <time>2018-05-10T10:06:19Z</time>
      </trkpt>
      <trkpt lat="44.23238" lon="7.0194">
        <ele>2723.34</ele>
        <time>2018-05-10T10:06:52Z</time>
      </trkpt>
      <trkpt lat="44.23226" lon="7.01952">
        <ele>2720</ele>
        <time>2018-05-10T10:07:00Z</time>
      </trkpt>
      <trkpt lat="44.2323" lon="7.01958">
        <ele>2717.81</ele>
        <time>2018-05-10T10:07:02Z</time>
      </trkpt>
      <trkpt lat="44.23237" lon="7.01965">
        <ele>2715.47</ele>
        <time>2018-05-10T10:07:05Z</time>
      </trkpt>
      <trkpt lat="44.23238" lon="7.01972">
        <ele>2713.01</ele>
        <time>2018-05-10T10:07:13Z</time>
      </trkpt>
      <trkpt lat="44.23241" lon="7.0199">
        <ele>2709.35</ele>
        <time>2018-05-10T10:07:18Z</time>
      </trkpt>
      <trkpt lat="44.23239" lon="7.01992">
        <ele>2706.1</ele>
        <time>2018-05-10T10:07:20Z</time>
      </trkpt>
      <trkpt lat="44.23238" lon="7.01993">
        <ele>2704.3</ele>
        <time>2018-05-10T10:07:23Z</time>
      </trkpt>
      <trkpt lat="44.23237" lon="7.01993">
        <ele>2703.91</ele>
        <time>2018-05-10T10:07:33Z</time>
      </trkpt>
      <trkpt lat="44.23225" lon="7.02009">
        <ele>2700.72</ele>
        <time>2018-05-10T10:07:38Z</time>
      </trkpt>
      <trkpt lat="44.2322" lon="7.02019">
        <ele>2697.14</ele>
        <time>2018-05-10T10:07:40Z</time>
      </trkpt>
      <trkpt lat="44.23217" lon="7.02033">
        <ele>2692.92</ele>
        <time>2018-05-10T10:07:42Z</time>
      </trkpt>
      <trkpt lat="44.23213" lon="7.02043">
        <ele>2688.36</ele>
        <time>2018-05-10T10:07:44Z</time>
      </trkpt>
      <trkpt lat="44.23216" lon="7.02053">
        <ele>2684.34</ele>
        <time>2018-05-10T10:07:46Z</time>
      </trkpt>
      <trkpt lat="44.23222" lon="7.02059">
        <ele>2680.93</ele>
        <time>2018-05-10T10:07:48Z</time>
      </trkpt>
      <trkpt lat="44.23231" lon="7.02065">
        <ele>2676.23</ele>
        <time>2018-05-10T10:07:52Z</time>
      </trkpt>
      <trkpt lat="44.23232" lon="7.02064">
        <ele>2675.47</ele>
        <time>2018-05-10T10:07:54Z</time>
      </trkpt>
      <trkpt lat="44.23235" lon="7.02059">
        <ele>2674.84</ele>
        <time>2018-05-10T10:08:21Z</time>
      </trkpt>
      <trkpt lat="44.23238" lon="7.02056">
        <ele>2674.99</ele>
        <time>2018-05-10T10:08:48Z</time>
      </trkpt>
      <trkpt lat="44.23238" lon="7.02054">
        <ele>2674.85</ele>
        <time>2018-05-10T10:09:53Z</time>
      </trkpt>
      <trkpt lat="44.23239" lon="7.02055">
        <ele>2675.48</ele>
        <time>2018-05-10T10:10:07Z</time>
      </trkpt>
      <trkpt lat="44.23248" lon="7.02068">
        <ele>2673.79</ele>
        <time>2018-05-10T10:10:11Z</time>
      </trkpt>
      <trkpt lat="44.23255" lon="7.02075">
        <ele>2672.25</ele>
        <time>2018-05-10T10:10:13Z</time>
      </trkpt>
      <trkpt lat="44.23265" lon="7.02092">
        <ele>2668.59</ele>
        <time>2018-05-10T10:10:16Z</time>
      </trkpt>
      <trkpt lat="44.23275" lon="7.02113">
        <ele>2663.39</ele>
        <time>2018-05-10T10:10:19Z</time>
      </trkpt>
      <trkpt lat="44.23283" lon="7.02144">
        <ele>2658.35</ele>
        <time>2018-05-10T10:10:23Z</time>
      </trkpt>
      <trkpt lat="44.23283" lon="7.02151">
        <ele>2657.85</ele>
        <time>2018-05-10T10:10:24Z</time>
      </trkpt>
      <trkpt lat="44.23284" lon="7.02192">
        <ele>2653.8</ele>
        <time>2018-05-10T10:10:30Z</time>
      </trkpt>
      <trkpt lat="44.23285" lon="7.02213">
        <ele>2650.84</ele>
        <time>2018-05-10T10:10:33Z</time>
      </trkpt>
      <trkpt lat="44.2328" lon="7.02237">
        <ele>2646.24</ele>
        <time>2018-05-10T10:10:36Z</time>
      </trkpt>
      <trkpt lat="44.23279" lon="7.02253">
        <ele>2641.83</ele>
        <time>2018-05-10T10:10:38Z</time>
      </trkpt>
      <trkpt lat="44.23277" lon="7.02269">
        <ele>2637.73</ele>
        <time>2018-05-10T10:10:40Z</time>
      </trkpt>
      <trkpt lat="44.23274" lon="7.02286">
        <ele>2633.94</ele>
        <time>2018-05-10T10:10:42Z</time>
      </trkpt>
      <trkpt lat="44.23269" lon="7.02303">
        <ele>2629.86</ele>
        <time>2018-05-10T10:10:44Z</time>
      </trkpt>
      <trkpt lat="44.2326" lon="7.02316">
        <ele>2625.62</ele>
        <time>2018-05-10T10:10:46Z</time>
      </trkpt>
      <trkpt lat="44.23251" lon="7.02327">
        <ele>2620.81</ele>
        <time>2018-05-10T10:10:48Z</time>
      </trkpt>
      <trkpt lat="44.23247" lon="7.02332">
        <ele>2618.71</ele>
        <time>2018-05-10T10:10:49Z</time>
      </trkpt>
      <trkpt lat="44.2323" lon="7.02348">
        <ele>2611.44</ele>
        <time>2018-05-10T10:10:53Z</time>
      </trkpt>
      <trkpt lat="44.2322" lon="7.0235">
        <ele>2607.44</ele>
        <time>2018-05-10T10:10:56Z</time>
      </trkpt>
      <trkpt lat="44.23217" lon="7.02353">
        <ele>2604.18</ele>
        <time>2018-05-10T10:10:59Z</time>
      </trkpt>
      <trkpt lat="44.23218" lon="7.02353">
        <ele>2603.47</ele>
        <time>2018-05-10T10:11:01Z</time>
      </trkpt>
      <trkpt lat="44.23217" lon="7.02351">
        <ele>2603.55</ele>
        <time>2018-05-10T10:11:15Z</time>
      </trkpt>
      <trkpt lat="44.23217" lon="7.02349">
        <ele>2603.36</ele>
        <time>2018-05-10T10:11:33Z</time>
      </trkpt>
      <trkpt lat="44.23219" lon="7.0235">
        <ele>2603.44</ele>
        <time>2018-05-10T10:12:09Z</time>
      </trkpt>
      <trkpt lat="44.23218" lon="7.02351">
        <ele>2603.24</ele>
        <time>2018-05-10T10:12:23Z</time>
      </trkpt>
      <trkpt lat="44.23209" lon="7.02384">
        <ele>2600.22</ele>
        <time>2018-05-10T10:12:33Z</time>
      </trkpt>
      <trkpt lat="44.23204" lon="7.02408">
        <ele>2596</ele>
        <time>2018-05-10T10:12:37Z</time>
      </trkpt>
      <trkpt lat="44.23199" lon="7.02427">
        <ele>2592.85</ele>
        <time>2018-05-10T10:12:39Z</time>
      </trkpt>
      <trkpt lat="44.23195" lon="7.02444">
        <ele>2589.03</ele>
        <time>2018-05-10T10:12:42Z</time>
      </trkpt>
      <trkpt lat="44.23192" lon="7.0246">
        <ele>2587.05</ele>
        <time>2018-05-10T10:12:46Z</time>
      </trkpt>
      <trkpt lat="44.2318" lon="7.02484">
        <ele>2581.97</ele>
        <time>2018-05-10T10:12:50Z</time>
      </trkpt>
      <trkpt lat="44.23173" lon="7.02497">
        <ele>2578</ele>
        <time>2018-05-10T10:12:52Z</time>
      </trkpt>
      <trkpt lat="44.23171" lon="7.02503">
        <ele>2576.59</ele>
        <time>2018-05-10T10:12:53Z</time>
      </trkpt>
      <trkpt lat="44.23166" lon="7.02536">
        <ele>2571.25</ele>
        <time>2018-05-10T10:12:58Z</time>
      </trkpt>
      <trkpt lat="44.2316" lon="7.02558">
        <ele>2567.28</ele>
        <time>2018-05-10T10:13:01Z</time>
      </trkpt>
      <trkpt lat="44.23156" lon="7.02564">
        <ele>2565.73</ele>
        <time>2018-05-10T10:13:02Z</time>
      </trkpt>
      <trkpt lat="44.23143" lon="7.02593">
        <ele>2560.41</ele>
        <time>2018-05-10T10:13:07Z</time>
      </trkpt>
      <trkpt lat="44.2314" lon="7.02602">
        <ele>2559.23</ele>
        <time>2018-05-10T10:13:09Z</time>
      </trkpt>
      <trkpt lat="44.23137" lon="7.02605">
        <ele>2558.04</ele>
        <time>2018-05-10T10:13:21Z</time>
      </trkpt>
      <trkpt lat="44.23138" lon="7.02602">
        <ele>2558.11</ele>
        <time>2018-05-10T10:13:49Z</time>
      </trkpt>
      <trkpt lat="44.23138" lon="7.02602">
        <ele>2558.21</ele>
        <time>2018-05-10T10:14:13Z</time>
      </trkpt>
      <trkpt lat="44.23136" lon="7.02605">
        <ele>2558.16</ele>
        <time>2018-05-10T10:14:17Z</time>
      </trkpt>
      <trkpt lat="44.23123" lon="7.02635">
        <ele>2555.59</ele>
        <time>2018-05-10T10:14:26Z</time>
      </trkpt>
      <trkpt lat="44.23119" lon="7.02666">
        <ele>2551.15</ele>
        <time>2018-05-10T10:14:31Z</time>
      </trkpt>
      <trkpt lat="44.23114" lon="7.02677">
        <ele>2548.28</ele>
        <time>2018-05-10T10:14:33Z</time>
      </trkpt>
      <trkpt lat="44.23108" lon="7.0269">
        <ele>2545.81</ele>
        <time>2018-05-10T10:14:36Z</time>
      </trkpt>
      <trkpt lat="44.23116" lon="7.02725">
        <ele>2541.04</ele>
        <time>2018-05-10T10:14:42Z</time>
      </trkpt>
      <trkpt lat="44.23113" lon="7.02737">
        <ele>2538.09</ele>
        <time>2018-05-10T10:14:46Z</time>
      </trkpt>
      <trkpt lat="44.23112" lon="7.02735">
        <ele>2537.75</ele>
        <time>2018-05-10T10:15:06Z</time>
      </trkpt>
      <trkpt lat="44.23112" lon="7.02735">
        <ele>2537.74</ele>
        <time>2018-05-10T10:15:30Z</time>
      </trkpt>
      <trkpt lat="44.23113" lon="7.02737">
        <ele>2537.95</ele>
        <time>2018-05-10T10:15:36Z</time>
      </trkpt>
      <trkpt lat="44.23113" lon="7.02742">
        <ele>2536.55</ele>
        <time>2018-05-10T10:15:51Z</time>
      </trkpt>
      <trkpt lat="44.23113" lon="7.02743">
        <ele>2536.6</ele>
        <time>2018-05-10T10:16:10Z</time>
      </trkpt>
      <trkpt lat="44.23113" lon="7.02764">
        <ele>2534.95</ele>
        <time>2018-05-10T10:16:15Z</time>
      </trkpt>
      <trkpt lat="44.2312" lon="7.02784">
        <ele>2530.46</ele>
        <time>2018-05-10T10:16:19Z</time>
      </trkpt>
      <trkpt lat="44.23123" lon="7.0279">
        <ele>2529.13</ele>
        <time>2018-05-10T10:16:20Z</time>
      </trkpt>
      <trkpt lat="44.23145" lon="7.02802">
        <ele>2520.85</ele>
        <time>2018-05-10T10:16:24Z</time>
      </trkpt>
      <trkpt lat="44.23154" lon="7.02804">
        <ele>2517.63</ele>
        <time>2018-05-10T10:16:25Z</time>
      </trkpt>
      <trkpt lat="44.23162" lon="7.02808">
        <ele>2514.61</ele>
        <time>2018-05-10T10:16:26Z</time>
      </trkpt>
      <trkpt lat="44.2317" lon="7.02814">
        <ele>2509.74</ele>
        <time>2018-05-10T10:16:27Z</time>
      </trkpt>
      <trkpt lat="44.23176" lon="7.02822">
        <ele>2505.93</ele>
        <time>2018-05-10T10:16:28Z</time>
      </trkpt>
      <trkpt lat="44.23186" lon="7.02833">
        <ele>2502.24</ele>
        <time>2018-05-10T10:16:30Z</time>
      </trkpt>
      <trkpt lat="44.23192" lon="7.02835">
        <ele>2500.91</ele>
        <time>2018-05-10T10:16:31Z</time>
      </trkpt>
      <trkpt lat="44.23222" lon="7.02844">
        <ele>2493.07</ele>
        <time>2018-05-10T10:16:35Z</time>
      </trkpt>
      <trkpt lat="44.23237" lon="7.0285">
        <ele>2488.81</ele>
        <time>2018-05-10T10:16:37Z</time>
      </trkpt>
      <trkpt lat="44.23252" lon="7.02856">
        <ele>2485.61</ele>
        <time>2018-05-10T10:16:39Z</time>
      </trkpt>
      <trkpt lat="44.23272" lon="7.02862">
        <ele>2481.64</ele>
        <time>2018-05-10T10:16:42Z</time>
      </trkpt>
      <trkpt lat="44.23293" lon="7.02868">
        <ele>2478.6</ele>
        <time>2018-05-10T10:16:47Z</time>
      </trkpt>
      <trkpt lat="44.23316" lon="7.02875">
        <ele>2476.38</ele>
        <time>2018-05-10T10:17:00Z</time>
      </trkpt>
      <trkpt lat="44.23336" lon="7.0288">
        <ele>2474.64</ele>
        <time>2018-05-10T10:17:11Z</time>
      </trkpt>
      <trkpt lat="44.23359" lon="7.02873">
        <ele>2471.31</ele>
        <time>2018-05-10T10:17:18Z</time>
      </trkpt>
      <trkpt lat="44.23381" lon="7.02867">
        <ele>2468.42</ele>
        <time>2018-05-10T10:17:27Z</time>
      </trkpt>
      <trkpt lat="44.23401" lon="7.02851">
        <ele>2465.24</ele>
        <time>2018-05-10T10:17:36Z</time>
      </trkpt>
      <trkpt lat="44.23417" lon="7.02825">
        <ele>2463.51</ele>
        <time>2018-05-10T10:17:46Z</time>
      </trkpt>
      <trkpt lat="44.23419" lon="7.02822">
        <ele>2462.95</ele>
        <time>2018-05-10T10:17:49Z</time>
      </trkpt>
      <trkpt lat="44.2342" lon="7.02821">
        <ele>2463.09</ele>
        <time>2018-05-10T10:18:04Z</time>
      </trkpt>
      <trkpt lat="44.23421" lon="7.02821">
        <ele>2462.79</ele>
        <time>2018-05-10T10:18:28Z</time>
      </trkpt>
      <trkpt lat="44.2342" lon="7.02821">
        <ele>2462.73</ele>
        <time>2018-05-10T10:18:56Z</time>
      </trkpt>
      <trkpt lat="44.23421" lon="7.02819">
        <ele>2462.11</ele>
        <time>2018-05-10T10:19:08Z</time>
      </trkpt>
      <trkpt lat="44.2342" lon="7.02819">
        <ele>2463.49</ele>
        <time>2018-05-10T10:19:36Z</time>
      </trkpt>
      <trkpt lat="44.23422" lon="7.02818">
        <ele>2463.37</ele>
        <time>2018-05-10T10:20:04Z</time>
      </trkpt>
      <trkpt lat="44.23424" lon="7.02815">
        <ele>2463.34</ele>
        <time>2018-05-10T10:20:21Z</time>
      </trkpt>
      <trkpt lat="44.23448" lon="7.02804">
        <ele>2460.98</ele>
        <time>2018-05-10T10:20:33Z</time>
      </trkpt>
      <trkpt lat="44.2347" lon="7.02794">
        <ele>2457.09</ele>
        <time>2018-05-10T10:20:38Z</time>
      </trkpt>
      <trkpt lat="44.23489" lon="7.02786">
        <ele>2452.62</ele>
        <time>2018-05-10T10:20:41Z</time>
      </trkpt>
      <trkpt lat="44.23503" lon="7.02784">
        <ele>2448.59</ele>
        <time>2018-05-10T10:20:43Z</time>
      </trkpt>
      <trkpt lat="44.23518" lon="7.02785">
        <ele>2444.68</ele>
        <time>2018-05-10T10:20:45Z</time>
      </trkpt>
      <trkpt lat="44.23535" lon="7.0279">
        <ele>2440.99</ele>
        <time>2018-05-10T10:20:48Z</time>
      </trkpt>
      <trkpt lat="44.2355" lon="7.02787">
        <ele>2438.19</ele>
        <time>2018-05-10T10:20:51Z</time>
      </trkpt>
      <trkpt lat="44.23581" lon="7.02763">
        <ele>2434.17</ele>
        <time>2018-05-10T10:21:00Z</time>
      </trkpt>
      <trkpt lat="44.23588" lon="7.02755">
        <ele>2433.26</ele>
        <time>2018-05-10T10:21:03Z</time>
      </trkpt>
      <trkpt lat="44.23594" lon="7.02753">
        <ele>2430.72</ele>
        <time>2018-05-10T10:21:12Z</time>
      </trkpt>
      <trkpt lat="44.23594" lon="7.02754">
        <ele>2431.05</ele>
        <time>2018-05-10T10:21:35Z</time>
      </trkpt>
      <trkpt lat="44.23593" lon="7.02754">
        <ele>2430.53</ele>
        <time>2018-05-10T10:22:03Z</time>
      </trkpt>
      <trkpt lat="44.23594" lon="7.02754">
        <ele>2430.6</ele>
        <time>2018-05-10T10:23:33Z</time>
      </trkpt>
      <trkpt lat="44.23593" lon="7.02754">
        <ele>2430.77</ele>
        <time>2018-05-10T10:25:16Z</time>
      </trkpt>
      <trkpt lat="44.23594" lon="7.02753">
        <ele>2430.44</ele>
        <time>2018-05-10T10:25:31Z</time>
      </trkpt>
      <trkpt lat="44.23605" lon="7.02746">
        <ele>2429.22</ele>
        <time>2018-05-10T10:25:35Z</time>
      </trkpt>
      <trkpt lat="44.23617" lon="7.02726">
        <ele>2426.02</ele>
        <time>2018-05-10T10:25:39Z</time>
      </trkpt>
      <trkpt lat="44.2363" lon="7.02719">
        <ele>2424</ele>
        <time>2018-05-10T10:25:42Z</time>
      </trkpt>
      <trkpt lat="44.23644" lon="7.02717">
        <ele>2419.75</ele>
        <time>2018-05-10T10:25:44Z</time>
      </trkpt>
      <trkpt lat="44.23661" lon="7.02718">
        <ele>2414.04</ele>
        <time>2018-05-10T10:25:46Z</time>
      </trkpt>
      <trkpt lat="44.23678" lon="7.02715">
        <ele>2409.12</ele>
        <time>2018-05-10T10:25:48Z</time>
      </trkpt>
      <trkpt lat="44.23691" lon="7.02705">
        <ele>2405.83</ele>
        <time>2018-05-10T10:25:50Z</time>
      </trkpt>
      <trkpt lat="44.23701" lon="7.02696">
        <ele>2403.57</ele>
        <time>2018-05-10T10:25:52Z</time>
      </trkpt>
      <trkpt lat="44.2372" lon="7.02677">
        <ele>2399.77</ele>
        <time>2018-05-10T10:25:57Z</time>
      </trkpt>
      <trkpt lat="44.23734" lon="7.0266">
        <ele>2396.75</ele>
        <time>2018-05-10T10:26:01Z</time>
      </trkpt>
      <trkpt lat="44.2374" lon="7.02651">
        <ele>2394.98</ele>
        <time>2018-05-10T10:26:03Z</time>
      </trkpt>
      <trkpt lat="44.2376" lon="7.02627">
        <ele>2391.09</ele>
        <time>2018-05-10T10:26:08Z</time>
      </trkpt>
      <trkpt lat="44.23766" lon="7.0262">
        <ele>2390.12</ele>
        <time>2018-05-10T10:26:10Z</time>
      </trkpt>
      <trkpt lat="44.23794" lon="7.02582">
        <ele>2386.88</ele>
        <time>2018-05-10T10:26:23Z</time>
      </trkpt>
      <trkpt lat="44.23796" lon="7.02579">
        <ele>2386.48</ele>
        <time>2018-05-10T10:26:24Z</time>
      </trkpt>
      <trkpt lat="44.23813" lon="7.0257">
        <ele>2382.32</ele>
        <time>2018-05-10T10:26:30Z</time>
      </trkpt>
      <trkpt lat="44.23816" lon="7.02568">
        <ele>2381.16</ele>
        <time>2018-05-10T10:26:47Z</time>
      </trkpt>
      <trkpt lat="44.23817" lon="7.02569">
        <ele>2381.16</ele>
        <time>2018-05-10T10:27:19Z</time>
      </trkpt>
      <trkpt lat="44.23814" lon="7.0257">
        <ele>2381.12</ele>
        <time>2018-05-10T10:27:49Z</time>
      </trkpt>
      <trkpt lat="44.23813" lon="7.02571">
        <ele>2381.01</ele>
        <time>2018-05-10T10:28:16Z</time>
      </trkpt>
      <trkpt lat="44.23818" lon="7.02569">
        <ele>2380.63</ele>
        <time>2018-05-10T10:28:37Z</time>
      </trkpt>
      <trkpt lat="44.23813" lon="7.02572">
        <ele>2380.88</ele>
        <time>2018-05-10T10:29:06Z</time>
      </trkpt>
      <trkpt lat="44.23815" lon="7.0257">
        <ele>2380.99</ele>
        <time>2018-05-10T10:29:25Z</time>
      </trkpt>
      <trkpt lat="44.23817" lon="7.02549">
        <ele>2378.34</ele>
        <time>2018-05-10T10:29:29Z</time>
      </trkpt>
      <trkpt lat="44.23823" lon="7.02521">
        <ele>2374.61</ele>
        <time>2018-05-10T10:29:33Z</time>
      </trkpt>
      <trkpt lat="44.23825" lon="7.02514">
        <ele>2373.14</ele>
        <time>2018-05-10T10:29:34Z</time>
      </trkpt>
      <trkpt lat="44.23835" lon="7.02499">
        <ele>2369.37</ele>
        <time>2018-05-10T10:29:36Z</time>
      </trkpt>
      <trkpt lat="44.23857" lon="7.02485">
        <ele>2363.22</ele>
        <time>2018-05-10T10:29:39Z</time>
      </trkpt>
      <trkpt lat="44.23873" lon="7.02487">
        <ele>2356.79</ele>
        <time>2018-05-10T10:29:41Z</time>
      </trkpt>
      <trkpt lat="44.23883" lon="7.02485">
        <ele>2353.03</ele>
        <time>2018-05-10T10:29:42Z</time>
      </trkpt>
      <trkpt lat="44.23895" lon="7.02484">
        <ele>2347.98</ele>
        <time>2018-05-10T10:29:43Z</time>
      </trkpt>
      <trkpt lat="44.23908" lon="7.02483">
        <ele>2343.07</ele>
        <time>2018-05-10T10:29:44Z</time>
      </trkpt>
      <trkpt lat="44.23921" lon="7.02481">
        <ele>2338.06</ele>
        <time>2018-05-10T10:29:45Z</time>
      </trkpt>
      <trkpt lat="44.23933" lon="7.02483">
        <ele>2332.87</ele>
        <time>2018-05-10T10:29:46Z</time>
      </trkpt>
      <trkpt lat="44.23944" lon="7.02482">
        <ele>2329.58</ele>
        <time>2018-05-10T10:29:47Z</time>
      </trkpt>
      <trkpt lat="44.23962" lon="7.02486">
        <ele>2325.7</ele>
        <time>2018-05-10T10:29:49Z</time>
      </trkpt>
      <trkpt lat="44.23981" lon="7.02498">
        <ele>2323.64</ele>
        <time>2018-05-10T10:29:52Z</time>
      </trkpt>
      <trkpt lat="44.24014" lon="7.02506">
        <ele>2321.55</ele>
        <time>2018-05-10T10:30:03Z</time>
      </trkpt>
      <trkpt lat="44.24027" lon="7.02505">
        <ele>2320.28</ele>
        <time>2018-05-10T10:30:17Z</time>
      </trkpt>
      <trkpt lat="44.2403" lon="7.02502">
        <ele>2320.12</ele>
        <time>2018-05-10T10:30:23Z</time>
      </trkpt>
      <trkpt lat="44.24045" lon="7.02492">
        <ele>2318.92</ele>
        <time>2018-05-10T10:30:37Z</time>
      </trkpt>
      <trkpt lat="44.24048" lon="7.02492">
        <ele>2318.84</ele>
        <time>2018-05-10T10:31:02Z</time>
      </trkpt>
      <trkpt lat="44.24049" lon="7.02492">
        <ele>2318.86</ele>
        <time>2018-05-10T10:31:31Z</time>
      </trkpt>
      <trkpt lat="44.24051" lon="7.02492">
        <ele>2318.85</ele>
        <time>2018-05-10T10:31:52Z</time>
      </trkpt>
      <trkpt lat="44.24052" lon="7.02489">
        <ele>2318.8</ele>
        <time>2018-05-10T10:31:57Z</time>
      </trkpt>
      <trkpt lat="44.24064" lon="7.02457">
        <ele>2316.02</ele>
        <time>2018-05-10T10:32:11Z</time>
      </trkpt>
      <trkpt lat="44.24067" lon="7.02452">
        <ele>2314.63</ele>
        <time>2018-05-10T10:32:23Z</time>
      </trkpt>
      <trkpt lat="44.24068" lon="7.02452">
        <ele>2314.8</ele>
        <time>2018-05-10T10:32:53Z</time>
      </trkpt>
      <trkpt lat="44.24069" lon="7.02451">
        <ele>2314.67</ele>
        <time>2018-05-10T10:32:59Z</time>
      </trkpt>
      <trkpt lat="44.24083" lon="7.02453">
        <ele>2310.4</ele>
        <time>2018-05-10T10:33:03Z</time>
      </trkpt>
      <trkpt lat="44.24098" lon="7.02457">
        <ele>2304.57</ele>
        <time>2018-05-10T10:33:05Z</time>
      </trkpt>
      <trkpt lat="44.24105" lon="7.02458">
        <ele>2300.81</ele>
        <time>2018-05-10T10:33:06Z</time>
      </trkpt>
      <trkpt lat="44.24112" lon="7.02459">
        <ele>2297.13</ele>
        <time>2018-05-10T10:33:07Z</time>
      </trkpt>
      <trkpt lat="44.24119" lon="7.02463">
        <ele>2292.91</ele>
        <time>2018-05-10T10:33:08Z</time>
      </trkpt>
      <trkpt lat="44.24126" lon="7.02463">
        <ele>2288.34</ele>
        <time>2018-05-10T10:33:09Z</time>
      </trkpt>
      <trkpt lat="44.24138" lon="7.0246">
        <ele>2283</ele>
        <time>2018-05-10T10:33:10Z</time>
      </trkpt>
      <trkpt lat="44.24149" lon="7.02459">
        <ele>2276.88</ele>
        <time>2018-05-10T10:33:11Z</time>
      </trkpt>
      <trkpt lat="44.24157" lon="7.0246">
        <ele>2270.15</ele>
        <time>2018-05-10T10:33:12Z</time>
      </trkpt>
      <trkpt lat="44.24168" lon="7.02458">
        <ele>2265.06</ele>
        <time>2018-05-10T10:33:13Z</time>
      </trkpt>
      <trkpt lat="44.24177" lon="7.02454">
        <ele>2261.45</ele>
        <time>2018-05-10T10:33:14Z</time>
      </trkpt>
      <trkpt lat="44.24181" lon="7.02445">
        <ele>2258.2</ele>
        <time>2018-05-10T10:33:15Z</time>
      </trkpt>
      <trkpt lat="44.24193" lon="7.02441">
        <ele>2253.74</ele>
        <time>2018-05-10T10:33:17Z</time>
      </trkpt>
      <trkpt lat="44.24208" lon="7.02436">
        <ele>2249.93</ele>
        <time>2018-05-10T10:33:20Z</time>
      </trkpt>
      <trkpt lat="44.24212" lon="7.02434">
        <ele>2248.55</ele>
        <time>2018-05-10T10:33:21Z</time>
      </trkpt>
      <trkpt lat="44.24219" lon="7.02431">
        <ele>2245.08</ele>
        <time>2018-05-10T10:33:25Z</time>
      </trkpt>
      <trkpt lat="44.24223" lon="7.02436">
        <ele>2244.88</ele>
        <time>2018-05-10T10:33:51Z</time>
      </trkpt>
      <trkpt lat="44.2422" lon="7.02437">
        <ele>2244.96</ele>
        <time>2018-05-10T10:34:22Z</time>
      </trkpt>
      <trkpt lat="44.24222" lon="7.02436">
        <ele>2245.01</ele>
        <time>2018-05-10T10:34:24Z</time>
      </trkpt>
      <trkpt lat="44.24248" lon="7.02424">
        <ele>2240.91</ele>
        <time>2018-05-10T10:34:30Z</time>
      </trkpt>
      <trkpt lat="44.24262" lon="7.02422">
        <ele>2236.07</ele>
        <time>2018-05-10T10:34:33Z</time>
      </trkpt>
      <trkpt lat="44.24271" lon="7.02419">
        <ele>2232.44</ele>
        <time>2018-05-10T10:34:35Z</time>
      </trkpt>
      <trkpt lat="44.24293" lon="7.02405">
        <ele>2225.68</ele>
        <time>2018-05-10T10:34:39Z</time>
      </trkpt>
      <trkpt lat="44.24316" lon="7.02382">
        <ele>2220</ele>
        <time>2018-05-10T10:34:43Z</time>
      </trkpt>
      <trkpt lat="44.24337" lon="7.02369">
        <ele>2214.15</ele>
        <time>2018-05-10T10:34:46Z</time>
      </trkpt>
      <trkpt lat="44.24351" lon="7.02362">
        <ele>2210.89</ele>
        <time>2018-05-10T10:34:48Z</time>
      </trkpt>
      <trkpt lat="44.24374" lon="7.02359">
        <ele>2206.96</ele>
        <time>2018-05-10T10:34:51Z</time>
      </trkpt>
      <trkpt lat="44.24384" lon="7.02354">
        <ele>2205.21</ele>
        <time>2018-05-10T10:34:53Z</time>
      </trkpt>
      <trkpt lat="44.24401" lon="7.0234">
        <ele>2200.96</ele>
        <time>2018-05-10T10:34:57Z</time>
      </trkpt>
      <trkpt lat="44.24414" lon="7.02328">
        <ele>2197.94</ele>
        <time>2018-05-10T10:35:00Z</time>
      </trkpt>
      <trkpt lat="44.24432" lon="7.02314">
        <ele>2194.09</ele>
        <time>2018-05-10T10:35:04Z</time>
      </trkpt>
      <trkpt lat="44.24447" lon="7.02301">
        <ele>2190.76</ele>
        <time>2018-05-10T10:35:08Z</time>
      </trkpt>
      <trkpt lat="44.24462" lon="7.0229">
        <ele>2187.65</ele>
        <time>2018-05-10T10:35:17Z</time>
      </trkpt>
      <trkpt lat="44.24475" lon="7.02266">
        <ele>2184.9</ele>
        <time>2018-05-10T10:35:30Z</time>
      </trkpt>
      <trkpt lat="44.24489" lon="7.02255">
        <ele>2181.86</ele>
        <time>2018-05-10T10:35:38Z</time>
      </trkpt>
      <trkpt lat="44.2449" lon="7.02255">
        <ele>2181.3</ele>
        <time>2018-05-10T10:35:39Z</time>
      </trkpt>
      <trkpt lat="44.24494" lon="7.0226">
        <ele>2181.04</ele>
        <time>2018-05-10T10:36:07Z</time>
      </trkpt>
      <trkpt lat="44.24496" lon="7.0226">
        <ele>2181.36</ele>
        <time>2018-05-10T10:36:36Z</time>
      </trkpt>
      <trkpt lat="44.24492" lon="7.02262">
        <ele>2181.16</ele>
        <time>2018-05-10T10:37:01Z</time>
      </trkpt>
      <trkpt lat="44.24491" lon="7.02262">
        <ele>2181.56</ele>
        <time>2018-05-10T10:37:39Z</time>
      </trkpt>
      <trkpt lat="44.24494" lon="7.02259">
        <ele>2181.79</ele>
        <time>2018-05-10T10:37:44Z</time>
      </trkpt>
      <trkpt lat="44.24513" lon="7.02236">
        <ele>2178.51</ele>
        <time>2018-05-10T10:37:50Z</time>
      </trkpt>
      <trkpt lat="44.24522" lon="7.02219">
        <ele>2175.31</ele>
        <time>2018-05-10T10:37:53Z</time>
      </trkpt>
      <trkpt lat="44.24528" lon="7.02205">
        <ele>2172.05</ele>
        <time>2018-05-10T10:37:58Z</time>
      </trkpt>
      <trkpt lat="44.24526" lon="7.02207">
        <ele>2172</ele>
        <time>2018-05-10T10:38:13Z</time>
      </trkpt>
      <trkpt lat="44.24529" lon="7.02194">
        <ele>2170.23</ele>
        <time>2018-05-10T10:38:37Z</time>
      </trkpt>
      <trkpt lat="44.24524" lon="7.02196">
        <ele>2169.49</ele>
        <time>2018-05-10T10:38:52Z</time>
      </trkpt>
      <trkpt lat="44.24525" lon="7.02192">
        <ele>2169.38</ele>
        <time>2018-05-10T10:39:15Z</time>
      </trkpt>
      <trkpt lat="44.24527" lon="7.0218">
        <ele>2169.26</ele>
        <time>2018-05-10T10:39:18Z</time>
      </trkpt>
      <trkpt lat="44.24528" lon="7.02167">
        <ele>2166.81</ele>
        <time>2018-05-10T10:39:20Z</time>
      </trkpt>
      <trkpt lat="44.24539" lon="7.0215">
        <ele>2160.71</ele>
        <time>2018-05-10T10:39:23Z</time>
      </trkpt>
      <trkpt lat="44.24543" lon="7.02141">
        <ele>2157.38</ele>
        <time>2018-05-10T10:39:24Z</time>
      </trkpt>
      <trkpt lat="44.24548" lon="7.02134">
        <ele>2154.03</ele>
        <time>2018-05-10T10:39:25Z</time>
      </trkpt>
      <trkpt lat="44.24554" lon="7.02127">
        <ele>2150.63</ele>
        <time>2018-05-10T10:39:26Z</time>
      </trkpt>
      <trkpt lat="44.24559" lon="7.02119">
        <ele>2147.39</ele>
        <time>2018-05-10T10:39:27Z</time>
      </trkpt>
      <trkpt lat="44.24569" lon="7.02104">
        <ele>2140.99</ele>
        <time>2018-05-10T10:39:29Z</time>
      </trkpt>
      <trkpt lat="44.24579" lon="7.0209">
        <ele>2135.21</ele>
        <time>2018-05-10T10:39:31Z</time>
      </trkpt>
      <trkpt lat="44.2459" lon="7.02072">
        <ele>2129.51</ele>
        <time>2018-05-10T10:39:33Z</time>
      </trkpt>
      <trkpt lat="44.24595" lon="7.02063">
        <ele>2127.07</ele>
        <time>2018-05-10T10:39:34Z</time>
      </trkpt>
      <trkpt lat="44.24605" lon="7.0205">
        <ele>2122.38</ele>
        <time>2018-05-10T10:39:36Z</time>
      </trkpt>
      <trkpt lat="44.24617" lon="7.02027">
        <ele>2116.92</ele>
        <time>2018-05-10T10:39:40Z</time>
      </trkpt>
      <trkpt lat="44.24625" lon="7.02002">
        <ele>2111.47</ele>
        <time>2018-05-10T10:39:43Z</time>
      </trkpt>
      <trkpt lat="44.24639" lon="7.01981">
        <ele>2106.95</ele>
        <time>2018-05-10T10:39:46Z</time>
      </trkpt>
      <trkpt lat="44.24649" lon="7.01973">
        <ele>2105.08</ele>
        <time>2018-05-10T10:39:48Z</time>
      </trkpt>
      <trkpt lat="44.2468" lon="7.01954">
        <ele>2099.16</ele>
        <time>2018-05-10T10:39:53Z</time>
      </trkpt>
      <trkpt lat="44.24699" lon="7.01945">
        <ele>2094.39</ele>
        <time>2018-05-10T10:39:57Z</time>
      </trkpt>
      <trkpt lat="44.24719" lon="7.01935">
        <ele>2090.08</ele>
        <time>2018-05-10T10:40:01Z</time>
      </trkpt>
      <trkpt lat="44.24734" lon="7.01924">
        <ele>2085.39</ele>
        <time>2018-05-10T10:40:07Z</time>
      </trkpt>
      <trkpt lat="44.2473" lon="7.01925">
        <ele>2085.43</ele>
        <time>2018-05-10T10:40:33Z</time>
      </trkpt>
      <trkpt lat="44.2473" lon="7.01924">
        <ele>2085.8</ele>
        <time>2018-05-10T10:41:00Z</time>
      </trkpt>
      <trkpt lat="44.24728" lon="7.01927">
        <ele>2085.51</ele>
        <time>2018-05-10T10:41:31Z</time>
      </trkpt>
      <trkpt lat="44.24737" lon="7.01938">
        <ele>2083.79</ele>
        <time>2018-05-10T10:41:35Z</time>
      </trkpt>
      <trkpt lat="44.24751" lon="7.01948">
        <ele>2078.62</ele>
        <time>2018-05-10T10:41:39Z</time>
      </trkpt>
      <trkpt lat="44.24762" lon="7.01949">
        <ele>2074.38</ele>
        <time>2018-05-10T10:41:42Z</time>
      </trkpt>
      <trkpt lat="44.24764" lon="7.01945">
        <ele>2071.33</ele>
        <time>2018-05-10T10:41:45Z</time>
      </trkpt>
      <trkpt lat="44.24762" lon="7.01941">
        <ele>2071.5</ele>
        <time>2018-05-10T10:42:17Z</time>
      </trkpt>
      <trkpt lat="44.24771" lon="7.0194">
        <ele>2071.68</ele>
        <time>2018-05-10T10:42:35Z</time>
      </trkpt>
      <trkpt lat="44.24792" lon="7.01947">
        <ele>2067.37</ele>
        <time>2018-05-10T10:42:40Z</time>
      </trkpt>
      <trkpt lat="44.24797" lon="7.01942">
        <ele>2064.16</ele>
        <time>2018-05-10T10:42:42Z</time>
      </trkpt>
      <trkpt lat="44.24806" lon="7.01946">
        <ele>2060.48</ele>
        <time>2018-05-10T10:42:45Z</time>
      </trkpt>
      <trkpt lat="44.24814" lon="7.01944">
        <ele>2056.07</ele>
        <time>2018-05-10T10:42:47Z</time>
      </trkpt>
      <trkpt lat="44.24818" lon="7.01935">
        <ele>2052.16</ele>
        <time>2018-05-10T10:42:50Z</time>
      </trkpt>
      <trkpt lat="44.24817" lon="7.01932">
        <ele>2050.53</ele>
        <time>2018-05-10T10:42:53Z</time>
      </trkpt>
      <trkpt lat="44.24813" lon="7.01933">
        <ele>2051.29</ele>
        <time>2018-05-10T10:43:08Z</time>
      </trkpt>
      <trkpt lat="44.24824" lon="7.01939">
        <ele>2048.2</ele>
        <time>2018-05-10T10:43:12Z</time>
      </trkpt>
      <trkpt lat="44.24834" lon="7.01946">
        <ele>2044.28</ele>
        <time>2018-05-10T10:43:14Z</time>
      </trkpt>
      <trkpt lat="44.24841" lon="7.01959">
        <ele>2038.03</ele>
        <time>2018-05-10T10:43:16Z</time>
      </trkpt>
      <trkpt lat="44.24852" lon="7.01965">
        <ele>2033.14</ele>
        <time>2018-05-10T10:43:18Z</time>
      </trkpt>
      <trkpt lat="44.24864" lon="7.01973">
        <ele>2027.25</ele>
        <time>2018-05-10T10:43:20Z</time>
      </trkpt>
      <trkpt lat="44.24875" lon="7.01984">
        <ele>2021.04</ele>
        <time>2018-05-10T10:43:22Z</time>
      </trkpt>
      <trkpt lat="44.24881" lon="7.0199">
        <ele>2017.37</ele>
        <time>2018-05-10T10:43:23Z</time>
      </trkpt>
      <trkpt lat="44.24889" lon="7.02007">
        <ele>2010.45</ele>
        <time>2018-05-10T10:43:25Z</time>
      </trkpt>
      <trkpt lat="44.24889" lon="7.02011">
        <ele>2007.32</ele>
        <time>2018-05-10T10:43:26Z</time>
      </trkpt>
      <trkpt lat="44.24883" lon="7.02015">
        <ele>2003.56</ele>
        <time>2018-05-10T10:43:29Z</time>
      </trkpt>
      <trkpt lat="44.24884" lon="7.02013">
        <ele>2002.21</ele>
        <time>2018-05-10T10:43:43Z</time>
      </trkpt>
      <trkpt lat="44.24878" lon="7.02013">
        <ele>2002.22</ele>
        <time>2018-05-10T10:44:13Z</time>
      </trkpt>
      <trkpt lat="44.24876" lon="7.02014">
        <ele>2003.05</ele>
        <time>2018-05-10T10:44:42Z</time>
      </trkpt>
      <trkpt lat="44.24871" lon="7.02013">
        <ele>2002.91</ele>
        <time>2018-05-10T10:45:05Z</time>
      </trkpt>
      <trkpt lat="44.24869" lon="7.02009">
        <ele>2002.64</ele>
        <time>2018-05-10T10:45:30Z</time>
      </trkpt>
      <trkpt lat="44.24865" lon="7.02013">
        <ele>2002.77</ele>
        <time>2018-05-10T10:45:45Z</time>
      </trkpt>
      <trkpt lat="44.24856" lon="7.02033">
        <ele>1999.08</ele>
        <time>2018-05-10T10:45:53Z</time>
      </trkpt>
      <trkpt lat="44.24856" lon="7.02034">
        <ele>1998.32</ele>
        <time>2018-05-10T10:45:55Z</time>
      </trkpt>
      <trkpt lat="44.24855" lon="7.02036">
        <ele>1998.14</ele>
        <time>2018-05-10T10:45:56Z</time>
      </trkpt>
      <trkpt lat="44.24868" lon="7.02065">
        <ele>1992.82</ele>
        <time>2018-05-10T10:46:01Z</time>
      </trkpt>
      <trkpt lat="44.24875" lon="7.02085">
        <ele>1987.25</ele>
        <time>2018-05-10T10:46:03Z</time>
      </trkpt>
      <trkpt lat="44.24881" lon="7.02104">
        <ele>1982.79</ele>
        <time>2018-05-10T10:46:05Z</time>
      </trkpt>
      <trkpt lat="44.24886" lon="7.02122">
        <ele>1978.43</ele>
        <time>2018-05-10T10:46:07Z</time>
      </trkpt>
      <trkpt lat="44.24889" lon="7.0213">
        <ele>1976.18</ele>
        <time>2018-05-10T10:46:08Z</time>
      </trkpt>
      <trkpt lat="44.24897" lon="7.02167">
        <ele>1969.21</ele>
        <time>2018-05-10T10:46:13Z</time>
      </trkpt>
      <trkpt lat="44.2491" lon="7.02203">
        <ele>1964.05</ele>
        <time>2018-05-10T10:46:18Z</time>
      </trkpt>
      <trkpt lat="44.24911" lon="7.02209">
        <ele>1963.48</ele>
        <time>2018-05-10T10:46:19Z</time>
      </trkpt>
      <trkpt lat="44.24915" lon="7.02228">
        <ele>1961.42</ele>
        <time>2018-05-10T10:46:22Z</time>
      </trkpt>
      <trkpt lat="44.24922" lon="7.02245">
        <ele>1959.39</ele>
        <time>2018-05-10T10:46:25Z</time>
      </trkpt>
      <trkpt lat="44.24929" lon="7.02272">
        <ele>1955.13</ele>
        <time>2018-05-10T10:46:31Z</time>
      </trkpt>
      <trkpt lat="44.24927" lon="7.02296">
        <ele>1952.77</ele>
        <time>2018-05-10T10:46:37Z</time>
      </trkpt>
      <trkpt lat="44.2493" lon="7.02317">
        <ele>1949.34</ele>
        <time>2018-05-10T10:46:41Z</time>
      </trkpt>
      <trkpt lat="44.24934" lon="7.02329">
        <ele>1947.19</ele>
        <time>2018-05-10T10:46:45Z</time>
      </trkpt>
      <trkpt lat="44.24942" lon="7.02346">
        <ele>1945.42</ele>
        <time>2018-05-10T10:46:55Z</time>
      </trkpt>
      <trkpt lat="44.2496" lon="7.02362">
        <ele>1943.3</ele>
        <time>2018-05-10T10:47:09Z</time>
      </trkpt>
      <trkpt lat="44.24979" lon="7.02374">
        <ele>1940.13</ele>
        <time>2018-05-10T10:47:16Z</time>
      </trkpt>
      <trkpt lat="44.24984" lon="7.02376">
        <ele>1939.32</ele>
        <time>2018-05-10T10:47:17Z</time>
      </trkpt>
      <trkpt lat="44.24994" lon="7.02384">
        <ele>1937.43</ele>
        <time>2018-05-10T10:47:21Z</time>
      </trkpt>
      <trkpt lat="44.25018" lon="7.024">
        <ele>1933.98</ele>
        <time>2018-05-10T10:47:29Z</time>
      </trkpt>
      <trkpt lat="44.25034" lon="7.02413">
        <ele>1930.69</ele>
        <time>2018-05-10T10:47:32Z</time>
      </trkpt>
      <trkpt lat="44.25049" lon="7.02432">
        <ele>1926.16</ele>
        <time>2018-05-10T10:47:37Z</time>
      </trkpt>
      <trkpt lat="44.25053" lon="7.02437">
        <ele>1925.45</ele>
        <time>2018-05-10T10:47:45Z</time>
      </trkpt>
      <trkpt lat="44.25061" lon="7.02445">
        <ele>1924.26</ele>
        <time>2018-05-10T10:47:48Z</time>
      </trkpt>
      <trkpt lat="44.25075" lon="7.02469">
        <ele>1920.25</ele>
        <time>2018-05-10T10:47:54Z</time>
      </trkpt>
      <trkpt lat="44.25088" lon="7.02502">
        <ele>1916.76</ele>
        <time>2018-05-10T10:48:02Z</time>
      </trkpt>
      <trkpt lat="44.25095" lon="7.02519">
        <ele>1913.57</ele>
        <time>2018-05-10T10:48:05Z</time>
      </trkpt>
      <trkpt lat="44.25104" lon="7.02542">
        <ele>1909.99</ele>
        <time>2018-05-10T10:48:09Z</time>
      </trkpt>
      <trkpt lat="44.25114" lon="7.02564">
        <ele>1905.78</ele>
        <time>2018-05-10T10:48:13Z</time>
      </trkpt>
      <trkpt lat="44.25122" lon="7.02586">
        <ele>1901.93</ele>
        <time>2018-05-10T10:48:17Z</time>
      </trkpt>
      <trkpt lat="44.25131" lon="7.02604">
        <ele>1898.89</ele>
        <time>2018-05-10T10:48:21Z</time>
      </trkpt>
      <trkpt lat="44.2514" lon="7.02624">
        <ele>1895.54</ele>
        <time>2018-05-10T10:48:25Z</time>
      </trkpt>
      <trkpt lat="44.25158" lon="7.0265">
        <ele>1890.56</ele>
        <time>2018-05-10T10:48:30Z</time>
      </trkpt>
      <trkpt lat="44.25174" lon="7.02668">
        <ele>1887.34</ele>
        <time>2018-05-10T10:48:35Z</time>
      </trkpt>
      <trkpt lat="44.25193" lon="7.02689">
        <ele>1883.51</ele>
        <time>2018-05-10T10:48:41Z</time>
      </trkpt>
      <trkpt lat="44.25196" lon="7.02694">
        <ele>1882.57</ele>
        <time>2018-05-10T10:48:43Z</time>
      </trkpt>
      <trkpt lat="44.25197" lon="7.02698">
        <ele>1881.68</ele>
        <time>2018-05-10T10:49:02Z</time>
      </trkpt>
      <trkpt lat="44.25197" lon="7.02698">
        <ele>1881.98</ele>
        <time>2018-05-10T10:49:19Z</time>
      </trkpt>
      <trkpt lat="44.25211" lon="7.02711">
        <ele>1879.84</ele>
        <time>2018-05-10T10:49:24Z</time>
      </trkpt>
      <trkpt lat="44.25225" lon="7.02733">
        <ele>1875.8</ele>
        <time>2018-05-10T10:49:29Z</time>
      </trkpt>
      <trkpt lat="44.25232" lon="7.02755">
        <ele>1874.43</ele>
        <time>2018-05-10T10:49:40Z</time>
      </trkpt>
      <trkpt lat="44.25239" lon="7.02793">
        <ele>1871.16</ele>
        <time>2018-05-10T10:49:49Z</time>
      </trkpt>
      <trkpt lat="44.25245" lon="7.02824">
        <ele>1867.63</ele>
        <time>2018-05-10T10:49:54Z</time>
      </trkpt>
      <trkpt lat="44.25252" lon="7.02856">
        <ele>1863.56</ele>
        <time>2018-05-10T10:49:58Z</time>
      </trkpt>
      <trkpt lat="44.25258" lon="7.02883">
        <ele>1859.35</ele>
        <time>2018-05-10T10:50:01Z</time>
      </trkpt>
      <trkpt lat="44.25263" lon="7.02902">
        <ele>1856.32</ele>
        <time>2018-05-10T10:50:04Z</time>
      </trkpt>
      <trkpt lat="44.2527" lon="7.02933">
        <ele>1852.95</ele>
        <time>2018-05-10T10:50:10Z</time>
      </trkpt>
      <trkpt lat="44.25284" lon="7.02962">
        <ele>1849.86</ele>
        <time>2018-05-10T10:50:17Z</time>
      </trkpt>
      <trkpt lat="44.2529" lon="7.02982">
        <ele>1846.73</ele>
        <time>2018-05-10T10:50:23Z</time>
      </trkpt>
      <trkpt lat="44.25292" lon="7.0298">
        <ele>1847.02</ele>
        <time>2018-05-10T10:50:41Z</time>
      </trkpt>
      <trkpt lat="44.25308" lon="7.03007">
        <ele>1842.77</ele>
        <time>2018-05-10T10:50:48Z</time>
      </trkpt>
      <trkpt lat="44.25323" lon="7.03033">
        <ele>1838.88</ele>
        <time>2018-05-10T10:50:52Z</time>
      </trkpt>
      <trkpt lat="44.25334" lon="7.0305">
        <ele>1835.96</ele>
        <time>2018-05-10T10:50:55Z</time>
      </trkpt>
      <trkpt lat="44.25341" lon="7.03065">
        <ele>1833.38</ele>
        <time>2018-05-10T10:51:03Z</time>
      </trkpt>
      <trkpt lat="44.25339" lon="7.03065">
        <ele>1833.38</ele>
        <time>2018-05-10T10:51:50Z</time>
      </trkpt>
      <trkpt lat="44.25338" lon="7.03065">
        <ele>1833.58</ele>
        <time>2018-05-10T10:52:15Z</time>
      </trkpt>
      <trkpt lat="44.25354" lon="7.03092">
        <ele>1829.99</ele>
        <time>2018-05-10T10:52:21Z</time>
      </trkpt>
      <trkpt lat="44.25366" lon="7.03113">
        <ele>1825.99</ele>
        <time>2018-05-10T10:52:24Z</time>
      </trkpt>
      <trkpt lat="44.25376" lon="7.03136">
        <ele>1823.01</ele>
        <time>2018-05-10T10:52:28Z</time>
      </trkpt>
      <trkpt lat="44.25389" lon="7.0316">
        <ele>1817.67</ele>
        <time>2018-05-10T10:52:32Z</time>
      </trkpt>
      <trkpt lat="44.25393" lon="7.03167">
        <ele>1816.08</ele>
        <time>2018-05-10T10:52:33Z</time>
      </trkpt>
      <trkpt lat="44.25398" lon="7.03186">
        <ele>1811.43</ele>
        <time>2018-05-10T10:52:36Z</time>
      </trkpt>
      <trkpt lat="44.25398" lon="7.03191">
        <ele>1810.64</ele>
        <time>2018-05-10T10:52:38Z</time>
      </trkpt>
      <trkpt lat="44.25399" lon="7.03191">
        <ele>1810.79</ele>
        <time>2018-05-10T10:52:53Z</time>
      </trkpt>
      <trkpt lat="44.254" lon="7.03192">
        <ele>1811</ele>
        <time>2018-05-10T10:53:30Z</time>
      </trkpt>
      <trkpt lat="44.25411" lon="7.03229">
        <ele>1807.94</ele>
        <time>2018-05-10T10:53:42Z</time>
      </trkpt>
      <trkpt lat="44.25417" lon="7.03252">
        <ele>1806.28</ele>
        <time>2018-05-10T10:53:52Z</time>
      </trkpt>
      <trkpt lat="44.2542" lon="7.03255">
        <ele>1805.91</ele>
        <time>2018-05-10T10:53:53Z</time>
      </trkpt>
      <trkpt lat="44.25437" lon="7.03258">
        <ele>1801.68</ele>
        <time>2018-05-10T10:53:56Z</time>
      </trkpt>
      <trkpt lat="44.2545" lon="7.03269">
        <ele>1795</ele>
        <time>2018-05-10T10:53:58Z</time>
      </trkpt>
      <trkpt lat="44.25452" lon="7.03277">
        <ele>1790.86</ele>
        <time>2018-05-10T10:54:00Z</time>
      </trkpt>
      <trkpt lat="44.25453" lon="7.03281">
        <ele>1789.97</ele>
        <time>2018-05-10T10:54:02Z</time>
      </trkpt>
      <trkpt lat="44.25454" lon="7.03284">
        <ele>1789.68</ele>
        <time>2018-05-10T10:54:04Z</time>
      </trkpt>
      <trkpt lat="44.25473" lon="7.03296">
        <ele>1784.35</ele>
        <time>2018-05-10T10:54:08Z</time>
      </trkpt>
      <trkpt lat="44.25483" lon="7.03307">
        <ele>1780.7</ele>
        <time>2018-05-10T10:54:10Z</time>
      </trkpt>
      <trkpt lat="44.25492" lon="7.03325">
        <ele>1776.04</ele>
        <time>2018-05-10T10:54:15Z</time>
      </trkpt>
      <trkpt lat="44.25486" lon="7.03328">
        <ele>1775.52</ele>
        <time>2018-05-10T10:54:29Z</time>
      </trkpt>
      <trkpt lat="44.25487" lon="7.03326">
        <ele>1775.31</ele>
        <time>2018-05-10T10:54:54Z</time>
      </trkpt>
      <trkpt lat="44.25488" lon="7.03326">
        <ele>1775.53</ele>
        <time>2018-05-10T10:54:56Z</time>
      </trkpt>
      <trkpt lat="44.25505" lon="7.03338">
        <ele>1772.59</ele>
        <time>2018-05-10T10:55:01Z</time>
      </trkpt>
      <trkpt lat="44.2552" lon="7.03347">
        <ele>1770.05</ele>
        <time>2018-05-10T10:55:04Z</time>
      </trkpt>
      <trkpt lat="44.25541" lon="7.03362">
        <ele>1765.32</ele>
        <time>2018-05-10T10:55:08Z</time>
      </trkpt>
      <trkpt lat="44.2555" lon="7.03375">
        <ele>1762.72</ele>
        <time>2018-05-10T10:55:10Z</time>
      </trkpt>
      <trkpt lat="44.25566" lon="7.03404">
        <ele>1758.28</ele>
        <time>2018-05-10T10:55:16Z</time>
      </trkpt>
      <trkpt lat="44.25575" lon="7.03422">
        <ele>1755.08</ele>
        <time>2018-05-10T10:55:21Z</time>
      </trkpt>
      <trkpt lat="44.25573" lon="7.03424">
        <ele>1754.62</ele>
        <time>2018-05-10T10:55:33Z</time>
      </trkpt>
      <trkpt lat="44.25573" lon="7.03429">
        <ele>1755.11</ele>
        <time>2018-05-10T10:55:52Z</time>
      </trkpt>
      <trkpt lat="44.25586" lon="7.03428">
        <ele>1751.63</ele>
        <time>2018-05-10T10:55:56Z</time>
      </trkpt>
      <trkpt lat="44.25597" lon="7.03422">
        <ele>1747.81</ele>
        <time>2018-05-10T10:55:58Z</time>
      </trkpt>
      <trkpt lat="44.25603" lon="7.0342">
        <ele>1745.56</ele>
        <time>2018-05-10T10:55:59Z</time>
      </trkpt>
      <trkpt lat="44.25617" lon="7.03416">
        <ele>1739.58</ele>
        <time>2018-05-10T10:56:01Z</time>
      </trkpt>
      <trkpt lat="44.25627" lon="7.03421">
        <ele>1733.26</ele>
        <time>2018-05-10T10:56:03Z</time>
      </trkpt>
      <trkpt lat="44.2563" lon="7.03425">
        <ele>1729.97</ele>
        <time>2018-05-10T10:56:04Z</time>
      </trkpt>
      <trkpt lat="44.25637" lon="7.03431">
        <ele>1726.08</ele>
        <time>2018-05-10T10:56:06Z</time>
      </trkpt>
      <trkpt lat="44.2564" lon="7.03436">
        <ele>1722.95</ele>
        <time>2018-05-10T10:56:08Z</time>
      </trkpt>
      <trkpt lat="44.25641" lon="7.03438">
        <ele>1722.15</ele>
        <time>2018-05-10T10:56:09Z</time>
      </trkpt>
      <trkpt lat="44.25647" lon="7.03451">
        <ele>1718.24</ele>
        <time>2018-05-10T10:56:15Z</time>
      </trkpt>
      <trkpt lat="44.25661" lon="7.03463">
        <ele>1714.59</ele>
        <time>2018-05-10T10:56:20Z</time>
      </trkpt>
      <trkpt lat="44.25662" lon="7.0347">
        <ele>1712.57</ele>
        <time>2018-05-10T10:56:23Z</time>
      </trkpt>
      <trkpt lat="44.25664" lon="7.03469">
        <ele>1712</ele>
        <time>2018-05-10T10:56:39Z</time>
      </trkpt>
      <trkpt lat="44.25657" lon="7.03481">
        <ele>1712.92</ele>
        <time>2018-05-10T10:56:57Z</time>
      </trkpt>
      <trkpt lat="44.25657" lon="7.03488">
        <ele>1713.44</ele>
        <time>2018-05-10T10:57:12Z</time>
      </trkpt>
      <trkpt lat="44.25655" lon="7.03495">
        <ele>1713.35</ele>
        <time>2018-05-10T10:57:26Z</time>
      </trkpt>
      <trkpt lat="44.25651" lon="7.03507">
        <ele>1713.54</ele>
        <time>2018-05-10T10:57:42Z</time>
      </trkpt>
      <trkpt lat="44.25654" lon="7.03526">
        <ele>1713.45</ele>
        <time>2018-05-10T10:57:56Z</time>
      </trkpt>
      <trkpt lat="44.25657" lon="7.03526">
        <ele>1713.15</ele>
        <time>2018-05-10T10:58:19Z</time>
      </trkpt>
      <trkpt lat="44.25657" lon="7.03532">
        <ele>1713.03</ele>
        <time>2018-05-10T10:58:26Z</time>
      </trkpt>
      <trkpt lat="44.25658" lon="7.03535">
        <ele>1711.53</ele>
        <time>2018-05-10T10:58:30Z</time>
      </trkpt>
      <trkpt lat="44.25656" lon="7.03539">
        <ele>1712.02</ele>
        <time>2018-05-10T10:58:37Z</time>
      </trkpt>
      <trkpt lat="44.25655" lon="7.03548">
        <ele>1711.48</ele>
        <time>2018-05-10T10:58:41Z</time>
      </trkpt>
      <trkpt lat="44.25657" lon="7.03576">
        <ele>1710.07</ele>
        <time>2018-05-10T10:58:50Z</time>
      </trkpt>
      <trkpt lat="44.2566" lon="7.03598">
        <ele>1708.29</ele>
        <time>2018-05-10T10:58:59Z</time>
      </trkpt>
      <trkpt lat="44.25661" lon="7.03603">
        <ele>1708.51</ele>
        <time>2018-05-10T10:59:22Z</time>
      </trkpt>
      <trkpt lat="44.25663" lon="7.03609">
        <ele>1707.8</ele>
        <time>2018-05-10T10:59:43Z</time>
      </trkpt>
      <trkpt lat="44.25658" lon="7.03625">
        <ele>1708.11</ele>
        <time>2018-05-10T11:00:02Z</time>
      </trkpt>
      <trkpt lat="44.25657" lon="7.03625">
        <ele>1708.78</ele>
        <time>2018-05-10T11:00:21Z</time>
      </trkpt>
      <trkpt lat="44.25657" lon="7.03635">
        <ele>1708.74</ele>
        <time>2018-05-10T11:00:38Z</time>
      </trkpt>
      <trkpt lat="44.25661" lon="7.03649">
        <ele>1707.12</ele>
        <time>2018-05-10T11:00:40Z</time>
      </trkpt>
      <trkpt lat="44.25661" lon="7.03674">
        <ele>1703.04</ele>
        <time>2018-05-10T11:00:44Z</time>
      </trkpt>
      <trkpt lat="44.25664" lon="7.03683">
        <ele>1702.58</ele>
        <time>2018-05-10T11:00:46Z</time>
      </trkpt>
      <trkpt lat="44.25673" lon="7.03698">
        <ele>1700.96</ele>
        <time>2018-05-10T11:00:49Z</time>
      </trkpt>
      <trkpt lat="44.2569" lon="7.0371">
        <ele>1696.75</ele>
        <time>2018-05-10T11:00:53Z</time>
      </trkpt>
      <trkpt lat="44.25691" lon="7.03715">
        <ele>1695.72</ele>
        <time>2018-05-10T11:00:55Z</time>
      </trkpt>
      <trkpt lat="44.25689" lon="7.03718">
        <ele>1695.63</ele>
        <time>2018-05-10T11:01:15Z</time>
      </trkpt>
      <trkpt lat="44.25687" lon="7.03721">
        <ele>1696.03</ele>
        <time>2018-05-10T11:01:39Z</time>
      </trkpt>
      <trkpt lat="44.25693" lon="7.03731">
        <ele>1694.09</ele>
        <time>2018-05-10T11:01:57Z</time>
      </trkpt>
      <trkpt lat="44.25699" lon="7.03739">
        <ele>1693.44</ele>
        <time>2018-05-10T11:02:15Z</time>
      </trkpt>
      <trkpt lat="44.25707" lon="7.03748">
        <ele>1692.44</ele>
        <time>2018-05-10T11:02:33Z</time>
      </trkpt>
      <trkpt lat="44.25712" lon="7.03754">
        <ele>1691.51</ele>
        <time>2018-05-10T11:02:50Z</time>
      </trkpt>
      <trkpt lat="44.25709" lon="7.03753">
        <ele>1691.51</ele>
        <time>2018-05-10T11:03:16Z</time>
      </trkpt>
      <trkpt lat="44.2571" lon="7.03766">
        <ele>1690.74</ele>
        <time>2018-05-10T11:03:37Z</time>
      </trkpt>
      <trkpt lat="44.2572" lon="7.03788">
        <ele>1687.71</ele>
        <time>2018-05-10T11:03:43Z</time>
      </trkpt>
      <trkpt lat="44.25722" lon="7.03792">
        <ele>1687.2</ele>
        <time>2018-05-10T11:03:44Z</time>
      </trkpt>
      <trkpt lat="44.25735" lon="7.0381">
        <ele>1683.19</ele>
        <time>2018-05-10T11:03:48Z</time>
      </trkpt>
      <trkpt lat="44.25743" lon="7.03835">
        <ele>1679.5</ele>
        <time>2018-05-10T11:03:52Z</time>
      </trkpt>
      <trkpt lat="44.25747" lon="7.03845">
        <ele>1678.3</ele>
        <time>2018-05-10T11:03:55Z</time>
      </trkpt>
      <trkpt lat="44.25746" lon="7.03851">
        <ele>1677.19</ele>
        <time>2018-05-10T11:04:06Z</time>
      </trkpt>
      <trkpt lat="44.2575" lon="7.03849">
        <ele>1677.09</ele>
        <time>2018-05-10T11:04:18Z</time>
      </trkpt>
      <trkpt lat="44.25756" lon="7.03852">
        <ele>1673.76</ele>
        <time>2018-05-10T11:04:24Z</time>
      </trkpt>
      <trkpt lat="44.25757" lon="7.03852">
        <ele>1673.46</ele>
        <time>2018-05-10T11:04:25Z</time>
      </trkpt>
      <trkpt lat="44.25762" lon="7.03859">
        <ele>1672.43</ele>
        <time>2018-05-10T11:04:47Z</time>
      </trkpt>
      <trkpt lat="44.25767" lon="7.0387">
        <ele>1671.76</ele>
        <time>2018-05-10T11:05:07Z</time>
      </trkpt>
      <trkpt lat="44.25769" lon="7.03878">
        <ele>1671.13</ele>
        <time>2018-05-10T11:05:22Z</time>
      </trkpt>
      <trkpt lat="44.2577" lon="7.0389">
        <ele>1670.01</ele>
        <time>2018-05-10T11:05:29Z</time>
      </trkpt>
      <trkpt lat="44.25772" lon="7.03896">
        <ele>1669.03</ele>
        <time>2018-05-10T11:05:41Z</time>
      </trkpt>
      <trkpt lat="44.25774" lon="7.03905">
        <ele>1668.78</ele>
        <time>2018-05-10T11:06:00Z</time>
      </trkpt>
      <trkpt lat="44.25777" lon="7.03911">
        <ele>1668.25</ele>
        <time>2018-05-10T11:06:20Z</time>
      </trkpt>
      <trkpt lat="44.25777" lon="7.03912">
        <ele>1668.39</ele>
        <time>2018-05-10T11:06:29Z</time>
      </trkpt>
      <trkpt lat="44.25782" lon="7.03928">
        <ele>1667.3</ele>
        <time>2018-05-10T11:06:34Z</time>
      </trkpt>
      <trkpt lat="44.25789" lon="7.03954">
        <ele>1664.26</ele>
        <time>2018-05-10T11:06:38Z</time>
      </trkpt>
      <trkpt lat="44.25794" lon="7.03966">
        <ele>1662.72</ele>
        <time>2018-05-10T11:06:40Z</time>
      </trkpt>
      <trkpt lat="44.25799" lon="7.03986">
        <ele>1660.24</ele>
        <time>2018-05-10T11:06:43Z</time>
      </trkpt>
      <trkpt lat="44.2581" lon="7.04011">
        <ele>1656.72</ele>
        <time>2018-05-10T11:06:47Z</time>
      </trkpt>
      <trkpt lat="44.25821" lon="7.04039">
        <ele>1652.54</ele>
        <time>2018-05-10T11:06:52Z</time>
      </trkpt>
      <trkpt lat="44.25826" lon="7.04062">
        <ele>1649.54</ele>
        <time>2018-05-10T11:06:56Z</time>
      </trkpt>
      <trkpt lat="44.25829" lon="7.04065">
        <ele>1648.34</ele>
        <time>2018-05-10T11:07:09Z</time>
      </trkpt>
      <trkpt lat="44.25829" lon="7.04068">
        <ele>1647.45</ele>
        <time>2018-05-10T11:07:17Z</time>
      </trkpt>
      <trkpt lat="44.2583" lon="7.0408">
        <ele>1646.9</ele>
        <time>2018-05-10T11:07:21Z</time>
      </trkpt>
      <trkpt lat="44.25832" lon="7.04114">
        <ele>1643.05</ele>
        <time>2018-05-10T11:07:28Z</time>
      </trkpt>
      <trkpt lat="44.25836" lon="7.04131">
        <ele>1640.54</ele>
        <time>2018-05-10T11:07:38Z</time>
      </trkpt>
      <trkpt lat="44.25849" lon="7.04152">
        <ele>1637.1</ele>
        <time>2018-05-10T11:07:46Z</time>
      </trkpt>
      <trkpt lat="44.25849" lon="7.04153">
        <ele>1636.88</ele>
        <time>2018-05-10T11:07:47Z</time>
      </trkpt>
      <trkpt lat="44.25845" lon="7.04157">
        <ele>1636.74</ele>
        <time>2018-05-10T11:08:12Z</time>
      </trkpt>
      <trkpt lat="44.25846" lon="7.04161">
        <ele>1636.28</ele>
        <time>2018-05-10T11:08:18Z</time>
      </trkpt>
      <trkpt lat="44.25847" lon="7.04169">
        <ele>1636.08</ele>
        <time>2018-05-10T11:08:28Z</time>
      </trkpt>
      <trkpt lat="44.2585" lon="7.04176">
        <ele>1636.13</ele>
        <time>2018-05-10T11:08:42Z</time>
      </trkpt>
      <trkpt lat="44.25851" lon="7.04189">
        <ele>1635.93</ele>
        <time>2018-05-10T11:08:53Z</time>
      </trkpt>
      <trkpt lat="44.2585" lon="7.04195">
        <ele>1636.39</ele>
        <time>2018-05-10T11:09:09Z</time>
      </trkpt>
      <trkpt lat="44.25849" lon="7.042">
        <ele>1636.61</ele>
        <time>2018-05-10T11:09:26Z</time>
      </trkpt>
      <trkpt lat="44.25849" lon="7.04201">
        <ele>1636.19</ele>
        <time>2018-05-10T11:09:48Z</time>
      </trkpt>
      <trkpt lat="44.2585" lon="7.042">
        <ele>1635.95</ele>
        <time>2018-05-10T11:10:11Z</time>
      </trkpt>
      <trkpt lat="44.25849" lon="7.042">
        <ele>1636.22</ele>
        <time>2018-05-10T11:10:41Z</time>
      </trkpt>
      <trkpt lat="44.2585" lon="7.04204">
        <ele>1636.17</ele>
        <time>2018-05-10T11:10:49Z</time>
      </trkpt>
      <trkpt lat="44.25853" lon="7.04213">
        <ele>1636.03</ele>
        <time>2018-05-10T11:10:54Z</time>
      </trkpt>
      <trkpt lat="44.25855" lon="7.04219">
        <ele>1635.26</ele>
        <time>2018-05-10T11:10:58Z</time>
      </trkpt>
      <trkpt lat="44.25859" lon="7.04227">
        <ele>1634.45</ele>
        <time>2018-05-10T11:11:03Z</time>
      </trkpt>
      <trkpt lat="44.25863" lon="7.04229">
        <ele>1633.96</ele>
        <time>2018-05-10T11:11:07Z</time>
      </trkpt>
      <trkpt lat="44.25879" lon="7.04224">
        <ele>1634.21</ele>
        <time>2018-05-10T11:11:23Z</time>
      </trkpt>
      <trkpt lat="44.25892" lon="7.04227">
        <ele>1634.5</ele>
        <time>2018-05-10T11:11:40Z</time>
      </trkpt>
      <trkpt lat="44.25905" lon="7.04248">
        <ele>1635.55</ele>
        <time>2018-05-10T11:12:04Z</time>
      </trkpt>
      <trkpt lat="44.25916" lon="7.0426">
        <ele>1636.47</ele>
        <time>2018-05-10T11:12:20Z</time>
      </trkpt>
      <trkpt lat="44.25933" lon="7.04279">
        <ele>1636.81</ele>
        <time>2018-05-10T11:12:42Z</time>
      </trkpt>
      <trkpt lat="44.25958" lon="7.04299">
        <ele>1638.1</ele>
        <time>2018-05-10T11:13:10Z</time>
      </trkpt>
      <trkpt lat="44.2598" lon="7.04317">
        <ele>1638.81</ele>
        <time>2018-05-10T11:13:34Z</time>
      </trkpt>
      <trkpt lat="44.26" lon="7.0434">
        <ele>1639.3</ele>
        <time>2018-05-10T11:13:57Z</time>
      </trkpt>
      <trkpt lat="44.26021" lon="7.04361">
        <ele>1640.35</ele>
        <time>2018-05-10T11:14:22Z</time>
      </trkpt>
      <trkpt lat="44.26046" lon="7.0438">
        <ele>1640.76</ele>
        <time>2018-05-10T11:14:47Z</time>
      </trkpt>
      <trkpt lat="44.26068" lon="7.04399">
        <ele>1641.56</ele>
        <time>2018-05-10T11:15:11Z</time>
      </trkpt>
      <trkpt lat="44.26079" lon="7.04417">
        <ele>1642.17</ele>
        <time>2018-05-10T11:15:33Z</time>
      </trkpt>
      <trkpt lat="44.2608" lon="7.0442">
        <ele>1642.34</ele>
        <time>2018-05-10T11:15:35Z</time>
      </trkpt>
      <trkpt lat="44.26092" lon="7.04445">
        <ele>1643.81</ele>
        <time>2018-05-10T11:15:59Z</time>
      </trkpt>
      <trkpt lat="44.26096" lon="7.04431">
        <ele>1646.87</ele>
        <time>2018-05-10T11:16:17Z</time>
      </trkpt>
      <trkpt lat="44.26095" lon="7.04424">
        <ele>1647.92</ele>
        <time>2018-05-10T11:16:28Z</time>
      </trkpt>
      <trkpt lat="44.26091" lon="7.04411">
        <ele>1648.51</ele>
        <time>2018-05-10T11:16:50Z</time>
      </trkpt>
      <trkpt lat="44.26099" lon="7.04414">
        <ele>1647.89</ele>
        <time>2018-05-10T11:16:56Z</time>
      </trkpt>
      <trkpt lat="44.261" lon="7.04417">
        <ele>1648.29</ele>
        <time>2018-05-10T11:16:59Z</time>
      </trkpt>
      <trkpt lat="44.2611" lon="7.0442">
        <ele>1647.58</ele>
        <time>2018-05-10T11:17:19Z</time>
      </trkpt>
      <trkpt lat="44.26112" lon="7.04423">
        <ele>1647.55</ele>
        <time>2018-05-10T11:17:23Z</time>
      </trkpt>
      <trkpt lat="44.261" lon="7.04419">
        <ele>1647.57</ele>
        <time>2018-05-10T11:17:38Z</time>
      </trkpt>
      <trkpt lat="44.26091" lon="7.04409">
        <ele>1647.65</ele>
        <time>2018-05-10T11:17:54Z</time>
      </trkpt>
      <trkpt lat="44.26091" lon="7.04409">
        <ele>1647.73</ele>
        <time>2018-05-10T11:17:58Z</time>
      </trkpt>
      <trkpt lat="44.26089" lon="7.04411">
        <ele>1647.8</ele>
        <time>2018-05-10T11:18:02Z</time>
      </trkpt>
      <trkpt lat="44.26084" lon="7.04413">
        <ele>1647.44</ele>
        <time>2018-05-10T11:18:10Z</time>
      </trkpt>
      <trkpt lat="44.26078" lon="7.04414">
        <ele>1647.36</ele>
        <time>2018-05-10T11:18:19Z</time>
      </trkpt>
      <trkpt lat="44.26074" lon="7.04418">
        <ele>1647.59</ele>
        <time>2018-05-10T11:18:25Z</time>
      </trkpt>
      <trkpt lat="44.26063" lon="7.04406">
        <ele>1647.35</ele>
        <time>2018-05-10T11:19:02Z</time>
      </trkpt>
      <trkpt lat="44.26069" lon="7.04407">
        <ele>1647.54</ele>
        <time>2018-05-10T11:19:12Z</time>
      </trkpt>
      <trkpt lat="44.26088" lon="7.04417">
        <ele>1647.35</ele>
        <time>2018-05-10T11:19:34Z</time>
      </trkpt>
      <trkpt lat="44.26085" lon="7.04416">
        <ele>1646.96</ele>
        <time>2018-05-10T11:19:46Z</time>
      </trkpt>
      <trkpt lat="44.26083" lon="7.04418">
        <ele>1647.04</ele>
        <time>2018-05-10T11:20:06Z</time>
      </trkpt>
      <trkpt lat="44.26087" lon="7.04413">
        <ele>1647.14</ele>
        <time>2018-05-10T11:20:35Z</time>
      </trkpt>
      <trkpt lat="44.26094" lon="7.0442">
        <ele>1646.67</ele>
        <time>2018-05-10T11:20:49Z</time>
      </trkpt>
      <trkpt lat="44.26093" lon="7.04423">
        <ele>1647.16</ele>
        <time>2018-05-10T11:21:20Z</time>
      </trkpt>
      <trkpt lat="44.26098" lon="7.04421">
        <ele>1646.72</ele>
        <time>2018-05-10T11:21:51Z</time>
      </trkpt>
      <trkpt lat="44.26099" lon="7.0442">
        <ele>1646.8</ele>
        <time>2018-05-10T11:22:19Z</time>
      </trkpt>
      <trkpt lat="44.26091" lon="7.04419">
        <ele>1646.92</ele>
        <time>2018-05-10T11:22:50Z</time>
      </trkpt>
      <trkpt lat="44.26088" lon="7.04416">
        <ele>1646.95</ele>
        <time>2018-05-10T11:23:15Z</time>
      </trkpt>
      <trkpt lat="44.2609" lon="7.04418">
        <ele>1646.74</ele>
        <time>2018-05-10T11:23:43Z</time>
      </trkpt>
      <trkpt lat="44.26089" lon="7.04422">
        <ele>1647</ele>
        <time>2018-05-10T11:24:12Z</time>
      </trkpt>
      <trkpt lat="44.26093" lon="7.04421">
        <ele>1647.15</ele>
        <time>2018-05-10T11:24:33Z</time>
      </trkpt>
    </trkseg>
  </trk>
  <trk>
    <name><![CDATA[20180514195401-MUPu9]]></name>
    <trkseg>
      <trkpt lat="44.25928" lon="7.04281">
        <ele>1668.73</ele>
        <time>2018-05-11T04:57:46Z</time>
      </trkpt>
      <trkpt lat="44.25928" lon="7.04281">
        <ele>1668.69</ele>
        <time>2018-05-11T04:57:47Z</time>
      </trkpt>
      <trkpt lat="44.25925" lon="7.04277">
        <ele>1668.11</ele>
        <time>2018-05-11T04:58:10Z</time>
      </trkpt>
      <trkpt lat="44.25925" lon="7.04278">
        <ele>1668.6</ele>
        <time>2018-05-11T04:58:32Z</time>
      </trkpt>
      <trkpt lat="44.25926" lon="7.04271">
        <ele>1669.34</ele>
        <time>2018-05-11T04:58:49Z</time>
      </trkpt>
      <trkpt lat="44.25907" lon="7.0427">
        <ele>1670.41</ele>
        <time>2018-05-11T04:58:58Z</time>
      </trkpt>
      <trkpt lat="44.25896" lon="7.04236">
        <ele>1671.17</ele>
        <time>2018-05-11T04:59:24Z</time>
      </trkpt>
      <trkpt lat="44.2588" lon="7.04216">
        <ele>1669.9</ele>
        <time>2018-05-11T04:59:47Z</time>
      </trkpt>
      <trkpt lat="44.25879" lon="7.04216">
        <ele>1669.82</ele>
        <time>2018-05-11T04:59:48Z</time>
      </trkpt>
      <trkpt lat="44.25875" lon="7.04217">
        <ele>1669.77</ele>
        <time>2018-05-11T04:59:52Z</time>
      </trkpt>
      <trkpt lat="44.25853" lon="7.0422">
        <ele>1669.57</ele>
        <time>2018-05-11T05:00:16Z</time>
      </trkpt>
      <trkpt lat="44.25848" lon="7.04207">
        <ele>1670.98</ele>
        <time>2018-05-11T05:00:29Z</time>
      </trkpt>
      <trkpt lat="44.2584" lon="7.04191">
        <ele>1672.51</ele>
        <time>2018-05-11T05:00:47Z</time>
      </trkpt>
      <trkpt lat="44.25834" lon="7.04171">
        <ele>1673.74</ele>
        <time>2018-05-11T05:01:11Z</time>
      </trkpt>
      <trkpt lat="44.25834" lon="7.04168">
        <ele>1673.85</ele>
        <time>2018-05-11T05:01:39Z</time>
      </trkpt>
      <trkpt lat="44.2583" lon="7.04166">
        <ele>1673.21</ele>
        <time>2018-05-11T05:02:00Z</time>
      </trkpt>
      <trkpt lat="44.25831" lon="7.04167">
        <ele>1673.18</ele>
        <time>2018-05-11T05:02:24Z</time>
      </trkpt>
      <trkpt lat="44.25833" lon="7.04166">
        <ele>1673.49</ele>
        <time>2018-05-11T05:02:46Z</time>
      </trkpt>
      <trkpt lat="44.25834" lon="7.04163">
        <ele>1673.12</ele>
        <time>2018-05-11T05:02:56Z</time>
      </trkpt>
      <trkpt lat="44.25837" lon="7.04155">
        <ele>1670.35</ele>
        <time>2018-05-11T05:03:08Z</time>
      </trkpt>
      <trkpt lat="44.25836" lon="7.04147">
        <ele>1670.99</ele>
        <time>2018-05-11T05:03:29Z</time>
      </trkpt>
      <trkpt lat="44.25831" lon="7.04135">
        <ele>1672.49</ele>
        <time>2018-05-11T05:03:49Z</time>
      </trkpt>
      <trkpt lat="44.25822" lon="7.04127">
        <ele>1674.52</ele>
        <time>2018-05-11T05:04:14Z</time>
      </trkpt>
      <trkpt lat="44.25822" lon="7.04116">
        <ele>1674.98</ele>
        <time>2018-05-11T05:04:26Z</time>
      </trkpt>
      <trkpt lat="44.25821" lon="7.04112">
        <ele>1675.15</ele>
        <time>2018-05-11T05:04:30Z</time>
      </trkpt>
      <trkpt lat="44.25819" lon="7.04101">
        <ele>1676.49</ele>
        <time>2018-05-11T05:04:45Z</time>
      </trkpt>
      <trkpt lat="44.25821" lon="7.04096">
        <ele>1677.27</ele>
        <time>2018-05-11T05:04:59Z</time>
      </trkpt>
      <trkpt lat="44.25816" lon="7.0408">
        <ele>1678.78</ele>
        <time>2018-05-11T05:05:20Z</time>
      </trkpt>
      <trkpt lat="44.25815" lon="7.04065">
        <ele>1680.45</ele>
        <time>2018-05-11T05:05:39Z</time>
      </trkpt>
      <trkpt lat="44.25814" lon="7.04053">
        <ele>1682.27</ele>
        <time>2018-05-11T05:05:59Z</time>
      </trkpt>
      <trkpt lat="44.25806" lon="7.04039">
        <ele>1684.58</ele>
        <time>2018-05-11T05:06:22Z</time>
      </trkpt>
      <trkpt lat="44.25804" lon="7.04033">
        <ele>1685.94</ele>
        <time>2018-05-11T05:06:35Z</time>
      </trkpt>
      <trkpt lat="44.25802" lon="7.04012">
        <ele>1688.33</ele>
        <time>2018-05-11T05:07:00Z</time>
      </trkpt>
      <trkpt lat="44.25796" lon="7.03995">
        <ele>1690.22</ele>
        <time>2018-05-11T05:07:21Z</time>
      </trkpt>
      <trkpt lat="44.25791" lon="7.03979">
        <ele>1692.25</ele>
        <time>2018-05-11T05:07:41Z</time>
      </trkpt>
      <trkpt lat="44.25787" lon="7.03964">
        <ele>1694.67</ele>
        <time>2018-05-11T05:08:02Z</time>
      </trkpt>
      <trkpt lat="44.2578" lon="7.0395">
        <ele>1696.94</ele>
        <time>2018-05-11T05:08:23Z</time>
      </trkpt>
      <trkpt lat="44.25776" lon="7.03935">
        <ele>1697.98</ele>
        <time>2018-05-11T05:08:42Z</time>
      </trkpt>
      <trkpt lat="44.25776" lon="7.03919">
        <ele>1700.83</ele>
        <time>2018-05-11T05:09:04Z</time>
      </trkpt>
      <trkpt lat="44.25769" lon="7.03906">
        <ele>1703.23</ele>
        <time>2018-05-11T05:09:26Z</time>
      </trkpt>
      <trkpt lat="44.25761" lon="7.03896">
        <ele>1703.57</ele>
        <time>2018-05-11T05:09:42Z</time>
      </trkpt>
      <trkpt lat="44.25754" lon="7.03886">
        <ele>1704.33</ele>
        <time>2018-05-11T05:09:57Z</time>
      </trkpt>
      <trkpt lat="44.25746" lon="7.03872">
        <ele>1706.01</ele>
        <time>2018-05-11T05:10:18Z</time>
      </trkpt>
      <trkpt lat="44.25742" lon="7.03849">
        <ele>1707.24</ele>
        <time>2018-05-11T05:10:42Z</time>
      </trkpt>
      <trkpt lat="44.25735" lon="7.03838">
        <ele>1709.08</ele>
        <time>2018-05-11T05:10:57Z</time>
      </trkpt>
      <trkpt lat="44.25729" lon="7.03828">
        <ele>1710.86</ele>
        <time>2018-05-11T05:11:15Z</time>
      </trkpt>
      <trkpt lat="44.25726" lon="7.03815">
        <ele>1713.11</ele>
        <time>2018-05-11T05:11:36Z</time>
      </trkpt>
      <trkpt lat="44.25721" lon="7.03802">
        <ele>1715.88</ele>
        <time>2018-05-11T05:11:58Z</time>
      </trkpt>
      <trkpt lat="44.25713" lon="7.03789">
        <ele>1718.02</ele>
        <time>2018-05-11T05:12:17Z</time>
      </trkpt>
      <trkpt lat="44.25706" lon="7.03772">
        <ele>1719.91</ele>
        <time>2018-05-11T05:12:37Z</time>
      </trkpt>
      <trkpt lat="44.25704" lon="7.03758">
        <ele>1721.93</ele>
        <time>2018-05-11T05:12:57Z</time>
      </trkpt>
      <trkpt lat="44.257" lon="7.03755">
        <ele>1724.23</ele>
        <time>2018-05-11T05:13:16Z</time>
      </trkpt>
      <trkpt lat="44.25695" lon="7.03756">
        <ele>1725.27</ele>
        <time>2018-05-11T05:13:37Z</time>
      </trkpt>
      <trkpt lat="44.25689" lon="7.03745">
        <ele>1723.85</ele>
        <time>2018-05-11T05:13:59Z</time>
      </trkpt>
      <trkpt lat="44.2568" lon="7.03731">
        <ele>1723.62</ele>
        <time>2018-05-11T05:14:20Z</time>
      </trkpt>
      <trkpt lat="44.25677" lon="7.03714">
        <ele>1723.92</ele>
        <time>2018-05-11T05:14:40Z</time>
      </trkpt>
      <trkpt lat="44.25671" lon="7.03717">
        <ele>1725.5</ele>
        <time>2018-05-11T05:15:08Z</time>
      </trkpt>
      <trkpt lat="44.25665" lon="7.03715">
        <ele>1727.25</ele>
        <time>2018-05-11T05:15:25Z</time>
      </trkpt>
      <trkpt lat="44.25658" lon="7.03696">
        <ele>1727.97</ele>
        <time>2018-05-11T05:15:45Z</time>
      </trkpt>
      <trkpt lat="44.25654" lon="7.03685">
        <ele>1728.82</ele>
        <time>2018-05-11T05:16:07Z</time>
      </trkpt>
      <trkpt lat="44.25654" lon="7.03696">
        <ele>1730.85</ele>
        <time>2018-05-11T05:16:27Z</time>
      </trkpt>
      <trkpt lat="44.25646" lon="7.03692">
        <ele>1733.34</ele>
        <time>2018-05-11T05:16:46Z</time>
      </trkpt>
      <trkpt lat="44.25632" lon="7.03682">
        <ele>1735.9</ele>
        <time>2018-05-11T05:17:05Z</time>
      </trkpt>
      <trkpt lat="44.25633" lon="7.03662">
        <ele>1737.35</ele>
        <time>2018-05-11T05:17:23Z</time>
      </trkpt>
      <trkpt lat="44.25633" lon="7.03645">
        <ele>1738.83</ele>
        <time>2018-05-11T05:17:47Z</time>
      </trkpt>
      <trkpt lat="44.25631" lon="7.03644">
        <ele>1738.56</ele>
        <time>2018-05-11T05:18:05Z</time>
      </trkpt>
      <trkpt lat="44.2563" lon="7.03641">
        <ele>1738.65</ele>
        <time>2018-05-11T05:18:30Z</time>
      </trkpt>
      <trkpt lat="44.25633" lon="7.03624">
        <ele>1741.43</ele>
        <time>2018-05-11T05:18:52Z</time>
      </trkpt>
      <trkpt lat="44.25635" lon="7.03611">
        <ele>1743.83</ele>
        <time>2018-05-11T05:19:14Z</time>
      </trkpt>
      <trkpt lat="44.25637" lon="7.03594">
        <ele>1744.81</ele>
        <time>2018-05-11T05:19:35Z</time>
      </trkpt>
      <trkpt lat="44.25637" lon="7.03587">
        <ele>1745.61</ele>
        <time>2018-05-11T05:19:53Z</time>
      </trkpt>
      <trkpt lat="44.25635" lon="7.03574">
        <ele>1745.39</ele>
        <time>2018-05-11T05:20:12Z</time>
      </trkpt>
      <trkpt lat="44.25634" lon="7.03551">
        <ele>1746.35</ele>
        <time>2018-05-11T05:20:33Z</time>
      </trkpt>
      <trkpt lat="44.25638" lon="7.03533">
        <ele>1745.88</ele>
        <time>2018-05-11T05:20:53Z</time>
      </trkpt>
      <trkpt lat="44.25637" lon="7.0352">
        <ele>1746.68</ele>
        <time>2018-05-11T05:21:10Z</time>
      </trkpt>
      <trkpt lat="44.25636" lon="7.03498">
        <ele>1748.47</ele>
        <time>2018-05-11T05:21:31Z</time>
      </trkpt>
      <trkpt lat="44.25634" lon="7.03486">
        <ele>1749.53</ele>
        <time>2018-05-11T05:21:42Z</time>
      </trkpt>
      <trkpt lat="44.25632" lon="7.03475">
        <ele>1749.92</ele>
        <time>2018-05-11T05:22:01Z</time>
      </trkpt>
      <trkpt lat="44.25633" lon="7.0347">
        <ele>1749.88</ele>
        <time>2018-05-11T05:22:06Z</time>
      </trkpt>
      <trkpt lat="44.25638" lon="7.03452">
        <ele>1746.71</ele>
        <time>2018-05-11T05:22:15Z</time>
      </trkpt>
      <trkpt lat="44.25633" lon="7.03448">
        <ele>1747.49</ele>
        <time>2018-05-11T05:22:34Z</time>
      </trkpt>
      <trkpt lat="44.25627" lon="7.03441">
        <ele>1750.39</ele>
        <time>2018-05-11T05:22:53Z</time>
      </trkpt>
      <trkpt lat="44.25619" lon="7.03427">
        <ele>1752.93</ele>
        <time>2018-05-11T05:23:15Z</time>
      </trkpt>
      <trkpt lat="44.25613" lon="7.03415">
        <ele>1755.58</ele>
        <time>2018-05-11T05:23:35Z</time>
      </trkpt>
      <trkpt lat="44.25608" lon="7.03404">
        <ele>1758.14</ele>
        <time>2018-05-11T05:23:54Z</time>
      </trkpt>
      <trkpt lat="44.25601" lon="7.0339">
        <ele>1761.06</ele>
        <time>2018-05-11T05:24:15Z</time>
      </trkpt>
      <trkpt lat="44.25594" lon="7.03378">
        <ele>1763.05</ele>
        <time>2018-05-11T05:24:33Z</time>
      </trkpt>
      <trkpt lat="44.25587" lon="7.03363">
        <ele>1764.97</ele>
        <time>2018-05-11T05:24:52Z</time>
      </trkpt>
      <trkpt lat="44.25579" lon="7.03348">
        <ele>1767.21</ele>
        <time>2018-05-11T05:25:12Z</time>
      </trkpt>
      <trkpt lat="44.25573" lon="7.03334">
        <ele>1769.84</ele>
        <time>2018-05-11T05:25:30Z</time>
      </trkpt>
      <trkpt lat="44.25568" lon="7.03326">
        <ele>1770.76</ele>
        <time>2018-05-11T05:25:48Z</time>
      </trkpt>
      <trkpt lat="44.25554" lon="7.03311">
        <ele>1770.69</ele>
        <time>2018-05-11T05:26:09Z</time>
      </trkpt>
      <trkpt lat="44.25547" lon="7.033">
        <ele>1771.43</ele>
        <time>2018-05-11T05:26:27Z</time>
      </trkpt>
      <trkpt lat="44.25541" lon="7.03283">
        <ele>1772.39</ele>
        <time>2018-05-11T05:26:44Z</time>
      </trkpt>
      <trkpt lat="44.25534" lon="7.0327">
        <ele>1774.22</ele>
        <time>2018-05-11T05:27:00Z</time>
      </trkpt>
      <trkpt lat="44.25525" lon="7.03256">
        <ele>1776.01</ele>
        <time>2018-05-11T05:27:18Z</time>
      </trkpt>
      <trkpt lat="44.25516" lon="7.03249">
        <ele>1777.4</ele>
        <time>2018-05-11T05:27:33Z</time>
      </trkpt>
      <trkpt lat="44.2551" lon="7.03237">
        <ele>1780.46</ele>
        <time>2018-05-11T05:27:53Z</time>
      </trkpt>
      <trkpt lat="44.255" lon="7.03228">
        <ele>1782.82</ele>
        <time>2018-05-11T05:28:11Z</time>
      </trkpt>
      <trkpt lat="44.25491" lon="7.03219">
        <ele>1784.77</ele>
        <time>2018-05-11T05:28:27Z</time>
      </trkpt>
      <trkpt lat="44.25484" lon="7.03205">
        <ele>1787.09</ele>
        <time>2018-05-11T05:28:46Z</time>
      </trkpt>
      <trkpt lat="44.25478" lon="7.03186">
        <ele>1788.76</ele>
        <time>2018-05-11T05:29:09Z</time>
      </trkpt>
      <trkpt lat="44.25474" lon="7.03173">
        <ele>1790.51</ele>
        <time>2018-05-11T05:29:27Z</time>
      </trkpt>
      <trkpt lat="44.2547" lon="7.03159">
        <ele>1792.81</ele>
        <time>2018-05-11T05:29:45Z</time>
      </trkpt>
      <trkpt lat="44.25463" lon="7.03148">
        <ele>1795.22</ele>
        <time>2018-05-11T05:30:04Z</time>
      </trkpt>
      <trkpt lat="44.25456" lon="7.03135">
        <ele>1797.51</ele>
        <time>2018-05-11T05:30:23Z</time>
      </trkpt>
      <trkpt lat="44.25451" lon="7.03124">
        <ele>1799.88</ele>
        <time>2018-05-11T05:30:41Z</time>
      </trkpt>
      <trkpt lat="44.25445" lon="7.03112">
        <ele>1801.82</ele>
        <time>2018-05-11T05:30:58Z</time>
      </trkpt>
      <trkpt lat="44.25438" lon="7.03101">
        <ele>1803.88</ele>
        <time>2018-05-11T05:31:17Z</time>
      </trkpt>
      <trkpt lat="44.25432" lon="7.03087">
        <ele>1806.37</ele>
        <time>2018-05-11T05:31:38Z</time>
      </trkpt>
      <trkpt lat="44.25427" lon="7.03071">
        <ele>1809.01</ele>
        <time>2018-05-11T05:32:00Z</time>
      </trkpt>
      <trkpt lat="44.25423" lon="7.03062">
        <ele>1811.27</ele>
        <time>2018-05-11T05:32:15Z</time>
      </trkpt>
      <trkpt lat="44.25417" lon="7.03049">
        <ele>1813.85</ele>
        <time>2018-05-11T05:32:35Z</time>
      </trkpt>
      <trkpt lat="44.25412" lon="7.03037">
        <ele>1816.14</ele>
        <time>2018-05-11T05:32:55Z</time>
      </trkpt>
      <trkpt lat="44.25406" lon="7.03021">
        <ele>1818.08</ele>
        <time>2018-05-11T05:33:15Z</time>
      </trkpt>
      <trkpt lat="44.25398" lon="7.03008">
        <ele>1819.87</ele>
        <time>2018-05-11T05:33:33Z</time>
      </trkpt>
      <trkpt lat="44.25392" lon="7.03">
        <ele>1822.01</ele>
        <time>2018-05-11T05:33:49Z</time>
      </trkpt>
      <trkpt lat="44.25385" lon="7.02991">
        <ele>1824.22</ele>
        <time>2018-05-11T05:34:07Z</time>
      </trkpt>
      <trkpt lat="44.25377" lon="7.02983">
        <ele>1825.9</ele>
        <time>2018-05-11T05:34:22Z</time>
      </trkpt>
      <trkpt lat="44.25372" lon="7.02974">
        <ele>1828.6</ele>
        <time>2018-05-11T05:34:40Z</time>
      </trkpt>
      <trkpt lat="44.25366" lon="7.02965">
        <ele>1830.8</ele>
        <time>2018-05-11T05:34:59Z</time>
      </trkpt>
      <trkpt lat="44.25356" lon="7.02958">
        <ele>1832.31</ele>
        <time>2018-05-11T05:35:21Z</time>
      </trkpt>
      <trkpt lat="44.25346" lon="7.02947">
        <ele>1835.11</ele>
        <time>2018-05-11T05:35:43Z</time>
      </trkpt>
      <trkpt lat="44.2534" lon="7.02937">
        <ele>1837.54</ele>
        <time>2018-05-11T05:36:03Z</time>
      </trkpt>
      <trkpt lat="44.25334" lon="7.02927">
        <ele>1839.59</ele>
        <time>2018-05-11T05:36:20Z</time>
      </trkpt>
      <trkpt lat="44.25328" lon="7.02913">
        <ele>1841.36</ele>
        <time>2018-05-11T05:36:39Z</time>
      </trkpt>
      <trkpt lat="44.25329" lon="7.02898">
        <ele>1842.53</ele>
        <time>2018-05-11T05:36:59Z</time>
      </trkpt>
      <trkpt lat="44.25328" lon="7.02893">
        <ele>1842.9</ele>
        <time>2018-05-11T05:37:25Z</time>
      </trkpt>
      <trkpt lat="44.25329" lon="7.02882">
        <ele>1844.7</ele>
        <time>2018-05-11T05:37:37Z</time>
      </trkpt>
      <trkpt lat="44.25326" lon="7.02865">
        <ele>1846.4</ele>
        <time>2018-05-11T05:37:56Z</time>
      </trkpt>
      <trkpt lat="44.25323" lon="7.02849">
        <ele>1848.9</ele>
        <time>2018-05-11T05:38:14Z</time>
      </trkpt>
      <trkpt lat="44.25321" lon="7.0283">
        <ele>1851.14</ele>
        <time>2018-05-11T05:38:34Z</time>
      </trkpt>
      <trkpt lat="44.2532" lon="7.02812">
        <ele>1853.35</ele>
        <time>2018-05-11T05:38:52Z</time>
      </trkpt>
      <trkpt lat="44.25318" lon="7.028">
        <ele>1855.48</ele>
        <time>2018-05-11T05:39:10Z</time>
      </trkpt>
      <trkpt lat="44.25317" lon="7.02784">
        <ele>1857.62</ele>
        <time>2018-05-11T05:39:32Z</time>
      </trkpt>
      <trkpt lat="44.25315" lon="7.02773">
        <ele>1860.69</ele>
        <time>2018-05-11T05:39:49Z</time>
      </trkpt>
      <trkpt lat="44.25314" lon="7.02763">
        <ele>1863.39</ele>
        <time>2018-05-11T05:40:06Z</time>
      </trkpt>
      <trkpt lat="44.25309" lon="7.02751">
        <ele>1865.59</ele>
        <time>2018-05-11T05:40:24Z</time>
      </trkpt>
      <trkpt lat="44.25308" lon="7.02747">
        <ele>1865.58</ele>
        <time>2018-05-11T05:40:31Z</time>
      </trkpt>
      <trkpt lat="44.25305" lon="7.02733">
        <ele>1866.91</ele>
        <time>2018-05-11T05:40:46Z</time>
      </trkpt>
      <trkpt lat="44.25302" lon="7.02715">
        <ele>1869.36</ele>
        <time>2018-05-11T05:41:06Z</time>
      </trkpt>
      <trkpt lat="44.25297" lon="7.02702">
        <ele>1871.34</ele>
        <time>2018-05-11T05:41:22Z</time>
      </trkpt>
      <trkpt lat="44.25294" lon="7.02685">
        <ele>1873.79</ele>
        <time>2018-05-11T05:41:40Z</time>
      </trkpt>
      <trkpt lat="44.2529" lon="7.02674">
        <ele>1876.01</ele>
        <time>2018-05-11T05:41:57Z</time>
      </trkpt>
      <trkpt lat="44.25284" lon="7.02664">
        <ele>1877.35</ele>
        <time>2018-05-11T05:42:13Z</time>
      </trkpt>
      <trkpt lat="44.25279" lon="7.02652">
        <ele>1878.55</ele>
        <time>2018-05-11T05:42:31Z</time>
      </trkpt>
      <trkpt lat="44.25278" lon="7.02631">
        <ele>1880.75</ele>
        <time>2018-05-11T05:42:51Z</time>
      </trkpt>
      <trkpt lat="44.25274" lon="7.0261">
        <ele>1882.69</ele>
        <time>2018-05-11T05:43:09Z</time>
      </trkpt>
      <trkpt lat="44.25272" lon="7.02593">
        <ele>1884.73</ele>
        <time>2018-05-11T05:43:26Z</time>
      </trkpt>
      <trkpt lat="44.25268" lon="7.02581">
        <ele>1886.24</ele>
        <time>2018-05-11T05:43:45Z</time>
      </trkpt>
      <trkpt lat="44.25264" lon="7.02569">
        <ele>1888.1</ele>
        <time>2018-05-11T05:44:03Z</time>
      </trkpt>
      <trkpt lat="44.25261" lon="7.0256">
        <ele>1889.19</ele>
        <time>2018-05-11T05:44:16Z</time>
      </trkpt>
      <trkpt lat="44.25255" lon="7.0255">
        <ele>1891.07</ele>
        <time>2018-05-11T05:44:31Z</time>
      </trkpt>
      <trkpt lat="44.25242" lon="7.02541">
        <ele>1892.68</ele>
        <time>2018-05-11T05:44:49Z</time>
      </trkpt>
      <trkpt lat="44.25234" lon="7.02529">
        <ele>1894.67</ele>
        <time>2018-05-11T05:45:06Z</time>
      </trkpt>
      <trkpt lat="44.2523" lon="7.02522">
        <ele>1895.86</ele>
        <time>2018-05-11T05:45:21Z</time>
      </trkpt>
      <trkpt lat="44.25223" lon="7.02511">
        <ele>1897.63</ele>
        <time>2018-05-11T05:45:42Z</time>
      </trkpt>
      <trkpt lat="44.2522" lon="7.02506">
        <ele>1898.13</ele>
        <time>2018-05-11T05:46:01Z</time>
      </trkpt>
      <trkpt lat="44.25209" lon="7.02497">
        <ele>1900.43</ele>
        <time>2018-05-11T05:46:22Z</time>
      </trkpt>
      <trkpt lat="44.25201" lon="7.02487">
        <ele>1902.58</ele>
        <time>2018-05-11T05:46:39Z</time>
      </trkpt>
      <trkpt lat="44.2519" lon="7.02479">
        <ele>1904.53</ele>
        <time>2018-05-11T05:46:56Z</time>
      </trkpt>
      <trkpt lat="44.25178" lon="7.02469">
        <ele>1906.67</ele>
        <time>2018-05-11T05:47:16Z</time>
      </trkpt>
      <trkpt lat="44.25169" lon="7.02464">
        <ele>1908.47</ele>
        <time>2018-05-11T05:47:32Z</time>
      </trkpt>
      <trkpt lat="44.2516" lon="7.02453">
        <ele>1910.3</ele>
        <time>2018-05-11T05:47:48Z</time>
      </trkpt>
      <trkpt lat="44.25158" lon="7.0244">
        <ele>1911.46</ele>
        <time>2018-05-11T05:48:02Z</time>
      </trkpt>
      <trkpt lat="44.25153" lon="7.02426">
        <ele>1914.14</ele>
        <time>2018-05-11T05:48:20Z</time>
      </trkpt>
      <trkpt lat="44.25153" lon="7.02428">
        <ele>1914</ele>
        <time>2018-05-11T05:48:42Z</time>
      </trkpt>
      <trkpt lat="44.25155" lon="7.02428">
        <ele>1913.77</ele>
        <time>2018-05-11T05:49:13Z</time>
      </trkpt>
      <trkpt lat="44.25155" lon="7.02436">
        <ele>1913.68</ele>
        <time>2018-05-11T05:49:41Z</time>
      </trkpt>
      <trkpt lat="44.25153" lon="7.02432">
        <ele>1913.98</ele>
        <time>2018-05-11T05:50:03Z</time>
      </trkpt>
      <trkpt lat="44.25154" lon="7.02424">
        <ele>1914.28</ele>
        <time>2018-05-11T05:50:31Z</time>
      </trkpt>
      <trkpt lat="44.25145" lon="7.0241">
        <ele>1916.8</ele>
        <time>2018-05-11T05:50:48Z</time>
      </trkpt>
      <trkpt lat="44.25136" lon="7.02395">
        <ele>1919.67</ele>
        <time>2018-05-11T05:51:10Z</time>
      </trkpt>
      <trkpt lat="44.25134" lon="7.02397">
        <ele>1919.42</ele>
        <time>2018-05-11T05:51:38Z</time>
      </trkpt>
      <trkpt lat="44.25135" lon="7.02396">
        <ele>1919.74</ele>
        <time>2018-05-11T05:51:51Z</time>
      </trkpt>
      <trkpt lat="44.25136" lon="7.02395">
        <ele>1919.47</ele>
        <time>2018-05-11T05:51:53Z</time>
      </trkpt>
      <trkpt lat="44.25134" lon="7.02389">
        <ele>1920.44</ele>
        <time>2018-05-11T05:52:08Z</time>
      </trkpt>
      <trkpt lat="44.25133" lon="7.02386">
        <ele>1920.9</ele>
        <time>2018-05-11T05:52:10Z</time>
      </trkpt>
      <trkpt lat="44.25128" lon="7.02379">
        <ele>1921.95</ele>
        <time>2018-05-11T05:52:17Z</time>
      </trkpt>
      <trkpt lat="44.25126" lon="7.02375">
        <ele>1922.51</ele>
        <time>2018-05-11T05:52:22Z</time>
      </trkpt>
      <trkpt lat="44.25116" lon="7.02361">
        <ele>1924.71</ele>
        <time>2018-05-11T05:52:39Z</time>
      </trkpt>
      <trkpt lat="44.25111" lon="7.02349">
        <ele>1926.73</ele>
        <time>2018-05-11T05:52:52Z</time>
      </trkpt>
      <trkpt lat="44.25105" lon="7.02335">
        <ele>1928.31</ele>
        <time>2018-05-11T05:53:06Z</time>
      </trkpt>
      <trkpt lat="44.25096" lon="7.02325">
        <ele>1930.58</ele>
        <time>2018-05-11T05:53:23Z</time>
      </trkpt>
      <trkpt lat="44.25094" lon="7.0232">
        <ele>1931.59</ele>
        <time>2018-05-11T05:53:41Z</time>
      </trkpt>
      <trkpt lat="44.25098" lon="7.02308">
        <ele>1932.43</ele>
        <time>2018-05-11T05:54:04Z</time>
      </trkpt>
      <trkpt lat="44.25096" lon="7.02289">
        <ele>1935.37</ele>
        <time>2018-05-11T05:54:23Z</time>
      </trkpt>
      <trkpt lat="44.25093" lon="7.02273">
        <ele>1938.39</ele>
        <time>2018-05-11T05:54:40Z</time>
      </trkpt>
      <trkpt lat="44.25087" lon="7.02263">
        <ele>1940.7</ele>
        <time>2018-05-11T05:54:57Z</time>
      </trkpt>
      <trkpt lat="44.2509" lon="7.02267">
        <ele>1940.55</ele>
        <time>2018-05-11T05:55:24Z</time>
      </trkpt>
      <trkpt lat="44.25088" lon="7.02266">
        <ele>1940.32</ele>
        <time>2018-05-11T05:55:56Z</time>
      </trkpt>
      <trkpt lat="44.25082" lon="7.02255">
        <ele>1943.18</ele>
        <time>2018-05-11T05:56:17Z</time>
      </trkpt>
      <trkpt lat="44.25077" lon="7.02246">
        <ele>1945.61</ele>
        <time>2018-05-11T05:56:34Z</time>
      </trkpt>
      <trkpt lat="44.25075" lon="7.02231">
        <ele>1948.48</ele>
        <time>2018-05-11T05:56:52Z</time>
      </trkpt>
      <trkpt lat="44.25074" lon="7.0222">
        <ele>1951.3</ele>
        <time>2018-05-11T05:57:12Z</time>
      </trkpt>
      <trkpt lat="44.25072" lon="7.02211">
        <ele>1953.81</ele>
        <time>2018-05-11T05:57:28Z</time>
      </trkpt>
      <trkpt lat="44.2507" lon="7.02198">
        <ele>1956.04</ele>
        <time>2018-05-11T05:57:45Z</time>
      </trkpt>
      <trkpt lat="44.25066" lon="7.02187">
        <ele>1959.03</ele>
        <time>2018-05-11T05:58:03Z</time>
      </trkpt>
      <trkpt lat="44.25065" lon="7.02173">
        <ele>1961.22</ele>
        <time>2018-05-11T05:58:20Z</time>
      </trkpt>
      <trkpt lat="44.2506" lon="7.02167">
        <ele>1963.74</ele>
        <time>2018-05-11T05:58:35Z</time>
      </trkpt>
      <trkpt lat="44.25055" lon="7.02163">
        <ele>1966.09</ele>
        <time>2018-05-11T05:58:51Z</time>
      </trkpt>
      <trkpt lat="44.25048" lon="7.02153">
        <ele>1968.85</ele>
        <time>2018-05-11T05:59:10Z</time>
      </trkpt>
      <trkpt lat="44.25041" lon="7.02146">
        <ele>1971.72</ele>
        <time>2018-05-11T05:59:29Z</time>
      </trkpt>
      <trkpt lat="44.25038" lon="7.02139">
        <ele>1973.67</ele>
        <time>2018-05-11T05:59:46Z</time>
      </trkpt>
      <trkpt lat="44.25039" lon="7.0213">
        <ele>1976.8</ele>
        <time>2018-05-11T06:00:04Z</time>
      </trkpt>
      <trkpt lat="44.2503" lon="7.02127">
        <ele>1978.97</ele>
        <time>2018-05-11T06:00:21Z</time>
      </trkpt>
      <trkpt lat="44.25023" lon="7.02126">
        <ele>1981.49</ele>
        <time>2018-05-11T06:00:38Z</time>
      </trkpt>
      <trkpt lat="44.2502" lon="7.02115">
        <ele>1983.79</ele>
        <time>2018-05-11T06:00:53Z</time>
      </trkpt>
      <trkpt lat="44.25017" lon="7.02107">
        <ele>1986.08</ele>
        <time>2018-05-11T06:01:09Z</time>
      </trkpt>
      <trkpt lat="44.25017" lon="7.02096">
        <ele>1988.41</ele>
        <time>2018-05-11T06:01:25Z</time>
      </trkpt>
      <trkpt lat="44.25015" lon="7.02088">
        <ele>1990.65</ele>
        <time>2018-05-11T06:01:41Z</time>
      </trkpt>
      <trkpt lat="44.25009" lon="7.02078">
        <ele>1993.54</ele>
        <time>2018-05-11T06:02:00Z</time>
      </trkpt>
      <trkpt lat="44.25003" lon="7.02071">
        <ele>1995.52</ele>
        <time>2018-05-11T06:02:17Z</time>
      </trkpt>
      <trkpt lat="44.24995" lon="7.0207">
        <ele>1998.25</ele>
        <time>2018-05-11T06:02:36Z</time>
      </trkpt>
      <trkpt lat="44.24992" lon="7.02061">
        <ele>2000.2</ele>
        <time>2018-05-11T06:02:51Z</time>
      </trkpt>
      <trkpt lat="44.2499" lon="7.02052">
        <ele>2002.94</ele>
        <time>2018-05-11T06:03:07Z</time>
      </trkpt>
      <trkpt lat="44.24986" lon="7.02042">
        <ele>2004.99</ele>
        <time>2018-05-11T06:03:23Z</time>
      </trkpt>
      <trkpt lat="44.24979" lon="7.02038">
        <ele>2007.36</ele>
        <time>2018-05-11T06:03:39Z</time>
      </trkpt>
      <trkpt lat="44.24972" lon="7.02032">
        <ele>2009.84</ele>
        <time>2018-05-11T06:03:58Z</time>
      </trkpt>
      <trkpt lat="44.24966" lon="7.02024">
        <ele>2011.87</ele>
        <time>2018-05-11T06:04:15Z</time>
      </trkpt>
      <trkpt lat="44.2496" lon="7.02015">
        <ele>2013.96</ele>
        <time>2018-05-11T06:04:32Z</time>
      </trkpt>
      <trkpt lat="44.24953" lon="7.02008">
        <ele>2015.74</ele>
        <time>2018-05-11T06:04:47Z</time>
      </trkpt>
      <trkpt lat="44.24946" lon="7.01998">
        <ele>2018.52</ele>
        <time>2018-05-11T06:05:07Z</time>
      </trkpt>
      <trkpt lat="44.24941" lon="7.01991">
        <ele>2020.52</ele>
        <time>2018-05-11T06:05:21Z</time>
      </trkpt>
      <trkpt lat="44.24935" lon="7.01977">
        <ele>2023.36</ele>
        <time>2018-05-11T06:05:42Z</time>
      </trkpt>
      <trkpt lat="44.24927" lon="7.0197">
        <ele>2024.97</ele>
        <time>2018-05-11T06:05:57Z</time>
      </trkpt>
      <trkpt lat="44.24922" lon="7.01951">
        <ele>2026.98</ele>
        <time>2018-05-11T06:06:16Z</time>
      </trkpt>
      <trkpt lat="44.24911" lon="7.01943">
        <ele>2029.02</ele>
        <time>2018-05-11T06:06:33Z</time>
      </trkpt>
      <trkpt lat="44.24897" lon="7.01942">
        <ele>2030.73</ele>
        <time>2018-05-11T06:06:50Z</time>
      </trkpt>
      <trkpt lat="44.2489" lon="7.01932">
        <ele>2033.02</ele>
        <time>2018-05-11T06:07:07Z</time>
      </trkpt>
      <trkpt lat="44.24893" lon="7.01925">
        <ele>2033.72</ele>
        <time>2018-05-11T06:07:29Z</time>
      </trkpt>
      <trkpt lat="44.24889" lon="7.01926">
        <ele>2033.75</ele>
        <time>2018-05-11T06:07:50Z</time>
      </trkpt>
      <trkpt lat="44.24889" lon="7.01927">
        <ele>2033.44</ele>
        <time>2018-05-11T06:08:13Z</time>
      </trkpt>
      <trkpt lat="44.24886" lon="7.01929">
        <ele>2033.88</ele>
        <time>2018-05-11T06:08:18Z</time>
      </trkpt>
      <trkpt lat="44.24888" lon="7.01932">
        <ele>2033.95</ele>
        <time>2018-05-11T06:08:20Z</time>
      </trkpt>
      <trkpt lat="44.24889" lon="7.01936">
        <ele>2033.89</ele>
        <time>2018-05-11T06:08:23Z</time>
      </trkpt>
      <trkpt lat="44.24885" lon="7.01952">
        <ele>2033.44</ele>
        <time>2018-05-11T06:08:46Z</time>
      </trkpt>
      <trkpt lat="44.24882" lon="7.01959">
        <ele>2033.2</ele>
        <time>2018-05-11T06:09:15Z</time>
      </trkpt>
      <trkpt lat="44.2488" lon="7.0196">
        <ele>2033.42</ele>
        <time>2018-05-11T06:09:45Z</time>
      </trkpt>
      <trkpt lat="44.24881" lon="7.0196">
        <ele>2033.11</ele>
        <time>2018-05-11T06:10:14Z</time>
      </trkpt>
      <trkpt lat="44.24883" lon="7.01962">
        <ele>2033.33</ele>
        <time>2018-05-11T06:10:42Z</time>
      </trkpt>
      <trkpt lat="44.24882" lon="7.0196">
        <ele>2033.08</ele>
        <time>2018-05-11T06:11:09Z</time>
      </trkpt>
      <trkpt lat="44.24881" lon="7.01959">
        <ele>2033.24</ele>
        <time>2018-05-11T06:11:34Z</time>
      </trkpt>
      <trkpt lat="44.24884" lon="7.01961">
        <ele>2033.11</ele>
        <time>2018-05-11T06:11:59Z</time>
      </trkpt>
      <trkpt lat="44.24885" lon="7.01958">
        <ele>2033.02</ele>
        <time>2018-05-11T06:12:29Z</time>
      </trkpt>
      <trkpt lat="44.24885" lon="7.01958">
        <ele>2033.39</ele>
        <time>2018-05-11T06:12:52Z</time>
      </trkpt>
      <trkpt lat="44.24884" lon="7.01959">
        <ele>2033.2</ele>
        <time>2018-05-11T06:13:19Z</time>
      </trkpt>
      <trkpt lat="44.24884" lon="7.01959">
        <ele>2032.58</ele>
        <time>2018-05-11T06:13:44Z</time>
      </trkpt>
      <trkpt lat="44.24883" lon="7.01962">
        <ele>2033.29</ele>
        <time>2018-05-11T06:14:11Z</time>
      </trkpt>
      <trkpt lat="44.24883" lon="7.01961">
        <ele>2033.09</ele>
        <time>2018-05-11T06:14:39Z</time>
      </trkpt>
      <trkpt lat="44.24884" lon="7.0196">
        <ele>2032.49</ele>
        <time>2018-05-11T06:15:05Z</time>
      </trkpt>
      <trkpt lat="44.24886" lon="7.01959">
        <ele>2033.43</ele>
        <time>2018-05-11T06:15:28Z</time>
      </trkpt>
      <trkpt lat="44.24886" lon="7.01958">
        <ele>2033.06</ele>
        <time>2018-05-11T06:15:52Z</time>
      </trkpt>
      <trkpt lat="44.24885" lon="7.0196">
        <ele>2033.22</ele>
        <time>2018-05-11T06:16:14Z</time>
      </trkpt>
      <trkpt lat="44.24886" lon="7.0196">
        <ele>2033.47</ele>
        <time>2018-05-11T06:16:42Z</time>
      </trkpt>
      <trkpt lat="44.24885" lon="7.01959">
        <ele>2033.42</ele>
        <time>2018-05-11T06:17:07Z</time>
      </trkpt>
      <trkpt lat="44.24886" lon="7.0196">
        <ele>2033.41</ele>
        <time>2018-05-11T06:17:32Z</time>
      </trkpt>
      <trkpt lat="44.24885" lon="7.01959">
        <ele>2033.47</ele>
        <time>2018-05-11T06:17:59Z</time>
      </trkpt>
      <trkpt lat="44.24885" lon="7.01959">
        <ele>2033.75</ele>
        <time>2018-05-11T06:18:29Z</time>
      </trkpt>
      <trkpt lat="44.24885" lon="7.01958">
        <ele>2033.76</ele>
        <time>2018-05-11T06:19:02Z</time>
      </trkpt>
      <trkpt lat="44.24884" lon="7.01958">
        <ele>2033.87</ele>
        <time>2018-05-11T06:19:29Z</time>
      </trkpt>
      <trkpt lat="44.24879" lon="7.01946">
        <ele>2035.82</ele>
        <time>2018-05-11T06:19:46Z</time>
      </trkpt>
      <trkpt lat="44.24877" lon="7.01936">
        <ele>2038.3</ele>
        <time>2018-05-11T06:20:04Z</time>
      </trkpt>
      <trkpt lat="44.24872" lon="7.01926">
        <ele>2041.15</ele>
        <time>2018-05-11T06:20:26Z</time>
      </trkpt>
      <trkpt lat="44.24863" lon="7.01929">
        <ele>2043.06</ele>
        <time>2018-05-11T06:20:46Z</time>
      </trkpt>
      <trkpt lat="44.24856" lon="7.01934">
        <ele>2045.24</ele>
        <time>2018-05-11T06:21:07Z</time>
      </trkpt>
      <trkpt lat="44.24851" lon="7.01932">
        <ele>2046.72</ele>
        <time>2018-05-11T06:21:25Z</time>
      </trkpt>
      <trkpt lat="44.24852" lon="7.01919">
        <ele>2049.62</ele>
        <time>2018-05-11T06:21:48Z</time>
      </trkpt>
      <trkpt lat="44.24848" lon="7.01919">
        <ele>2052.16</ele>
        <time>2018-05-11T06:22:08Z</time>
      </trkpt>
      <trkpt lat="44.24841" lon="7.01924">
        <ele>2054.1</ele>
        <time>2018-05-11T06:22:27Z</time>
      </trkpt>
      <trkpt lat="44.24836" lon="7.01928">
        <ele>2055.78</ele>
        <time>2018-05-11T06:22:50Z</time>
      </trkpt>
      <trkpt lat="44.24834" lon="7.01932">
        <ele>2056.5</ele>
        <time>2018-05-11T06:23:22Z</time>
      </trkpt>
      <trkpt lat="44.24834" lon="7.01926">
        <ele>2057.75</ele>
        <time>2018-05-11T06:23:36Z</time>
      </trkpt>
      <trkpt lat="44.24831" lon="7.01917">
        <ele>2060.81</ele>
        <time>2018-05-11T06:23:50Z</time>
      </trkpt>
      <trkpt lat="44.2483" lon="7.01907">
        <ele>2063.26</ele>
        <time>2018-05-11T06:24:07Z</time>
      </trkpt>
      <trkpt lat="44.24829" lon="7.01906">
        <ele>2063.88</ele>
        <time>2018-05-11T06:24:38Z</time>
      </trkpt>
      <trkpt lat="44.2483" lon="7.01897">
        <ele>2064.56</ele>
        <time>2018-05-11T06:25:06Z</time>
      </trkpt>
      <trkpt lat="44.24824" lon="7.01902">
        <ele>2067.34</ele>
        <time>2018-05-11T06:25:24Z</time>
      </trkpt>
      <trkpt lat="44.24816" lon="7.01906">
        <ele>2070.35</ele>
        <time>2018-05-11T06:25:42Z</time>
      </trkpt>
      <trkpt lat="44.24809" lon="7.01911">
        <ele>2072.72</ele>
        <time>2018-05-11T06:25:59Z</time>
      </trkpt>
      <trkpt lat="44.24804" lon="7.01917">
        <ele>2074.89</ele>
        <time>2018-05-11T06:26:18Z</time>
      </trkpt>
      <trkpt lat="44.24803" lon="7.01923">
        <ele>2076.41</ele>
        <time>2018-05-11T06:26:37Z</time>
      </trkpt>
      <trkpt lat="44.24801" lon="7.01927">
        <ele>2076.71</ele>
        <time>2018-05-11T06:27:05Z</time>
      </trkpt>
      <trkpt lat="44.24797" lon="7.01924">
        <ele>2078.4</ele>
        <time>2018-05-11T06:27:25Z</time>
      </trkpt>
      <trkpt lat="44.24797" lon="7.01923">
        <ele>2078.96</ele>
        <time>2018-05-11T06:27:52Z</time>
      </trkpt>
      <trkpt lat="44.24797" lon="7.01919">
        <ele>2079.4</ele>
        <time>2018-05-11T06:28:14Z</time>
      </trkpt>
      <trkpt lat="44.24795" lon="7.01908">
        <ele>2082.46</ele>
        <time>2018-05-11T06:28:31Z</time>
      </trkpt>
      <trkpt lat="44.24795" lon="7.01897">
        <ele>2085.4</ele>
        <time>2018-05-11T06:28:47Z</time>
      </trkpt>
      <trkpt lat="44.24787" lon="7.019">
        <ele>2088.65</ele>
        <time>2018-05-11T06:29:07Z</time>
      </trkpt>
      <trkpt lat="44.24777" lon="7.01906">
        <ele>2091.6</ele>
        <time>2018-05-11T06:29:27Z</time>
      </trkpt>
      <trkpt lat="44.24768" lon="7.01912">
        <ele>2094.62</ele>
        <time>2018-05-11T06:29:47Z</time>
      </trkpt>
      <trkpt lat="44.24764" lon="7.01914">
        <ele>2097.18</ele>
        <time>2018-05-11T06:30:04Z</time>
      </trkpt>
      <trkpt lat="44.2476" lon="7.01912">
        <ele>2099.34</ele>
        <time>2018-05-11T06:30:23Z</time>
      </trkpt>
      <trkpt lat="44.24757" lon="7.01903">
        <ele>2101.56</ele>
        <time>2018-05-11T06:30:40Z</time>
      </trkpt>
      <trkpt lat="44.24756" lon="7.01893">
        <ele>2104.12</ele>
        <time>2018-05-11T06:30:58Z</time>
      </trkpt>
      <trkpt lat="44.24756" lon="7.01882">
        <ele>2106.14</ele>
        <time>2018-05-11T06:31:17Z</time>
      </trkpt>
      <trkpt lat="44.24756" lon="7.01868">
        <ele>2108.82</ele>
        <time>2018-05-11T06:31:42Z</time>
      </trkpt>
      <trkpt lat="44.24755" lon="7.01865">
        <ele>2110.12</ele>
        <time>2018-05-11T06:32:01Z</time>
      </trkpt>
      <trkpt lat="44.24755" lon="7.01858">
        <ele>2111.04</ele>
        <time>2018-05-11T06:32:29Z</time>
      </trkpt>
      <trkpt lat="44.24748" lon="7.01857">
        <ele>2114.09</ele>
        <time>2018-05-11T06:32:45Z</time>
      </trkpt>
      <trkpt lat="44.2474" lon="7.01858">
        <ele>2116.6</ele>
        <time>2018-05-11T06:33:05Z</time>
      </trkpt>
      <trkpt lat="44.24733" lon="7.01862">
        <ele>2118.79</ele>
        <time>2018-05-11T06:33:28Z</time>
      </trkpt>
      <trkpt lat="44.24726" lon="7.01857">
        <ele>2121</ele>
        <time>2018-05-11T06:33:48Z</time>
      </trkpt>
      <trkpt lat="44.24727" lon="7.01845">
        <ele>2123.47</ele>
        <time>2018-05-11T06:34:07Z</time>
      </trkpt>
      <trkpt lat="44.24726" lon="7.01835">
        <ele>2126.49</ele>
        <time>2018-05-11T06:34:27Z</time>
      </trkpt>
      <trkpt lat="44.24726" lon="7.01825">
        <ele>2128.4</ele>
        <time>2018-05-11T06:34:42Z</time>
      </trkpt>
      <trkpt lat="44.24725" lon="7.01816">
        <ele>2131.07</ele>
        <time>2018-05-11T06:35:02Z</time>
      </trkpt>
      <trkpt lat="44.24724" lon="7.01807">
        <ele>2133.8</ele>
        <time>2018-05-11T06:35:20Z</time>
      </trkpt>
      <trkpt lat="44.24722" lon="7.01794">
        <ele>2136.93</ele>
        <time>2018-05-11T06:35:40Z</time>
      </trkpt>
      <trkpt lat="44.24719" lon="7.01783">
        <ele>2139.85</ele>
        <time>2018-05-11T06:35:58Z</time>
      </trkpt>
      <trkpt lat="44.24716" lon="7.01769">
        <ele>2142.93</ele>
        <time>2018-05-11T06:36:17Z</time>
      </trkpt>
      <trkpt lat="44.24713" lon="7.0176">
        <ele>2146.16</ele>
        <time>2018-05-11T06:36:32Z</time>
      </trkpt>
      <trkpt lat="44.24702" lon="7.01766">
        <ele>2149.22</ele>
        <time>2018-05-11T06:36:52Z</time>
      </trkpt>
      <trkpt lat="44.2469" lon="7.01773">
        <ele>2152.35</ele>
        <time>2018-05-11T06:37:11Z</time>
      </trkpt>
      <trkpt lat="44.24686" lon="7.0177">
        <ele>2154.16</ele>
        <time>2018-05-11T06:37:27Z</time>
      </trkpt>
      <trkpt lat="44.24687" lon="7.01756">
        <ele>2157.2</ele>
        <time>2018-05-11T06:37:45Z</time>
      </trkpt>
      <trkpt lat="44.24686" lon="7.01745">
        <ele>2160.1</ele>
        <time>2018-05-11T06:38:02Z</time>
      </trkpt>
      <trkpt lat="44.24681" lon="7.01743">
        <ele>2162.54</ele>
        <time>2018-05-11T06:38:21Z</time>
      </trkpt>
      <trkpt lat="44.24671" lon="7.01747">
        <ele>2165.55</ele>
        <time>2018-05-11T06:38:38Z</time>
      </trkpt>
      <trkpt lat="44.24666" lon="7.01747">
        <ele>2168.22</ele>
        <time>2018-05-11T06:38:55Z</time>
      </trkpt>
      <trkpt lat="44.24671" lon="7.01732">
        <ele>2169.69</ele>
        <time>2018-05-11T06:39:14Z</time>
      </trkpt>
      <trkpt lat="44.24671" lon="7.01717">
        <ele>2172.73</ele>
        <time>2018-05-11T06:39:34Z</time>
      </trkpt>
      <trkpt lat="44.24669" lon="7.01706">
        <ele>2175.25</ele>
        <time>2018-05-11T06:39:51Z</time>
      </trkpt>
      <trkpt lat="44.24664" lon="7.01712">
        <ele>2177.58</ele>
        <time>2018-05-11T06:40:12Z</time>
      </trkpt>
      <trkpt lat="44.24654" lon="7.01719">
        <ele>2180.76</ele>
        <time>2018-05-11T06:40:32Z</time>
      </trkpt>
      <trkpt lat="44.24643" lon="7.01722">
        <ele>2183.82</ele>
        <time>2018-05-11T06:40:53Z</time>
      </trkpt>
      <trkpt lat="44.24646" lon="7.01713">
        <ele>2185.2</ele>
        <time>2018-05-11T06:41:12Z</time>
      </trkpt>
      <trkpt lat="44.24647" lon="7.01697">
        <ele>2188.23</ele>
        <time>2018-05-11T06:41:31Z</time>
      </trkpt>
      <trkpt lat="44.24644" lon="7.01687">
        <ele>2191.31</ele>
        <time>2018-05-11T06:41:49Z</time>
      </trkpt>
      <trkpt lat="44.24645" lon="7.01673">
        <ele>2194.38</ele>
        <time>2018-05-11T06:42:09Z</time>
      </trkpt>
      <trkpt lat="44.24646" lon="7.01661">
        <ele>2196.87</ele>
        <time>2018-05-11T06:42:28Z</time>
      </trkpt>
      <trkpt lat="44.24647" lon="7.01652">
        <ele>2199.14</ele>
        <time>2018-05-11T06:42:48Z</time>
      </trkpt>
      <trkpt lat="44.24648" lon="7.01641">
        <ele>2202.04</ele>
        <time>2018-05-11T06:43:07Z</time>
      </trkpt>
      <trkpt lat="44.24649" lon="7.0163">
        <ele>2204.5</ele>
        <time>2018-05-11T06:43:26Z</time>
      </trkpt>
      <trkpt lat="44.24651" lon="7.0162">
        <ele>2206.95</ele>
        <time>2018-05-11T06:43:44Z</time>
      </trkpt>
      <trkpt lat="44.24652" lon="7.01607">
        <ele>2209.95</ele>
        <time>2018-05-11T06:44:04Z</time>
      </trkpt>
      <trkpt lat="44.24649" lon="7.01602">
        <ele>2212.24</ele>
        <time>2018-05-11T06:44:28Z</time>
      </trkpt>
      <trkpt lat="44.24645" lon="7.01594">
        <ele>2214.65</ele>
        <time>2018-05-11T06:44:44Z</time>
      </trkpt>
      <trkpt lat="44.24635" lon="7.01592">
        <ele>2217.16</ele>
        <time>2018-05-11T06:44:59Z</time>
      </trkpt>
      <trkpt lat="44.24625" lon="7.01589">
        <ele>2219.67</ele>
        <time>2018-05-11T06:45:16Z</time>
      </trkpt>
      <trkpt lat="44.24628" lon="7.01585">
        <ele>2222.31</ele>
        <time>2018-05-11T06:45:33Z</time>
      </trkpt>
      <trkpt lat="44.24635" lon="7.01577">
        <ele>2225.5</ele>
        <time>2018-05-11T06:45:52Z</time>
      </trkpt>
      <trkpt lat="44.24634" lon="7.01573">
        <ele>2226.68</ele>
        <time>2018-05-11T06:46:11Z</time>
      </trkpt>
      <trkpt lat="44.24635" lon="7.01573">
        <ele>2226.79</ele>
        <time>2018-05-11T06:46:15Z</time>
      </trkpt>
      <trkpt lat="44.24636" lon="7.01571">
        <ele>2226.7</ele>
        <time>2018-05-11T06:46:20Z</time>
      </trkpt>
      <trkpt lat="44.24635" lon="7.01574">
        <ele>2226</ele>
        <time>2018-05-11T06:46:43Z</time>
      </trkpt>
      <trkpt lat="44.24635" lon="7.01575">
        <ele>2226.08</ele>
        <time>2018-05-11T06:47:12Z</time>
      </trkpt>
      <trkpt lat="44.24634" lon="7.01574">
        <ele>2226.21</ele>
        <time>2018-05-11T06:47:42Z</time>
      </trkpt>
      <trkpt lat="44.24634" lon="7.0157">
        <ele>2225.86</ele>
        <time>2018-05-11T06:48:12Z</time>
      </trkpt>
      <trkpt lat="44.24634" lon="7.01574">
        <ele>2225.7</ele>
        <time>2018-05-11T06:48:38Z</time>
      </trkpt>
      <trkpt lat="44.24627" lon="7.01573">
        <ele>2225.94</ele>
        <time>2018-05-11T06:49:10Z</time>
      </trkpt>
      <trkpt lat="44.24634" lon="7.01574">
        <ele>2226.1</ele>
        <time>2018-05-11T06:49:39Z</time>
      </trkpt>
      <trkpt lat="44.24635" lon="7.01573">
        <ele>2226.05</ele>
        <time>2018-05-11T06:50:08Z</time>
      </trkpt>
      <trkpt lat="44.24633" lon="7.01576">
        <ele>2226.11</ele>
        <time>2018-05-11T06:50:36Z</time>
      </trkpt>
      <trkpt lat="44.24631" lon="7.01577">
        <ele>2226.71</ele>
        <time>2018-05-11T06:51:05Z</time>
      </trkpt>
      <trkpt lat="44.24634" lon="7.01582">
        <ele>2226</ele>
        <time>2018-05-11T06:51:32Z</time>
      </trkpt>
      <trkpt lat="44.24631" lon="7.01576">
        <ele>2225.84</ele>
        <time>2018-05-11T06:51:59Z</time>
      </trkpt>
      <trkpt lat="44.2463" lon="7.01574">
        <ele>2225.72</ele>
        <time>2018-05-11T06:52:32Z</time>
      </trkpt>
      <trkpt lat="44.24629" lon="7.01579">
        <ele>2226.18</ele>
        <time>2018-05-11T06:53:05Z</time>
      </trkpt>
      <trkpt lat="44.24631" lon="7.0158">
        <ele>2226.08</ele>
        <time>2018-05-11T06:53:27Z</time>
      </trkpt>
      <trkpt lat="44.2463" lon="7.01579">
        <ele>2225.86</ele>
        <time>2018-05-11T06:54:00Z</time>
      </trkpt>
      <trkpt lat="44.24628" lon="7.01578">
        <ele>2225.34</ele>
        <time>2018-05-11T06:54:27Z</time>
      </trkpt>
      <trkpt lat="44.24628" lon="7.01577">
        <ele>2226.3</ele>
        <time>2018-05-11T06:54:36Z</time>
      </trkpt>
      <trkpt lat="44.2463" lon="7.01579">
        <ele>2225.13</ele>
        <time>2018-05-11T06:55:10Z</time>
      </trkpt>
      <trkpt lat="44.24631" lon="7.01578">
        <ele>2225.41</ele>
        <time>2018-05-11T06:55:37Z</time>
      </trkpt>
      <trkpt lat="44.2463" lon="7.01579">
        <ele>2225.9</ele>
        <time>2018-05-11T06:56:06Z</time>
      </trkpt>
      <trkpt lat="44.2463" lon="7.01579">
        <ele>2226.17</ele>
        <time>2018-05-11T06:56:35Z</time>
      </trkpt>
      <trkpt lat="44.2463" lon="7.0158">
        <ele>2226.16</ele>
        <time>2018-05-11T06:57:06Z</time>
      </trkpt>
      <trkpt lat="44.2463" lon="7.01579">
        <ele>2225.6</ele>
        <time>2018-05-11T06:57:39Z</time>
      </trkpt>
      <trkpt lat="44.24627" lon="7.01563">
        <ele>2227.31</ele>
        <time>2018-05-11T06:57:57Z</time>
      </trkpt>
      <trkpt lat="44.24631" lon="7.01545">
        <ele>2230.11</ele>
        <time>2018-05-11T06:58:20Z</time>
      </trkpt>
      <trkpt lat="44.24635" lon="7.01534">
        <ele>2232.13</ele>
        <time>2018-05-11T06:58:38Z</time>
      </trkpt>
      <trkpt lat="44.24641" lon="7.01524">
        <ele>2234.3</ele>
        <time>2018-05-11T06:58:58Z</time>
      </trkpt>
      <trkpt lat="44.24647" lon="7.01519">
        <ele>2236.6</ele>
        <time>2018-05-11T06:59:16Z</time>
      </trkpt>
      <trkpt lat="44.24655" lon="7.01508">
        <ele>2238.85</ele>
        <time>2018-05-11T06:59:35Z</time>
      </trkpt>
      <trkpt lat="44.24663" lon="7.01499">
        <ele>2241.55</ele>
        <time>2018-05-11T06:59:58Z</time>
      </trkpt>
      <trkpt lat="44.24668" lon="7.01495">
        <ele>2243.61</ele>
        <time>2018-05-11T07:00:16Z</time>
      </trkpt>
      <trkpt lat="44.24672" lon="7.01491">
        <ele>2245.99</ele>
        <time>2018-05-11T07:00:38Z</time>
      </trkpt>
      <trkpt lat="44.24679" lon="7.01483">
        <ele>2248.81</ele>
        <time>2018-05-11T07:00:56Z</time>
      </trkpt>
      <trkpt lat="44.24689" lon="7.01474">
        <ele>2251.34</ele>
        <time>2018-05-11T07:01:18Z</time>
      </trkpt>
      <trkpt lat="44.24694" lon="7.01468">
        <ele>2253.57</ele>
        <time>2018-05-11T07:01:39Z</time>
      </trkpt>
      <trkpt lat="44.247" lon="7.01464">
        <ele>2255.3</ele>
        <time>2018-05-11T07:02:00Z</time>
      </trkpt>
      <trkpt lat="44.24705" lon="7.01459">
        <ele>2257.23</ele>
        <time>2018-05-11T07:02:18Z</time>
      </trkpt>
      <trkpt lat="44.24713" lon="7.01454">
        <ele>2259.1</ele>
        <time>2018-05-11T07:02:40Z</time>
      </trkpt>
      <trkpt lat="44.24721" lon="7.01444">
        <ele>2260.77</ele>
        <time>2018-05-11T07:03:05Z</time>
      </trkpt>
      <trkpt lat="44.24723" lon="7.01439">
        <ele>2262.27</ele>
        <time>2018-05-11T07:03:24Z</time>
      </trkpt>
      <trkpt lat="44.24727" lon="7.01434">
        <ele>2263.52</ele>
        <time>2018-05-11T07:03:43Z</time>
      </trkpt>
      <trkpt lat="44.2473" lon="7.01431">
        <ele>2264.93</ele>
        <time>2018-05-11T07:04:04Z</time>
      </trkpt>
      <trkpt lat="44.24729" lon="7.01431">
        <ele>2265.17</ele>
        <time>2018-05-11T07:04:23Z</time>
      </trkpt>
      <trkpt lat="44.24736" lon="7.0142">
        <ele>2267.36</ele>
        <time>2018-05-11T07:04:42Z</time>
      </trkpt>
      <trkpt lat="44.24741" lon="7.01413">
        <ele>2268.82</ele>
        <time>2018-05-11T07:05:02Z</time>
      </trkpt>
      <trkpt lat="44.24744" lon="7.01414">
        <ele>2270.1</ele>
        <time>2018-05-11T07:05:22Z</time>
      </trkpt>
      <trkpt lat="44.24743" lon="7.01415">
        <ele>2269.91</ele>
        <time>2018-05-11T07:05:47Z</time>
      </trkpt>
      <trkpt lat="44.24749" lon="7.01404">
        <ele>2271.37</ele>
        <time>2018-05-11T07:06:04Z</time>
      </trkpt>
      <trkpt lat="44.24752" lon="7.01399">
        <ele>2272.34</ele>
        <time>2018-05-11T07:06:26Z</time>
      </trkpt>
      <trkpt lat="44.24759" lon="7.01392">
        <ele>2274.53</ele>
        <time>2018-05-11T07:06:49Z</time>
      </trkpt>
      <trkpt lat="44.24764" lon="7.01382">
        <ele>2276.6</ele>
        <time>2018-05-11T07:07:12Z</time>
      </trkpt>
      <trkpt lat="44.24768" lon="7.01379">
        <ele>2278.52</ele>
        <time>2018-05-11T07:07:31Z</time>
      </trkpt>
      <trkpt lat="44.24771" lon="7.01377">
        <ele>2280.19</ele>
        <time>2018-05-11T07:07:53Z</time>
      </trkpt>
      <trkpt lat="44.24775" lon="7.01375">
        <ele>2282.24</ele>
        <time>2018-05-11T07:08:17Z</time>
      </trkpt>
      <trkpt lat="44.24768" lon="7.01375">
        <ele>2283.76</ele>
        <time>2018-05-11T07:08:35Z</time>
      </trkpt>
      <trkpt lat="44.24764" lon="7.01377">
        <ele>2284.1</ele>
        <time>2018-05-11T07:08:58Z</time>
      </trkpt>
      <trkpt lat="44.24771" lon="7.01365">
        <ele>2286.7</ele>
        <time>2018-05-11T07:09:16Z</time>
      </trkpt>
      <trkpt lat="44.2478" lon="7.01356">
        <ele>2288.95</ele>
        <time>2018-05-11T07:09:36Z</time>
      </trkpt>
      <trkpt lat="44.24786" lon="7.01349">
        <ele>2291.31</ele>
        <time>2018-05-11T07:09:56Z</time>
      </trkpt>
      <trkpt lat="44.24792" lon="7.01341">
        <ele>2294.24</ele>
        <time>2018-05-11T07:10:17Z</time>
      </trkpt>
      <trkpt lat="44.248" lon="7.01331">
        <ele>2296.14</ele>
        <time>2018-05-11T07:10:42Z</time>
      </trkpt>
      <trkpt lat="44.24809" lon="7.01323">
        <ele>2298.21</ele>
        <time>2018-05-11T07:11:04Z</time>
      </trkpt>
      <trkpt lat="44.24815" lon="7.01318">
        <ele>2299.8</ele>
        <time>2018-05-11T07:11:18Z</time>
      </trkpt>
      <trkpt lat="44.24826" lon="7.0131">
        <ele>2302.47</ele>
        <time>2018-05-11T07:11:44Z</time>
      </trkpt>
      <trkpt lat="44.24834" lon="7.01311">
        <ele>2303.96</ele>
        <time>2018-05-11T07:11:58Z</time>
      </trkpt>
      <trkpt lat="44.24838" lon="7.01308">
        <ele>2305.05</ele>
        <time>2018-05-11T07:12:21Z</time>
      </trkpt>
      <trkpt lat="44.2484" lon="7.01305">
        <ele>2307.4</ele>
        <time>2018-05-11T07:12:43Z</time>
      </trkpt>
      <trkpt lat="44.24846" lon="7.013">
        <ele>2309.46</ele>
        <time>2018-05-11T07:13:10Z</time>
      </trkpt>
      <trkpt lat="44.24868" lon="7.01305">
        <ele>2312.59</ele>
        <time>2018-05-11T07:13:39Z</time>
      </trkpt>
      <trkpt lat="44.24878" lon="7.01306">
        <ele>2314.99</ele>
        <time>2018-05-11T07:14:03Z</time>
      </trkpt>
      <trkpt lat="44.24882" lon="7.01306">
        <ele>2317.81</ele>
        <time>2018-05-11T07:14:29Z</time>
      </trkpt>
      <trkpt lat="44.24891" lon="7.01307">
        <ele>2320.56</ele>
        <time>2018-05-11T07:14:55Z</time>
      </trkpt>
      <trkpt lat="44.24898" lon="7.01306">
        <ele>2322.13</ele>
        <time>2018-05-11T07:15:18Z</time>
      </trkpt>
      <trkpt lat="44.24914" lon="7.0131">
        <ele>2324.42</ele>
        <time>2018-05-11T07:15:44Z</time>
      </trkpt>
      <trkpt lat="44.24927" lon="7.01309">
        <ele>2326.42</ele>
        <time>2018-05-11T07:16:07Z</time>
      </trkpt>
      <trkpt lat="44.2494" lon="7.01306">
        <ele>2328.79</ele>
        <time>2018-05-11T07:16:29Z</time>
      </trkpt>
      <trkpt lat="44.24951" lon="7.01303">
        <ele>2331.08</ele>
        <time>2018-05-11T07:16:47Z</time>
      </trkpt>
      <trkpt lat="44.24955" lon="7.01299">
        <ele>2331.77</ele>
        <time>2018-05-11T07:17:08Z</time>
      </trkpt>
      <trkpt lat="44.24963" lon="7.01289">
        <ele>2334.88</ele>
        <time>2018-05-11T07:17:27Z</time>
      </trkpt>
      <trkpt lat="44.24973" lon="7.01279">
        <ele>2336.75</ele>
        <time>2018-05-11T07:17:48Z</time>
      </trkpt>
      <trkpt lat="44.24981" lon="7.01271">
        <ele>2339.16</ele>
        <time>2018-05-11T07:18:05Z</time>
      </trkpt>
      <trkpt lat="44.24989" lon="7.01263">
        <ele>2341.54</ele>
        <time>2018-05-11T07:18:23Z</time>
      </trkpt>
      <trkpt lat="44.24993" lon="7.01255">
        <ele>2343.37</ele>
        <time>2018-05-11T07:18:38Z</time>
      </trkpt>
      <trkpt lat="44.24999" lon="7.0125">
        <ele>2344.77</ele>
        <time>2018-05-11T07:18:50Z</time>
      </trkpt>
      <trkpt lat="44.25004" lon="7.01243">
        <ele>2346.69</ele>
        <time>2018-05-11T07:19:04Z</time>
      </trkpt>
      <trkpt lat="44.2501" lon="7.01234">
        <ele>2349.32</ele>
        <time>2018-05-11T07:19:24Z</time>
      </trkpt>
      <trkpt lat="44.25015" lon="7.01225">
        <ele>2351.32</ele>
        <time>2018-05-11T07:19:48Z</time>
      </trkpt>
      <trkpt lat="44.25018" lon="7.01214">
        <ele>2352.64</ele>
        <time>2018-05-11T07:20:11Z</time>
      </trkpt>
      <trkpt lat="44.25031" lon="7.01202">
        <ele>2355.23</ele>
        <time>2018-05-11T07:20:31Z</time>
      </trkpt>
      <trkpt lat="44.25039" lon="7.01199">
        <ele>2356.32</ele>
        <time>2018-05-11T07:20:37Z</time>
      </trkpt>
      <trkpt lat="44.25042" lon="7.01199">
        <ele>2356.51</ele>
        <time>2018-05-11T07:21:05Z</time>
      </trkpt>
      <trkpt lat="44.25039" lon="7.01199">
        <ele>2356.29</ele>
        <time>2018-05-11T07:21:11Z</time>
      </trkpt>
      <trkpt lat="44.25028" lon="7.01198">
        <ele>2357.02</ele>
        <time>2018-05-11T07:21:46Z</time>
      </trkpt>
      <trkpt lat="44.25041" lon="7.01197">
        <ele>2356.49</ele>
        <time>2018-05-11T07:22:07Z</time>
      </trkpt>
      <trkpt lat="44.25042" lon="7.01198">
        <ele>2356.64</ele>
        <time>2018-05-11T07:22:14Z</time>
      </trkpt>
      <trkpt lat="44.25051" lon="7.01203">
        <ele>2356.67</ele>
        <time>2018-05-11T07:22:38Z</time>
      </trkpt>
      <trkpt lat="44.25052" lon="7.01203">
        <ele>2356.76</ele>
        <time>2018-05-11T07:22:49Z</time>
      </trkpt>
      <trkpt lat="44.25044" lon="7.01198">
        <ele>2356.46</ele>
        <time>2018-05-11T07:23:05Z</time>
      </trkpt>
      <trkpt lat="44.25045" lon="7.01197">
        <ele>2357</ele>
        <time>2018-05-11T07:23:34Z</time>
      </trkpt>
      <trkpt lat="44.25036" lon="7.01202">
        <ele>2356.97</ele>
        <time>2018-05-11T07:24:01Z</time>
      </trkpt>
      <trkpt lat="44.25035" lon="7.01205">
        <ele>2356.83</ele>
        <time>2018-05-11T07:24:09Z</time>
      </trkpt>
      <trkpt lat="44.25024" lon="7.012">
        <ele>2356.54</ele>
        <time>2018-05-11T07:24:40Z</time>
      </trkpt>
      <trkpt lat="44.25022" lon="7.012">
        <ele>2356.57</ele>
        <time>2018-05-11T07:25:12Z</time>
      </trkpt>
      <trkpt lat="44.2502" lon="7.01199">
        <ele>2356.22</ele>
        <time>2018-05-11T07:25:37Z</time>
      </trkpt>
      <trkpt lat="44.25021" lon="7.012">
        <ele>2356.01</ele>
        <time>2018-05-11T07:25:58Z</time>
      </trkpt>
      <trkpt lat="44.2502" lon="7.01195">
        <ele>2356.25</ele>
        <time>2018-05-11T07:26:21Z</time>
      </trkpt>
      <trkpt lat="44.2502" lon="7.012">
        <ele>2355.96</ele>
        <time>2018-05-11T07:26:49Z</time>
      </trkpt>
      <trkpt lat="44.25019" lon="7.012">
        <ele>2355.95</ele>
        <time>2018-05-11T07:26:57Z</time>
      </trkpt>
      <trkpt lat="44.25017" lon="7.01195">
        <ele>2355.93</ele>
        <time>2018-05-11T07:27:26Z</time>
      </trkpt>
      <trkpt lat="44.25019" lon="7.01197">
        <ele>2356.03</ele>
        <time>2018-05-11T07:27:58Z</time>
      </trkpt>
      <trkpt lat="44.2503" lon="7.01205">
        <ele>2356.05</ele>
        <time>2018-05-11T07:28:28Z</time>
      </trkpt>
      <trkpt lat="44.25024" lon="7.01197">
        <ele>2356.05</ele>
        <time>2018-05-11T07:29:00Z</time>
      </trkpt>
      <trkpt lat="44.25022" lon="7.01191">
        <ele>2356.09</ele>
        <time>2018-05-11T07:29:35Z</time>
      </trkpt>
      <trkpt lat="44.2502" lon="7.01196">
        <ele>2356.24</ele>
        <time>2018-05-11T07:30:01Z</time>
      </trkpt>
      <trkpt lat="44.25021" lon="7.01198">
        <ele>2356.83</ele>
        <time>2018-05-11T07:30:25Z</time>
      </trkpt>
      <trkpt lat="44.25024" lon="7.01197">
        <ele>2356.04</ele>
        <time>2018-05-11T07:30:54Z</time>
      </trkpt>
      <trkpt lat="44.25024" lon="7.01198">
        <ele>2356.01</ele>
        <time>2018-05-11T07:31:24Z</time>
      </trkpt>
      <trkpt lat="44.2502" lon="7.01199">
        <ele>2356.33</ele>
        <time>2018-05-11T07:31:56Z</time>
      </trkpt>
      <trkpt lat="44.25019" lon="7.01199">
        <ele>2355.37</ele>
        <time>2018-05-11T07:32:24Z</time>
      </trkpt>
      <trkpt lat="44.25021" lon="7.01198">
        <ele>2355.99</ele>
        <time>2018-05-11T07:32:51Z</time>
      </trkpt>
      <trkpt lat="44.25022" lon="7.012">
        <ele>2355.6</ele>
        <time>2018-05-11T07:33:13Z</time>
      </trkpt>
      <trkpt lat="44.25019" lon="7.01195">
        <ele>2356.13</ele>
        <time>2018-05-11T07:33:41Z</time>
      </trkpt>
      <trkpt lat="44.2502" lon="7.01193">
        <ele>2355.6</ele>
        <time>2018-05-11T07:34:10Z</time>
      </trkpt>
      <trkpt lat="44.2502" lon="7.01199">
        <ele>2353.88</ele>
        <time>2018-05-11T07:34:21Z</time>
      </trkpt>
      <trkpt lat="44.2502" lon="7.012">
        <ele>2355.37</ele>
        <time>2018-05-11T07:34:42Z</time>
      </trkpt>
      <trkpt lat="44.25022" lon="7.01198">
        <ele>2357.11</ele>
        <time>2018-05-11T07:35:02Z</time>
      </trkpt>
      <trkpt lat="44.2502" lon="7.01195">
        <ele>2356.95</ele>
        <time>2018-05-11T07:35:26Z</time>
      </trkpt>
      <trkpt lat="44.25022" lon="7.01198">
        <ele>2357.14</ele>
        <time>2018-05-11T07:35:57Z</time>
      </trkpt>
      <trkpt lat="44.25022" lon="7.012">
        <ele>2357.36</ele>
        <time>2018-05-11T07:36:23Z</time>
      </trkpt>
      <trkpt lat="44.25022" lon="7.012">
        <ele>2356.83</ele>
        <time>2018-05-11T07:36:51Z</time>
      </trkpt>
      <trkpt lat="44.25022" lon="7.01199">
        <ele>2357.34</ele>
        <time>2018-05-11T07:37:13Z</time>
      </trkpt>
      <trkpt lat="44.25022" lon="7.01199">
        <ele>2357.26</ele>
        <time>2018-05-11T07:37:40Z</time>
      </trkpt>
      <trkpt lat="44.25026" lon="7.01199">
        <ele>2357.5</ele>
        <time>2018-05-11T07:38:09Z</time>
      </trkpt>
      <trkpt lat="44.25027" lon="7.012">
        <ele>2357.53</ele>
        <time>2018-05-11T07:38:10Z</time>
      </trkpt>
      <trkpt lat="44.25022" lon="7.01203">
        <ele>2357.5</ele>
        <time>2018-05-11T07:38:37Z</time>
      </trkpt>
      <trkpt lat="44.25025" lon="7.01195">
        <ele>2358.39</ele>
        <time>2018-05-11T07:39:02Z</time>
      </trkpt>
      <trkpt lat="44.25027" lon="7.01188">
        <ele>2359.33</ele>
        <time>2018-05-11T07:39:26Z</time>
      </trkpt>
      <trkpt lat="44.25035" lon="7.01178">
        <ele>2362.37</ele>
        <time>2018-05-11T07:39:48Z</time>
      </trkpt>
      <trkpt lat="44.25045" lon="7.0117">
        <ele>2364.92</ele>
        <time>2018-05-11T07:40:11Z</time>
      </trkpt>
      <trkpt lat="44.25057" lon="7.01169">
        <ele>2367.77</ele>
        <time>2018-05-11T07:40:36Z</time>
      </trkpt>
      <trkpt lat="44.25073" lon="7.01171">
        <ele>2370.68</ele>
        <time>2018-05-11T07:41:04Z</time>
      </trkpt>
      <trkpt lat="44.25087" lon="7.01171">
        <ele>2373.46</ele>
        <time>2018-05-11T07:41:28Z</time>
      </trkpt>
      <trkpt lat="44.25095" lon="7.01165">
        <ele>2375.72</ele>
        <time>2018-05-11T07:41:55Z</time>
      </trkpt>
      <trkpt lat="44.25104" lon="7.01161">
        <ele>2376.75</ele>
        <time>2018-05-11T07:42:23Z</time>
      </trkpt>
      <trkpt lat="44.25117" lon="7.01152">
        <ele>2378.1</ele>
        <time>2018-05-11T07:42:44Z</time>
      </trkpt>
      <trkpt lat="44.25128" lon="7.01142">
        <ele>2379.81</ele>
        <time>2018-05-11T07:43:06Z</time>
      </trkpt>
      <trkpt lat="44.25141" lon="7.0113">
        <ele>2381.17</ele>
        <time>2018-05-11T07:43:27Z</time>
      </trkpt>
      <trkpt lat="44.25151" lon="7.01122">
        <ele>2382.81</ele>
        <time>2018-05-11T07:43:48Z</time>
      </trkpt>
      <trkpt lat="44.25169" lon="7.01115">
        <ele>2384.55</ele>
        <time>2018-05-11T07:44:13Z</time>
      </trkpt>
      <trkpt lat="44.25181" lon="7.01108">
        <ele>2386.61</ele>
        <time>2018-05-11T07:44:36Z</time>
      </trkpt>
      <trkpt lat="44.25194" lon="7.01099">
        <ele>2388.4</ele>
        <time>2018-05-11T07:44:58Z</time>
      </trkpt>
      <trkpt lat="44.25207" lon="7.01092">
        <ele>2390.64</ele>
        <time>2018-05-11T07:45:22Z</time>
      </trkpt>
      <trkpt lat="44.25209" lon="7.01087">
        <ele>2391.83</ele>
        <time>2018-05-11T07:45:37Z</time>
      </trkpt>
      <trkpt lat="44.25211" lon="7.01086">
        <ele>2392.24</ele>
        <time>2018-05-11T07:46:00Z</time>
      </trkpt>
      <trkpt lat="44.25214" lon="7.01081">
        <ele>2392.78</ele>
        <time>2018-05-11T07:46:18Z</time>
      </trkpt>
      <trkpt lat="44.25214" lon="7.01075">
        <ele>2393.61</ele>
        <time>2018-05-11T07:46:46Z</time>
      </trkpt>
      <trkpt lat="44.25222" lon="7.01063">
        <ele>2396.15</ele>
        <time>2018-05-11T07:47:03Z</time>
      </trkpt>
      <trkpt lat="44.25228" lon="7.01056">
        <ele>2397.2</ele>
        <time>2018-05-11T07:47:19Z</time>
      </trkpt>
      <trkpt lat="44.25242" lon="7.01045">
        <ele>2399.47</ele>
        <time>2018-05-11T07:47:38Z</time>
      </trkpt>
      <trkpt lat="44.25254" lon="7.01036">
        <ele>2401.33</ele>
        <time>2018-05-11T07:47:52Z</time>
      </trkpt>
      <trkpt lat="44.25266" lon="7.01023">
        <ele>2403.5</ele>
        <time>2018-05-11T07:48:16Z</time>
      </trkpt>
      <trkpt lat="44.25277" lon="7.01018">
        <ele>2406.6</ele>
        <time>2018-05-11T07:48:37Z</time>
      </trkpt>
      <trkpt lat="44.2529" lon="7.01013">
        <ele>2409.61</ele>
        <time>2018-05-11T07:48:59Z</time>
      </trkpt>
      <trkpt lat="44.25296" lon="7.01003">
        <ele>2411.72</ele>
        <time>2018-05-11T07:49:19Z</time>
      </trkpt>
      <trkpt lat="44.25296" lon="7.00994">
        <ele>2413.4</ele>
        <time>2018-05-11T07:49:35Z</time>
      </trkpt>
      <trkpt lat="44.25302" lon="7.00989">
        <ele>2415.52</ele>
        <time>2018-05-11T07:49:51Z</time>
      </trkpt>
      <trkpt lat="44.25301" lon="7.00978">
        <ele>2417.73</ele>
        <time>2018-05-11T07:50:08Z</time>
      </trkpt>
      <trkpt lat="44.25299" lon="7.00968">
        <ele>2420.04</ele>
        <time>2018-05-11T07:50:26Z</time>
      </trkpt>
      <trkpt lat="44.25297" lon="7.00959">
        <ele>2421.94</ele>
        <time>2018-05-11T07:50:42Z</time>
      </trkpt>
      <trkpt lat="44.25294" lon="7.0095">
        <ele>2423.96</ele>
        <time>2018-05-11T07:50:59Z</time>
      </trkpt>
      <trkpt lat="44.25293" lon="7.0094">
        <ele>2425.88</ele>
        <time>2018-05-11T07:51:16Z</time>
      </trkpt>
      <trkpt lat="44.25293" lon="7.00938">
        <ele>2426.83</ele>
        <time>2018-05-11T07:51:36Z</time>
      </trkpt>
      <trkpt lat="44.25295" lon="7.00938">
        <ele>2426.75</ele>
        <time>2018-05-11T07:51:56Z</time>
      </trkpt>
      <trkpt lat="44.25308" lon="7.00936">
        <ele>2429.88</ele>
        <time>2018-05-11T07:52:18Z</time>
      </trkpt>
      <trkpt lat="44.25316" lon="7.00934">
        <ele>2433</ele>
        <time>2018-05-11T07:52:32Z</time>
      </trkpt>
      <trkpt lat="44.25324" lon="7.00935">
        <ele>2435.08</ele>
        <time>2018-05-11T07:52:57Z</time>
      </trkpt>
      <trkpt lat="44.25335" lon="7.00932">
        <ele>2436.8</ele>
        <time>2018-05-11T07:53:21Z</time>
      </trkpt>
      <trkpt lat="44.25351" lon="7.00926">
        <ele>2439.78</ele>
        <time>2018-05-11T07:53:39Z</time>
      </trkpt>
      <trkpt lat="44.25361" lon="7.00918">
        <ele>2442.88</ele>
        <time>2018-05-11T07:53:58Z</time>
      </trkpt>
      <trkpt lat="44.25365" lon="7.00914">
        <ele>2445.19</ele>
        <time>2018-05-11T07:54:18Z</time>
      </trkpt>
      <trkpt lat="44.25363" lon="7.00913">
        <ele>2444.7</ele>
        <time>2018-05-11T07:54:40Z</time>
      </trkpt>
      <trkpt lat="44.25369" lon="7.00901">
        <ele>2447.26</ele>
        <time>2018-05-11T07:54:59Z</time>
      </trkpt>
      <trkpt lat="44.25373" lon="7.00887">
        <ele>2450.19</ele>
        <time>2018-05-11T07:55:16Z</time>
      </trkpt>
      <trkpt lat="44.25383" lon="7.00893">
        <ele>2453.12</ele>
        <time>2018-05-11T07:55:36Z</time>
      </trkpt>
      <trkpt lat="44.25388" lon="7.00888">
        <ele>2456.15</ele>
        <time>2018-05-11T07:55:58Z</time>
      </trkpt>
      <trkpt lat="44.25391" lon="7.00881">
        <ele>2458.49</ele>
        <time>2018-05-11T07:56:16Z</time>
      </trkpt>
      <trkpt lat="44.25393" lon="7.00881">
        <ele>2458.17</ele>
        <time>2018-05-11T07:56:37Z</time>
      </trkpt>
      <trkpt lat="44.25391" lon="7.00882">
        <ele>2458.08</ele>
        <time>2018-05-11T07:57:10Z</time>
      </trkpt>
      <trkpt lat="44.25392" lon="7.00881">
        <ele>2458.12</ele>
        <time>2018-05-11T07:57:47Z</time>
      </trkpt>
      <trkpt lat="44.25392" lon="7.00881">
        <ele>2458.51</ele>
        <time>2018-05-11T07:58:53Z</time>
      </trkpt>
      <trkpt lat="44.25396" lon="7.00869">
        <ele>2460.62</ele>
        <time>2018-05-11T07:59:42Z</time>
      </trkpt>
      <trkpt lat="44.25402" lon="7.00857">
        <ele>2462.63</ele>
        <time>2018-05-11T08:00:03Z</time>
      </trkpt>
      <trkpt lat="44.25407" lon="7.00846">
        <ele>2464.77</ele>
        <time>2018-05-11T08:00:20Z</time>
      </trkpt>
      <trkpt lat="44.25411" lon="7.00837">
        <ele>2467.17</ele>
        <time>2018-05-11T08:00:38Z</time>
      </trkpt>
      <trkpt lat="44.25415" lon="7.00826">
        <ele>2469.4</ele>
        <time>2018-05-11T08:00:56Z</time>
      </trkpt>
      <trkpt lat="44.25421" lon="7.00817">
        <ele>2471.67</ele>
        <time>2018-05-11T08:01:15Z</time>
      </trkpt>
      <trkpt lat="44.25426" lon="7.00808">
        <ele>2473.69</ele>
        <time>2018-05-11T08:01:32Z</time>
      </trkpt>
      <trkpt lat="44.25427" lon="7.00804">
        <ele>2474.4</ele>
        <time>2018-05-11T08:01:38Z</time>
      </trkpt>
      <trkpt lat="44.25429" lon="7.00798">
        <ele>2475.51</ele>
        <time>2018-05-11T08:01:49Z</time>
      </trkpt>
      <trkpt lat="44.25437" lon="7.0079">
        <ele>2478.11</ele>
        <time>2018-05-11T08:02:10Z</time>
      </trkpt>
      <trkpt lat="44.2544" lon="7.0078">
        <ele>2480.51</ele>
        <time>2018-05-11T08:02:28Z</time>
      </trkpt>
      <trkpt lat="44.25434" lon="7.00769">
        <ele>2482.89</ele>
        <time>2018-05-11T08:02:46Z</time>
      </trkpt>
      <trkpt lat="44.2543" lon="7.0076">
        <ele>2484.89</ele>
        <time>2018-05-11T08:03:04Z</time>
      </trkpt>
      <trkpt lat="44.25436" lon="7.00756">
        <ele>2486.51</ele>
        <time>2018-05-11T08:03:18Z</time>
      </trkpt>
      <trkpt lat="44.25444" lon="7.00749">
        <ele>2488.6</ele>
        <time>2018-05-11T08:03:38Z</time>
      </trkpt>
      <trkpt lat="44.25454" lon="7.00738">
        <ele>2491.32</ele>
        <time>2018-05-11T08:04:00Z</time>
      </trkpt>
      <trkpt lat="44.25462" lon="7.00731">
        <ele>2493.63</ele>
        <time>2018-05-11T08:04:20Z</time>
      </trkpt>
      <trkpt lat="44.25468" lon="7.00723">
        <ele>2495.36</ele>
        <time>2018-05-11T08:04:35Z</time>
      </trkpt>
      <trkpt lat="44.25472" lon="7.00718">
        <ele>2496.26</ele>
        <time>2018-05-11T08:04:45Z</time>
      </trkpt>
      <trkpt lat="44.25482" lon="7.00709">
        <ele>2497.67</ele>
        <time>2018-05-11T08:05:03Z</time>
      </trkpt>
      <trkpt lat="44.25487" lon="7.007">
        <ele>2499.39</ele>
        <time>2018-05-11T08:05:21Z</time>
      </trkpt>
      <trkpt lat="44.25495" lon="7.00687">
        <ele>2501.8</ele>
        <time>2018-05-11T08:05:44Z</time>
      </trkpt>
      <trkpt lat="44.25501" lon="7.00679">
        <ele>2503.48</ele>
        <time>2018-05-11T08:06:00Z</time>
      </trkpt>
      <trkpt lat="44.25505" lon="7.00671">
        <ele>2504.87</ele>
        <time>2018-05-11T08:06:14Z</time>
      </trkpt>
      <trkpt lat="44.25506" lon="7.00663">
        <ele>2506.25</ele>
        <time>2018-05-11T08:06:25Z</time>
      </trkpt>
      <trkpt lat="44.25509" lon="7.00655">
        <ele>2507.75</ele>
        <time>2018-05-11T08:06:38Z</time>
      </trkpt>
      <trkpt lat="44.25512" lon="7.0065">
        <ele>2508.77</ele>
        <time>2018-05-11T08:06:49Z</time>
      </trkpt>
      <trkpt lat="44.2552" lon="7.00643">
        <ele>2511.27</ele>
        <time>2018-05-11T08:07:08Z</time>
      </trkpt>
      <trkpt lat="44.2553" lon="7.00645">
        <ele>2513.57</ele>
        <time>2018-05-11T08:07:28Z</time>
      </trkpt>
      <trkpt lat="44.25529" lon="7.00646">
        <ele>2513.39</ele>
        <time>2018-05-11T08:07:57Z</time>
      </trkpt>
      <trkpt lat="44.25529" lon="7.00645">
        <ele>2513.25</ele>
        <time>2018-05-11T08:08:24Z</time>
      </trkpt>
      <trkpt lat="44.25528" lon="7.00644">
        <ele>2512.99</ele>
        <time>2018-05-11T08:08:53Z</time>
      </trkpt>
      <trkpt lat="44.25527" lon="7.00645">
        <ele>2513.02</ele>
        <time>2018-05-11T08:09:23Z</time>
      </trkpt>
      <trkpt lat="44.2553" lon="7.00651">
        <ele>2513.49</ele>
        <time>2018-05-11T08:09:46Z</time>
      </trkpt>
      <trkpt lat="44.25528" lon="7.00663">
        <ele>2513.47</ele>
        <time>2018-05-11T08:09:55Z</time>
      </trkpt>
      <trkpt lat="44.25529" lon="7.00689">
        <ele>2512.35</ele>
        <time>2018-05-11T08:10:09Z</time>
      </trkpt>
      <trkpt lat="44.25531" lon="7.00704">
        <ele>2511.25</ele>
        <time>2018-05-11T08:10:19Z</time>
      </trkpt>
      <trkpt lat="44.25533" lon="7.00716">
        <ele>2510.62</ele>
        <time>2018-05-11T08:10:26Z</time>
      </trkpt>
      <trkpt lat="44.25535" lon="7.00723">
        <ele>2509.92</ele>
        <time>2018-05-11T08:10:31Z</time>
      </trkpt>
      <trkpt lat="44.25539" lon="7.00737">
        <ele>2510.03</ele>
        <time>2018-05-11T08:10:46Z</time>
      </trkpt>
      <trkpt lat="44.25545" lon="7.0076">
        <ele>2509.56</ele>
        <time>2018-05-11T08:11:03Z</time>
      </trkpt>
      <trkpt lat="44.2556" lon="7.00776">
        <ele>2506.48</ele>
        <time>2018-05-11T08:11:15Z</time>
      </trkpt>
      <trkpt lat="44.25575" lon="7.00777">
        <ele>2505.48</ele>
        <time>2018-05-11T08:11:31Z</time>
      </trkpt>
      <trkpt lat="44.25589" lon="7.00778">
        <ele>2505.06</ele>
        <time>2018-05-11T08:11:47Z</time>
      </trkpt>
      <trkpt lat="44.25601" lon="7.00776">
        <ele>2505.44</ele>
        <time>2018-05-11T08:12:02Z</time>
      </trkpt>
      <trkpt lat="44.25619" lon="7.00773">
        <ele>2506.76</ele>
        <time>2018-05-11T08:12:23Z</time>
      </trkpt>
      <trkpt lat="44.25635" lon="7.0077">
        <ele>2506.6</ele>
        <time>2018-05-11T08:12:43Z</time>
      </trkpt>
      <trkpt lat="44.25654" lon="7.00767">
        <ele>2505.65</ele>
        <time>2018-05-11T08:13:03Z</time>
      </trkpt>
      <trkpt lat="44.25671" lon="7.00764">
        <ele>2506.58</ele>
        <time>2018-05-11T08:13:25Z</time>
      </trkpt>
      <trkpt lat="44.25682" lon="7.00761">
        <ele>2508.27</ele>
        <time>2018-05-11T08:13:45Z</time>
      </trkpt>
      <trkpt lat="44.25692" lon="7.0076">
        <ele>2510.57</ele>
        <time>2018-05-11T08:14:05Z</time>
      </trkpt>
      <trkpt lat="44.25702" lon="7.0076">
        <ele>2512.9</ele>
        <time>2018-05-11T08:14:26Z</time>
      </trkpt>
      <trkpt lat="44.25712" lon="7.0076">
        <ele>2513.94</ele>
        <time>2018-05-11T08:14:43Z</time>
      </trkpt>
      <trkpt lat="44.25711" lon="7.00761">
        <ele>2514.32</ele>
        <time>2018-05-11T08:14:58Z</time>
      </trkpt>
      <trkpt lat="44.25706" lon="7.00761">
        <ele>2514.53</ele>
        <time>2018-05-11T08:15:07Z</time>
      </trkpt>
      <trkpt lat="44.25723" lon="7.00759">
        <ele>2515.49</ele>
        <time>2018-05-11T08:15:25Z</time>
      </trkpt>
      <trkpt lat="44.25729" lon="7.0076">
        <ele>2518.15</ele>
        <time>2018-05-11T08:15:48Z</time>
      </trkpt>
      <trkpt lat="44.25742" lon="7.00756">
        <ele>2519.96</ele>
        <time>2018-05-11T08:16:06Z</time>
      </trkpt>
      <trkpt lat="44.25752" lon="7.00753">
        <ele>2521.59</ele>
        <time>2018-05-11T08:16:24Z</time>
      </trkpt>
      <trkpt lat="44.25765" lon="7.00755">
        <ele>2522.94</ele>
        <time>2018-05-11T08:16:45Z</time>
      </trkpt>
      <trkpt lat="44.25775" lon="7.00752">
        <ele>2523.67</ele>
        <time>2018-05-11T08:16:59Z</time>
      </trkpt>
      <trkpt lat="44.25777" lon="7.00752">
        <ele>2523.99</ele>
        <time>2018-05-11T08:17:15Z</time>
      </trkpt>
      <trkpt lat="44.25775" lon="7.00749">
        <ele>2523.79</ele>
        <time>2018-05-11T08:17:46Z</time>
      </trkpt>
      <trkpt lat="44.25776" lon="7.0075">
        <ele>2523.57</ele>
        <time>2018-05-11T08:17:59Z</time>
      </trkpt>
      <trkpt lat="44.25777" lon="7.00752">
        <ele>2523.58</ele>
        <time>2018-05-11T08:18:26Z</time>
      </trkpt>
      <trkpt lat="44.25782" lon="7.00748">
        <ele>2523.13</ele>
        <time>2018-05-11T08:18:43Z</time>
      </trkpt>
      <trkpt lat="44.25792" lon="7.00744">
        <ele>2522.34</ele>
        <time>2018-05-11T08:18:56Z</time>
      </trkpt>
      <trkpt lat="44.258" lon="7.00742">
        <ele>2522.46</ele>
        <time>2018-05-11T08:19:21Z</time>
      </trkpt>
      <trkpt lat="44.25814" lon="7.00736">
        <ele>2523.08</ele>
        <time>2018-05-11T08:19:39Z</time>
      </trkpt>
      <trkpt lat="44.25831" lon="7.00728">
        <ele>2524.69</ele>
        <time>2018-05-11T08:20:01Z</time>
      </trkpt>
      <trkpt lat="44.25844" lon="7.00718">
        <ele>2525.99</ele>
        <time>2018-05-11T08:20:21Z</time>
      </trkpt>
      <trkpt lat="44.2585" lon="7.00712">
        <ele>2526.72</ele>
        <time>2018-05-11T08:20:32Z</time>
      </trkpt>
      <trkpt lat="44.25856" lon="7.00708">
        <ele>2527.36</ele>
        <time>2018-05-11T08:20:42Z</time>
      </trkpt>
      <trkpt lat="44.25864" lon="7.00701">
        <ele>2527.98</ele>
        <time>2018-05-11T08:20:55Z</time>
      </trkpt>
      <trkpt lat="44.25875" lon="7.00693">
        <ele>2529.21</ele>
        <time>2018-05-11T08:21:14Z</time>
      </trkpt>
      <trkpt lat="44.25884" lon="7.00684">
        <ele>2530.62</ele>
        <time>2018-05-11T08:21:30Z</time>
      </trkpt>
      <trkpt lat="44.25893" lon="7.00678">
        <ele>2532.02</ele>
        <time>2018-05-11T08:21:46Z</time>
      </trkpt>
      <trkpt lat="44.25902" lon="7.00669">
        <ele>2533.82</ele>
        <time>2018-05-11T08:22:05Z</time>
      </trkpt>
      <trkpt lat="44.25912" lon="7.00663">
        <ele>2535.76</ele>
        <time>2018-05-11T08:22:24Z</time>
      </trkpt>
      <trkpt lat="44.25922" lon="7.00656">
        <ele>2537.99</ele>
        <time>2018-05-11T08:22:45Z</time>
      </trkpt>
      <trkpt lat="44.25937" lon="7.00651">
        <ele>2539.99</ele>
        <time>2018-05-11T08:23:08Z</time>
      </trkpt>
      <trkpt lat="44.25949" lon="7.00646">
        <ele>2541.42</ele>
        <time>2018-05-11T08:23:27Z</time>
      </trkpt>
      <trkpt lat="44.25964" lon="7.00641">
        <ele>2543.19</ele>
        <time>2018-05-11T08:23:49Z</time>
      </trkpt>
      <trkpt lat="44.2598" lon="7.00634">
        <ele>2544.57</ele>
        <time>2018-05-11T08:24:12Z</time>
      </trkpt>
      <trkpt lat="44.25996" lon="7.00626">
        <ele>2545.61</ele>
        <time>2018-05-11T08:24:33Z</time>
      </trkpt>
      <trkpt lat="44.26012" lon="7.00615">
        <ele>2546.49</ele>
        <time>2018-05-11T08:24:55Z</time>
      </trkpt>
      <trkpt lat="44.26026" lon="7.00607">
        <ele>2547.25</ele>
        <time>2018-05-11T08:25:17Z</time>
      </trkpt>
      <trkpt lat="44.26041" lon="7.00599">
        <ele>2548.16</ele>
        <time>2018-05-11T08:25:40Z</time>
      </trkpt>
      <trkpt lat="44.2604" lon="7.00597">
        <ele>2548.31</ele>
        <time>2018-05-11T08:25:59Z</time>
      </trkpt>
      <trkpt lat="44.2604" lon="7.00598">
        <ele>2548.26</ele>
        <time>2018-05-11T08:26:23Z</time>
      </trkpt>
      <trkpt lat="44.26043" lon="7.00597">
        <ele>2548.18</ele>
        <time>2018-05-11T08:26:49Z</time>
      </trkpt>
      <trkpt lat="44.2605" lon="7.00592">
        <ele>2548.71</ele>
        <time>2018-05-11T08:27:15Z</time>
      </trkpt>
      <trkpt lat="44.26072" lon="7.0058">
        <ele>2548.59</ele>
        <time>2018-05-11T08:27:36Z</time>
      </trkpt>
      <trkpt lat="44.26083" lon="7.00575">
        <ele>2548.38</ele>
        <time>2018-05-11T08:27:48Z</time>
      </trkpt>
      <trkpt lat="44.26103" lon="7.00567">
        <ele>2547.61</ele>
        <time>2018-05-11T08:28:08Z</time>
      </trkpt>
      <trkpt lat="44.26117" lon="7.0056">
        <ele>2547.73</ele>
        <time>2018-05-11T08:28:28Z</time>
      </trkpt>
      <trkpt lat="44.26122" lon="7.00555">
        <ele>2548.19</ele>
        <time>2018-05-11T08:28:48Z</time>
      </trkpt>
      <trkpt lat="44.26131" lon="7.0055">
        <ele>2548.32</ele>
        <time>2018-05-11T08:29:13Z</time>
      </trkpt>
      <trkpt lat="44.26145" lon="7.00539">
        <ele>2549.71</ele>
        <time>2018-05-11T08:29:35Z</time>
      </trkpt>
      <trkpt lat="44.26158" lon="7.00531">
        <ele>2550.6</ele>
        <time>2018-05-11T08:29:53Z</time>
      </trkpt>
      <trkpt lat="44.26172" lon="7.00526">
        <ele>2551.93</ele>
        <time>2018-05-11T08:30:13Z</time>
      </trkpt>
      <trkpt lat="44.26181" lon="7.00527">
        <ele>2553.32</ele>
        <time>2018-05-11T08:30:32Z</time>
      </trkpt>
      <trkpt lat="44.26195" lon="7.00523">
        <ele>2554.78</ele>
        <time>2018-05-11T08:30:52Z</time>
      </trkpt>
      <trkpt lat="44.26208" lon="7.00521">
        <ele>2556.18</ele>
        <time>2018-05-11T08:31:09Z</time>
      </trkpt>
      <trkpt lat="44.26221" lon="7.00521">
        <ele>2558.2</ele>
        <time>2018-05-11T08:31:31Z</time>
      </trkpt>
      <trkpt lat="44.26234" lon="7.0052">
        <ele>2560.18</ele>
        <time>2018-05-11T08:31:50Z</time>
      </trkpt>
      <trkpt lat="44.26245" lon="7.00518">
        <ele>2562.84</ele>
        <time>2018-05-11T08:32:15Z</time>
      </trkpt>
      <trkpt lat="44.2626" lon="7.00516">
        <ele>2565.03</ele>
        <time>2018-05-11T08:32:38Z</time>
      </trkpt>
      <trkpt lat="44.26267" lon="7.00513">
        <ele>2567.31</ele>
        <time>2018-05-11T08:32:56Z</time>
      </trkpt>
      <trkpt lat="44.26268" lon="7.00522">
        <ele>2569.28</ele>
        <time>2018-05-11T08:33:11Z</time>
      </trkpt>
      <trkpt lat="44.26277" lon="7.00529">
        <ele>2571.52</ele>
        <time>2018-05-11T08:33:29Z</time>
      </trkpt>
      <trkpt lat="44.26281" lon="7.0053">
        <ele>2572.57</ele>
        <time>2018-05-11T08:33:49Z</time>
      </trkpt>
      <trkpt lat="44.2629" lon="7.00532">
        <ele>2572.46</ele>
        <time>2018-05-11T08:34:15Z</time>
      </trkpt>
      <trkpt lat="44.26304" lon="7.00538">
        <ele>2573.96</ele>
        <time>2018-05-11T08:34:38Z</time>
      </trkpt>
      <trkpt lat="44.26318" lon="7.00538">
        <ele>2575.59</ele>
        <time>2018-05-11T08:34:59Z</time>
      </trkpt>
      <trkpt lat="44.26332" lon="7.00531">
        <ele>2577.84</ele>
        <time>2018-05-11T08:35:21Z</time>
      </trkpt>
      <trkpt lat="44.26337" lon="7.00522">
        <ele>2578.65</ele>
        <time>2018-05-11T08:35:39Z</time>
      </trkpt>
      <trkpt lat="44.26344" lon="7.00515">
        <ele>2580.72</ele>
        <time>2018-05-11T08:35:57Z</time>
      </trkpt>
      <trkpt lat="44.26352" lon="7.00508">
        <ele>2582.98</ele>
        <time>2018-05-11T08:36:17Z</time>
      </trkpt>
      <trkpt lat="44.2635" lon="7.00506">
        <ele>2583.87</ele>
        <time>2018-05-11T08:36:32Z</time>
      </trkpt>
      <trkpt lat="44.26337" lon="7.00497">
        <ele>2586.96</ele>
        <time>2018-05-11T08:36:51Z</time>
      </trkpt>
      <trkpt lat="44.26338" lon="7.00486">
        <ele>2588.95</ele>
        <time>2018-05-11T08:37:07Z</time>
      </trkpt>
      <trkpt lat="44.26342" lon="7.00479">
        <ele>2591.03</ele>
        <time>2018-05-11T08:37:24Z</time>
      </trkpt>
      <trkpt lat="44.26345" lon="7.00471">
        <ele>2593.11</ele>
        <time>2018-05-11T08:37:37Z</time>
      </trkpt>
      <trkpt lat="44.26353" lon="7.00463">
        <ele>2595.64</ele>
        <time>2018-05-11T08:37:56Z</time>
      </trkpt>
      <trkpt lat="44.26358" lon="7.00454">
        <ele>2598.04</ele>
        <time>2018-05-11T08:38:13Z</time>
      </trkpt>
      <trkpt lat="44.26366" lon="7.00446">
        <ele>2600.45</ele>
        <time>2018-05-11T08:38:32Z</time>
      </trkpt>
      <trkpt lat="44.26374" lon="7.00439">
        <ele>2602.6</ele>
        <time>2018-05-11T08:38:51Z</time>
      </trkpt>
      <trkpt lat="44.26381" lon="7.00427">
        <ele>2605.39</ele>
        <time>2018-05-11T08:39:10Z</time>
      </trkpt>
      <trkpt lat="44.26386" lon="7.0042">
        <ele>2607.52</ele>
        <time>2018-05-11T08:39:27Z</time>
      </trkpt>
      <trkpt lat="44.26388" lon="7.00413">
        <ele>2609.37</ele>
        <time>2018-05-11T08:39:42Z</time>
      </trkpt>
      <trkpt lat="44.26389" lon="7.00404">
        <ele>2611.5</ele>
        <time>2018-05-11T08:39:57Z</time>
      </trkpt>
      <trkpt lat="44.26388" lon="7.00399">
        <ele>2612.61</ele>
        <time>2018-05-11T08:40:06Z</time>
      </trkpt>
      <trkpt lat="44.26388" lon="7.00391">
        <ele>2614.08</ele>
        <time>2018-05-11T08:40:18Z</time>
      </trkpt>
      <trkpt lat="44.26388" lon="7.00384">
        <ele>2615.53</ele>
        <time>2018-05-11T08:40:30Z</time>
      </trkpt>
      <trkpt lat="44.26387" lon="7.00375">
        <ele>2617.38</ele>
        <time>2018-05-11T08:40:44Z</time>
      </trkpt>
      <trkpt lat="44.26388" lon="7.00368">
        <ele>2618.71</ele>
        <time>2018-05-11T08:40:55Z</time>
      </trkpt>
      <trkpt lat="44.26389" lon="7.00358">
        <ele>2620.25</ele>
        <time>2018-05-11T08:41:08Z</time>
      </trkpt>
      <trkpt lat="44.26389" lon="7.00351">
        <ele>2621.65</ele>
        <time>2018-05-11T08:41:19Z</time>
      </trkpt>
      <trkpt lat="44.2639" lon="7.00347">
        <ele>2622.66</ele>
        <time>2018-05-11T08:41:33Z</time>
      </trkpt>
      <trkpt lat="44.26398" lon="7.00352">
        <ele>2624.56</ele>
        <time>2018-05-11T08:41:56Z</time>
      </trkpt>
      <trkpt lat="44.26409" lon="7.00361">
        <ele>2627.55</ele>
        <time>2018-05-11T08:42:19Z</time>
      </trkpt>
      <trkpt lat="44.26419" lon="7.00372">
        <ele>2630.53</ele>
        <time>2018-05-11T08:42:41Z</time>
      </trkpt>
      <trkpt lat="44.26425" lon="7.00376">
        <ele>2633.17</ele>
        <time>2018-05-11T08:43:04Z</time>
      </trkpt>
      <trkpt lat="44.26431" lon="7.00371">
        <ele>2635.75</ele>
        <time>2018-05-11T08:43:21Z</time>
      </trkpt>
      <trkpt lat="44.26433" lon="7.0036">
        <ele>2637.78</ele>
        <time>2018-05-11T08:43:37Z</time>
      </trkpt>
      <trkpt lat="44.26435" lon="7.00349">
        <ele>2639.73</ele>
        <time>2018-05-11T08:43:53Z</time>
      </trkpt>
      <trkpt lat="44.26438" lon="7.00339">
        <ele>2641.57</ele>
        <time>2018-05-11T08:44:08Z</time>
      </trkpt>
      <trkpt lat="44.26449" lon="7.00341">
        <ele>2643.76</ele>
        <time>2018-05-11T08:44:27Z</time>
      </trkpt>
      <trkpt lat="44.26455" lon="7.00341">
        <ele>2646.63</ele>
        <time>2018-05-11T08:44:48Z</time>
      </trkpt>
      <trkpt lat="44.26458" lon="7.00332">
        <ele>2648.99</ele>
        <time>2018-05-11T08:45:05Z</time>
      </trkpt>
      <trkpt lat="44.2646" lon="7.00322">
        <ele>2651.29</ele>
        <time>2018-05-11T08:45:21Z</time>
      </trkpt>
      <trkpt lat="44.26465" lon="7.00312">
        <ele>2653.59</ele>
        <time>2018-05-11T08:45:39Z</time>
      </trkpt>
      <trkpt lat="44.26471" lon="7.003">
        <ele>2655.47</ele>
        <time>2018-05-11T08:45:57Z</time>
      </trkpt>
      <trkpt lat="44.26478" lon="7.00292">
        <ele>2657.66</ele>
        <time>2018-05-11T08:46:14Z</time>
      </trkpt>
      <trkpt lat="44.26483" lon="7.00283">
        <ele>2659.42</ele>
        <time>2018-05-11T08:46:29Z</time>
      </trkpt>
      <trkpt lat="44.26488" lon="7.00274">
        <ele>2661.75</ele>
        <time>2018-05-11T08:46:45Z</time>
      </trkpt>
      <trkpt lat="44.26494" lon="7.0027">
        <ele>2663.29</ele>
        <time>2018-05-11T08:46:56Z</time>
      </trkpt>
      <trkpt lat="44.26501" lon="7.00267">
        <ele>2665.12</ele>
        <time>2018-05-11T08:47:13Z</time>
      </trkpt>
      <trkpt lat="44.26509" lon="7.00264">
        <ele>2667.44</ele>
        <time>2018-05-11T08:47:30Z</time>
      </trkpt>
      <trkpt lat="44.26509" lon="7.00262">
        <ele>2669.29</ele>
        <time>2018-05-11T08:47:54Z</time>
      </trkpt>
      <trkpt lat="44.26508" lon="7.00264">
        <ele>2669.03</ele>
        <time>2018-05-11T08:48:12Z</time>
      </trkpt>
      <trkpt lat="44.26508" lon="7.00263">
        <ele>2668.28</ele>
        <time>2018-05-11T08:48:32Z</time>
      </trkpt>
      <trkpt lat="44.26512" lon="7.00262">
        <ele>2668.92</ele>
        <time>2018-05-11T08:48:57Z</time>
      </trkpt>
      <trkpt lat="44.26513" lon="7.00252">
        <ele>2671.86</ele>
        <time>2018-05-11T08:49:13Z</time>
      </trkpt>
      <trkpt lat="44.26514" lon="7.00235">
        <ele>2674.49</ele>
        <time>2018-05-11T08:49:32Z</time>
      </trkpt>
      <trkpt lat="44.26514" lon="7.00224">
        <ele>2676.86</ele>
        <time>2018-05-11T08:49:47Z</time>
      </trkpt>
      <trkpt lat="44.26514" lon="7.00216">
        <ele>2678.85</ele>
        <time>2018-05-11T08:50:00Z</time>
      </trkpt>
      <trkpt lat="44.26524" lon="7.0021">
        <ele>2681.41</ele>
        <time>2018-05-11T08:50:24Z</time>
      </trkpt>
      <trkpt lat="44.26527" lon="7.00204">
        <ele>2683.82</ele>
        <time>2018-05-11T08:50:42Z</time>
      </trkpt>
      <trkpt lat="44.26523" lon="7.0019">
        <ele>2686.29</ele>
        <time>2018-05-11T08:51:01Z</time>
      </trkpt>
      <trkpt lat="44.26524" lon="7.00182">
        <ele>2688.37</ele>
        <time>2018-05-11T08:51:17Z</time>
      </trkpt>
      <trkpt lat="44.26528" lon="7.00172">
        <ele>2691.03</ele>
        <time>2018-05-11T08:51:39Z</time>
      </trkpt>
      <trkpt lat="44.26529" lon="7.00162">
        <ele>2693.06</ele>
        <time>2018-05-11T08:51:54Z</time>
      </trkpt>
      <trkpt lat="44.26535" lon="7.00149">
        <ele>2695.73</ele>
        <time>2018-05-11T08:52:12Z</time>
      </trkpt>
      <trkpt lat="44.26537" lon="7.00138">
        <ele>2697.54</ele>
        <time>2018-05-11T08:52:28Z</time>
      </trkpt>
      <trkpt lat="44.26538" lon="7.00127">
        <ele>2700.39</ele>
        <time>2018-05-11T08:52:48Z</time>
      </trkpt>
      <trkpt lat="44.26533" lon="7.00118">
        <ele>2702.56</ele>
        <time>2018-05-11T08:53:04Z</time>
      </trkpt>
      <trkpt lat="44.26535" lon="7.00115">
        <ele>2703.51</ele>
        <time>2018-05-11T08:53:22Z</time>
      </trkpt>
      <trkpt lat="44.26542" lon="7.00105">
        <ele>2706.54</ele>
        <time>2018-05-11T08:53:43Z</time>
      </trkpt>
      <trkpt lat="44.26544" lon="7.00095">
        <ele>2708.95</ele>
        <time>2018-05-11T08:54:01Z</time>
      </trkpt>
      <trkpt lat="44.26547" lon="7.0008">
        <ele>2711.78</ele>
        <time>2018-05-11T08:54:22Z</time>
      </trkpt>
      <trkpt lat="44.26549" lon="7.0007">
        <ele>2713.84</ele>
        <time>2018-05-11T08:54:39Z</time>
      </trkpt>
      <trkpt lat="44.26549" lon="7.0007">
        <ele>2713.93</ele>
        <time>2018-05-11T08:54:56Z</time>
      </trkpt>
      <trkpt lat="44.26546" lon="7.00073">
        <ele>2713.6</ele>
        <time>2018-05-11T08:55:23Z</time>
      </trkpt>
      <trkpt lat="44.2655" lon="7.00074">
        <ele>2712.77</ele>
        <time>2018-05-11T08:55:45Z</time>
      </trkpt>
      <trkpt lat="44.26551" lon="7.00072">
        <ele>2713.13</ele>
        <time>2018-05-11T08:56:07Z</time>
      </trkpt>
      <trkpt lat="44.2655" lon="7.00072">
        <ele>2712.93</ele>
        <time>2018-05-11T08:56:34Z</time>
      </trkpt>
      <trkpt lat="44.26554" lon="7.0006">
        <ele>2714.71</ele>
        <time>2018-05-11T08:56:57Z</time>
      </trkpt>
      <trkpt lat="44.2655" lon="7.0005">
        <ele>2717.73</ele>
        <time>2018-05-11T08:57:14Z</time>
      </trkpt>
      <trkpt lat="44.26546" lon="7.00038">
        <ele>2720.16</ele>
        <time>2018-05-11T08:57:31Z</time>
      </trkpt>
      <trkpt lat="44.26541" lon="7.00028">
        <ele>2722.4</ele>
        <time>2018-05-11T08:57:50Z</time>
      </trkpt>
      <trkpt lat="44.26536" lon="7.00018">
        <ele>2724.76</ele>
        <time>2018-05-11T08:58:07Z</time>
      </trkpt>
      <trkpt lat="44.26529" lon="7.00016">
        <ele>2726.6</ele>
        <time>2018-05-11T08:58:24Z</time>
      </trkpt>
      <trkpt lat="44.26531" lon="7.00013">
        <ele>2727.38</ele>
        <time>2018-05-11T08:58:43Z</time>
      </trkpt>
      <trkpt lat="44.26537" lon="7.00002">
        <ele>2729.93</ele>
        <time>2018-05-11T08:59:05Z</time>
      </trkpt>
      <trkpt lat="44.26542" lon="6.99993">
        <ele>2732.93</ele>
        <time>2018-05-11T08:59:24Z</time>
      </trkpt>
      <trkpt lat="44.26546" lon="6.99992">
        <ele>2733.6</ele>
        <time>2018-05-11T08:59:46Z</time>
      </trkpt>
      <trkpt lat="44.26553" lon="6.99987">
        <ele>2735.62</ele>
        <time>2018-05-11T09:00:06Z</time>
      </trkpt>
      <trkpt lat="44.26552" lon="6.99984">
        <ele>2737.42</ele>
        <time>2018-05-11T09:00:22Z</time>
      </trkpt>
      <trkpt lat="44.26544" lon="6.99975">
        <ele>2739.36</ele>
        <time>2018-05-11T09:00:41Z</time>
      </trkpt>
      <trkpt lat="44.26534" lon="6.99971">
        <ele>2741.22</ele>
        <time>2018-05-11T09:00:59Z</time>
      </trkpt>
      <trkpt lat="44.26528" lon="6.9997">
        <ele>2741.97</ele>
        <time>2018-05-11T09:01:19Z</time>
      </trkpt>
      <trkpt lat="44.26518" lon="6.9997">
        <ele>2744.03</ele>
        <time>2018-05-11T09:01:35Z</time>
      </trkpt>
      <trkpt lat="44.26505" lon="6.99967">
        <ele>2746.62</ele>
        <time>2018-05-11T09:01:55Z</time>
      </trkpt>
      <trkpt lat="44.26494" lon="6.99963">
        <ele>2748.6</ele>
        <time>2018-05-11T09:02:17Z</time>
      </trkpt>
      <trkpt lat="44.26495" lon="6.99962">
        <ele>2748.01</ele>
        <time>2018-05-11T09:02:41Z</time>
      </trkpt>
      <trkpt lat="44.26495" lon="6.99961">
        <ele>2748.96</ele>
        <time>2018-05-11T09:03:09Z</time>
      </trkpt>
      <trkpt lat="44.26495" lon="6.99963">
        <ele>2749.05</ele>
        <time>2018-05-11T09:03:34Z</time>
      </trkpt>
      <trkpt lat="44.26494" lon="6.99964">
        <ele>2748.05</ele>
        <time>2018-05-11T09:03:58Z</time>
      </trkpt>
      <trkpt lat="44.26493" lon="6.99962">
        <ele>2748.16</ele>
        <time>2018-05-11T09:04:21Z</time>
      </trkpt>
      <trkpt lat="44.26492" lon="6.99966">
        <ele>2748.94</ele>
        <time>2018-05-11T09:04:45Z</time>
      </trkpt>
      <trkpt lat="44.26494" lon="6.99966">
        <ele>2749.11</ele>
        <time>2018-05-11T09:05:10Z</time>
      </trkpt>
      <trkpt lat="44.26492" lon="6.99962">
        <ele>2748.88</ele>
        <time>2018-05-11T09:05:37Z</time>
      </trkpt>
      <trkpt lat="44.26489" lon="6.99965">
        <ele>2749.01</ele>
        <time>2018-05-11T09:06:08Z</time>
      </trkpt>
      <trkpt lat="44.26488" lon="6.99964">
        <ele>2748.96</ele>
        <time>2018-05-11T09:06:32Z</time>
      </trkpt>
      <trkpt lat="44.26478" lon="6.99965">
        <ele>2748.95</ele>
        <time>2018-05-11T09:07:04Z</time>
      </trkpt>
      <trkpt lat="44.26476" lon="6.99961">
        <ele>2748.63</ele>
        <time>2018-05-11T09:07:17Z</time>
      </trkpt>
      <trkpt lat="44.26481" lon="6.99966">
        <ele>2749.1</ele>
        <time>2018-05-11T09:07:22Z</time>
      </trkpt>
      <trkpt lat="44.2649" lon="6.99969">
        <ele>2749.09</ele>
        <time>2018-05-11T09:07:49Z</time>
      </trkpt>
      <trkpt lat="44.2649" lon="6.99968">
        <ele>2748.73</ele>
        <time>2018-05-11T09:08:00Z</time>
      </trkpt>
      <trkpt lat="44.26493" lon="6.99962">
        <ele>2748.57</ele>
        <time>2018-05-11T09:08:20Z</time>
      </trkpt>
      <trkpt lat="44.26491" lon="6.99962">
        <ele>2748.8</ele>
        <time>2018-05-11T09:08:43Z</time>
      </trkpt>
      <trkpt lat="44.26492" lon="6.99964">
        <ele>2747.62</ele>
        <time>2018-05-11T09:09:04Z</time>
      </trkpt>
      <trkpt lat="44.26493" lon="6.99963">
        <ele>2748.08</ele>
        <time>2018-05-11T09:09:27Z</time>
      </trkpt>
      <trkpt lat="44.26495" lon="6.99963">
        <ele>2747.68</ele>
        <time>2018-05-11T09:09:48Z</time>
      </trkpt>
      <trkpt lat="44.26493" lon="6.99965">
        <ele>2748.35</ele>
        <time>2018-05-11T09:10:07Z</time>
      </trkpt>
      <trkpt lat="44.26493" lon="6.99965">
        <ele>2748.28</ele>
        <time>2018-05-11T09:10:35Z</time>
      </trkpt>
      <trkpt lat="44.26492" lon="6.99967">
        <ele>2748.19</ele>
        <time>2018-05-11T09:13:49Z</time>
      </trkpt>
      <trkpt lat="44.26492" lon="6.99968">
        <ele>2747.38</ele>
        <time>2018-05-11T09:15:30Z</time>
      </trkpt>
      <trkpt lat="44.26492" lon="6.99967">
        <ele>2747.96</ele>
        <time>2018-05-11T09:16:01Z</time>
      </trkpt>
      <trkpt lat="44.26493" lon="6.99969">
        <ele>2748.29</ele>
        <time>2018-05-11T09:16:59Z</time>
      </trkpt>
      <trkpt lat="44.26491" lon="6.99967">
        <ele>2748.73</ele>
        <time>2018-05-11T09:17:29Z</time>
      </trkpt>
      <trkpt lat="44.26491" lon="6.99968">
        <ele>2748.92</ele>
        <time>2018-05-11T09:17:36Z</time>
      </trkpt>
      <trkpt lat="44.26492" lon="6.99966">
        <ele>2748.78</ele>
        <time>2018-05-11T09:18:01Z</time>
      </trkpt>
      <trkpt lat="44.2649" lon="6.99964">
        <ele>2748.99</ele>
        <time>2018-05-11T09:18:23Z</time>
      </trkpt>
      <trkpt lat="44.26491" lon="6.99966">
        <ele>2748.57</ele>
        <time>2018-05-11T09:18:45Z</time>
      </trkpt>
      <trkpt lat="44.26493" lon="6.99966">
        <ele>2748.77</ele>
        <time>2018-05-11T09:19:07Z</time>
      </trkpt>
      <trkpt lat="44.26492" lon="6.99966">
        <ele>2748.7</ele>
        <time>2018-05-11T09:19:37Z</time>
      </trkpt>
      <trkpt lat="44.2649" lon="6.99966">
        <ele>2748.93</ele>
        <time>2018-05-11T09:20:13Z</time>
      </trkpt>
      <trkpt lat="44.26489" lon="6.99962">
        <ele>2748.56</ele>
        <time>2018-05-11T09:20:40Z</time>
      </trkpt>
      <trkpt lat="44.2649" lon="6.99962">
        <ele>2748.65</ele>
        <time>2018-05-11T09:21:00Z</time>
      </trkpt>
      <trkpt lat="44.26492" lon="6.99962">
        <ele>2748.74</ele>
        <time>2018-05-11T09:21:20Z</time>
      </trkpt>
      <trkpt lat="44.26489" lon="6.99965">
        <ele>2748.72</ele>
        <time>2018-05-11T09:21:52Z</time>
      </trkpt>
      <trkpt lat="44.2649" lon="6.99969">
        <ele>2748.72</ele>
        <time>2018-05-11T09:22:24Z</time>
      </trkpt>
      <trkpt lat="44.26491" lon="6.99968">
        <ele>2749.1</ele>
        <time>2018-05-11T09:22:54Z</time>
      </trkpt>
      <trkpt lat="44.26493" lon="6.99963">
        <ele>2749.43</ele>
        <time>2018-05-11T09:23:17Z</time>
      </trkpt>
      <trkpt lat="44.26491" lon="6.99967">
        <ele>2748.91</ele>
        <time>2018-05-11T09:23:37Z</time>
      </trkpt>
      <trkpt lat="44.26492" lon="6.99967">
        <ele>2748.74</ele>
        <time>2018-05-11T09:24:01Z</time>
      </trkpt>
      <trkpt lat="44.2649" lon="6.99965">
        <ele>2749.18</ele>
        <time>2018-05-11T09:24:18Z</time>
      </trkpt>
      <trkpt lat="44.2649" lon="6.99962">
        <ele>2749.45</ele>
        <time>2018-05-11T09:24:43Z</time>
      </trkpt>
      <trkpt lat="44.26478" lon="6.99962">
        <ele>2749.35</ele>
        <time>2018-05-11T09:25:01Z</time>
      </trkpt>
      <trkpt lat="44.26475" lon="6.99962">
        <ele>2749.26</ele>
        <time>2018-05-11T09:25:05Z</time>
      </trkpt>
      <trkpt lat="44.26464" lon="6.99961">
        <ele>2748.37</ele>
        <time>2018-05-11T09:25:20Z</time>
      </trkpt>
      <trkpt lat="44.26452" lon="6.99953">
        <ele>2748.65</ele>
        <time>2018-05-11T09:25:37Z</time>
      </trkpt>
      <trkpt lat="44.26443" lon="6.99944">
        <ele>2749.24</ele>
        <time>2018-05-11T09:25:51Z</time>
      </trkpt>
      <trkpt lat="44.26442" lon="6.99943">
        <ele>2749.2</ele>
        <time>2018-05-11T09:25:53Z</time>
      </trkpt>
      <trkpt lat="44.26437" lon="6.99935">
        <ele>2749.23</ele>
        <time>2018-05-11T09:26:07Z</time>
      </trkpt>
      <trkpt lat="44.26435" lon="6.99928">
        <ele>2749.15</ele>
        <time>2018-05-11T09:26:16Z</time>
      </trkpt>
      <trkpt lat="44.26431" lon="6.99914">
        <ele>2748.5</ele>
        <time>2018-05-11T09:26:34Z</time>
      </trkpt>
      <trkpt lat="44.26429" lon="6.9991">
        <ele>2748.58</ele>
        <time>2018-05-11T09:26:59Z</time>
      </trkpt>
      <trkpt lat="44.26427" lon="6.99908">
        <ele>2748.91</ele>
        <time>2018-05-11T09:27:19Z</time>
      </trkpt>
      <trkpt lat="44.26426" lon="6.99908">
        <ele>2748.73</ele>
        <time>2018-05-11T09:27:23Z</time>
      </trkpt>
      <trkpt lat="44.26412" lon="6.99914">
        <ele>2745.28</ele>
        <time>2018-05-11T09:27:29Z</time>
      </trkpt>
      <trkpt lat="44.26407" lon="6.99916">
        <ele>2746.8</ele>
        <time>2018-05-11T09:27:51Z</time>
      </trkpt>
      <trkpt lat="44.26403" lon="6.99906">
        <ele>2747.48</ele>
        <time>2018-05-11T09:28:08Z</time>
      </trkpt>
      <trkpt lat="44.26398" lon="6.99898">
        <ele>2748.59</ele>
        <time>2018-05-11T09:28:22Z</time>
      </trkpt>
      <trkpt lat="44.26393" lon="6.99892">
        <ele>2749.79</ele>
        <time>2018-05-11T09:28:41Z</time>
      </trkpt>
      <trkpt lat="44.2639" lon="6.99887">
        <ele>2751.18</ele>
        <time>2018-05-11T09:28:53Z</time>
      </trkpt>
      <trkpt lat="44.26398" lon="6.99873">
        <ele>2752.51</ele>
        <time>2018-05-11T09:29:10Z</time>
      </trkpt>
      <trkpt lat="44.26397" lon="6.99867">
        <ele>2754.9</ele>
        <time>2018-05-11T09:29:28Z</time>
      </trkpt>
      <trkpt lat="44.26391" lon="6.99866">
        <ele>2756.28</ele>
        <time>2018-05-11T09:29:48Z</time>
      </trkpt>
      <trkpt lat="44.26386" lon="6.99863">
        <ele>2757.38</ele>
        <time>2018-05-11T09:30:05Z</time>
      </trkpt>
      <trkpt lat="44.26382" lon="6.99858">
        <ele>2758.6</ele>
        <time>2018-05-11T09:30:21Z</time>
      </trkpt>
      <trkpt lat="44.26391" lon="6.99847">
        <ele>2760.73</ele>
        <time>2018-05-11T09:30:42Z</time>
      </trkpt>
      <trkpt lat="44.26393" lon="6.99837">
        <ele>2762.84</ele>
        <time>2018-05-11T09:31:00Z</time>
      </trkpt>
      <trkpt lat="44.26387" lon="6.99837">
        <ele>2764.72</ele>
        <time>2018-05-11T09:31:18Z</time>
      </trkpt>
      <trkpt lat="44.26383" lon="6.99838">
        <ele>2765.91</ele>
        <time>2018-05-11T09:31:37Z</time>
      </trkpt>
      <trkpt lat="44.26388" lon="6.99825">
        <ele>2767.46</ele>
        <time>2018-05-11T09:31:55Z</time>
      </trkpt>
      <trkpt lat="44.26389" lon="6.99821">
        <ele>2769.33</ele>
        <time>2018-05-11T09:32:14Z</time>
      </trkpt>
      <trkpt lat="44.26382" lon="6.99823">
        <ele>2770.92</ele>
        <time>2018-05-11T09:32:31Z</time>
      </trkpt>
      <trkpt lat="44.26378" lon="6.99823">
        <ele>2772.08</ele>
        <time>2018-05-11T09:32:52Z</time>
      </trkpt>
      <trkpt lat="44.26381" lon="6.99816">
        <ele>2773.17</ele>
        <time>2018-05-11T09:33:09Z</time>
      </trkpt>
      <trkpt lat="44.26379" lon="6.99821">
        <ele>2772.71</ele>
        <time>2018-05-11T09:33:42Z</time>
      </trkpt>
      <trkpt lat="44.26382" lon="6.99817">
        <ele>2772.39</ele>
        <time>2018-05-11T09:34:09Z</time>
      </trkpt>
      <trkpt lat="44.26385" lon="6.99808">
        <ele>2773.97</ele>
        <time>2018-05-11T09:34:31Z</time>
      </trkpt>
      <trkpt lat="44.2638" lon="6.99807">
        <ele>2776.08</ele>
        <time>2018-05-11T09:34:47Z</time>
      </trkpt>
      <trkpt lat="44.26369" lon="6.99809">
        <ele>2778.23</ele>
        <time>2018-05-11T09:35:03Z</time>
      </trkpt>
      <trkpt lat="44.26371" lon="6.99804">
        <ele>2779.17</ele>
        <time>2018-05-11T09:35:15Z</time>
      </trkpt>
      <trkpt lat="44.26376" lon="6.99791">
        <ele>2781.83</ele>
        <time>2018-05-11T09:35:33Z</time>
      </trkpt>
      <trkpt lat="44.26371" lon="6.99795">
        <ele>2783.08</ele>
        <time>2018-05-11T09:35:52Z</time>
      </trkpt>
      <trkpt lat="44.26368" lon="6.99795">
        <ele>2783.7</ele>
        <time>2018-05-11T09:36:07Z</time>
      </trkpt>
      <trkpt lat="44.26367" lon="6.99796">
        <ele>2783.81</ele>
        <time>2018-05-11T09:36:30Z</time>
      </trkpt>
      <trkpt lat="44.26368" lon="6.99796">
        <ele>2783.76</ele>
        <time>2018-05-11T09:36:47Z</time>
      </trkpt>
      <trkpt lat="44.26363" lon="6.99796">
        <ele>2783.96</ele>
        <time>2018-05-11T09:37:09Z</time>
      </trkpt>
      <trkpt lat="44.26363" lon="6.99791">
        <ele>2785.58</ele>
        <time>2018-05-11T09:37:25Z</time>
      </trkpt>
      <trkpt lat="44.26368" lon="6.99781">
        <ele>2788.62</ele>
        <time>2018-05-11T09:37:42Z</time>
      </trkpt>
      <trkpt lat="44.26357" lon="6.99782">
        <ele>2790.1</ele>
        <time>2018-05-11T09:38:01Z</time>
      </trkpt>
      <trkpt lat="44.26353" lon="6.9978">
        <ele>2791.75</ele>
        <time>2018-05-11T09:38:19Z</time>
      </trkpt>
      <trkpt lat="44.26359" lon="6.99766">
        <ele>2793.61</ele>
        <time>2018-05-11T09:38:39Z</time>
      </trkpt>
      <trkpt lat="44.26361" lon="6.99769">
        <ele>2794.86</ele>
        <time>2018-05-11T09:38:59Z</time>
      </trkpt>
      <trkpt lat="44.26352" lon="6.99769">
        <ele>2796.47</ele>
        <time>2018-05-11T09:39:16Z</time>
      </trkpt>
      <trkpt lat="44.26342" lon="6.99765">
        <ele>2798.94</ele>
        <time>2018-05-11T09:39:32Z</time>
      </trkpt>
      <trkpt lat="44.26336" lon="6.99762">
        <ele>2799.69</ele>
        <time>2018-05-11T09:39:46Z</time>
      </trkpt>
      <trkpt lat="44.26335" lon="6.99766">
        <ele>2799.61</ele>
        <time>2018-05-11T09:40:07Z</time>
      </trkpt>
      <trkpt lat="44.26334" lon="6.99767">
        <ele>2799.28</ele>
        <time>2018-05-11T09:40:30Z</time>
      </trkpt>
      <trkpt lat="44.26333" lon="6.99763">
        <ele>2799.31</ele>
        <time>2018-05-11T09:40:59Z</time>
      </trkpt>
      <trkpt lat="44.26332" lon="6.9976">
        <ele>2798.97</ele>
        <time>2018-05-11T09:41:23Z</time>
      </trkpt>
      <trkpt lat="44.26333" lon="6.99764">
        <ele>2799.33</ele>
        <time>2018-05-11T09:41:48Z</time>
      </trkpt>
      <trkpt lat="44.26334" lon="6.99767">
        <ele>2798.88</ele>
        <time>2018-05-11T09:42:10Z</time>
      </trkpt>
      <trkpt lat="44.26335" lon="6.99767">
        <ele>2798.85</ele>
        <time>2018-05-11T09:42:32Z</time>
      </trkpt>
      <trkpt lat="44.26334" lon="6.99767">
        <ele>2798.78</ele>
        <time>2018-05-11T09:42:57Z</time>
      </trkpt>
      <trkpt lat="44.26333" lon="6.99767">
        <ele>2798.82</ele>
        <time>2018-05-11T09:43:21Z</time>
      </trkpt>
      <trkpt lat="44.26333" lon="6.9977">
        <ele>2798.27</ele>
        <time>2018-05-11T09:43:45Z</time>
      </trkpt>
      <trkpt lat="44.26332" lon="6.99772">
        <ele>2798.39</ele>
        <time>2018-05-11T09:44:14Z</time>
      </trkpt>
      <trkpt lat="44.26333" lon="6.99771">
        <ele>2798.14</ele>
        <time>2018-05-11T09:44:43Z</time>
      </trkpt>
      <trkpt lat="44.26333" lon="6.99773">
        <ele>2797.98</ele>
        <time>2018-05-11T09:45:12Z</time>
      </trkpt>
      <trkpt lat="44.26333" lon="6.99769">
        <ele>2798.66</ele>
        <time>2018-05-11T09:46:12Z</time>
      </trkpt>
      <trkpt lat="44.26332" lon="6.99773">
        <ele>2798.23</ele>
        <time>2018-05-11T09:47:23Z</time>
      </trkpt>
      <trkpt lat="44.26331" lon="6.99773">
        <ele>2797.76</ele>
        <time>2018-05-11T09:48:31Z</time>
      </trkpt>
      <trkpt lat="44.26329" lon="6.99772">
        <ele>2798.82</ele>
        <time>2018-05-11T09:49:41Z</time>
      </trkpt>
      <trkpt lat="44.26331" lon="6.99772">
        <ele>2799.47</ele>
        <time>2018-05-11T09:50:34Z</time>
      </trkpt>
      <trkpt lat="44.26332" lon="6.99772">
        <ele>2799.45</ele>
        <time>2018-05-11T09:51:24Z</time>
      </trkpt>
      <trkpt lat="44.26333" lon="6.99771">
        <ele>2799.38</ele>
        <time>2018-05-11T09:52:31Z</time>
      </trkpt>
      <trkpt lat="44.26332" lon="6.99769">
        <ele>2799.56</ele>
        <time>2018-05-11T09:53:02Z</time>
      </trkpt>
      <trkpt lat="44.26334" lon="6.99768">
        <ele>2799.26</ele>
        <time>2018-05-11T09:53:30Z</time>
      </trkpt>
      <trkpt lat="44.26334" lon="6.99769">
        <ele>2799.44</ele>
        <time>2018-05-11T09:54:05Z</time>
      </trkpt>
      <trkpt lat="44.26332" lon="6.99771">
        <ele>2799.47</ele>
        <time>2018-05-11T09:54:10Z</time>
      </trkpt>
      <trkpt lat="44.26311" lon="6.99788">
        <ele>2796.2</ele>
        <time>2018-05-11T09:54:17Z</time>
      </trkpt>
      <trkpt lat="44.26304" lon="6.9979">
        <ele>2794.85</ele>
        <time>2018-05-11T09:54:20Z</time>
      </trkpt>
      <trkpt lat="44.26306" lon="6.99786">
        <ele>2794.34</ele>
        <time>2018-05-11T09:54:41Z</time>
      </trkpt>
      <trkpt lat="44.26301" lon="6.99787">
        <ele>2794.46</ele>
        <time>2018-05-11T09:55:02Z</time>
      </trkpt>
      <trkpt lat="44.26292" lon="6.99786">
        <ele>2794.61</ele>
        <time>2018-05-11T09:55:30Z</time>
      </trkpt>
      <trkpt lat="44.26285" lon="6.99785">
        <ele>2795.23</ele>
        <time>2018-05-11T09:55:52Z</time>
      </trkpt>
      <trkpt lat="44.26286" lon="6.99784">
        <ele>2795.06</ele>
        <time>2018-05-11T09:56:05Z</time>
      </trkpt>
      <trkpt lat="44.26292" lon="6.99794">
        <ele>2794.18</ele>
        <time>2018-05-11T09:56:09Z</time>
      </trkpt>
      <trkpt lat="44.26288" lon="6.99815">
        <ele>2789.02</ele>
        <time>2018-05-11T09:56:13Z</time>
      </trkpt>
      <trkpt lat="44.26279" lon="6.99818">
        <ele>2786.37</ele>
        <time>2018-05-11T09:56:15Z</time>
      </trkpt>
      <trkpt lat="44.26268" lon="6.99818">
        <ele>2783.63</ele>
        <time>2018-05-11T09:56:17Z</time>
      </trkpt>
      <trkpt lat="44.26249" lon="6.99821">
        <ele>2778.85</ele>
        <time>2018-05-11T09:56:20Z</time>
      </trkpt>
      <trkpt lat="44.26238" lon="6.99827">
        <ele>2776.63</ele>
        <time>2018-05-11T09:56:23Z</time>
      </trkpt>
      <trkpt lat="44.26236" lon="6.99829">
        <ele>2776.6</ele>
        <time>2018-05-11T09:56:24Z</time>
      </trkpt>
      <trkpt lat="44.2622" lon="6.99835">
        <ele>2776.34</ele>
        <time>2018-05-11T09:56:39Z</time>
      </trkpt>
      <trkpt lat="44.26207" lon="6.99842">
        <ele>2773.59</ele>
        <time>2018-05-11T09:56:46Z</time>
      </trkpt>
      <trkpt lat="44.26207" lon="6.99843">
        <ele>2773.92</ele>
        <time>2018-05-11T09:57:18Z</time>
      </trkpt>
      <trkpt lat="44.26207" lon="6.99841">
        <ele>2773.66</ele>
        <time>2018-05-11T09:57:55Z</time>
      </trkpt>
      <trkpt lat="44.26208" lon="6.9984">
        <ele>2773.73</ele>
        <time>2018-05-11T09:58:31Z</time>
      </trkpt>
      <trkpt lat="44.26209" lon="6.99841">
        <ele>2774.21</ele>
        <time>2018-05-11T09:59:02Z</time>
      </trkpt>
      <trkpt lat="44.26208" lon="6.99841">
        <ele>2774.17</ele>
        <time>2018-05-11T10:00:06Z</time>
      </trkpt>
      <trkpt lat="44.26207" lon="6.99842">
        <ele>2774.03</ele>
        <time>2018-05-11T10:00:49Z</time>
      </trkpt>
      <trkpt lat="44.26206" lon="6.99846">
        <ele>2773.97</ele>
        <time>2018-05-11T10:00:50Z</time>
      </trkpt>
      <trkpt lat="44.26208" lon="6.99867">
        <ele>2770.49</ele>
        <time>2018-05-11T10:00:54Z</time>
      </trkpt>
      <trkpt lat="44.26211" lon="6.99877">
        <ele>2767.38</ele>
        <time>2018-05-11T10:00:56Z</time>
      </trkpt>
      <trkpt lat="44.26211" lon="6.99883">
        <ele>2765.46</ele>
        <time>2018-05-11T10:00:57Z</time>
      </trkpt>
      <trkpt lat="44.26222" lon="6.99899">
        <ele>2756.69</ele>
        <time>2018-05-11T10:01:01Z</time>
      </trkpt>
      <trkpt lat="44.26228" lon="6.99909">
        <ele>2753.42</ele>
        <time>2018-05-11T10:01:03Z</time>
      </trkpt>
      <trkpt lat="44.2624" lon="6.99917">
        <ele>2748.54</ele>
        <time>2018-05-11T10:01:05Z</time>
      </trkpt>
      <trkpt lat="44.26251" lon="6.99927">
        <ele>2744.59</ele>
        <time>2018-05-11T10:01:07Z</time>
      </trkpt>
      <trkpt lat="44.26258" lon="6.99938">
        <ele>2742.91</ele>
        <time>2018-05-11T10:01:09Z</time>
      </trkpt>
      <trkpt lat="44.26269" lon="6.99955">
        <ele>2737.33</ele>
        <time>2018-05-11T10:01:13Z</time>
      </trkpt>
      <trkpt lat="44.26274" lon="6.99957">
        <ele>2736.25</ele>
        <time>2018-05-11T10:01:15Z</time>
      </trkpt>
      <trkpt lat="44.26275" lon="6.99958">
        <ele>2735.4</ele>
        <time>2018-05-11T10:01:17Z</time>
      </trkpt>
      <trkpt lat="44.26276" lon="6.99962">
        <ele>2735.38</ele>
        <time>2018-05-11T10:01:43Z</time>
      </trkpt>
      <trkpt lat="44.26276" lon="6.99958">
        <ele>2735.41</ele>
        <time>2018-05-11T10:01:50Z</time>
      </trkpt>
      <trkpt lat="44.26275" lon="6.99953">
        <ele>2735.4</ele>
        <time>2018-05-11T10:02:19Z</time>
      </trkpt>
      <trkpt lat="44.26274" lon="6.99952">
        <ele>2735.06</ele>
        <time>2018-05-11T10:02:50Z</time>
      </trkpt>
      <trkpt lat="44.26279" lon="6.99947">
        <ele>2735.27</ele>
        <time>2018-05-11T10:03:14Z</time>
      </trkpt>
      <trkpt lat="44.26281" lon="6.99945">
        <ele>2734.9</ele>
        <time>2018-05-11T10:03:16Z</time>
      </trkpt>
      <trkpt lat="44.26297" lon="6.99933">
        <ele>2730.49</ele>
        <time>2018-05-11T10:03:21Z</time>
      </trkpt>
      <trkpt lat="44.26312" lon="6.9993">
        <ele>2728.07</ele>
        <time>2018-05-11T10:03:24Z</time>
      </trkpt>
      <trkpt lat="44.26326" lon="6.99929">
        <ele>2725.44</ele>
        <time>2018-05-11T10:03:27Z</time>
      </trkpt>
      <trkpt lat="44.26342" lon="6.99929">
        <ele>2724.15</ele>
        <time>2018-05-11T10:03:35Z</time>
      </trkpt>
      <trkpt lat="44.26344" lon="6.99928">
        <ele>2723.75</ele>
        <time>2018-05-11T10:04:05Z</time>
      </trkpt>
      <trkpt lat="44.26344" lon="6.99927">
        <ele>2723.08</ele>
        <time>2018-05-11T10:04:35Z</time>
      </trkpt>
      <trkpt lat="44.26346" lon="6.99925">
        <ele>2723.65</ele>
        <time>2018-05-11T10:05:05Z</time>
      </trkpt>
      <trkpt lat="44.26347" lon="6.99927">
        <ele>2723.53</ele>
        <time>2018-05-11T10:05:07Z</time>
      </trkpt>
      <trkpt lat="44.26361" lon="6.9995">
        <ele>2720.25</ele>
        <time>2018-05-11T10:05:13Z</time>
      </trkpt>
      <trkpt lat="44.26362" lon="6.99955">
        <ele>2718.17</ele>
        <time>2018-05-11T10:05:24Z</time>
      </trkpt>
      <trkpt lat="44.26363" lon="6.99955">
        <ele>2718.16</ele>
        <time>2018-05-11T10:05:34Z</time>
      </trkpt>
      <trkpt lat="44.26349" lon="6.99977">
        <ele>2712.51</ele>
        <time>2018-05-11T10:05:39Z</time>
      </trkpt>
      <trkpt lat="44.2635" lon="6.99994">
        <ele>2707.71</ele>
        <time>2018-05-11T10:05:41Z</time>
      </trkpt>
      <trkpt lat="44.26343" lon="7.00009">
        <ele>2703.61</ele>
        <time>2018-05-11T10:05:43Z</time>
      </trkpt>
      <trkpt lat="44.26339" lon="7.00018">
        <ele>2700.39</ele>
        <time>2018-05-11T10:05:44Z</time>
      </trkpt>
      <trkpt lat="44.26337" lon="7.00027">
        <ele>2697.04</ele>
        <time>2018-05-11T10:05:45Z</time>
      </trkpt>
      <trkpt lat="44.26329" lon="7.00048">
        <ele>2688.69</ele>
        <time>2018-05-11T10:05:48Z</time>
      </trkpt>
      <trkpt lat="44.26324" lon="7.00061">
        <ele>2682.29</ele>
        <time>2018-05-11T10:05:50Z</time>
      </trkpt>
      <trkpt lat="44.26326" lon="7.00069">
        <ele>2678.6</ele>
        <time>2018-05-11T10:05:52Z</time>
      </trkpt>
      <trkpt lat="44.26325" lon="7.00071">
        <ele>2676.08</ele>
        <time>2018-05-11T10:06:01Z</time>
      </trkpt>
      <trkpt lat="44.26326" lon="7.00067">
        <ele>2676.15</ele>
        <time>2018-05-11T10:06:25Z</time>
      </trkpt>
      <trkpt lat="44.26331" lon="7.00055">
        <ele>2676.17</ele>
        <time>2018-05-11T10:06:54Z</time>
      </trkpt>
      <trkpt lat="44.26331" lon="7.00059">
        <ele>2676.15</ele>
        <time>2018-05-11T10:07:24Z</time>
      </trkpt>
      <trkpt lat="44.26329" lon="7.00059">
        <ele>2675.81</ele>
        <time>2018-05-11T10:07:46Z</time>
      </trkpt>
      <trkpt lat="44.26327" lon="7.00064">
        <ele>2675.71</ele>
        <time>2018-05-11T10:08:21Z</time>
      </trkpt>
      <trkpt lat="44.26328" lon="7.00062">
        <ele>2675.54</ele>
        <time>2018-05-11T10:08:23Z</time>
      </trkpt>
      <trkpt lat="44.26315" lon="7.0008">
        <ele>2670.76</ele>
        <time>2018-05-11T10:08:29Z</time>
      </trkpt>
      <trkpt lat="44.26311" lon="7.00094">
        <ele>2665.76</ele>
        <time>2018-05-11T10:08:31Z</time>
      </trkpt>
      <trkpt lat="44.26303" lon="7.00103">
        <ele>2662.13</ele>
        <time>2018-05-11T10:08:33Z</time>
      </trkpt>
      <trkpt lat="44.26293" lon="7.00115">
        <ele>2655.97</ele>
        <time>2018-05-11T10:08:35Z</time>
      </trkpt>
      <trkpt lat="44.26288" lon="7.00128">
        <ele>2651.87</ele>
        <time>2018-05-11T10:08:37Z</time>
      </trkpt>
      <trkpt lat="44.2628" lon="7.00139">
        <ele>2646.89</ele>
        <time>2018-05-11T10:08:39Z</time>
      </trkpt>
      <trkpt lat="44.26274" lon="7.00153">
        <ele>2641.72</ele>
        <time>2018-05-11T10:08:41Z</time>
      </trkpt>
      <trkpt lat="44.26271" lon="7.00149">
        <ele>2633.4</ele>
        <time>2018-05-11T10:08:52Z</time>
      </trkpt>
      <trkpt lat="44.26272" lon="7.0015">
        <ele>2632.99</ele>
        <time>2018-05-11T10:09:13Z</time>
      </trkpt>
      <trkpt lat="44.2626" lon="7.00155">
        <ele>2630.79</ele>
        <time>2018-05-11T10:09:18Z</time>
      </trkpt>
      <trkpt lat="44.26247" lon="7.00185">
        <ele>2623.18</ele>
        <time>2018-05-11T10:09:22Z</time>
      </trkpt>
      <trkpt lat="44.2624" lon="7.00191">
        <ele>2619.49</ele>
        <time>2018-05-11T10:09:23Z</time>
      </trkpt>
      <trkpt lat="44.26233" lon="7.00192">
        <ele>2612.18</ele>
        <time>2018-05-11T10:09:26Z</time>
      </trkpt>
      <trkpt lat="44.26233" lon="7.00191">
        <ele>2611.22</ele>
        <time>2018-05-11T10:09:28Z</time>
      </trkpt>
      <trkpt lat="44.26236" lon="7.00181">
        <ele>2610.81</ele>
        <time>2018-05-11T10:09:53Z</time>
      </trkpt>
      <trkpt lat="44.26238" lon="7.00176">
        <ele>2611.06</ele>
        <time>2018-05-11T10:10:13Z</time>
      </trkpt>
      <trkpt lat="44.26242" lon="7.00169">
        <ele>2610.7</ele>
        <time>2018-05-11T10:10:37Z</time>
      </trkpt>
      <trkpt lat="44.2624" lon="7.00167">
        <ele>2610.95</ele>
        <time>2018-05-11T10:11:00Z</time>
      </trkpt>
      <trkpt lat="44.26243" lon="7.00166">
        <ele>2610.62</ele>
        <time>2018-05-11T10:11:24Z</time>
      </trkpt>
      <trkpt lat="44.26245" lon="7.00165">
        <ele>2610.86</ele>
        <time>2018-05-11T10:11:49Z</time>
      </trkpt>
      <trkpt lat="44.26246" lon="7.0016">
        <ele>2610.47</ele>
        <time>2018-05-11T10:12:43Z</time>
      </trkpt>
      <trkpt lat="44.26236" lon="7.00158">
        <ele>2608.6</ele>
        <time>2018-05-11T10:13:14Z</time>
      </trkpt>
      <trkpt lat="44.26223" lon="7.00157">
        <ele>2607.54</ele>
        <time>2018-05-11T10:13:30Z</time>
      </trkpt>
      <trkpt lat="44.26207" lon="7.00152">
        <ele>2605.51</ele>
        <time>2018-05-11T10:13:41Z</time>
      </trkpt>
      <trkpt lat="44.26178" lon="7.00158">
        <ele>2602.17</ele>
        <time>2018-05-11T10:13:49Z</time>
      </trkpt>
      <trkpt lat="44.26146" lon="7.00162">
        <ele>2599.03</ele>
        <time>2018-05-11T10:13:59Z</time>
      </trkpt>
      <trkpt lat="44.26126" lon="7.00176">
        <ele>2596.73</ele>
        <time>2018-05-11T10:14:10Z</time>
      </trkpt>
      <trkpt lat="44.26117" lon="7.00186">
        <ele>2596.83</ele>
        <time>2018-05-11T10:14:28Z</time>
      </trkpt>
      <trkpt lat="44.26115" lon="7.00196">
        <ele>2596.62</ele>
        <time>2018-05-11T10:14:50Z</time>
      </trkpt>
      <trkpt lat="44.26112" lon="7.00196">
        <ele>2596.39</ele>
        <time>2018-05-11T10:15:24Z</time>
      </trkpt>
      <trkpt lat="44.26089" lon="7.00228">
        <ele>2593.32</ele>
        <time>2018-05-11T10:15:37Z</time>
      </trkpt>
      <trkpt lat="44.26085" lon="7.00236">
        <ele>2591.89</ele>
        <time>2018-05-11T10:15:38Z</time>
      </trkpt>
      <trkpt lat="44.2607" lon="7.00274">
        <ele>2587.39</ele>
        <time>2018-05-11T10:15:43Z</time>
      </trkpt>
      <trkpt lat="44.26062" lon="7.00295">
        <ele>2584.44</ele>
        <time>2018-05-11T10:15:48Z</time>
      </trkpt>
      <trkpt lat="44.26061" lon="7.00292">
        <ele>2583.27</ele>
        <time>2018-05-11T10:16:07Z</time>
      </trkpt>
      <trkpt lat="44.26062" lon="7.00287">
        <ele>2583.3</ele>
        <time>2018-05-11T10:16:28Z</time>
      </trkpt>
      <trkpt lat="44.26058" lon="7.00295">
        <ele>2582.63</ele>
        <time>2018-05-11T10:16:45Z</time>
      </trkpt>
      <trkpt lat="44.26059" lon="7.00295">
        <ele>2581.77</ele>
        <time>2018-05-11T10:17:15Z</time>
      </trkpt>
      <trkpt lat="44.26058" lon="7.00306">
        <ele>2581.85</ele>
        <time>2018-05-11T10:17:47Z</time>
      </trkpt>
      <trkpt lat="44.26052" lon="7.00317">
        <ele>2582.6</ele>
        <time>2018-05-11T10:18:05Z</time>
      </trkpt>
      <trkpt lat="44.26036" lon="7.00357">
        <ele>2578.98</ele>
        <time>2018-05-11T10:18:13Z</time>
      </trkpt>
      <trkpt lat="44.26024" lon="7.00388">
        <ele>2575.21</ele>
        <time>2018-05-11T10:18:17Z</time>
      </trkpt>
      <trkpt lat="44.26015" lon="7.0042">
        <ele>2572.33</ele>
        <time>2018-05-11T10:18:22Z</time>
      </trkpt>
      <trkpt lat="44.26011" lon="7.00419">
        <ele>2572.2</ele>
        <time>2018-05-11T10:18:33Z</time>
      </trkpt>
      <trkpt lat="44.26014" lon="7.0042">
        <ele>2571.51</ele>
        <time>2018-05-11T10:18:55Z</time>
      </trkpt>
      <trkpt lat="44.26015" lon="7.00421">
        <ele>2572.09</ele>
        <time>2018-05-11T10:19:20Z</time>
      </trkpt>
      <trkpt lat="44.26015" lon="7.00421">
        <ele>2571.96</ele>
        <time>2018-05-11T10:19:25Z</time>
      </trkpt>
      <trkpt lat="44.26013" lon="7.00437">
        <ele>2570.61</ele>
        <time>2018-05-11T10:19:31Z</time>
      </trkpt>
      <trkpt lat="44.26003" lon="7.00462">
        <ele>2568.8</ele>
        <time>2018-05-11T10:19:38Z</time>
      </trkpt>
      <trkpt lat="44.25995" lon="7.00488">
        <ele>2566.26</ele>
        <time>2018-05-11T10:19:49Z</time>
      </trkpt>
      <trkpt lat="44.2599" lon="7.00503">
        <ele>2566.71</ele>
        <time>2018-05-11T10:20:07Z</time>
      </trkpt>
      <trkpt lat="44.25985" lon="7.0052">
        <ele>2567.28</ele>
        <time>2018-05-11T10:20:25Z</time>
      </trkpt>
      <trkpt lat="44.25979" lon="7.00534">
        <ele>2567.52</ele>
        <time>2018-05-11T10:20:41Z</time>
      </trkpt>
      <trkpt lat="44.25974" lon="7.00536">
        <ele>2567.74</ele>
        <time>2018-05-11T10:21:00Z</time>
      </trkpt>
      <trkpt lat="44.25975" lon="7.00537">
        <ele>2568.07</ele>
        <time>2018-05-11T10:21:17Z</time>
      </trkpt>
      <trkpt lat="44.25975" lon="7.00537">
        <ele>2567.32</ele>
        <time>2018-05-11T10:21:39Z</time>
      </trkpt>
      <trkpt lat="44.25976" lon="7.00536">
        <ele>2566.42</ele>
        <time>2018-05-11T10:22:02Z</time>
      </trkpt>
      <trkpt lat="44.25975" lon="7.00539">
        <ele>2566.85</ele>
        <time>2018-05-11T10:22:21Z</time>
      </trkpt>
      <trkpt lat="44.25976" lon="7.00545">
        <ele>2566.3</ele>
        <time>2018-05-11T10:22:35Z</time>
      </trkpt>
      <trkpt lat="44.25977" lon="7.00543">
        <ele>2567.15</ele>
        <time>2018-05-11T10:23:04Z</time>
      </trkpt>
      <trkpt lat="44.25976" lon="7.00545">
        <ele>2566.46</ele>
        <time>2018-05-11T10:23:33Z</time>
      </trkpt>
      <trkpt lat="44.25977" lon="7.00545">
        <ele>2566.93</ele>
        <time>2018-05-11T10:23:54Z</time>
      </trkpt>
      <trkpt lat="44.25976" lon="7.00546">
        <ele>2566.62</ele>
        <time>2018-05-11T10:24:15Z</time>
      </trkpt>
      <trkpt lat="44.25977" lon="7.00548">
        <ele>2567.55</ele>
        <time>2018-05-11T10:24:38Z</time>
      </trkpt>
      <trkpt lat="44.25976" lon="7.00549">
        <ele>2567.15</ele>
        <time>2018-05-11T10:25:05Z</time>
      </trkpt>
      <trkpt lat="44.25975" lon="7.00548">
        <ele>2567.64</ele>
        <time>2018-05-11T10:25:23Z</time>
      </trkpt>
      <trkpt lat="44.25973" lon="7.00548">
        <ele>2567.38</ele>
        <time>2018-05-11T10:25:59Z</time>
      </trkpt>
      <trkpt lat="44.25974" lon="7.00547">
        <ele>2567.19</ele>
        <time>2018-05-11T10:26:39Z</time>
      </trkpt>
      <trkpt lat="44.25972" lon="7.00551">
        <ele>2567.27</ele>
        <time>2018-05-11T10:27:52Z</time>
      </trkpt>
      <trkpt lat="44.25967" lon="7.00559">
        <ele>2567.17</ele>
        <time>2018-05-11T10:28:01Z</time>
      </trkpt>
      <trkpt lat="44.25966" lon="7.0057">
        <ele>2565.28</ele>
        <time>2018-05-11T10:28:06Z</time>
      </trkpt>
      <trkpt lat="44.25964" lon="7.0057">
        <ele>2564.98</ele>
        <time>2018-05-11T10:28:47Z</time>
      </trkpt>
      <trkpt lat="44.25962" lon="7.00571">
        <ele>2565.08</ele>
        <time>2018-05-11T10:28:50Z</time>
      </trkpt>
      <trkpt lat="44.2596" lon="7.00574">
        <ele>2564.83</ele>
        <time>2018-05-11T10:28:52Z</time>
      </trkpt>
      <trkpt lat="44.25949" lon="7.00596">
        <ele>2561.22</ele>
        <time>2018-05-11T10:28:57Z</time>
      </trkpt>
      <trkpt lat="44.25941" lon="7.00605">
        <ele>2558.36</ele>
        <time>2018-05-11T10:29:02Z</time>
      </trkpt>
      <trkpt lat="44.2594" lon="7.00606">
        <ele>2557.38</ele>
        <time>2018-05-11T10:29:15Z</time>
      </trkpt>
      <trkpt lat="44.25939" lon="7.00605">
        <ele>2557.35</ele>
        <time>2018-05-11T10:30:00Z</time>
      </trkpt>
      <trkpt lat="44.25933" lon="7.00608">
        <ele>2557.53</ele>
        <time>2018-05-11T10:30:13Z</time>
      </trkpt>
      <trkpt lat="44.25917" lon="7.00616">
        <ele>2556.31</ele>
        <time>2018-05-11T10:30:26Z</time>
      </trkpt>
      <trkpt lat="44.25903" lon="7.00628">
        <ele>2553.51</ele>
        <time>2018-05-11T10:30:37Z</time>
      </trkpt>
      <trkpt lat="44.25898" lon="7.00631">
        <ele>2552.68</ele>
        <time>2018-05-11T10:30:38Z</time>
      </trkpt>
      <trkpt lat="44.2589" lon="7.00637">
        <ele>2550.03</ele>
        <time>2018-05-11T10:30:41Z</time>
      </trkpt>
      <trkpt lat="44.25892" lon="7.00635">
        <ele>2550.48</ele>
        <time>2018-05-11T10:31:15Z</time>
      </trkpt>
      <trkpt lat="44.25892" lon="7.00635">
        <ele>2550.22</ele>
        <time>2018-05-11T10:31:51Z</time>
      </trkpt>
      <trkpt lat="44.25904" lon="7.00645">
        <ele>2546.9</ele>
        <time>2018-05-11T10:31:55Z</time>
      </trkpt>
      <trkpt lat="44.25906" lon="7.00655">
        <ele>2543.2</ele>
        <time>2018-05-11T10:31:57Z</time>
      </trkpt>
      <trkpt lat="44.25911" lon="7.00669">
        <ele>2538.7</ele>
        <time>2018-05-11T10:31:59Z</time>
      </trkpt>
      <trkpt lat="44.25909" lon="7.00683">
        <ele>2534.11</ele>
        <time>2018-05-11T10:32:01Z</time>
      </trkpt>
      <trkpt lat="44.25905" lon="7.00688">
        <ele>2531.04</ele>
        <time>2018-05-11T10:32:05Z</time>
      </trkpt>
      <trkpt lat="44.25904" lon="7.00688">
        <ele>2530.8</ele>
        <time>2018-05-11T10:32:06Z</time>
      </trkpt>
      <trkpt lat="44.25889" lon="7.00695">
        <ele>2530.03</ele>
        <time>2018-05-11T10:32:15Z</time>
      </trkpt>
      <trkpt lat="44.25864" lon="7.00707">
        <ele>2525.84</ele>
        <time>2018-05-11T10:32:21Z</time>
      </trkpt>
      <trkpt lat="44.25846" lon="7.00717">
        <ele>2523.3</ele>
        <time>2018-05-11T10:32:31Z</time>
      </trkpt>
      <trkpt lat="44.2583" lon="7.0073">
        <ele>2521.59</ele>
        <time>2018-05-11T10:32:44Z</time>
      </trkpt>
      <trkpt lat="44.25797" lon="7.00746">
        <ele>2519.15</ele>
        <time>2018-05-11T10:33:00Z</time>
      </trkpt>
      <trkpt lat="44.25795" lon="7.00747">
        <ele>2518.75</ele>
        <time>2018-05-11T10:33:14Z</time>
      </trkpt>
      <trkpt lat="44.25789" lon="7.0075">
        <ele>2518.75</ele>
        <time>2018-05-11T10:33:31Z</time>
      </trkpt>
      <trkpt lat="44.2578" lon="7.00752">
        <ele>2519.4</ele>
        <time>2018-05-11T10:33:51Z</time>
      </trkpt>
      <trkpt lat="44.25773" lon="7.00755">
        <ele>2519.9</ele>
        <time>2018-05-11T10:34:09Z</time>
      </trkpt>
      <trkpt lat="44.25743" lon="7.00756">
        <ele>2518.02</ele>
        <time>2018-05-11T10:34:23Z</time>
      </trkpt>
      <trkpt lat="44.25734" lon="7.00757">
        <ele>2516.8</ele>
        <time>2018-05-11T10:34:25Z</time>
      </trkpt>
      <trkpt lat="44.25707" lon="7.00758">
        <ele>2513.2</ele>
        <time>2018-05-11T10:34:29Z</time>
      </trkpt>
      <trkpt lat="44.25686" lon="7.00763">
        <ele>2509.91</ele>
        <time>2018-05-11T10:34:33Z</time>
      </trkpt>
      <trkpt lat="44.25665" lon="7.00767">
        <ele>2506.49</ele>
        <time>2018-05-11T10:34:39Z</time>
      </trkpt>
      <trkpt lat="44.2566" lon="7.00767">
        <ele>2505.65</ele>
        <time>2018-05-11T10:34:40Z</time>
      </trkpt>
      <trkpt lat="44.2564" lon="7.00773">
        <ele>2502.29</ele>
        <time>2018-05-11T10:34:45Z</time>
      </trkpt>
      <trkpt lat="44.25639" lon="7.00777">
        <ele>2501.93</ele>
        <time>2018-05-11T10:34:54Z</time>
      </trkpt>
      <trkpt lat="44.25628" lon="7.00777">
        <ele>2502.49</ele>
        <time>2018-05-11T10:35:10Z</time>
      </trkpt>
      <trkpt lat="44.2562" lon="7.00775">
        <ele>2502.54</ele>
        <time>2018-05-11T10:35:30Z</time>
      </trkpt>
      <trkpt lat="44.25618" lon="7.00773">
        <ele>2502.79</ele>
        <time>2018-05-11T10:35:45Z</time>
      </trkpt>
      <trkpt lat="44.25608" lon="7.00771">
        <ele>2503.38</ele>
        <time>2018-05-11T10:36:00Z</time>
      </trkpt>
      <trkpt lat="44.256" lon="7.00768">
        <ele>2504.36</ele>
        <time>2018-05-11T10:36:11Z</time>
      </trkpt>
      <trkpt lat="44.25596" lon="7.00766">
        <ele>2504.13</ele>
        <time>2018-05-11T10:36:26Z</time>
      </trkpt>
      <trkpt lat="44.25594" lon="7.00767">
        <ele>2504.38</ele>
        <time>2018-05-11T10:36:28Z</time>
      </trkpt>
      <trkpt lat="44.25589" lon="7.0077">
        <ele>2504.06</ele>
        <time>2018-05-11T10:36:32Z</time>
      </trkpt>
      <trkpt lat="44.25558" lon="7.00798">
        <ele>2500.97</ele>
        <time>2018-05-11T10:36:41Z</time>
      </trkpt>
      <trkpt lat="44.25554" lon="7.00802">
        <ele>2500.21</ele>
        <time>2018-05-11T10:36:42Z</time>
      </trkpt>
      <trkpt lat="44.25531" lon="7.00813">
        <ele>2496.15</ele>
        <time>2018-05-11T10:36:47Z</time>
      </trkpt>
      <trkpt lat="44.25528" lon="7.00813">
        <ele>2495.68</ele>
        <time>2018-05-11T10:36:48Z</time>
      </trkpt>
      <trkpt lat="44.25525" lon="7.00813">
        <ele>2494.44</ele>
        <time>2018-05-11T10:37:00Z</time>
      </trkpt>
      <trkpt lat="44.25525" lon="7.00811">
        <ele>2494.76</ele>
        <time>2018-05-11T10:37:24Z</time>
      </trkpt>
      <trkpt lat="44.25515" lon="7.00817">
        <ele>2493.7</ele>
        <time>2018-05-11T10:37:30Z</time>
      </trkpt>
      <trkpt lat="44.25501" lon="7.00837">
        <ele>2489.54</ele>
        <time>2018-05-11T10:37:34Z</time>
      </trkpt>
      <trkpt lat="44.25494" lon="7.00851">
        <ele>2485.93</ele>
        <time>2018-05-11T10:37:36Z</time>
      </trkpt>
      <trkpt lat="44.25482" lon="7.00858">
        <ele>2482.27</ele>
        <time>2018-05-11T10:37:38Z</time>
      </trkpt>
      <trkpt lat="44.25471" lon="7.00868">
        <ele>2477.65</ele>
        <time>2018-05-11T10:37:40Z</time>
      </trkpt>
      <trkpt lat="44.25453" lon="7.00885">
        <ele>2469.55</ele>
        <time>2018-05-11T10:37:43Z</time>
      </trkpt>
      <trkpt lat="44.25443" lon="7.00897">
        <ele>2465.2</ele>
        <time>2018-05-11T10:37:45Z</time>
      </trkpt>
      <trkpt lat="44.25423" lon="7.00901">
        <ele>2459.43</ele>
        <time>2018-05-11T10:37:49Z</time>
      </trkpt>
      <trkpt lat="44.25406" lon="7.00901">
        <ele>2454.2</ele>
        <time>2018-05-11T10:37:53Z</time>
      </trkpt>
      <trkpt lat="44.25403" lon="7.00899">
        <ele>2452.95</ele>
        <time>2018-05-11T10:37:56Z</time>
      </trkpt>
      <trkpt lat="44.25404" lon="7.00899">
        <ele>2452.26</ele>
        <time>2018-05-11T10:38:15Z</time>
      </trkpt>
      <trkpt lat="44.25404" lon="7.00899">
        <ele>2452.34</ele>
        <time>2018-05-11T10:38:22Z</time>
      </trkpt>
      <trkpt lat="44.25402" lon="7.00899">
        <ele>2452.55</ele>
        <time>2018-05-11T10:38:24Z</time>
      </trkpt>
      <trkpt lat="44.25392" lon="7.009">
        <ele>2451.75</ele>
        <time>2018-05-11T10:38:29Z</time>
      </trkpt>
      <trkpt lat="44.25373" lon="7.00912">
        <ele>2447.1</ele>
        <time>2018-05-11T10:38:33Z</time>
      </trkpt>
      <trkpt lat="44.25361" lon="7.0092">
        <ele>2443.12</ele>
        <time>2018-05-11T10:38:35Z</time>
      </trkpt>
      <trkpt lat="44.25349" lon="7.00928">
        <ele>2439.32</ele>
        <time>2018-05-11T10:38:37Z</time>
      </trkpt>
      <trkpt lat="44.25338" lon="7.00934">
        <ele>2435.72</ele>
        <time>2018-05-11T10:38:39Z</time>
      </trkpt>
      <trkpt lat="44.25334" lon="7.00936">
        <ele>2434.31</ele>
        <time>2018-05-11T10:38:40Z</time>
      </trkpt>
      <trkpt lat="44.25323" lon="7.00939">
        <ele>2429.19</ele>
        <time>2018-05-11T10:38:49Z</time>
      </trkpt>
      <trkpt lat="44.25322" lon="7.00938">
        <ele>2429.02</ele>
        <time>2018-05-11T10:39:18Z</time>
      </trkpt>
      <trkpt lat="44.25317" lon="7.00942">
        <ele>2428.76</ele>
        <time>2018-05-11T10:39:21Z</time>
      </trkpt>
      <trkpt lat="44.25297" lon="7.00955">
        <ele>2424.48</ele>
        <time>2018-05-11T10:39:25Z</time>
      </trkpt>
      <trkpt lat="44.25287" lon="7.0097">
        <ele>2419.8</ele>
        <time>2018-05-11T10:39:27Z</time>
      </trkpt>
      <trkpt lat="44.25275" lon="7.00987">
        <ele>2413.09</ele>
        <time>2018-05-11T10:39:29Z</time>
      </trkpt>
      <trkpt lat="44.25262" lon="7.01004">
        <ele>2407.46</ele>
        <time>2018-05-11T10:39:31Z</time>
      </trkpt>
      <trkpt lat="44.25247" lon="7.01009">
        <ele>2402.55</ele>
        <time>2018-05-11T10:39:33Z</time>
      </trkpt>
      <trkpt lat="44.25238" lon="7.01016">
        <ele>2399.84</ele>
        <time>2018-05-11T10:39:35Z</time>
      </trkpt>
      <trkpt lat="44.25223" lon="7.01031">
        <ele>2395.66</ele>
        <time>2018-05-11T10:39:40Z</time>
      </trkpt>
      <trkpt lat="44.25222" lon="7.01033">
        <ele>2395.41</ele>
        <time>2018-05-11T10:39:41Z</time>
      </trkpt>
      <trkpt lat="44.2521" lon="7.01049">
        <ele>2393.5</ele>
        <time>2018-05-11T10:39:50Z</time>
      </trkpt>
      <trkpt lat="44.25192" lon="7.01064">
        <ele>2391.58</ele>
        <time>2018-05-11T10:40:01Z</time>
      </trkpt>
      <trkpt lat="44.2519" lon="7.01067">
        <ele>2391.17</ele>
        <time>2018-05-11T10:40:02Z</time>
      </trkpt>
      <trkpt lat="44.25177" lon="7.01084">
        <ele>2387.36</ele>
        <time>2018-05-11T10:40:06Z</time>
      </trkpt>
      <trkpt lat="44.25159" lon="7.01102">
        <ele>2383.05</ele>
        <time>2018-05-11T10:40:11Z</time>
      </trkpt>
      <trkpt lat="44.25156" lon="7.01106">
        <ele>2382.32</ele>
        <time>2018-05-11T10:40:13Z</time>
      </trkpt>
      <trkpt lat="44.25138" lon="7.01125">
        <ele>2379.91</ele>
        <time>2018-05-11T10:40:22Z</time>
      </trkpt>
      <trkpt lat="44.25136" lon="7.01129">
        <ele>2379.33</ele>
        <time>2018-05-11T10:40:23Z</time>
      </trkpt>
      <trkpt lat="44.25121" lon="7.01146">
        <ele>2376.56</ele>
        <time>2018-05-11T10:40:28Z</time>
      </trkpt>
      <trkpt lat="44.25101" lon="7.01161">
        <ele>2372.82</ele>
        <time>2018-05-11T10:40:36Z</time>
      </trkpt>
      <trkpt lat="44.251" lon="7.01162">
        <ele>2372.16</ele>
        <time>2018-05-11T10:40:51Z</time>
      </trkpt>
      <trkpt lat="44.25096" lon="7.01163">
        <ele>2371.86</ele>
        <time>2018-05-11T10:41:16Z</time>
      </trkpt>
      <trkpt lat="44.25092" lon="7.01163">
        <ele>2371.89</ele>
        <time>2018-05-11T10:41:20Z</time>
      </trkpt>
      <trkpt lat="44.25087" lon="7.01162">
        <ele>2371.63</ele>
        <time>2018-05-11T10:41:23Z</time>
      </trkpt>
      <trkpt lat="44.25077" lon="7.0117">
        <ele>2369.78</ele>
        <time>2018-05-11T10:41:26Z</time>
      </trkpt>
      <trkpt lat="44.25061" lon="7.01188">
        <ele>2365.62</ele>
        <time>2018-05-11T10:41:29Z</time>
      </trkpt>
      <trkpt lat="44.25055" lon="7.01193">
        <ele>2363.01</ele>
        <time>2018-05-11T10:41:30Z</time>
      </trkpt>
      <trkpt lat="44.25028" lon="7.01221">
        <ele>2353.67</ele>
        <time>2018-05-11T10:41:34Z</time>
      </trkpt>
      <trkpt lat="44.25022" lon="7.0123">
        <ele>2351.89</ele>
        <time>2018-05-11T10:41:35Z</time>
      </trkpt>
      <trkpt lat="44.25003" lon="7.01249">
        <ele>2346.31</ele>
        <time>2018-05-11T10:41:39Z</time>
      </trkpt>
      <trkpt lat="44.24986" lon="7.01262">
        <ele>2342.63</ele>
        <time>2018-05-11T10:41:43Z</time>
      </trkpt>
      <trkpt lat="44.24969" lon="7.01274">
        <ele>2339.3</ele>
        <time>2018-05-11T10:41:50Z</time>
      </trkpt>
      <trkpt lat="44.24947" lon="7.01284">
        <ele>2336.18</ele>
        <time>2018-05-11T10:42:00Z</time>
      </trkpt>
      <trkpt lat="44.24939" lon="7.01287">
        <ele>2333.97</ele>
        <time>2018-05-11T10:42:12Z</time>
      </trkpt>
      <trkpt lat="44.24939" lon="7.01287">
        <ele>2333.88</ele>
        <time>2018-05-11T10:42:16Z</time>
      </trkpt>
      <trkpt lat="44.24934" lon="7.01292">
        <ele>2333.34</ele>
        <time>2018-05-11T10:42:19Z</time>
      </trkpt>
      <trkpt lat="44.2492" lon="7.01311">
        <ele>2328.35</ele>
        <time>2018-05-11T10:42:23Z</time>
      </trkpt>
      <trkpt lat="44.24908" lon="7.01322">
        <ele>2324.43</ele>
        <time>2018-05-11T10:42:25Z</time>
      </trkpt>
      <trkpt lat="44.24903" lon="7.01324">
        <ele>2321.41</ele>
        <time>2018-05-11T10:42:26Z</time>
      </trkpt>
      <trkpt lat="44.24891" lon="7.01331">
        <ele>2317</ele>
        <time>2018-05-11T10:42:28Z</time>
      </trkpt>
      <trkpt lat="44.24885" lon="7.01332">
        <ele>2313.72</ele>
        <time>2018-05-11T10:42:29Z</time>
      </trkpt>
      <trkpt lat="44.24873" lon="7.01329">
        <ele>2309.58</ele>
        <time>2018-05-11T10:42:31Z</time>
      </trkpt>
      <trkpt lat="44.24867" lon="7.01328">
        <ele>2308.44</ele>
        <time>2018-05-11T10:42:32Z</time>
      </trkpt>
      <trkpt lat="44.24846" lon="7.01327">
        <ele>2304.85</ele>
        <time>2018-05-11T10:42:35Z</time>
      </trkpt>
      <trkpt lat="44.24818" lon="7.01338">
        <ele>2298.63</ele>
        <time>2018-05-11T10:42:39Z</time>
      </trkpt>
      <trkpt lat="44.24811" lon="7.01342">
        <ele>2296.38</ele>
        <time>2018-05-11T10:42:40Z</time>
      </trkpt>
      <trkpt lat="44.24784" lon="7.01357">
        <ele>2289.97</ele>
        <time>2018-05-11T10:42:45Z</time>
      </trkpt>
      <trkpt lat="44.2478" lon="7.01358">
        <ele>2288.03</ele>
        <time>2018-05-11T10:42:47Z</time>
      </trkpt>
      <trkpt lat="44.24778" lon="7.01358">
        <ele>2286.47</ele>
        <time>2018-05-11T10:43:04Z</time>
      </trkpt>
      <trkpt lat="44.24781" lon="7.01358">
        <ele>2286.85</ele>
        <time>2018-05-11T10:43:27Z</time>
      </trkpt>
      <trkpt lat="44.2478" lon="7.01358">
        <ele>2286.53</ele>
        <time>2018-05-11T10:43:51Z</time>
      </trkpt>
      <trkpt lat="44.24782" lon="7.01356">
        <ele>2286.35</ele>
        <time>2018-05-11T10:44:11Z</time>
      </trkpt>
      <trkpt lat="44.24783" lon="7.01355">
        <ele>2286.91</ele>
        <time>2018-05-11T10:44:30Z</time>
      </trkpt>
      <trkpt lat="44.24781" lon="7.01358">
        <ele>2286.8</ele>
        <time>2018-05-11T10:44:37Z</time>
      </trkpt>
      <trkpt lat="44.2478" lon="7.01388">
        <ele>2282.04</ele>
        <time>2018-05-11T10:44:43Z</time>
      </trkpt>
      <trkpt lat="44.24782" lon="7.01407">
        <ele>2276.25</ele>
        <time>2018-05-11T10:44:45Z</time>
      </trkpt>
      <trkpt lat="44.24781" lon="7.01416">
        <ele>2272.55</ele>
        <time>2018-05-11T10:44:46Z</time>
      </trkpt>
      <trkpt lat="44.2478" lon="7.01426">
        <ele>2268.47</ele>
        <time>2018-05-11T10:44:47Z</time>
      </trkpt>
      <trkpt lat="44.24781" lon="7.01437">
        <ele>2263.66</ele>
        <time>2018-05-11T10:44:48Z</time>
      </trkpt>
      <trkpt lat="44.2478" lon="7.01447">
        <ele>2260</ele>
        <time>2018-05-11T10:44:49Z</time>
      </trkpt>
      <trkpt lat="44.24776" lon="7.01455">
        <ele>2256.21</ele>
        <time>2018-05-11T10:44:50Z</time>
      </trkpt>
      <trkpt lat="44.24771" lon="7.0146">
        <ele>2253.11</ele>
        <time>2018-05-11T10:44:51Z</time>
      </trkpt>
      <trkpt lat="44.24758" lon="7.01474">
        <ele>2246.74</ele>
        <time>2018-05-11T10:44:54Z</time>
      </trkpt>
      <trkpt lat="44.2475" lon="7.01482">
        <ele>2242.97</ele>
        <time>2018-05-11T10:44:57Z</time>
      </trkpt>
      <trkpt lat="44.24742" lon="7.01491">
        <ele>2239.66</ele>
        <time>2018-05-11T10:45:02Z</time>
      </trkpt>
      <trkpt lat="44.2474" lon="7.01491">
        <ele>2238.41</ele>
        <time>2018-05-11T10:45:17Z</time>
      </trkpt>
      <trkpt lat="44.2474" lon="7.01489">
        <ele>2238.36</ele>
        <time>2018-05-11T10:45:56Z</time>
      </trkpt>
      <trkpt lat="44.24739" lon="7.0149">
        <ele>2238.51</ele>
        <time>2018-05-11T10:46:07Z</time>
      </trkpt>
      <trkpt lat="44.24739" lon="7.01508">
        <ele>2233.32</ele>
        <time>2018-05-11T10:46:10Z</time>
      </trkpt>
      <trkpt lat="44.24733" lon="7.01518">
        <ele>2229.18</ele>
        <time>2018-05-11T10:46:12Z</time>
      </trkpt>
      <trkpt lat="44.24726" lon="7.0153">
        <ele>2225.02</ele>
        <time>2018-05-11T10:46:15Z</time>
      </trkpt>
      <trkpt lat="44.2473" lon="7.01549">
        <ele>2218.84</ele>
        <time>2018-05-11T10:46:18Z</time>
      </trkpt>
      <trkpt lat="44.24731" lon="7.01561">
        <ele>2213.32</ele>
        <time>2018-05-11T10:46:20Z</time>
      </trkpt>
      <trkpt lat="44.24733" lon="7.01566">
        <ele>2210.63</ele>
        <time>2018-05-11T10:46:21Z</time>
      </trkpt>
      <trkpt lat="44.24733" lon="7.01585">
        <ele>2199.49</ele>
        <time>2018-05-11T10:46:25Z</time>
      </trkpt>
      <trkpt lat="44.24728" lon="7.01593">
        <ele>2196.31</ele>
        <time>2018-05-11T10:46:27Z</time>
      </trkpt>
      <trkpt lat="44.24725" lon="7.01595">
        <ele>2194.05</ele>
        <time>2018-05-11T10:46:31Z</time>
      </trkpt>
      <trkpt lat="44.24725" lon="7.01595">
        <ele>2193.32</ele>
        <time>2018-05-11T10:46:52Z</time>
      </trkpt>
      <trkpt lat="44.24725" lon="7.01595">
        <ele>2193.16</ele>
        <time>2018-05-11T10:47:00Z</time>
      </trkpt>
      <trkpt lat="44.24739" lon="7.01616">
        <ele>2188.22</ele>
        <time>2018-05-11T10:47:04Z</time>
      </trkpt>
      <trkpt lat="44.24748" lon="7.01632">
        <ele>2181.37</ele>
        <time>2018-05-11T10:47:06Z</time>
      </trkpt>
      <trkpt lat="44.24754" lon="7.01641">
        <ele>2177.18</ele>
        <time>2018-05-11T10:47:07Z</time>
      </trkpt>
      <trkpt lat="44.2476" lon="7.01649">
        <ele>2172.59</ele>
        <time>2018-05-11T10:47:08Z</time>
      </trkpt>
      <trkpt lat="44.24766" lon="7.01659">
        <ele>2166.46</ele>
        <time>2018-05-11T10:47:09Z</time>
      </trkpt>
      <trkpt lat="44.24773" lon="7.01668">
        <ele>2161.54</ele>
        <time>2018-05-11T10:47:10Z</time>
      </trkpt>
      <trkpt lat="44.2478" lon="7.01679">
        <ele>2156.81</ele>
        <time>2018-05-11T10:47:11Z</time>
      </trkpt>
      <trkpt lat="44.24785" lon="7.0169">
        <ele>2152.16</ele>
        <time>2018-05-11T10:47:12Z</time>
      </trkpt>
      <trkpt lat="44.24788" lon="7.01702">
        <ele>2147.95</ele>
        <time>2018-05-11T10:47:13Z</time>
      </trkpt>
      <trkpt lat="44.24796" lon="7.01741">
        <ele>2135.58</ele>
        <time>2018-05-11T10:47:16Z</time>
      </trkpt>
      <trkpt lat="44.24795" lon="7.01753">
        <ele>2131.35</ele>
        <time>2018-05-11T10:47:17Z</time>
      </trkpt>
      <trkpt lat="44.24792" lon="7.01764">
        <ele>2128</ele>
        <time>2018-05-11T10:47:18Z</time>
      </trkpt>
      <trkpt lat="44.2479" lon="7.01782">
        <ele>2123.14</ele>
        <time>2018-05-11T10:47:20Z</time>
      </trkpt>
      <trkpt lat="44.24784" lon="7.01787">
        <ele>2120.72</ele>
        <time>2018-05-11T10:47:27Z</time>
      </trkpt>
      <trkpt lat="44.24783" lon="7.01782">
        <ele>2120.47</ele>
        <time>2018-05-11T10:47:51Z</time>
      </trkpt>
      <trkpt lat="44.2478" lon="7.01783">
        <ele>2120.2</ele>
        <time>2018-05-11T10:48:23Z</time>
      </trkpt>
      <trkpt lat="44.24778" lon="7.01782">
        <ele>2120.8</ele>
        <time>2018-05-11T10:48:49Z</time>
      </trkpt>
      <trkpt lat="44.24777" lon="7.01784">
        <ele>2120.77</ele>
        <time>2018-05-11T10:48:54Z</time>
      </trkpt>
      <trkpt lat="44.24793" lon="7.01803">
        <ele>2116.67</ele>
        <time>2018-05-11T10:48:59Z</time>
      </trkpt>
      <trkpt lat="44.24807" lon="7.01815">
        <ele>2111.65</ele>
        <time>2018-05-11T10:49:01Z</time>
      </trkpt>
      <trkpt lat="44.24815" lon="7.01822">
        <ele>2108.46</ele>
        <time>2018-05-11T10:49:02Z</time>
      </trkpt>
      <trkpt lat="44.24823" lon="7.01832">
        <ele>2105.19</ele>
        <time>2018-05-11T10:49:03Z</time>
      </trkpt>
      <trkpt lat="44.24827" lon="7.01843">
        <ele>2100.95</ele>
        <time>2018-05-11T10:49:04Z</time>
      </trkpt>
      <trkpt lat="44.24828" lon="7.01853">
        <ele>2097.15</ele>
        <time>2018-05-11T10:49:05Z</time>
      </trkpt>
      <trkpt lat="44.24828" lon="7.01859">
        <ele>2094.26</ele>
        <time>2018-05-11T10:49:06Z</time>
      </trkpt>
      <trkpt lat="44.24827" lon="7.01867">
        <ele>2090.73</ele>
        <time>2018-05-11T10:49:08Z</time>
      </trkpt>
      <trkpt lat="44.24833" lon="7.01873">
        <ele>2087.74</ele>
        <time>2018-05-11T10:49:10Z</time>
      </trkpt>
      <trkpt lat="44.24835" lon="7.01881">
        <ele>2081.81</ele>
        <time>2018-05-11T10:49:13Z</time>
      </trkpt>
      <trkpt lat="44.24836" lon="7.01879">
        <ele>2079.75</ele>
        <time>2018-05-11T10:49:26Z</time>
      </trkpt>
      <trkpt lat="44.2484" lon="7.01883">
        <ele>2079.48</ele>
        <time>2018-05-11T10:49:29Z</time>
      </trkpt>
      <trkpt lat="44.2486" lon="7.01898">
        <ele>2074.34</ele>
        <time>2018-05-11T10:49:32Z</time>
      </trkpt>
      <trkpt lat="44.24877" lon="7.01918">
        <ele>2066.55</ele>
        <time>2018-05-11T10:49:34Z</time>
      </trkpt>
      <trkpt lat="44.24881" lon="7.01932">
        <ele>2061.48</ele>
        <time>2018-05-11T10:49:35Z</time>
      </trkpt>
      <trkpt lat="44.2488" lon="7.01946">
        <ele>2056.22</ele>
        <time>2018-05-11T10:49:36Z</time>
      </trkpt>
      <trkpt lat="44.24884" lon="7.0198">
        <ele>2043.85</ele>
        <time>2018-05-11T10:49:40Z</time>
      </trkpt>
      <trkpt lat="44.24881" lon="7.01989">
        <ele>2039.85</ele>
        <time>2018-05-11T10:49:42Z</time>
      </trkpt>
      <trkpt lat="44.24874" lon="7.01995">
        <ele>2036.77</ele>
        <time>2018-05-11T10:49:47Z</time>
      </trkpt>
      <trkpt lat="44.24871" lon="7.01991">
        <ele>2035.91</ele>
        <time>2018-05-11T10:50:08Z</time>
      </trkpt>
      <trkpt lat="44.24867" lon="7.0199">
        <ele>2036.69</ele>
        <time>2018-05-11T10:50:39Z</time>
      </trkpt>
      <trkpt lat="44.24865" lon="7.01989">
        <ele>2036.05</ele>
        <time>2018-05-11T10:51:06Z</time>
      </trkpt>
      <trkpt lat="44.24865" lon="7.01991">
        <ele>2036.27</ele>
        <time>2018-05-11T10:51:29Z</time>
      </trkpt>
      <trkpt lat="44.24861" lon="7.01988">
        <ele>2036.3</ele>
        <time>2018-05-11T10:52:00Z</time>
      </trkpt>
      <trkpt lat="44.2486" lon="7.01989">
        <ele>2036.21</ele>
        <time>2018-05-11T10:52:32Z</time>
      </trkpt>
      <trkpt lat="44.24858" lon="7.01993">
        <ele>2036.37</ele>
        <time>2018-05-11T10:52:55Z</time>
      </trkpt>
      <trkpt lat="44.24854" lon="7.02004">
        <ele>2034.46</ele>
        <time>2018-05-11T10:53:08Z</time>
      </trkpt>
      <trkpt lat="44.24853" lon="7.02004">
        <ele>2034.31</ele>
        <time>2018-05-11T10:53:37Z</time>
      </trkpt>
      <trkpt lat="44.24853" lon="7.02009">
        <ele>2034.13</ele>
        <time>2018-05-11T10:53:42Z</time>
      </trkpt>
      <trkpt lat="44.24855" lon="7.02026">
        <ele>2032.22</ele>
        <time>2018-05-11T10:53:46Z</time>
      </trkpt>
      <trkpt lat="44.24865" lon="7.02044">
        <ele>2027.78</ele>
        <time>2018-05-11T10:53:48Z</time>
      </trkpt>
      <trkpt lat="44.2487" lon="7.02069">
        <ele>2020.31</ele>
        <time>2018-05-11T10:53:50Z</time>
      </trkpt>
      <trkpt lat="44.24869" lon="7.0208">
        <ele>2016.94</ele>
        <time>2018-05-11T10:53:51Z</time>
      </trkpt>
      <trkpt lat="44.24867" lon="7.02091">
        <ele>2014.35</ele>
        <time>2018-05-11T10:53:52Z</time>
      </trkpt>
      <trkpt lat="44.24866" lon="7.02121">
        <ele>2008.25</ele>
        <time>2018-05-11T10:53:55Z</time>
      </trkpt>
      <trkpt lat="44.24874" lon="7.02152">
        <ele>2002.05</ele>
        <time>2018-05-11T10:53:59Z</time>
      </trkpt>
      <trkpt lat="44.24875" lon="7.02159">
        <ele>2000.78</ele>
        <time>2018-05-11T10:54:00Z</time>
      </trkpt>
      <trkpt lat="44.24882" lon="7.02182">
        <ele>1997.38</ele>
        <time>2018-05-11T10:54:04Z</time>
      </trkpt>
      <trkpt lat="44.24891" lon="7.02197">
        <ele>1995.2</ele>
        <time>2018-05-11T10:54:08Z</time>
      </trkpt>
      <trkpt lat="44.24896" lon="7.02204">
        <ele>1994.56</ele>
        <time>2018-05-11T10:54:11Z</time>
      </trkpt>
      <trkpt lat="44.24904" lon="7.02234">
        <ele>1992.64</ele>
        <time>2018-05-11T10:54:20Z</time>
      </trkpt>
      <trkpt lat="44.24909" lon="7.02272">
        <ele>1989.82</ele>
        <time>2018-05-11T10:54:31Z</time>
      </trkpt>
      <trkpt lat="44.24909" lon="7.02278">
        <ele>1989.26</ele>
        <time>2018-05-11T10:54:33Z</time>
      </trkpt>
      <trkpt lat="44.24915" lon="7.02303">
        <ele>1986.08</ele>
        <time>2018-05-11T10:54:37Z</time>
      </trkpt>
      <trkpt lat="44.24922" lon="7.0232">
        <ele>1983.44</ele>
        <time>2018-05-11T10:54:39Z</time>
      </trkpt>
      <trkpt lat="44.24936" lon="7.02344">
        <ele>1978.59</ele>
        <time>2018-05-11T10:54:42Z</time>
      </trkpt>
      <trkpt lat="44.24946" lon="7.02356">
        <ele>1976.24</ele>
        <time>2018-05-11T10:54:44Z</time>
      </trkpt>
      <trkpt lat="44.24963" lon="7.02369">
        <ele>1973.2</ele>
        <time>2018-05-11T10:54:48Z</time>
      </trkpt>
      <trkpt lat="44.24989" lon="7.02394">
        <ele>1969.84</ele>
        <time>2018-05-11T10:54:59Z</time>
      </trkpt>
      <trkpt lat="44.24994" lon="7.02399">
        <ele>1969.1</ele>
        <time>2018-05-11T10:55:01Z</time>
      </trkpt>
      <trkpt lat="44.25022" lon="7.0243">
        <ele>1965.48</ele>
        <time>2018-05-11T10:55:10Z</time>
      </trkpt>
      <trkpt lat="44.25037" lon="7.02451">
        <ele>1962.27</ele>
        <time>2018-05-11T10:55:17Z</time>
      </trkpt>
      <trkpt lat="44.25045" lon="7.02465">
        <ele>1960.89</ele>
        <time>2018-05-11T10:55:24Z</time>
      </trkpt>
      <trkpt lat="44.25054" lon="7.0248">
        <ele>1959.17</ele>
        <time>2018-05-11T10:55:30Z</time>
      </trkpt>
      <trkpt lat="44.25067" lon="7.02513">
        <ele>1955.86</ele>
        <time>2018-05-11T10:55:40Z</time>
      </trkpt>
      <trkpt lat="44.25077" lon="7.02541">
        <ele>1952.44</ele>
        <time>2018-05-11T10:55:47Z</time>
      </trkpt>
      <trkpt lat="44.25086" lon="7.0257">
        <ele>1949.28</ele>
        <time>2018-05-11T10:55:54Z</time>
      </trkpt>
      <trkpt lat="44.25093" lon="7.02596">
        <ele>1946.16</ele>
        <time>2018-05-11T10:56:01Z</time>
      </trkpt>
      <trkpt lat="44.251" lon="7.02625">
        <ele>1942.82</ele>
        <time>2018-05-11T10:56:09Z</time>
      </trkpt>
      <trkpt lat="44.25105" lon="7.02638">
        <ele>1940.66</ele>
        <time>2018-05-11T10:56:19Z</time>
      </trkpt>
      <trkpt lat="44.25106" lon="7.02638">
        <ele>1940.79</ele>
        <time>2018-05-11T10:56:25Z</time>
      </trkpt>
      <trkpt lat="44.25116" lon="7.02651">
        <ele>1938.98</ele>
        <time>2018-05-11T10:56:30Z</time>
      </trkpt>
      <trkpt lat="44.25125" lon="7.0265">
        <ele>1937.28</ele>
        <time>2018-05-11T10:56:32Z</time>
      </trkpt>
      <trkpt lat="44.25146" lon="7.02649">
        <ele>1931.04</ele>
        <time>2018-05-11T10:56:35Z</time>
      </trkpt>
      <trkpt lat="44.25162" lon="7.02655">
        <ele>1925.36</ele>
        <time>2018-05-11T10:56:37Z</time>
      </trkpt>
      <trkpt lat="44.25175" lon="7.02665">
        <ele>1919.42</ele>
        <time>2018-05-11T10:56:39Z</time>
      </trkpt>
      <trkpt lat="44.25188" lon="7.02674">
        <ele>1915.63</ele>
        <time>2018-05-11T10:56:41Z</time>
      </trkpt>
      <trkpt lat="44.25205" lon="7.02692">
        <ele>1910.38</ele>
        <time>2018-05-11T10:56:45Z</time>
      </trkpt>
      <trkpt lat="44.25221" lon="7.02714">
        <ele>1906.08</ele>
        <time>2018-05-11T10:56:49Z</time>
      </trkpt>
      <trkpt lat="44.2523" lon="7.0273">
        <ele>1903.18</ele>
        <time>2018-05-11T10:56:52Z</time>
      </trkpt>
      <trkpt lat="44.25233" lon="7.02735">
        <ele>1901.85</ele>
        <time>2018-05-11T10:56:54Z</time>
      </trkpt>
      <trkpt lat="44.2523" lon="7.02734">
        <ele>1902.35</ele>
        <time>2018-05-11T10:57:26Z</time>
      </trkpt>
      <trkpt lat="44.25233" lon="7.02744">
        <ele>1901.26</ele>
        <time>2018-05-11T10:58:11Z</time>
      </trkpt>
      <trkpt lat="44.25234" lon="7.02752">
        <ele>1901.2</ele>
        <time>2018-05-11T10:58:15Z</time>
      </trkpt>
      <trkpt lat="44.25237" lon="7.02776">
        <ele>1899.57</ele>
        <time>2018-05-11T10:58:27Z</time>
      </trkpt>
      <trkpt lat="44.25243" lon="7.02811">
        <ele>1896.54</ele>
        <time>2018-05-11T10:58:39Z</time>
      </trkpt>
      <trkpt lat="44.25248" lon="7.02832">
        <ele>1893.39</ele>
        <time>2018-05-11T10:58:44Z</time>
      </trkpt>
      <trkpt lat="44.25251" lon="7.02846">
        <ele>1891.45</ele>
        <time>2018-05-11T10:58:47Z</time>
      </trkpt>
      <trkpt lat="44.25254" lon="7.02857">
        <ele>1889.88</ele>
        <time>2018-05-11T10:58:49Z</time>
      </trkpt>
      <trkpt lat="44.25262" lon="7.02886">
        <ele>1885.69</ele>
        <time>2018-05-11T10:58:53Z</time>
      </trkpt>
      <trkpt lat="44.25264" lon="7.02891">
        <ele>1884.93</ele>
        <time>2018-05-11T10:58:54Z</time>
      </trkpt>
      <trkpt lat="44.25271" lon="7.02924">
        <ele>1880.99</ele>
        <time>2018-05-11T10:59:00Z</time>
      </trkpt>
      <trkpt lat="44.25279" lon="7.0295">
        <ele>1877.96</ele>
        <time>2018-05-11T10:59:10Z</time>
      </trkpt>
      <trkpt lat="44.2529" lon="7.02973">
        <ele>1875.5</ele>
        <time>2018-05-11T10:59:22Z</time>
      </trkpt>
      <trkpt lat="44.253" lon="7.02996">
        <ele>1872.41</ele>
        <time>2018-05-11T10:59:26Z</time>
      </trkpt>
      <trkpt lat="44.25307" lon="7.03012">
        <ele>1869.36</ele>
        <time>2018-05-11T10:59:29Z</time>
      </trkpt>
      <trkpt lat="44.25316" lon="7.03029">
        <ele>1866.05</ele>
        <time>2018-05-11T10:59:34Z</time>
      </trkpt>
      <trkpt lat="44.25329" lon="7.03052">
        <ele>1862.76</ele>
        <time>2018-05-11T10:59:44Z</time>
      </trkpt>
      <trkpt lat="44.25344" lon="7.03078">
        <ele>1859.34</ele>
        <time>2018-05-11T10:59:57Z</time>
      </trkpt>
      <trkpt lat="44.25347" lon="7.03083">
        <ele>1858.32</ele>
        <time>2018-05-11T10:59:58Z</time>
      </trkpt>
      <trkpt lat="44.25357" lon="7.03104">
        <ele>1854.19</ele>
        <time>2018-05-11T11:00:04Z</time>
      </trkpt>
      <trkpt lat="44.25367" lon="7.03126">
        <ele>1850.82</ele>
        <time>2018-05-11T11:00:11Z</time>
      </trkpt>
      <trkpt lat="44.25371" lon="7.03133">
        <ele>1849.62</ele>
        <time>2018-05-11T11:00:23Z</time>
      </trkpt>
      <trkpt lat="44.25381" lon="7.03146">
        <ele>1847.11</ele>
        <time>2018-05-11T11:01:02Z</time>
      </trkpt>
      <trkpt lat="44.25394" lon="7.03168">
        <ele>1842.88</ele>
        <time>2018-05-11T11:01:05Z</time>
      </trkpt>
      <trkpt lat="44.25405" lon="7.03199">
        <ele>1838.22</ele>
        <time>2018-05-11T11:01:09Z</time>
      </trkpt>
      <trkpt lat="44.25414" lon="7.03234">
        <ele>1833.58</ele>
        <time>2018-05-11T11:01:15Z</time>
      </trkpt>
      <trkpt lat="44.25415" lon="7.03238">
        <ele>1832.7</ele>
        <time>2018-05-11T11:01:16Z</time>
      </trkpt>
      <trkpt lat="44.25416" lon="7.03244">
        <ele>1832</ele>
        <time>2018-05-11T11:01:18Z</time>
      </trkpt>
      <trkpt lat="44.25415" lon="7.03248">
        <ele>1831.74</ele>
        <time>2018-05-11T11:01:20Z</time>
      </trkpt>
      <trkpt lat="44.25413" lon="7.03253">
        <ele>1831.46</ele>
        <time>2018-05-11T11:01:24Z</time>
      </trkpt>
      <trkpt lat="44.25414" lon="7.03272">
        <ele>1831.19</ele>
        <time>2018-05-11T11:01:39Z</time>
      </trkpt>
      <trkpt lat="44.25417" lon="7.03281">
        <ele>1830.92</ele>
        <time>2018-05-11T11:01:59Z</time>
      </trkpt>
      <trkpt lat="44.25417" lon="7.03283">
        <ele>1830.94</ele>
        <time>2018-05-11T11:02:03Z</time>
      </trkpt>
      <trkpt lat="44.25434" lon="7.03292">
        <ele>1826.12</ele>
        <time>2018-05-11T11:02:09Z</time>
      </trkpt>
      <trkpt lat="44.2544" lon="7.03304">
        <ele>1822.24</ele>
        <time>2018-05-11T11:02:11Z</time>
      </trkpt>
      <trkpt lat="44.25452" lon="7.03326">
        <ele>1817.53</ele>
        <time>2018-05-11T11:02:17Z</time>
      </trkpt>
      <trkpt lat="44.25451" lon="7.03329">
        <ele>1817.44</ele>
        <time>2018-05-11T11:02:29Z</time>
      </trkpt>
      <trkpt lat="44.25454" lon="7.03327">
        <ele>1817.44</ele>
        <time>2018-05-11T11:02:46Z</time>
      </trkpt>
      <trkpt lat="44.25468" lon="7.03321">
        <ele>1813.66</ele>
        <time>2018-05-11T11:02:51Z</time>
      </trkpt>
      <trkpt lat="44.25475" lon="7.03319">
        <ele>1810.51</ele>
        <time>2018-05-11T11:02:53Z</time>
      </trkpt>
      <trkpt lat="44.25483" lon="7.03315">
        <ele>1807.24</ele>
        <time>2018-05-11T11:02:55Z</time>
      </trkpt>
      <trkpt lat="44.2549" lon="7.03322">
        <ele>1804.15</ele>
        <time>2018-05-11T11:02:57Z</time>
      </trkpt>
      <trkpt lat="44.25493" lon="7.03326">
        <ele>1803.03</ele>
        <time>2018-05-11T11:02:58Z</time>
      </trkpt>
      <trkpt lat="44.25502" lon="7.03336">
        <ele>1800.9</ele>
        <time>2018-05-11T11:03:01Z</time>
      </trkpt>
      <trkpt lat="44.25526" lon="7.03353">
        <ele>1796.46</ele>
        <time>2018-05-11T11:03:06Z</time>
      </trkpt>
      <trkpt lat="44.25537" lon="7.03361">
        <ele>1793.61</ele>
        <time>2018-05-11T11:03:08Z</time>
      </trkpt>
      <trkpt lat="44.25552" lon="7.03384">
        <ele>1789.04</ele>
        <time>2018-05-11T11:03:12Z</time>
      </trkpt>
      <trkpt lat="44.25566" lon="7.0341">
        <ele>1785.27</ele>
        <time>2018-05-11T11:03:18Z</time>
      </trkpt>
      <trkpt lat="44.25574" lon="7.03428">
        <ele>1782</ele>
        <time>2018-05-11T11:03:24Z</time>
      </trkpt>
      <trkpt lat="44.25575" lon="7.03437">
        <ele>1781.11</ele>
        <time>2018-05-11T11:03:35Z</time>
      </trkpt>
      <trkpt lat="44.25575" lon="7.03435">
        <ele>1781.09</ele>
        <time>2018-05-11T11:04:10Z</time>
      </trkpt>
      <trkpt lat="44.25576" lon="7.03436">
        <ele>1780.74</ele>
        <time>2018-05-11T11:04:27Z</time>
      </trkpt>
      <trkpt lat="44.25592" lon="7.03426">
        <ele>1775.06</ele>
        <time>2018-05-11T11:04:31Z</time>
      </trkpt>
      <trkpt lat="44.25605" lon="7.03425">
        <ele>1770.81</ele>
        <time>2018-05-11T11:04:33Z</time>
      </trkpt>
      <trkpt lat="44.25617" lon="7.0343">
        <ele>1766.09</ele>
        <time>2018-05-11T11:04:35Z</time>
      </trkpt>
      <trkpt lat="44.25622" lon="7.0344">
        <ele>1761.36</ele>
        <time>2018-05-11T11:04:37Z</time>
      </trkpt>
      <trkpt lat="44.25622" lon="7.0345">
        <ele>1758.8</ele>
        <time>2018-05-11T11:04:45Z</time>
      </trkpt>
      <trkpt lat="44.25619" lon="7.03459">
        <ele>1759.3</ele>
        <time>2018-05-11T11:05:03Z</time>
      </trkpt>
      <trkpt lat="44.25619" lon="7.03464">
        <ele>1760.02</ele>
        <time>2018-05-11T11:05:24Z</time>
      </trkpt>
      <trkpt lat="44.25617" lon="7.03475">
        <ele>1760.4</ele>
        <time>2018-05-11T11:05:42Z</time>
      </trkpt>
      <trkpt lat="44.2562" lon="7.03483">
        <ele>1759.76</ele>
        <time>2018-05-11T11:05:59Z</time>
      </trkpt>
      <trkpt lat="44.25619" lon="7.03491">
        <ele>1760.23</ele>
        <time>2018-05-11T11:06:24Z</time>
      </trkpt>
      <trkpt lat="44.25616" lon="7.03495">
        <ele>1761.2</ele>
        <time>2018-05-11T11:06:42Z</time>
      </trkpt>
      <trkpt lat="44.25613" lon="7.03498">
        <ele>1761.24</ele>
        <time>2018-05-11T11:07:11Z</time>
      </trkpt>
      <trkpt lat="44.25611" lon="7.03498">
        <ele>1761.16</ele>
        <time>2018-05-11T11:07:40Z</time>
      </trkpt>
      <trkpt lat="44.25618" lon="7.03503">
        <ele>1760.1</ele>
        <time>2018-05-11T11:08:07Z</time>
      </trkpt>
      <trkpt lat="44.25624" lon="7.03513">
        <ele>1759.75</ele>
        <time>2018-05-11T11:08:11Z</time>
      </trkpt>
      <trkpt lat="44.25626" lon="7.03522">
        <ele>1758.36</ele>
        <time>2018-05-11T11:08:14Z</time>
      </trkpt>
      <trkpt lat="44.25629" lon="7.03543">
        <ele>1755.67</ele>
        <time>2018-05-11T11:08:23Z</time>
      </trkpt>
      <trkpt lat="44.25631" lon="7.03546">
        <ele>1755.4</ele>
        <time>2018-05-11T11:08:39Z</time>
      </trkpt>
      <trkpt lat="44.25637" lon="7.03567">
        <ele>1753.47</ele>
        <time>2018-05-11T11:08:44Z</time>
      </trkpt>
      <trkpt lat="44.25639" lon="7.03581">
        <ele>1750.73</ele>
        <time>2018-05-11T11:08:52Z</time>
      </trkpt>
      <trkpt lat="44.25634" lon="7.03587">
        <ele>1751.33</ele>
        <time>2018-05-11T11:09:08Z</time>
      </trkpt>
      <trkpt lat="44.25629" lon="7.03594">
        <ele>1752.01</ele>
        <time>2018-05-11T11:09:24Z</time>
      </trkpt>
      <trkpt lat="44.25629" lon="7.03594">
        <ele>1752.38</ele>
        <time>2018-05-11T11:09:54Z</time>
      </trkpt>
      <trkpt lat="44.25632" lon="7.03607">
        <ele>1751.23</ele>
        <time>2018-05-11T11:10:19Z</time>
      </trkpt>
      <trkpt lat="44.25635" lon="7.03611">
        <ele>1750.43</ele>
        <time>2018-05-11T11:10:20Z</time>
      </trkpt>
      <trkpt lat="44.25644" lon="7.03625">
        <ele>1745.3</ele>
        <time>2018-05-11T11:10:23Z</time>
      </trkpt>
      <trkpt lat="44.25647" lon="7.03624">
        <ele>1743.02</ele>
        <time>2018-05-11T11:10:27Z</time>
      </trkpt>
      <trkpt lat="44.25649" lon="7.03626">
        <ele>1742.73</ele>
        <time>2018-05-11T11:10:54Z</time>
      </trkpt>
      <trkpt lat="44.2565" lon="7.03626">
        <ele>1742.7</ele>
        <time>2018-05-11T11:10:55Z</time>
      </trkpt>
      <trkpt lat="44.25656" lon="7.03627">
        <ele>1742.73</ele>
        <time>2018-05-11T11:11:05Z</time>
      </trkpt>
      <trkpt lat="44.25659" lon="7.03634">
        <ele>1742.28</ele>
        <time>2018-05-11T11:11:08Z</time>
      </trkpt>
      <trkpt lat="44.2567" lon="7.03654">
        <ele>1737.37</ele>
        <time>2018-05-11T11:11:12Z</time>
      </trkpt>
      <trkpt lat="44.25671" lon="7.0366">
        <ele>1735.1</ele>
        <time>2018-05-11T11:11:13Z</time>
      </trkpt>
      <trkpt lat="44.25673" lon="7.03693">
        <ele>1730.7</ele>
        <time>2018-05-11T11:11:20Z</time>
      </trkpt>
      <trkpt lat="44.25687" lon="7.03711">
        <ele>1726.51</ele>
        <time>2018-05-11T11:11:25Z</time>
      </trkpt>
      <trkpt lat="44.25688" lon="7.03719">
        <ele>1723.79</ele>
        <time>2018-05-11T11:11:31Z</time>
      </trkpt>
      <trkpt lat="44.25692" lon="7.0372">
        <ele>1724.31</ele>
        <time>2018-05-11T11:11:51Z</time>
      </trkpt>
      <trkpt lat="44.2569" lon="7.03729">
        <ele>1724.71</ele>
        <time>2018-05-11T11:12:13Z</time>
      </trkpt>
      <trkpt lat="44.25696" lon="7.03729">
        <ele>1723.23</ele>
        <time>2018-05-11T11:12:21Z</time>
      </trkpt>
      <trkpt lat="44.2569" lon="7.0373">
        <ele>1722.66</ele>
        <time>2018-05-11T11:12:46Z</time>
      </trkpt>
      <trkpt lat="44.25695" lon="7.03734">
        <ele>1723.11</ele>
        <time>2018-05-11T11:12:54Z</time>
      </trkpt>
      <trkpt lat="44.25699" lon="7.03739">
        <ele>1721.99</ele>
        <time>2018-05-11T11:13:05Z</time>
      </trkpt>
      <trkpt lat="44.25706" lon="7.03748">
        <ele>1720.75</ele>
        <time>2018-05-11T11:13:26Z</time>
      </trkpt>
      <trkpt lat="44.25707" lon="7.03751">
        <ele>1721.16</ele>
        <time>2018-05-11T11:13:51Z</time>
      </trkpt>
      <trkpt lat="44.25711" lon="7.03747">
        <ele>1721.3</ele>
        <time>2018-05-11T11:14:09Z</time>
      </trkpt>
      <trkpt lat="44.25713" lon="7.03742">
        <ele>1721.01</ele>
        <time>2018-05-11T11:14:39Z</time>
      </trkpt>
      <trkpt lat="44.25712" lon="7.03743">
        <ele>1720.93</ele>
        <time>2018-05-11T11:15:00Z</time>
      </trkpt>
      <trkpt lat="44.25709" lon="7.03744">
        <ele>1720.91</ele>
        <time>2018-05-11T11:15:09Z</time>
      </trkpt>
      <trkpt lat="44.25707" lon="7.0375">
        <ele>1721.01</ele>
        <time>2018-05-11T11:15:26Z</time>
      </trkpt>
      <trkpt lat="44.25721" lon="7.03764">
        <ele>1718.48</ele>
        <time>2018-05-11T11:15:31Z</time>
      </trkpt>
      <trkpt lat="44.25728" lon="7.03776">
        <ele>1716.22</ele>
        <time>2018-05-11T11:15:33Z</time>
      </trkpt>
      <trkpt lat="44.25737" lon="7.03798">
        <ele>1713.12</ele>
        <time>2018-05-11T11:15:37Z</time>
      </trkpt>
      <trkpt lat="44.25744" lon="7.03817">
        <ele>1710.74</ele>
        <time>2018-05-11T11:15:40Z</time>
      </trkpt>
      <trkpt lat="44.25756" lon="7.0384">
        <ele>1706.61</ele>
        <time>2018-05-11T11:15:44Z</time>
      </trkpt>
      <trkpt lat="44.2576" lon="7.03853">
        <ele>1703.5</ele>
        <time>2018-05-11T11:15:48Z</time>
      </trkpt>
      <trkpt lat="44.25758" lon="7.03851">
        <ele>1702.2</ele>
        <time>2018-05-11T11:16:01Z</time>
      </trkpt>
      <trkpt lat="44.2576" lon="7.03849">
        <ele>1703.31</ele>
        <time>2018-05-11T11:16:34Z</time>
      </trkpt>
      <trkpt lat="44.25765" lon="7.03847">
        <ele>1703.35</ele>
        <time>2018-05-11T11:17:01Z</time>
      </trkpt>
      <trkpt lat="44.25778" lon="7.03841">
        <ele>1703.38</ele>
        <time>2018-05-11T11:17:11Z</time>
      </trkpt>
      <trkpt lat="44.25779" lon="7.03843">
        <ele>1702.13</ele>
        <time>2018-05-11T11:17:34Z</time>
      </trkpt>
      <trkpt lat="44.25776" lon="7.03858">
        <ele>1700.95</ele>
        <time>2018-05-11T11:17:58Z</time>
      </trkpt>
      <trkpt lat="44.25775" lon="7.03869">
        <ele>1700.15</ele>
        <time>2018-05-11T11:18:07Z</time>
      </trkpt>
      <trkpt lat="44.25777" lon="7.0388">
        <ele>1699.25</ele>
        <time>2018-05-11T11:18:27Z</time>
      </trkpt>
      <trkpt lat="44.25777" lon="7.03896">
        <ele>1697.75</ele>
        <time>2018-05-11T11:18:40Z</time>
      </trkpt>
      <trkpt lat="44.2578" lon="7.03907">
        <ele>1697.96</ele>
        <time>2018-05-11T11:18:55Z</time>
      </trkpt>
      <trkpt lat="44.2578" lon="7.03915">
        <ele>1697.15</ele>
        <time>2018-05-11T11:19:07Z</time>
      </trkpt>
      <trkpt lat="44.25777" lon="7.0392">
        <ele>1696.8</ele>
        <time>2018-05-11T11:19:12Z</time>
      </trkpt>
      <trkpt lat="44.25779" lon="7.03933">
        <ele>1696.22</ele>
        <time>2018-05-11T11:19:32Z</time>
      </trkpt>
      <trkpt lat="44.25777" lon="7.0393">
        <ele>1696.02</ele>
        <time>2018-05-11T11:20:00Z</time>
      </trkpt>
      <trkpt lat="44.25784" lon="7.03953">
        <ele>1694.02</ele>
        <time>2018-05-11T11:20:05Z</time>
      </trkpt>
      <trkpt lat="44.25792" lon="7.03973">
        <ele>1691.23</ele>
        <time>2018-05-11T11:20:09Z</time>
      </trkpt>
      <trkpt lat="44.25797" lon="7.0399">
        <ele>1689.14</ele>
        <time>2018-05-11T11:20:12Z</time>
      </trkpt>
      <trkpt lat="44.2581" lon="7.04019">
        <ele>1684.85</ele>
        <time>2018-05-11T11:20:18Z</time>
      </trkpt>
      <trkpt lat="44.25819" lon="7.04041">
        <ele>1681.59</ele>
        <time>2018-05-11T11:20:23Z</time>
      </trkpt>
      <trkpt lat="44.25822" lon="7.04062">
        <ele>1678.01</ele>
        <time>2018-05-11T11:20:29Z</time>
      </trkpt>
      <trkpt lat="44.25822" lon="7.04063">
        <ele>1677.2</ele>
        <time>2018-05-11T11:20:31Z</time>
      </trkpt>
      <trkpt lat="44.25823" lon="7.0408">
        <ele>1675.89</ele>
        <time>2018-05-11T11:20:45Z</time>
      </trkpt>
      <trkpt lat="44.25825" lon="7.0411">
        <ele>1672.55</ele>
        <time>2018-05-11T11:20:52Z</time>
      </trkpt>
      <trkpt lat="44.25833" lon="7.04136">
        <ele>1669.46</ele>
        <time>2018-05-11T11:20:58Z</time>
      </trkpt>
      <trkpt lat="44.2584" lon="7.04151">
        <ele>1666.57</ele>
        <time>2018-05-11T11:21:03Z</time>
      </trkpt>
      <trkpt lat="44.25841" lon="7.0415">
        <ele>1665.88</ele>
        <time>2018-05-11T11:21:19Z</time>
      </trkpt>
      <trkpt lat="44.25838" lon="7.04152">
        <ele>1665.34</ele>
        <time>2018-05-11T11:21:45Z</time>
      </trkpt>
      <trkpt lat="44.2584" lon="7.04151">
        <ele>1665.61</ele>
        <time>2018-05-11T11:22:06Z</time>
      </trkpt>
      <trkpt lat="44.25839" lon="7.04154">
        <ele>1665.8</ele>
        <time>2018-05-11T11:22:28Z</time>
      </trkpt>
      <trkpt lat="44.2584" lon="7.0415">
        <ele>1665.99</ele>
        <time>2018-05-11T11:22:51Z</time>
      </trkpt>
      <trkpt lat="44.25842" lon="7.04159">
        <ele>1665.53</ele>
        <time>2018-05-11T11:23:12Z</time>
      </trkpt>
      <trkpt lat="44.25849" lon="7.04189">
        <ele>1664.23</ele>
        <time>2018-05-11T11:23:33Z</time>
      </trkpt>
      <trkpt lat="44.25853" lon="7.04208">
        <ele>1665.29</ele>
        <time>2018-05-11T11:23:47Z</time>
      </trkpt>
      <trkpt lat="44.25852" lon="7.0421">
        <ele>1665.25</ele>
        <time>2018-05-11T11:23:48Z</time>
      </trkpt>
      <trkpt lat="44.25854" lon="7.04217">
        <ele>1664.82</ele>
        <time>2018-05-11T11:23:53Z</time>
      </trkpt>
      <trkpt lat="44.25861" lon="7.04228">
        <ele>1663.29</ele>
        <time>2018-05-11T11:24:03Z</time>
      </trkpt>
      <trkpt lat="44.25863" lon="7.04228">
        <ele>1663.52</ele>
        <time>2018-05-11T11:24:06Z</time>
      </trkpt>
      <trkpt lat="44.25889" lon="7.04223">
        <ele>1663.52</ele>
        <time>2018-05-11T11:24:30Z</time>
      </trkpt>
      <trkpt lat="44.25903" lon="7.04246">
        <ele>1664.77</ele>
        <time>2018-05-11T11:24:53Z</time>
      </trkpt>
      <trkpt lat="44.25923" lon="7.04264">
        <ele>1665.23</ele>
        <time>2018-05-11T11:25:16Z</time>
      </trkpt>
      <trkpt lat="44.25934" lon="7.04274">
        <ele>1666.13</ele>
        <time>2018-05-11T11:25:30Z</time>
      </trkpt>
      <trkpt lat="44.25938" lon="7.04278">
        <ele>1666.19</ele>
        <time>2018-05-11T11:25:34Z</time>
      </trkpt>
      <trkpt lat="44.25952" lon="7.04287">
        <ele>1666.44</ele>
        <time>2018-05-11T11:25:48Z</time>
      </trkpt>
      <trkpt lat="44.25952" lon="7.04288">
        <ele>1666.56</ele>
        <time>2018-05-11T11:25:49Z</time>
      </trkpt>
      <trkpt lat="44.25959" lon="7.04298">
        <ele>1667.04</ele>
        <time>2018-05-11T11:26:00Z</time>
      </trkpt>
      <trkpt lat="44.25972" lon="7.04311">
        <ele>1667.37</ele>
        <time>2018-05-11T11:26:16Z</time>
      </trkpt>
      <trkpt lat="44.25985" lon="7.04323">
        <ele>1668.04</ele>
        <time>2018-05-11T11:26:32Z</time>
      </trkpt>
      <trkpt lat="44.25985" lon="7.04324">
        <ele>1668.04</ele>
        <time>2018-05-11T11:26:33Z</time>
      </trkpt>
      <trkpt lat="44.25986" lon="7.04326">
        <ele>1668.07</ele>
        <time>2018-05-11T11:26:35Z</time>
      </trkpt>
      <trkpt lat="44.25999" lon="7.04339">
        <ele>1668.7</ele>
        <time>2018-05-11T11:26:52Z</time>
      </trkpt>
      <trkpt lat="44.26021" lon="7.04354">
        <ele>1669.25</ele>
        <time>2018-05-11T11:27:14Z</time>
      </trkpt>
      <trkpt lat="44.26037" lon="7.04364">
        <ele>1669.85</ele>
        <time>2018-05-11T11:27:30Z</time>
      </trkpt>
      <trkpt lat="44.26044" lon="7.0437">
        <ele>1669.98</ele>
        <time>2018-05-11T11:27:38Z</time>
      </trkpt>
      <trkpt lat="44.26046" lon="7.04373">
        <ele>1669.96</ele>
        <time>2018-05-11T11:27:41Z</time>
      </trkpt>
      <trkpt lat="44.2606" lon="7.04382">
        <ele>1670.29</ele>
        <time>2018-05-11T11:27:57Z</time>
      </trkpt>
      <trkpt lat="44.26078" lon="7.04403">
        <ele>1671.58</ele>
        <time>2018-05-11T11:28:22Z</time>
      </trkpt>
      <trkpt lat="44.26086" lon="7.04433">
        <ele>1672.33</ele>
        <time>2018-05-11T11:28:46Z</time>
      </trkpt>
      <trkpt lat="44.26094" lon="7.04445">
        <ele>1673.86</ele>
        <time>2018-05-11T11:29:06Z</time>
      </trkpt>
      <trkpt lat="44.26097" lon="7.04434">
        <ele>1676.08</ele>
        <time>2018-05-11T11:29:28Z</time>
      </trkpt>
      <trkpt lat="44.26103" lon="7.04431">
        <ele>1677.16</ele>
        <time>2018-05-11T11:29:48Z</time>
      </trkpt>
      <trkpt lat="44.26118" lon="7.04429">
        <ele>1677.23</ele>
        <time>2018-05-11T11:30:13Z</time>
      </trkpt>
      <trkpt lat="44.26106" lon="7.04447">
        <ele>1675.15</ele>
        <time>2018-05-11T11:30:32Z</time>
      </trkpt>
      <trkpt lat="44.26098" lon="7.0445">
        <ele>1672.74</ele>
        <time>2018-05-11T11:30:40Z</time>
      </trkpt>
      <trkpt lat="44.26094" lon="7.04445">
        <ele>1671.99</ele>
        <time>2018-05-11T11:30:43Z</time>
      </trkpt>
    </trkseg>
  </trk>
  <trk>
    <name><![CDATA[20180514195401-MUPu9]]></name>
    <trkseg>
      <trkpt lat="44.2608" lon="7.04366">
        <ele>1654.58</ele>
        <time>2018-05-12T04:46:57Z</time>
      </trkpt>
      <trkpt lat="44.26079" lon="7.04365">
        <ele>1654.55</ele>
        <time>2018-05-12T04:46:58Z</time>
      </trkpt>
      <trkpt lat="44.26062" lon="7.04356">
        <ele>1653.69</ele>
        <time>2018-05-12T04:47:14Z</time>
      </trkpt>
      <trkpt lat="44.26028" lon="7.04356">
        <ele>1654.31</ele>
        <time>2018-05-12T04:47:29Z</time>
      </trkpt>
      <trkpt lat="44.26019" lon="7.04345">
        <ele>1653.64</ele>
        <time>2018-05-12T04:47:42Z</time>
      </trkpt>
      <trkpt lat="44.26005" lon="7.04334">
        <ele>1653.47</ele>
        <time>2018-05-12T04:47:56Z</time>
      </trkpt>
      <trkpt lat="44.25993" lon="7.04322">
        <ele>1653.01</ele>
        <time>2018-05-12T04:48:11Z</time>
      </trkpt>
      <trkpt lat="44.2598" lon="7.04307">
        <ele>1652.47</ele>
        <time>2018-05-12T04:48:27Z</time>
      </trkpt>
      <trkpt lat="44.25964" lon="7.04295">
        <ele>1651.91</ele>
        <time>2018-05-12T04:48:43Z</time>
      </trkpt>
      <trkpt lat="44.25958" lon="7.04289">
        <ele>1651.85</ele>
        <time>2018-05-12T04:48:51Z</time>
      </trkpt>
      <trkpt lat="44.25937" lon="7.04279">
        <ele>1651.31</ele>
        <time>2018-05-12T04:49:07Z</time>
      </trkpt>
      <trkpt lat="44.25933" lon="7.04273">
        <ele>1651.21</ele>
        <time>2018-05-12T04:49:13Z</time>
      </trkpt>
      <trkpt lat="44.25921" lon="7.04262">
        <ele>1650.69</ele>
        <time>2018-05-12T04:49:28Z</time>
      </trkpt>
      <trkpt lat="44.25904" lon="7.04254">
        <ele>1650.24</ele>
        <time>2018-05-12T04:49:41Z</time>
      </trkpt>
      <trkpt lat="44.25894" lon="7.04235">
        <ele>1649.33</ele>
        <time>2018-05-12T04:49:53Z</time>
      </trkpt>
      <trkpt lat="44.25888" lon="7.04224">
        <ele>1648.85</ele>
        <time>2018-05-12T04:50:02Z</time>
      </trkpt>
      <trkpt lat="44.25879" lon="7.04214">
        <ele>1648.13</ele>
        <time>2018-05-12T04:50:15Z</time>
      </trkpt>
      <trkpt lat="44.25858" lon="7.04217">
        <ele>1647.96</ele>
        <time>2018-05-12T04:50:35Z</time>
      </trkpt>
      <trkpt lat="44.25839" lon="7.04232">
        <ele>1647.04</ele>
        <time>2018-05-12T04:50:57Z</time>
      </trkpt>
      <trkpt lat="44.25835" lon="7.0426">
        <ele>1645.46</ele>
        <time>2018-05-12T04:51:20Z</time>
      </trkpt>
      <trkpt lat="44.25845" lon="7.04284">
        <ele>1643.8</ele>
        <time>2018-05-12T04:51:47Z</time>
      </trkpt>
      <trkpt lat="44.25845" lon="7.04284">
        <ele>1643.25</ele>
        <time>2018-05-12T04:51:49Z</time>
      </trkpt>
      <trkpt lat="44.25844" lon="7.04284">
        <ele>1642.85</ele>
        <time>2018-05-12T04:51:59Z</time>
      </trkpt>
      <trkpt lat="44.25844" lon="7.04286">
        <ele>1643.68</ele>
        <time>2018-05-12T04:52:16Z</time>
      </trkpt>
      <trkpt lat="44.25846" lon="7.04282">
        <ele>1643.49</ele>
        <time>2018-05-12T04:52:36Z</time>
      </trkpt>
      <trkpt lat="44.25846" lon="7.04282">
        <ele>1643.72</ele>
        <time>2018-05-12T04:52:39Z</time>
      </trkpt>
      <trkpt lat="44.25839" lon="7.04287">
        <ele>1642.91</ele>
        <time>2018-05-12T04:52:57Z</time>
      </trkpt>
      <trkpt lat="44.25839" lon="7.04288">
        <ele>1643.27</ele>
        <time>2018-05-12T04:53:06Z</time>
      </trkpt>
      <trkpt lat="44.25838" lon="7.04289">
        <ele>1643.29</ele>
        <time>2018-05-12T04:53:09Z</time>
      </trkpt>
      <trkpt lat="44.25843" lon="7.04288">
        <ele>1643.2</ele>
        <time>2018-05-12T04:53:28Z</time>
      </trkpt>
      <trkpt lat="44.25851" lon="7.04287">
        <ele>1643.19</ele>
        <time>2018-05-12T04:53:44Z</time>
      </trkpt>
      <trkpt lat="44.25853" lon="7.04287">
        <ele>1642.52</ele>
        <time>2018-05-12T04:53:53Z</time>
      </trkpt>
      <trkpt lat="44.25847" lon="7.04299">
        <ele>1642.96</ele>
        <time>2018-05-12T04:54:16Z</time>
      </trkpt>
      <trkpt lat="44.25855" lon="7.04326">
        <ele>1641.28</ele>
        <time>2018-05-12T04:54:38Z</time>
      </trkpt>
      <trkpt lat="44.25855" lon="7.04351">
        <ele>1640.3</ele>
        <time>2018-05-12T04:54:55Z</time>
      </trkpt>
      <trkpt lat="44.2586" lon="7.04375">
        <ele>1638.94</ele>
        <time>2018-05-12T04:55:17Z</time>
      </trkpt>
      <trkpt lat="44.2587" lon="7.04392">
        <ele>1637.93</ele>
        <time>2018-05-12T04:55:36Z</time>
      </trkpt>
      <trkpt lat="44.25879" lon="7.04404">
        <ele>1637.22</ele>
        <time>2018-05-12T04:55:46Z</time>
      </trkpt>
      <trkpt lat="44.2588" lon="7.0441">
        <ele>1637.2</ele>
        <time>2018-05-12T04:55:53Z</time>
      </trkpt>
      <trkpt lat="44.2588" lon="7.04415">
        <ele>1636.82</ele>
        <time>2018-05-12T04:55:56Z</time>
      </trkpt>
      <trkpt lat="44.2588" lon="7.04423">
        <ele>1636.65</ele>
        <time>2018-05-12T04:56:01Z</time>
      </trkpt>
      <trkpt lat="44.25878" lon="7.04435">
        <ele>1635.85</ele>
        <time>2018-05-12T04:56:10Z</time>
      </trkpt>
      <trkpt lat="44.25878" lon="7.04445">
        <ele>1635.43</ele>
        <time>2018-05-12T04:56:18Z</time>
      </trkpt>
      <trkpt lat="44.25876" lon="7.04464">
        <ele>1634.47</ele>
        <time>2018-05-12T04:56:32Z</time>
      </trkpt>
      <trkpt lat="44.2587" lon="7.04485">
        <ele>1632.97</ele>
        <time>2018-05-12T04:56:51Z</time>
      </trkpt>
      <trkpt lat="44.25864" lon="7.04502">
        <ele>1632.06</ele>
        <time>2018-05-12T04:57:09Z</time>
      </trkpt>
      <trkpt lat="44.25852" lon="7.04516">
        <ele>1632.74</ele>
        <time>2018-05-12T04:57:30Z</time>
      </trkpt>
      <trkpt lat="44.25845" lon="7.04524">
        <ele>1634.35</ele>
        <time>2018-05-12T04:57:52Z</time>
      </trkpt>
      <trkpt lat="44.25839" lon="7.04539">
        <ele>1636.32</ele>
        <time>2018-05-12T04:58:14Z</time>
      </trkpt>
      <trkpt lat="44.2583" lon="7.04549">
        <ele>1637.31</ele>
        <time>2018-05-12T04:58:33Z</time>
      </trkpt>
      <trkpt lat="44.2583" lon="7.04559">
        <ele>1638.93</ele>
        <time>2018-05-12T04:58:52Z</time>
      </trkpt>
      <trkpt lat="44.25826" lon="7.04569">
        <ele>1640.41</ele>
        <time>2018-05-12T04:59:10Z</time>
      </trkpt>
      <trkpt lat="44.25821" lon="7.04582">
        <ele>1642.02</ele>
        <time>2018-05-12T04:59:28Z</time>
      </trkpt>
      <trkpt lat="44.25814" lon="7.04593">
        <ele>1644.06</ele>
        <time>2018-05-12T04:59:49Z</time>
      </trkpt>
      <trkpt lat="44.25807" lon="7.04609">
        <ele>1646.38</ele>
        <time>2018-05-12T05:00:14Z</time>
      </trkpt>
      <trkpt lat="44.25803" lon="7.04619">
        <ele>1647.95</ele>
        <time>2018-05-12T05:00:31Z</time>
      </trkpt>
      <trkpt lat="44.25802" lon="7.04624">
        <ele>1648.77</ele>
        <time>2018-05-12T05:00:40Z</time>
      </trkpt>
      <trkpt lat="44.25799" lon="7.04635">
        <ele>1650.66</ele>
        <time>2018-05-12T05:00:56Z</time>
      </trkpt>
      <trkpt lat="44.25791" lon="7.04653">
        <ele>1652.79</ele>
        <time>2018-05-12T05:01:21Z</time>
      </trkpt>
      <trkpt lat="44.25788" lon="7.04661">
        <ele>1653.28</ele>
        <time>2018-05-12T05:01:46Z</time>
      </trkpt>
      <trkpt lat="44.25773" lon="7.0466">
        <ele>1653.56</ele>
        <time>2018-05-12T05:02:11Z</time>
      </trkpt>
      <trkpt lat="44.25772" lon="7.04663">
        <ele>1653.95</ele>
        <time>2018-05-12T05:02:14Z</time>
      </trkpt>
      <trkpt lat="44.25773" lon="7.04669">
        <ele>1654.77</ele>
        <time>2018-05-12T05:02:22Z</time>
      </trkpt>
      <trkpt lat="44.25775" lon="7.04683">
        <ele>1656.13</ele>
        <time>2018-05-12T05:02:36Z</time>
      </trkpt>
      <trkpt lat="44.25774" lon="7.04693">
        <ele>1657.24</ele>
        <time>2018-05-12T05:02:46Z</time>
      </trkpt>
      <trkpt lat="44.25772" lon="7.04697">
        <ele>1657.48</ele>
        <time>2018-05-12T05:02:49Z</time>
      </trkpt>
      <trkpt lat="44.25766" lon="7.04711">
        <ele>1659.03</ele>
        <time>2018-05-12T05:03:04Z</time>
      </trkpt>
      <trkpt lat="44.2576" lon="7.04717">
        <ele>1660.01</ele>
        <time>2018-05-12T05:03:13Z</time>
      </trkpt>
      <trkpt lat="44.2575" lon="7.04728">
        <ele>1661.4</ele>
        <time>2018-05-12T05:03:27Z</time>
      </trkpt>
      <trkpt lat="44.25743" lon="7.04735">
        <ele>1662.73</ele>
        <time>2018-05-12T05:03:39Z</time>
      </trkpt>
      <trkpt lat="44.25741" lon="7.04741">
        <ele>1663.33</ele>
        <time>2018-05-12T05:03:45Z</time>
      </trkpt>
      <trkpt lat="44.25735" lon="7.04757">
        <ele>1665.3</ele>
        <time>2018-05-12T05:04:03Z</time>
      </trkpt>
      <trkpt lat="44.25724" lon="7.04773">
        <ele>1668.43</ele>
        <time>2018-05-12T05:04:32Z</time>
      </trkpt>
      <trkpt lat="44.2571" lon="7.04794">
        <ele>1671.47</ele>
        <time>2018-05-12T05:05:02Z</time>
      </trkpt>
      <trkpt lat="44.25695" lon="7.04803">
        <ele>1674.54</ele>
        <time>2018-05-12T05:05:32Z</time>
      </trkpt>
      <trkpt lat="44.25689" lon="7.04804">
        <ele>1675.26</ele>
        <time>2018-05-12T05:05:39Z</time>
      </trkpt>
      <trkpt lat="44.25667" lon="7.04812">
        <ele>1678.13</ele>
        <time>2018-05-12T05:06:06Z</time>
      </trkpt>
      <trkpt lat="44.2565" lon="7.04831">
        <ele>1680.3</ele>
        <time>2018-05-12T05:06:32Z</time>
      </trkpt>
      <trkpt lat="44.25636" lon="7.04845">
        <ele>1683.32</ele>
        <time>2018-05-12T05:07:00Z</time>
      </trkpt>
      <trkpt lat="44.25626" lon="7.04848">
        <ele>1686.21</ele>
        <time>2018-05-12T05:07:27Z</time>
      </trkpt>
      <trkpt lat="44.25611" lon="7.04865">
        <ele>1688.92</ele>
        <time>2018-05-12T05:07:54Z</time>
      </trkpt>
      <trkpt lat="44.25598" lon="7.04884">
        <ele>1691.32</ele>
        <time>2018-05-12T05:08:20Z</time>
      </trkpt>
      <trkpt lat="44.25587" lon="7.04897">
        <ele>1694.14</ele>
        <time>2018-05-12T05:08:47Z</time>
      </trkpt>
      <trkpt lat="44.25578" lon="7.04912">
        <ele>1696.48</ele>
        <time>2018-05-12T05:09:11Z</time>
      </trkpt>
      <trkpt lat="44.25571" lon="7.04921">
        <ele>1698</ele>
        <time>2018-05-12T05:09:27Z</time>
      </trkpt>
      <trkpt lat="44.25564" lon="7.04929">
        <ele>1699.72</ele>
        <time>2018-05-12T05:09:40Z</time>
      </trkpt>
      <trkpt lat="44.25559" lon="7.0494">
        <ele>1700.92</ele>
        <time>2018-05-12T05:09:52Z</time>
      </trkpt>
      <trkpt lat="44.25552" lon="7.04949">
        <ele>1702.58</ele>
        <time>2018-05-12T05:10:12Z</time>
      </trkpt>
      <trkpt lat="44.25552" lon="7.04935">
        <ele>1704.26</ele>
        <time>2018-05-12T05:10:36Z</time>
      </trkpt>
      <trkpt lat="44.25554" lon="7.04913">
        <ele>1706.42</ele>
        <time>2018-05-12T05:11:03Z</time>
      </trkpt>
      <trkpt lat="44.25553" lon="7.04906">
        <ele>1706.94</ele>
        <time>2018-05-12T05:11:31Z</time>
      </trkpt>
      <trkpt lat="44.25556" lon="7.04896">
        <ele>1708.68</ele>
        <time>2018-05-12T05:12:00Z</time>
      </trkpt>
      <trkpt lat="44.25557" lon="7.04897">
        <ele>1708.78</ele>
        <time>2018-05-12T05:12:28Z</time>
      </trkpt>
      <trkpt lat="44.25555" lon="7.04899">
        <ele>1708.99</ele>
        <time>2018-05-12T05:12:42Z</time>
      </trkpt>
      <trkpt lat="44.25556" lon="7.04897">
        <ele>1708.53</ele>
        <time>2018-05-12T05:13:12Z</time>
      </trkpt>
      <trkpt lat="44.25557" lon="7.04897">
        <ele>1708.6</ele>
        <time>2018-05-12T05:13:41Z</time>
      </trkpt>
      <trkpt lat="44.25556" lon="7.04886">
        <ele>1709.39</ele>
        <time>2018-05-12T05:14:04Z</time>
      </trkpt>
      <trkpt lat="44.25556" lon="7.04885">
        <ele>1709.48</ele>
        <time>2018-05-12T05:14:06Z</time>
      </trkpt>
      <trkpt lat="44.25556" lon="7.04872">
        <ele>1710.9</ele>
        <time>2018-05-12T05:14:19Z</time>
      </trkpt>
      <trkpt lat="44.25557" lon="7.04862">
        <ele>1712.21</ele>
        <time>2018-05-12T05:14:31Z</time>
      </trkpt>
      <trkpt lat="44.25557" lon="7.04851">
        <ele>1713.1</ele>
        <time>2018-05-12T05:14:45Z</time>
      </trkpt>
      <trkpt lat="44.25559" lon="7.04841">
        <ele>1714.64</ele>
        <time>2018-05-12T05:14:59Z</time>
      </trkpt>
      <trkpt lat="44.25571" lon="7.0482">
        <ele>1716.38</ele>
        <time>2018-05-12T05:15:25Z</time>
      </trkpt>
      <trkpt lat="44.25585" lon="7.0481">
        <ele>1718.46</ele>
        <time>2018-05-12T05:15:47Z</time>
      </trkpt>
      <trkpt lat="44.25588" lon="7.04796">
        <ele>1720.36</ele>
        <time>2018-05-12T05:16:14Z</time>
      </trkpt>
      <trkpt lat="44.25593" lon="7.04783">
        <ele>1722.5</ele>
        <time>2018-05-12T05:16:35Z</time>
      </trkpt>
      <trkpt lat="44.25588" lon="7.04785">
        <ele>1724.61</ele>
        <time>2018-05-12T05:16:55Z</time>
      </trkpt>
      <trkpt lat="44.25579" lon="7.04798">
        <ele>1725.46</ele>
        <time>2018-05-12T05:17:16Z</time>
      </trkpt>
      <trkpt lat="44.2557" lon="7.04804">
        <ele>1726.83</ele>
        <time>2018-05-12T05:17:39Z</time>
      </trkpt>
      <trkpt lat="44.25556" lon="7.04813">
        <ele>1728.7</ele>
        <time>2018-05-12T05:18:02Z</time>
      </trkpt>
      <trkpt lat="44.25545" lon="7.04824">
        <ele>1730.39</ele>
        <time>2018-05-12T05:18:24Z</time>
      </trkpt>
      <trkpt lat="44.25539" lon="7.04832">
        <ele>1731.02</ele>
        <time>2018-05-12T05:18:38Z</time>
      </trkpt>
      <trkpt lat="44.25537" lon="7.04833">
        <ele>1731.66</ele>
        <time>2018-05-12T05:19:08Z</time>
      </trkpt>
      <trkpt lat="44.25527" lon="7.04847">
        <ele>1733.37</ele>
        <time>2018-05-12T05:19:34Z</time>
      </trkpt>
      <trkpt lat="44.25525" lon="7.04854">
        <ele>1733.57</ele>
        <time>2018-05-12T05:19:57Z</time>
      </trkpt>
      <trkpt lat="44.25526" lon="7.04851">
        <ele>1733.81</ele>
        <time>2018-05-12T05:20:21Z</time>
      </trkpt>
      <trkpt lat="44.25514" lon="7.04855">
        <ele>1735.81</ele>
        <time>2018-05-12T05:20:44Z</time>
      </trkpt>
      <trkpt lat="44.25502" lon="7.04857">
        <ele>1738.36</ele>
        <time>2018-05-12T05:21:07Z</time>
      </trkpt>
      <trkpt lat="44.25494" lon="7.04854">
        <ele>1740.65</ele>
        <time>2018-05-12T05:21:30Z</time>
      </trkpt>
      <trkpt lat="44.25492" lon="7.04842">
        <ele>1743.44</ele>
        <time>2018-05-12T05:21:52Z</time>
      </trkpt>
      <trkpt lat="44.25494" lon="7.0483">
        <ele>1746.41</ele>
        <time>2018-05-12T05:22:16Z</time>
      </trkpt>
      <trkpt lat="44.25501" lon="7.04816">
        <ele>1748.25</ele>
        <time>2018-05-12T05:22:39Z</time>
      </trkpt>
      <trkpt lat="44.25497" lon="7.04818">
        <ele>1751.25</ele>
        <time>2018-05-12T05:23:03Z</time>
      </trkpt>
      <trkpt lat="44.25484" lon="7.04824">
        <ele>1754.18</ele>
        <time>2018-05-12T05:23:24Z</time>
      </trkpt>
      <trkpt lat="44.25474" lon="7.04826">
        <ele>1756.3</ele>
        <time>2018-05-12T05:23:46Z</time>
      </trkpt>
      <trkpt lat="44.25469" lon="7.04825">
        <ele>1758.59</ele>
        <time>2018-05-12T05:24:04Z</time>
      </trkpt>
      <trkpt lat="44.25459" lon="7.04835">
        <ele>1761.06</ele>
        <time>2018-05-12T05:24:27Z</time>
      </trkpt>
      <trkpt lat="44.25452" lon="7.04838">
        <ele>1764.04</ele>
        <time>2018-05-12T05:24:50Z</time>
      </trkpt>
      <trkpt lat="44.25442" lon="7.04832">
        <ele>1766.94</ele>
        <time>2018-05-12T05:25:13Z</time>
      </trkpt>
      <trkpt lat="44.25437" lon="7.04829">
        <ele>1769.96</ele>
        <time>2018-05-12T05:25:34Z</time>
      </trkpt>
      <trkpt lat="44.25434" lon="7.04829">
        <ele>1770.48</ele>
        <time>2018-05-12T05:25:38Z</time>
      </trkpt>
      <trkpt lat="44.25431" lon="7.0483">
        <ele>1771.39</ele>
        <time>2018-05-12T05:25:44Z</time>
      </trkpt>
      <trkpt lat="44.25418" lon="7.04824">
        <ele>1774.28</ele>
        <time>2018-05-12T05:26:07Z</time>
      </trkpt>
      <trkpt lat="44.25414" lon="7.04823">
        <ele>1775.42</ele>
        <time>2018-05-12T05:26:23Z</time>
      </trkpt>
      <trkpt lat="44.25411" lon="7.04828">
        <ele>1775.02</ele>
        <time>2018-05-12T05:26:46Z</time>
      </trkpt>
      <trkpt lat="44.25408" lon="7.04827">
        <ele>1775.19</ele>
        <time>2018-05-12T05:27:10Z</time>
      </trkpt>
      <trkpt lat="44.25409" lon="7.0483">
        <ele>1774.96</ele>
        <time>2018-05-12T05:27:37Z</time>
      </trkpt>
      <trkpt lat="44.25413" lon="7.04827">
        <ele>1775.43</ele>
        <time>2018-05-12T05:28:03Z</time>
      </trkpt>
      <trkpt lat="44.25407" lon="7.04821">
        <ele>1775.05</ele>
        <time>2018-05-12T05:28:31Z</time>
      </trkpt>
      <trkpt lat="44.25409" lon="7.04825">
        <ele>1775.31</ele>
        <time>2018-05-12T05:28:56Z</time>
      </trkpt>
      <trkpt lat="44.25408" lon="7.04822">
        <ele>1774.54</ele>
        <time>2018-05-12T05:29:21Z</time>
      </trkpt>
      <trkpt lat="44.25413" lon="7.04828">
        <ele>1774.72</ele>
        <time>2018-05-12T05:29:45Z</time>
      </trkpt>
      <trkpt lat="44.2541" lon="7.04832">
        <ele>1774.97</ele>
        <time>2018-05-12T05:30:12Z</time>
      </trkpt>
      <trkpt lat="44.25412" lon="7.04822">
        <ele>1775.36</ele>
        <time>2018-05-12T05:30:43Z</time>
      </trkpt>
      <trkpt lat="44.25408" lon="7.04822">
        <ele>1775.24</ele>
        <time>2018-05-12T05:31:16Z</time>
      </trkpt>
      <trkpt lat="44.25398" lon="7.04822">
        <ele>1775.44</ele>
        <time>2018-05-12T05:31:39Z</time>
      </trkpt>
      <trkpt lat="44.25382" lon="7.04824">
        <ele>1777.24</ele>
        <time>2018-05-12T05:32:03Z</time>
      </trkpt>
      <trkpt lat="44.25372" lon="7.04828">
        <ele>1779.8</ele>
        <time>2018-05-12T05:32:22Z</time>
      </trkpt>
      <trkpt lat="44.2536" lon="7.04828">
        <ele>1782.55</ele>
        <time>2018-05-12T05:32:45Z</time>
      </trkpt>
      <trkpt lat="44.25344" lon="7.04827">
        <ele>1784</ele>
        <time>2018-05-12T05:33:10Z</time>
      </trkpt>
      <trkpt lat="44.25329" lon="7.0483">
        <ele>1786.76</ele>
        <time>2018-05-12T05:33:32Z</time>
      </trkpt>
      <trkpt lat="44.25316" lon="7.0482">
        <ele>1789.79</ele>
        <time>2018-05-12T05:33:59Z</time>
      </trkpt>
      <trkpt lat="44.25307" lon="7.04815">
        <ele>1792.39</ele>
        <time>2018-05-12T05:34:19Z</time>
      </trkpt>
      <trkpt lat="44.25299" lon="7.04809">
        <ele>1795.26</ele>
        <time>2018-05-12T05:34:38Z</time>
      </trkpt>
      <trkpt lat="44.2529" lon="7.04804">
        <ele>1798.27</ele>
        <time>2018-05-12T05:35:00Z</time>
      </trkpt>
      <trkpt lat="44.25281" lon="7.04807">
        <ele>1801.33</ele>
        <time>2018-05-12T05:35:22Z</time>
      </trkpt>
      <trkpt lat="44.25279" lon="7.04801">
        <ele>1803.31</ele>
        <time>2018-05-12T05:35:40Z</time>
      </trkpt>
      <trkpt lat="44.25271" lon="7.04795">
        <ele>1806.06</ele>
        <time>2018-05-12T05:36:00Z</time>
      </trkpt>
      <trkpt lat="44.25266" lon="7.0478">
        <ele>1807.68</ele>
        <time>2018-05-12T05:36:20Z</time>
      </trkpt>
      <trkpt lat="44.25261" lon="7.04776">
        <ele>1810.76</ele>
        <time>2018-05-12T05:36:41Z</time>
      </trkpt>
      <trkpt lat="44.25248" lon="7.04779">
        <ele>1813.81</ele>
        <time>2018-05-12T05:37:07Z</time>
      </trkpt>
      <trkpt lat="44.25243" lon="7.04774">
        <ele>1816.44</ele>
        <time>2018-05-12T05:37:31Z</time>
      </trkpt>
      <trkpt lat="44.25243" lon="7.04758">
        <ele>1819.48</ele>
        <time>2018-05-12T05:37:52Z</time>
      </trkpt>
      <trkpt lat="44.25236" lon="7.04756">
        <ele>1822.32</ele>
        <time>2018-05-12T05:38:15Z</time>
      </trkpt>
      <trkpt lat="44.25237" lon="7.04739">
        <ele>1825.07</ele>
        <time>2018-05-12T05:38:39Z</time>
      </trkpt>
      <trkpt lat="44.25224" lon="7.04743">
        <ele>1828.14</ele>
        <time>2018-05-12T05:39:01Z</time>
      </trkpt>
      <trkpt lat="44.25214" lon="7.04739">
        <ele>1831.24</ele>
        <time>2018-05-12T05:39:24Z</time>
      </trkpt>
      <trkpt lat="44.25216" lon="7.04729">
        <ele>1833.4</ele>
        <time>2018-05-12T05:39:40Z</time>
      </trkpt>
      <trkpt lat="44.25207" lon="7.04724">
        <ele>1836.54</ele>
        <time>2018-05-12T05:40:03Z</time>
      </trkpt>
      <trkpt lat="44.25209" lon="7.04712">
        <ele>1838.48</ele>
        <time>2018-05-12T05:40:22Z</time>
      </trkpt>
      <trkpt lat="44.2521" lon="7.04698">
        <ele>1841.39</ele>
        <time>2018-05-12T05:40:44Z</time>
      </trkpt>
      <trkpt lat="44.25209" lon="7.04686">
        <ele>1844.57</ele>
        <time>2018-05-12T05:41:06Z</time>
      </trkpt>
      <trkpt lat="44.252" lon="7.04689">
        <ele>1846.53</ele>
        <time>2018-05-12T05:41:24Z</time>
      </trkpt>
      <trkpt lat="44.25195" lon="7.04682">
        <ele>1848.55</ele>
        <time>2018-05-12T05:41:42Z</time>
      </trkpt>
      <trkpt lat="44.25202" lon="7.04667">
        <ele>1850.22</ele>
        <time>2018-05-12T05:42:02Z</time>
      </trkpt>
      <trkpt lat="44.25201" lon="7.04649">
        <ele>1852.53</ele>
        <time>2018-05-12T05:42:26Z</time>
      </trkpt>
      <trkpt lat="44.25194" lon="7.04642">
        <ele>1854.53</ele>
        <time>2018-05-12T05:42:44Z</time>
      </trkpt>
      <trkpt lat="44.25184" lon="7.04636">
        <ele>1856.43</ele>
        <time>2018-05-12T05:43:03Z</time>
      </trkpt>
      <trkpt lat="44.25179" lon="7.04619">
        <ele>1858.5</ele>
        <time>2018-05-12T05:43:24Z</time>
      </trkpt>
      <trkpt lat="44.25173" lon="7.04611">
        <ele>1860.85</ele>
        <time>2018-05-12T05:43:43Z</time>
      </trkpt>
      <trkpt lat="44.25169" lon="7.04601">
        <ele>1863.08</ele>
        <time>2018-05-12T05:44:01Z</time>
      </trkpt>
      <trkpt lat="44.2516" lon="7.04601">
        <ele>1865.91</ele>
        <time>2018-05-12T05:44:20Z</time>
      </trkpt>
      <trkpt lat="44.25152" lon="7.046">
        <ele>1867.38</ele>
        <time>2018-05-12T05:44:32Z</time>
      </trkpt>
      <trkpt lat="44.25139" lon="7.04599">
        <ele>1868.97</ele>
        <time>2018-05-12T05:44:55Z</time>
      </trkpt>
      <trkpt lat="44.2513" lon="7.04597">
        <ele>1871.15</ele>
        <time>2018-05-12T05:45:13Z</time>
      </trkpt>
      <trkpt lat="44.25121" lon="7.04596">
        <ele>1873.18</ele>
        <time>2018-05-12T05:45:31Z</time>
      </trkpt>
      <trkpt lat="44.25111" lon="7.04594">
        <ele>1875.19</ele>
        <time>2018-05-12T05:45:50Z</time>
      </trkpt>
      <trkpt lat="44.25099" lon="7.04592">
        <ele>1877.93</ele>
        <time>2018-05-12T05:46:13Z</time>
      </trkpt>
      <trkpt lat="44.25095" lon="7.04603">
        <ele>1879.82</ele>
        <time>2018-05-12T05:46:35Z</time>
      </trkpt>
      <trkpt lat="44.25093" lon="7.04614">
        <ele>1881.31</ele>
        <time>2018-05-12T05:46:51Z</time>
      </trkpt>
      <trkpt lat="44.25086" lon="7.04645">
        <ele>1883.43</ele>
        <time>2018-05-12T05:47:10Z</time>
      </trkpt>
      <trkpt lat="44.25078" lon="7.04653">
        <ele>1885.39</ele>
        <time>2018-05-12T05:47:30Z</time>
      </trkpt>
      <trkpt lat="44.25065" lon="7.04659">
        <ele>1886.17</ele>
        <time>2018-05-12T05:47:53Z</time>
      </trkpt>
      <trkpt lat="44.25055" lon="7.04661">
        <ele>1888.07</ele>
        <time>2018-05-12T05:48:12Z</time>
      </trkpt>
      <trkpt lat="44.25041" lon="7.04666">
        <ele>1890.71</ele>
        <time>2018-05-12T05:48:35Z</time>
      </trkpt>
      <trkpt lat="44.2503" lon="7.04669">
        <ele>1892.95</ele>
        <time>2018-05-12T05:48:57Z</time>
      </trkpt>
      <trkpt lat="44.2502" lon="7.04674">
        <ele>1895.05</ele>
        <time>2018-05-12T05:49:18Z</time>
      </trkpt>
      <trkpt lat="44.25012" lon="7.04682">
        <ele>1896.95</ele>
        <time>2018-05-12T05:49:37Z</time>
      </trkpt>
      <trkpt lat="44.25004" lon="7.0469">
        <ele>1898.89</ele>
        <time>2018-05-12T05:49:54Z</time>
      </trkpt>
      <trkpt lat="44.24994" lon="7.04698">
        <ele>1900.38</ele>
        <time>2018-05-12T05:50:10Z</time>
      </trkpt>
      <trkpt lat="44.24982" lon="7.04703">
        <ele>1902.89</ele>
        <time>2018-05-12T05:50:31Z</time>
      </trkpt>
      <trkpt lat="44.2497" lon="7.04705">
        <ele>1905.59</ele>
        <time>2018-05-12T05:50:53Z</time>
      </trkpt>
      <trkpt lat="44.24961" lon="7.04709">
        <ele>1908.48</ele>
        <time>2018-05-12T05:51:14Z</time>
      </trkpt>
      <trkpt lat="44.2495" lon="7.04712">
        <ele>1910.24</ele>
        <time>2018-05-12T05:51:32Z</time>
      </trkpt>
      <trkpt lat="44.24938" lon="7.04715">
        <ele>1912.37</ele>
        <time>2018-05-12T05:51:52Z</time>
      </trkpt>
      <trkpt lat="44.24932" lon="7.04717">
        <ele>1912.39</ele>
        <time>2018-05-12T05:52:12Z</time>
      </trkpt>
      <trkpt lat="44.24937" lon="7.04714">
        <ele>1912.59</ele>
        <time>2018-05-12T05:52:38Z</time>
      </trkpt>
      <trkpt lat="44.24934" lon="7.04713">
        <ele>1912.37</ele>
        <time>2018-05-12T05:53:03Z</time>
      </trkpt>
      <trkpt lat="44.24921" lon="7.04717">
        <ele>1912.93</ele>
        <time>2018-05-12T05:53:24Z</time>
      </trkpt>
      <trkpt lat="44.249" lon="7.04723">
        <ele>1913.25</ele>
        <time>2018-05-12T05:53:46Z</time>
      </trkpt>
      <trkpt lat="44.24882" lon="7.04732">
        <ele>1913.95</ele>
        <time>2018-05-12T05:54:06Z</time>
      </trkpt>
      <trkpt lat="44.24868" lon="7.0474">
        <ele>1914.08</ele>
        <time>2018-05-12T05:54:26Z</time>
      </trkpt>
      <trkpt lat="44.24861" lon="7.04741">
        <ele>1914.33</ele>
        <time>2018-05-12T05:54:45Z</time>
      </trkpt>
      <trkpt lat="44.24857" lon="7.0474">
        <ele>1914.48</ele>
        <time>2018-05-12T05:55:10Z</time>
      </trkpt>
      <trkpt lat="44.24851" lon="7.04743">
        <ele>1913.66</ele>
        <time>2018-05-12T05:55:32Z</time>
      </trkpt>
      <trkpt lat="44.24849" lon="7.04745">
        <ele>1914.03</ele>
        <time>2018-05-12T05:56:00Z</time>
      </trkpt>
      <trkpt lat="44.2485" lon="7.04747">
        <ele>1913.91</ele>
        <time>2018-05-12T05:56:29Z</time>
      </trkpt>
      <trkpt lat="44.24855" lon="7.04743">
        <ele>1913.87</ele>
        <time>2018-05-12T05:57:00Z</time>
      </trkpt>
      <trkpt lat="44.24851" lon="7.04745">
        <ele>1913.62</ele>
        <time>2018-05-12T05:57:30Z</time>
      </trkpt>
      <trkpt lat="44.24849" lon="7.04745">
        <ele>1913.35</ele>
        <time>2018-05-12T05:57:51Z</time>
      </trkpt>
      <trkpt lat="44.24844" lon="7.04745">
        <ele>1913.02</ele>
        <time>2018-05-12T05:58:07Z</time>
      </trkpt>
      <trkpt lat="44.24837" lon="7.04771">
        <ele>1909.77</ele>
        <time>2018-05-12T05:58:19Z</time>
      </trkpt>
      <trkpt lat="44.24834" lon="7.04795">
        <ele>1907.87</ele>
        <time>2018-05-12T05:58:32Z</time>
      </trkpt>
      <trkpt lat="44.24833" lon="7.04809">
        <ele>1906.07</ele>
        <time>2018-05-12T05:58:35Z</time>
      </trkpt>
      <trkpt lat="44.24829" lon="7.04812">
        <ele>1904.85</ele>
        <time>2018-05-12T05:58:39Z</time>
      </trkpt>
      <trkpt lat="44.24824" lon="7.04798">
        <ele>1902.91</ele>
        <time>2018-05-12T05:58:49Z</time>
      </trkpt>
      <trkpt lat="44.2482" lon="7.04785">
        <ele>1902.39</ele>
        <time>2018-05-12T05:59:01Z</time>
      </trkpt>
      <trkpt lat="44.24819" lon="7.04765">
        <ele>1900.95</ele>
        <time>2018-05-12T05:59:13Z</time>
      </trkpt>
      <trkpt lat="44.24806" lon="7.04747">
        <ele>1898.73</ele>
        <time>2018-05-12T05:59:32Z</time>
      </trkpt>
      <trkpt lat="44.24793" lon="7.04739">
        <ele>1896.99</ele>
        <time>2018-05-12T05:59:47Z</time>
      </trkpt>
      <trkpt lat="44.2478" lon="7.04735">
        <ele>1896.97</ele>
        <time>2018-05-12T06:00:01Z</time>
      </trkpt>
      <trkpt lat="44.24766" lon="7.04727">
        <ele>1897.97</ele>
        <time>2018-05-12T06:00:19Z</time>
      </trkpt>
      <trkpt lat="44.24755" lon="7.04717">
        <ele>1898.86</ele>
        <time>2018-05-12T06:00:35Z</time>
      </trkpt>
      <trkpt lat="44.24744" lon="7.04706">
        <ele>1898.47</ele>
        <time>2018-05-12T06:00:50Z</time>
      </trkpt>
      <trkpt lat="44.24731" lon="7.04698">
        <ele>1898.28</ele>
        <time>2018-05-12T06:01:09Z</time>
      </trkpt>
      <trkpt lat="44.2472" lon="7.04689">
        <ele>1898.71</ele>
        <time>2018-05-12T06:01:26Z</time>
      </trkpt>
      <trkpt lat="44.24706" lon="7.04679">
        <ele>1899.63</ele>
        <time>2018-05-12T06:01:44Z</time>
      </trkpt>
      <trkpt lat="44.24695" lon="7.04666">
        <ele>1901.12</ele>
        <time>2018-05-12T06:02:05Z</time>
      </trkpt>
      <trkpt lat="44.24678" lon="7.04665">
        <ele>1902.64</ele>
        <time>2018-05-12T06:02:23Z</time>
      </trkpt>
      <trkpt lat="44.24678" lon="7.04665">
        <ele>1902.65</ele>
        <time>2018-05-12T06:02:24Z</time>
      </trkpt>
      <trkpt lat="44.24671" lon="7.04663">
        <ele>1903.55</ele>
        <time>2018-05-12T06:02:34Z</time>
      </trkpt>
      <trkpt lat="44.24668" lon="7.04664">
        <ele>1904</ele>
        <time>2018-05-12T06:02:38Z</time>
      </trkpt>
      <trkpt lat="44.24665" lon="7.04663">
        <ele>1904.19</ele>
        <time>2018-05-12T06:02:42Z</time>
      </trkpt>
      <trkpt lat="44.24656" lon="7.04657">
        <ele>1905.29</ele>
        <time>2018-05-12T06:02:57Z</time>
      </trkpt>
      <trkpt lat="44.24645" lon="7.0465">
        <ele>1907.17</ele>
        <time>2018-05-12T06:03:16Z</time>
      </trkpt>
      <trkpt lat="44.24634" lon="7.04643">
        <ele>1907.99</ele>
        <time>2018-05-12T06:03:32Z</time>
      </trkpt>
      <trkpt lat="44.24625" lon="7.04638">
        <ele>1908.58</ele>
        <time>2018-05-12T06:03:45Z</time>
      </trkpt>
      <trkpt lat="44.24618" lon="7.04633">
        <ele>1910.2</ele>
        <time>2018-05-12T06:03:59Z</time>
      </trkpt>
      <trkpt lat="44.24607" lon="7.04628">
        <ele>1911.79</ele>
        <time>2018-05-12T06:04:15Z</time>
      </trkpt>
      <trkpt lat="44.24601" lon="7.04621">
        <ele>1913.15</ele>
        <time>2018-05-12T06:04:30Z</time>
      </trkpt>
      <trkpt lat="44.2459" lon="7.04617">
        <ele>1914.98</ele>
        <time>2018-05-12T06:04:47Z</time>
      </trkpt>
      <trkpt lat="44.2458" lon="7.04606">
        <ele>1916.32</ele>
        <time>2018-05-12T06:05:03Z</time>
      </trkpt>
      <trkpt lat="44.24566" lon="7.04601">
        <ele>1918.93</ele>
        <time>2018-05-12T06:05:26Z</time>
      </trkpt>
      <trkpt lat="44.24558" lon="7.04599">
        <ele>1920.94</ele>
        <time>2018-05-12T06:05:40Z</time>
      </trkpt>
      <trkpt lat="44.24546" lon="7.04593">
        <ele>1921.95</ele>
        <time>2018-05-12T06:05:56Z</time>
      </trkpt>
      <trkpt lat="44.24543" lon="7.04591">
        <ele>1922.34</ele>
        <time>2018-05-12T06:06:00Z</time>
      </trkpt>
      <trkpt lat="44.24539" lon="7.04591">
        <ele>1922.87</ele>
        <time>2018-05-12T06:06:06Z</time>
      </trkpt>
      <trkpt lat="44.24531" lon="7.04587">
        <ele>1924.08</ele>
        <time>2018-05-12T06:06:18Z</time>
      </trkpt>
      <trkpt lat="44.24522" lon="7.04575">
        <ele>1925.08</ele>
        <time>2018-05-12T06:06:35Z</time>
      </trkpt>
      <trkpt lat="44.2451" lon="7.04574">
        <ele>1926.63</ele>
        <time>2018-05-12T06:06:51Z</time>
      </trkpt>
      <trkpt lat="44.24493" lon="7.04574">
        <ele>1928.55</ele>
        <time>2018-05-12T06:07:12Z</time>
      </trkpt>
      <trkpt lat="44.24482" lon="7.04571">
        <ele>1930.05</ele>
        <time>2018-05-12T06:07:28Z</time>
      </trkpt>
      <trkpt lat="44.24471" lon="7.04566">
        <ele>1931.02</ele>
        <time>2018-05-12T06:07:47Z</time>
      </trkpt>
      <trkpt lat="44.24458" lon="7.0456">
        <ele>1932.51</ele>
        <time>2018-05-12T06:08:05Z</time>
      </trkpt>
      <trkpt lat="44.24446" lon="7.04556">
        <ele>1933.39</ele>
        <time>2018-05-12T06:08:20Z</time>
      </trkpt>
      <trkpt lat="44.24437" lon="7.04554">
        <ele>1934.86</ele>
        <time>2018-05-12T06:08:35Z</time>
      </trkpt>
      <trkpt lat="44.24436" lon="7.0455">
        <ele>1935.7</ele>
        <time>2018-05-12T06:08:51Z</time>
      </trkpt>
      <trkpt lat="44.24431" lon="7.04556">
        <ele>1934.9</ele>
        <time>2018-05-12T06:09:16Z</time>
      </trkpt>
      <trkpt lat="44.24425" lon="7.04547">
        <ele>1936.84</ele>
        <time>2018-05-12T06:09:35Z</time>
      </trkpt>
      <trkpt lat="44.24422" lon="7.04545">
        <ele>1937.24</ele>
        <time>2018-05-12T06:09:39Z</time>
      </trkpt>
      <trkpt lat="44.24409" lon="7.0454">
        <ele>1938.5</ele>
        <time>2018-05-12T06:09:55Z</time>
      </trkpt>
      <trkpt lat="44.24402" lon="7.04533">
        <ele>1939.85</ele>
        <time>2018-05-12T06:10:10Z</time>
      </trkpt>
      <trkpt lat="44.24393" lon="7.04527">
        <ele>1941.19</ele>
        <time>2018-05-12T06:10:24Z</time>
      </trkpt>
      <trkpt lat="44.24386" lon="7.04519">
        <ele>1942.53</ele>
        <time>2018-05-12T06:10:39Z</time>
      </trkpt>
      <trkpt lat="44.24377" lon="7.04512">
        <ele>1943.99</ele>
        <time>2018-05-12T06:10:56Z</time>
      </trkpt>
      <trkpt lat="44.24364" lon="7.04507">
        <ele>1946.91</ele>
        <time>2018-05-12T06:11:18Z</time>
      </trkpt>
      <trkpt lat="44.24354" lon="7.04502">
        <ele>1948.34</ele>
        <time>2018-05-12T06:11:33Z</time>
      </trkpt>
      <trkpt lat="44.24344" lon="7.04493">
        <ele>1949.59</ele>
        <time>2018-05-12T06:11:51Z</time>
      </trkpt>
      <trkpt lat="44.24337" lon="7.04486">
        <ele>1951.17</ele>
        <time>2018-05-12T06:12:07Z</time>
      </trkpt>
      <trkpt lat="44.24327" lon="7.04476">
        <ele>1953.07</ele>
        <time>2018-05-12T06:12:26Z</time>
      </trkpt>
      <trkpt lat="44.24319" lon="7.04468">
        <ele>1954.74</ele>
        <time>2018-05-12T06:12:42Z</time>
      </trkpt>
      <trkpt lat="44.2431" lon="7.04461">
        <ele>1956.67</ele>
        <time>2018-05-12T06:13:00Z</time>
      </trkpt>
      <trkpt lat="44.24301" lon="7.04451">
        <ele>1958.9</ele>
        <time>2018-05-12T06:13:19Z</time>
      </trkpt>
      <trkpt lat="44.24291" lon="7.04445">
        <ele>1960.15</ele>
        <time>2018-05-12T06:13:35Z</time>
      </trkpt>
      <trkpt lat="44.24283" lon="7.0444">
        <ele>1962.02</ele>
        <time>2018-05-12T06:13:50Z</time>
      </trkpt>
      <trkpt lat="44.24274" lon="7.04434">
        <ele>1963.45</ele>
        <time>2018-05-12T06:14:07Z</time>
      </trkpt>
      <trkpt lat="44.24266" lon="7.04427">
        <ele>1965.22</ele>
        <time>2018-05-12T06:14:22Z</time>
      </trkpt>
      <trkpt lat="44.24257" lon="7.04417">
        <ele>1967.02</ele>
        <time>2018-05-12T06:14:41Z</time>
      </trkpt>
      <trkpt lat="44.24247" lon="7.04411">
        <ele>1969.12</ele>
        <time>2018-05-12T06:14:58Z</time>
      </trkpt>
      <trkpt lat="44.24237" lon="7.04406">
        <ele>1971</ele>
        <time>2018-05-12T06:15:15Z</time>
      </trkpt>
      <trkpt lat="44.2423" lon="7.04402">
        <ele>1972.77</ele>
        <time>2018-05-12T06:15:30Z</time>
      </trkpt>
      <trkpt lat="44.24221" lon="7.04398">
        <ele>1974.73</ele>
        <time>2018-05-12T06:15:48Z</time>
      </trkpt>
      <trkpt lat="44.24211" lon="7.04394">
        <ele>1976.97</ele>
        <time>2018-05-12T06:16:07Z</time>
      </trkpt>
      <trkpt lat="44.24201" lon="7.04389">
        <ele>1978.69</ele>
        <time>2018-05-12T06:16:24Z</time>
      </trkpt>
      <trkpt lat="44.24193" lon="7.04386">
        <ele>1980.53</ele>
        <time>2018-05-12T06:16:40Z</time>
      </trkpt>
      <trkpt lat="44.24183" lon="7.04378">
        <ele>1982.39</ele>
        <time>2018-05-12T06:16:57Z</time>
      </trkpt>
      <trkpt lat="44.24173" lon="7.0437">
        <ele>1983.71</ele>
        <time>2018-05-12T06:17:15Z</time>
      </trkpt>
      <trkpt lat="44.24167" lon="7.04365">
        <ele>1985.24</ele>
        <time>2018-05-12T06:17:30Z</time>
      </trkpt>
      <trkpt lat="44.24157" lon="7.04361">
        <ele>1986.76</ele>
        <time>2018-05-12T06:17:46Z</time>
      </trkpt>
      <trkpt lat="44.24145" lon="7.04355">
        <ele>1989.04</ele>
        <time>2018-05-12T06:18:07Z</time>
      </trkpt>
      <trkpt lat="44.24134" lon="7.04346">
        <ele>1991.33</ele>
        <time>2018-05-12T06:18:29Z</time>
      </trkpt>
      <trkpt lat="44.24125" lon="7.0434">
        <ele>1992.21</ele>
        <time>2018-05-12T06:18:45Z</time>
      </trkpt>
      <trkpt lat="44.24117" lon="7.04329">
        <ele>1993.61</ele>
        <time>2018-05-12T06:19:01Z</time>
      </trkpt>
      <trkpt lat="44.24108" lon="7.04323">
        <ele>1995.17</ele>
        <time>2018-05-12T06:19:17Z</time>
      </trkpt>
      <trkpt lat="44.24098" lon="7.04314">
        <ele>1996.87</ele>
        <time>2018-05-12T06:19:34Z</time>
      </trkpt>
      <trkpt lat="44.24087" lon="7.04309">
        <ele>1998.64</ele>
        <time>2018-05-12T06:19:51Z</time>
      </trkpt>
      <trkpt lat="44.24076" lon="7.04298">
        <ele>2001.06</ele>
        <time>2018-05-12T06:20:13Z</time>
      </trkpt>
      <trkpt lat="44.24067" lon="7.04292">
        <ele>2002.86</ele>
        <time>2018-05-12T06:20:30Z</time>
      </trkpt>
      <trkpt lat="44.24057" lon="7.04282">
        <ele>2005.3</ele>
        <time>2018-05-12T06:20:52Z</time>
      </trkpt>
      <trkpt lat="44.24048" lon="7.04276">
        <ele>2007.07</ele>
        <time>2018-05-12T06:21:11Z</time>
      </trkpt>
      <trkpt lat="44.2404" lon="7.04268">
        <ele>2009.07</ele>
        <time>2018-05-12T06:21:26Z</time>
      </trkpt>
      <trkpt lat="44.24015" lon="7.04252">
        <ele>2010.59</ele>
        <time>2018-05-12T06:21:43Z</time>
      </trkpt>
      <trkpt lat="44.2402" lon="7.04249">
        <ele>2012.24</ele>
        <time>2018-05-12T06:21:59Z</time>
      </trkpt>
      <trkpt lat="44.24016" lon="7.04236">
        <ele>2014.23</ele>
        <time>2018-05-12T06:22:18Z</time>
      </trkpt>
      <trkpt lat="44.24007" lon="7.04226">
        <ele>2015.64</ele>
        <time>2018-05-12T06:22:36Z</time>
      </trkpt>
      <trkpt lat="44.23997" lon="7.04217">
        <ele>2017.26</ele>
        <time>2018-05-12T06:22:56Z</time>
      </trkpt>
      <trkpt lat="44.23988" lon="7.04201">
        <ele>2020.34</ele>
        <time>2018-05-12T06:23:21Z</time>
      </trkpt>
      <trkpt lat="44.2398" lon="7.04193">
        <ele>2021.65</ele>
        <time>2018-05-12T06:23:36Z</time>
      </trkpt>
      <trkpt lat="44.23967" lon="7.04182">
        <ele>2022.77</ele>
        <time>2018-05-12T06:23:55Z</time>
      </trkpt>
      <trkpt lat="44.23959" lon="7.04172">
        <ele>2024.12</ele>
        <time>2018-05-12T06:24:11Z</time>
      </trkpt>
      <trkpt lat="44.2395" lon="7.04161">
        <ele>2025.62</ele>
        <time>2018-05-12T06:24:28Z</time>
      </trkpt>
      <trkpt lat="44.23941" lon="7.04154">
        <ele>2026.51</ele>
        <time>2018-05-12T06:24:41Z</time>
      </trkpt>
      <trkpt lat="44.23932" lon="7.0414">
        <ele>2027.33</ele>
        <time>2018-05-12T06:24:58Z</time>
      </trkpt>
      <trkpt lat="44.2392" lon="7.04129">
        <ele>2028.8</ele>
        <time>2018-05-12T06:25:19Z</time>
      </trkpt>
      <trkpt lat="44.2391" lon="7.04124">
        <ele>2031.22</ele>
        <time>2018-05-12T06:25:37Z</time>
      </trkpt>
      <trkpt lat="44.23901" lon="7.04118">
        <ele>2032.99</ele>
        <time>2018-05-12T06:25:54Z</time>
      </trkpt>
      <trkpt lat="44.2389" lon="7.04109">
        <ele>2035.35</ele>
        <time>2018-05-12T06:26:16Z</time>
      </trkpt>
      <trkpt lat="44.23882" lon="7.04102">
        <ele>2037.38</ele>
        <time>2018-05-12T06:26:35Z</time>
      </trkpt>
      <trkpt lat="44.23875" lon="7.04093">
        <ele>2039.31</ele>
        <time>2018-05-12T06:26:51Z</time>
      </trkpt>
      <trkpt lat="44.23867" lon="7.04088">
        <ele>2041.36</ele>
        <time>2018-05-12T06:27:07Z</time>
      </trkpt>
      <trkpt lat="44.2386" lon="7.04084">
        <ele>2043.93</ele>
        <time>2018-05-12T06:27:24Z</time>
      </trkpt>
      <trkpt lat="44.23853" lon="7.04079">
        <ele>2046.41</ele>
        <time>2018-05-12T06:27:40Z</time>
      </trkpt>
      <trkpt lat="44.23846" lon="7.04074">
        <ele>2048.95</ele>
        <time>2018-05-12T06:27:57Z</time>
      </trkpt>
      <trkpt lat="44.23835" lon="7.04067">
        <ele>2051.75</ele>
        <time>2018-05-12T06:28:17Z</time>
      </trkpt>
      <trkpt lat="44.23824" lon="7.04064">
        <ele>2054.29</ele>
        <time>2018-05-12T06:28:36Z</time>
      </trkpt>
      <trkpt lat="44.23814" lon="7.04059">
        <ele>2057.04</ele>
        <time>2018-05-12T06:28:56Z</time>
      </trkpt>
      <trkpt lat="44.23802" lon="7.04054">
        <ele>2060.1</ele>
        <time>2018-05-12T06:29:19Z</time>
      </trkpt>
      <trkpt lat="44.23791" lon="7.0405">
        <ele>2062.3</ele>
        <time>2018-05-12T06:29:38Z</time>
      </trkpt>
      <trkpt lat="44.23781" lon="7.04039">
        <ele>2064.98</ele>
        <time>2018-05-12T06:30:01Z</time>
      </trkpt>
      <trkpt lat="44.23769" lon="7.04034">
        <ele>2067.42</ele>
        <time>2018-05-12T06:30:22Z</time>
      </trkpt>
      <trkpt lat="44.23757" lon="7.04031">
        <ele>2069.54</ele>
        <time>2018-05-12T06:30:40Z</time>
      </trkpt>
      <trkpt lat="44.23748" lon="7.04022">
        <ele>2072.07</ele>
        <time>2018-05-12T06:31:00Z</time>
      </trkpt>
      <trkpt lat="44.23739" lon="7.04018">
        <ele>2074.44</ele>
        <time>2018-05-12T06:31:18Z</time>
      </trkpt>
      <trkpt lat="44.23731" lon="7.04009">
        <ele>2077.13</ele>
        <time>2018-05-12T06:31:37Z</time>
      </trkpt>
      <trkpt lat="44.23722" lon="7.04003">
        <ele>2079.3</ele>
        <time>2018-05-12T06:31:54Z</time>
      </trkpt>
      <trkpt lat="44.23714" lon="7.03994">
        <ele>2081.89</ele>
        <time>2018-05-12T06:32:14Z</time>
      </trkpt>
      <trkpt lat="44.23705" lon="7.03992">
        <ele>2083.88</ele>
        <time>2018-05-12T06:32:30Z</time>
      </trkpt>
      <trkpt lat="44.23693" lon="7.03984">
        <ele>2086.29</ele>
        <time>2018-05-12T06:32:51Z</time>
      </trkpt>
      <trkpt lat="44.23684" lon="7.0398">
        <ele>2089.02</ele>
        <time>2018-05-12T06:33:12Z</time>
      </trkpt>
      <trkpt lat="44.23674" lon="7.03975">
        <ele>2091.62</ele>
        <time>2018-05-12T06:33:33Z</time>
      </trkpt>
      <trkpt lat="44.23662" lon="7.03968">
        <ele>2094.38</ele>
        <time>2018-05-12T06:33:54Z</time>
      </trkpt>
      <trkpt lat="44.23654" lon="7.03963">
        <ele>2096.48</ele>
        <time>2018-05-12T06:34:13Z</time>
      </trkpt>
      <trkpt lat="44.23645" lon="7.03956">
        <ele>2099.33</ele>
        <time>2018-05-12T06:34:34Z</time>
      </trkpt>
      <trkpt lat="44.23637" lon="7.03951">
        <ele>2101.4</ele>
        <time>2018-05-12T06:34:51Z</time>
      </trkpt>
      <trkpt lat="44.23629" lon="7.03945">
        <ele>2104.43</ele>
        <time>2018-05-12T06:35:11Z</time>
      </trkpt>
      <trkpt lat="44.2362" lon="7.0394">
        <ele>2107.45</ele>
        <time>2018-05-12T06:35:33Z</time>
      </trkpt>
      <trkpt lat="44.23612" lon="7.03934">
        <ele>2109.45</ele>
        <time>2018-05-12T06:35:54Z</time>
      </trkpt>
      <trkpt lat="44.23604" lon="7.03932">
        <ele>2112.56</ele>
        <time>2018-05-12T06:36:14Z</time>
      </trkpt>
      <trkpt lat="44.23591" lon="7.03933">
        <ele>2115.71</ele>
        <time>2018-05-12T06:36:37Z</time>
      </trkpt>
      <trkpt lat="44.2358" lon="7.03931">
        <ele>2118.57</ele>
        <time>2018-05-12T06:37:00Z</time>
      </trkpt>
      <trkpt lat="44.23572" lon="7.03929">
        <ele>2120.81</ele>
        <time>2018-05-12T06:37:17Z</time>
      </trkpt>
      <trkpt lat="44.23562" lon="7.03928">
        <ele>2123.17</ele>
        <time>2018-05-12T06:37:36Z</time>
      </trkpt>
      <trkpt lat="44.23554" lon="7.03927">
        <ele>2125.45</ele>
        <time>2018-05-12T06:37:53Z</time>
      </trkpt>
      <trkpt lat="44.23543" lon="7.03924">
        <ele>2128.49</ele>
        <time>2018-05-12T06:38:17Z</time>
      </trkpt>
      <trkpt lat="44.23533" lon="7.03915">
        <ele>2131.22</ele>
        <time>2018-05-12T06:38:39Z</time>
      </trkpt>
      <trkpt lat="44.23523" lon="7.0391">
        <ele>2134.14</ele>
        <time>2018-05-12T06:39:00Z</time>
      </trkpt>
      <trkpt lat="44.23513" lon="7.03905">
        <ele>2136.45</ele>
        <time>2018-05-12T06:39:20Z</time>
      </trkpt>
      <trkpt lat="44.23505" lon="7.039">
        <ele>2138.6</ele>
        <time>2018-05-12T06:39:37Z</time>
      </trkpt>
      <trkpt lat="44.23496" lon="7.03894">
        <ele>2140.87</ele>
        <time>2018-05-12T06:39:55Z</time>
      </trkpt>
      <trkpt lat="44.23487" lon="7.0389">
        <ele>2143.25</ele>
        <time>2018-05-12T06:40:13Z</time>
      </trkpt>
      <trkpt lat="44.23478" lon="7.03886">
        <ele>2145.77</ele>
        <time>2018-05-12T06:40:32Z</time>
      </trkpt>
      <trkpt lat="44.23469" lon="7.03886">
        <ele>2148.33</ele>
        <time>2018-05-12T06:40:51Z</time>
      </trkpt>
      <trkpt lat="44.23462" lon="7.03882">
        <ele>2150.67</ele>
        <time>2018-05-12T06:41:10Z</time>
      </trkpt>
      <trkpt lat="44.2345" lon="7.03883">
        <ele>2153.69</ele>
        <time>2018-05-12T06:41:33Z</time>
      </trkpt>
      <trkpt lat="44.23442" lon="7.03881">
        <ele>2156.14</ele>
        <time>2018-05-12T06:41:51Z</time>
      </trkpt>
      <trkpt lat="44.2343" lon="7.03879">
        <ele>2158.81</ele>
        <time>2018-05-12T06:42:12Z</time>
      </trkpt>
      <trkpt lat="44.23418" lon="7.03876">
        <ele>2161.84</ele>
        <time>2018-05-12T06:42:34Z</time>
      </trkpt>
      <trkpt lat="44.23407" lon="7.03872">
        <ele>2164.88</ele>
        <time>2018-05-12T06:42:58Z</time>
      </trkpt>
      <trkpt lat="44.23397" lon="7.03868">
        <ele>2167.99</ele>
        <time>2018-05-12T06:43:19Z</time>
      </trkpt>
      <trkpt lat="44.2339" lon="7.03877">
        <ele>2170.53</ele>
        <time>2018-05-12T06:43:38Z</time>
      </trkpt>
      <trkpt lat="44.23384" lon="7.03867">
        <ele>2172.74</ele>
        <time>2018-05-12T06:43:57Z</time>
      </trkpt>
      <trkpt lat="44.23378" lon="7.03871">
        <ele>2175.76</ele>
        <time>2018-05-12T06:44:17Z</time>
      </trkpt>
      <trkpt lat="44.23371" lon="7.0387">
        <ele>2177.8</ele>
        <time>2018-05-12T06:44:34Z</time>
      </trkpt>
      <trkpt lat="44.23365" lon="7.03865">
        <ele>2180.95</ele>
        <time>2018-05-12T06:44:52Z</time>
      </trkpt>
      <trkpt lat="44.23357" lon="7.03873">
        <ele>2183.34</ele>
        <time>2018-05-12T06:45:12Z</time>
      </trkpt>
      <trkpt lat="44.2335" lon="7.03864">
        <ele>2186.41</ele>
        <time>2018-05-12T06:45:33Z</time>
      </trkpt>
      <trkpt lat="44.23347" lon="7.03872">
        <ele>2188.9</ele>
        <time>2018-05-12T06:45:52Z</time>
      </trkpt>
      <trkpt lat="44.23336" lon="7.0387">
        <ele>2190.59</ele>
        <time>2018-05-12T06:46:09Z</time>
      </trkpt>
      <trkpt lat="44.23331" lon="7.03864">
        <ele>2193.66</ele>
        <time>2018-05-12T06:46:26Z</time>
      </trkpt>
      <trkpt lat="44.23326" lon="7.0387">
        <ele>2196.3</ele>
        <time>2018-05-12T06:46:46Z</time>
      </trkpt>
      <trkpt lat="44.23317" lon="7.03861">
        <ele>2198.44</ele>
        <time>2018-05-12T06:47:06Z</time>
      </trkpt>
      <trkpt lat="44.23308" lon="7.03852">
        <ele>2201.42</ele>
        <time>2018-05-12T06:47:27Z</time>
      </trkpt>
      <trkpt lat="44.23302" lon="7.03851">
        <ele>2204.27</ele>
        <time>2018-05-12T06:47:46Z</time>
      </trkpt>
      <trkpt lat="44.23294" lon="7.03854">
        <ele>2206.62</ele>
        <time>2018-05-12T06:48:05Z</time>
      </trkpt>
      <trkpt lat="44.23285" lon="7.03844">
        <ele>2209.75</ele>
        <time>2018-05-12T06:48:28Z</time>
      </trkpt>
      <trkpt lat="44.2328" lon="7.03849">
        <ele>2212.85</ele>
        <time>2018-05-12T06:48:48Z</time>
      </trkpt>
      <trkpt lat="44.23272" lon="7.0385">
        <ele>2214.66</ele>
        <time>2018-05-12T06:49:06Z</time>
      </trkpt>
      <trkpt lat="44.23264" lon="7.03838">
        <ele>2217.5</ele>
        <time>2018-05-12T06:49:28Z</time>
      </trkpt>
      <trkpt lat="44.23258" lon="7.0383">
        <ele>2220.55</ele>
        <time>2018-05-12T06:49:45Z</time>
      </trkpt>
      <trkpt lat="44.23249" lon="7.03842">
        <ele>2223.5</ele>
        <time>2018-05-12T06:50:09Z</time>
      </trkpt>
      <trkpt lat="44.23242" lon="7.03838">
        <ele>2225.41</ele>
        <time>2018-05-12T06:50:27Z</time>
      </trkpt>
      <trkpt lat="44.23234" lon="7.03831">
        <ele>2227.53</ele>
        <time>2018-05-12T06:50:43Z</time>
      </trkpt>
      <trkpt lat="44.23225" lon="7.03823">
        <ele>2230.36</ele>
        <time>2018-05-12T06:51:04Z</time>
      </trkpt>
      <trkpt lat="44.23217" lon="7.03817">
        <ele>2233.41</ele>
        <time>2018-05-12T06:51:22Z</time>
      </trkpt>
      <trkpt lat="44.2321" lon="7.03826">
        <ele>2236.12</ele>
        <time>2018-05-12T06:51:43Z</time>
      </trkpt>
      <trkpt lat="44.23203" lon="7.03826">
        <ele>2238.03</ele>
        <time>2018-05-12T06:52:01Z</time>
      </trkpt>
      <trkpt lat="44.23195" lon="7.03815">
        <ele>2241.01</ele>
        <time>2018-05-12T06:52:23Z</time>
      </trkpt>
      <trkpt lat="44.23185" lon="7.03811">
        <ele>2244.03</ele>
        <time>2018-05-12T06:52:44Z</time>
      </trkpt>
      <trkpt lat="44.23179" lon="7.03819">
        <ele>2247.05</ele>
        <time>2018-05-12T06:53:07Z</time>
      </trkpt>
      <trkpt lat="44.23172" lon="7.03826">
        <ele>2249.54</ele>
        <time>2018-05-12T06:53:25Z</time>
      </trkpt>
      <trkpt lat="44.23162" lon="7.03818">
        <ele>2252.39</ele>
        <time>2018-05-12T06:53:47Z</time>
      </trkpt>
      <trkpt lat="44.23154" lon="7.03807">
        <ele>2254.95</ele>
        <time>2018-05-12T06:54:06Z</time>
      </trkpt>
      <trkpt lat="44.23145" lon="7.03803">
        <ele>2258.03</ele>
        <time>2018-05-12T06:54:25Z</time>
      </trkpt>
      <trkpt lat="44.23134" lon="7.03799">
        <ele>2260.55</ele>
        <time>2018-05-12T06:54:42Z</time>
      </trkpt>
      <trkpt lat="44.23127" lon="7.03793">
        <ele>2263.08</ele>
        <time>2018-05-12T06:54:59Z</time>
      </trkpt>
      <trkpt lat="44.23117" lon="7.03788">
        <ele>2265.2</ele>
        <time>2018-05-12T06:55:22Z</time>
      </trkpt>
      <trkpt lat="44.23119" lon="7.0379">
        <ele>2265.74</ele>
        <time>2018-05-12T06:55:55Z</time>
      </trkpt>
      <trkpt lat="44.23117" lon="7.03791">
        <ele>2265.21</ele>
        <time>2018-05-12T06:56:29Z</time>
      </trkpt>
      <trkpt lat="44.23116" lon="7.03792">
        <ele>2265.58</ele>
        <time>2018-05-12T06:56:51Z</time>
      </trkpt>
      <trkpt lat="44.23116" lon="7.03792">
        <ele>2265.12</ele>
        <time>2018-05-12T06:57:18Z</time>
      </trkpt>
      <trkpt lat="44.23115" lon="7.03791">
        <ele>2264.78</ele>
        <time>2018-05-12T06:57:48Z</time>
      </trkpt>
      <trkpt lat="44.23117" lon="7.03795">
        <ele>2265.34</ele>
        <time>2018-05-12T06:58:10Z</time>
      </trkpt>
      <trkpt lat="44.23117" lon="7.03792">
        <ele>2265.04</ele>
        <time>2018-05-12T06:58:28Z</time>
      </trkpt>
      <trkpt lat="44.23117" lon="7.03793">
        <ele>2265.15</ele>
        <time>2018-05-12T06:59:02Z</time>
      </trkpt>
      <trkpt lat="44.23116" lon="7.03794">
        <ele>2265.24</ele>
        <time>2018-05-12T06:59:33Z</time>
      </trkpt>
      <trkpt lat="44.23115" lon="7.03796">
        <ele>2265.09</ele>
        <time>2018-05-12T07:00:08Z</time>
      </trkpt>
      <trkpt lat="44.23117" lon="7.03793">
        <ele>2265</ele>
        <time>2018-05-12T07:00:43Z</time>
      </trkpt>
      <trkpt lat="44.23121" lon="7.03789">
        <ele>2265.46</ele>
        <time>2018-05-12T07:01:12Z</time>
      </trkpt>
      <trkpt lat="44.23117" lon="7.03794">
        <ele>2264.81</ele>
        <time>2018-05-12T07:01:38Z</time>
      </trkpt>
      <trkpt lat="44.23117" lon="7.03794">
        <ele>2265.5</ele>
        <time>2018-05-12T07:02:08Z</time>
      </trkpt>
      <trkpt lat="44.23116" lon="7.03795">
        <ele>2265.53</ele>
        <time>2018-05-12T07:02:28Z</time>
      </trkpt>
      <trkpt lat="44.23116" lon="7.03797">
        <ele>2265.87</ele>
        <time>2018-05-12T07:02:52Z</time>
      </trkpt>
      <trkpt lat="44.23116" lon="7.03796">
        <ele>2266.07</ele>
        <time>2018-05-12T07:03:18Z</time>
      </trkpt>
      <trkpt lat="44.23116" lon="7.03795">
        <ele>2266.09</ele>
        <time>2018-05-12T07:03:47Z</time>
      </trkpt>
      <trkpt lat="44.23115" lon="7.03794">
        <ele>2265.95</ele>
        <time>2018-05-12T07:03:54Z</time>
      </trkpt>
      <trkpt lat="44.23115" lon="7.03795">
        <ele>2266.01</ele>
        <time>2018-05-12T07:04:21Z</time>
      </trkpt>
      <trkpt lat="44.23117" lon="7.03793">
        <ele>2265.63</ele>
        <time>2018-05-12T07:04:55Z</time>
      </trkpt>
      <trkpt lat="44.23115" lon="7.03794">
        <ele>2265.47</ele>
        <time>2018-05-12T07:05:25Z</time>
      </trkpt>
      <trkpt lat="44.23113" lon="7.038">
        <ele>2265.36</ele>
        <time>2018-05-12T07:05:40Z</time>
      </trkpt>
      <trkpt lat="44.23117" lon="7.03791">
        <ele>2265.36</ele>
        <time>2018-05-12T07:06:09Z</time>
      </trkpt>
      <trkpt lat="44.23116" lon="7.03794">
        <ele>2265.33</ele>
        <time>2018-05-12T07:06:44Z</time>
      </trkpt>
      <trkpt lat="44.23115" lon="7.03795">
        <ele>2265.33</ele>
        <time>2018-05-12T07:07:17Z</time>
      </trkpt>
      <trkpt lat="44.23114" lon="7.03796">
        <ele>2265.02</ele>
        <time>2018-05-12T07:07:46Z</time>
      </trkpt>
      <trkpt lat="44.23114" lon="7.03792">
        <ele>2265.04</ele>
        <time>2018-05-12T07:08:18Z</time>
      </trkpt>
      <trkpt lat="44.23115" lon="7.03796">
        <ele>2265.03</ele>
        <time>2018-05-12T07:08:50Z</time>
      </trkpt>
      <trkpt lat="44.23115" lon="7.03796">
        <ele>2265.15</ele>
        <time>2018-05-12T07:09:14Z</time>
      </trkpt>
      <trkpt lat="44.23114" lon="7.03793">
        <ele>2264.88</ele>
        <time>2018-05-12T07:09:40Z</time>
      </trkpt>
      <trkpt lat="44.23114" lon="7.03792">
        <ele>2265</ele>
        <time>2018-05-12T07:10:09Z</time>
      </trkpt>
      <trkpt lat="44.23115" lon="7.03793">
        <ele>2264.56</ele>
        <time>2018-05-12T07:10:38Z</time>
      </trkpt>
      <trkpt lat="44.23115" lon="7.03793">
        <ele>2265.15</ele>
        <time>2018-05-12T07:11:09Z</time>
      </trkpt>
      <trkpt lat="44.23105" lon="7.03781">
        <ele>2267.14</ele>
        <time>2018-05-12T07:11:32Z</time>
      </trkpt>
      <trkpt lat="44.2309" lon="7.03769">
        <ele>2269.5</ele>
        <time>2018-05-12T07:11:57Z</time>
      </trkpt>
      <trkpt lat="44.2308" lon="7.03759">
        <ele>2271.5</ele>
        <time>2018-05-12T07:12:19Z</time>
      </trkpt>
      <trkpt lat="44.23069" lon="7.03748">
        <ele>2274.16</ele>
        <time>2018-05-12T07:12:44Z</time>
      </trkpt>
      <trkpt lat="44.23053" lon="7.03736">
        <ele>2276.18</ele>
        <time>2018-05-12T07:13:07Z</time>
      </trkpt>
      <trkpt lat="44.23039" lon="7.03726">
        <ele>2278.39</ele>
        <time>2018-05-12T07:13:34Z</time>
      </trkpt>
      <trkpt lat="44.23025" lon="7.03719">
        <ele>2280.43</ele>
        <time>2018-05-12T07:13:56Z</time>
      </trkpt>
      <trkpt lat="44.23011" lon="7.03708">
        <ele>2282.7</ele>
        <time>2018-05-12T07:14:22Z</time>
      </trkpt>
      <trkpt lat="44.22996" lon="7.03701">
        <ele>2285.79</ele>
        <time>2018-05-12T07:14:50Z</time>
      </trkpt>
      <trkpt lat="44.22981" lon="7.03699">
        <ele>2288.84</ele>
        <time>2018-05-12T07:15:15Z</time>
      </trkpt>
      <trkpt lat="44.22967" lon="7.03697">
        <ele>2291.86</ele>
        <time>2018-05-12T07:15:40Z</time>
      </trkpt>
      <trkpt lat="44.2296" lon="7.03697">
        <ele>2294.16</ele>
        <time>2018-05-12T07:15:58Z</time>
      </trkpt>
      <trkpt lat="44.22941" lon="7.03693">
        <ele>2297</ele>
        <time>2018-05-12T07:16:24Z</time>
      </trkpt>
      <trkpt lat="44.22936" lon="7.03684">
        <ele>2299.76</ele>
        <time>2018-05-12T07:16:49Z</time>
      </trkpt>
      <trkpt lat="44.22928" lon="7.03676">
        <ele>2302.12</ele>
        <time>2018-05-12T07:17:09Z</time>
      </trkpt>
      <trkpt lat="44.22918" lon="7.03664">
        <ele>2304.5</ele>
        <time>2018-05-12T07:17:31Z</time>
      </trkpt>
      <trkpt lat="44.22904" lon="7.03653">
        <ele>2306.46</ele>
        <time>2018-05-12T07:17:52Z</time>
      </trkpt>
      <trkpt lat="44.22911" lon="7.03654">
        <ele>2306.04</ele>
        <time>2018-05-12T07:18:12Z</time>
      </trkpt>
      <trkpt lat="44.22896" lon="7.03641">
        <ele>2309.2</ele>
        <time>2018-05-12T07:18:36Z</time>
      </trkpt>
      <trkpt lat="44.22881" lon="7.03629">
        <ele>2312.22</ele>
        <time>2018-05-12T07:19:03Z</time>
      </trkpt>
      <trkpt lat="44.22873" lon="7.03619">
        <ele>2314.17</ele>
        <time>2018-05-12T07:19:24Z</time>
      </trkpt>
      <trkpt lat="44.22865" lon="7.03604">
        <ele>2316.85</ele>
        <time>2018-05-12T07:19:46Z</time>
      </trkpt>
      <trkpt lat="44.22855" lon="7.03594">
        <ele>2318.96</ele>
        <time>2018-05-12T07:20:06Z</time>
      </trkpt>
      <trkpt lat="44.22849" lon="7.03585">
        <ele>2320.1</ele>
        <time>2018-05-12T07:20:18Z</time>
      </trkpt>
      <trkpt lat="44.22839" lon="7.03579">
        <ele>2321.51</ele>
        <time>2018-05-12T07:20:33Z</time>
      </trkpt>
      <trkpt lat="44.22839" lon="7.03571">
        <ele>2322.82</ele>
        <time>2018-05-12T07:20:45Z</time>
      </trkpt>
      <trkpt lat="44.22836" lon="7.03561">
        <ele>2324.73</ele>
        <time>2018-05-12T07:21:03Z</time>
      </trkpt>
      <trkpt lat="44.22829" lon="7.03555">
        <ele>2326.2</ele>
        <time>2018-05-12T07:21:18Z</time>
      </trkpt>
      <trkpt lat="44.22824" lon="7.03548">
        <ele>2328.28</ele>
        <time>2018-05-12T07:21:31Z</time>
      </trkpt>
      <trkpt lat="44.22817" lon="7.03542">
        <ele>2330.16</ele>
        <time>2018-05-12T07:21:46Z</time>
      </trkpt>
      <trkpt lat="44.22812" lon="7.03539">
        <ele>2332.18</ele>
        <time>2018-05-12T07:21:59Z</time>
      </trkpt>
      <trkpt lat="44.22811" lon="7.03538">
        <ele>2332.51</ele>
        <time>2018-05-12T07:22:01Z</time>
      </trkpt>
      <trkpt lat="44.22804" lon="7.03533">
        <ele>2334.12</ele>
        <time>2018-05-12T07:22:13Z</time>
      </trkpt>
      <trkpt lat="44.22793" lon="7.03529">
        <ele>2337.09</ele>
        <time>2018-05-12T07:22:36Z</time>
      </trkpt>
      <trkpt lat="44.22781" lon="7.03526">
        <ele>2340.16</ele>
        <time>2018-05-12T07:22:57Z</time>
      </trkpt>
      <trkpt lat="44.22781" lon="7.03527">
        <ele>2340.4</ele>
        <time>2018-05-12T07:23:17Z</time>
      </trkpt>
      <trkpt lat="44.22778" lon="7.03529">
        <ele>2339.99</ele>
        <time>2018-05-12T07:23:44Z</time>
      </trkpt>
      <trkpt lat="44.22782" lon="7.03528">
        <ele>2340.09</ele>
        <time>2018-05-12T07:23:57Z</time>
      </trkpt>
      <trkpt lat="44.22784" lon="7.03525">
        <ele>2340.05</ele>
        <time>2018-05-12T07:24:21Z</time>
      </trkpt>
      <trkpt lat="44.22784" lon="7.03529">
        <ele>2340.18</ele>
        <time>2018-05-12T07:24:46Z</time>
      </trkpt>
      <trkpt lat="44.22781" lon="7.03527">
        <ele>2339.84</ele>
        <time>2018-05-12T07:25:10Z</time>
      </trkpt>
      <trkpt lat="44.2278" lon="7.03527">
        <ele>2340</ele>
        <time>2018-05-12T07:25:30Z</time>
      </trkpt>
      <trkpt lat="44.22784" lon="7.03524">
        <ele>2339.86</ele>
        <time>2018-05-12T07:25:53Z</time>
      </trkpt>
      <trkpt lat="44.22779" lon="7.03523">
        <ele>2341.32</ele>
        <time>2018-05-12T07:26:17Z</time>
      </trkpt>
      <trkpt lat="44.22776" lon="7.03515">
        <ele>2343.32</ele>
        <time>2018-05-12T07:26:33Z</time>
      </trkpt>
      <trkpt lat="44.22766" lon="7.03503">
        <ele>2346.2</ele>
        <time>2018-05-12T07:26:59Z</time>
      </trkpt>
      <trkpt lat="44.2276" lon="7.03491">
        <ele>2348.61</ele>
        <time>2018-05-12T07:27:21Z</time>
      </trkpt>
      <trkpt lat="44.22751" lon="7.03477">
        <ele>2350.99</ele>
        <time>2018-05-12T07:27:44Z</time>
      </trkpt>
      <trkpt lat="44.22746" lon="7.03467">
        <ele>2353.4</ele>
        <time>2018-05-12T07:28:04Z</time>
      </trkpt>
      <trkpt lat="44.22737" lon="7.0346">
        <ele>2355.73</ele>
        <time>2018-05-12T07:28:25Z</time>
      </trkpt>
      <trkpt lat="44.2273" lon="7.03451">
        <ele>2358.39</ele>
        <time>2018-05-12T07:28:46Z</time>
      </trkpt>
      <trkpt lat="44.2273" lon="7.03442">
        <ele>2361.07</ele>
        <time>2018-05-12T07:29:06Z</time>
      </trkpt>
      <trkpt lat="44.2273" lon="7.03431">
        <ele>2364.02</ele>
        <time>2018-05-12T07:29:27Z</time>
      </trkpt>
      <trkpt lat="44.22727" lon="7.03429">
        <ele>2364.43</ele>
        <time>2018-05-12T07:29:46Z</time>
      </trkpt>
      <trkpt lat="44.22722" lon="7.03413">
        <ele>2366.83</ele>
        <time>2018-05-12T07:30:06Z</time>
      </trkpt>
      <trkpt lat="44.22716" lon="7.03397">
        <ele>2368.83</ele>
        <time>2018-05-12T07:30:26Z</time>
      </trkpt>
      <trkpt lat="44.22707" lon="7.03387">
        <ele>2371.63</ele>
        <time>2018-05-12T07:30:44Z</time>
      </trkpt>
      <trkpt lat="44.22695" lon="7.03377">
        <ele>2373.87</ele>
        <time>2018-05-12T07:31:05Z</time>
      </trkpt>
      <trkpt lat="44.22691" lon="7.03366">
        <ele>2376.23</ele>
        <time>2018-05-12T07:31:22Z</time>
      </trkpt>
      <trkpt lat="44.22678" lon="7.03357">
        <ele>2379.22</ele>
        <time>2018-05-12T07:31:44Z</time>
      </trkpt>
      <trkpt lat="44.22674" lon="7.03347">
        <ele>2382.11</ele>
        <time>2018-05-12T07:32:04Z</time>
      </trkpt>
      <trkpt lat="44.22664" lon="7.03339">
        <ele>2384.84</ele>
        <time>2018-05-12T07:32:27Z</time>
      </trkpt>
      <trkpt lat="44.22651" lon="7.03334">
        <ele>2387.91</ele>
        <time>2018-05-12T07:32:48Z</time>
      </trkpt>
      <trkpt lat="44.22642" lon="7.03334">
        <ele>2390.09</ele>
        <time>2018-05-12T07:33:09Z</time>
      </trkpt>
      <trkpt lat="44.2263" lon="7.03336">
        <ele>2392.5</ele>
        <time>2018-05-12T07:33:32Z</time>
      </trkpt>
      <trkpt lat="44.22615" lon="7.03337">
        <ele>2395.56</ele>
        <time>2018-05-12T07:33:55Z</time>
      </trkpt>
      <trkpt lat="44.22606" lon="7.03334">
        <ele>2398.57</ele>
        <time>2018-05-12T07:34:18Z</time>
      </trkpt>
      <trkpt lat="44.22595" lon="7.0333">
        <ele>2401.48</ele>
        <time>2018-05-12T07:34:41Z</time>
      </trkpt>
      <trkpt lat="44.22583" lon="7.03328">
        <ele>2404.24</ele>
        <time>2018-05-12T07:35:04Z</time>
      </trkpt>
      <trkpt lat="44.22575" lon="7.03322">
        <ele>2406.26</ele>
        <time>2018-05-12T07:35:24Z</time>
      </trkpt>
      <trkpt lat="44.22563" lon="7.03325">
        <ele>2409.18</ele>
        <time>2018-05-12T07:35:49Z</time>
      </trkpt>
      <trkpt lat="44.2255" lon="7.03328">
        <ele>2411.55</ele>
        <time>2018-05-12T07:36:11Z</time>
      </trkpt>
      <trkpt lat="44.22537" lon="7.03326">
        <ele>2414.38</ele>
        <time>2018-05-12T07:36:34Z</time>
      </trkpt>
      <trkpt lat="44.22522" lon="7.03327">
        <ele>2417.31</ele>
        <time>2018-05-12T07:37:02Z</time>
      </trkpt>
      <trkpt lat="44.22518" lon="7.03324">
        <ele>2419.27</ele>
        <time>2018-05-12T07:37:28Z</time>
      </trkpt>
      <trkpt lat="44.22514" lon="7.03324">
        <ele>2419.72</ele>
        <time>2018-05-12T07:37:53Z</time>
      </trkpt>
      <trkpt lat="44.22512" lon="7.03322">
        <ele>2419.9</ele>
        <time>2018-05-12T07:38:24Z</time>
      </trkpt>
      <trkpt lat="44.22517" lon="7.03321">
        <ele>2419.75</ele>
        <time>2018-05-12T07:38:50Z</time>
      </trkpt>
      <trkpt lat="44.22521" lon="7.03321">
        <ele>2419.72</ele>
        <time>2018-05-12T07:39:10Z</time>
      </trkpt>
      <trkpt lat="44.22521" lon="7.03319">
        <ele>2419.4</ele>
        <time>2018-05-12T07:39:19Z</time>
      </trkpt>
      <trkpt lat="44.22507" lon="7.03315">
        <ele>2421.59</ele>
        <time>2018-05-12T07:39:44Z</time>
      </trkpt>
      <trkpt lat="44.22496" lon="7.03305">
        <ele>2421.57</ele>
        <time>2018-05-12T07:40:05Z</time>
      </trkpt>
      <trkpt lat="44.22492" lon="7.0329">
        <ele>2421.25</ele>
        <time>2018-05-12T07:40:21Z</time>
      </trkpt>
      <trkpt lat="44.2249" lon="7.03266">
        <ele>2422.2</ele>
        <time>2018-05-12T07:40:43Z</time>
      </trkpt>
      <trkpt lat="44.22487" lon="7.03241">
        <ele>2423.79</ele>
        <time>2018-05-12T07:41:06Z</time>
      </trkpt>
      <trkpt lat="44.22482" lon="7.03223">
        <ele>2425.21</ele>
        <time>2018-05-12T07:41:29Z</time>
      </trkpt>
      <trkpt lat="44.22477" lon="7.03201">
        <ele>2427.68</ele>
        <time>2018-05-12T07:41:52Z</time>
      </trkpt>
      <trkpt lat="44.22473" lon="7.03191">
        <ele>2429.41</ele>
        <time>2018-05-12T07:42:13Z</time>
      </trkpt>
      <trkpt lat="44.22472" lon="7.03186">
        <ele>2431.01</ele>
        <time>2018-05-12T07:42:25Z</time>
      </trkpt>
      <trkpt lat="44.2247" lon="7.03177">
        <ele>2433.07</ele>
        <time>2018-05-12T07:42:40Z</time>
      </trkpt>
      <trkpt lat="44.2247" lon="7.03172">
        <ele>2433.65</ele>
        <time>2018-05-12T07:42:57Z</time>
      </trkpt>
      <trkpt lat="44.22473" lon="7.03174">
        <ele>2434.42</ele>
        <time>2018-05-12T07:43:10Z</time>
      </trkpt>
      <trkpt lat="44.22474" lon="7.03176">
        <ele>2433.31</ele>
        <time>2018-05-12T07:43:34Z</time>
      </trkpt>
      <trkpt lat="44.22476" lon="7.03177">
        <ele>2433.4</ele>
        <time>2018-05-12T07:43:59Z</time>
      </trkpt>
      <trkpt lat="44.22473" lon="7.03178">
        <ele>2433.85</ele>
        <time>2018-05-12T07:44:19Z</time>
      </trkpt>
      <trkpt lat="44.2247" lon="7.03177">
        <ele>2433.3</ele>
        <time>2018-05-12T07:44:47Z</time>
      </trkpt>
      <trkpt lat="44.2247" lon="7.03177">
        <ele>2433.62</ele>
        <time>2018-05-12T07:45:02Z</time>
      </trkpt>
      <trkpt lat="44.22468" lon="7.03177">
        <ele>2433.34</ele>
        <time>2018-05-12T07:45:12Z</time>
      </trkpt>
      <trkpt lat="44.2246" lon="7.03173">
        <ele>2434.3</ele>
        <time>2018-05-12T07:45:37Z</time>
      </trkpt>
      <trkpt lat="44.22465" lon="7.03175">
        <ele>2434.01</ele>
        <time>2018-05-12T07:45:57Z</time>
      </trkpt>
      <trkpt lat="44.22465" lon="7.03176">
        <ele>2433.8</ele>
        <time>2018-05-12T07:46:00Z</time>
      </trkpt>
      <trkpt lat="44.22463" lon="7.03175">
        <ele>2434.09</ele>
        <time>2018-05-12T07:46:27Z</time>
      </trkpt>
      <trkpt lat="44.22466" lon="7.03175">
        <ele>2435.2</ele>
        <time>2018-05-12T07:46:53Z</time>
      </trkpt>
      <trkpt lat="44.22464" lon="7.03175">
        <ele>2435.36</ele>
        <time>2018-05-12T07:47:21Z</time>
      </trkpt>
      <trkpt lat="44.22467" lon="7.03176">
        <ele>2435.11</ele>
        <time>2018-05-12T07:48:37Z</time>
      </trkpt>
      <trkpt lat="44.22465" lon="7.03175">
        <ele>2435</ele>
        <time>2018-05-12T07:49:53Z</time>
      </trkpt>
      <trkpt lat="44.22464" lon="7.0317">
        <ele>2436.16</ele>
        <time>2018-05-12T07:51:21Z</time>
      </trkpt>
      <trkpt lat="44.22464" lon="7.03166">
        <ele>2435.99</ele>
        <time>2018-05-12T07:52:13Z</time>
      </trkpt>
      <trkpt lat="44.22464" lon="7.03166">
        <ele>2436.24</ele>
        <time>2018-05-12T07:52:42Z</time>
      </trkpt>
      <trkpt lat="44.22466" lon="7.03166">
        <ele>2436.48</ele>
        <time>2018-05-12T07:53:00Z</time>
      </trkpt>
      <trkpt lat="44.22463" lon="7.03162">
        <ele>2436.38</ele>
        <time>2018-05-12T07:53:17Z</time>
      </trkpt>
      <trkpt lat="44.22464" lon="7.03162">
        <ele>2436.06</ele>
        <time>2018-05-12T07:53:42Z</time>
      </trkpt>
      <trkpt lat="44.22463" lon="7.03161">
        <ele>2436.38</ele>
        <time>2018-05-12T07:54:13Z</time>
      </trkpt>
      <trkpt lat="44.22463" lon="7.03161">
        <ele>2436.65</ele>
        <time>2018-05-12T07:54:18Z</time>
      </trkpt>
      <trkpt lat="44.22459" lon="7.03161">
        <ele>2436.97</ele>
        <time>2018-05-12T07:54:42Z</time>
      </trkpt>
      <trkpt lat="44.2246" lon="7.03161">
        <ele>2436.83</ele>
        <time>2018-05-12T07:55:03Z</time>
      </trkpt>
      <trkpt lat="44.2246" lon="7.03159">
        <ele>2436.56</ele>
        <time>2018-05-12T07:55:24Z</time>
      </trkpt>
      <trkpt lat="44.22458" lon="7.03146">
        <ele>2438.88</ele>
        <time>2018-05-12T07:55:42Z</time>
      </trkpt>
      <trkpt lat="44.22456" lon="7.03133">
        <ele>2441.57</ele>
        <time>2018-05-12T07:56:00Z</time>
      </trkpt>
      <trkpt lat="44.22451" lon="7.03117">
        <ele>2444.52</ele>
        <time>2018-05-12T07:56:20Z</time>
      </trkpt>
      <trkpt lat="44.22448" lon="7.031">
        <ele>2446.76</ele>
        <time>2018-05-12T07:56:36Z</time>
      </trkpt>
      <trkpt lat="44.22447" lon="7.0309">
        <ele>2449.25</ele>
        <time>2018-05-12T07:56:52Z</time>
      </trkpt>
      <trkpt lat="44.22451" lon="7.03084">
        <ele>2451.18</ele>
        <time>2018-05-12T07:57:04Z</time>
      </trkpt>
      <trkpt lat="44.22454" lon="7.03074">
        <ele>2453.54</ele>
        <time>2018-05-12T07:57:20Z</time>
      </trkpt>
      <trkpt lat="44.22455" lon="7.03061">
        <ele>2455.91</ele>
        <time>2018-05-12T07:57:37Z</time>
      </trkpt>
      <trkpt lat="44.22454" lon="7.03044">
        <ele>2458.49</ele>
        <time>2018-05-12T07:57:57Z</time>
      </trkpt>
      <trkpt lat="44.22456" lon="7.0303">
        <ele>2461.18</ele>
        <time>2018-05-12T07:58:15Z</time>
      </trkpt>
      <trkpt lat="44.22456" lon="7.03018">
        <ele>2464.15</ele>
        <time>2018-05-12T07:58:33Z</time>
      </trkpt>
      <trkpt lat="44.22457" lon="7.0301">
        <ele>2466.55</ele>
        <time>2018-05-12T07:58:50Z</time>
      </trkpt>
      <trkpt lat="44.22454" lon="7.03014">
        <ele>2467.94</ele>
        <time>2018-05-12T07:59:10Z</time>
      </trkpt>
      <trkpt lat="44.22447" lon="7.03025">
        <ele>2470.75</ele>
        <time>2018-05-12T07:59:30Z</time>
      </trkpt>
      <trkpt lat="44.22441" lon="7.03037">
        <ele>2473.74</ele>
        <time>2018-05-12T07:59:50Z</time>
      </trkpt>
      <trkpt lat="44.22435" lon="7.03044">
        <ele>2476.69</ele>
        <time>2018-05-12T08:00:10Z</time>
      </trkpt>
      <trkpt lat="44.22429" lon="7.03055">
        <ele>2479.74</ele>
        <time>2018-05-12T08:00:26Z</time>
      </trkpt>
      <trkpt lat="44.22425" lon="7.03062">
        <ele>2481.53</ele>
        <time>2018-05-12T08:00:45Z</time>
      </trkpt>
      <trkpt lat="44.22424" lon="7.03061">
        <ele>2481.3</ele>
        <time>2018-05-12T08:01:10Z</time>
      </trkpt>
      <trkpt lat="44.2242" lon="7.03068">
        <ele>2482.21</ele>
        <time>2018-05-12T08:01:31Z</time>
      </trkpt>
      <trkpt lat="44.22413" lon="7.03077">
        <ele>2485.21</ele>
        <time>2018-05-12T08:01:49Z</time>
      </trkpt>
      <trkpt lat="44.22405" lon="7.03089">
        <ele>2488.23</ele>
        <time>2018-05-12T08:02:11Z</time>
      </trkpt>
      <trkpt lat="44.22398" lon="7.03102">
        <ele>2491.37</ele>
        <time>2018-05-12T08:02:33Z</time>
      </trkpt>
      <trkpt lat="44.22392" lon="7.03116">
        <ele>2494.41</ele>
        <time>2018-05-12T08:02:55Z</time>
      </trkpt>
      <trkpt lat="44.22387" lon="7.03134">
        <ele>2497.55</ele>
        <time>2018-05-12T08:03:19Z</time>
      </trkpt>
      <trkpt lat="44.22384" lon="7.03149">
        <ele>2500.62</ele>
        <time>2018-05-12T08:03:42Z</time>
      </trkpt>
      <trkpt lat="44.2238" lon="7.03165">
        <ele>2503.31</ele>
        <time>2018-05-12T08:04:04Z</time>
      </trkpt>
      <trkpt lat="44.22378" lon="7.03176">
        <ele>2505.62</ele>
        <time>2018-05-12T08:04:26Z</time>
      </trkpt>
      <trkpt lat="44.22378" lon="7.03187">
        <ele>2507.35</ele>
        <time>2018-05-12T08:04:49Z</time>
      </trkpt>
      <trkpt lat="44.22373" lon="7.032">
        <ele>2508.53</ele>
        <time>2018-05-12T08:05:11Z</time>
      </trkpt>
      <trkpt lat="44.22366" lon="7.03218">
        <ele>2511.01</ele>
        <time>2018-05-12T08:05:34Z</time>
      </trkpt>
      <trkpt lat="44.22365" lon="7.03222">
        <ele>2511.86</ele>
        <time>2018-05-12T08:05:56Z</time>
      </trkpt>
      <trkpt lat="44.22367" lon="7.03225">
        <ele>2513.2</ele>
        <time>2018-05-12T08:06:19Z</time>
      </trkpt>
      <trkpt lat="44.22366" lon="7.03226">
        <ele>2512.39</ele>
        <time>2018-05-12T08:06:39Z</time>
      </trkpt>
      <trkpt lat="44.22368" lon="7.03226">
        <ele>2511.71</ele>
        <time>2018-05-12T08:07:09Z</time>
      </trkpt>
      <trkpt lat="44.22367" lon="7.03226">
        <ele>2512.91</ele>
        <time>2018-05-12T08:07:33Z</time>
      </trkpt>
      <trkpt lat="44.22369" lon="7.03227">
        <ele>2512.71</ele>
        <time>2018-05-12T08:07:58Z</time>
      </trkpt>
      <trkpt lat="44.22372" lon="7.03227">
        <ele>2512.03</ele>
        <time>2018-05-12T08:08:30Z</time>
      </trkpt>
      <trkpt lat="44.22369" lon="7.03226">
        <ele>2512.39</ele>
        <time>2018-05-12T08:09:01Z</time>
      </trkpt>
      <trkpt lat="44.22369" lon="7.03225">
        <ele>2511.64</ele>
        <time>2018-05-12T08:09:32Z</time>
      </trkpt>
      <trkpt lat="44.22368" lon="7.03224">
        <ele>2512.1</ele>
        <time>2018-05-12T08:09:55Z</time>
      </trkpt>
      <trkpt lat="44.22367" lon="7.03224">
        <ele>2511.62</ele>
        <time>2018-05-12T08:10:25Z</time>
      </trkpt>
      <trkpt lat="44.22368" lon="7.03226">
        <ele>2512.12</ele>
        <time>2018-05-12T08:10:52Z</time>
      </trkpt>
      <trkpt lat="44.22367" lon="7.03231">
        <ele>2511.57</ele>
        <time>2018-05-12T08:11:13Z</time>
      </trkpt>
      <trkpt lat="44.22367" lon="7.03231">
        <ele>2512.48</ele>
        <time>2018-05-12T08:11:39Z</time>
      </trkpt>
      <trkpt lat="44.22365" lon="7.03231">
        <ele>2511.92</ele>
        <time>2018-05-12T08:12:02Z</time>
      </trkpt>
      <trkpt lat="44.22366" lon="7.03231">
        <ele>2512.6</ele>
        <time>2018-05-12T08:12:38Z</time>
      </trkpt>
      <trkpt lat="44.22364" lon="7.0324">
        <ele>2513.8</ele>
        <time>2018-05-12T08:13:06Z</time>
      </trkpt>
      <trkpt lat="44.22361" lon="7.0325">
        <ele>2516.09</ele>
        <time>2018-05-12T08:13:22Z</time>
      </trkpt>
      <trkpt lat="44.2236" lon="7.03262">
        <ele>2518.71</ele>
        <time>2018-05-12T08:13:40Z</time>
      </trkpt>
      <trkpt lat="44.22357" lon="7.03273">
        <ele>2521.22</ele>
        <time>2018-05-12T08:13:59Z</time>
      </trkpt>
      <trkpt lat="44.22355" lon="7.03286">
        <ele>2523.14</ele>
        <time>2018-05-12T08:14:19Z</time>
      </trkpt>
      <trkpt lat="44.22354" lon="7.03297">
        <ele>2525.94</ele>
        <time>2018-05-12T08:14:35Z</time>
      </trkpt>
      <trkpt lat="44.22354" lon="7.03304">
        <ele>2527.21</ele>
        <time>2018-05-12T08:14:58Z</time>
      </trkpt>
      <trkpt lat="44.22352" lon="7.03313">
        <ele>2529.09</ele>
        <time>2018-05-12T08:15:14Z</time>
      </trkpt>
      <trkpt lat="44.22353" lon="7.03322">
        <ele>2530.9</ele>
        <time>2018-05-12T08:15:34Z</time>
      </trkpt>
      <trkpt lat="44.22352" lon="7.03328">
        <ele>2532.52</ele>
        <time>2018-05-12T08:15:53Z</time>
      </trkpt>
      <trkpt lat="44.22352" lon="7.03336">
        <ele>2534.09</ele>
        <time>2018-05-12T08:16:08Z</time>
      </trkpt>
      <trkpt lat="44.22348" lon="7.03339">
        <ele>2535.83</ele>
        <time>2018-05-12T08:16:24Z</time>
      </trkpt>
      <trkpt lat="44.22343" lon="7.03333">
        <ele>2537.47</ele>
        <time>2018-05-12T08:16:43Z</time>
      </trkpt>
      <trkpt lat="44.22336" lon="7.03329">
        <ele>2540.63</ele>
        <time>2018-05-12T08:16:59Z</time>
      </trkpt>
      <trkpt lat="44.2233" lon="7.03329">
        <ele>2543.72</ele>
        <time>2018-05-12T08:17:14Z</time>
      </trkpt>
      <trkpt lat="44.22324" lon="7.03335">
        <ele>2546.43</ele>
        <time>2018-05-12T08:17:32Z</time>
      </trkpt>
      <trkpt lat="44.22321" lon="7.03339">
        <ele>2548.44</ele>
        <time>2018-05-12T08:17:41Z</time>
      </trkpt>
      <trkpt lat="44.22319" lon="7.03342">
        <ele>2546.87</ele>
        <time>2018-05-12T08:18:03Z</time>
      </trkpt>
      <trkpt lat="44.2232" lon="7.03343">
        <ele>2547.61</ele>
        <time>2018-05-12T08:18:34Z</time>
      </trkpt>
      <trkpt lat="44.22319" lon="7.03358">
        <ele>2550.06</ele>
        <time>2018-05-12T08:18:53Z</time>
      </trkpt>
      <trkpt lat="44.22318" lon="7.03367">
        <ele>2551.09</ele>
        <time>2018-05-12T08:19:02Z</time>
      </trkpt>
      <trkpt lat="44.22319" lon="7.03382">
        <ele>2552.11</ele>
        <time>2018-05-12T08:19:14Z</time>
      </trkpt>
      <trkpt lat="44.22321" lon="7.03393">
        <ele>2555.12</ele>
        <time>2018-05-12T08:19:27Z</time>
      </trkpt>
      <trkpt lat="44.22325" lon="7.03409">
        <ele>2558.14</ele>
        <time>2018-05-12T08:19:46Z</time>
      </trkpt>
      <trkpt lat="44.22332" lon="7.03415">
        <ele>2558.2</ele>
        <time>2018-05-12T08:19:58Z</time>
      </trkpt>
      <trkpt lat="44.22333" lon="7.03419">
        <ele>2554.43</ele>
        <time>2018-05-12T08:20:03Z</time>
      </trkpt>
      <trkpt lat="44.22331" lon="7.03427">
        <ele>2555.3</ele>
        <time>2018-05-12T08:20:21Z</time>
      </trkpt>
      <trkpt lat="44.2233" lon="7.0343">
        <ele>2555.14</ele>
        <time>2018-05-12T08:20:24Z</time>
      </trkpt>
      <trkpt lat="44.22331" lon="7.03447">
        <ele>2553.3</ele>
        <time>2018-05-12T08:20:33Z</time>
      </trkpt>
      <trkpt lat="44.22334" lon="7.03461">
        <ele>2551.54</ele>
        <time>2018-05-12T08:20:45Z</time>
      </trkpt>
      <trkpt lat="44.22334" lon="7.03475">
        <ele>2551.37</ele>
        <time>2018-05-12T08:20:59Z</time>
      </trkpt>
      <trkpt lat="44.22335" lon="7.03487">
        <ele>2553.02</ele>
        <time>2018-05-12T08:21:13Z</time>
      </trkpt>
      <trkpt lat="44.22335" lon="7.03503">
        <ele>2554.82</ele>
        <time>2018-05-12T08:21:29Z</time>
      </trkpt>
      <trkpt lat="44.22335" lon="7.03519">
        <ele>2556.15</ele>
        <time>2018-05-12T08:21:46Z</time>
      </trkpt>
      <trkpt lat="44.22337" lon="7.03533">
        <ele>2557.88</ele>
        <time>2018-05-12T08:22:04Z</time>
      </trkpt>
      <trkpt lat="44.22342" lon="7.03548">
        <ele>2560.47</ele>
        <time>2018-05-12T08:22:24Z</time>
      </trkpt>
      <trkpt lat="44.22342" lon="7.03549">
        <ele>2560.57</ele>
        <time>2018-05-12T08:22:25Z</time>
      </trkpt>
      <trkpt lat="44.22345" lon="7.03561">
        <ele>2560.93</ele>
        <time>2018-05-12T08:22:38Z</time>
      </trkpt>
      <trkpt lat="44.22349" lon="7.03573">
        <ele>2562.84</ele>
        <time>2018-05-12T08:22:54Z</time>
      </trkpt>
      <trkpt lat="44.22353" lon="7.03582">
        <ele>2565.88</ele>
        <time>2018-05-12T08:23:11Z</time>
      </trkpt>
      <trkpt lat="44.22354" lon="7.03589">
        <ele>2567.53</ele>
        <time>2018-05-12T08:23:31Z</time>
      </trkpt>
      <trkpt lat="44.22359" lon="7.03601">
        <ele>2569.78</ele>
        <time>2018-05-12T08:23:51Z</time>
      </trkpt>
      <trkpt lat="44.22362" lon="7.03609">
        <ele>2572.14</ele>
        <time>2018-05-12T08:24:09Z</time>
      </trkpt>
      <trkpt lat="44.22364" lon="7.03614">
        <ele>2574.37</ele>
        <time>2018-05-12T08:24:28Z</time>
      </trkpt>
      <trkpt lat="44.22369" lon="7.03624">
        <ele>2576.91</ele>
        <time>2018-05-12T08:24:48Z</time>
      </trkpt>
      <trkpt lat="44.22374" lon="7.03633">
        <ele>2580.03</ele>
        <time>2018-05-12T08:25:07Z</time>
      </trkpt>
      <trkpt lat="44.22371" lon="7.03638">
        <ele>2581.9</ele>
        <time>2018-05-12T08:25:22Z</time>
      </trkpt>
      <trkpt lat="44.22364" lon="7.03642">
        <ele>2584.9</ele>
        <time>2018-05-12T08:25:42Z</time>
      </trkpt>
      <trkpt lat="44.22356" lon="7.03647">
        <ele>2587.46</ele>
        <time>2018-05-12T08:26:05Z</time>
      </trkpt>
      <trkpt lat="44.22348" lon="7.03653">
        <ele>2590.14</ele>
        <time>2018-05-12T08:26:27Z</time>
      </trkpt>
      <trkpt lat="44.22343" lon="7.03661">
        <ele>2592.65</ele>
        <time>2018-05-12T08:26:47Z</time>
      </trkpt>
      <trkpt lat="44.22348" lon="7.03669">
        <ele>2594.78</ele>
        <time>2018-05-12T08:27:04Z</time>
      </trkpt>
      <trkpt lat="44.22352" lon="7.03678">
        <ele>2597.31</ele>
        <time>2018-05-12T08:27:23Z</time>
      </trkpt>
      <trkpt lat="44.22352" lon="7.03689">
        <ele>2599.27</ele>
        <time>2018-05-12T08:27:42Z</time>
      </trkpt>
      <trkpt lat="44.22348" lon="7.03697">
        <ele>2600.73</ele>
        <time>2018-05-12T08:27:58Z</time>
      </trkpt>
      <trkpt lat="44.22345" lon="7.03705">
        <ele>2602.58</ele>
        <time>2018-05-12T08:28:14Z</time>
      </trkpt>
      <trkpt lat="44.22341" lon="7.03714">
        <ele>2604.68</ele>
        <time>2018-05-12T08:28:31Z</time>
      </trkpt>
      <trkpt lat="44.22336" lon="7.03723">
        <ele>2606.84</ele>
        <time>2018-05-12T08:28:49Z</time>
      </trkpt>
      <trkpt lat="44.22339" lon="7.03725">
        <ele>2608.76</ele>
        <time>2018-05-12T08:29:09Z</time>
      </trkpt>
      <trkpt lat="44.22346" lon="7.03729">
        <ele>2611.03</ele>
        <time>2018-05-12T08:29:28Z</time>
      </trkpt>
      <trkpt lat="44.22352" lon="7.03733">
        <ele>2613.83</ele>
        <time>2018-05-12T08:29:51Z</time>
      </trkpt>
      <trkpt lat="44.22362" lon="7.03735">
        <ele>2616.12</ele>
        <time>2018-05-12T08:30:11Z</time>
      </trkpt>
      <trkpt lat="44.22369" lon="7.03739">
        <ele>2618.29</ele>
        <time>2018-05-12T08:30:29Z</time>
      </trkpt>
      <trkpt lat="44.22372" lon="7.03741">
        <ele>2619.64</ele>
        <time>2018-05-12T08:30:49Z</time>
      </trkpt>
      <trkpt lat="44.22375" lon="7.03742">
        <ele>2621.08</ele>
        <time>2018-05-12T08:31:12Z</time>
      </trkpt>
      <trkpt lat="44.22378" lon="7.03742">
        <ele>2621.56</ele>
        <time>2018-05-12T08:31:42Z</time>
      </trkpt>
      <trkpt lat="44.22377" lon="7.03742">
        <ele>2621.22</ele>
        <time>2018-05-12T08:32:06Z</time>
      </trkpt>
      <trkpt lat="44.22378" lon="7.03741">
        <ele>2621.71</ele>
        <time>2018-05-12T08:32:33Z</time>
      </trkpt>
      <trkpt lat="44.22373" lon="7.03746">
        <ele>2622.61</ele>
        <time>2018-05-12T08:32:59Z</time>
      </trkpt>
      <trkpt lat="44.22369" lon="7.03753">
        <ele>2624.96</ele>
        <time>2018-05-12T08:33:20Z</time>
      </trkpt>
      <trkpt lat="44.22364" lon="7.0376">
        <ele>2627.82</ele>
        <time>2018-05-12T08:33:40Z</time>
      </trkpt>
      <trkpt lat="44.22362" lon="7.03766">
        <ele>2629.49</ele>
        <time>2018-05-12T08:33:57Z</time>
      </trkpt>
      <trkpt lat="44.22359" lon="7.03771">
        <ele>2631.49</ele>
        <time>2018-05-12T08:34:17Z</time>
      </trkpt>
      <trkpt lat="44.22357" lon="7.03779">
        <ele>2634.63</ele>
        <time>2018-05-12T08:34:37Z</time>
      </trkpt>
      <trkpt lat="44.22356" lon="7.03788">
        <ele>2636.87</ele>
        <time>2018-05-12T08:35:00Z</time>
      </trkpt>
      <trkpt lat="44.22352" lon="7.03795">
        <ele>2639.37</ele>
        <time>2018-05-12T08:35:22Z</time>
      </trkpt>
      <trkpt lat="44.22352" lon="7.03794">
        <ele>2639.05</ele>
        <time>2018-05-12T08:35:47Z</time>
      </trkpt>
      <trkpt lat="44.2235" lon="7.03804">
        <ele>2640.43</ele>
        <time>2018-05-12T08:36:10Z</time>
      </trkpt>
      <trkpt lat="44.2235" lon="7.03806">
        <ele>2642.43</ele>
        <time>2018-05-12T08:36:30Z</time>
      </trkpt>
      <trkpt lat="44.22353" lon="7.03802">
        <ele>2643</ele>
        <time>2018-05-12T08:36:49Z</time>
      </trkpt>
      <trkpt lat="44.22362" lon="7.03801">
        <ele>2644.81</ele>
        <time>2018-05-12T08:37:09Z</time>
      </trkpt>
      <trkpt lat="44.22367" lon="7.03798">
        <ele>2646.83</ele>
        <time>2018-05-12T08:37:32Z</time>
      </trkpt>
      <trkpt lat="44.22365" lon="7.03803">
        <ele>2646.71</ele>
        <time>2018-05-12T08:37:50Z</time>
      </trkpt>
      <trkpt lat="44.22362" lon="7.03808">
        <ele>2648.02</ele>
        <time>2018-05-12T08:38:11Z</time>
      </trkpt>
      <trkpt lat="44.22363" lon="7.03808">
        <ele>2648.62</ele>
        <time>2018-05-12T08:38:40Z</time>
      </trkpt>
      <trkpt lat="44.22361" lon="7.0381">
        <ele>2648.12</ele>
        <time>2018-05-12T08:39:05Z</time>
      </trkpt>
      <trkpt lat="44.22362" lon="7.03811">
        <ele>2649.19</ele>
        <time>2018-05-12T08:39:29Z</time>
      </trkpt>
      <trkpt lat="44.22362" lon="7.03811">
        <ele>2648.37</ele>
        <time>2018-05-12T08:39:57Z</time>
      </trkpt>
      <trkpt lat="44.22362" lon="7.03811">
        <ele>2648.12</ele>
        <time>2018-05-12T08:40:28Z</time>
      </trkpt>
      <trkpt lat="44.22363" lon="7.03808">
        <ele>2648.25</ele>
        <time>2018-05-12T08:40:59Z</time>
      </trkpt>
      <trkpt lat="44.22362" lon="7.03809">
        <ele>2648.17</ele>
        <time>2018-05-12T08:41:29Z</time>
      </trkpt>
      <trkpt lat="44.22363" lon="7.0381">
        <ele>2648.25</ele>
        <time>2018-05-12T08:42:02Z</time>
      </trkpt>
      <trkpt lat="44.22364" lon="7.0381">
        <ele>2648.13</ele>
        <time>2018-05-12T08:42:36Z</time>
      </trkpt>
      <trkpt lat="44.22363" lon="7.03811">
        <ele>2648.01</ele>
        <time>2018-05-12T08:43:08Z</time>
      </trkpt>
      <trkpt lat="44.22363" lon="7.03811">
        <ele>2647.92</ele>
        <time>2018-05-12T08:43:41Z</time>
      </trkpt>
      <trkpt lat="44.22362" lon="7.03811">
        <ele>2647.88</ele>
        <time>2018-05-12T08:44:07Z</time>
      </trkpt>
      <trkpt lat="44.22361" lon="7.0381">
        <ele>2647.86</ele>
        <time>2018-05-12T08:44:33Z</time>
      </trkpt>
      <trkpt lat="44.22361" lon="7.03812">
        <ele>2647.7</ele>
        <time>2018-05-12T08:45:03Z</time>
      </trkpt>
      <trkpt lat="44.22362" lon="7.03812">
        <ele>2648.08</ele>
        <time>2018-05-12T08:45:34Z</time>
      </trkpt>
      <trkpt lat="44.22362" lon="7.0381">
        <ele>2647.67</ele>
        <time>2018-05-12T08:45:58Z</time>
      </trkpt>
      <trkpt lat="44.22361" lon="7.03812">
        <ele>2647.78</ele>
        <time>2018-05-12T08:46:20Z</time>
      </trkpt>
      <trkpt lat="44.2236" lon="7.03814">
        <ele>2648.55</ele>
        <time>2018-05-12T08:46:40Z</time>
      </trkpt>
      <trkpt lat="44.22361" lon="7.03813">
        <ele>2647.81</ele>
        <time>2018-05-12T08:47:01Z</time>
      </trkpt>
      <trkpt lat="44.2236" lon="7.03814">
        <ele>2648.04</ele>
        <time>2018-05-12T08:47:34Z</time>
      </trkpt>
      <trkpt lat="44.2236" lon="7.03813">
        <ele>2647.73</ele>
        <time>2018-05-12T08:48:03Z</time>
      </trkpt>
      <trkpt lat="44.2236" lon="7.03814">
        <ele>2647.43</ele>
        <time>2018-05-12T08:48:32Z</time>
      </trkpt>
      <trkpt lat="44.22359" lon="7.03813">
        <ele>2648.31</ele>
        <time>2018-05-12T08:48:59Z</time>
      </trkpt>
      <trkpt lat="44.22361" lon="7.03813">
        <ele>2648.44</ele>
        <time>2018-05-12T08:49:25Z</time>
      </trkpt>
      <trkpt lat="44.22362" lon="7.03811">
        <ele>2648.28</ele>
        <time>2018-05-12T08:50:02Z</time>
      </trkpt>
      <trkpt lat="44.22362" lon="7.0381">
        <ele>2648.14</ele>
        <time>2018-05-12T08:50:37Z</time>
      </trkpt>
      <trkpt lat="44.22364" lon="7.03814">
        <ele>2648.35</ele>
        <time>2018-05-12T08:51:10Z</time>
      </trkpt>
      <trkpt lat="44.22364" lon="7.03815">
        <ele>2648.11</ele>
        <time>2018-05-12T08:51:40Z</time>
      </trkpt>
      <trkpt lat="44.22365" lon="7.03815">
        <ele>2648.23</ele>
        <time>2018-05-12T08:51:58Z</time>
      </trkpt>
      <trkpt lat="44.22361" lon="7.03813">
        <ele>2647.8</ele>
        <time>2018-05-12T08:52:30Z</time>
      </trkpt>
      <trkpt lat="44.22359" lon="7.03813">
        <ele>2648.07</ele>
        <time>2018-05-12T08:52:56Z</time>
      </trkpt>
      <trkpt lat="44.22359" lon="7.03814">
        <ele>2647.75</ele>
        <time>2018-05-12T08:53:25Z</time>
      </trkpt>
      <trkpt lat="44.22359" lon="7.03815">
        <ele>2647.55</ele>
        <time>2018-05-12T08:53:50Z</time>
      </trkpt>
      <trkpt lat="44.2236" lon="7.03816">
        <ele>2647.66</ele>
        <time>2018-05-12T08:54:18Z</time>
      </trkpt>
      <trkpt lat="44.2236" lon="7.03816">
        <ele>2648.68</ele>
        <time>2018-05-12T08:55:11Z</time>
      </trkpt>
      <trkpt lat="44.22358" lon="7.03822">
        <ele>2650.93</ele>
        <time>2018-05-12T08:55:35Z</time>
      </trkpt>
      <trkpt lat="44.22357" lon="7.03824">
        <ele>2650.99</ele>
        <time>2018-05-12T08:55:55Z</time>
      </trkpt>
      <trkpt lat="44.22357" lon="7.03827">
        <ele>2652.09</ele>
        <time>2018-05-12T08:56:15Z</time>
      </trkpt>
      <trkpt lat="44.22357" lon="7.0383">
        <ele>2653.05</ele>
        <time>2018-05-12T08:56:34Z</time>
      </trkpt>
      <trkpt lat="44.22355" lon="7.03835">
        <ele>2654.54</ele>
        <time>2018-05-12T08:56:52Z</time>
      </trkpt>
      <trkpt lat="44.22355" lon="7.03837">
        <ele>2655.51</ele>
        <time>2018-05-12T08:57:10Z</time>
      </trkpt>
      <trkpt lat="44.22353" lon="7.03842">
        <ele>2656.52</ele>
        <time>2018-05-12T08:57:35Z</time>
      </trkpt>
      <trkpt lat="44.22353" lon="7.03849">
        <ele>2659.51</ele>
        <time>2018-05-12T08:57:55Z</time>
      </trkpt>
      <trkpt lat="44.22351" lon="7.03854">
        <ele>2660.11</ele>
        <time>2018-05-12T08:58:17Z</time>
      </trkpt>
      <trkpt lat="44.2235" lon="7.03858">
        <ele>2661.42</ele>
        <time>2018-05-12T08:58:42Z</time>
      </trkpt>
      <trkpt lat="44.2235" lon="7.03862">
        <ele>2662.34</ele>
        <time>2018-05-12T08:59:01Z</time>
      </trkpt>
      <trkpt lat="44.2235" lon="7.03862">
        <ele>2662.02</ele>
        <time>2018-05-12T08:59:29Z</time>
      </trkpt>
      <trkpt lat="44.2235" lon="7.03862">
        <ele>2662.8</ele>
        <time>2018-05-12T08:59:57Z</time>
      </trkpt>
      <trkpt lat="44.2235" lon="7.03864">
        <ele>2662.64</ele>
        <time>2018-05-12T09:00:23Z</time>
      </trkpt>
      <trkpt lat="44.22351" lon="7.03863">
        <ele>2664.06</ele>
        <time>2018-05-12T09:01:43Z</time>
      </trkpt>
      <trkpt lat="44.22352" lon="7.03862">
        <ele>2663.62</ele>
        <time>2018-05-12T09:01:59Z</time>
      </trkpt>
      <trkpt lat="44.22356" lon="7.0386">
        <ele>2665.59</ele>
        <time>2018-05-12T09:02:24Z</time>
      </trkpt>
      <trkpt lat="44.22358" lon="7.03859">
        <ele>2666.28</ele>
        <time>2018-05-12T09:02:41Z</time>
      </trkpt>
      <trkpt lat="44.22361" lon="7.03858">
        <ele>2667.87</ele>
        <time>2018-05-12T09:03:02Z</time>
      </trkpt>
      <trkpt lat="44.22364" lon="7.03857">
        <ele>2668.61</ele>
        <time>2018-05-12T09:03:21Z</time>
      </trkpt>
      <trkpt lat="44.22364" lon="7.03855">
        <ele>2668.76</ele>
        <time>2018-05-12T09:03:48Z</time>
      </trkpt>
      <trkpt lat="44.22368" lon="7.03854">
        <ele>2670.77</ele>
        <time>2018-05-12T09:04:10Z</time>
      </trkpt>
      <trkpt lat="44.22369" lon="7.03861">
        <ele>2672.41</ele>
        <time>2018-05-12T09:04:27Z</time>
      </trkpt>
      <trkpt lat="44.22368" lon="7.03864">
        <ele>2673.15</ele>
        <time>2018-05-12T09:04:54Z</time>
      </trkpt>
      <trkpt lat="44.22368" lon="7.03871">
        <ele>2675.67</ele>
        <time>2018-05-12T09:05:09Z</time>
      </trkpt>
      <trkpt lat="44.2237" lon="7.03879">
        <ele>2677.56</ele>
        <time>2018-05-12T09:05:23Z</time>
      </trkpt>
      <trkpt lat="44.2237" lon="7.03886">
        <ele>2679.61</ele>
        <time>2018-05-12T09:05:39Z</time>
      </trkpt>
      <trkpt lat="44.22371" lon="7.03891">
        <ele>2680.79</ele>
        <time>2018-05-12T09:05:54Z</time>
      </trkpt>
      <trkpt lat="44.22373" lon="7.039">
        <ele>2683.1</ele>
        <time>2018-05-12T09:06:11Z</time>
      </trkpt>
      <trkpt lat="44.22374" lon="7.03904">
        <ele>2683.38</ele>
        <time>2018-05-12T09:06:29Z</time>
      </trkpt>
      <trkpt lat="44.22375" lon="7.03904">
        <ele>2683</ele>
        <time>2018-05-12T09:06:51Z</time>
      </trkpt>
      <trkpt lat="44.22376" lon="7.03902">
        <ele>2682.93</ele>
        <time>2018-05-12T09:07:10Z</time>
      </trkpt>
      <trkpt lat="44.22374" lon="7.03901">
        <ele>2683.13</ele>
        <time>2018-05-12T09:07:35Z</time>
      </trkpt>
      <trkpt lat="44.22374" lon="7.03902">
        <ele>2683.07</ele>
        <time>2018-05-12T09:07:58Z</time>
      </trkpt>
      <trkpt lat="44.22374" lon="7.03902">
        <ele>2682.49</ele>
        <time>2018-05-12T09:08:23Z</time>
      </trkpt>
      <trkpt lat="44.22374" lon="7.039">
        <ele>2682.87</ele>
        <time>2018-05-12T09:08:50Z</time>
      </trkpt>
      <trkpt lat="44.22374" lon="7.03901">
        <ele>2683.22</ele>
        <time>2018-05-12T09:09:20Z</time>
      </trkpt>
      <trkpt lat="44.22375" lon="7.039">
        <ele>2682.98</ele>
        <time>2018-05-12T09:09:48Z</time>
      </trkpt>
      <trkpt lat="44.22374" lon="7.039">
        <ele>2682.76</ele>
        <time>2018-05-12T09:10:15Z</time>
      </trkpt>
      <trkpt lat="44.22373" lon="7.03901">
        <ele>2682.75</ele>
        <time>2018-05-12T09:10:40Z</time>
      </trkpt>
      <trkpt lat="44.22375" lon="7.03899">
        <ele>2682.77</ele>
        <time>2018-05-12T09:11:08Z</time>
      </trkpt>
      <trkpt lat="44.22374" lon="7.03901">
        <ele>2682.95</ele>
        <time>2018-05-12T09:11:28Z</time>
      </trkpt>
      <trkpt lat="44.22373" lon="7.03901">
        <ele>2681.76</ele>
        <time>2018-05-12T09:11:53Z</time>
      </trkpt>
      <trkpt lat="44.22372" lon="7.03898">
        <ele>2682.41</ele>
        <time>2018-05-12T09:12:17Z</time>
      </trkpt>
      <trkpt lat="44.22375" lon="7.03899">
        <ele>2682.77</ele>
        <time>2018-05-12T09:12:44Z</time>
      </trkpt>
      <trkpt lat="44.22374" lon="7.039">
        <ele>2681.94</ele>
        <time>2018-05-12T09:13:03Z</time>
      </trkpt>
      <trkpt lat="44.2237" lon="7.03901">
        <ele>2682.42</ele>
        <time>2018-05-12T09:13:27Z</time>
      </trkpt>
      <trkpt lat="44.22369" lon="7.039">
        <ele>2681.59</ele>
        <time>2018-05-12T09:13:55Z</time>
      </trkpt>
      <trkpt lat="44.22372" lon="7.03898">
        <ele>2681.91</ele>
        <time>2018-05-12T09:14:21Z</time>
      </trkpt>
      <trkpt lat="44.22372" lon="7.039">
        <ele>2681.72</ele>
        <time>2018-05-12T09:14:53Z</time>
      </trkpt>
      <trkpt lat="44.22373" lon="7.03898">
        <ele>2681.98</ele>
        <time>2018-05-12T09:15:22Z</time>
      </trkpt>
      <trkpt lat="44.22372" lon="7.03898">
        <ele>2681.57</ele>
        <time>2018-05-12T09:15:53Z</time>
      </trkpt>
      <trkpt lat="44.22372" lon="7.03899">
        <ele>2682.34</ele>
        <time>2018-05-12T09:16:22Z</time>
      </trkpt>
      <trkpt lat="44.22372" lon="7.03899">
        <ele>2681.05</ele>
        <time>2018-05-12T09:16:24Z</time>
      </trkpt>
      <trkpt lat="44.22374" lon="7.03901">
        <ele>2682.77</ele>
        <time>2018-05-12T09:16:49Z</time>
      </trkpt>
      <trkpt lat="44.22373" lon="7.03903">
        <ele>2682.61</ele>
        <time>2018-05-12T09:17:16Z</time>
      </trkpt>
      <trkpt lat="44.22381" lon="7.03916">
        <ele>2684.3</ele>
        <time>2018-05-12T09:17:35Z</time>
      </trkpt>
      <trkpt lat="44.22381" lon="7.03917">
        <ele>2684.01</ele>
        <time>2018-05-12T09:17:52Z</time>
      </trkpt>
      <trkpt lat="44.22383" lon="7.03926">
        <ele>2686.03</ele>
        <time>2018-05-12T09:18:11Z</time>
      </trkpt>
      <trkpt lat="44.22386" lon="7.03934">
        <ele>2688.62</ele>
        <time>2018-05-12T09:18:29Z</time>
      </trkpt>
      <trkpt lat="44.22388" lon="7.03939">
        <ele>2690.16</ele>
        <time>2018-05-12T09:18:45Z</time>
      </trkpt>
      <trkpt lat="44.22389" lon="7.03943">
        <ele>2691.31</ele>
        <time>2018-05-12T09:19:04Z</time>
      </trkpt>
      <trkpt lat="44.22393" lon="7.03952">
        <ele>2694.27</ele>
        <time>2018-05-12T09:19:31Z</time>
      </trkpt>
      <trkpt lat="44.22398" lon="7.0396">
        <ele>2697.34</ele>
        <time>2018-05-12T09:19:55Z</time>
      </trkpt>
      <trkpt lat="44.22403" lon="7.03968">
        <ele>2699.21</ele>
        <time>2018-05-12T09:20:17Z</time>
      </trkpt>
      <trkpt lat="44.22408" lon="7.03976">
        <ele>2701.36</ele>
        <time>2018-05-12T09:20:38Z</time>
      </trkpt>
      <trkpt lat="44.22411" lon="7.0398">
        <ele>2702.71</ele>
        <time>2018-05-12T09:20:56Z</time>
      </trkpt>
      <trkpt lat="44.22413" lon="7.03982">
        <ele>2704.45</ele>
        <time>2018-05-12T09:21:10Z</time>
      </trkpt>
      <trkpt lat="44.22416" lon="7.03985">
        <ele>2706.04</ele>
        <time>2018-05-12T09:21:24Z</time>
      </trkpt>
      <trkpt lat="44.22415" lon="7.03985">
        <ele>2706.61</ele>
        <time>2018-05-12T09:21:46Z</time>
      </trkpt>
      <trkpt lat="44.22417" lon="7.03988">
        <ele>2706.15</ele>
        <time>2018-05-12T09:22:14Z</time>
      </trkpt>
      <trkpt lat="44.22416" lon="7.03987">
        <ele>2706.26</ele>
        <time>2018-05-12T09:22:41Z</time>
      </trkpt>
      <trkpt lat="44.22417" lon="7.03985">
        <ele>2706.18</ele>
        <time>2018-05-12T09:23:12Z</time>
      </trkpt>
      <trkpt lat="44.22417" lon="7.03984">
        <ele>2706.17</ele>
        <time>2018-05-12T09:23:37Z</time>
      </trkpt>
      <trkpt lat="44.22418" lon="7.03985">
        <ele>2706.29</ele>
        <time>2018-05-12T09:24:05Z</time>
      </trkpt>
      <trkpt lat="44.2242" lon="7.0399">
        <ele>2708.9</ele>
        <time>2018-05-12T09:24:22Z</time>
      </trkpt>
      <trkpt lat="44.2242" lon="7.03994">
        <ele>2710.99</ele>
        <time>2018-05-12T09:24:43Z</time>
      </trkpt>
      <trkpt lat="44.22422" lon="7.03996">
        <ele>2711.66</ele>
        <time>2018-05-12T09:25:07Z</time>
      </trkpt>
      <trkpt lat="44.22423" lon="7.03996">
        <ele>2712.78</ele>
        <time>2018-05-12T09:25:31Z</time>
      </trkpt>
      <trkpt lat="44.22424" lon="7.03999">
        <ele>2714</ele>
        <time>2018-05-12T09:25:55Z</time>
      </trkpt>
      <trkpt lat="44.22425" lon="7.04001">
        <ele>2715.81</ele>
        <time>2018-05-12T09:26:15Z</time>
      </trkpt>
      <trkpt lat="44.22429" lon="7.04001">
        <ele>2717.24</ele>
        <time>2018-05-12T09:26:40Z</time>
      </trkpt>
      <trkpt lat="44.22427" lon="7.04003">
        <ele>2718.57</ele>
        <time>2018-05-12T09:27:00Z</time>
      </trkpt>
      <trkpt lat="44.22428" lon="7.04002">
        <ele>2719.36</ele>
        <time>2018-05-12T09:27:21Z</time>
      </trkpt>
      <trkpt lat="44.22428" lon="7.04004">
        <ele>2719.89</ele>
        <time>2018-05-12T09:27:38Z</time>
      </trkpt>
      <trkpt lat="44.22428" lon="7.04005">
        <ele>2721.89</ele>
        <time>2018-05-12T09:28:02Z</time>
      </trkpt>
      <trkpt lat="44.22429" lon="7.04006">
        <ele>2722.89</ele>
        <time>2018-05-12T09:28:20Z</time>
      </trkpt>
      <trkpt lat="44.22428" lon="7.04009">
        <ele>2724.13</ele>
        <time>2018-05-12T09:28:39Z</time>
      </trkpt>
      <trkpt lat="44.22428" lon="7.04014">
        <ele>2726.61</ele>
        <time>2018-05-12T09:29:02Z</time>
      </trkpt>
      <trkpt lat="44.2243" lon="7.04015">
        <ele>2726.59</ele>
        <time>2018-05-12T09:29:23Z</time>
      </trkpt>
      <trkpt lat="44.22431" lon="7.04015">
        <ele>2726.65</ele>
        <time>2018-05-12T09:29:52Z</time>
      </trkpt>
      <trkpt lat="44.22429" lon="7.04018">
        <ele>2727.21</ele>
        <time>2018-05-12T09:30:10Z</time>
      </trkpt>
      <trkpt lat="44.22428" lon="7.04019">
        <ele>2726.27</ele>
        <time>2018-05-12T09:30:35Z</time>
      </trkpt>
      <trkpt lat="44.22428" lon="7.04019">
        <ele>2725.94</ele>
        <time>2018-05-12T09:31:07Z</time>
      </trkpt>
      <trkpt lat="44.22429" lon="7.04017">
        <ele>2726.9</ele>
        <time>2018-05-12T09:31:40Z</time>
      </trkpt>
      <trkpt lat="44.2243" lon="7.04018">
        <ele>2726.09</ele>
        <time>2018-05-12T09:32:13Z</time>
      </trkpt>
      <trkpt lat="44.22431" lon="7.04017">
        <ele>2726.89</ele>
        <time>2018-05-12T09:32:45Z</time>
      </trkpt>
      <trkpt lat="44.22428" lon="7.04016">
        <ele>2726.85</ele>
        <time>2018-05-12T09:33:04Z</time>
      </trkpt>
      <trkpt lat="44.22428" lon="7.04019">
        <ele>2726.02</ele>
        <time>2018-05-12T09:33:35Z</time>
      </trkpt>
      <trkpt lat="44.22429" lon="7.04018">
        <ele>2726.16</ele>
        <time>2018-05-12T09:34:12Z</time>
      </trkpt>
      <trkpt lat="44.22428" lon="7.04018">
        <ele>2727.38</ele>
        <time>2018-05-12T09:34:41Z</time>
      </trkpt>
      <trkpt lat="44.2243" lon="7.04018">
        <ele>2727.59</ele>
        <time>2018-05-12T09:35:06Z</time>
      </trkpt>
      <trkpt lat="44.22429" lon="7.04016">
        <ele>2727.57</ele>
        <time>2018-05-12T09:35:37Z</time>
      </trkpt>
      <trkpt lat="44.2243" lon="7.04017">
        <ele>2726.61</ele>
        <time>2018-05-12T09:36:08Z</time>
      </trkpt>
      <trkpt lat="44.22429" lon="7.04017">
        <ele>2726.75</ele>
        <time>2018-05-12T09:36:53Z</time>
      </trkpt>
      <trkpt lat="44.22428" lon="7.04013">
        <ele>2727.26</ele>
        <time>2018-05-12T09:37:11Z</time>
      </trkpt>
      <trkpt lat="44.22428" lon="7.04008">
        <ele>2725.92</ele>
        <time>2018-05-12T09:37:32Z</time>
      </trkpt>
      <trkpt lat="44.22429" lon="7.04006">
        <ele>2725</ele>
        <time>2018-05-12T09:37:49Z</time>
      </trkpt>
      <trkpt lat="44.2243" lon="7.04005">
        <ele>2723.55</ele>
        <time>2018-05-12T09:38:04Z</time>
      </trkpt>
      <trkpt lat="44.2243" lon="7.04005">
        <ele>2723.04</ele>
        <time>2018-05-12T09:38:40Z</time>
      </trkpt>
      <trkpt lat="44.22431" lon="7.04003">
        <ele>2722.56</ele>
        <time>2018-05-12T09:39:01Z</time>
      </trkpt>
      <trkpt lat="44.22431" lon="7.04004">
        <ele>2722.29</ele>
        <time>2018-05-12T09:39:29Z</time>
      </trkpt>
      <trkpt lat="44.22431" lon="7.04004">
        <ele>2723.24</ele>
        <time>2018-05-12T09:39:53Z</time>
      </trkpt>
      <trkpt lat="44.22431" lon="7.04003">
        <ele>2723.44</ele>
        <time>2018-05-12T09:40:16Z</time>
      </trkpt>
      <trkpt lat="44.2243" lon="7.04002">
        <ele>2722.17</ele>
        <time>2018-05-12T09:40:40Z</time>
      </trkpt>
      <trkpt lat="44.22428" lon="7.04003">
        <ele>2721.37</ele>
        <time>2018-05-12T09:41:05Z</time>
      </trkpt>
      <trkpt lat="44.22429" lon="7.04002">
        <ele>2721.17</ele>
        <time>2018-05-12T09:41:35Z</time>
      </trkpt>
      <trkpt lat="44.22428" lon="7.03997">
        <ele>2719.92</ele>
        <time>2018-05-12T09:41:59Z</time>
      </trkpt>
      <trkpt lat="44.22426" lon="7.03995">
        <ele>2719.05</ele>
        <time>2018-05-12T09:42:25Z</time>
      </trkpt>
      <trkpt lat="44.22427" lon="7.03995">
        <ele>2718.92</ele>
        <time>2018-05-12T09:43:00Z</time>
      </trkpt>
      <trkpt lat="44.22425" lon="7.03992">
        <ele>2717.8</ele>
        <time>2018-05-12T09:43:33Z</time>
      </trkpt>
      <trkpt lat="44.22426" lon="7.03996">
        <ele>2717.06</ele>
        <time>2018-05-12T09:43:54Z</time>
      </trkpt>
      <trkpt lat="44.22422" lon="7.03994">
        <ele>2714.66</ele>
        <time>2018-05-12T09:44:18Z</time>
      </trkpt>
      <trkpt lat="44.2242" lon="7.03991">
        <ele>2712.53</ele>
        <time>2018-05-12T09:44:41Z</time>
      </trkpt>
      <trkpt lat="44.22419" lon="7.03989">
        <ele>2710.67</ele>
        <time>2018-05-12T09:45:02Z</time>
      </trkpt>
      <trkpt lat="44.22419" lon="7.03987">
        <ele>2709.49</ele>
        <time>2018-05-12T09:45:25Z</time>
      </trkpt>
      <trkpt lat="44.22418" lon="7.03986">
        <ele>2707.34</ele>
        <time>2018-05-12T09:45:50Z</time>
      </trkpt>
      <trkpt lat="44.22417" lon="7.03986">
        <ele>2707.46</ele>
        <time>2018-05-12T09:46:15Z</time>
      </trkpt>
      <trkpt lat="44.22418" lon="7.03987">
        <ele>2708.62</ele>
        <time>2018-05-12T09:46:47Z</time>
      </trkpt>
      <trkpt lat="44.22414" lon="7.03984">
        <ele>2706.74</ele>
        <time>2018-05-12T09:47:09Z</time>
      </trkpt>
      <trkpt lat="44.2241" lon="7.0398">
        <ele>2703.92</ele>
        <time>2018-05-12T09:47:30Z</time>
      </trkpt>
      <trkpt lat="44.22404" lon="7.03971">
        <ele>2700.96</ele>
        <time>2018-05-12T09:47:45Z</time>
      </trkpt>
      <trkpt lat="44.224" lon="7.03964">
        <ele>2699.33</ele>
        <time>2018-05-12T09:48:03Z</time>
      </trkpt>
      <trkpt lat="44.22396" lon="7.03959">
        <ele>2697.68</ele>
        <time>2018-05-12T09:48:22Z</time>
      </trkpt>
      <trkpt lat="44.22393" lon="7.03951">
        <ele>2695</ele>
        <time>2018-05-12T09:48:42Z</time>
      </trkpt>
      <trkpt lat="44.2239" lon="7.03943">
        <ele>2692.46</ele>
        <time>2018-05-12T09:48:58Z</time>
      </trkpt>
      <trkpt lat="44.22388" lon="7.03937">
        <ele>2690.41</ele>
        <time>2018-05-12T09:49:12Z</time>
      </trkpt>
      <trkpt lat="44.22386" lon="7.03931">
        <ele>2688.67</ele>
        <time>2018-05-12T09:49:25Z</time>
      </trkpt>
      <trkpt lat="44.22387" lon="7.03932">
        <ele>2689.49</ele>
        <time>2018-05-12T09:49:55Z</time>
      </trkpt>
      <trkpt lat="44.22383" lon="7.03923">
        <ele>2686.27</ele>
        <time>2018-05-12T09:50:20Z</time>
      </trkpt>
      <trkpt lat="44.22379" lon="7.03914">
        <ele>2684.73</ele>
        <time>2018-05-12T09:50:34Z</time>
      </trkpt>
      <trkpt lat="44.22374" lon="7.03902">
        <ele>2682.63</ele>
        <time>2018-05-12T09:50:46Z</time>
      </trkpt>
      <trkpt lat="44.22374" lon="7.03901">
        <ele>2682.8</ele>
        <time>2018-05-12T09:51:09Z</time>
      </trkpt>
      <trkpt lat="44.22375" lon="7.03901">
        <ele>2682.74</ele>
        <time>2018-05-12T09:51:31Z</time>
      </trkpt>
      <trkpt lat="44.22375" lon="7.03901">
        <ele>2682.37</ele>
        <time>2018-05-12T09:51:56Z</time>
      </trkpt>
      <trkpt lat="44.22375" lon="7.039">
        <ele>2682.23</ele>
        <time>2018-05-12T09:52:24Z</time>
      </trkpt>
      <trkpt lat="44.22374" lon="7.03901">
        <ele>2682.56</ele>
        <time>2018-05-12T09:52:54Z</time>
      </trkpt>
      <trkpt lat="44.22375" lon="7.03899">
        <ele>2682.46</ele>
        <time>2018-05-12T09:53:18Z</time>
      </trkpt>
      <trkpt lat="44.22375" lon="7.039">
        <ele>2682.52</ele>
        <time>2018-05-12T09:53:45Z</time>
      </trkpt>
      <trkpt lat="44.22376" lon="7.03901">
        <ele>2682.56</ele>
        <time>2018-05-12T09:54:09Z</time>
      </trkpt>
      <trkpt lat="44.22376" lon="7.03902">
        <ele>2682.7</ele>
        <time>2018-05-12T09:54:38Z</time>
      </trkpt>
      <trkpt lat="44.22375" lon="7.03901">
        <ele>2682.41</ele>
        <time>2018-05-12T09:55:04Z</time>
      </trkpt>
      <trkpt lat="44.22375" lon="7.03901">
        <ele>2682.27</ele>
        <time>2018-05-12T09:55:37Z</time>
      </trkpt>
      <trkpt lat="44.22375" lon="7.03902">
        <ele>2682.72</ele>
        <time>2018-05-12T09:55:57Z</time>
      </trkpt>
      <trkpt lat="44.22376" lon="7.03901">
        <ele>2682.44</ele>
        <time>2018-05-12T09:56:20Z</time>
      </trkpt>
      <trkpt lat="44.22375" lon="7.03901">
        <ele>2682.41</ele>
        <time>2018-05-12T09:56:43Z</time>
      </trkpt>
      <trkpt lat="44.22375" lon="7.039">
        <ele>2682.84</ele>
        <time>2018-05-12T09:57:08Z</time>
      </trkpt>
      <trkpt lat="44.22375" lon="7.039">
        <ele>2682.14</ele>
        <time>2018-05-12T09:57:28Z</time>
      </trkpt>
      <trkpt lat="44.22374" lon="7.039">
        <ele>2682.64</ele>
        <time>2018-05-12T09:57:48Z</time>
      </trkpt>
      <trkpt lat="44.22375" lon="7.03902">
        <ele>2683.36</ele>
        <time>2018-05-12T09:58:13Z</time>
      </trkpt>
      <trkpt lat="44.22374" lon="7.03901">
        <ele>2683.36</ele>
        <time>2018-05-12T09:58:49Z</time>
      </trkpt>
      <trkpt lat="44.22374" lon="7.039">
        <ele>2682.69</ele>
        <time>2018-05-12T09:59:37Z</time>
      </trkpt>
      <trkpt lat="44.22368" lon="7.03884">
        <ele>2680.05</ele>
        <time>2018-05-12T09:59:46Z</time>
      </trkpt>
      <trkpt lat="44.22368" lon="7.03883">
        <ele>2679.96</ele>
        <time>2018-05-12T09:59:51Z</time>
      </trkpt>
      <trkpt lat="44.22367" lon="7.03872">
        <ele>2676.8</ele>
        <time>2018-05-12T09:59:58Z</time>
      </trkpt>
      <trkpt lat="44.22366" lon="7.03869">
        <ele>2676.21</ele>
        <time>2018-05-12T10:00:09Z</time>
      </trkpt>
      <trkpt lat="44.22367" lon="7.0386">
        <ele>2672.93</ele>
        <time>2018-05-12T10:00:15Z</time>
      </trkpt>
      <trkpt lat="44.22368" lon="7.0386">
        <ele>2672.74</ele>
        <time>2018-05-12T10:00:21Z</time>
      </trkpt>
      <trkpt lat="44.22371" lon="7.03848">
        <ele>2669.73</ele>
        <time>2018-05-12T10:00:28Z</time>
      </trkpt>
      <trkpt lat="44.22371" lon="7.03848">
        <ele>2669.44</ele>
        <time>2018-05-12T10:00:46Z</time>
      </trkpt>
      <trkpt lat="44.2237" lon="7.0385">
        <ele>2669.43</ele>
        <time>2018-05-12T10:00:57Z</time>
      </trkpt>
      <trkpt lat="44.22364" lon="7.03854">
        <ele>2668.98</ele>
        <time>2018-05-12T10:01:01Z</time>
      </trkpt>
      <trkpt lat="44.22361" lon="7.03857">
        <ele>2666.88</ele>
        <time>2018-05-12T10:01:14Z</time>
      </trkpt>
      <trkpt lat="44.22353" lon="7.03858">
        <ele>2666.53</ele>
        <time>2018-05-12T10:01:27Z</time>
      </trkpt>
      <trkpt lat="44.22342" lon="7.03854">
        <ele>2661.84</ele>
        <time>2018-05-12T10:01:30Z</time>
      </trkpt>
      <trkpt lat="44.22332" lon="7.03859">
        <ele>2657.91</ele>
        <time>2018-05-12T10:01:32Z</time>
      </trkpt>
      <trkpt lat="44.22325" lon="7.03857">
        <ele>2653.95</ele>
        <time>2018-05-12T10:01:34Z</time>
      </trkpt>
      <trkpt lat="44.22318" lon="7.03855">
        <ele>2650.04</ele>
        <time>2018-05-12T10:01:36Z</time>
      </trkpt>
      <trkpt lat="44.22317" lon="7.03854">
        <ele>2646.37</ele>
        <time>2018-05-12T10:01:38Z</time>
      </trkpt>
      <trkpt lat="44.22317" lon="7.03853">
        <ele>2644.68</ele>
        <time>2018-05-12T10:01:40Z</time>
      </trkpt>
      <trkpt lat="44.22321" lon="7.03851">
        <ele>2644.91</ele>
        <time>2018-05-12T10:02:07Z</time>
      </trkpt>
      <trkpt lat="44.22321" lon="7.03851">
        <ele>2645.01</ele>
        <time>2018-05-12T10:02:50Z</time>
      </trkpt>
      <trkpt lat="44.22321" lon="7.03855">
        <ele>2644.76</ele>
        <time>2018-05-12T10:02:59Z</time>
      </trkpt>
      <trkpt lat="44.22319" lon="7.03861">
        <ele>2643.92</ele>
        <time>2018-05-12T10:03:03Z</time>
      </trkpt>
      <trkpt lat="44.22315" lon="7.03869">
        <ele>2643.29</ele>
        <time>2018-05-12T10:03:17Z</time>
      </trkpt>
      <trkpt lat="44.22315" lon="7.03869">
        <ele>2642.69</ele>
        <time>2018-05-12T10:03:35Z</time>
      </trkpt>
      <trkpt lat="44.22315" lon="7.03869">
        <ele>2642.1</ele>
        <time>2018-05-12T10:04:06Z</time>
      </trkpt>
      <trkpt lat="44.22316" lon="7.03868">
        <ele>2642.5</ele>
        <time>2018-05-12T10:04:29Z</time>
      </trkpt>
      <trkpt lat="44.22316" lon="7.03868">
        <ele>2642.16</ele>
        <time>2018-05-12T10:04:53Z</time>
      </trkpt>
      <trkpt lat="44.22317" lon="7.03868">
        <ele>2642.41</ele>
        <time>2018-05-12T10:05:23Z</time>
      </trkpt>
      <trkpt lat="44.22317" lon="7.03869">
        <ele>2642.01</ele>
        <time>2018-05-12T10:05:51Z</time>
      </trkpt>
      <trkpt lat="44.22316" lon="7.0387">
        <ele>2641.97</ele>
        <time>2018-05-12T10:06:25Z</time>
      </trkpt>
      <trkpt lat="44.22317" lon="7.03871">
        <ele>2641.67</ele>
        <time>2018-05-12T10:06:52Z</time>
      </trkpt>
      <trkpt lat="44.22316" lon="7.03868">
        <ele>2641.88</ele>
        <time>2018-05-12T10:07:24Z</time>
      </trkpt>
      <trkpt lat="44.22315" lon="7.03868">
        <ele>2642.08</ele>
        <time>2018-05-12T10:07:41Z</time>
      </trkpt>
      <trkpt lat="44.22316" lon="7.03869">
        <ele>2641.84</ele>
        <time>2018-05-12T10:08:04Z</time>
      </trkpt>
      <trkpt lat="44.22316" lon="7.03866">
        <ele>2642.32</ele>
        <time>2018-05-12T10:08:11Z</time>
      </trkpt>
      <trkpt lat="44.22316" lon="7.03852">
        <ele>2642.14</ele>
        <time>2018-05-12T10:08:23Z</time>
      </trkpt>
      <trkpt lat="44.22317" lon="7.03851">
        <ele>2642.35</ele>
        <time>2018-05-12T10:08:48Z</time>
      </trkpt>
      <trkpt lat="44.22318" lon="7.03848">
        <ele>2642.08</ele>
        <time>2018-05-12T10:09:22Z</time>
      </trkpt>
      <trkpt lat="44.22322" lon="7.03838">
        <ele>2641.38</ele>
        <time>2018-05-12T10:09:25Z</time>
      </trkpt>
      <trkpt lat="44.2233" lon="7.03813">
        <ele>2637.09</ele>
        <time>2018-05-12T10:09:29Z</time>
      </trkpt>
      <trkpt lat="44.22339" lon="7.03793">
        <ele>2633.09</ele>
        <time>2018-05-12T10:09:34Z</time>
      </trkpt>
      <trkpt lat="44.22342" lon="7.03789">
        <ele>2632.24</ele>
        <time>2018-05-12T10:09:36Z</time>
      </trkpt>
      <trkpt lat="44.22346" lon="7.03775">
        <ele>2628.46</ele>
        <time>2018-05-12T10:09:42Z</time>
      </trkpt>
      <trkpt lat="44.22346" lon="7.03776">
        <ele>2628.19</ele>
        <time>2018-05-12T10:09:43Z</time>
      </trkpt>
      <trkpt lat="44.22347" lon="7.03778">
        <ele>2627.97</ele>
        <time>2018-05-12T10:10:08Z</time>
      </trkpt>
      <trkpt lat="44.22347" lon="7.0378">
        <ele>2628.04</ele>
        <time>2018-05-12T10:10:23Z</time>
      </trkpt>
      <trkpt lat="44.22341" lon="7.03747">
        <ele>2623.21</ele>
        <time>2018-05-12T10:10:29Z</time>
      </trkpt>
      <trkpt lat="44.22342" lon="7.03712">
        <ele>2613.69</ele>
        <time>2018-05-12T10:10:32Z</time>
      </trkpt>
      <trkpt lat="44.22346" lon="7.03701">
        <ele>2610.22</ele>
        <time>2018-05-12T10:10:33Z</time>
      </trkpt>
      <trkpt lat="44.2235" lon="7.03671">
        <ele>2601.94</ele>
        <time>2018-05-12T10:10:36Z</time>
      </trkpt>
      <trkpt lat="44.22351" lon="7.03663">
        <ele>2599.34</ele>
        <time>2018-05-12T10:10:37Z</time>
      </trkpt>
      <trkpt lat="44.22351" lon="7.03658">
        <ele>2593.48</ele>
        <time>2018-05-12T10:10:40Z</time>
      </trkpt>
      <trkpt lat="44.22351" lon="7.0366">
        <ele>2592.81</ele>
        <time>2018-05-12T10:10:42Z</time>
      </trkpt>
      <trkpt lat="44.22351" lon="7.03662">
        <ele>2592.52</ele>
        <time>2018-05-12T10:10:54Z</time>
      </trkpt>
      <trkpt lat="44.2234" lon="7.03665">
        <ele>2589.23</ele>
        <time>2018-05-12T10:11:01Z</time>
      </trkpt>
      <trkpt lat="44.22339" lon="7.03666">
        <ele>2590.13</ele>
        <time>2018-05-12T10:11:35Z</time>
      </trkpt>
      <trkpt lat="44.22338" lon="7.03664">
        <ele>2590.27</ele>
        <time>2018-05-12T10:11:43Z</time>
      </trkpt>
      <trkpt lat="44.22321" lon="7.03637">
        <ele>2585.01</ele>
        <time>2018-05-12T10:11:48Z</time>
      </trkpt>
      <trkpt lat="44.22315" lon="7.0361">
        <ele>2577.48</ele>
        <time>2018-05-12T10:11:50Z</time>
      </trkpt>
      <trkpt lat="44.22317" lon="7.03595">
        <ele>2573.45</ele>
        <time>2018-05-12T10:11:51Z</time>
      </trkpt>
      <trkpt lat="44.22326" lon="7.03573">
        <ele>2568.03</ele>
        <time>2018-05-12T10:11:53Z</time>
      </trkpt>
      <trkpt lat="44.22328" lon="7.03562">
        <ele>2566.49</ele>
        <time>2018-05-12T10:11:54Z</time>
      </trkpt>
      <trkpt lat="44.22329" lon="7.03544">
        <ele>2564.28</ele>
        <time>2018-05-12T10:11:56Z</time>
      </trkpt>
      <trkpt lat="44.22336" lon="7.03507">
        <ele>2558.99</ele>
        <time>2018-05-12T10:12:00Z</time>
      </trkpt>
      <trkpt lat="44.22335" lon="7.03499">
        <ele>2557.76</ele>
        <time>2018-05-12T10:12:01Z</time>
      </trkpt>
      <trkpt lat="44.22334" lon="7.03466">
        <ele>2553.1</ele>
        <time>2018-05-12T10:12:05Z</time>
      </trkpt>
      <trkpt lat="44.22332" lon="7.0345">
        <ele>2551.58</ele>
        <time>2018-05-12T10:12:08Z</time>
      </trkpt>
      <trkpt lat="44.2233" lon="7.03445">
        <ele>2551.87</ele>
        <time>2018-05-12T10:12:14Z</time>
      </trkpt>
      <trkpt lat="44.2233" lon="7.0343">
        <ele>2552.84</ele>
        <time>2018-05-12T10:12:32Z</time>
      </trkpt>
      <trkpt lat="44.22334" lon="7.03429">
        <ele>2553.99</ele>
        <time>2018-05-12T10:12:51Z</time>
      </trkpt>
      <trkpt lat="44.22335" lon="7.03423">
        <ele>2553.72</ele>
        <time>2018-05-12T10:13:09Z</time>
      </trkpt>
      <trkpt lat="44.22335" lon="7.0342">
        <ele>2554.32</ele>
        <time>2018-05-12T10:13:27Z</time>
      </trkpt>
      <trkpt lat="44.22332" lon="7.03412">
        <ele>2554.33</ele>
        <time>2018-05-12T10:13:48Z</time>
      </trkpt>
      <trkpt lat="44.22329" lon="7.03412">
        <ele>2554.82</ele>
        <time>2018-05-12T10:14:03Z</time>
      </trkpt>
      <trkpt lat="44.22328" lon="7.03411">
        <ele>2555.04</ele>
        <time>2018-05-12T10:14:09Z</time>
      </trkpt>
      <trkpt lat="44.22326" lon="7.03402">
        <ele>2554.29</ele>
        <time>2018-05-12T10:14:22Z</time>
      </trkpt>
      <trkpt lat="44.22324" lon="7.0337">
        <ele>2551.99</ele>
        <time>2018-05-12T10:14:34Z</time>
      </trkpt>
      <trkpt lat="44.22325" lon="7.03348">
        <ele>2549.21</ele>
        <time>2018-05-12T10:14:38Z</time>
      </trkpt>
      <trkpt lat="44.22329" lon="7.0332">
        <ele>2544.95</ele>
        <time>2018-05-12T10:14:43Z</time>
      </trkpt>
      <trkpt lat="44.22328" lon="7.03299">
        <ele>2542.32</ele>
        <time>2018-05-12T10:14:54Z</time>
      </trkpt>
      <trkpt lat="44.22328" lon="7.03292">
        <ele>2542.34</ele>
        <time>2018-05-12T10:14:57Z</time>
      </trkpt>
      <trkpt lat="44.22332" lon="7.03262">
        <ele>2538.37</ele>
        <time>2018-05-12T10:15:02Z</time>
      </trkpt>
      <trkpt lat="44.22334" lon="7.03256">
        <ele>2537.05</ele>
        <time>2018-05-12T10:15:03Z</time>
      </trkpt>
      <trkpt lat="44.22336" lon="7.03243">
        <ele>2533.7</ele>
        <time>2018-05-12T10:15:12Z</time>
      </trkpt>
      <trkpt lat="44.22336" lon="7.03233">
        <ele>2533.67</ele>
        <time>2018-05-12T10:15:32Z</time>
      </trkpt>
      <trkpt lat="44.22336" lon="7.03225">
        <ele>2533.02</ele>
        <time>2018-05-12T10:15:33Z</time>
      </trkpt>
      <trkpt lat="44.22339" lon="7.03197">
        <ele>2528.65</ele>
        <time>2018-05-12T10:15:36Z</time>
      </trkpt>
      <trkpt lat="44.22339" lon="7.03173">
        <ele>2524.8</ele>
        <time>2018-05-12T10:15:39Z</time>
      </trkpt>
      <trkpt lat="44.22344" lon="7.03154">
        <ele>2520.88</ele>
        <time>2018-05-12T10:15:43Z</time>
      </trkpt>
      <trkpt lat="44.22342" lon="7.03153">
        <ele>2519.32</ele>
        <time>2018-05-12T10:15:55Z</time>
      </trkpt>
      <trkpt lat="44.22344" lon="7.03155">
        <ele>2519.2</ele>
        <time>2018-05-12T10:16:25Z</time>
      </trkpt>
      <trkpt lat="44.22344" lon="7.03155">
        <ele>2518.56</ele>
        <time>2018-05-12T10:16:39Z</time>
      </trkpt>
      <trkpt lat="44.22345" lon="7.03155">
        <ele>2518.72</ele>
        <time>2018-05-12T10:17:03Z</time>
      </trkpt>
      <trkpt lat="44.22345" lon="7.03154">
        <ele>2519.03</ele>
        <time>2018-05-12T10:17:28Z</time>
      </trkpt>
      <trkpt lat="44.22344" lon="7.03153">
        <ele>2518.87</ele>
        <time>2018-05-12T10:17:53Z</time>
      </trkpt>
      <trkpt lat="44.22344" lon="7.03154">
        <ele>2518.8</ele>
        <time>2018-05-12T10:18:14Z</time>
      </trkpt>
      <trkpt lat="44.22344" lon="7.03154">
        <ele>2518.83</ele>
        <time>2018-05-12T10:18:35Z</time>
      </trkpt>
      <trkpt lat="44.22344" lon="7.03153">
        <ele>2519.14</ele>
        <time>2018-05-12T10:18:57Z</time>
      </trkpt>
      <trkpt lat="44.22342" lon="7.03153">
        <ele>2518.78</ele>
        <time>2018-05-12T10:19:22Z</time>
      </trkpt>
      <trkpt lat="44.22344" lon="7.03154">
        <ele>2519.12</ele>
        <time>2018-05-12T10:19:44Z</time>
      </trkpt>
      <trkpt lat="44.22343" lon="7.03155">
        <ele>2519.29</ele>
        <time>2018-05-12T10:20:10Z</time>
      </trkpt>
      <trkpt lat="44.22343" lon="7.03154">
        <ele>2519.32</ele>
        <time>2018-05-12T10:20:36Z</time>
      </trkpt>
      <trkpt lat="44.22343" lon="7.03154">
        <ele>2519.23</ele>
        <time>2018-05-12T10:21:03Z</time>
      </trkpt>
      <trkpt lat="44.22343" lon="7.03155">
        <ele>2519.31</ele>
        <time>2018-05-12T10:21:25Z</time>
      </trkpt>
      <trkpt lat="44.22344" lon="7.03154">
        <ele>2519.31</ele>
        <time>2018-05-12T10:21:47Z</time>
      </trkpt>
      <trkpt lat="44.22344" lon="7.03153">
        <ele>2519.22</ele>
        <time>2018-05-12T10:22:09Z</time>
      </trkpt>
      <trkpt lat="44.22343" lon="7.03153">
        <ele>2519.47</ele>
        <time>2018-05-12T10:22:30Z</time>
      </trkpt>
      <trkpt lat="44.22343" lon="7.03154">
        <ele>2519.18</ele>
        <time>2018-05-12T10:22:48Z</time>
      </trkpt>
      <trkpt lat="44.22343" lon="7.03153">
        <ele>2519.52</ele>
        <time>2018-05-12T10:23:11Z</time>
      </trkpt>
      <trkpt lat="44.22343" lon="7.03154">
        <ele>2519.06</ele>
        <time>2018-05-12T10:23:34Z</time>
      </trkpt>
      <trkpt lat="44.22344" lon="7.03154">
        <ele>2519.9</ele>
        <time>2018-05-12T10:24:43Z</time>
      </trkpt>
      <trkpt lat="44.22344" lon="7.03154">
        <ele>2519.83</ele>
        <time>2018-05-12T10:26:21Z</time>
      </trkpt>
      <trkpt lat="44.22345" lon="7.03152">
        <ele>2519.21</ele>
        <time>2018-05-12T10:27:14Z</time>
      </trkpt>
      <trkpt lat="44.22344" lon="7.03153">
        <ele>2518.86</ele>
        <time>2018-05-12T10:27:54Z</time>
      </trkpt>
      <trkpt lat="44.22344" lon="7.03153">
        <ele>2519.17</ele>
        <time>2018-05-12T10:28:09Z</time>
      </trkpt>
      <trkpt lat="44.22344" lon="7.03152">
        <ele>2519.2</ele>
        <time>2018-05-12T10:28:30Z</time>
      </trkpt>
      <trkpt lat="44.2234" lon="7.03144">
        <ele>2519.73</ele>
        <time>2018-05-12T10:28:44Z</time>
      </trkpt>
      <trkpt lat="44.22344" lon="7.0312">
        <ele>2516.89</ele>
        <time>2018-05-12T10:28:56Z</time>
      </trkpt>
      <trkpt lat="44.22348" lon="7.03102">
        <ele>2515.77</ele>
        <time>2018-05-12T10:29:07Z</time>
      </trkpt>
      <trkpt lat="44.22353" lon="7.03082">
        <ele>2514.06</ele>
        <time>2018-05-12T10:29:18Z</time>
      </trkpt>
      <trkpt lat="44.22358" lon="7.03062">
        <ele>2512.84</ele>
        <time>2018-05-12T10:29:32Z</time>
      </trkpt>
      <trkpt lat="44.22364" lon="7.03045">
        <ele>2512.13</ele>
        <time>2018-05-12T10:29:45Z</time>
      </trkpt>
      <trkpt lat="44.22369" lon="7.03032">
        <ele>2512.27</ele>
        <time>2018-05-12T10:29:56Z</time>
      </trkpt>
      <trkpt lat="44.22374" lon="7.03017">
        <ele>2512.06</ele>
        <time>2018-05-12T10:30:09Z</time>
      </trkpt>
      <trkpt lat="44.2238" lon="7.03">
        <ele>2512.81</ele>
        <time>2018-05-12T10:30:25Z</time>
      </trkpt>
      <trkpt lat="44.22387" lon="7.02983">
        <ele>2513.71</ele>
        <time>2018-05-12T10:30:43Z</time>
      </trkpt>
      <trkpt lat="44.22395" lon="7.0297">
        <ele>2514.77</ele>
        <time>2018-05-12T10:30:58Z</time>
      </trkpt>
      <trkpt lat="44.22401" lon="7.02955">
        <ele>2515.69</ele>
        <time>2018-05-12T10:31:13Z</time>
      </trkpt>
      <trkpt lat="44.22407" lon="7.0294">
        <ele>2516.54</ele>
        <time>2018-05-12T10:31:30Z</time>
      </trkpt>
      <trkpt lat="44.22411" lon="7.02931">
        <ele>2517.19</ele>
        <time>2018-05-12T10:31:45Z</time>
      </trkpt>
      <trkpt lat="44.22412" lon="7.0293">
        <ele>2517.98</ele>
        <time>2018-05-12T10:32:05Z</time>
      </trkpt>
      <trkpt lat="44.22416" lon="7.02927">
        <ele>2518.26</ele>
        <time>2018-05-12T10:32:29Z</time>
      </trkpt>
      <trkpt lat="44.22425" lon="7.02911">
        <ele>2519.59</ele>
        <time>2018-05-12T10:32:48Z</time>
      </trkpt>
      <trkpt lat="44.2243" lon="7.02898">
        <ele>2520.78</ele>
        <time>2018-05-12T10:33:06Z</time>
      </trkpt>
      <trkpt lat="44.22433" lon="7.02887">
        <ele>2522.37</ele>
        <time>2018-05-12T10:33:25Z</time>
      </trkpt>
      <trkpt lat="44.22434" lon="7.02886">
        <ele>2522.94</ele>
        <time>2018-05-12T10:33:45Z</time>
      </trkpt>
      <trkpt lat="44.22434" lon="7.02884">
        <ele>2523.04</ele>
        <time>2018-05-12T10:34:09Z</time>
      </trkpt>
      <trkpt lat="44.22437" lon="7.02875">
        <ele>2524.93</ele>
        <time>2018-05-12T10:34:25Z</time>
      </trkpt>
      <trkpt lat="44.2244" lon="7.02864">
        <ele>2526.8</ele>
        <time>2018-05-12T10:34:43Z</time>
      </trkpt>
      <trkpt lat="44.22443" lon="7.02854">
        <ele>2529</ele>
        <time>2018-05-12T10:35:02Z</time>
      </trkpt>
      <trkpt lat="44.22446" lon="7.02844">
        <ele>2530.88</ele>
        <time>2018-05-12T10:35:19Z</time>
      </trkpt>
      <trkpt lat="44.22451" lon="7.02832">
        <ele>2532.36</ele>
        <time>2018-05-12T10:35:37Z</time>
      </trkpt>
      <trkpt lat="44.2246" lon="7.02813">
        <ele>2532.28</ele>
        <time>2018-05-12T10:35:59Z</time>
      </trkpt>
      <trkpt lat="44.22462" lon="7.02809">
        <ele>2531.9</ele>
        <time>2018-05-12T10:36:03Z</time>
      </trkpt>
      <trkpt lat="44.2247" lon="7.02799">
        <ele>2530.44</ele>
        <time>2018-05-12T10:36:18Z</time>
      </trkpt>
      <trkpt lat="44.22477" lon="7.02786">
        <ele>2529.83</ele>
        <time>2018-05-12T10:36:35Z</time>
      </trkpt>
      <trkpt lat="44.22485" lon="7.02765">
        <ele>2529.27</ele>
        <time>2018-05-12T10:36:56Z</time>
      </trkpt>
      <trkpt lat="44.22493" lon="7.02751">
        <ele>2529.8</ele>
        <time>2018-05-12T10:37:14Z</time>
      </trkpt>
      <trkpt lat="44.22495" lon="7.02751">
        <ele>2529.43</ele>
        <time>2018-05-12T10:37:40Z</time>
      </trkpt>
      <trkpt lat="44.22495" lon="7.0275">
        <ele>2529.66</ele>
        <time>2018-05-12T10:38:12Z</time>
      </trkpt>
      <trkpt lat="44.22494" lon="7.02751">
        <ele>2529.39</ele>
        <time>2018-05-12T10:38:53Z</time>
      </trkpt>
      <trkpt lat="44.22494" lon="7.02751">
        <ele>2529.16</ele>
        <time>2018-05-12T10:39:30Z</time>
      </trkpt>
      <trkpt lat="44.2249" lon="7.02753">
        <ele>2529.52</ele>
        <time>2018-05-12T10:40:35Z</time>
      </trkpt>
      <trkpt lat="44.2249" lon="7.0275">
        <ele>2529.13</ele>
        <time>2018-05-12T10:41:42Z</time>
      </trkpt>
      <trkpt lat="44.22491" lon="7.02751">
        <ele>2529.42</ele>
        <time>2018-05-12T10:43:28Z</time>
      </trkpt>
      <trkpt lat="44.22491" lon="7.0275">
        <ele>2529.2</ele>
        <time>2018-05-12T10:45:02Z</time>
      </trkpt>
      <trkpt lat="44.22491" lon="7.02753">
        <ele>2529.63</ele>
        <time>2018-05-12T10:46:24Z</time>
      </trkpt>
      <trkpt lat="44.22491" lon="7.0275">
        <ele>2529.63</ele>
        <time>2018-05-12T10:47:38Z</time>
      </trkpt>
      <trkpt lat="44.22496" lon="7.02744">
        <ele>2529.8</ele>
        <time>2018-05-12T10:48:29Z</time>
      </trkpt>
      <trkpt lat="44.22502" lon="7.02727">
        <ele>2531.58</ele>
        <time>2018-05-12T10:48:46Z</time>
      </trkpt>
      <trkpt lat="44.22505" lon="7.02712">
        <ele>2532.11</ele>
        <time>2018-05-12T10:49:01Z</time>
      </trkpt>
      <trkpt lat="44.22511" lon="7.02696">
        <ele>2531.49</ele>
        <time>2018-05-12T10:49:17Z</time>
      </trkpt>
      <trkpt lat="44.22515" lon="7.0268">
        <ele>2531.22</ele>
        <time>2018-05-12T10:49:32Z</time>
      </trkpt>
      <trkpt lat="44.22522" lon="7.02662">
        <ele>2530.7</ele>
        <time>2018-05-12T10:49:50Z</time>
      </trkpt>
      <trkpt lat="44.22527" lon="7.02647">
        <ele>2530.44</ele>
        <time>2018-05-12T10:50:05Z</time>
      </trkpt>
      <trkpt lat="44.22531" lon="7.02634">
        <ele>2531.1</ele>
        <time>2018-05-12T10:50:19Z</time>
      </trkpt>
      <trkpt lat="44.22537" lon="7.02614">
        <ele>2531.3</ele>
        <time>2018-05-12T10:50:39Z</time>
      </trkpt>
      <trkpt lat="44.22541" lon="7.02606">
        <ele>2531.31</ele>
        <time>2018-05-12T10:50:56Z</time>
      </trkpt>
      <trkpt lat="44.22545" lon="7.02595">
        <ele>2533.83</ele>
        <time>2018-05-12T10:51:12Z</time>
      </trkpt>
      <trkpt lat="44.22551" lon="7.02578">
        <ele>2535.83</ele>
        <time>2018-05-12T10:51:34Z</time>
      </trkpt>
      <trkpt lat="44.22556" lon="7.02567">
        <ele>2537.04</ele>
        <time>2018-05-12T10:51:49Z</time>
      </trkpt>
      <trkpt lat="44.22559" lon="7.02563">
        <ele>2537.89</ele>
        <time>2018-05-12T10:52:05Z</time>
      </trkpt>
      <trkpt lat="44.22564" lon="7.02551">
        <ele>2540.01</ele>
        <time>2018-05-12T10:52:24Z</time>
      </trkpt>
      <trkpt lat="44.22568" lon="7.02543">
        <ele>2541.64</ele>
        <time>2018-05-12T10:52:40Z</time>
      </trkpt>
      <trkpt lat="44.2257" lon="7.02533">
        <ele>2544.71</ele>
        <time>2018-05-12T10:53:01Z</time>
      </trkpt>
      <trkpt lat="44.22574" lon="7.02521">
        <ele>2547.11</ele>
        <time>2018-05-12T10:53:19Z</time>
      </trkpt>
      <trkpt lat="44.22578" lon="7.0251">
        <ele>2549.84</ele>
        <time>2018-05-12T10:53:40Z</time>
      </trkpt>
      <trkpt lat="44.22582" lon="7.02503">
        <ele>2551.77</ele>
        <time>2018-05-12T10:53:59Z</time>
      </trkpt>
      <trkpt lat="44.22582" lon="7.02499">
        <ele>2552.86</ele>
        <time>2018-05-12T10:54:21Z</time>
      </trkpt>
      <trkpt lat="44.22589" lon="7.02488">
        <ele>2553.88</ele>
        <time>2018-05-12T10:54:41Z</time>
      </trkpt>
      <trkpt lat="44.22599" lon="7.02483">
        <ele>2553.35</ele>
        <time>2018-05-12T10:55:03Z</time>
      </trkpt>
      <trkpt lat="44.22608" lon="7.02482">
        <ele>2552.53</ele>
        <time>2018-05-12T10:55:23Z</time>
      </trkpt>
      <trkpt lat="44.22615" lon="7.02479">
        <ele>2550.65</ele>
        <time>2018-05-12T10:55:43Z</time>
      </trkpt>
      <trkpt lat="44.2262" lon="7.02475">
        <ele>2549.73</ele>
        <time>2018-05-12T10:56:00Z</time>
      </trkpt>
      <trkpt lat="44.22628" lon="7.02472">
        <ele>2547.68</ele>
        <time>2018-05-12T10:56:12Z</time>
      </trkpt>
      <trkpt lat="44.22632" lon="7.0247">
        <ele>2547.66</ele>
        <time>2018-05-12T10:56:35Z</time>
      </trkpt>
      <trkpt lat="44.2265" lon="7.02469">
        <ele>2544.83</ele>
        <time>2018-05-12T10:56:56Z</time>
      </trkpt>
      <trkpt lat="44.22652" lon="7.02471">
        <ele>2542.05</ele>
        <time>2018-05-12T10:57:05Z</time>
      </trkpt>
      <trkpt lat="44.22654" lon="7.02469">
        <ele>2541.96</ele>
        <time>2018-05-12T10:57:29Z</time>
      </trkpt>
      <trkpt lat="44.2266" lon="7.02465">
        <ele>2542.15</ele>
        <time>2018-05-12T10:57:51Z</time>
      </trkpt>
      <trkpt lat="44.22663" lon="7.02464">
        <ele>2541.49</ele>
        <time>2018-05-12T10:58:13Z</time>
      </trkpt>
      <trkpt lat="44.22667" lon="7.02461">
        <ele>2540.98</ele>
        <time>2018-05-12T10:58:43Z</time>
      </trkpt>
      <trkpt lat="44.22675" lon="7.02457">
        <ele>2540.3</ele>
        <time>2018-05-12T10:59:05Z</time>
      </trkpt>
      <trkpt lat="44.22684" lon="7.02452">
        <ele>2539.58</ele>
        <time>2018-05-12T10:59:24Z</time>
      </trkpt>
      <trkpt lat="44.22694" lon="7.02449">
        <ele>2538.48</ele>
        <time>2018-05-12T10:59:46Z</time>
      </trkpt>
      <trkpt lat="44.22703" lon="7.02448">
        <ele>2537.04</ele>
        <time>2018-05-12T11:00:03Z</time>
      </trkpt>
      <trkpt lat="44.22719" lon="7.02447">
        <ele>2534.36</ele>
        <time>2018-05-12T11:00:24Z</time>
      </trkpt>
      <trkpt lat="44.22737" lon="7.02447">
        <ele>2531.4</ele>
        <time>2018-05-12T11:00:38Z</time>
      </trkpt>
      <trkpt lat="44.22752" lon="7.02448">
        <ele>2528.69</ele>
        <time>2018-05-12T11:00:49Z</time>
      </trkpt>
      <trkpt lat="44.22758" lon="7.0245">
        <ele>2526.92</ele>
        <time>2018-05-12T11:01:03Z</time>
      </trkpt>
      <trkpt lat="44.22769" lon="7.02454">
        <ele>2524.75</ele>
        <time>2018-05-12T11:01:28Z</time>
      </trkpt>
      <trkpt lat="44.22784" lon="7.02459">
        <ele>2521.65</ele>
        <time>2018-05-12T11:01:39Z</time>
      </trkpt>
      <trkpt lat="44.22796" lon="7.02461">
        <ele>2519.83</ele>
        <time>2018-05-12T11:01:48Z</time>
      </trkpt>
      <trkpt lat="44.22809" lon="7.02464">
        <ele>2517.88</ele>
        <time>2018-05-12T11:01:57Z</time>
      </trkpt>
      <trkpt lat="44.2282" lon="7.02468">
        <ele>2516.03</ele>
        <time>2018-05-12T11:02:06Z</time>
      </trkpt>
      <trkpt lat="44.22832" lon="7.02473">
        <ele>2513.86</ele>
        <time>2018-05-12T11:02:17Z</time>
      </trkpt>
      <trkpt lat="44.22846" lon="7.02475">
        <ele>2512.48</ele>
        <time>2018-05-12T11:02:29Z</time>
      </trkpt>
      <trkpt lat="44.22855" lon="7.02477">
        <ele>2512.02</ele>
        <time>2018-05-12T11:02:39Z</time>
      </trkpt>
      <trkpt lat="44.22868" lon="7.02483">
        <ele>2512.91</ele>
        <time>2018-05-12T11:02:58Z</time>
      </trkpt>
      <trkpt lat="44.22881" lon="7.0249">
        <ele>2513.46</ele>
        <time>2018-05-12T11:03:16Z</time>
      </trkpt>
      <trkpt lat="44.22895" lon="7.02491">
        <ele>2514.42</ele>
        <time>2018-05-12T11:03:35Z</time>
      </trkpt>
      <trkpt lat="44.22902" lon="7.02481">
        <ele>2515.11</ele>
        <time>2018-05-12T11:03:55Z</time>
      </trkpt>
      <trkpt lat="44.22909" lon="7.02462">
        <ele>2515.58</ele>
        <time>2018-05-12T11:04:19Z</time>
      </trkpt>
      <trkpt lat="44.22915" lon="7.02452">
        <ele>2515.24</ele>
        <time>2018-05-12T11:04:31Z</time>
      </trkpt>
      <trkpt lat="44.22925" lon="7.02441">
        <ele>2514.4</ele>
        <time>2018-05-12T11:04:47Z</time>
      </trkpt>
      <trkpt lat="44.22936" lon="7.02433">
        <ele>2512.86</ele>
        <time>2018-05-12T11:05:01Z</time>
      </trkpt>
      <trkpt lat="44.22956" lon="7.02427">
        <ele>2511.15</ele>
        <time>2018-05-12T11:05:24Z</time>
      </trkpt>
      <trkpt lat="44.2297" lon="7.02431">
        <ele>2512.08</ele>
        <time>2018-05-12T11:05:43Z</time>
      </trkpt>
      <trkpt lat="44.22985" lon="7.02435">
        <ele>2513.46</ele>
        <time>2018-05-12T11:06:03Z</time>
      </trkpt>
      <trkpt lat="44.22986" lon="7.02436">
        <ele>2513.46</ele>
        <time>2018-05-12T11:06:04Z</time>
      </trkpt>
      <trkpt lat="44.22995" lon="7.02441">
        <ele>2513.59</ele>
        <time>2018-05-12T11:06:15Z</time>
      </trkpt>
      <trkpt lat="44.23007" lon="7.02451">
        <ele>2513.46</ele>
        <time>2018-05-12T11:06:32Z</time>
      </trkpt>
      <trkpt lat="44.23016" lon="7.02468">
        <ele>2514.38</ele>
        <time>2018-05-12T11:06:53Z</time>
      </trkpt>
      <trkpt lat="44.23021" lon="7.0249">
        <ele>2515.41</ele>
        <time>2018-05-12T11:07:13Z</time>
      </trkpt>
      <trkpt lat="44.23027" lon="7.02509">
        <ele>2517.22</ele>
        <time>2018-05-12T11:07:36Z</time>
      </trkpt>
      <trkpt lat="44.23031" lon="7.02529">
        <ele>2518.57</ele>
        <time>2018-05-12T11:07:59Z</time>
      </trkpt>
      <trkpt lat="44.23033" lon="7.02547">
        <ele>2520.17</ele>
        <time>2018-05-12T11:08:21Z</time>
      </trkpt>
      <trkpt lat="44.23033" lon="7.02559">
        <ele>2521.84</ele>
        <time>2018-05-12T11:08:40Z</time>
      </trkpt>
      <trkpt lat="44.23033" lon="7.02572">
        <ele>2523.41</ele>
        <time>2018-05-12T11:09:00Z</time>
      </trkpt>
      <trkpt lat="44.23033" lon="7.02583">
        <ele>2525.34</ele>
        <time>2018-05-12T11:09:22Z</time>
      </trkpt>
      <trkpt lat="44.23034" lon="7.02599">
        <ele>2526.94</ele>
        <time>2018-05-12T11:09:43Z</time>
      </trkpt>
      <trkpt lat="44.23035" lon="7.02614">
        <ele>2528.17</ele>
        <time>2018-05-12T11:10:03Z</time>
      </trkpt>
      <trkpt lat="44.23034" lon="7.0263">
        <ele>2529.44</ele>
        <time>2018-05-12T11:10:22Z</time>
      </trkpt>
      <trkpt lat="44.23035" lon="7.02645">
        <ele>2531.93</ele>
        <time>2018-05-12T11:10:46Z</time>
      </trkpt>
      <trkpt lat="44.23036" lon="7.02662">
        <ele>2534.24</ele>
        <time>2018-05-12T11:11:10Z</time>
      </trkpt>
      <trkpt lat="44.2304" lon="7.02678">
        <ele>2535.65</ele>
        <time>2018-05-12T11:11:30Z</time>
      </trkpt>
      <trkpt lat="44.23046" lon="7.02695">
        <ele>2537.43</ele>
        <time>2018-05-12T11:11:51Z</time>
      </trkpt>
      <trkpt lat="44.23052" lon="7.02713">
        <ele>2539.15</ele>
        <time>2018-05-12T11:12:10Z</time>
      </trkpt>
      <trkpt lat="44.23051" lon="7.02719">
        <ele>2540.33</ele>
        <time>2018-05-12T11:12:26Z</time>
      </trkpt>
      <trkpt lat="44.23055" lon="7.02734">
        <ele>2541.83</ele>
        <time>2018-05-12T11:12:45Z</time>
      </trkpt>
      <trkpt lat="44.23063" lon="7.02747">
        <ele>2542.43</ele>
        <time>2018-05-12T11:13:04Z</time>
      </trkpt>
      <trkpt lat="44.23068" lon="7.02757">
        <ele>2542.12</ele>
        <time>2018-05-12T11:13:21Z</time>
      </trkpt>
      <trkpt lat="44.23072" lon="7.02759">
        <ele>2542.07</ele>
        <time>2018-05-12T11:13:39Z</time>
      </trkpt>
      <trkpt lat="44.2308" lon="7.02768">
        <ele>2543.01</ele>
        <time>2018-05-12T11:14:00Z</time>
      </trkpt>
      <trkpt lat="44.23089" lon="7.02781">
        <ele>2543.64</ele>
        <time>2018-05-12T11:14:21Z</time>
      </trkpt>
      <trkpt lat="44.23093" lon="7.02788">
        <ele>2543.26</ele>
        <time>2018-05-12T11:14:40Z</time>
      </trkpt>
      <trkpt lat="44.23096" lon="7.02795">
        <ele>2542.7</ele>
        <time>2018-05-12T11:14:57Z</time>
      </trkpt>
      <trkpt lat="44.23096" lon="7.02799">
        <ele>2541.56</ele>
        <time>2018-05-12T11:15:14Z</time>
      </trkpt>
      <trkpt lat="44.23097" lon="7.02802">
        <ele>2540.85</ele>
        <time>2018-05-12T11:15:36Z</time>
      </trkpt>
      <trkpt lat="44.23101" lon="7.02807">
        <ele>2540.31</ele>
        <time>2018-05-12T11:15:57Z</time>
      </trkpt>
      <trkpt lat="44.23101" lon="7.02809">
        <ele>2540.36</ele>
        <time>2018-05-12T11:16:14Z</time>
      </trkpt>
      <trkpt lat="44.23106" lon="7.02815">
        <ele>2541.53</ele>
        <time>2018-05-12T11:17:04Z</time>
      </trkpt>
      <trkpt lat="44.23113" lon="7.02827">
        <ele>2539.5</ele>
        <time>2018-05-12T11:17:14Z</time>
      </trkpt>
      <trkpt lat="44.23121" lon="7.02829">
        <ele>2539.7</ele>
        <time>2018-05-12T11:17:29Z</time>
      </trkpt>
      <trkpt lat="44.2312" lon="7.02829">
        <ele>2539.34</ele>
        <time>2018-05-12T11:17:52Z</time>
      </trkpt>
      <trkpt lat="44.23127" lon="7.02825">
        <ele>2539.64</ele>
        <time>2018-05-12T11:18:13Z</time>
      </trkpt>
      <trkpt lat="44.2313" lon="7.02827">
        <ele>2538.62</ele>
        <time>2018-05-12T11:18:29Z</time>
      </trkpt>
      <trkpt lat="44.2313" lon="7.02826">
        <ele>2538.47</ele>
        <time>2018-05-12T11:18:55Z</time>
      </trkpt>
      <trkpt lat="44.23129" lon="7.02826">
        <ele>2538.02</ele>
        <time>2018-05-12T11:19:19Z</time>
      </trkpt>
      <trkpt lat="44.23129" lon="7.02826">
        <ele>2538.03</ele>
        <time>2018-05-12T11:19:43Z</time>
      </trkpt>
      <trkpt lat="44.2313" lon="7.02825">
        <ele>2538.44</ele>
        <time>2018-05-12T11:20:03Z</time>
      </trkpt>
      <trkpt lat="44.2313" lon="7.02826">
        <ele>2538.56</ele>
        <time>2018-05-12T11:20:23Z</time>
      </trkpt>
      <trkpt lat="44.2313" lon="7.02826">
        <ele>2538.5</ele>
        <time>2018-05-12T11:20:50Z</time>
      </trkpt>
      <trkpt lat="44.2313" lon="7.02827">
        <ele>2538.41</ele>
        <time>2018-05-12T11:21:15Z</time>
      </trkpt>
      <trkpt lat="44.2313" lon="7.02827">
        <ele>2538.8</ele>
        <time>2018-05-12T11:21:40Z</time>
      </trkpt>
      <trkpt lat="44.2313" lon="7.02827">
        <ele>2538.45</ele>
        <time>2018-05-12T11:22:04Z</time>
      </trkpt>
      <trkpt lat="44.2313" lon="7.02826">
        <ele>2538.68</ele>
        <time>2018-05-12T11:22:28Z</time>
      </trkpt>
      <trkpt lat="44.23129" lon="7.02828">
        <ele>2538.75</ele>
        <time>2018-05-12T11:22:51Z</time>
      </trkpt>
      <trkpt lat="44.23128" lon="7.02827">
        <ele>2538.7</ele>
        <time>2018-05-12T11:23:10Z</time>
      </trkpt>
      <trkpt lat="44.2313" lon="7.02828">
        <ele>2538.69</ele>
        <time>2018-05-12T11:23:37Z</time>
      </trkpt>
      <trkpt lat="44.2313" lon="7.02827">
        <ele>2538.7</ele>
        <time>2018-05-12T11:23:57Z</time>
      </trkpt>
      <trkpt lat="44.2313" lon="7.02827">
        <ele>2539.06</ele>
        <time>2018-05-12T11:24:26Z</time>
      </trkpt>
      <trkpt lat="44.23129" lon="7.02827">
        <ele>2538.47</ele>
        <time>2018-05-12T11:24:52Z</time>
      </trkpt>
      <trkpt lat="44.23128" lon="7.02829">
        <ele>2538.47</ele>
        <time>2018-05-12T11:25:38Z</time>
      </trkpt>
      <trkpt lat="44.23127" lon="7.02831">
        <ele>2538.25</ele>
        <time>2018-05-12T11:26:08Z</time>
      </trkpt>
      <trkpt lat="44.23128" lon="7.02829">
        <ele>2538.51</ele>
        <time>2018-05-12T11:26:29Z</time>
      </trkpt>
      <trkpt lat="44.2313" lon="7.02828">
        <ele>2538.3</ele>
        <time>2018-05-12T11:26:45Z</time>
      </trkpt>
      <trkpt lat="44.23129" lon="7.02828">
        <ele>2539.2</ele>
        <time>2018-05-12T11:27:13Z</time>
      </trkpt>
      <trkpt lat="44.2313" lon="7.02827">
        <ele>2539.31</ele>
        <time>2018-05-12T11:27:57Z</time>
      </trkpt>
      <trkpt lat="44.23129" lon="7.02826">
        <ele>2539.62</ele>
        <time>2018-05-12T11:29:01Z</time>
      </trkpt>
      <trkpt lat="44.23129" lon="7.02827">
        <ele>2539.24</ele>
        <time>2018-05-12T11:29:47Z</time>
      </trkpt>
      <trkpt lat="44.23127" lon="7.02827">
        <ele>2539.63</ele>
        <time>2018-05-12T11:31:21Z</time>
      </trkpt>
      <trkpt lat="44.23129" lon="7.02823">
        <ele>2539.79</ele>
        <time>2018-05-12T11:32:32Z</time>
      </trkpt>
      <trkpt lat="44.23128" lon="7.02827">
        <ele>2539.55</ele>
        <time>2018-05-12T11:33:08Z</time>
      </trkpt>
      <trkpt lat="44.2313" lon="7.02826">
        <ele>2538.99</ele>
        <time>2018-05-12T11:33:40Z</time>
      </trkpt>
      <trkpt lat="44.23131" lon="7.02829">
        <ele>2538.79</ele>
        <time>2018-05-12T11:34:18Z</time>
      </trkpt>
      <trkpt lat="44.23142" lon="7.02833">
        <ele>2537.99</ele>
        <time>2018-05-12T11:34:39Z</time>
      </trkpt>
      <trkpt lat="44.23156" lon="7.02822">
        <ele>2534.01</ele>
        <time>2018-05-12T11:34:42Z</time>
      </trkpt>
      <trkpt lat="44.23164" lon="7.02825">
        <ele>2530.75</ele>
        <time>2018-05-12T11:34:43Z</time>
      </trkpt>
      <trkpt lat="44.23171" lon="7.02829">
        <ele>2527.71</ele>
        <time>2018-05-12T11:34:44Z</time>
      </trkpt>
      <trkpt lat="44.23183" lon="7.02841">
        <ele>2522.43</ele>
        <time>2018-05-12T11:34:46Z</time>
      </trkpt>
      <trkpt lat="44.23189" lon="7.02844">
        <ele>2520.68</ele>
        <time>2018-05-12T11:34:47Z</time>
      </trkpt>
      <trkpt lat="44.23206" lon="7.02853">
        <ele>2515.99</ele>
        <time>2018-05-12T11:34:50Z</time>
      </trkpt>
      <trkpt lat="44.23223" lon="7.02859">
        <ele>2512.36</ele>
        <time>2018-05-12T11:34:53Z</time>
      </trkpt>
      <trkpt lat="44.23242" lon="7.02866">
        <ele>2508.75</ele>
        <time>2018-05-12T11:34:56Z</time>
      </trkpt>
      <trkpt lat="44.23268" lon="7.02877">
        <ele>2505.15</ele>
        <time>2018-05-12T11:35:00Z</time>
      </trkpt>
      <trkpt lat="44.23291" lon="7.02883">
        <ele>2502.11</ele>
        <time>2018-05-12T11:35:04Z</time>
      </trkpt>
      <trkpt lat="44.23315" lon="7.02891">
        <ele>2499.23</ele>
        <time>2018-05-12T11:35:09Z</time>
      </trkpt>
      <trkpt lat="44.23334" lon="7.02894">
        <ele>2496.72</ele>
        <time>2018-05-12T11:35:13Z</time>
      </trkpt>
      <trkpt lat="44.23355" lon="7.02892">
        <ele>2494.39</ele>
        <time>2018-05-12T11:35:17Z</time>
      </trkpt>
      <trkpt lat="44.23383" lon="7.02875">
        <ele>2489.31</ele>
        <time>2018-05-12T11:35:22Z</time>
      </trkpt>
      <trkpt lat="44.23415" lon="7.02847">
        <ele>2483.48</ele>
        <time>2018-05-12T11:35:27Z</time>
      </trkpt>
      <trkpt lat="44.23425" lon="7.02837">
        <ele>2481.3</ele>
        <time>2018-05-12T11:35:29Z</time>
      </trkpt>
      <trkpt lat="44.23436" lon="7.0282">
        <ele>2478.36</ele>
        <time>2018-05-12T11:35:39Z</time>
      </trkpt>
      <trkpt lat="44.23433" lon="7.0282">
        <ele>2478.36</ele>
        <time>2018-05-12T11:36:10Z</time>
      </trkpt>
      <trkpt lat="44.23438" lon="7.02818">
        <ele>2477.55</ele>
        <time>2018-05-12T11:36:33Z</time>
      </trkpt>
      <trkpt lat="44.23441" lon="7.02818">
        <ele>2477.39</ele>
        <time>2018-05-12T11:36:50Z</time>
      </trkpt>
      <trkpt lat="44.23439" lon="7.02816">
        <ele>2477.42</ele>
        <time>2018-05-12T11:37:17Z</time>
      </trkpt>
      <trkpt lat="44.23441" lon="7.02816">
        <ele>2477.57</ele>
        <time>2018-05-12T11:37:30Z</time>
      </trkpt>
      <trkpt lat="44.23458" lon="7.02781">
        <ele>2474.29</ele>
        <time>2018-05-12T11:37:39Z</time>
      </trkpt>
      <trkpt lat="44.23469" lon="7.02761">
        <ele>2471.13</ele>
        <time>2018-05-12T11:37:42Z</time>
      </trkpt>
      <trkpt lat="44.23478" lon="7.02748">
        <ele>2468.15</ele>
        <time>2018-05-12T11:37:44Z</time>
      </trkpt>
      <trkpt lat="44.23499" lon="7.02737">
        <ele>2464.68</ele>
        <time>2018-05-12T11:37:48Z</time>
      </trkpt>
      <trkpt lat="44.23526" lon="7.02733">
        <ele>2461.67</ele>
        <time>2018-05-12T11:37:52Z</time>
      </trkpt>
      <trkpt lat="44.23553" lon="7.02728">
        <ele>2457.34</ele>
        <time>2018-05-12T11:37:59Z</time>
      </trkpt>
      <trkpt lat="44.2358" lon="7.02715">
        <ele>2454.07</ele>
        <time>2018-05-12T11:38:07Z</time>
      </trkpt>
      <trkpt lat="44.23588" lon="7.02709">
        <ele>2451.77</ele>
        <time>2018-05-12T11:38:17Z</time>
      </trkpt>
      <trkpt lat="44.23585" lon="7.02709">
        <ele>2451.91</ele>
        <time>2018-05-12T11:39:11Z</time>
      </trkpt>
      <trkpt lat="44.23597" lon="7.02708">
        <ele>2451.28</ele>
        <time>2018-05-12T11:39:22Z</time>
      </trkpt>
      <trkpt lat="44.23615" lon="7.0271">
        <ele>2447.53</ele>
        <time>2018-05-12T11:39:26Z</time>
      </trkpt>
      <trkpt lat="44.23626" lon="7.02715">
        <ele>2444.2</ele>
        <time>2018-05-12T11:39:28Z</time>
      </trkpt>
      <trkpt lat="44.23637" lon="7.02717">
        <ele>2440.27</ele>
        <time>2018-05-12T11:39:30Z</time>
      </trkpt>
      <trkpt lat="44.23652" lon="7.02716">
        <ele>2435.72</ele>
        <time>2018-05-12T11:39:32Z</time>
      </trkpt>
      <trkpt lat="44.23659" lon="7.02713">
        <ele>2433.16</ele>
        <time>2018-05-12T11:39:33Z</time>
      </trkpt>
      <trkpt lat="44.23683" lon="7.02701">
        <ele>2426</ele>
        <time>2018-05-12T11:39:37Z</time>
      </trkpt>
      <trkpt lat="44.23691" lon="7.02696">
        <ele>2424.1</ele>
        <time>2018-05-12T11:39:39Z</time>
      </trkpt>
      <trkpt lat="44.23712" lon="7.02681">
        <ele>2419.89</ele>
        <time>2018-05-12T11:39:45Z</time>
      </trkpt>
      <trkpt lat="44.23726" lon="7.02665">
        <ele>2416.54</ele>
        <time>2018-05-12T11:39:52Z</time>
      </trkpt>
      <trkpt lat="44.23731" lon="7.02659">
        <ele>2415.48</ele>
        <time>2018-05-12T11:39:54Z</time>
      </trkpt>
      <trkpt lat="44.23746" lon="7.02636">
        <ele>2412.12</ele>
        <time>2018-05-12T11:39:59Z</time>
      </trkpt>
      <trkpt lat="44.23765" lon="7.02613">
        <ele>2408.38</ele>
        <time>2018-05-12T11:40:06Z</time>
      </trkpt>
      <trkpt lat="44.23779" lon="7.02606">
        <ele>2406.69</ele>
        <time>2018-05-12T11:40:14Z</time>
      </trkpt>
      <trkpt lat="44.23797" lon="7.02618">
        <ele>2402.66</ele>
        <time>2018-05-12T11:40:20Z</time>
      </trkpt>
      <trkpt lat="44.23802" lon="7.02614">
        <ele>2399.56</ele>
        <time>2018-05-12T11:40:23Z</time>
      </trkpt>
      <trkpt lat="44.23802" lon="7.02615">
        <ele>2399.46</ele>
        <time>2018-05-12T11:40:42Z</time>
      </trkpt>
      <trkpt lat="44.23827" lon="7.02614">
        <ele>2395.24</ele>
        <time>2018-05-12T11:40:49Z</time>
      </trkpt>
      <trkpt lat="44.23836" lon="7.02612">
        <ele>2391.58</ele>
        <time>2018-05-12T11:40:51Z</time>
      </trkpt>
      <trkpt lat="44.23845" lon="7.02607">
        <ele>2387.22</ele>
        <time>2018-05-12T11:40:53Z</time>
      </trkpt>
      <trkpt lat="44.23849" lon="7.02597">
        <ele>2384.22</ele>
        <time>2018-05-12T11:40:55Z</time>
      </trkpt>
      <trkpt lat="44.2385" lon="7.02595">
        <ele>2383.31</ele>
        <time>2018-05-12T11:40:56Z</time>
      </trkpt>
      <trkpt lat="44.23851" lon="7.0259">
        <ele>2381.91</ele>
        <time>2018-05-12T11:40:59Z</time>
      </trkpt>
      <trkpt lat="44.23852" lon="7.02582">
        <ele>2381.63</ele>
        <time>2018-05-12T11:41:12Z</time>
      </trkpt>
      <trkpt lat="44.23851" lon="7.02575">
        <ele>2382.13</ele>
        <time>2018-05-12T11:41:27Z</time>
      </trkpt>
      <trkpt lat="44.2385" lon="7.02569">
        <ele>2382.39</ele>
        <time>2018-05-12T11:41:37Z</time>
      </trkpt>
      <trkpt lat="44.23852" lon="7.02559">
        <ele>2382.53</ele>
        <time>2018-05-12T11:41:53Z</time>
      </trkpt>
      <trkpt lat="44.23853" lon="7.0255">
        <ele>2382.67</ele>
        <time>2018-05-12T11:42:09Z</time>
      </trkpt>
      <trkpt lat="44.23851" lon="7.02537">
        <ele>2382.29</ele>
        <time>2018-05-12T11:42:25Z</time>
      </trkpt>
      <trkpt lat="44.2385" lon="7.02519">
        <ele>2380.91</ele>
        <time>2018-05-12T11:42:55Z</time>
      </trkpt>
      <trkpt lat="44.23857" lon="7.02494">
        <ele>2376.98</ele>
        <time>2018-05-12T11:42:59Z</time>
      </trkpt>
      <trkpt lat="44.23869" lon="7.02492">
        <ele>2373.34</ele>
        <time>2018-05-12T11:43:01Z</time>
      </trkpt>
      <trkpt lat="44.23876" lon="7.02491">
        <ele>2370.81</ele>
        <time>2018-05-12T11:43:02Z</time>
      </trkpt>
      <trkpt lat="44.23902" lon="7.02487">
        <ele>2360.8</ele>
        <time>2018-05-12T11:43:05Z</time>
      </trkpt>
      <trkpt lat="44.23912" lon="7.02486">
        <ele>2357.46</ele>
        <time>2018-05-12T11:43:06Z</time>
      </trkpt>
      <trkpt lat="44.23923" lon="7.02483">
        <ele>2354.3</ele>
        <time>2018-05-12T11:43:07Z</time>
      </trkpt>
      <trkpt lat="44.23943" lon="7.02483">
        <ele>2348.71</ele>
        <time>2018-05-12T11:43:09Z</time>
      </trkpt>
      <trkpt lat="44.23952" lon="7.02486">
        <ele>2346.88</ele>
        <time>2018-05-12T11:43:10Z</time>
      </trkpt>
      <trkpt lat="44.23975" lon="7.02497">
        <ele>2342.83</ele>
        <time>2018-05-12T11:43:15Z</time>
      </trkpt>
      <trkpt lat="44.23992" lon="7.02506">
        <ele>2341.36</ele>
        <time>2018-05-12T11:43:27Z</time>
      </trkpt>
      <trkpt lat="44.24007" lon="7.02511">
        <ele>2339.48</ele>
        <time>2018-05-12T11:43:42Z</time>
      </trkpt>
      <trkpt lat="44.24025" lon="7.02508">
        <ele>2337.27</ele>
        <time>2018-05-12T11:43:53Z</time>
      </trkpt>
      <trkpt lat="44.24031" lon="7.02518">
        <ele>2336.25</ele>
        <time>2018-05-12T11:43:56Z</time>
      </trkpt>
      <trkpt lat="44.24044" lon="7.02538">
        <ele>2331.58</ele>
        <time>2018-05-12T11:44:00Z</time>
      </trkpt>
      <trkpt lat="44.24055" lon="7.02553">
        <ele>2328.44</ele>
        <time>2018-05-12T11:44:03Z</time>
      </trkpt>
      <trkpt lat="44.24057" lon="7.02558">
        <ele>2327.55</ele>
        <time>2018-05-12T11:44:04Z</time>
      </trkpt>
      <trkpt lat="44.24068" lon="7.02572">
        <ele>2324.43</ele>
        <time>2018-05-12T11:44:09Z</time>
      </trkpt>
      <trkpt lat="44.24071" lon="7.02572">
        <ele>2323.57</ele>
        <time>2018-05-12T11:44:13Z</time>
      </trkpt>
      <trkpt lat="44.24077" lon="7.02572">
        <ele>2322.69</ele>
        <time>2018-05-12T11:44:22Z</time>
      </trkpt>
      <trkpt lat="44.24081" lon="7.02574">
        <ele>2322.19</ele>
        <time>2018-05-12T11:44:43Z</time>
      </trkpt>
      <trkpt lat="44.24084" lon="7.02576">
        <ele>2322.15</ele>
        <time>2018-05-12T11:45:11Z</time>
      </trkpt>
      <trkpt lat="44.24089" lon="7.02552">
        <ele>2318.59</ele>
        <time>2018-05-12T11:45:18Z</time>
      </trkpt>
      <trkpt lat="44.24089" lon="7.02545">
        <ele>2317.74</ele>
        <time>2018-05-12T11:45:20Z</time>
      </trkpt>
      <trkpt lat="44.24089" lon="7.02541">
        <ele>2315.89</ele>
        <time>2018-05-12T11:45:23Z</time>
      </trkpt>
      <trkpt lat="44.24086" lon="7.02539">
        <ele>2315.89</ele>
        <time>2018-05-12T11:45:56Z</time>
      </trkpt>
      <trkpt lat="44.24087" lon="7.02536">
        <ele>2316.06</ele>
        <time>2018-05-12T11:46:49Z</time>
      </trkpt>
      <trkpt lat="44.24088" lon="7.02525">
        <ele>2315.16</ele>
        <time>2018-05-12T11:46:52Z</time>
      </trkpt>
      <trkpt lat="44.24097" lon="7.02513">
        <ele>2310.44</ele>
        <time>2018-05-12T11:46:56Z</time>
      </trkpt>
      <trkpt lat="44.24101" lon="7.02503">
        <ele>2305.64</ele>
        <time>2018-05-12T11:46:58Z</time>
      </trkpt>
      <trkpt lat="44.24104" lon="7.02494">
        <ele>2302.42</ele>
        <time>2018-05-12T11:47:00Z</time>
      </trkpt>
      <trkpt lat="44.24109" lon="7.02493">
        <ele>2298.63</ele>
        <time>2018-05-12T11:47:03Z</time>
      </trkpt>
      <trkpt lat="44.2411" lon="7.02485">
        <ele>2294.89</ele>
        <time>2018-05-12T11:47:06Z</time>
      </trkpt>
      <trkpt lat="44.2411" lon="7.02484">
        <ele>2293.61</ele>
        <time>2018-05-12T11:47:27Z</time>
      </trkpt>
      <trkpt lat="44.24111" lon="7.02483">
        <ele>2293.98</ele>
        <time>2018-05-12T11:47:33Z</time>
      </trkpt>
      <trkpt lat="44.24115" lon="7.02477">
        <ele>2293.5</ele>
        <time>2018-05-12T11:47:35Z</time>
      </trkpt>
      <trkpt lat="44.24129" lon="7.02471">
        <ele>2289.11</ele>
        <time>2018-05-12T11:47:38Z</time>
      </trkpt>
      <trkpt lat="44.2414" lon="7.02462">
        <ele>2285.07</ele>
        <time>2018-05-12T11:47:40Z</time>
      </trkpt>
      <trkpt lat="44.24156" lon="7.02447">
        <ele>2279.99</ele>
        <time>2018-05-12T11:47:45Z</time>
      </trkpt>
      <trkpt lat="44.24172" lon="7.02436">
        <ele>2276.55</ele>
        <time>2018-05-12T11:47:49Z</time>
      </trkpt>
      <trkpt lat="44.24187" lon="7.02427">
        <ele>2272.98</ele>
        <time>2018-05-12T11:47:53Z</time>
      </trkpt>
      <trkpt lat="44.24208" lon="7.02417">
        <ele>2268.65</ele>
        <time>2018-05-12T11:47:58Z</time>
      </trkpt>
      <trkpt lat="44.24224" lon="7.0241">
        <ele>2264.57</ele>
        <time>2018-05-12T11:48:01Z</time>
      </trkpt>
      <trkpt lat="44.24235" lon="7.02405">
        <ele>2261.56</ele>
        <time>2018-05-12T11:48:03Z</time>
      </trkpt>
      <trkpt lat="44.24242" lon="7.02403">
        <ele>2258.16</ele>
        <time>2018-05-12T11:48:07Z</time>
      </trkpt>
      <trkpt lat="44.24243" lon="7.02405">
        <ele>2257.43</ele>
        <time>2018-05-12T11:48:25Z</time>
      </trkpt>
      <trkpt lat="44.24242" lon="7.02407">
        <ele>2257.2</ele>
        <time>2018-05-12T11:48:51Z</time>
      </trkpt>
      <trkpt lat="44.24243" lon="7.02405">
        <ele>2257.22</ele>
        <time>2018-05-12T11:49:15Z</time>
      </trkpt>
      <trkpt lat="44.24243" lon="7.02406">
        <ele>2257.24</ele>
        <time>2018-05-12T11:49:36Z</time>
      </trkpt>
      <trkpt lat="44.24243" lon="7.02407">
        <ele>2257.63</ele>
        <time>2018-05-12T11:50:07Z</time>
      </trkpt>
      <trkpt lat="44.2424" lon="7.02404">
        <ele>2257.69</ele>
        <time>2018-05-12T11:50:37Z</time>
      </trkpt>
      <trkpt lat="44.24241" lon="7.02403">
        <ele>2257.93</ele>
        <time>2018-05-12T11:51:01Z</time>
      </trkpt>
      <trkpt lat="44.24239" lon="7.02399">
        <ele>2258.06</ele>
        <time>2018-05-12T11:51:30Z</time>
      </trkpt>
      <trkpt lat="44.24241" lon="7.02402">
        <ele>2257.71</ele>
        <time>2018-05-12T11:51:56Z</time>
      </trkpt>
      <trkpt lat="44.24242" lon="7.02403">
        <ele>2257.42</ele>
        <time>2018-05-12T11:51:58Z</time>
      </trkpt>
      <trkpt lat="44.2424" lon="7.02401">
        <ele>2257.5</ele>
        <time>2018-05-12T11:52:27Z</time>
      </trkpt>
      <trkpt lat="44.24239" lon="7.02403">
        <ele>2257.26</ele>
        <time>2018-05-12T11:52:54Z</time>
      </trkpt>
      <trkpt lat="44.2424" lon="7.02404">
        <ele>2257.79</ele>
        <time>2018-05-12T11:53:26Z</time>
      </trkpt>
      <trkpt lat="44.24241" lon="7.02406">
        <ele>2257.65</ele>
        <time>2018-05-12T11:53:42Z</time>
      </trkpt>
      <trkpt lat="44.2424" lon="7.02405">
        <ele>2257.58</ele>
        <time>2018-05-12T11:54:06Z</time>
      </trkpt>
      <trkpt lat="44.24241" lon="7.02408">
        <ele>2257.93</ele>
        <time>2018-05-12T11:54:32Z</time>
      </trkpt>
      <trkpt lat="44.24245" lon="7.02416">
        <ele>2257.29</ele>
        <time>2018-05-12T11:54:36Z</time>
      </trkpt>
      <trkpt lat="44.24252" lon="7.02426">
        <ele>2254.13</ele>
        <time>2018-05-12T11:54:38Z</time>
      </trkpt>
      <trkpt lat="44.24267" lon="7.02426">
        <ele>2248.05</ele>
        <time>2018-05-12T11:54:41Z</time>
      </trkpt>
      <trkpt lat="44.24276" lon="7.02415">
        <ele>2244.74</ele>
        <time>2018-05-12T11:54:43Z</time>
      </trkpt>
      <trkpt lat="44.2429" lon="7.02402">
        <ele>2241</ele>
        <time>2018-05-12T11:54:46Z</time>
      </trkpt>
      <trkpt lat="44.24307" lon="7.02393">
        <ele>2236.67</ele>
        <time>2018-05-12T11:54:49Z</time>
      </trkpt>
      <trkpt lat="44.24317" lon="7.02389">
        <ele>2233.41</ele>
        <time>2018-05-12T11:54:51Z</time>
      </trkpt>
      <trkpt lat="44.24335" lon="7.02377">
        <ele>2229.02</ele>
        <time>2018-05-12T11:54:55Z</time>
      </trkpt>
      <trkpt lat="44.24352" lon="7.02367">
        <ele>2225.62</ele>
        <time>2018-05-12T11:55:00Z</time>
      </trkpt>
      <trkpt lat="44.24374" lon="7.02354">
        <ele>2221.82</ele>
        <time>2018-05-12T11:55:07Z</time>
      </trkpt>
      <trkpt lat="44.2439" lon="7.02338">
        <ele>2218.52</ele>
        <time>2018-05-12T11:55:13Z</time>
      </trkpt>
      <trkpt lat="44.24394" lon="7.02335">
        <ele>2217.04</ele>
        <time>2018-05-12T11:55:24Z</time>
      </trkpt>
      <trkpt lat="44.24403" lon="7.02333">
        <ele>2216.42</ele>
        <time>2018-05-12T11:55:48Z</time>
      </trkpt>
      <trkpt lat="44.24424" lon="7.02333">
        <ele>2210.52</ele>
        <time>2018-05-12T11:55:52Z</time>
      </trkpt>
      <trkpt lat="44.24447" lon="7.02321">
        <ele>2202.73</ele>
        <time>2018-05-12T11:55:56Z</time>
      </trkpt>
      <trkpt lat="44.24458" lon="7.02314">
        <ele>2198.75</ele>
        <time>2018-05-12T11:55:58Z</time>
      </trkpt>
      <trkpt lat="44.2447" lon="7.02314">
        <ele>2194.62</ele>
        <time>2018-05-12T11:56:00Z</time>
      </trkpt>
      <trkpt lat="44.24476" lon="7.02311">
        <ele>2192.41</ele>
        <time>2018-05-12T11:56:01Z</time>
      </trkpt>
      <trkpt lat="44.2449" lon="7.02299">
        <ele>2186.81</ele>
        <time>2018-05-12T11:56:04Z</time>
      </trkpt>
      <trkpt lat="44.24498" lon="7.02291">
        <ele>2183.49</ele>
        <time>2018-05-12T11:56:08Z</time>
      </trkpt>
      <trkpt lat="44.24499" lon="7.02292">
        <ele>2182.22</ele>
        <time>2018-05-12T11:56:11Z</time>
      </trkpt>
      <trkpt lat="44.24501" lon="7.02293">
        <ele>2182.22</ele>
        <time>2018-05-12T11:56:27Z</time>
      </trkpt>
      <trkpt lat="44.2452" lon="7.02298">
        <ele>2178.88</ele>
        <time>2018-05-12T11:56:33Z</time>
      </trkpt>
      <trkpt lat="44.24545" lon="7.02306">
        <ele>2168.35</ele>
        <time>2018-05-12T11:56:37Z</time>
      </trkpt>
      <trkpt lat="44.2455" lon="7.02303">
        <ele>2166.5</ele>
        <time>2018-05-12T11:56:38Z</time>
      </trkpt>
      <trkpt lat="44.2457" lon="7.02293">
        <ele>2161.4</ele>
        <time>2018-05-12T11:56:43Z</time>
      </trkpt>
      <trkpt lat="44.24577" lon="7.0229">
        <ele>2159.93</ele>
        <time>2018-05-12T11:56:45Z</time>
      </trkpt>
      <trkpt lat="44.24597" lon="7.02294">
        <ele>2155.42</ele>
        <time>2018-05-12T11:56:49Z</time>
      </trkpt>
      <trkpt lat="44.24604" lon="7.02295">
        <ele>2153.44</ele>
        <time>2018-05-12T11:56:50Z</time>
      </trkpt>
      <trkpt lat="44.24617" lon="7.02299">
        <ele>2148.7</ele>
        <time>2018-05-12T11:56:52Z</time>
      </trkpt>
      <trkpt lat="44.24633" lon="7.02301">
        <ele>2142.02</ele>
        <time>2018-05-12T11:56:55Z</time>
      </trkpt>
      <trkpt lat="44.24645" lon="7.02298">
        <ele>2138.02</ele>
        <time>2018-05-12T11:56:58Z</time>
      </trkpt>
      <trkpt lat="44.24648" lon="7.02295">
        <ele>2136.59</ele>
        <time>2018-05-12T11:56:59Z</time>
      </trkpt>
      <trkpt lat="44.24656" lon="7.02285">
        <ele>2133.68</ele>
        <time>2018-05-12T11:57:03Z</time>
      </trkpt>
      <trkpt lat="44.24658" lon="7.02279">
        <ele>2132</ele>
        <time>2018-05-12T11:57:16Z</time>
      </trkpt>
      <trkpt lat="44.2467" lon="7.02269">
        <ele>2131.08</ele>
        <time>2018-05-12T11:57:23Z</time>
      </trkpt>
      <trkpt lat="44.24683" lon="7.02266">
        <ele>2126.3</ele>
        <time>2018-05-12T11:57:26Z</time>
      </trkpt>
      <trkpt lat="44.24687" lon="7.0226">
        <ele>2124.15</ele>
        <time>2018-05-12T11:57:27Z</time>
      </trkpt>
      <trkpt lat="44.24693" lon="7.0225">
        <ele>2119.24</ele>
        <time>2018-05-12T11:57:31Z</time>
      </trkpt>
      <trkpt lat="44.24693" lon="7.0225">
        <ele>2117.58</ele>
        <time>2018-05-12T11:57:49Z</time>
      </trkpt>
      <trkpt lat="44.24695" lon="7.02244">
        <ele>2117.88</ele>
        <time>2018-05-12T11:58:11Z</time>
      </trkpt>
      <trkpt lat="44.24696" lon="7.02241">
        <ele>2117.81</ele>
        <time>2018-05-12T11:58:27Z</time>
      </trkpt>
      <trkpt lat="44.24696" lon="7.0224">
        <ele>2117.27</ele>
        <time>2018-05-12T11:58:43Z</time>
      </trkpt>
      <trkpt lat="44.24698" lon="7.02248">
        <ele>2116.53</ele>
        <time>2018-05-12T11:58:57Z</time>
      </trkpt>
      <trkpt lat="44.24699" lon="7.02248">
        <ele>2116.31</ele>
        <time>2018-05-12T11:59:19Z</time>
      </trkpt>
      <trkpt lat="44.24698" lon="7.02257">
        <ele>2115</ele>
        <time>2018-05-12T11:59:28Z</time>
      </trkpt>
      <trkpt lat="44.24697" lon="7.02258">
        <ele>2115.24</ele>
        <time>2018-05-12T11:59:51Z</time>
      </trkpt>
      <trkpt lat="44.24697" lon="7.02252">
        <ele>2115.9</ele>
        <time>2018-05-12T12:00:12Z</time>
      </trkpt>
      <trkpt lat="44.24696" lon="7.02252">
        <ele>2115.93</ele>
        <time>2018-05-12T12:00:30Z</time>
      </trkpt>
      <trkpt lat="44.24698" lon="7.0225">
        <ele>2115.55</ele>
        <time>2018-05-12T12:00:48Z</time>
      </trkpt>
      <trkpt lat="44.24697" lon="7.02251">
        <ele>2116.04</ele>
        <time>2018-05-12T12:01:09Z</time>
      </trkpt>
      <trkpt lat="44.24696" lon="7.02252">
        <ele>2115.64</ele>
        <time>2018-05-12T12:01:35Z</time>
      </trkpt>
      <trkpt lat="44.24696" lon="7.0225">
        <ele>2115.85</ele>
        <time>2018-05-12T12:02:00Z</time>
      </trkpt>
      <trkpt lat="44.24697" lon="7.02249">
        <ele>2115.29</ele>
        <time>2018-05-12T12:02:22Z</time>
      </trkpt>
      <trkpt lat="44.24699" lon="7.02251">
        <ele>2115.7</ele>
        <time>2018-05-12T12:02:50Z</time>
      </trkpt>
      <trkpt lat="44.24699" lon="7.0225">
        <ele>2115.59</ele>
        <time>2018-05-12T12:03:17Z</time>
      </trkpt>
      <trkpt lat="44.24698" lon="7.02251">
        <ele>2115.3</ele>
        <time>2018-05-12T12:03:36Z</time>
      </trkpt>
      <trkpt lat="44.247" lon="7.02251">
        <ele>2115.21</ele>
        <time>2018-05-12T12:04:04Z</time>
      </trkpt>
      <trkpt lat="44.24698" lon="7.0225">
        <ele>2115.16</ele>
        <time>2018-05-12T12:04:27Z</time>
      </trkpt>
      <trkpt lat="44.24699" lon="7.02251">
        <ele>2115.31</ele>
        <time>2018-05-12T12:04:47Z</time>
      </trkpt>
      <trkpt lat="44.24698" lon="7.02251">
        <ele>2114.82</ele>
        <time>2018-05-12T12:05:11Z</time>
      </trkpt>
      <trkpt lat="44.24698" lon="7.02251">
        <ele>2114.94</ele>
        <time>2018-05-12T12:05:37Z</time>
      </trkpt>
      <trkpt lat="44.24697" lon="7.02252">
        <ele>2115.61</ele>
        <time>2018-05-12T12:05:52Z</time>
      </trkpt>
      <trkpt lat="44.24699" lon="7.02251">
        <ele>2115.3</ele>
        <time>2018-05-12T12:06:10Z</time>
      </trkpt>
      <trkpt lat="44.24699" lon="7.02251">
        <ele>2115.59</ele>
        <time>2018-05-12T12:06:36Z</time>
      </trkpt>
      <trkpt lat="44.24699" lon="7.02253">
        <ele>2115.8</ele>
        <time>2018-05-12T12:06:59Z</time>
      </trkpt>
      <trkpt lat="44.24697" lon="7.02251">
        <ele>2115.72</ele>
        <time>2018-05-12T12:07:23Z</time>
      </trkpt>
      <trkpt lat="44.24693" lon="7.02259">
        <ele>2117.18</ele>
        <time>2018-05-12T12:07:43Z</time>
      </trkpt>
      <trkpt lat="44.24688" lon="7.02265">
        <ele>2118.96</ele>
        <time>2018-05-12T12:07:57Z</time>
      </trkpt>
      <trkpt lat="44.24683" lon="7.02274">
        <ele>2120.31</ele>
        <time>2018-05-12T12:08:15Z</time>
      </trkpt>
      <trkpt lat="44.24681" lon="7.02276">
        <ele>2120.38</ele>
        <time>2018-05-12T12:08:42Z</time>
      </trkpt>
      <trkpt lat="44.24678" lon="7.02274">
        <ele>2121.03</ele>
        <time>2018-05-12T12:09:11Z</time>
      </trkpt>
      <trkpt lat="44.24676" lon="7.02278">
        <ele>2120.91</ele>
        <time>2018-05-12T12:09:40Z</time>
      </trkpt>
      <trkpt lat="44.24673" lon="7.02279">
        <ele>2120.4</ele>
        <time>2018-05-12T12:10:07Z</time>
      </trkpt>
      <trkpt lat="44.24677" lon="7.02277">
        <ele>2120.42</ele>
        <time>2018-05-12T12:10:35Z</time>
      </trkpt>
      <trkpt lat="44.24677" lon="7.02276">
        <ele>2120.34</ele>
        <time>2018-05-12T12:11:05Z</time>
      </trkpt>
      <trkpt lat="44.24677" lon="7.0228">
        <ele>2120.46</ele>
        <time>2018-05-12T12:11:27Z</time>
      </trkpt>
      <trkpt lat="44.24675" lon="7.02278">
        <ele>2119.63</ele>
        <time>2018-05-12T12:11:55Z</time>
      </trkpt>
      <trkpt lat="44.24673" lon="7.02281">
        <ele>2120.89</ele>
        <time>2018-05-12T12:12:21Z</time>
      </trkpt>
      <trkpt lat="44.24676" lon="7.02278">
        <ele>2120.18</ele>
        <time>2018-05-12T12:12:49Z</time>
      </trkpt>
      <trkpt lat="44.24678" lon="7.02279">
        <ele>2119.75</ele>
        <time>2018-05-12T12:13:19Z</time>
      </trkpt>
      <trkpt lat="44.24678" lon="7.02277">
        <ele>2119.81</ele>
        <time>2018-05-12T12:13:47Z</time>
      </trkpt>
      <trkpt lat="44.24676" lon="7.02278">
        <ele>2119.96</ele>
        <time>2018-05-12T12:14:10Z</time>
      </trkpt>
      <trkpt lat="44.24674" lon="7.02278">
        <ele>2120.36</ele>
        <time>2018-05-12T12:14:33Z</time>
      </trkpt>
      <trkpt lat="44.24674" lon="7.0228">
        <ele>2120.19</ele>
        <time>2018-05-12T12:15:03Z</time>
      </trkpt>
      <trkpt lat="44.24673" lon="7.02281">
        <ele>2120.14</ele>
        <time>2018-05-12T12:15:29Z</time>
      </trkpt>
      <trkpt lat="44.24674" lon="7.02279">
        <ele>2120.41</ele>
        <time>2018-05-12T12:15:52Z</time>
      </trkpt>
      <trkpt lat="44.24673" lon="7.02282">
        <ele>2120.79</ele>
        <time>2018-05-12T12:16:21Z</time>
      </trkpt>
      <trkpt lat="44.24678" lon="7.02282">
        <ele>2120.88</ele>
        <time>2018-05-12T12:16:53Z</time>
      </trkpt>
      <trkpt lat="44.24683" lon="7.0228">
        <ele>2121.03</ele>
        <time>2018-05-12T12:17:23Z</time>
      </trkpt>
      <trkpt lat="44.24689" lon="7.02279">
        <ele>2120.13</ele>
        <time>2018-05-12T12:17:50Z</time>
      </trkpt>
      <trkpt lat="44.24674" lon="7.02279">
        <ele>2120.83</ele>
        <time>2018-05-12T12:18:23Z</time>
      </trkpt>
      <trkpt lat="44.24677" lon="7.02277">
        <ele>2120.2</ele>
        <time>2018-05-12T12:18:48Z</time>
      </trkpt>
      <trkpt lat="44.2467" lon="7.02281">
        <ele>2121.97</ele>
        <time>2018-05-12T12:19:14Z</time>
      </trkpt>
      <trkpt lat="44.24664" lon="7.02286">
        <ele>2124.01</ele>
        <time>2018-05-12T12:19:31Z</time>
      </trkpt>
      <trkpt lat="44.24658" lon="7.0229">
        <ele>2125.44</ele>
        <time>2018-05-12T12:19:55Z</time>
      </trkpt>
      <trkpt lat="44.24652" lon="7.02296">
        <ele>2127.83</ele>
        <time>2018-05-12T12:20:14Z</time>
      </trkpt>
      <trkpt lat="44.24645" lon="7.02301">
        <ele>2130.01</ele>
        <time>2018-05-12T12:20:32Z</time>
      </trkpt>
      <trkpt lat="44.24641" lon="7.02306">
        <ele>2131.52</ele>
        <time>2018-05-12T12:20:50Z</time>
      </trkpt>
      <trkpt lat="44.24636" lon="7.02312">
        <ele>2133.31</ele>
        <time>2018-05-12T12:21:08Z</time>
      </trkpt>
      <trkpt lat="44.24633" lon="7.02315">
        <ele>2134.55</ele>
        <time>2018-05-12T12:21:29Z</time>
      </trkpt>
      <trkpt lat="44.24626" lon="7.02321">
        <ele>2136.8</ele>
        <time>2018-05-12T12:21:51Z</time>
      </trkpt>
      <trkpt lat="44.24617" lon="7.0232">
        <ele>2139.28</ele>
        <time>2018-05-12T12:22:12Z</time>
      </trkpt>
      <trkpt lat="44.2461" lon="7.02319">
        <ele>2141.61</ele>
        <time>2018-05-12T12:22:37Z</time>
      </trkpt>
      <trkpt lat="44.24605" lon="7.0232">
        <ele>2142.2</ele>
        <time>2018-05-12T12:23:08Z</time>
      </trkpt>
      <trkpt lat="44.24595" lon="7.02321">
        <ele>2144.21</ele>
        <time>2018-05-12T12:23:30Z</time>
      </trkpt>
      <trkpt lat="44.24587" lon="7.02323">
        <ele>2146.98</ele>
        <time>2018-05-12T12:23:51Z</time>
      </trkpt>
      <trkpt lat="44.24584" lon="7.0232">
        <ele>2148.52</ele>
        <time>2018-05-12T12:24:14Z</time>
      </trkpt>
      <trkpt lat="44.24582" lon="7.02321">
        <ele>2149.79</ele>
        <time>2018-05-12T12:24:41Z</time>
      </trkpt>
      <trkpt lat="44.24586" lon="7.02324">
        <ele>2149.43</ele>
        <time>2018-05-12T12:25:07Z</time>
      </trkpt>
      <trkpt lat="44.24584" lon="7.02319">
        <ele>2150.3</ele>
        <time>2018-05-12T12:25:40Z</time>
      </trkpt>
      <trkpt lat="44.24574" lon="7.02313">
        <ele>2152.61</ele>
        <time>2018-05-12T12:26:00Z</time>
      </trkpt>
      <trkpt lat="44.24569" lon="7.02314">
        <ele>2153.54</ele>
        <time>2018-05-12T12:26:23Z</time>
      </trkpt>
      <trkpt lat="44.2457" lon="7.02313">
        <ele>2153.95</ele>
        <time>2018-05-12T12:26:47Z</time>
      </trkpt>
      <trkpt lat="44.2456" lon="7.02306">
        <ele>2156.91</ele>
        <time>2018-05-12T12:27:06Z</time>
      </trkpt>
      <trkpt lat="44.24556" lon="7.02307">
        <ele>2157.75</ele>
        <time>2018-05-12T12:27:28Z</time>
      </trkpt>
      <trkpt lat="44.24559" lon="7.02307">
        <ele>2157.66</ele>
        <time>2018-05-12T12:27:58Z</time>
      </trkpt>
      <trkpt lat="44.24558" lon="7.02307">
        <ele>2157.61</ele>
        <time>2018-05-12T12:28:28Z</time>
      </trkpt>
      <trkpt lat="44.24555" lon="7.02299">
        <ele>2159.86</ele>
        <time>2018-05-12T12:28:46Z</time>
      </trkpt>
      <trkpt lat="44.24557" lon="7.02292">
        <ele>2161.16</ele>
        <time>2018-05-12T12:29:07Z</time>
      </trkpt>
      <trkpt lat="44.24559" lon="7.02285">
        <ele>2162.54</ele>
        <time>2018-05-12T12:29:25Z</time>
      </trkpt>
      <trkpt lat="44.2456" lon="7.02281">
        <ele>2163.61</ele>
        <time>2018-05-12T12:29:46Z</time>
      </trkpt>
      <trkpt lat="44.24563" lon="7.02278">
        <ele>2164.52</ele>
        <time>2018-05-12T12:30:07Z</time>
      </trkpt>
      <trkpt lat="44.24562" lon="7.02278">
        <ele>2164.58</ele>
        <time>2018-05-12T12:30:23Z</time>
      </trkpt>
      <trkpt lat="44.24562" lon="7.02277">
        <ele>2165.61</ele>
        <time>2018-05-12T12:30:54Z</time>
      </trkpt>
      <trkpt lat="44.24563" lon="7.02277">
        <ele>2165.6</ele>
        <time>2018-05-12T12:30:56Z</time>
      </trkpt>
      <trkpt lat="44.24567" lon="7.02271">
        <ele>2166.18</ele>
        <time>2018-05-12T12:31:18Z</time>
      </trkpt>
      <trkpt lat="44.24569" lon="7.02268">
        <ele>2166.84</ele>
        <time>2018-05-12T12:31:36Z</time>
      </trkpt>
      <trkpt lat="44.24574" lon="7.02264">
        <ele>2167.37</ele>
        <time>2018-05-12T12:32:01Z</time>
      </trkpt>
      <trkpt lat="44.24581" lon="7.02261">
        <ele>2168.3</ele>
        <time>2018-05-12T12:32:23Z</time>
      </trkpt>
      <trkpt lat="44.24583" lon="7.0226">
        <ele>2169.02</ele>
        <time>2018-05-12T12:32:46Z</time>
      </trkpt>
      <trkpt lat="44.24587" lon="7.02256">
        <ele>2169.68</ele>
        <time>2018-05-12T12:33:08Z</time>
      </trkpt>
      <trkpt lat="44.24591" lon="7.02249">
        <ele>2171.25</ele>
        <time>2018-05-12T12:33:27Z</time>
      </trkpt>
      <trkpt lat="44.24595" lon="7.02238">
        <ele>2173.07</ele>
        <time>2018-05-12T12:33:46Z</time>
      </trkpt>
      <trkpt lat="44.24597" lon="7.0223">
        <ele>2174</ele>
        <time>2018-05-12T12:34:05Z</time>
      </trkpt>
      <trkpt lat="44.24593" lon="7.02224">
        <ele>2175.46</ele>
        <time>2018-05-12T12:34:24Z</time>
      </trkpt>
      <trkpt lat="44.24592" lon="7.02223">
        <ele>2174.92</ele>
        <time>2018-05-12T12:34:40Z</time>
      </trkpt>
      <trkpt lat="44.24589" lon="7.02225">
        <ele>2175.74</ele>
        <time>2018-05-12T12:35:10Z</time>
      </trkpt>
      <trkpt lat="44.24587" lon="7.02225">
        <ele>2175.12</ele>
        <time>2018-05-12T12:35:32Z</time>
      </trkpt>
      <trkpt lat="44.2459" lon="7.02225">
        <ele>2175.1</ele>
        <time>2018-05-12T12:35:55Z</time>
      </trkpt>
      <trkpt lat="44.24592" lon="7.02222">
        <ele>2175.15</ele>
        <time>2018-05-12T12:36:18Z</time>
      </trkpt>
      <trkpt lat="44.24591" lon="7.02223">
        <ele>2175.21</ele>
        <time>2018-05-12T12:36:45Z</time>
      </trkpt>
      <trkpt lat="44.24591" lon="7.02223">
        <ele>2174.6</ele>
        <time>2018-05-12T12:37:03Z</time>
      </trkpt>
      <trkpt lat="44.24593" lon="7.02222">
        <ele>2175.01</ele>
        <time>2018-05-12T12:37:28Z</time>
      </trkpt>
      <trkpt lat="44.24593" lon="7.02222">
        <ele>2174.79</ele>
        <time>2018-05-12T12:37:51Z</time>
      </trkpt>
      <trkpt lat="44.24592" lon="7.02223">
        <ele>2174.93</ele>
        <time>2018-05-12T12:38:17Z</time>
      </trkpt>
      <trkpt lat="44.24589" lon="7.02223">
        <ele>2174.8</ele>
        <time>2018-05-12T12:38:44Z</time>
      </trkpt>
      <trkpt lat="44.24592" lon="7.02223">
        <ele>2174.42</ele>
        <time>2018-05-12T12:39:04Z</time>
      </trkpt>
      <trkpt lat="44.24591" lon="7.02223">
        <ele>2174.91</ele>
        <time>2018-05-12T12:39:27Z</time>
      </trkpt>
      <trkpt lat="44.24593" lon="7.02221">
        <ele>2175.11</ele>
        <time>2018-05-12T12:39:52Z</time>
      </trkpt>
      <trkpt lat="44.24593" lon="7.02222">
        <ele>2175.13</ele>
        <time>2018-05-12T12:40:16Z</time>
      </trkpt>
      <trkpt lat="44.24591" lon="7.02221">
        <ele>2174.62</ele>
        <time>2018-05-12T12:40:32Z</time>
      </trkpt>
      <trkpt lat="44.24591" lon="7.02222">
        <ele>2175.05</ele>
        <time>2018-05-12T12:40:40Z</time>
      </trkpt>
      <trkpt lat="44.24591" lon="7.02222">
        <ele>2174.98</ele>
        <time>2018-05-12T12:41:08Z</time>
      </trkpt>
      <trkpt lat="44.24589" lon="7.02224">
        <ele>2175.29</ele>
        <time>2018-05-12T12:41:34Z</time>
      </trkpt>
      <trkpt lat="44.24587" lon="7.02228">
        <ele>2174.73</ele>
        <time>2018-05-12T12:42:01Z</time>
      </trkpt>
      <trkpt lat="44.24588" lon="7.02226">
        <ele>2174.18</ele>
        <time>2018-05-12T12:42:10Z</time>
      </trkpt>
      <trkpt lat="44.24589" lon="7.02225">
        <ele>2174.8</ele>
        <time>2018-05-12T12:42:34Z</time>
      </trkpt>
      <trkpt lat="44.24589" lon="7.02224">
        <ele>2174.7</ele>
        <time>2018-05-12T12:42:59Z</time>
      </trkpt>
      <trkpt lat="44.24594" lon="7.02219">
        <ele>2175.1</ele>
        <time>2018-05-12T12:43:25Z</time>
      </trkpt>
      <trkpt lat="44.24591" lon="7.02222">
        <ele>2174.99</ele>
        <time>2018-05-12T12:43:56Z</time>
      </trkpt>
      <trkpt lat="44.24593" lon="7.02219">
        <ele>2174.56</ele>
        <time>2018-05-12T12:44:25Z</time>
      </trkpt>
      <trkpt lat="44.24588" lon="7.02208">
        <ele>2175.38</ele>
        <time>2018-05-12T12:45:08Z</time>
      </trkpt>
      <trkpt lat="44.24573" lon="7.02201">
        <ele>2176.36</ele>
        <time>2018-05-12T12:45:37Z</time>
      </trkpt>
      <trkpt lat="44.24567" lon="7.02193">
        <ele>2176.79</ele>
        <time>2018-05-12T12:45:58Z</time>
      </trkpt>
      <trkpt lat="44.24561" lon="7.0219">
        <ele>2177.15</ele>
        <time>2018-05-12T12:46:21Z</time>
      </trkpt>
      <trkpt lat="44.24561" lon="7.02188">
        <ele>2177.34</ele>
        <time>2018-05-12T12:46:43Z</time>
      </trkpt>
      <trkpt lat="44.24562" lon="7.02185">
        <ele>2177.1</ele>
        <time>2018-05-12T12:47:13Z</time>
      </trkpt>
      <trkpt lat="44.24558" lon="7.02184">
        <ele>2177.59</ele>
        <time>2018-05-12T12:47:36Z</time>
      </trkpt>
      <trkpt lat="44.24553" lon="7.02184">
        <ele>2177.7</ele>
        <time>2018-05-12T12:47:55Z</time>
      </trkpt>
      <trkpt lat="44.24536" lon="7.02161">
        <ele>2174.57</ele>
        <time>2018-05-12T12:48:04Z</time>
      </trkpt>
      <trkpt lat="44.24536" lon="7.02159">
        <ele>2173.46</ele>
        <time>2018-05-12T12:48:17Z</time>
      </trkpt>
      <trkpt lat="44.24536" lon="7.0216">
        <ele>2173.65</ele>
        <time>2018-05-12T12:48:47Z</time>
      </trkpt>
      <trkpt lat="44.24536" lon="7.02159">
        <ele>2173.74</ele>
        <time>2018-05-12T12:49:15Z</time>
      </trkpt>
      <trkpt lat="44.2454" lon="7.02159">
        <ele>2173.92</ele>
        <time>2018-05-12T12:49:43Z</time>
      </trkpt>
      <trkpt lat="44.24545" lon="7.02155">
        <ele>2173.69</ele>
        <time>2018-05-12T12:50:09Z</time>
      </trkpt>
      <trkpt lat="44.24541" lon="7.02152">
        <ele>2174.06</ele>
        <time>2018-05-12T12:50:30Z</time>
      </trkpt>
      <trkpt lat="44.24533" lon="7.02128">
        <ele>2170.97</ele>
        <time>2018-05-12T12:50:35Z</time>
      </trkpt>
      <trkpt lat="44.24528" lon="7.02104">
        <ele>2167.62</ele>
        <time>2018-05-12T12:50:40Z</time>
      </trkpt>
      <trkpt lat="44.2453" lon="7.02077">
        <ele>2163.58</ele>
        <time>2018-05-12T12:50:44Z</time>
      </trkpt>
      <trkpt lat="44.24532" lon="7.02051">
        <ele>2159.25</ele>
        <time>2018-05-12T12:50:50Z</time>
      </trkpt>
      <trkpt lat="44.24541" lon="7.02011">
        <ele>2155.76</ele>
        <time>2018-05-12T12:50:59Z</time>
      </trkpt>
      <trkpt lat="44.24546" lon="7.01988">
        <ele>2152.14</ele>
        <time>2018-05-12T12:51:03Z</time>
      </trkpt>
      <trkpt lat="44.24548" lon="7.01982">
        <ele>2151.03</ele>
        <time>2018-05-12T12:51:04Z</time>
      </trkpt>
      <trkpt lat="44.24553" lon="7.01957">
        <ele>2146.31</ele>
        <time>2018-05-12T12:51:09Z</time>
      </trkpt>
      <trkpt lat="44.24563" lon="7.0194">
        <ele>2143.01</ele>
        <time>2018-05-12T12:51:15Z</time>
      </trkpt>
      <trkpt lat="44.24565" lon="7.01939">
        <ele>2142.73</ele>
        <time>2018-05-12T12:51:16Z</time>
      </trkpt>
      <trkpt lat="44.24581" lon="7.01944">
        <ele>2138.83</ele>
        <time>2018-05-12T12:51:21Z</time>
      </trkpt>
      <trkpt lat="44.24588" lon="7.01946">
        <ele>2136.92</ele>
        <time>2018-05-12T12:51:23Z</time>
      </trkpt>
      <trkpt lat="44.24604" lon="7.01939">
        <ele>2132.59</ele>
        <time>2018-05-12T12:51:28Z</time>
      </trkpt>
      <trkpt lat="44.24617" lon="7.01937">
        <ele>2129.19</ele>
        <time>2018-05-12T12:51:31Z</time>
      </trkpt>
      <trkpt lat="44.24633" lon="7.01937">
        <ele>2125.01</ele>
        <time>2018-05-12T12:51:34Z</time>
      </trkpt>
      <trkpt lat="44.24651" lon="7.01939">
        <ele>2120.64</ele>
        <time>2018-05-12T12:51:37Z</time>
      </trkpt>
      <trkpt lat="44.24664" lon="7.01938">
        <ele>2117.19</ele>
        <time>2018-05-12T12:51:40Z</time>
      </trkpt>
      <trkpt lat="44.24678" lon="7.01935">
        <ele>2113.6</ele>
        <time>2018-05-12T12:51:44Z</time>
      </trkpt>
      <trkpt lat="44.24688" lon="7.0193">
        <ele>2111.62</ele>
        <time>2018-05-12T12:51:47Z</time>
      </trkpt>
      <trkpt lat="44.24704" lon="7.01925">
        <ele>2108.47</ele>
        <time>2018-05-12T12:51:57Z</time>
      </trkpt>
      <trkpt lat="44.24712" lon="7.01923">
        <ele>2108.31</ele>
        <time>2018-05-12T12:52:10Z</time>
      </trkpt>
      <trkpt lat="44.2473" lon="7.01937">
        <ele>2104.58</ele>
        <time>2018-05-12T12:52:16Z</time>
      </trkpt>
      <trkpt lat="44.24737" lon="7.01934">
        <ele>2100.86</ele>
        <time>2018-05-12T12:52:19Z</time>
      </trkpt>
      <trkpt lat="44.24735" lon="7.01935">
        <ele>2099.55</ele>
        <time>2018-05-12T12:52:33Z</time>
      </trkpt>
      <trkpt lat="44.24736" lon="7.01934">
        <ele>2099.68</ele>
        <time>2018-05-12T12:52:38Z</time>
      </trkpt>
      <trkpt lat="44.24754" lon="7.0194">
        <ele>2096.07</ele>
        <time>2018-05-12T12:52:43Z</time>
      </trkpt>
      <trkpt lat="44.24754" lon="7.01934">
        <ele>2092.89</ele>
        <time>2018-05-12T12:52:47Z</time>
      </trkpt>
      <trkpt lat="44.24755" lon="7.01923">
        <ele>2092.63</ele>
        <time>2018-05-12T12:52:57Z</time>
      </trkpt>
      <trkpt lat="44.2476" lon="7.01915">
        <ele>2091.31</ele>
        <time>2018-05-12T12:53:17Z</time>
      </trkpt>
      <trkpt lat="44.24756" lon="7.01913">
        <ele>2091.34</ele>
        <time>2018-05-12T12:53:49Z</time>
      </trkpt>
      <trkpt lat="44.24761" lon="7.01906">
        <ele>2090.93</ele>
        <time>2018-05-12T12:54:15Z</time>
      </trkpt>
      <trkpt lat="44.2478" lon="7.01912">
        <ele>2086.77</ele>
        <time>2018-05-12T12:54:19Z</time>
      </trkpt>
      <trkpt lat="44.24796" lon="7.01922">
        <ele>2080.16</ele>
        <time>2018-05-12T12:54:22Z</time>
      </trkpt>
      <trkpt lat="44.24807" lon="7.01929">
        <ele>2074.8</ele>
        <time>2018-05-12T12:54:24Z</time>
      </trkpt>
      <trkpt lat="44.24813" lon="7.01931">
        <ele>2070.93</ele>
        <time>2018-05-12T12:54:25Z</time>
      </trkpt>
      <trkpt lat="44.2482" lon="7.01932">
        <ele>2067.75</ele>
        <time>2018-05-12T12:54:26Z</time>
      </trkpt>
      <trkpt lat="44.24832" lon="7.01941">
        <ele>2061.62</ele>
        <time>2018-05-12T12:54:28Z</time>
      </trkpt>
      <trkpt lat="44.24839" lon="7.01946">
        <ele>2058.5</ele>
        <time>2018-05-12T12:54:29Z</time>
      </trkpt>
      <trkpt lat="44.24845" lon="7.01952">
        <ele>2055.15</ele>
        <time>2018-05-12T12:54:30Z</time>
      </trkpt>
      <trkpt lat="44.24847" lon="7.0196">
        <ele>2051.43</ele>
        <time>2018-05-12T12:54:31Z</time>
      </trkpt>
      <trkpt lat="44.24847" lon="7.01976">
        <ele>2045.91</ele>
        <time>2018-05-12T12:54:33Z</time>
      </trkpt>
      <trkpt lat="44.24846" lon="7.01985">
        <ele>2042.3</ele>
        <time>2018-05-12T12:54:35Z</time>
      </trkpt>
      <trkpt lat="44.2484" lon="7.01987">
        <ele>2039.72</ele>
        <time>2018-05-12T12:54:39Z</time>
      </trkpt>
      <trkpt lat="44.2484" lon="7.01986">
        <ele>2039.48</ele>
        <time>2018-05-12T12:54:40Z</time>
      </trkpt>
      <trkpt lat="44.24838" lon="7.01987">
        <ele>2038.96</ele>
        <time>2018-05-12T12:55:08Z</time>
      </trkpt>
      <trkpt lat="44.24835" lon="7.01991">
        <ele>2038.79</ele>
        <time>2018-05-12T12:55:26Z</time>
      </trkpt>
      <trkpt lat="44.24848" lon="7.02017">
        <ele>2033.2</ele>
        <time>2018-05-12T12:55:30Z</time>
      </trkpt>
      <trkpt lat="44.24842" lon="7.02033">
        <ele>2028.94</ele>
        <time>2018-05-12T12:55:32Z</time>
      </trkpt>
      <trkpt lat="44.24838" lon="7.02049">
        <ele>2025.12</ele>
        <time>2018-05-12T12:55:34Z</time>
      </trkpt>
      <trkpt lat="44.24828" lon="7.02085">
        <ele>2017.29</ele>
        <time>2018-05-12T12:55:39Z</time>
      </trkpt>
      <trkpt lat="44.24824" lon="7.02099">
        <ele>2013.95</ele>
        <time>2018-05-12T12:55:42Z</time>
      </trkpt>
      <trkpt lat="44.24822" lon="7.02103">
        <ele>2013.21</ele>
        <time>2018-05-12T12:55:43Z</time>
      </trkpt>
      <trkpt lat="44.24827" lon="7.02128">
        <ele>2009.6</ele>
        <time>2018-05-12T12:55:48Z</time>
      </trkpt>
      <trkpt lat="44.24832" lon="7.02133">
        <ele>2008.34</ele>
        <time>2018-05-12T12:55:49Z</time>
      </trkpt>
      <trkpt lat="44.24852" lon="7.02153">
        <ele>2001.27</ele>
        <time>2018-05-12T12:55:53Z</time>
      </trkpt>
      <trkpt lat="44.24862" lon="7.02167">
        <ele>1997.7</ele>
        <time>2018-05-12T12:55:55Z</time>
      </trkpt>
      <trkpt lat="44.24873" lon="7.02185">
        <ele>1993.95</ele>
        <time>2018-05-12T12:55:58Z</time>
      </trkpt>
      <trkpt lat="44.24882" lon="7.02197">
        <ele>1990.62</ele>
        <time>2018-05-12T12:56:01Z</time>
      </trkpt>
      <trkpt lat="44.24893" lon="7.02219">
        <ele>1987.18</ele>
        <time>2018-05-12T12:56:08Z</time>
      </trkpt>
      <trkpt lat="44.24899" lon="7.02241">
        <ele>1983.88</ele>
        <time>2018-05-12T12:56:15Z</time>
      </trkpt>
      <trkpt lat="44.24901" lon="7.02262">
        <ele>1980.89</ele>
        <time>2018-05-12T12:56:26Z</time>
      </trkpt>
      <trkpt lat="44.24896" lon="7.02262">
        <ele>1981.36</ele>
        <time>2018-05-12T12:56:50Z</time>
      </trkpt>
      <trkpt lat="44.24896" lon="7.0226">
        <ele>1981.53</ele>
        <time>2018-05-12T12:57:19Z</time>
      </trkpt>
      <trkpt lat="44.24904" lon="7.02294">
        <ele>1977.63</ele>
        <time>2018-05-12T12:57:31Z</time>
      </trkpt>
      <trkpt lat="44.24906" lon="7.02298">
        <ele>1976.72</ele>
        <time>2018-05-12T12:57:32Z</time>
      </trkpt>
      <trkpt lat="44.24912" lon="7.02308">
        <ele>1975.23</ele>
        <time>2018-05-12T12:57:34Z</time>
      </trkpt>
      <trkpt lat="44.24926" lon="7.02327">
        <ele>1970.89</ele>
        <time>2018-05-12T12:57:38Z</time>
      </trkpt>
      <trkpt lat="44.2494" lon="7.02341">
        <ele>1967.54</ele>
        <time>2018-05-12T12:57:43Z</time>
      </trkpt>
      <trkpt lat="44.24955" lon="7.02351">
        <ele>1964.42</ele>
        <time>2018-05-12T12:57:48Z</time>
      </trkpt>
      <trkpt lat="44.24977" lon="7.02362">
        <ele>1960.76</ele>
        <time>2018-05-12T12:57:53Z</time>
      </trkpt>
      <trkpt lat="44.24994" lon="7.02374">
        <ele>1957.11</ele>
        <time>2018-05-12T12:57:57Z</time>
      </trkpt>
      <trkpt lat="44.25012" lon="7.02389">
        <ele>1953.92</ele>
        <time>2018-05-12T12:58:05Z</time>
      </trkpt>
      <trkpt lat="44.25026" lon="7.02404">
        <ele>1950.91</ele>
        <time>2018-05-12T12:58:10Z</time>
      </trkpt>
      <trkpt lat="44.25041" lon="7.02422">
        <ele>1947.39</ele>
        <time>2018-05-12T12:58:16Z</time>
      </trkpt>
      <trkpt lat="44.25045" lon="7.02427">
        <ele>1946.49</ele>
        <time>2018-05-12T12:58:18Z</time>
      </trkpt>
      <trkpt lat="44.25059" lon="7.02448">
        <ele>1943.36</ele>
        <time>2018-05-12T12:58:26Z</time>
      </trkpt>
      <trkpt lat="44.25059" lon="7.02449">
        <ele>1942.07</ele>
        <time>2018-05-12T12:58:37Z</time>
      </trkpt>
      <trkpt lat="44.25059" lon="7.02451">
        <ele>1942.13</ele>
        <time>2018-05-12T12:58:57Z</time>
      </trkpt>
      <trkpt lat="44.25068" lon="7.02462">
        <ele>1941.07</ele>
        <time>2018-05-12T12:59:02Z</time>
      </trkpt>
      <trkpt lat="44.25075" lon="7.02471">
        <ele>1939.44</ele>
        <time>2018-05-12T12:59:04Z</time>
      </trkpt>
      <trkpt lat="44.25086" lon="7.02473">
        <ele>1937.07</ele>
        <time>2018-05-12T12:59:06Z</time>
      </trkpt>
      <trkpt lat="44.25108" lon="7.02473">
        <ele>1929.26</ele>
        <time>2018-05-12T12:59:09Z</time>
      </trkpt>
      <trkpt lat="44.25117" lon="7.02473">
        <ele>1925.46</ele>
        <time>2018-05-12T12:59:10Z</time>
      </trkpt>
      <trkpt lat="44.25134" lon="7.02469">
        <ele>1918.46</ele>
        <time>2018-05-12T12:59:12Z</time>
      </trkpt>
      <trkpt lat="44.25142" lon="7.02465">
        <ele>1913.13</ele>
        <time>2018-05-12T12:59:13Z</time>
      </trkpt>
      <trkpt lat="44.25149" lon="7.0246">
        <ele>1909.49</ele>
        <time>2018-05-12T12:59:14Z</time>
      </trkpt>
      <trkpt lat="44.25166" lon="7.02461">
        <ele>1902.82</ele>
        <time>2018-05-12T12:59:17Z</time>
      </trkpt>
      <trkpt lat="44.2517" lon="7.02462">
        <ele>1901.66</ele>
        <time>2018-05-12T12:59:18Z</time>
      </trkpt>
      <trkpt lat="44.25175" lon="7.02464">
        <ele>1900.15</ele>
        <time>2018-05-12T12:59:21Z</time>
      </trkpt>
      <trkpt lat="44.25176" lon="7.02464">
        <ele>1899.82</ele>
        <time>2018-05-12T12:59:23Z</time>
      </trkpt>
      <trkpt lat="44.25174" lon="7.02463">
        <ele>1899.35</ele>
        <time>2018-05-12T12:59:58Z</time>
      </trkpt>
      <trkpt lat="44.25175" lon="7.02464">
        <ele>1899.29</ele>
        <time>2018-05-12T13:00:30Z</time>
      </trkpt>
      <trkpt lat="44.25176" lon="7.02463">
        <ele>1899.78</ele>
        <time>2018-05-12T13:01:00Z</time>
      </trkpt>
      <trkpt lat="44.25177" lon="7.02469">
        <ele>1898.47</ele>
        <time>2018-05-12T13:02:09Z</time>
      </trkpt>
      <trkpt lat="44.25201" lon="7.02487">
        <ele>1894.66</ele>
        <time>2018-05-12T13:02:17Z</time>
      </trkpt>
      <trkpt lat="44.25218" lon="7.025">
        <ele>1891.6</ele>
        <time>2018-05-12T13:02:24Z</time>
      </trkpt>
      <trkpt lat="44.25234" lon="7.02513">
        <ele>1888.48</ele>
        <time>2018-05-12T13:02:32Z</time>
      </trkpt>
      <trkpt lat="44.25237" lon="7.02516">
        <ele>1887.67</ele>
        <time>2018-05-12T13:02:34Z</time>
      </trkpt>
      <trkpt lat="44.25238" lon="7.0252">
        <ele>1886.28</ele>
        <time>2018-05-12T13:02:49Z</time>
      </trkpt>
      <trkpt lat="44.25238" lon="7.0252">
        <ele>1886.12</ele>
        <time>2018-05-12T13:03:11Z</time>
      </trkpt>
      <trkpt lat="44.25238" lon="7.02519">
        <ele>1886.15</ele>
        <time>2018-05-12T13:03:28Z</time>
      </trkpt>
      <trkpt lat="44.25237" lon="7.02519">
        <ele>1886.36</ele>
        <time>2018-05-12T13:03:53Z</time>
      </trkpt>
      <trkpt lat="44.25238" lon="7.02518">
        <ele>1885.58</ele>
        <time>2018-05-12T13:04:14Z</time>
      </trkpt>
      <trkpt lat="44.25241" lon="7.02518">
        <ele>1885.6</ele>
        <time>2018-05-12T13:04:40Z</time>
      </trkpt>
      <trkpt lat="44.25239" lon="7.02518">
        <ele>1885.41</ele>
        <time>2018-05-12T13:04:48Z</time>
      </trkpt>
      <trkpt lat="44.25237" lon="7.02516">
        <ele>1885.71</ele>
        <time>2018-05-12T13:05:13Z</time>
      </trkpt>
      <trkpt lat="44.25237" lon="7.02516">
        <ele>1885.87</ele>
        <time>2018-05-12T13:05:36Z</time>
      </trkpt>
      <trkpt lat="44.25237" lon="7.02519">
        <ele>1885.48</ele>
        <time>2018-05-12T13:06:04Z</time>
      </trkpt>
      <trkpt lat="44.25237" lon="7.02519">
        <ele>1885.73</ele>
        <time>2018-05-12T13:06:14Z</time>
      </trkpt>
      <trkpt lat="44.25235" lon="7.02518">
        <ele>1885.78</ele>
        <time>2018-05-12T13:06:38Z</time>
      </trkpt>
      <trkpt lat="44.25235" lon="7.0252">
        <ele>1886.45</ele>
        <time>2018-05-12T13:07:05Z</time>
      </trkpt>
      <trkpt lat="44.25235" lon="7.02518">
        <ele>1886.1</ele>
        <time>2018-05-12T13:07:27Z</time>
      </trkpt>
      <trkpt lat="44.25237" lon="7.0252">
        <ele>1885.99</ele>
        <time>2018-05-12T13:07:49Z</time>
      </trkpt>
      <trkpt lat="44.25238" lon="7.02523">
        <ele>1885.56</ele>
        <time>2018-05-12T13:08:07Z</time>
      </trkpt>
      <trkpt lat="44.25243" lon="7.02534">
        <ele>1884.57</ele>
        <time>2018-05-12T13:08:13Z</time>
      </trkpt>
      <trkpt lat="44.25254" lon="7.02549">
        <ele>1882.06</ele>
        <time>2018-05-12T13:08:25Z</time>
      </trkpt>
      <trkpt lat="44.25261" lon="7.02556">
        <ele>1879.92</ele>
        <time>2018-05-12T13:08:39Z</time>
      </trkpt>
      <trkpt lat="44.25262" lon="7.02557">
        <ele>1879.47</ele>
        <time>2018-05-12T13:08:42Z</time>
      </trkpt>
      <trkpt lat="44.25271" lon="7.02577">
        <ele>1876.93</ele>
        <time>2018-05-12T13:09:01Z</time>
      </trkpt>
      <trkpt lat="44.25277" lon="7.02596">
        <ele>1874.38</ele>
        <time>2018-05-12T13:09:19Z</time>
      </trkpt>
      <trkpt lat="44.25282" lon="7.02619">
        <ele>1871.55</ele>
        <time>2018-05-12T13:09:42Z</time>
      </trkpt>
      <trkpt lat="44.25286" lon="7.02635">
        <ele>1870.36</ele>
        <time>2018-05-12T13:09:54Z</time>
      </trkpt>
      <trkpt lat="44.25287" lon="7.0266">
        <ele>1867.62</ele>
        <time>2018-05-12T13:10:15Z</time>
      </trkpt>
      <trkpt lat="44.25295" lon="7.02683">
        <ele>1865.31</ele>
        <time>2018-05-12T13:10:37Z</time>
      </trkpt>
      <trkpt lat="44.253" lon="7.02688">
        <ele>1864.16</ele>
        <time>2018-05-12T13:10:45Z</time>
      </trkpt>
      <trkpt lat="44.25311" lon="7.02711">
        <ele>1861.4</ele>
        <time>2018-05-12T13:11:05Z</time>
      </trkpt>
      <trkpt lat="44.2532" lon="7.02734">
        <ele>1858.34</ele>
        <time>2018-05-12T13:11:24Z</time>
      </trkpt>
      <trkpt lat="44.25322" lon="7.0274">
        <ele>1857.39</ele>
        <time>2018-05-12T13:11:29Z</time>
      </trkpt>
      <trkpt lat="44.25323" lon="7.02746">
        <ele>1856.55</ele>
        <time>2018-05-12T13:11:34Z</time>
      </trkpt>
      <trkpt lat="44.25325" lon="7.02751">
        <ele>1856.29</ele>
        <time>2018-05-12T13:11:37Z</time>
      </trkpt>
      <trkpt lat="44.25333" lon="7.02772">
        <ele>1853.04</ele>
        <time>2018-05-12T13:11:54Z</time>
      </trkpt>
      <trkpt lat="44.25347" lon="7.02787">
        <ele>1850.03</ele>
        <time>2018-05-12T13:12:10Z</time>
      </trkpt>
      <trkpt lat="44.25361" lon="7.02804">
        <ele>1846.81</ele>
        <time>2018-05-12T13:12:30Z</time>
      </trkpt>
      <trkpt lat="44.25352" lon="7.0281">
        <ele>1845.67</ele>
        <time>2018-05-12T13:12:41Z</time>
      </trkpt>
      <trkpt lat="44.25347" lon="7.02818">
        <ele>1844.63</ele>
        <time>2018-05-12T13:12:49Z</time>
      </trkpt>
      <trkpt lat="44.25356" lon="7.02838">
        <ele>1841.42</ele>
        <time>2018-05-12T13:13:08Z</time>
      </trkpt>
      <trkpt lat="44.25367" lon="7.02851">
        <ele>1839.17</ele>
        <time>2018-05-12T13:13:25Z</time>
      </trkpt>
      <trkpt lat="44.25368" lon="7.02869">
        <ele>1837.24</ele>
        <time>2018-05-12T13:13:47Z</time>
      </trkpt>
      <trkpt lat="44.25356" lon="7.02882">
        <ele>1834.26</ele>
        <time>2018-05-12T13:14:08Z</time>
      </trkpt>
      <trkpt lat="44.25361" lon="7.02889">
        <ele>1833.07</ele>
        <time>2018-05-12T13:14:15Z</time>
      </trkpt>
      <trkpt lat="44.25369" lon="7.02893">
        <ele>1831.25</ele>
        <time>2018-05-12T13:14:25Z</time>
      </trkpt>
      <trkpt lat="44.25371" lon="7.02898">
        <ele>1830.5</ele>
        <time>2018-05-12T13:14:30Z</time>
      </trkpt>
      <trkpt lat="44.25383" lon="7.02915">
        <ele>1827.66</ele>
        <time>2018-05-12T13:14:49Z</time>
      </trkpt>
      <trkpt lat="44.254" lon="7.02908">
        <ele>1824.59</ele>
        <time>2018-05-12T13:15:09Z</time>
      </trkpt>
      <trkpt lat="44.25408" lon="7.02907">
        <ele>1823.91</ele>
        <time>2018-05-12T13:15:17Z</time>
      </trkpt>
      <trkpt lat="44.25432" lon="7.02923">
        <ele>1821.44</ele>
        <time>2018-05-12T13:15:38Z</time>
      </trkpt>
      <trkpt lat="44.25445" lon="7.02939">
        <ele>1818.29</ele>
        <time>2018-05-12T13:15:55Z</time>
      </trkpt>
      <trkpt lat="44.25454" lon="7.02963">
        <ele>1815.16</ele>
        <time>2018-05-12T13:16:12Z</time>
      </trkpt>
      <trkpt lat="44.25468" lon="7.02975">
        <ele>1812.09</ele>
        <time>2018-05-12T13:16:32Z</time>
      </trkpt>
      <trkpt lat="44.2547" lon="7.02977">
        <ele>1811.71</ele>
        <time>2018-05-12T13:16:34Z</time>
      </trkpt>
      <trkpt lat="44.25485" lon="7.02991">
        <ele>1809</ele>
        <time>2018-05-12T13:16:49Z</time>
      </trkpt>
      <trkpt lat="44.25494" lon="7.02999">
        <ele>1806.64</ele>
        <time>2018-05-12T13:17:01Z</time>
      </trkpt>
      <trkpt lat="44.25506" lon="7.03007">
        <ele>1804.01</ele>
        <time>2018-05-12T13:17:15Z</time>
      </trkpt>
      <trkpt lat="44.2552" lon="7.03028">
        <ele>1800.89</ele>
        <time>2018-05-12T13:17:37Z</time>
      </trkpt>
      <trkpt lat="44.25534" lon="7.03045">
        <ele>1797.88</ele>
        <time>2018-05-12T13:17:54Z</time>
      </trkpt>
      <trkpt lat="44.2554" lon="7.03051">
        <ele>1796.82</ele>
        <time>2018-05-12T13:18:02Z</time>
      </trkpt>
      <trkpt lat="44.25557" lon="7.03067">
        <ele>1794.74</ele>
        <time>2018-05-12T13:18:18Z</time>
      </trkpt>
      <trkpt lat="44.25559" lon="7.0307">
        <ele>1794.51</ele>
        <time>2018-05-12T13:18:20Z</time>
      </trkpt>
      <trkpt lat="44.25561" lon="7.03077">
        <ele>1793.73</ele>
        <time>2018-05-12T13:18:33Z</time>
      </trkpt>
      <trkpt lat="44.2556" lon="7.03087">
        <ele>1791.83</ele>
        <time>2018-05-12T13:18:49Z</time>
      </trkpt>
      <trkpt lat="44.25559" lon="7.03087">
        <ele>1791.81</ele>
        <time>2018-05-12T13:19:11Z</time>
      </trkpt>
      <trkpt lat="44.25562" lon="7.03087">
        <ele>1790.86</ele>
        <time>2018-05-12T13:19:36Z</time>
      </trkpt>
      <trkpt lat="44.2556" lon="7.03085">
        <ele>1791.71</ele>
        <time>2018-05-12T13:19:48Z</time>
      </trkpt>
      <trkpt lat="44.25559" lon="7.03084">
        <ele>1790.91</ele>
        <time>2018-05-12T13:20:12Z</time>
      </trkpt>
      <trkpt lat="44.25563" lon="7.03086">
        <ele>1791.64</ele>
        <time>2018-05-12T13:20:45Z</time>
      </trkpt>
      <trkpt lat="44.2556" lon="7.03084">
        <ele>1791.24</ele>
        <time>2018-05-12T13:21:06Z</time>
      </trkpt>
      <trkpt lat="44.25555" lon="7.03086">
        <ele>1791.56</ele>
        <time>2018-05-12T13:21:29Z</time>
      </trkpt>
      <trkpt lat="44.25558" lon="7.03085">
        <ele>1791.74</ele>
        <time>2018-05-12T13:21:51Z</time>
      </trkpt>
      <trkpt lat="44.25554" lon="7.03084">
        <ele>1791.59</ele>
        <time>2018-05-12T13:22:15Z</time>
      </trkpt>
      <trkpt lat="44.2555" lon="7.03079">
        <ele>1791.39</ele>
        <time>2018-05-12T13:22:20Z</time>
      </trkpt>
      <trkpt lat="44.25542" lon="7.03073">
        <ele>1791.01</ele>
        <time>2018-05-12T13:22:27Z</time>
      </trkpt>
      <trkpt lat="44.2552" lon="7.03063">
        <ele>1790.18</ele>
        <time>2018-05-12T13:22:47Z</time>
      </trkpt>
      <trkpt lat="44.255" lon="7.03063">
        <ele>1788.62</ele>
        <time>2018-05-12T13:23:03Z</time>
      </trkpt>
      <trkpt lat="44.25499" lon="7.03064">
        <ele>1788.46</ele>
        <time>2018-05-12T13:23:04Z</time>
      </trkpt>
      <trkpt lat="44.25512" lon="7.03077">
        <ele>1785.4</ele>
        <time>2018-05-12T13:23:15Z</time>
      </trkpt>
      <trkpt lat="44.25528" lon="7.03088">
        <ele>1782.52</ele>
        <time>2018-05-12T13:23:28Z</time>
      </trkpt>
      <trkpt lat="44.25535" lon="7.031">
        <ele>1781.14</ele>
        <time>2018-05-12T13:23:36Z</time>
      </trkpt>
      <trkpt lat="44.25546" lon="7.03121">
        <ele>1778.85</ele>
        <time>2018-05-12T13:23:49Z</time>
      </trkpt>
      <trkpt lat="44.25549" lon="7.0313">
        <ele>1778.1</ele>
        <time>2018-05-12T13:23:54Z</time>
      </trkpt>
      <trkpt lat="44.25552" lon="7.03151">
        <ele>1776.34</ele>
        <time>2018-05-12T13:24:05Z</time>
      </trkpt>
      <trkpt lat="44.25551" lon="7.03157">
        <ele>1775.92</ele>
        <time>2018-05-12T13:24:08Z</time>
      </trkpt>
      <trkpt lat="44.25553" lon="7.03164">
        <ele>1774.81</ele>
        <time>2018-05-12T13:24:12Z</time>
      </trkpt>
      <trkpt lat="44.25555" lon="7.03171">
        <ele>1774.19</ele>
        <time>2018-05-12T13:24:16Z</time>
      </trkpt>
      <trkpt lat="44.25561" lon="7.03181">
        <ele>1772.67</ele>
        <time>2018-05-12T13:24:23Z</time>
      </trkpt>
      <trkpt lat="44.2557" lon="7.03199">
        <ele>1770.25</ele>
        <time>2018-05-12T13:24:36Z</time>
      </trkpt>
      <trkpt lat="44.2557" lon="7.03201">
        <ele>1770.16</ele>
        <time>2018-05-12T13:24:37Z</time>
      </trkpt>
      <trkpt lat="44.25571" lon="7.03208">
        <ele>1769.41</ele>
        <time>2018-05-12T13:24:41Z</time>
      </trkpt>
      <trkpt lat="44.25577" lon="7.03229">
        <ele>1767.01</ele>
        <time>2018-05-12T13:24:56Z</time>
      </trkpt>
      <trkpt lat="44.25583" lon="7.03244">
        <ele>1765.33</ele>
        <time>2018-05-12T13:25:06Z</time>
      </trkpt>
      <trkpt lat="44.25588" lon="7.03262">
        <ele>1763.33</ele>
        <time>2018-05-12T13:25:19Z</time>
      </trkpt>
      <trkpt lat="44.25595" lon="7.0328">
        <ele>1761.7</ele>
        <time>2018-05-12T13:25:32Z</time>
      </trkpt>
      <trkpt lat="44.25595" lon="7.03288">
        <ele>1760.38</ele>
        <time>2018-05-12T13:25:37Z</time>
      </trkpt>
      <trkpt lat="44.25597" lon="7.03301">
        <ele>1759.06</ele>
        <time>2018-05-12T13:25:49Z</time>
      </trkpt>
      <trkpt lat="44.25608" lon="7.03333">
        <ele>1755.64</ele>
        <time>2018-05-12T13:26:10Z</time>
      </trkpt>
      <trkpt lat="44.2561" lon="7.03342">
        <ele>1754.52</ele>
        <time>2018-05-12T13:26:15Z</time>
      </trkpt>
      <trkpt lat="44.25621" lon="7.03356">
        <ele>1751.19</ele>
        <time>2018-05-12T13:26:27Z</time>
      </trkpt>
      <trkpt lat="44.25626" lon="7.03371">
        <ele>1748.56</ele>
        <time>2018-05-12T13:26:38Z</time>
      </trkpt>
      <trkpt lat="44.25629" lon="7.03376">
        <ele>1747.87</ele>
        <time>2018-05-12T13:26:43Z</time>
      </trkpt>
      <trkpt lat="44.25637" lon="7.03381">
        <ele>1746.33</ele>
        <time>2018-05-12T13:26:51Z</time>
      </trkpt>
      <trkpt lat="44.25644" lon="7.03387">
        <ele>1744.56</ele>
        <time>2018-05-12T13:27:04Z</time>
      </trkpt>
      <trkpt lat="44.25644" lon="7.03392">
        <ele>1743.8</ele>
        <time>2018-05-12T13:27:07Z</time>
      </trkpt>
      <trkpt lat="44.25652" lon="7.03415">
        <ele>1740.27</ele>
        <time>2018-05-12T13:27:23Z</time>
      </trkpt>
      <trkpt lat="44.25655" lon="7.03421">
        <ele>1739.23</ele>
        <time>2018-05-12T13:27:28Z</time>
      </trkpt>
      <trkpt lat="44.25658" lon="7.03423">
        <ele>1738.83</ele>
        <time>2018-05-12T13:27:30Z</time>
      </trkpt>
      <trkpt lat="44.25665" lon="7.03431">
        <ele>1737.6</ele>
        <time>2018-05-12T13:27:37Z</time>
      </trkpt>
      <trkpt lat="44.2567" lon="7.03436">
        <ele>1736.39</ele>
        <time>2018-05-12T13:27:43Z</time>
      </trkpt>
      <trkpt lat="44.2568" lon="7.03448">
        <ele>1734.79</ele>
        <time>2018-05-12T13:27:56Z</time>
      </trkpt>
      <trkpt lat="44.25686" lon="7.03464">
        <ele>1733.05</ele>
        <time>2018-05-12T13:28:10Z</time>
      </trkpt>
      <trkpt lat="44.25692" lon="7.03477">
        <ele>1731.71</ele>
        <time>2018-05-12T13:28:21Z</time>
      </trkpt>
      <trkpt lat="44.25703" lon="7.035">
        <ele>1728.87</ele>
        <time>2018-05-12T13:28:36Z</time>
      </trkpt>
      <trkpt lat="44.25705" lon="7.03503">
        <ele>1728.51</ele>
        <time>2018-05-12T13:28:38Z</time>
      </trkpt>
      <trkpt lat="44.25706" lon="7.03507">
        <ele>1728.01</ele>
        <time>2018-05-12T13:28:41Z</time>
      </trkpt>
      <trkpt lat="44.25707" lon="7.03511">
        <ele>1727.41</ele>
        <time>2018-05-12T13:28:44Z</time>
      </trkpt>
      <trkpt lat="44.25708" lon="7.03517">
        <ele>1726.8</ele>
        <time>2018-05-12T13:28:48Z</time>
      </trkpt>
      <trkpt lat="44.25715" lon="7.03532">
        <ele>1724.79</ele>
        <time>2018-05-12T13:28:58Z</time>
      </trkpt>
      <trkpt lat="44.25721" lon="7.03545">
        <ele>1722.61</ele>
        <time>2018-05-12T13:29:08Z</time>
      </trkpt>
      <trkpt lat="44.25719" lon="7.0356">
        <ele>1721.5</ele>
        <time>2018-05-12T13:29:22Z</time>
      </trkpt>
      <trkpt lat="44.25719" lon="7.03588">
        <ele>1718.79</ele>
        <time>2018-05-12T13:29:42Z</time>
      </trkpt>
      <trkpt lat="44.25719" lon="7.03594">
        <ele>1717.91</ele>
        <time>2018-05-12T13:29:47Z</time>
      </trkpt>
      <trkpt lat="44.25722" lon="7.03625">
        <ele>1714.64</ele>
        <time>2018-05-12T13:30:09Z</time>
      </trkpt>
      <trkpt lat="44.25741" lon="7.03647">
        <ele>1713.36</ele>
        <time>2018-05-12T13:30:31Z</time>
      </trkpt>
      <trkpt lat="44.25755" lon="7.0367">
        <ele>1712.34</ele>
        <time>2018-05-12T13:30:52Z</time>
      </trkpt>
      <trkpt lat="44.25769" lon="7.03704">
        <ele>1711.41</ele>
        <time>2018-05-12T13:31:17Z</time>
      </trkpt>
      <trkpt lat="44.25787" lon="7.03728">
        <ele>1710.33</ele>
        <time>2018-05-12T13:31:38Z</time>
      </trkpt>
      <trkpt lat="44.25805" lon="7.0375">
        <ele>1709.62</ele>
        <time>2018-05-12T13:31:58Z</time>
      </trkpt>
      <trkpt lat="44.25824" lon="7.03771">
        <ele>1707.84</ele>
        <time>2018-05-12T13:32:20Z</time>
      </trkpt>
      <trkpt lat="44.25833" lon="7.03777">
        <ele>1706.24</ele>
        <time>2018-05-12T13:32:33Z</time>
      </trkpt>
      <trkpt lat="44.25848" lon="7.03788">
        <ele>1705.25</ele>
        <time>2018-05-12T13:32:47Z</time>
      </trkpt>
      <trkpt lat="44.25855" lon="7.03793">
        <ele>1704.81</ele>
        <time>2018-05-12T13:32:53Z</time>
      </trkpt>
      <trkpt lat="44.25868" lon="7.03803">
        <ele>1703.66</ele>
        <time>2018-05-12T13:33:09Z</time>
      </trkpt>
      <trkpt lat="44.25892" lon="7.03813">
        <ele>1702.2</ele>
        <time>2018-05-12T13:33:32Z</time>
      </trkpt>
      <trkpt lat="44.25921" lon="7.03836">
        <ele>1700.73</ele>
        <time>2018-05-12T13:33:56Z</time>
      </trkpt>
      <trkpt lat="44.25936" lon="7.03866">
        <ele>1700.44</ele>
        <time>2018-05-12T13:34:20Z</time>
      </trkpt>
      <trkpt lat="44.25942" lon="7.03888">
        <ele>1699.78</ele>
        <time>2018-05-12T13:34:35Z</time>
      </trkpt>
      <trkpt lat="44.25946" lon="7.03895">
        <ele>1700.56</ele>
        <time>2018-05-12T13:34:40Z</time>
      </trkpt>
      <trkpt lat="44.2595" lon="7.0391">
        <ele>1701.55</ele>
        <time>2018-05-12T13:34:50Z</time>
      </trkpt>
      <trkpt lat="44.25952" lon="7.03921">
        <ele>1702.4</ele>
        <time>2018-05-12T13:34:59Z</time>
      </trkpt>
      <trkpt lat="44.25957" lon="7.03941">
        <ele>1703.84</ele>
        <time>2018-05-12T13:35:14Z</time>
      </trkpt>
      <trkpt lat="44.25959" lon="7.03944">
        <ele>1704.16</ele>
        <time>2018-05-12T13:35:17Z</time>
      </trkpt>
      <trkpt lat="44.25965" lon="7.03965">
        <ele>1705.31</ele>
        <time>2018-05-12T13:35:34Z</time>
      </trkpt>
      <trkpt lat="44.25972" lon="7.03996">
        <ele>1704.88</ele>
        <time>2018-05-12T13:35:57Z</time>
      </trkpt>
      <trkpt lat="44.25973" lon="7.0401">
        <ele>1704.45</ele>
        <time>2018-05-12T13:36:05Z</time>
      </trkpt>
      <trkpt lat="44.25973" lon="7.04019">
        <ele>1703.8</ele>
        <time>2018-05-12T13:36:11Z</time>
      </trkpt>
      <trkpt lat="44.25982" lon="7.04033">
        <ele>1702.89</ele>
        <time>2018-05-12T13:36:23Z</time>
      </trkpt>
      <trkpt lat="44.25983" lon="7.04036">
        <ele>1702.83</ele>
        <time>2018-05-12T13:36:25Z</time>
      </trkpt>
      <trkpt lat="44.25985" lon="7.04042">
        <ele>1702.38</ele>
        <time>2018-05-12T13:36:30Z</time>
      </trkpt>
      <trkpt lat="44.25986" lon="7.04049">
        <ele>1701.58</ele>
        <time>2018-05-12T13:36:35Z</time>
      </trkpt>
      <trkpt lat="44.25986" lon="7.04054">
        <ele>1701.31</ele>
        <time>2018-05-12T13:36:39Z</time>
      </trkpt>
      <trkpt lat="44.25988" lon="7.04062">
        <ele>1700.58</ele>
        <time>2018-05-12T13:36:51Z</time>
      </trkpt>
      <trkpt lat="44.25989" lon="7.04067">
        <ele>1700.4</ele>
        <time>2018-05-12T13:37:07Z</time>
      </trkpt>
      <trkpt lat="44.26" lon="7.04098">
        <ele>1697.33</ele>
        <time>2018-05-12T13:37:30Z</time>
      </trkpt>
      <trkpt lat="44.26012" lon="7.04131">
        <ele>1694.3</ele>
        <time>2018-05-12T13:37:52Z</time>
      </trkpt>
      <trkpt lat="44.26017" lon="7.0415">
        <ele>1692.21</ele>
        <time>2018-05-12T13:38:05Z</time>
      </trkpt>
      <trkpt lat="44.26019" lon="7.04155">
        <ele>1691.83</ele>
        <time>2018-05-12T13:38:08Z</time>
      </trkpt>
      <trkpt lat="44.26019" lon="7.04157">
        <ele>1691.38</ele>
        <time>2018-05-12T13:38:10Z</time>
      </trkpt>
      <trkpt lat="44.26022" lon="7.04164">
        <ele>1690.5</ele>
        <time>2018-05-12T13:38:15Z</time>
      </trkpt>
      <trkpt lat="44.26023" lon="7.04175">
        <ele>1689.34</ele>
        <time>2018-05-12T13:38:23Z</time>
      </trkpt>
      <trkpt lat="44.26028" lon="7.04192">
        <ele>1687.08</ele>
        <time>2018-05-12T13:38:35Z</time>
      </trkpt>
      <trkpt lat="44.26031" lon="7.04213">
        <ele>1685.1</ele>
        <time>2018-05-12T13:38:50Z</time>
      </trkpt>
      <trkpt lat="44.26033" lon="7.04225">
        <ele>1684.16</ele>
        <time>2018-05-12T13:38:58Z</time>
      </trkpt>
      <trkpt lat="44.26038" lon="7.0425">
        <ele>1682.27</ele>
        <time>2018-05-12T13:39:15Z</time>
      </trkpt>
      <trkpt lat="44.26045" lon="7.04275">
        <ele>1680.08</ele>
        <time>2018-05-12T13:39:31Z</time>
      </trkpt>
      <trkpt lat="44.2605" lon="7.04299">
        <ele>1677.4</ele>
        <time>2018-05-12T13:39:46Z</time>
      </trkpt>
      <trkpt lat="44.2605" lon="7.04305">
        <ele>1676.85</ele>
        <time>2018-05-12T13:39:50Z</time>
      </trkpt>
      <trkpt lat="44.26052" lon="7.04311">
        <ele>1676.08</ele>
        <time>2018-05-12T13:39:54Z</time>
      </trkpt>
      <trkpt lat="44.26052" lon="7.04323">
        <ele>1674.95</ele>
        <time>2018-05-12T13:40:02Z</time>
      </trkpt>
      <trkpt lat="44.26055" lon="7.04336">
        <ele>1673.44</ele>
        <time>2018-05-12T13:40:11Z</time>
      </trkpt>
      <trkpt lat="44.26058" lon="7.04342">
        <ele>1672.64</ele>
        <time>2018-05-12T13:40:16Z</time>
      </trkpt>
      <trkpt lat="44.26073" lon="7.04357">
        <ele>1672.06</ele>
        <time>2018-05-12T13:40:32Z</time>
      </trkpt>
      <trkpt lat="44.26082" lon="7.04376">
        <ele>1671.98</ele>
        <time>2018-05-12T13:40:47Z</time>
      </trkpt>
      <trkpt lat="44.26088" lon="7.0439">
        <ele>1672.31</ele>
        <time>2018-05-12T13:40:59Z</time>
      </trkpt>
      <trkpt lat="44.26091" lon="7.04403">
        <ele>1671.62</ele>
        <time>2018-05-12T13:41:13Z</time>
      </trkpt>
      <trkpt lat="44.26094" lon="7.04405">
        <ele>1671.56</ele>
        <time>2018-05-12T13:41:29Z</time>
      </trkpt>
      <trkpt lat="44.26093" lon="7.04405">
        <ele>1671.5</ele>
        <time>2018-05-12T13:41:30Z</time>
      </trkpt>
      <trkpt lat="44.26094" lon="7.04405">
        <ele>1671.51</ele>
        <time>2018-05-12T13:41:35Z</time>
      </trkpt>
      <trkpt lat="44.26093" lon="7.04405">
        <ele>1671.54</ele>
        <time>2018-05-12T13:41:38Z</time>
      </trkpt>
      <trkpt lat="44.26094" lon="7.04412">
        <ele>1671.8</ele>
        <time>2018-05-12T13:41:53Z</time>
      </trkpt>
      <trkpt lat="44.26098" lon="7.04414">
        <ele>1671.89</ele>
        <time>2018-05-12T13:41:56Z</time>
      </trkpt>
      <trkpt lat="44.26095" lon="7.04418">
        <ele>1671.66</ele>
        <time>2018-05-12T13:42:05Z</time>
      </trkpt>
      <trkpt lat="44.2609" lon="7.04415">
        <ele>1671.81</ele>
        <time>2018-05-12T13:42:20Z</time>
      </trkpt>
      <trkpt lat="44.26087" lon="7.04415">
        <ele>1672.04</ele>
        <time>2018-05-12T13:42:35Z</time>
      </trkpt>
      <trkpt lat="44.26081" lon="7.04415">
        <ele>1671.54</ele>
        <time>2018-05-12T13:42:40Z</time>
      </trkpt>
      <trkpt lat="44.26079" lon="7.04415">
        <ele>1671.24</ele>
        <time>2018-05-12T13:42:46Z</time>
      </trkpt>
      <trkpt lat="44.26079" lon="7.04414">
        <ele>1671.82</ele>
        <time>2018-05-12T13:42:54Z</time>
      </trkpt>
      <trkpt lat="44.26075" lon="7.04414">
        <ele>1672.05</ele>
        <time>2018-05-12T13:42:56Z</time>
      </trkpt>
      <trkpt lat="44.2608" lon="7.04416">
        <ele>1672.45</ele>
        <time>2018-05-12T13:43:02Z</time>
      </trkpt>
      <trkpt lat="44.26082" lon="7.04414">
        <ele>1671.67</ele>
        <time>2018-05-12T13:43:17Z</time>
      </trkpt>
      <trkpt lat="44.26078" lon="7.04412">
        <ele>1671.43</ele>
        <time>2018-05-12T13:43:20Z</time>
      </trkpt>
      <trkpt lat="44.26079" lon="7.04413">
        <ele>1671.76</ele>
        <time>2018-05-12T13:43:22Z</time>
      </trkpt>
      <trkpt lat="44.26084" lon="7.04412">
        <ele>1672.07</ele>
        <time>2018-05-12T13:43:28Z</time>
      </trkpt>
      <trkpt lat="44.26082" lon="7.04412">
        <ele>1671.95</ele>
        <time>2018-05-12T13:43:41Z</time>
      </trkpt>
      <trkpt lat="44.26078" lon="7.04411">
        <ele>1672.41</ele>
        <time>2018-05-12T13:43:52Z</time>
      </trkpt>
      <trkpt lat="44.26078" lon="7.04411">
        <ele>1672.36</ele>
        <time>2018-05-12T13:43:53Z</time>
      </trkpt>
      <trkpt lat="44.26088" lon="7.04413">
        <ele>1672.01</ele>
        <time>2018-05-12T13:44:01Z</time>
      </trkpt>
    </trkseg>
  </trk>
</gpx>